<?xml version='1.0' encoding='UTF-8'?>
<gpx version="1.1" creator="https://www.komoot.de" xmlns="http://www.topografix.com/GPX/1/1" xmlns:xsi="http://www.w3.org/2001/XMLSchema-instance" xsi:schemaLocation="http://www.topografix.com/GPX/1/1 http://www.topografix.com/GPX/1/1/gpx.xsd">
  <metadata>
    <name>Ukraine Day 1 - Dubno to Rivne</name>
    <author>
      <link href="https://www.komoot.de">
        <text>komoot</text>
        <type>text/html</type>
      </link>
    </author>
  </metadata>
  <trk>
    <name>Ukraine Day 1 - Dubno to Rivne</name>
    <trkseg>
      <trkpt lat="50.419605" lon="25.746845">
        <ele>238.665881</ele>
        <time>2019-06-05T05:32:59.000Z</time>
      </trkpt>
      <trkpt lat="50.419650" lon="25.746702">
        <ele>238.665881</ele>
        <time>2019-06-05T05:35:04.000Z</time>
      </trkpt>
      <trkpt lat="50.419750" lon="25.746733">
        <ele>238.665881</ele>
        <time>2019-06-05T05:35:08.000Z</time>
      </trkpt>
      <trkpt lat="50.419857" lon="25.746763">
        <ele>238.665881</ele>
        <time>2019-06-05T05:35:13.000Z</time>
      </trkpt>
      <trkpt lat="50.419980" lon="25.746738">
        <ele>238.665881</ele>
        <time>2019-06-05T05:35:18.000Z</time>
      </trkpt>
      <trkpt lat="50.420070" lon="25.746723">
        <ele>238.665881</ele>
        <time>2019-06-05T05:35:22.000Z</time>
      </trkpt>
      <trkpt lat="50.420180" lon="25.746693">
        <ele>238.665881</ele>
        <time>2019-06-05T05:35:26.000Z</time>
      </trkpt>
      <trkpt lat="50.420273" lon="25.746680">
        <ele>238.665881</ele>
        <time>2019-06-05T05:35:30.000Z</time>
      </trkpt>
      <trkpt lat="50.420364" lon="25.746658">
        <ele>238.665881</ele>
        <time>2019-06-05T05:35:34.000Z</time>
      </trkpt>
      <trkpt lat="50.420467" lon="25.746635">
        <ele>238.633368</ele>
        <time>2019-06-05T05:35:38.000Z</time>
      </trkpt>
      <trkpt lat="50.420563" lon="25.746605">
        <ele>238.522033</ele>
        <time>2019-06-05T05:35:42.000Z</time>
      </trkpt>
      <trkpt lat="50.420673" lon="25.746550">
        <ele>238.390722</ele>
        <time>2019-06-05T05:35:46.000Z</time>
      </trkpt>
      <trkpt lat="50.420773" lon="25.746483">
        <ele>238.267051</ele>
        <time>2019-06-05T05:35:50.000Z</time>
      </trkpt>
      <trkpt lat="50.420868" lon="25.746382">
        <ele>238.136540</ele>
        <time>2019-06-05T05:35:54.000Z</time>
      </trkpt>
      <trkpt lat="50.420925" lon="25.746265">
        <ele>238.029805</ele>
        <time>2019-06-05T05:35:57.000Z</time>
      </trkpt>
      <trkpt lat="50.421005" lon="25.746136">
        <ele>237.899347</ele>
        <time>2019-06-05T05:36:01.000Z</time>
      </trkpt>
      <trkpt lat="50.421085" lon="25.746002">
        <ele>237.766269</ele>
        <time>2019-06-05T05:36:05.000Z</time>
      </trkpt>
      <trkpt lat="50.421146" lon="25.745857">
        <ele>237.640350</ele>
        <time>2019-06-05T05:36:09.000Z</time>
      </trkpt>
      <trkpt lat="50.421204" lon="25.745700">
        <ele>237.508832</ele>
        <time>2019-06-05T05:36:13.000Z</time>
      </trkpt>
      <trkpt lat="50.421257" lon="25.745564">
        <ele>237.393300</ele>
        <time>2019-06-05T05:36:16.000Z</time>
      </trkpt>
      <trkpt lat="50.421303" lon="25.745426">
        <ele>237.280433</ele>
        <time>2019-06-05T05:36:19.000Z</time>
      </trkpt>
      <trkpt lat="50.421356" lon="25.745304">
        <ele>237.173425</ele>
        <time>2019-06-05T05:36:22.000Z</time>
      </trkpt>
      <trkpt lat="50.421406" lon="25.745169">
        <ele>237.060264</ele>
        <time>2019-06-05T05:36:25.000Z</time>
      </trkpt>
      <trkpt lat="50.421467" lon="25.745008">
        <ele>236.924519</ele>
        <time>2019-06-05T05:36:29.000Z</time>
      </trkpt>
      <trkpt lat="50.421520" lon="25.744865">
        <ele>236.804631</ele>
        <time>2019-06-05T05:36:34.000Z</time>
      </trkpt>
      <trkpt lat="50.421574" lon="25.744738">
        <ele>236.693983</ele>
        <time>2019-06-05T05:36:37.000Z</time>
      </trkpt>
      <trkpt lat="50.421640" lon="25.744581">
        <ele>236.555424</ele>
        <time>2019-06-05T05:36:40.000Z</time>
      </trkpt>
      <trkpt lat="50.421715" lon="25.744425">
        <ele>236.408695</ele>
        <time>2019-06-05T05:36:43.000Z</time>
      </trkpt>
      <trkpt lat="50.421803" lon="25.744278">
        <ele>236.257252</ele>
        <time>2019-06-05T05:36:46.000Z</time>
      </trkpt>
      <trkpt lat="50.421880" lon="25.744130">
        <ele>236.113792</ele>
        <time>2019-06-05T05:36:49.000Z</time>
      </trkpt>
      <trkpt lat="50.421967" lon="25.743994">
        <ele>235.969096</ele>
        <time>2019-06-05T05:36:52.000Z</time>
      </trkpt>
      <trkpt lat="50.422066" lon="25.743883">
        <ele>235.825723</ele>
        <time>2019-06-05T05:36:55.000Z</time>
      </trkpt>
      <trkpt lat="50.422176" lon="25.743793">
        <ele>235.679543</ele>
        <time>2019-06-05T05:36:58.000Z</time>
      </trkpt>
      <trkpt lat="50.422290" lon="25.743715">
        <ele>235.532994</ele>
        <time>2019-06-05T05:37:01.000Z</time>
      </trkpt>
      <trkpt lat="50.422410" lon="25.743664">
        <ele>235.386492</ele>
        <time>2019-06-05T05:37:04.000Z</time>
      </trkpt>
      <trkpt lat="50.422530" lon="25.743624">
        <ele>235.241929</ele>
        <time>2019-06-05T05:37:07.000Z</time>
      </trkpt>
      <trkpt lat="50.422630" lon="25.743565">
        <ele>235.116037</ele>
        <time>2019-06-05T05:37:10.000Z</time>
      </trkpt>
      <trkpt lat="50.422720" lon="25.743507">
        <ele>235.001388</ele>
        <time>2019-06-05T05:37:13.000Z</time>
      </trkpt>
      <trkpt lat="50.422817" lon="25.743454">
        <ele>234.880354</ele>
        <time>2019-06-05T05:37:16.000Z</time>
      </trkpt>
      <trkpt lat="50.422920" lon="25.743395">
        <ele>234.751147</ele>
        <time>2019-06-05T05:37:19.000Z</time>
      </trkpt>
      <trkpt lat="50.423010" lon="25.743343">
        <ele>234.638132</ele>
        <time>2019-06-05T05:37:22.000Z</time>
      </trkpt>
      <trkpt lat="50.423103" lon="25.743301">
        <ele>234.524094</ele>
        <time>2019-06-05T05:37:25.000Z</time>
      </trkpt>
      <trkpt lat="50.423206" lon="25.743252">
        <ele>234.319777</ele>
        <time>2019-06-05T05:37:28.000Z</time>
      </trkpt>
      <trkpt lat="50.423332" lon="25.743176">
        <ele>234.041364</ele>
        <time>2019-06-05T05:37:32.000Z</time>
      </trkpt>
      <trkpt lat="50.423428" lon="25.743140">
        <ele>233.837784</ele>
        <time>2019-06-05T05:37:35.000Z</time>
      </trkpt>
      <trkpt lat="50.423527" lon="25.743082">
        <ele>233.619828</ele>
        <time>2019-06-05T05:37:38.000Z</time>
      </trkpt>
      <trkpt lat="50.423634" lon="25.743020">
        <ele>233.384574</ele>
        <time>2019-06-05T05:37:41.000Z</time>
      </trkpt>
      <trkpt lat="50.423750" lon="25.742958">
        <ele>233.131824</ele>
        <time>2019-06-05T05:37:44.000Z</time>
      </trkpt>
      <trkpt lat="50.423860" lon="25.742905">
        <ele>232.894492</ele>
        <time>2019-06-05T05:37:47.000Z</time>
      </trkpt>
      <trkpt lat="50.423960" lon="25.742853">
        <ele>232.677210</ele>
        <time>2019-06-05T05:37:50.000Z</time>
      </trkpt>
      <trkpt lat="50.424076" lon="25.742807">
        <ele>232.430434</ele>
        <time>2019-06-05T05:37:53.000Z</time>
      </trkpt>
      <trkpt lat="50.424190" lon="25.742743">
        <ele>232.180713</ele>
        <time>2019-06-05T05:37:56.000Z</time>
      </trkpt>
      <trkpt lat="50.424294" lon="25.742690">
        <ele>231.955182</ele>
        <time>2019-06-05T05:37:59.000Z</time>
      </trkpt>
      <trkpt lat="50.424408" lon="25.742617">
        <ele>231.701234</ele>
        <time>2019-06-05T05:38:02.000Z</time>
      </trkpt>
      <trkpt lat="50.424507" lon="25.742601">
        <ele>231.495959</ele>
        <time>2019-06-05T05:38:05.000Z</time>
      </trkpt>
      <trkpt lat="50.424614" lon="25.742634">
        <ele>231.271044</ele>
        <time>2019-06-05T05:38:09.000Z</time>
      </trkpt>
      <trkpt lat="50.424706" lon="25.742580">
        <ele>231.068453</ele>
        <time>2019-06-05T05:38:12.000Z</time>
      </trkpt>
      <trkpt lat="50.424800" lon="25.742561">
        <ele>230.872970</ele>
        <time>2019-06-05T05:38:15.000Z</time>
      </trkpt>
      <trkpt lat="50.424890" lon="25.742506">
        <ele>230.852053</ele>
        <time>2019-06-05T05:38:18.000Z</time>
      </trkpt>
      <trkpt lat="50.424988" lon="25.742449">
        <ele>230.965151</ele>
        <time>2019-06-05T05:38:21.000Z</time>
      </trkpt>
      <trkpt lat="50.425110" lon="25.742384">
        <ele>231.104573</ele>
        <time>2019-06-05T05:38:24.000Z</time>
      </trkpt>
      <trkpt lat="50.425224" lon="25.742340">
        <ele>231.231613</ele>
        <time>2019-06-05T05:38:27.000Z</time>
      </trkpt>
      <trkpt lat="50.425335" lon="25.742304">
        <ele>231.354270</ele>
        <time>2019-06-05T05:38:30.000Z</time>
      </trkpt>
      <trkpt lat="50.425426" lon="25.742280">
        <ele>231.454127</ele>
        <time>2019-06-05T05:38:33.000Z</time>
      </trkpt>
      <trkpt lat="50.425526" lon="25.742277">
        <ele>231.562362</ele>
        <time>2019-06-05T05:38:36.000Z</time>
      </trkpt>
      <trkpt lat="50.425625" lon="25.742271">
        <ele>231.669576</ele>
        <time>2019-06-05T05:38:39.000Z</time>
      </trkpt>
      <trkpt lat="50.425735" lon="25.742280">
        <ele>231.788775</ele>
        <time>2019-06-05T05:38:42.000Z</time>
      </trkpt>
      <trkpt lat="50.425827" lon="25.742277">
        <ele>231.888355</ele>
        <time>2019-06-05T05:38:45.000Z</time>
      </trkpt>
      <trkpt lat="50.425920" lon="25.742266">
        <ele>231.989281</ele>
        <time>2019-06-05T05:38:49.000Z</time>
      </trkpt>
      <trkpt lat="50.426018" lon="25.742280">
        <ele>232.095770</ele>
        <time>2019-06-05T05:39:33.000Z</time>
      </trkpt>
      <trkpt lat="50.426113" lon="25.742268">
        <ele>232.198908</ele>
        <time>2019-06-05T05:39:39.000Z</time>
      </trkpt>
      <trkpt lat="50.426212" lon="25.742270">
        <ele>232.306050</ele>
        <time>2019-06-05T05:39:44.000Z</time>
      </trkpt>
      <trkpt lat="50.426308" lon="25.742256">
        <ele>232.410385</ele>
        <time>2019-06-05T05:39:48.000Z</time>
      </trkpt>
      <trkpt lat="50.426410" lon="25.742231">
        <ele>232.522102</ele>
        <time>2019-06-05T05:39:52.000Z</time>
      </trkpt>
      <trkpt lat="50.426506" lon="25.742212">
        <ele>232.626812</ele>
        <time>2019-06-05T05:39:55.000Z</time>
      </trkpt>
      <trkpt lat="50.426605" lon="25.742195">
        <ele>232.734584</ele>
        <time>2019-06-05T05:39:58.000Z</time>
      </trkpt>
      <trkpt lat="50.426720" lon="25.742226">
        <ele>232.438871</ele>
        <time>2019-06-05T05:40:01.000Z</time>
      </trkpt>
      <trkpt lat="50.426826" lon="25.742252">
        <ele>232.159035</ele>
        <time>2019-06-05T05:40:04.000Z</time>
      </trkpt>
      <trkpt lat="50.426933" lon="25.742252">
        <ele>231.879945</ele>
        <time>2019-06-05T05:40:07.000Z</time>
      </trkpt>
      <trkpt lat="50.427036" lon="25.742186">
        <ele>231.589767</ele>
        <time>2019-06-05T05:40:11.000Z</time>
      </trkpt>
      <trkpt lat="50.427135" lon="25.742119">
        <ele>231.308567</ele>
        <time>2019-06-05T05:40:15.000Z</time>
      </trkpt>
      <trkpt lat="50.427223" lon="25.742065">
        <ele>231.062120</ele>
        <time>2019-06-05T05:40:18.000Z</time>
      </trkpt>
      <trkpt lat="50.427320" lon="25.742040">
        <ele>230.805726</ele>
        <time>2019-06-05T05:40:21.000Z</time>
      </trkpt>
      <trkpt lat="50.427430" lon="25.742031">
        <ele>230.518422</ele>
        <time>2019-06-05T05:40:24.000Z</time>
      </trkpt>
      <trkpt lat="50.427555" lon="25.742046">
        <ele>230.191431</ele>
        <time>2019-06-05T05:40:27.000Z</time>
      </trkpt>
      <trkpt lat="50.427670" lon="25.742067">
        <ele>229.889452</ele>
        <time>2019-06-05T05:40:30.000Z</time>
      </trkpt>
      <trkpt lat="50.427837" lon="25.742110">
        <ele>229.448042</ele>
        <time>2019-06-05T05:40:34.000Z</time>
      </trkpt>
      <trkpt lat="50.427948" lon="25.742159">
        <ele>229.147289</ele>
        <time>2019-06-05T05:40:37.000Z</time>
      </trkpt>
      <trkpt lat="50.428047" lon="25.742250">
        <ele>228.848052</ele>
        <time>2019-06-05T05:40:40.000Z</time>
      </trkpt>
      <trkpt lat="50.428160" lon="25.742370">
        <ele>228.492202</ele>
        <time>2019-06-05T05:40:43.000Z</time>
      </trkpt>
      <trkpt lat="50.428238" lon="25.742453">
        <ele>228.246414</ele>
        <time>2019-06-05T05:40:45.000Z</time>
      </trkpt>
      <trkpt lat="50.428318" lon="25.742556">
        <ele>228.007542</ele>
        <time>2019-06-05T05:40:47.000Z</time>
      </trkpt>
      <trkpt lat="50.428380" lon="25.742668">
        <ele>227.871529</ele>
        <time>2019-06-05T05:40:49.000Z</time>
      </trkpt>
      <trkpt lat="50.428440" lon="25.742780">
        <ele>227.737386</ele>
        <time>2019-06-05T05:40:51.000Z</time>
      </trkpt>
      <trkpt lat="50.428505" lon="25.742886">
        <ele>227.602519</ele>
        <time>2019-06-05T05:40:53.000Z</time>
      </trkpt>
      <trkpt lat="50.428560" lon="25.743008">
        <ele>227.465516</ele>
        <time>2019-06-05T05:40:55.000Z</time>
      </trkpt>
      <trkpt lat="50.428627" lon="25.743176">
        <ele>227.283829</ele>
        <time>2019-06-05T05:40:58.000Z</time>
      </trkpt>
      <trkpt lat="50.428688" lon="25.743315">
        <ele>227.129106</ele>
        <time>2019-06-05T05:41:01.000Z</time>
      </trkpt>
      <trkpt lat="50.428757" lon="25.743464">
        <ele>226.960250</ele>
        <time>2019-06-05T05:41:04.000Z</time>
      </trkpt>
      <trkpt lat="50.428830" lon="25.743626">
        <ele>226.778355</ele>
        <time>2019-06-05T05:41:07.000Z</time>
      </trkpt>
      <trkpt lat="50.428900" lon="25.743769">
        <ele>226.613044</ele>
        <time>2019-06-05T05:41:10.000Z</time>
      </trkpt>
      <trkpt lat="50.428980" lon="25.743920">
        <ele>226.433016</ele>
        <time>2019-06-05T05:41:13.000Z</time>
      </trkpt>
      <trkpt lat="50.429050" lon="25.744076">
        <ele>226.258105</ele>
        <time>2019-06-05T05:41:16.000Z</time>
      </trkpt>
      <trkpt lat="50.429104" lon="25.744200">
        <ele>226.120419</ele>
        <time>2019-06-05T05:41:18.000Z</time>
      </trkpt>
      <trkpt lat="50.429173" lon="25.744377">
        <ele>225.930204</ele>
        <time>2019-06-05T05:41:21.000Z</time>
      </trkpt>
      <trkpt lat="50.429222" lon="25.744501">
        <ele>225.796447</ele>
        <time>2019-06-05T05:41:23.000Z</time>
      </trkpt>
      <trkpt lat="50.429280" lon="25.744621">
        <ele>225.658372</ele>
        <time>2019-06-05T05:41:25.000Z</time>
      </trkpt>
      <trkpt lat="50.429333" lon="25.744747">
        <ele>225.519968</ele>
        <time>2019-06-05T05:41:27.000Z</time>
      </trkpt>
      <trkpt lat="50.429390" lon="25.744870">
        <ele>225.449355</ele>
        <time>2019-06-05T05:41:29.000Z</time>
      </trkpt>
      <trkpt lat="50.429443" lon="25.744995">
        <ele>225.434692</ele>
        <time>2019-06-05T05:41:31.000Z</time>
      </trkpt>
      <trkpt lat="50.429497" lon="25.745130">
        <ele>225.419127</ele>
        <time>2019-06-05T05:41:33.000Z</time>
      </trkpt>
      <trkpt lat="50.429577" lon="25.745296">
        <ele>225.398802</ele>
        <time>2019-06-05T05:41:36.000Z</time>
      </trkpt>
      <trkpt lat="50.429630" lon="25.745413">
        <ele>225.384783</ele>
        <time>2019-06-05T05:41:38.000Z</time>
      </trkpt>
      <trkpt lat="50.429695" lon="25.745544">
        <ele>225.368569</ele>
        <time>2019-06-05T05:41:40.000Z</time>
      </trkpt>
      <trkpt lat="50.429764" lon="25.745665">
        <ele>225.352711</ele>
        <time>2019-06-05T05:41:42.000Z</time>
      </trkpt>
      <trkpt lat="50.429825" lon="25.745798">
        <ele>225.336709</ele>
        <time>2019-06-05T05:41:44.000Z</time>
      </trkpt>
      <trkpt lat="50.429890" lon="25.745935">
        <ele>225.320029</ele>
        <time>2019-06-05T05:41:46.000Z</time>
      </trkpt>
      <trkpt lat="50.429955" lon="25.746080">
        <ele>225.302716</ele>
        <time>2019-06-05T05:41:48.000Z</time>
      </trkpt>
      <trkpt lat="50.430020" lon="25.746225">
        <ele>225.285403</ele>
        <time>2019-06-05T05:41:50.000Z</time>
      </trkpt>
      <trkpt lat="50.430080" lon="25.746372">
        <ele>225.268355</ele>
        <time>2019-06-05T05:41:52.000Z</time>
      </trkpt>
      <trkpt lat="50.430145" lon="25.746520">
        <ele>225.250802</ele>
        <time>2019-06-05T05:41:54.000Z</time>
      </trkpt>
      <trkpt lat="50.430206" lon="25.746668">
        <ele>225.233590</ele>
        <time>2019-06-05T05:41:56.000Z</time>
      </trkpt>
      <trkpt lat="50.430270" lon="25.746810">
        <ele>225.216605</ele>
        <time>2019-06-05T05:41:58.000Z</time>
      </trkpt>
      <trkpt lat="50.430336" lon="25.746954">
        <ele>225.199282</ele>
        <time>2019-06-05T05:42:00.000Z</time>
      </trkpt>
      <trkpt lat="50.430405" lon="25.747093">
        <ele>225.182076</ele>
        <time>2019-06-05T05:42:02.000Z</time>
      </trkpt>
      <trkpt lat="50.430470" lon="25.747223">
        <ele>225.161107</ele>
        <time>2019-06-05T05:42:04.000Z</time>
      </trkpt>
      <trkpt lat="50.430534" lon="25.747360">
        <ele>225.139483</ele>
        <time>2019-06-05T05:42:06.000Z</time>
      </trkpt>
      <trkpt lat="50.430600" lon="25.747501">
        <ele>225.117213</ele>
        <time>2019-06-05T05:42:08.000Z</time>
      </trkpt>
      <trkpt lat="50.430660" lon="25.747646">
        <ele>225.095205</ele>
        <time>2019-06-05T05:42:10.000Z</time>
      </trkpt>
      <trkpt lat="50.430717" lon="25.747790">
        <ele>225.073626</ele>
        <time>2019-06-05T05:42:12.000Z</time>
      </trkpt>
      <trkpt lat="50.430780" lon="25.747929">
        <ele>225.051913</ele>
        <time>2019-06-05T05:42:14.000Z</time>
      </trkpt>
      <trkpt lat="50.430843" lon="25.748068">
        <ele>225.030200</ele>
        <time>2019-06-05T05:42:16.000Z</time>
      </trkpt>
      <trkpt lat="50.430904" lon="25.748201">
        <ele>225.009340</ele>
        <time>2019-06-05T05:42:18.000Z</time>
      </trkpt>
      <trkpt lat="50.430965" lon="25.748337">
        <ele>224.988169</ele>
        <time>2019-06-05T05:42:20.000Z</time>
      </trkpt>
      <trkpt lat="50.431026" lon="25.748468">
        <ele>224.967516</ele>
        <time>2019-06-05T05:42:22.000Z</time>
      </trkpt>
      <trkpt lat="50.431080" lon="25.748604">
        <ele>224.947118</ele>
        <time>2019-06-05T05:42:24.000Z</time>
      </trkpt>
      <trkpt lat="50.431145" lon="25.748737">
        <ele>224.925782</ele>
        <time>2019-06-05T05:42:26.000Z</time>
      </trkpt>
      <trkpt lat="50.431206" lon="25.748869">
        <ele>224.905026</ele>
        <time>2019-06-05T05:42:28.000Z</time>
      </trkpt>
      <trkpt lat="50.431267" lon="25.749002">
        <ele>224.884166</ele>
        <time>2019-06-05T05:42:30.000Z</time>
      </trkpt>
      <trkpt lat="50.431328" lon="25.749144">
        <ele>224.862367</ele>
        <time>2019-06-05T05:42:32.000Z</time>
      </trkpt>
      <trkpt lat="50.431385" lon="25.749277">
        <ele>224.841964</ele>
        <time>2019-06-05T05:42:34.000Z</time>
      </trkpt>
      <trkpt lat="50.431450" lon="25.749414">
        <ele>224.814914</ele>
        <time>2019-06-05T05:42:36.000Z</time>
      </trkpt>
      <trkpt lat="50.431507" lon="25.749546">
        <ele>224.746692</ele>
        <time>2019-06-05T05:42:38.000Z</time>
      </trkpt>
      <trkpt lat="50.431564" lon="25.749685">
        <ele>224.675972</ele>
        <time>2019-06-05T05:42:40.000Z</time>
      </trkpt>
      <trkpt lat="50.431625" lon="25.749819">
        <ele>224.605513</ele>
        <time>2019-06-05T05:42:42.000Z</time>
      </trkpt>
      <trkpt lat="50.431686" lon="25.749954">
        <ele>224.534706</ele>
        <time>2019-06-05T05:42:44.000Z</time>
      </trkpt>
      <trkpt lat="50.431744" lon="25.750088">
        <ele>224.465399</ele>
        <time>2019-06-05T05:42:46.000Z</time>
      </trkpt>
      <trkpt lat="50.431810" lon="25.750217">
        <ele>224.394617</ele>
        <time>2019-06-05T05:42:48.000Z</time>
      </trkpt>
      <trkpt lat="50.431866" lon="25.750347">
        <ele>224.327480</ele>
        <time>2019-06-05T05:42:50.000Z</time>
      </trkpt>
      <trkpt lat="50.431940" lon="25.750515">
        <ele>224.240102</ele>
        <time>2019-06-05T05:42:53.000Z</time>
      </trkpt>
      <trkpt lat="50.432003" lon="25.750656">
        <ele>224.166423</ele>
        <time>2019-06-05T05:42:56.000Z</time>
      </trkpt>
      <trkpt lat="50.432064" lon="25.750818">
        <ele>224.085917</ele>
        <time>2019-06-05T05:42:59.000Z</time>
      </trkpt>
      <trkpt lat="50.432130" lon="25.750960">
        <ele>224.010719</ele>
        <time>2019-06-05T05:43:02.000Z</time>
      </trkpt>
      <trkpt lat="50.432198" lon="25.751106">
        <ele>223.933346</ele>
        <time>2019-06-05T05:43:05.000Z</time>
      </trkpt>
      <trkpt lat="50.432262" lon="25.751250">
        <ele>223.858231</ele>
        <time>2019-06-05T05:43:08.000Z</time>
      </trkpt>
      <trkpt lat="50.432340" lon="25.751406">
        <ele>223.773392</ele>
        <time>2019-06-05T05:43:11.000Z</time>
      </trkpt>
      <trkpt lat="50.432410" lon="25.751577">
        <ele>223.686436</ele>
        <time>2019-06-05T05:43:14.000Z</time>
      </trkpt>
      <trkpt lat="50.432470" lon="25.751690">
        <ele>223.623504</ele>
        <time>2019-06-05T05:43:16.000Z</time>
      </trkpt>
      <trkpt lat="50.432526" lon="25.751816">
        <ele>223.679675</ele>
        <time>2019-06-05T05:43:18.000Z</time>
      </trkpt>
      <trkpt lat="50.432583" lon="25.751942">
        <ele>223.755570</ele>
        <time>2019-06-05T05:43:20.000Z</time>
      </trkpt>
      <trkpt lat="50.432636" lon="25.752060">
        <ele>223.826477</ele>
        <time>2019-06-05T05:43:22.000Z</time>
      </trkpt>
      <trkpt lat="50.432682" lon="25.752180">
        <ele>223.895257</ele>
        <time>2019-06-05T05:43:24.000Z</time>
      </trkpt>
      <trkpt lat="50.432743" lon="25.752302">
        <ele>223.971424</ele>
        <time>2019-06-05T05:43:26.000Z</time>
      </trkpt>
      <trkpt lat="50.432796" lon="25.752422">
        <ele>224.043136</ele>
        <time>2019-06-05T05:43:28.000Z</time>
      </trkpt>
      <trkpt lat="50.432846" lon="25.752544">
        <ele>224.114379</ele>
        <time>2019-06-05T05:43:30.000Z</time>
      </trkpt>
      <trkpt lat="50.432903" lon="25.752670">
        <ele>224.190274</ele>
        <time>2019-06-05T05:43:32.000Z</time>
      </trkpt>
      <trkpt lat="50.432957" lon="25.752785">
        <ele>224.260437</ele>
        <time>2019-06-05T05:43:34.000Z</time>
      </trkpt>
      <trkpt lat="50.433018" lon="25.752901">
        <ele>224.334308</ele>
        <time>2019-06-05T05:43:36.000Z</time>
      </trkpt>
      <trkpt lat="50.433090" lon="25.753065">
        <ele>224.432124</ele>
        <time>2019-06-05T05:43:39.000Z</time>
      </trkpt>
      <trkpt lat="50.433150" lon="25.753176">
        <ele>224.503617</ele>
        <time>2019-06-05T05:43:41.000Z</time>
      </trkpt>
      <trkpt lat="50.433210" lon="25.753294">
        <ele>224.577765</ele>
        <time>2019-06-05T05:43:43.000Z</time>
      </trkpt>
      <trkpt lat="50.433258" lon="25.753410">
        <ele>224.645696</ele>
        <time>2019-06-05T05:43:45.000Z</time>
      </trkpt>
      <trkpt lat="50.433315" lon="25.753540">
        <ele>224.723200</ele>
        <time>2019-06-05T05:43:47.000Z</time>
      </trkpt>
      <trkpt lat="50.433372" lon="25.753670">
        <ele>224.800705</ele>
        <time>2019-06-05T05:43:49.000Z</time>
      </trkpt>
      <trkpt lat="50.433430" lon="25.753794">
        <ele>224.876255</ele>
        <time>2019-06-05T05:43:51.000Z</time>
      </trkpt>
      <trkpt lat="50.433483" lon="25.753918">
        <ele>224.949588</ele>
        <time>2019-06-05T05:43:53.000Z</time>
      </trkpt>
      <trkpt lat="50.433540" lon="25.754038">
        <ele>224.990616</ele>
        <time>2019-06-05T05:43:55.000Z</time>
      </trkpt>
      <trkpt lat="50.433590" lon="25.754160">
        <ele>224.956046</ele>
        <time>2019-06-05T05:43:57.000Z</time>
      </trkpt>
      <trkpt lat="50.433643" lon="25.754293">
        <ele>224.918661</ele>
        <time>2019-06-05T05:43:59.000Z</time>
      </trkpt>
      <trkpt lat="50.433704" lon="25.754417">
        <ele>224.881327</ele>
        <time>2019-06-05T05:44:01.000Z</time>
      </trkpt>
      <trkpt lat="50.433765" lon="25.754534">
        <ele>224.845298</ele>
        <time>2019-06-05T05:44:03.000Z</time>
      </trkpt>
      <trkpt lat="50.433846" lon="25.754690">
        <ele>224.797338</ele>
        <time>2019-06-05T05:44:06.000Z</time>
      </trkpt>
      <trkpt lat="50.433914" lon="25.754791">
        <ele>224.762318</ele>
        <time>2019-06-05T05:44:08.000Z</time>
      </trkpt>
      <trkpt lat="50.433980" lon="25.754894">
        <ele>224.727503</ele>
        <time>2019-06-05T05:44:10.000Z</time>
      </trkpt>
      <trkpt lat="50.434048" lon="25.755001">
        <ele>224.691486</ele>
        <time>2019-06-05T05:44:12.000Z</time>
      </trkpt>
      <trkpt lat="50.434116" lon="25.755110">
        <ele>224.655130</ele>
        <time>2019-06-05T05:44:14.000Z</time>
      </trkpt>
      <trkpt lat="50.434193" lon="25.755205">
        <ele>224.618493</ele>
        <time>2019-06-05T05:44:16.000Z</time>
      </trkpt>
      <trkpt lat="50.434265" lon="25.755312">
        <ele>224.581403</ele>
        <time>2019-06-05T05:44:18.000Z</time>
      </trkpt>
      <trkpt lat="50.434345" lon="25.755417">
        <ele>224.542394</ele>
        <time>2019-06-05T05:44:20.000Z</time>
      </trkpt>
      <trkpt lat="50.434420" lon="25.755524">
        <ele>224.504481</ele>
        <time>2019-06-05T05:44:22.000Z</time>
      </trkpt>
      <trkpt lat="50.434494" lon="25.755634">
        <ele>224.466357</ele>
        <time>2019-06-05T05:44:24.000Z</time>
      </trkpt>
      <trkpt lat="50.434570" lon="25.755741">
        <ele>224.428167</ele>
        <time>2019-06-05T05:44:26.000Z</time>
      </trkpt>
      <trkpt lat="50.434650" lon="25.755838">
        <ele>224.390352</ele>
        <time>2019-06-05T05:44:28.000Z</time>
      </trkpt>
      <trkpt lat="50.434727" lon="25.755940">
        <ele>224.352662</ele>
        <time>2019-06-05T05:44:30.000Z</time>
      </trkpt>
      <trkpt lat="50.434803" lon="25.756042">
        <ele>224.356580</ele>
        <time>2019-06-05T05:44:32.000Z</time>
      </trkpt>
      <trkpt lat="50.434870" lon="25.756147">
        <ele>224.432967</ele>
        <time>2019-06-05T05:44:34.000Z</time>
      </trkpt>
      <trkpt lat="50.434950" lon="25.756243">
        <ele>224.514215</ele>
        <time>2019-06-05T05:44:36.000Z</time>
      </trkpt>
      <trkpt lat="50.435030" lon="25.756342">
        <ele>224.596408</ele>
        <time>2019-06-05T05:44:38.000Z</time>
      </trkpt>
      <trkpt lat="50.435104" lon="25.756447">
        <ele>224.676891</ele>
        <time>2019-06-05T05:44:40.000Z</time>
      </trkpt>
      <trkpt lat="50.435180" lon="25.756550">
        <ele>224.757903</ele>
        <time>2019-06-05T05:44:42.000Z</time>
      </trkpt>
      <trkpt lat="50.435260" lon="25.756655">
        <ele>224.842040</ele>
        <time>2019-06-05T05:44:44.000Z</time>
      </trkpt>
      <trkpt lat="50.435337" lon="25.756760">
        <ele>224.924335</ele>
        <time>2019-06-05T05:44:46.000Z</time>
      </trkpt>
      <trkpt lat="50.435413" lon="25.756860">
        <ele>225.004348</ele>
        <time>2019-06-05T05:44:48.000Z</time>
      </trkpt>
      <trkpt lat="50.435486" lon="25.756956">
        <ele>225.081185</ele>
        <time>2019-06-05T05:44:50.000Z</time>
      </trkpt>
      <trkpt lat="50.435562" lon="25.757065">
        <ele>225.164244</ele>
        <time>2019-06-05T05:44:52.000Z</time>
      </trkpt>
      <trkpt lat="50.435640" lon="25.757185">
        <ele>225.252362</ele>
        <time>2019-06-05T05:44:54.000Z</time>
      </trkpt>
      <trkpt lat="50.435720" lon="25.757282">
        <ele>225.333923</ele>
        <time>2019-06-05T05:44:56.000Z</time>
      </trkpt>
      <trkpt lat="50.435795" lon="25.757383">
        <ele>225.413652</ele>
        <time>2019-06-05T05:44:58.000Z</time>
      </trkpt>
      <trkpt lat="50.435867" lon="25.757494">
        <ele>225.495075</ele>
        <time>2019-06-05T05:45:00.000Z</time>
      </trkpt>
      <trkpt lat="50.435947" lon="25.757603">
        <ele>225.580544</ele>
        <time>2019-06-05T05:45:02.000Z</time>
      </trkpt>
      <trkpt lat="50.436030" lon="25.757708">
        <ele>225.666552</ele>
        <time>2019-06-05T05:45:04.000Z</time>
      </trkpt>
      <trkpt lat="50.436104" lon="25.757809">
        <ele>225.745671</ele>
        <time>2019-06-05T05:45:06.000Z</time>
      </trkpt>
      <trkpt lat="50.436180" lon="25.757917">
        <ele>225.748358</ele>
        <time>2019-06-05T05:45:08.000Z</time>
      </trkpt>
      <trkpt lat="50.436256" lon="25.758024">
        <ele>225.695447</ele>
        <time>2019-06-05T05:45:10.000Z</time>
      </trkpt>
      <trkpt lat="50.436333" lon="25.758140">
        <ele>225.640135</ele>
        <time>2019-06-05T05:45:12.000Z</time>
      </trkpt>
      <trkpt lat="50.436405" lon="25.758250">
        <ele>225.588063</ele>
        <time>2019-06-05T05:45:14.000Z</time>
      </trkpt>
      <trkpt lat="50.436470" lon="25.758371">
        <ele>225.535806</ele>
        <time>2019-06-05T05:45:16.000Z</time>
      </trkpt>
      <trkpt lat="50.436540" lon="25.758495">
        <ele>225.481105</ele>
        <time>2019-06-05T05:45:18.000Z</time>
      </trkpt>
      <trkpt lat="50.436604" lon="25.758630">
        <ele>225.425547</ele>
        <time>2019-06-05T05:45:20.000Z</time>
      </trkpt>
      <trkpt lat="50.436660" lon="25.758770">
        <ele>225.370970</ele>
        <time>2019-06-05T05:45:22.000Z</time>
      </trkpt>
      <trkpt lat="50.436714" lon="25.758904">
        <ele>225.318621</ele>
        <time>2019-06-05T05:45:24.000Z</time>
      </trkpt>
      <trkpt lat="50.436760" lon="25.759043">
        <ele>225.266908</ele>
        <time>2019-06-05T05:45:26.000Z</time>
      </trkpt>
      <trkpt lat="50.436813" lon="25.759178">
        <ele>225.214554</ele>
        <time>2019-06-05T05:45:28.000Z</time>
      </trkpt>
      <trkpt lat="50.436860" lon="25.759320">
        <ele>225.161723</ele>
        <time>2019-06-05T05:45:30.000Z</time>
      </trkpt>
      <trkpt lat="50.436905" lon="25.759455">
        <ele>225.111421</ele>
        <time>2019-06-05T05:45:32.000Z</time>
      </trkpt>
      <trkpt lat="50.436950" lon="25.759602">
        <ele>225.057578</ele>
        <time>2019-06-05T05:45:34.000Z</time>
      </trkpt>
      <trkpt lat="50.436993" lon="25.759747">
        <ele>225.004774</ele>
        <time>2019-06-05T05:45:36.000Z</time>
      </trkpt>
      <trkpt lat="50.437035" lon="25.759897">
        <ele>224.950681</ele>
        <time>2019-06-05T05:45:38.000Z</time>
      </trkpt>
      <trkpt lat="50.437080" lon="25.760048">
        <ele>224.895644</ele>
        <time>2019-06-05T05:45:40.000Z</time>
      </trkpt>
      <trkpt lat="50.437126" lon="25.760193">
        <ele>224.846318</ele>
        <time>2019-06-05T05:45:42.000Z</time>
      </trkpt>
      <trkpt lat="50.437176" lon="25.760338">
        <ele>224.835168</ele>
        <time>2019-06-05T05:45:44.000Z</time>
      </trkpt>
      <trkpt lat="50.437220" lon="25.760489">
        <ele>224.823940</ele>
        <time>2019-06-05T05:45:46.000Z</time>
      </trkpt>
      <trkpt lat="50.437267" lon="25.760632">
        <ele>224.813059</ele>
        <time>2019-06-05T05:45:48.000Z</time>
      </trkpt>
      <trkpt lat="50.437310" lon="25.760778">
        <ele>224.802182</ele>
        <time>2019-06-05T05:45:50.000Z</time>
      </trkpt>
      <trkpt lat="50.437350" lon="25.760921">
        <ele>224.791622</ele>
        <time>2019-06-05T05:45:52.000Z</time>
      </trkpt>
      <trkpt lat="50.437393" lon="25.761066">
        <ele>224.780806</ele>
        <time>2019-06-05T05:45:54.000Z</time>
      </trkpt>
      <trkpt lat="50.437443" lon="25.761202">
        <ele>224.770188</ele>
        <time>2019-06-05T05:45:56.000Z</time>
      </trkpt>
      <trkpt lat="50.437492" lon="25.761345">
        <ele>224.759208</ele>
        <time>2019-06-05T05:45:58.000Z</time>
      </trkpt>
      <trkpt lat="50.437527" lon="25.761500">
        <ele>224.748088</ele>
        <time>2019-06-05T05:46:00.000Z</time>
      </trkpt>
      <trkpt lat="50.437570" lon="25.761654">
        <ele>224.736718</ele>
        <time>2019-06-05T05:46:02.000Z</time>
      </trkpt>
      <trkpt lat="50.437610" lon="25.761795">
        <ele>224.726281</ele>
        <time>2019-06-05T05:46:04.000Z</time>
      </trkpt>
      <trkpt lat="50.437653" lon="25.761940">
        <ele>224.715466</ele>
        <time>2019-06-05T05:46:06.000Z</time>
      </trkpt>
      <trkpt lat="50.437695" lon="25.762081">
        <ele>224.704941</ele>
        <time>2019-06-05T05:46:08.000Z</time>
      </trkpt>
      <trkpt lat="50.437733" lon="25.762226">
        <ele>224.694339</ele>
        <time>2019-06-05T05:46:10.000Z</time>
      </trkpt>
      <trkpt lat="50.437780" lon="25.762367">
        <ele>224.683578</ele>
        <time>2019-06-05T05:46:12.000Z</time>
      </trkpt>
      <trkpt lat="50.437817" lon="25.762512">
        <ele>224.673016</ele>
        <time>2019-06-05T05:46:14.000Z</time>
      </trkpt>
      <trkpt lat="50.437862" lon="25.762648">
        <ele>224.662653</ele>
        <time>2019-06-05T05:46:16.000Z</time>
      </trkpt>
      <trkpt lat="50.437900" lon="25.762785">
        <ele>224.690954</ele>
        <time>2019-06-05T05:46:18.000Z</time>
      </trkpt>
      <trkpt lat="50.437940" lon="25.762920">
        <ele>224.780371</ele>
        <time>2019-06-05T05:46:20.000Z</time>
      </trkpt>
      <trkpt lat="50.437980" lon="25.763062">
        <ele>224.873617</ele>
        <time>2019-06-05T05:46:22.000Z</time>
      </trkpt>
      <trkpt lat="50.438023" lon="25.763195">
        <ele>224.963191</ele>
        <time>2019-06-05T05:46:24.000Z</time>
      </trkpt>
      <trkpt lat="50.438060" lon="25.763325">
        <ele>225.048702</ele>
        <time>2019-06-05T05:46:26.000Z</time>
      </trkpt>
      <trkpt lat="50.438118" lon="25.763512">
        <ele>225.173612</ele>
        <time>2019-06-05T05:46:29.000Z</time>
      </trkpt>
      <trkpt lat="50.438168" lon="25.763678">
        <ele>225.283888</ele>
        <time>2019-06-05T05:46:32.000Z</time>
      </trkpt>
      <trkpt lat="50.438213" lon="25.763844">
        <ele>225.392232</ele>
        <time>2019-06-05T05:46:35.000Z</time>
      </trkpt>
      <trkpt lat="50.438263" lon="25.764002">
        <ele>225.498184</ele>
        <time>2019-06-05T05:46:38.000Z</time>
      </trkpt>
      <trkpt lat="50.438305" lon="25.764166">
        <ele>225.604337</ele>
        <time>2019-06-05T05:46:41.000Z</time>
      </trkpt>
      <trkpt lat="50.438350" lon="25.764343">
        <ele>225.718788</ele>
        <time>2019-06-05T05:46:44.000Z</time>
      </trkpt>
      <trkpt lat="50.438404" lon="25.764515">
        <ele>225.833948</ele>
        <time>2019-06-05T05:46:47.000Z</time>
      </trkpt>
      <trkpt lat="50.438446" lon="25.764648">
        <ele>225.923099</ele>
        <time>2019-06-05T05:46:50.000Z</time>
      </trkpt>
      <trkpt lat="50.438503" lon="25.764833">
        <ele>226.046516</ele>
        <time>2019-06-05T05:52:50.000Z</time>
      </trkpt>
      <trkpt lat="50.438534" lon="25.764980">
        <ele>226.139508</ele>
        <time>2019-06-05T05:52:56.000Z</time>
      </trkpt>
      <trkpt lat="50.438583" lon="25.765099">
        <ele>226.224606</ele>
        <time>2019-06-05T05:53:39.000Z</time>
      </trkpt>
      <trkpt lat="50.438620" lon="25.765257">
        <ele>226.325702</ele>
        <time>2019-06-05T05:53:43.000Z</time>
      </trkpt>
      <trkpt lat="50.438667" lon="25.765390">
        <ele>226.386628</ele>
        <time>2019-06-05T05:53:46.000Z</time>
      </trkpt>
      <trkpt lat="50.438720" lon="25.765522">
        <ele>226.436261</ele>
        <time>2019-06-05T05:53:49.000Z</time>
      </trkpt>
      <trkpt lat="50.438770" lon="25.765678">
        <ele>226.491811</ele>
        <time>2019-06-05T05:53:52.000Z</time>
      </trkpt>
      <trkpt lat="50.438812" lon="25.765860">
        <ele>226.553384</ele>
        <time>2019-06-05T05:53:55.000Z</time>
      </trkpt>
      <trkpt lat="50.438870" lon="25.766037">
        <ele>226.616699</ele>
        <time>2019-06-05T05:53:58.000Z</time>
      </trkpt>
      <trkpt lat="50.438923" lon="25.766214">
        <ele>226.678911</ele>
        <time>2019-06-05T05:54:01.000Z</time>
      </trkpt>
      <trkpt lat="50.438970" lon="25.766382">
        <ele>226.737276</ele>
        <time>2019-06-05T05:54:04.000Z</time>
      </trkpt>
      <trkpt lat="50.439022" lon="25.766570">
        <ele>226.802470</ele>
        <time>2019-06-05T05:54:07.000Z</time>
      </trkpt>
      <trkpt lat="50.439083" lon="25.766758">
        <ele>226.869582</ele>
        <time>2019-06-05T05:54:10.000Z</time>
      </trkpt>
      <trkpt lat="50.439140" lon="25.766947">
        <ele>226.936098</ele>
        <time>2019-06-05T05:54:13.000Z</time>
      </trkpt>
      <trkpt lat="50.439200" lon="25.767128">
        <ele>227.001001</ele>
        <time>2019-06-05T05:54:16.000Z</time>
      </trkpt>
      <trkpt lat="50.439240" lon="25.767262">
        <ele>227.048073</ele>
        <time>2019-06-05T05:54:18.000Z</time>
      </trkpt>
      <trkpt lat="50.439278" lon="25.767397">
        <ele>227.095020</ele>
        <time>2019-06-05T05:54:20.000Z</time>
      </trkpt>
      <trkpt lat="50.439316" lon="25.767527">
        <ele>227.140517</ele>
        <time>2019-06-05T05:54:22.000Z</time>
      </trkpt>
      <trkpt lat="50.439354" lon="25.767660">
        <ele>227.186883</ele>
        <time>2019-06-05T05:54:24.000Z</time>
      </trkpt>
      <trkpt lat="50.439407" lon="25.767841">
        <ele>227.250248</ele>
        <time>2019-06-05T05:54:27.000Z</time>
      </trkpt>
      <trkpt lat="50.439460" lon="25.768020">
        <ele>227.318762</ele>
        <time>2019-06-05T05:54:30.000Z</time>
      </trkpt>
      <trkpt lat="50.439520" lon="25.768204">
        <ele>227.390548</ele>
        <time>2019-06-05T05:54:33.000Z</time>
      </trkpt>
      <trkpt lat="50.439583" lon="25.768377">
        <ele>227.459753</ele>
        <time>2019-06-05T05:54:36.000Z</time>
      </trkpt>
      <trkpt lat="50.439620" lon="25.768510">
        <ele>227.510153</ele>
        <time>2019-06-05T05:54:38.000Z</time>
      </trkpt>
      <trkpt lat="50.439663" lon="25.768646">
        <ele>227.562881</ele>
        <time>2019-06-05T05:54:40.000Z</time>
      </trkpt>
      <trkpt lat="50.439705" lon="25.768780">
        <ele>227.614745</ele>
        <time>2019-06-05T05:54:42.000Z</time>
      </trkpt>
      <trkpt lat="50.439743" lon="25.768920">
        <ele>227.667594</ele>
        <time>2019-06-05T05:54:44.000Z</time>
      </trkpt>
      <trkpt lat="50.439790" lon="25.769053">
        <ele>227.720414</ele>
        <time>2019-06-05T05:54:46.000Z</time>
      </trkpt>
      <trkpt lat="50.439840" lon="25.769192">
        <ele>227.775851</ele>
        <time>2019-06-05T05:54:48.000Z</time>
      </trkpt>
      <trkpt lat="50.439880" lon="25.769339">
        <ele>227.831363</ele>
        <time>2019-06-05T05:54:50.000Z</time>
      </trkpt>
      <trkpt lat="50.439922" lon="25.769482">
        <ele>227.886048</ele>
        <time>2019-06-05T05:54:52.000Z</time>
      </trkpt>
      <trkpt lat="50.439964" lon="25.769623">
        <ele>227.940104</ele>
        <time>2019-06-05T05:54:54.000Z</time>
      </trkpt>
      <trkpt lat="50.440010" lon="25.769766">
        <ele>227.995738</ele>
        <time>2019-06-05T05:54:56.000Z</time>
      </trkpt>
      <trkpt lat="50.440050" lon="25.769918">
        <ele>228.052850</ele>
        <time>2019-06-05T05:54:58.000Z</time>
      </trkpt>
      <trkpt lat="50.440090" lon="25.770070">
        <ele>228.109963</ele>
        <time>2019-06-05T05:55:00.000Z</time>
      </trkpt>
      <trkpt lat="50.440140" lon="25.770212">
        <ele>228.166310</ele>
        <time>2019-06-05T05:55:02.000Z</time>
      </trkpt>
      <trkpt lat="50.440186" lon="25.770355">
        <ele>228.221943</ele>
        <time>2019-06-05T05:55:04.000Z</time>
      </trkpt>
      <trkpt lat="50.440224" lon="25.770493">
        <ele>228.158007</ele>
        <time>2019-06-05T05:55:06.000Z</time>
      </trkpt>
      <trkpt lat="50.440260" lon="25.770647">
        <ele>228.060318</ele>
        <time>2019-06-05T05:55:08.000Z</time>
      </trkpt>
      <trkpt lat="50.440304" lon="25.770798">
        <ele>227.961433</ele>
        <time>2019-06-05T05:55:10.000Z</time>
      </trkpt>
      <trkpt lat="50.440346" lon="25.770952">
        <ele>227.861672</ele>
        <time>2019-06-05T05:55:12.000Z</time>
      </trkpt>
      <trkpt lat="50.440390" lon="25.771109">
        <ele>227.759527</ele>
        <time>2019-06-05T05:55:14.000Z</time>
      </trkpt>
      <trkpt lat="50.440437" lon="25.771252">
        <ele>227.663700</ele>
        <time>2019-06-05T05:55:16.000Z</time>
      </trkpt>
      <trkpt lat="50.440483" lon="25.771402">
        <ele>227.564560</ele>
        <time>2019-06-05T05:55:18.000Z</time>
      </trkpt>
      <trkpt lat="50.440525" lon="25.771550">
        <ele>227.468073</ele>
        <time>2019-06-05T05:55:20.000Z</time>
      </trkpt>
      <trkpt lat="50.440563" lon="25.771696">
        <ele>227.374151</ele>
        <time>2019-06-05T05:55:22.000Z</time>
      </trkpt>
      <trkpt lat="50.440600" lon="25.771837">
        <ele>227.283338</ele>
        <time>2019-06-05T05:55:24.000Z</time>
      </trkpt>
      <trkpt lat="50.440630" lon="25.771976">
        <ele>227.195941</ele>
        <time>2019-06-05T05:55:26.000Z</time>
      </trkpt>
      <trkpt lat="50.440662" lon="25.772118">
        <ele>227.106243</ele>
        <time>2019-06-05T05:55:28.000Z</time>
      </trkpt>
      <trkpt lat="50.440697" lon="25.772264">
        <ele>227.013346</ele>
        <time>2019-06-05T05:55:30.000Z</time>
      </trkpt>
      <trkpt lat="50.440735" lon="25.772415">
        <ele>226.916661</ele>
        <time>2019-06-05T05:55:32.000Z</time>
      </trkpt>
      <trkpt lat="50.440773" lon="25.772550">
        <ele>226.828768</ele>
        <time>2019-06-05T05:55:34.000Z</time>
      </trkpt>
      <trkpt lat="50.440815" lon="25.772697">
        <ele>226.732825</ele>
        <time>2019-06-05T05:55:36.000Z</time>
      </trkpt>
      <trkpt lat="50.440850" lon="25.772852">
        <ele>226.634895</ele>
        <time>2019-06-05T05:55:38.000Z</time>
      </trkpt>
      <trkpt lat="50.440895" lon="25.772993">
        <ele>226.545985</ele>
        <time>2019-06-05T05:55:40.000Z</time>
      </trkpt>
      <trkpt lat="50.440937" lon="25.773136">
        <ele>226.506657</ele>
        <time>2019-06-05T05:55:42.000Z</time>
      </trkpt>
      <trkpt lat="50.440980" lon="25.773283">
        <ele>226.466258</ele>
        <time>2019-06-05T05:55:44.000Z</time>
      </trkpt>
      <trkpt lat="50.441020" lon="25.773426">
        <ele>226.427252</ele>
        <time>2019-06-05T05:55:46.000Z</time>
      </trkpt>
      <trkpt lat="50.441063" lon="25.773570">
        <ele>226.387532</ele>
        <time>2019-06-05T05:55:48.000Z</time>
      </trkpt>
      <trkpt lat="50.441100" lon="25.773710">
        <ele>226.349678</ele>
        <time>2019-06-05T05:55:50.000Z</time>
      </trkpt>
      <trkpt lat="50.441143" lon="25.773853">
        <ele>226.310184</ele>
        <time>2019-06-05T05:55:52.000Z</time>
      </trkpt>
      <trkpt lat="50.441193" lon="25.774008">
        <ele>226.266792</ele>
        <time>2019-06-05T05:55:54.000Z</time>
      </trkpt>
      <trkpt lat="50.441240" lon="25.774150">
        <ele>226.226825</ele>
        <time>2019-06-05T05:55:56.000Z</time>
      </trkpt>
      <trkpt lat="50.441288" lon="25.774296">
        <ele>226.185792</ele>
        <time>2019-06-05T05:55:58.000Z</time>
      </trkpt>
      <trkpt lat="50.441326" lon="25.774443">
        <ele>226.146171</ele>
        <time>2019-06-05T05:56:00.000Z</time>
      </trkpt>
      <trkpt lat="50.441370" lon="25.774593">
        <ele>226.104927</ele>
        <time>2019-06-05T05:56:02.000Z</time>
      </trkpt>
      <trkpt lat="50.441414" lon="25.774738">
        <ele>226.064815</ele>
        <time>2019-06-05T05:56:04.000Z</time>
      </trkpt>
      <trkpt lat="50.441463" lon="25.774881">
        <ele>226.024261</ele>
        <time>2019-06-05T05:56:06.000Z</time>
      </trkpt>
      <trkpt lat="50.441505" lon="25.775026">
        <ele>225.984479</ele>
        <time>2019-06-05T05:56:08.000Z</time>
      </trkpt>
      <trkpt lat="50.441550" lon="25.775177">
        <ele>225.942844</ele>
        <time>2019-06-05T05:56:10.000Z</time>
      </trkpt>
      <trkpt lat="50.441597" lon="25.775324">
        <ele>225.901766</ele>
        <time>2019-06-05T05:56:12.000Z</time>
      </trkpt>
      <trkpt lat="50.441640" lon="25.775470">
        <ele>225.861594</ele>
        <time>2019-06-05T05:56:14.000Z</time>
      </trkpt>
      <trkpt lat="50.441685" lon="25.775610">
        <ele>225.813546</ele>
        <time>2019-06-05T05:56:16.000Z</time>
      </trkpt>
      <trkpt lat="50.441730" lon="25.775753">
        <ele>225.757519</ele>
        <time>2019-06-05T05:56:18.000Z</time>
      </trkpt>
      <trkpt lat="50.441772" lon="25.775900">
        <ele>225.700927</ele>
        <time>2019-06-05T05:56:20.000Z</time>
      </trkpt>
      <trkpt lat="50.441820" lon="25.776047">
        <ele>225.642902</ele>
        <time>2019-06-05T05:56:22.000Z</time>
      </trkpt>
      <trkpt lat="50.441860" lon="25.776184">
        <ele>225.589964</ele>
        <time>2019-06-05T05:56:24.000Z</time>
      </trkpt>
      <trkpt lat="50.441902" lon="25.776333">
        <ele>225.532731</ele>
        <time>2019-06-05T05:56:26.000Z</time>
      </trkpt>
      <trkpt lat="50.441950" lon="25.776482">
        <ele>225.474079</ele>
        <time>2019-06-05T05:56:28.000Z</time>
      </trkpt>
      <trkpt lat="50.441998" lon="25.776625">
        <ele>225.417301</ele>
        <time>2019-06-05T05:56:30.000Z</time>
      </trkpt>
      <trkpt lat="50.442043" lon="25.776766">
        <ele>225.361904</ele>
        <time>2019-06-05T05:56:32.000Z</time>
      </trkpt>
      <trkpt lat="50.442080" lon="25.776905">
        <ele>225.308987</ele>
        <time>2019-06-05T05:56:34.000Z</time>
      </trkpt>
      <trkpt lat="50.442116" lon="25.777044">
        <ele>225.256280</ele>
        <time>2019-06-05T05:56:36.000Z</time>
      </trkpt>
      <trkpt lat="50.442154" lon="25.777197">
        <ele>225.198597</ele>
        <time>2019-06-05T05:56:38.000Z</time>
      </trkpt>
      <trkpt lat="50.442200" lon="25.777346">
        <ele>225.140436</ele>
        <time>2019-06-05T05:56:40.000Z</time>
      </trkpt>
      <trkpt lat="50.442245" lon="25.777494">
        <ele>225.082830</ele>
        <time>2019-06-05T05:56:42.000Z</time>
      </trkpt>
      <trkpt lat="50.442290" lon="25.777647">
        <ele>225.023635</ele>
        <time>2019-06-05T05:56:44.000Z</time>
      </trkpt>
      <trkpt lat="50.442333" lon="25.777790">
        <ele>224.968089</ele>
        <time>2019-06-05T05:56:46.000Z</time>
      </trkpt>
      <trkpt lat="50.442380" lon="25.777931">
        <ele>224.912189</ele>
        <time>2019-06-05T05:56:48.000Z</time>
      </trkpt>
      <trkpt lat="50.442425" lon="25.778080">
        <ele>224.854266</ele>
        <time>2019-06-05T05:56:50.000Z</time>
      </trkpt>
      <trkpt lat="50.442467" lon="25.778229">
        <ele>225.117201</ele>
        <time>2019-06-05T05:56:52.000Z</time>
      </trkpt>
      <trkpt lat="50.442513" lon="25.778381">
        <ele>225.400715</ele>
        <time>2019-06-05T05:56:54.000Z</time>
      </trkpt>
      <trkpt lat="50.442562" lon="25.778510">
        <ele>225.653759</ele>
        <time>2019-06-05T05:56:56.000Z</time>
      </trkpt>
      <trkpt lat="50.442640" lon="25.778656">
        <ele>225.974808</ele>
        <time>2019-06-05T05:56:59.000Z</time>
      </trkpt>
      <trkpt lat="50.442696" lon="25.778816">
        <ele>226.282382</ele>
        <time>2019-06-05T05:57:02.000Z</time>
      </trkpt>
      <trkpt lat="50.442757" lon="25.778975">
        <ele>226.595095</ele>
        <time>2019-06-05T05:57:05.000Z</time>
      </trkpt>
      <trkpt lat="50.442867" lon="25.779080">
        <ele>226.935630</ele>
        <time>2019-06-05T05:57:08.000Z</time>
      </trkpt>
      <trkpt lat="50.442980" lon="25.779163">
        <ele>227.265639</ele>
        <time>2019-06-05T05:57:11.000Z</time>
      </trkpt>
      <trkpt lat="50.443070" lon="25.779278">
        <ele>227.572585</ele>
        <time>2019-06-05T05:57:14.000Z</time>
      </trkpt>
      <trkpt lat="50.443160" lon="25.779348">
        <ele>227.838271</ele>
        <time>2019-06-05T05:57:17.000Z</time>
      </trkpt>
      <trkpt lat="50.443250" lon="25.779410">
        <ele>228.098254</ele>
        <time>2019-06-05T05:57:20.000Z</time>
      </trkpt>
      <trkpt lat="50.443330" lon="25.779480">
        <ele>228.340519</ele>
        <time>2019-06-05T05:57:23.000Z</time>
      </trkpt>
      <trkpt lat="50.443428" lon="25.779486">
        <ele>228.599959</ele>
        <time>2019-06-05T05:57:27.000Z</time>
      </trkpt>
      <trkpt lat="50.443540" lon="25.779476">
        <ele>228.896715</ele>
        <time>2019-06-05T05:57:33.000Z</time>
      </trkpt>
      <trkpt lat="50.443623" lon="25.779427">
        <ele>229.131282</ele>
        <time>2019-06-05T05:57:38.000Z</time>
      </trkpt>
      <trkpt lat="50.443730" lon="25.779448">
        <ele>229.416535</ele>
        <time>2019-06-05T05:57:43.000Z</time>
      </trkpt>
      <trkpt lat="50.443820" lon="25.779432">
        <ele>229.630863</ele>
        <time>2019-06-05T05:57:47.000Z</time>
      </trkpt>
      <trkpt lat="50.443916" lon="25.779432">
        <ele>229.744863</ele>
        <time>2019-06-05T05:57:52.000Z</time>
      </trkpt>
      <trkpt lat="50.444065" lon="25.779366">
        <ele>229.928706</ele>
        <time>2019-06-05T05:58:50.000Z</time>
      </trkpt>
      <trkpt lat="50.444153" lon="25.779324">
        <ele>230.037926</ele>
        <time>2019-06-05T05:58:53.000Z</time>
      </trkpt>
      <trkpt lat="50.444256" lon="25.779318">
        <ele>230.160323</ele>
        <time>2019-06-05T05:58:56.000Z</time>
      </trkpt>
      <trkpt lat="50.444366" lon="25.779303">
        <ele>230.291440</ele>
        <time>2019-06-05T05:58:59.000Z</time>
      </trkpt>
      <trkpt lat="50.444473" lon="25.779282">
        <ele>230.419491</ele>
        <time>2019-06-05T05:59:02.000Z</time>
      </trkpt>
      <trkpt lat="50.444590" lon="25.779260">
        <ele>230.559421</ele>
        <time>2019-06-05T05:59:05.000Z</time>
      </trkpt>
      <trkpt lat="50.444706" lon="25.779234">
        <ele>230.698568</ele>
        <time>2019-06-05T05:59:08.000Z</time>
      </trkpt>
      <trkpt lat="50.444820" lon="25.779210">
        <ele>230.835154</ele>
        <time>2019-06-05T05:59:11.000Z</time>
      </trkpt>
      <trkpt lat="50.444935" lon="25.779179">
        <ele>230.973714</ele>
        <time>2019-06-05T05:59:14.000Z</time>
      </trkpt>
      <trkpt lat="50.445057" lon="25.779152">
        <ele>231.120021</ele>
        <time>2019-06-05T05:59:17.000Z</time>
      </trkpt>
      <trkpt lat="50.445183" lon="25.779133">
        <ele>231.270334</ele>
        <time>2019-06-05T05:59:20.000Z</time>
      </trkpt>
      <trkpt lat="50.445310" lon="25.779102">
        <ele>231.422958</ele>
        <time>2019-06-05T05:59:23.000Z</time>
      </trkpt>
      <trkpt lat="50.445423" lon="25.779062">
        <ele>231.560513</ele>
        <time>2019-06-05T05:59:26.000Z</time>
      </trkpt>
      <trkpt lat="50.445510" lon="25.779045">
        <ele>231.664622</ele>
        <time>2019-06-05T05:59:28.000Z</time>
      </trkpt>
      <trkpt lat="50.445602" lon="25.779037">
        <ele>231.719779</ele>
        <time>2019-06-05T05:59:30.000Z</time>
      </trkpt>
      <trkpt lat="50.445736" lon="25.779010">
        <ele>231.567886</ele>
        <time>2019-06-05T05:59:33.000Z</time>
      </trkpt>
      <trkpt lat="50.445866" lon="25.778973">
        <ele>231.419343</ele>
        <time>2019-06-05T05:59:36.000Z</time>
      </trkpt>
      <trkpt lat="50.446000" lon="25.778955">
        <ele>231.268135</ele>
        <time>2019-06-05T05:59:39.000Z</time>
      </trkpt>
      <trkpt lat="50.446090" lon="25.778929">
        <ele>231.165248</ele>
        <time>2019-06-05T05:59:41.000Z</time>
      </trkpt>
      <trkpt lat="50.446182" lon="25.778913">
        <ele>231.061178</ele>
        <time>2019-06-05T05:59:43.000Z</time>
      </trkpt>
      <trkpt lat="50.446278" lon="25.778893">
        <ele>230.952298</ele>
        <time>2019-06-05T05:59:45.000Z</time>
      </trkpt>
      <trkpt lat="50.446377" lon="25.778880">
        <ele>230.840602</ele>
        <time>2019-06-05T05:59:47.000Z</time>
      </trkpt>
      <trkpt lat="50.446476" lon="25.778852">
        <ele>230.727504</ele>
        <time>2019-06-05T05:59:49.000Z</time>
      </trkpt>
      <trkpt lat="50.446580" lon="25.778833">
        <ele>230.609786</ele>
        <time>2019-06-05T05:59:51.000Z</time>
      </trkpt>
      <trkpt lat="50.446682" lon="25.778818">
        <ele>230.494604</ele>
        <time>2019-06-05T05:59:53.000Z</time>
      </trkpt>
      <trkpt lat="50.446780" lon="25.778800">
        <ele>230.383670</ele>
        <time>2019-06-05T05:59:55.000Z</time>
      </trkpt>
      <trkpt lat="50.446880" lon="25.778778">
        <ele>230.270141</ele>
        <time>2019-06-05T05:59:57.000Z</time>
      </trkpt>
      <trkpt lat="50.446980" lon="25.778763">
        <ele>230.157197</ele>
        <time>2019-06-05T05:59:59.000Z</time>
      </trkpt>
      <trkpt lat="50.447080" lon="25.778746">
        <ele>230.044109</ele>
        <time>2019-06-05T06:00:01.000Z</time>
      </trkpt>
      <trkpt lat="50.447178" lon="25.778728">
        <ele>229.933174</ele>
        <time>2019-06-05T06:00:03.000Z</time>
      </trkpt>
      <trkpt lat="50.447285" lon="25.778711">
        <ele>229.812258</ele>
        <time>2019-06-05T06:00:05.000Z</time>
      </trkpt>
      <trkpt lat="50.447390" lon="25.778696">
        <ele>229.696437</ele>
        <time>2019-06-05T06:00:07.000Z</time>
      </trkpt>
      <trkpt lat="50.447502" lon="25.778666">
        <ele>229.580194</ele>
        <time>2019-06-05T06:00:09.000Z</time>
      </trkpt>
      <trkpt lat="50.447613" lon="25.778646">
        <ele>229.465885</ele>
        <time>2019-06-05T06:00:11.000Z</time>
      </trkpt>
      <trkpt lat="50.447720" lon="25.778620">
        <ele>229.355110</ele>
        <time>2019-06-05T06:00:13.000Z</time>
      </trkpt>
      <trkpt lat="50.447826" lon="25.778595">
        <ele>229.245445</ele>
        <time>2019-06-05T06:00:15.000Z</time>
      </trkpt>
      <trkpt lat="50.447937" lon="25.778576">
        <ele>229.131208</ele>
        <time>2019-06-05T06:00:17.000Z</time>
      </trkpt>
      <trkpt lat="50.448048" lon="25.778555">
        <ele>229.016822</ele>
        <time>2019-06-05T06:00:19.000Z</time>
      </trkpt>
      <trkpt lat="50.448147" lon="25.778545">
        <ele>228.915326</ele>
        <time>2019-06-05T06:00:21.000Z</time>
      </trkpt>
      <trkpt lat="50.448254" lon="25.778528">
        <ele>228.805295</ele>
        <time>2019-06-05T06:00:23.000Z</time>
      </trkpt>
      <trkpt lat="50.448357" lon="25.778505">
        <ele>228.698855</ele>
        <time>2019-06-05T06:00:25.000Z</time>
      </trkpt>
      <trkpt lat="50.448463" lon="25.778480">
        <ele>228.589190</ele>
        <time>2019-06-05T06:00:27.000Z</time>
      </trkpt>
      <trkpt lat="50.448570" lon="25.778460">
        <ele>228.478945</ele>
        <time>2019-06-05T06:00:29.000Z</time>
      </trkpt>
      <trkpt lat="50.448680" lon="25.778430">
        <ele>228.364719</ele>
        <time>2019-06-05T06:00:31.000Z</time>
      </trkpt>
      <trkpt lat="50.448788" lon="25.778410">
        <ele>228.253459</ele>
        <time>2019-06-05T06:00:33.000Z</time>
      </trkpt>
      <trkpt lat="50.448900" lon="25.778389">
        <ele>228.138057</ele>
        <time>2019-06-05T06:00:35.000Z</time>
      </trkpt>
      <trkpt lat="50.449000" lon="25.778362">
        <ele>228.034246</ele>
        <time>2019-06-05T06:00:37.000Z</time>
      </trkpt>
      <trkpt lat="50.449112" lon="25.778345">
        <ele>227.919124</ele>
        <time>2019-06-05T06:00:39.000Z</time>
      </trkpt>
      <trkpt lat="50.449226" lon="25.778322">
        <ele>227.898248</ele>
        <time>2019-06-05T06:00:41.000Z</time>
      </trkpt>
      <trkpt lat="50.449333" lon="25.778310">
        <ele>227.917640</ele>
        <time>2019-06-05T06:00:43.000Z</time>
      </trkpt>
      <trkpt lat="50.449440" lon="25.778284">
        <ele>227.937213</ele>
        <time>2019-06-05T06:00:45.000Z</time>
      </trkpt>
      <trkpt lat="50.449554" lon="25.778270">
        <ele>227.957883</ele>
        <time>2019-06-05T06:00:47.000Z</time>
      </trkpt>
      <trkpt lat="50.449657" lon="25.778254">
        <ele>227.976594</ele>
        <time>2019-06-05T06:00:49.000Z</time>
      </trkpt>
      <trkpt lat="50.449770" lon="25.778229">
        <ele>227.997223</ele>
        <time>2019-06-05T06:00:51.000Z</time>
      </trkpt>
      <trkpt lat="50.449883" lon="25.778202">
        <ele>228.017885</ele>
        <time>2019-06-05T06:00:53.000Z</time>
      </trkpt>
      <trkpt lat="50.449990" lon="25.778181">
        <ele>228.037378</ele>
        <time>2019-06-05T06:00:55.000Z</time>
      </trkpt>
      <trkpt lat="50.450092" lon="25.778160">
        <ele>228.055975</ele>
        <time>2019-06-05T06:00:57.000Z</time>
      </trkpt>
      <trkpt lat="50.450200" lon="25.778141">
        <ele>228.075620</ele>
        <time>2019-06-05T06:00:59.000Z</time>
      </trkpt>
      <trkpt lat="50.450302" lon="25.778122">
        <ele>228.094188</ele>
        <time>2019-06-05T06:01:01.000Z</time>
      </trkpt>
      <trkpt lat="50.450410" lon="25.778100">
        <ele>228.113875</ele>
        <time>2019-06-05T06:01:03.000Z</time>
      </trkpt>
      <trkpt lat="50.450512" lon="25.778074">
        <ele>228.132556</ele>
        <time>2019-06-05T06:01:05.000Z</time>
      </trkpt>
      <trkpt lat="50.450623" lon="25.778060">
        <ele>228.152686</ele>
        <time>2019-06-05T06:01:07.000Z</time>
      </trkpt>
      <trkpt lat="50.450733" lon="25.778044">
        <ele>228.172656</ele>
        <time>2019-06-05T06:01:09.000Z</time>
      </trkpt>
      <trkpt lat="50.450848" lon="25.778017">
        <ele>228.193676</ele>
        <time>2019-06-05T06:01:11.000Z</time>
      </trkpt>
      <trkpt lat="50.450954" lon="25.777988">
        <ele>228.217470</ele>
        <time>2019-06-05T06:01:13.000Z</time>
      </trkpt>
      <trkpt lat="50.451060" lon="25.777973">
        <ele>228.256348</ele>
        <time>2019-06-05T06:01:15.000Z</time>
      </trkpt>
      <trkpt lat="50.451168" lon="25.777948">
        <ele>228.296225</ele>
        <time>2019-06-05T06:01:17.000Z</time>
      </trkpt>
      <trkpt lat="50.451275" lon="25.777920">
        <ele>228.335849</ele>
        <time>2019-06-05T06:01:19.000Z</time>
      </trkpt>
      <trkpt lat="50.451380" lon="25.777897">
        <ele>228.374576</ele>
        <time>2019-06-05T06:01:21.000Z</time>
      </trkpt>
      <trkpt lat="50.451490" lon="25.777880">
        <ele>228.414951</ele>
        <time>2019-06-05T06:01:23.000Z</time>
      </trkpt>
      <trkpt lat="50.451590" lon="25.777863">
        <ele>228.451693</ele>
        <time>2019-06-05T06:01:25.000Z</time>
      </trkpt>
      <trkpt lat="50.451700" lon="25.777840">
        <ele>228.492230</ele>
        <time>2019-06-05T06:01:27.000Z</time>
      </trkpt>
      <trkpt lat="50.451790" lon="25.777824">
        <ele>228.525315</ele>
        <time>2019-06-05T06:01:29.000Z</time>
      </trkpt>
      <trkpt lat="50.451923" lon="25.777798">
        <ele>228.574273</ele>
        <time>2019-06-05T06:01:32.000Z</time>
      </trkpt>
      <trkpt lat="50.452023" lon="25.777779">
        <ele>228.611068</ele>
        <time>2019-06-05T06:01:34.000Z</time>
      </trkpt>
      <trkpt lat="50.452126" lon="25.777756">
        <ele>228.649071</ele>
        <time>2019-06-05T06:01:36.000Z</time>
      </trkpt>
      <trkpt lat="50.452232" lon="25.777727">
        <ele>228.688375</ele>
        <time>2019-06-05T06:01:38.000Z</time>
      </trkpt>
      <trkpt lat="50.452340" lon="25.777693">
        <ele>228.728611</ele>
        <time>2019-06-05T06:01:40.000Z</time>
      </trkpt>
      <trkpt lat="50.452446" lon="25.777658">
        <ele>228.768177</ele>
        <time>2019-06-05T06:01:42.000Z</time>
      </trkpt>
      <trkpt lat="50.452553" lon="25.777634">
        <ele>228.807660</ele>
        <time>2019-06-05T06:01:44.000Z</time>
      </trkpt>
      <trkpt lat="50.452652" lon="25.777605">
        <ele>228.844447</ele>
        <time>2019-06-05T06:01:46.000Z</time>
      </trkpt>
      <trkpt lat="50.452744" lon="25.777567">
        <ele>228.906052</ele>
        <time>2019-06-05T06:01:48.000Z</time>
      </trkpt>
      <trkpt lat="50.452843" lon="25.777523">
        <ele>229.019497</ele>
        <time>2019-06-05T06:01:50.000Z</time>
      </trkpt>
      <trkpt lat="50.452950" lon="25.777475">
        <ele>229.142194</ele>
        <time>2019-06-05T06:01:52.000Z</time>
      </trkpt>
      <trkpt lat="50.453050" lon="25.777426">
        <ele>229.257697</ele>
        <time>2019-06-05T06:01:54.000Z</time>
      </trkpt>
      <trkpt lat="50.453144" lon="25.777374">
        <ele>229.367584</ele>
        <time>2019-06-05T06:01:56.000Z</time>
      </trkpt>
      <trkpt lat="50.453243" lon="25.777323">
        <ele>229.482464</ele>
        <time>2019-06-05T06:01:58.000Z</time>
      </trkpt>
      <trkpt lat="50.453342" lon="25.777266">
        <ele>229.598726</ele>
        <time>2019-06-05T06:02:00.000Z</time>
      </trkpt>
      <trkpt lat="50.453438" lon="25.777212">
        <ele>229.711161</ele>
        <time>2019-06-05T06:02:02.000Z</time>
      </trkpt>
      <trkpt lat="50.453526" lon="25.777142">
        <ele>229.819926</ele>
        <time>2019-06-05T06:02:04.000Z</time>
      </trkpt>
      <trkpt lat="50.453613" lon="25.777079">
        <ele>229.925558</ele>
        <time>2019-06-05T06:02:06.000Z</time>
      </trkpt>
      <trkpt lat="50.453700" lon="25.777014">
        <ele>230.031785</ele>
        <time>2019-06-05T06:02:08.000Z</time>
      </trkpt>
      <trkpt lat="50.453780" lon="25.776945">
        <ele>230.132420</ele>
        <time>2019-06-05T06:02:10.000Z</time>
      </trkpt>
      <trkpt lat="50.453873" lon="25.776873">
        <ele>230.246744</ele>
        <time>2019-06-05T06:02:12.000Z</time>
      </trkpt>
      <trkpt lat="50.453960" lon="25.776800">
        <ele>230.355502</ele>
        <time>2019-06-05T06:02:14.000Z</time>
      </trkpt>
      <trkpt lat="50.454040" lon="25.776722">
        <ele>230.459325</ele>
        <time>2019-06-05T06:02:16.000Z</time>
      </trkpt>
      <trkpt lat="50.454120" lon="25.776627">
        <ele>230.569909</ele>
        <time>2019-06-05T06:02:18.000Z</time>
      </trkpt>
      <trkpt lat="50.454205" lon="25.776540">
        <ele>230.681775</ele>
        <time>2019-06-05T06:02:20.000Z</time>
      </trkpt>
      <trkpt lat="50.454292" lon="25.776459">
        <ele>230.793290</ele>
        <time>2019-06-05T06:02:22.000Z</time>
      </trkpt>
      <trkpt lat="50.454372" lon="25.776367">
        <ele>230.852237</ele>
        <time>2019-06-05T06:02:24.000Z</time>
      </trkpt>
      <trkpt lat="50.454456" lon="25.776268">
        <ele>230.859038</ele>
        <time>2019-06-05T06:02:26.000Z</time>
      </trkpt>
      <trkpt lat="50.454533" lon="25.776175">
        <ele>230.865328</ele>
        <time>2019-06-05T06:02:28.000Z</time>
      </trkpt>
      <trkpt lat="50.454630" lon="25.776054">
        <ele>230.873349</ele>
        <time>2019-06-05T06:02:31.000Z</time>
      </trkpt>
      <trkpt lat="50.454742" lon="25.775951">
        <ele>230.881754</ele>
        <time>2019-06-05T06:02:34.000Z</time>
      </trkpt>
      <trkpt lat="50.454840" lon="25.775808">
        <ele>230.890416</ele>
        <time>2019-06-05T06:02:37.000Z</time>
      </trkpt>
      <trkpt lat="50.454906" lon="25.775705">
        <ele>230.896441</ele>
        <time>2019-06-05T06:02:39.000Z</time>
      </trkpt>
      <trkpt lat="50.454970" lon="25.775608">
        <ele>230.902200</ele>
        <time>2019-06-05T06:02:41.000Z</time>
      </trkpt>
      <trkpt lat="50.455050" lon="25.775500">
        <ele>230.909031</ele>
        <time>2019-06-05T06:02:43.000Z</time>
      </trkpt>
      <trkpt lat="50.455120" lon="25.775400">
        <ele>230.915158</ele>
        <time>2019-06-05T06:02:45.000Z</time>
      </trkpt>
      <trkpt lat="50.455190" lon="25.775290">
        <ele>230.921571</ele>
        <time>2019-06-05T06:02:47.000Z</time>
      </trkpt>
      <trkpt lat="50.455254" lon="25.775183">
        <ele>230.927623</ele>
        <time>2019-06-05T06:02:49.000Z</time>
      </trkpt>
      <trkpt lat="50.455334" lon="25.775023">
        <ele>230.936011</ele>
        <time>2019-06-05T06:02:52.000Z</time>
      </trkpt>
      <trkpt lat="50.455418" lon="25.774866">
        <ele>230.944466</ele>
        <time>2019-06-05T06:02:55.000Z</time>
      </trkpt>
      <trkpt lat="50.455510" lon="25.774714">
        <ele>230.953113</ele>
        <time>2019-06-05T06:02:58.000Z</time>
      </trkpt>
      <trkpt lat="50.455590" lon="25.774542">
        <ele>230.961895</ele>
        <time>2019-06-05T06:03:01.000Z</time>
      </trkpt>
      <trkpt lat="50.455685" lon="25.774382">
        <ele>230.985155</ele>
        <time>2019-06-05T06:03:04.000Z</time>
      </trkpt>
      <trkpt lat="50.455738" lon="25.774261">
        <ele>231.007334</ele>
        <time>2019-06-05T06:03:06.000Z</time>
      </trkpt>
      <trkpt lat="50.455803" lon="25.774149">
        <ele>231.030219</ele>
        <time>2019-06-05T06:03:08.000Z</time>
      </trkpt>
      <trkpt lat="50.455860" lon="25.774036">
        <ele>231.051989</ele>
        <time>2019-06-05T06:03:10.000Z</time>
      </trkpt>
      <trkpt lat="50.455914" lon="25.773922">
        <ele>231.073446</ele>
        <time>2019-06-05T06:03:12.000Z</time>
      </trkpt>
      <trkpt lat="50.455975" lon="25.773810">
        <ele>231.095703</ele>
        <time>2019-06-05T06:03:14.000Z</time>
      </trkpt>
      <trkpt lat="50.456043" lon="25.773695">
        <ele>231.119403</ele>
        <time>2019-06-05T06:03:16.000Z</time>
      </trkpt>
      <trkpt lat="50.456110" lon="25.773573">
        <ele>231.143733</ele>
        <time>2019-06-05T06:03:18.000Z</time>
      </trkpt>
      <trkpt lat="50.456165" lon="25.773447">
        <ele>231.166802</ele>
        <time>2019-06-05T06:03:20.000Z</time>
      </trkpt>
      <trkpt lat="50.456215" lon="25.773329">
        <ele>231.188207</ele>
        <time>2019-06-05T06:03:22.000Z</time>
      </trkpt>
      <trkpt lat="50.456272" lon="25.773214">
        <ele>231.210214</ele>
        <time>2019-06-05T06:03:24.000Z</time>
      </trkpt>
      <trkpt lat="50.456330" lon="25.773088">
        <ele>231.233693</ele>
        <time>2019-06-05T06:03:26.000Z</time>
      </trkpt>
      <trkpt lat="50.456387" lon="25.772963">
        <ele>231.256911</ele>
        <time>2019-06-05T06:03:28.000Z</time>
      </trkpt>
      <trkpt lat="50.456450" lon="25.772840">
        <ele>231.280749</ele>
        <time>2019-06-05T06:03:30.000Z</time>
      </trkpt>
      <trkpt lat="50.456512" lon="25.772713">
        <ele>231.304916</ele>
        <time>2019-06-05T06:03:32.000Z</time>
      </trkpt>
      <trkpt lat="50.456570" lon="25.772589">
        <ele>231.328151</ele>
        <time>2019-06-05T06:03:34.000Z</time>
      </trkpt>
      <trkpt lat="50.456630" lon="25.772469">
        <ele>231.351192</ele>
        <time>2019-06-05T06:03:36.000Z</time>
      </trkpt>
      <trkpt lat="50.456690" lon="25.772360">
        <ele>231.372950</ele>
        <time>2019-06-05T06:03:38.000Z</time>
      </trkpt>
      <trkpt lat="50.456753" lon="25.772238">
        <ele>231.416281</ele>
        <time>2019-06-05T06:03:40.000Z</time>
      </trkpt>
      <trkpt lat="50.456818" lon="25.772116">
        <ele>231.545034</ele>
        <time>2019-06-05T06:03:42.000Z</time>
      </trkpt>
      <trkpt lat="50.456875" lon="25.772001">
        <ele>231.662989</ele>
        <time>2019-06-05T06:03:44.000Z</time>
      </trkpt>
      <trkpt lat="50.456932" lon="25.771881">
        <ele>231.784163</ele>
        <time>2019-06-05T06:03:46.000Z</time>
      </trkpt>
      <trkpt lat="50.456990" lon="25.771763">
        <ele>231.904816</ele>
        <time>2019-06-05T06:03:48.000Z</time>
      </trkpt>
      <trkpt lat="50.457054" lon="25.771643">
        <ele>232.031511</ele>
        <time>2019-06-05T06:03:50.000Z</time>
      </trkpt>
      <trkpt lat="50.457110" lon="25.771528">
        <ele>232.148689</ele>
        <time>2019-06-05T06:03:52.000Z</time>
      </trkpt>
      <trkpt lat="50.457172" lon="25.771410">
        <ele>232.272515</ele>
        <time>2019-06-05T06:03:54.000Z</time>
      </trkpt>
      <trkpt lat="50.457230" lon="25.771290">
        <ele>232.394452</ele>
        <time>2019-06-05T06:03:56.000Z</time>
      </trkpt>
      <trkpt lat="50.457287" lon="25.771164">
        <ele>232.519551</ele>
        <time>2019-06-05T06:03:58.000Z</time>
      </trkpt>
      <trkpt lat="50.457348" lon="25.771038">
        <ele>232.647662</ele>
        <time>2019-06-05T06:04:00.000Z</time>
      </trkpt>
      <trkpt lat="50.457413" lon="25.770914">
        <ele>232.777660</ele>
        <time>2019-06-05T06:04:02.000Z</time>
      </trkpt>
      <trkpt lat="50.457474" lon="25.770790">
        <ele>232.904486</ele>
        <time>2019-06-05T06:04:04.000Z</time>
      </trkpt>
      <trkpt lat="50.457530" lon="25.770660">
        <ele>233.031521</ele>
        <time>2019-06-05T06:04:06.000Z</time>
      </trkpt>
      <trkpt lat="50.457600" lon="25.770538">
        <ele>233.164441</ele>
        <time>2019-06-05T06:04:08.000Z</time>
      </trkpt>
      <trkpt lat="50.457670" lon="25.770409">
        <ele>233.301623</ele>
        <time>2019-06-05T06:04:10.000Z</time>
      </trkpt>
      <trkpt lat="50.457730" lon="25.770279">
        <ele>233.431574</ele>
        <time>2019-06-05T06:04:12.000Z</time>
      </trkpt>
      <trkpt lat="50.457787" lon="25.770153">
        <ele>233.556672</ele>
        <time>2019-06-05T06:04:14.000Z</time>
      </trkpt>
      <trkpt lat="50.457850" lon="25.770035">
        <ele>233.679459</ele>
        <time>2019-06-05T06:04:16.000Z</time>
      </trkpt>
      <trkpt lat="50.457916" lon="25.769905">
        <ele>233.719544</ele>
        <time>2019-06-05T06:04:18.000Z</time>
      </trkpt>
      <trkpt lat="50.457993" lon="25.769787">
        <ele>233.760281</ele>
        <time>2019-06-05T06:04:20.000Z</time>
      </trkpt>
      <trkpt lat="50.458050" lon="25.769657">
        <ele>233.798335</ele>
        <time>2019-06-05T06:04:22.000Z</time>
      </trkpt>
      <trkpt lat="50.458120" lon="25.769527">
        <ele>233.839382</ele>
        <time>2019-06-05T06:04:24.000Z</time>
      </trkpt>
      <trkpt lat="50.458187" lon="25.769394">
        <ele>233.880270</ele>
        <time>2019-06-05T06:04:26.000Z</time>
      </trkpt>
      <trkpt lat="50.458250" lon="25.769264">
        <ele>233.919657</ele>
        <time>2019-06-05T06:04:28.000Z</time>
      </trkpt>
      <trkpt lat="50.458313" lon="25.769138">
        <ele>233.958281</ele>
        <time>2019-06-05T06:04:30.000Z</time>
      </trkpt>
      <trkpt lat="50.458374" lon="25.769014">
        <ele>233.996060</ele>
        <time>2019-06-05T06:04:32.000Z</time>
      </trkpt>
      <trkpt lat="50.458430" lon="25.768887">
        <ele>234.033303</ele>
        <time>2019-06-05T06:04:34.000Z</time>
      </trkpt>
      <trkpt lat="50.458490" lon="25.768768">
        <ele>234.069899</ele>
        <time>2019-06-05T06:04:36.000Z</time>
      </trkpt>
      <trkpt lat="50.458565" lon="25.768602">
        <ele>234.118972</ele>
        <time>2019-06-05T06:04:39.000Z</time>
      </trkpt>
      <trkpt lat="50.458620" lon="25.768490">
        <ele>234.153072</ele>
        <time>2019-06-05T06:04:41.000Z</time>
      </trkpt>
      <trkpt lat="50.458680" lon="25.768368">
        <ele>234.190237</ele>
        <time>2019-06-05T06:04:43.000Z</time>
      </trkpt>
      <trkpt lat="50.458736" lon="25.768250">
        <ele>234.225718</ele>
        <time>2019-06-05T06:04:45.000Z</time>
      </trkpt>
      <trkpt lat="50.458805" lon="25.768143">
        <ele>234.262435</ele>
        <time>2019-06-05T06:04:47.000Z</time>
      </trkpt>
      <trkpt lat="50.458862" lon="25.768023">
        <ele>234.298529</ele>
        <time>2019-06-05T06:04:49.000Z</time>
      </trkpt>
      <trkpt lat="50.458923" lon="25.767910">
        <ele>234.334246</ele>
        <time>2019-06-05T06:04:51.000Z</time>
      </trkpt>
      <trkpt lat="50.458980" lon="25.767800">
        <ele>234.390786</ele>
        <time>2019-06-05T06:04:53.000Z</time>
      </trkpt>
      <trkpt lat="50.459038" lon="25.767673">
        <ele>234.525670</ele>
        <time>2019-06-05T06:04:55.000Z</time>
      </trkpt>
      <trkpt lat="50.459120" lon="25.767506">
        <ele>234.707676</ele>
        <time>2019-06-05T06:04:58.000Z</time>
      </trkpt>
      <trkpt lat="50.459187" lon="25.767393">
        <ele>234.840936</ele>
        <time>2019-06-05T06:05:00.000Z</time>
      </trkpt>
      <trkpt lat="50.459270" lon="25.767240">
        <ele>235.014409</ele>
        <time>2019-06-05T06:05:03.000Z</time>
      </trkpt>
      <trkpt lat="50.459360" lon="25.767092">
        <ele>235.191036</ele>
        <time>2019-06-05T06:05:06.000Z</time>
      </trkpt>
      <trkpt lat="50.459435" lon="25.766924">
        <ele>235.368112</ele>
        <time>2019-06-05T06:05:09.000Z</time>
      </trkpt>
      <trkpt lat="50.459490" lon="25.766800">
        <ele>235.498533</ele>
        <time>2019-06-05T06:05:11.000Z</time>
      </trkpt>
      <trkpt lat="50.459550" lon="25.766691">
        <ele>235.622885</ele>
        <time>2019-06-05T06:05:13.000Z</time>
      </trkpt>
      <trkpt lat="50.459602" lon="25.766575">
        <ele>235.745318</ele>
        <time>2019-06-05T06:05:15.000Z</time>
      </trkpt>
      <trkpt lat="50.459663" lon="25.766464">
        <ele>235.871862</ele>
        <time>2019-06-05T06:05:17.000Z</time>
      </trkpt>
      <trkpt lat="50.459724" lon="25.766352">
        <ele>235.999061</ele>
        <time>2019-06-05T06:05:19.000Z</time>
      </trkpt>
      <trkpt lat="50.459780" lon="25.766232">
        <ele>236.127461</ele>
        <time>2019-06-05T06:05:21.000Z</time>
      </trkpt>
      <trkpt lat="50.459840" lon="25.766111">
        <ele>236.259820</ele>
        <time>2019-06-05T06:05:23.000Z</time>
      </trkpt>
      <trkpt lat="50.459896" lon="25.765993">
        <ele>236.386832</ele>
        <time>2019-06-05T06:05:25.000Z</time>
      </trkpt>
      <trkpt lat="50.459957" lon="25.765873">
        <ele>236.519352</ele>
        <time>2019-06-05T06:05:27.000Z</time>
      </trkpt>
      <trkpt lat="50.460014" lon="25.765755">
        <ele>236.647179</ele>
        <time>2019-06-05T06:05:29.000Z</time>
      </trkpt>
      <trkpt lat="50.460075" lon="25.765635">
        <ele>236.779699</ele>
        <time>2019-06-05T06:05:31.000Z</time>
      </trkpt>
      <trkpt lat="50.460136" lon="25.765514">
        <ele>236.880512</ele>
        <time>2019-06-05T06:05:33.000Z</time>
      </trkpt>
      <trkpt lat="50.460194" lon="25.765392">
        <ele>236.974893</ele>
        <time>2019-06-05T06:05:35.000Z</time>
      </trkpt>
      <trkpt lat="50.460250" lon="25.765278">
        <ele>237.064148</ele>
        <time>2019-06-05T06:05:37.000Z</time>
      </trkpt>
      <trkpt lat="50.460308" lon="25.765160">
        <ele>237.156555</ele>
        <time>2019-06-05T06:05:39.000Z</time>
      </trkpt>
      <trkpt lat="50.460365" lon="25.765049">
        <ele>237.244952</ele>
        <time>2019-06-05T06:05:41.000Z</time>
      </trkpt>
      <trkpt lat="50.460430" lon="25.764929">
        <ele>237.342616</ele>
        <time>2019-06-05T06:05:43.000Z</time>
      </trkpt>
      <trkpt lat="50.460510" lon="25.764763">
        <ele>237.471669</ele>
        <time>2019-06-05T06:05:46.000Z</time>
      </trkpt>
      <trkpt lat="50.460587" lon="25.764631">
        <ele>237.582644</ele>
        <time>2019-06-05T06:05:49.000Z</time>
      </trkpt>
      <trkpt lat="50.460670" lon="25.764486">
        <ele>237.703512</ele>
        <time>2019-06-05T06:05:52.000Z</time>
      </trkpt>
      <trkpt lat="50.460730" lon="25.764378">
        <ele>237.792362</ele>
        <time>2019-06-05T06:05:54.000Z</time>
      </trkpt>
      <trkpt lat="50.460800" lon="25.764223">
        <ele>237.910159</ele>
        <time>2019-06-05T06:05:57.000Z</time>
      </trkpt>
      <trkpt lat="50.460880" lon="25.764065">
        <ele>238.035294</ele>
        <time>2019-06-05T06:06:00.000Z</time>
      </trkpt>
      <trkpt lat="50.460940" lon="25.763948">
        <ele>238.128420</ele>
        <time>2019-06-05T06:06:02.000Z</time>
      </trkpt>
      <trkpt lat="50.460995" lon="25.763828">
        <ele>238.220073</ele>
        <time>2019-06-05T06:06:04.000Z</time>
      </trkpt>
      <trkpt lat="50.461075" lon="25.763666">
        <ele>238.347158</ele>
        <time>2019-06-05T06:06:07.000Z</time>
      </trkpt>
      <trkpt lat="50.461147" lon="25.763525">
        <ele>238.459198</ele>
        <time>2019-06-05T06:06:10.000Z</time>
      </trkpt>
      <trkpt lat="50.461227" lon="25.763388">
        <ele>238.573447</ele>
        <time>2019-06-05T06:06:13.000Z</time>
      </trkpt>
      <trkpt lat="50.461304" lon="25.763239">
        <ele>238.687758</ele>
        <time>2019-06-05T06:06:16.000Z</time>
      </trkpt>
      <trkpt lat="50.461376" lon="25.763083">
        <ele>238.802528</ele>
        <time>2019-06-05T06:06:19.000Z</time>
      </trkpt>
      <trkpt lat="50.461452" lon="25.762926">
        <ele>238.920008</ele>
        <time>2019-06-05T06:06:22.000Z</time>
      </trkpt>
      <trkpt lat="50.461514" lon="25.762800">
        <ele>239.014864</ele>
        <time>2019-06-05T06:06:25.000Z</time>
      </trkpt>
      <trkpt lat="50.461582" lon="25.762665">
        <ele>239.117401</ele>
        <time>2019-06-05T06:06:28.000Z</time>
      </trkpt>
      <trkpt lat="50.461660" lon="25.762526">
        <ele>239.227768</ele>
        <time>2019-06-05T06:06:31.000Z</time>
      </trkpt>
      <trkpt lat="50.461727" lon="25.762377">
        <ele>239.336424</ele>
        <time>2019-06-05T06:06:34.000Z</time>
      </trkpt>
      <trkpt lat="50.461796" lon="25.762247">
        <ele>239.437239</ele>
        <time>2019-06-05T06:06:37.000Z</time>
      </trkpt>
      <trkpt lat="50.461876" lon="25.762110">
        <ele>239.547971</ele>
        <time>2019-06-05T06:06:40.000Z</time>
      </trkpt>
      <trkpt lat="50.461952" lon="25.761955">
        <ele>239.664504</ele>
        <time>2019-06-05T06:06:43.000Z</time>
      </trkpt>
      <trkpt lat="50.462025" lon="25.761808">
        <ele>239.775551</ele>
        <time>2019-06-05T06:06:46.000Z</time>
      </trkpt>
      <trkpt lat="50.462097" lon="25.761650">
        <ele>239.891287</ele>
        <time>2019-06-05T06:06:49.000Z</time>
      </trkpt>
      <trkpt lat="50.462173" lon="25.761492">
        <ele>240.009240</ele>
        <time>2019-06-05T06:06:52.000Z</time>
      </trkpt>
      <trkpt lat="50.462246" lon="25.761332">
        <ele>240.126489</ele>
        <time>2019-06-05T06:06:55.000Z</time>
      </trkpt>
      <trkpt lat="50.462326" lon="25.761185">
        <ele>240.236536</ele>
        <time>2019-06-05T06:06:58.000Z</time>
      </trkpt>
      <trkpt lat="50.462402" lon="25.761042">
        <ele>240.287660</ele>
        <time>2019-06-05T06:07:01.000Z</time>
      </trkpt>
      <trkpt lat="50.462470" lon="25.760893">
        <ele>240.337974</ele>
        <time>2019-06-05T06:07:04.000Z</time>
      </trkpt>
      <trkpt lat="50.462547" lon="25.760744">
        <ele>240.390644</ele>
        <time>2019-06-05T06:07:07.000Z</time>
      </trkpt>
      <trkpt lat="50.462612" lon="25.760626">
        <ele>240.433469</ele>
        <time>2019-06-05T06:07:10.000Z</time>
      </trkpt>
      <trkpt lat="50.462677" lon="25.760508">
        <ele>240.476294</ele>
        <time>2019-06-05T06:07:13.000Z</time>
      </trkpt>
      <trkpt lat="50.462750" lon="25.760359">
        <ele>240.527894</ele>
        <time>2019-06-05T06:07:16.000Z</time>
      </trkpt>
      <trkpt lat="50.462826" lon="25.760195">
        <ele>240.583565</ele>
        <time>2019-06-05T06:07:19.000Z</time>
      </trkpt>
      <trkpt lat="50.462910" lon="25.760044">
        <ele>240.638599</ele>
        <time>2019-06-05T06:07:22.000Z</time>
      </trkpt>
      <trkpt lat="50.462994" lon="25.759876">
        <ele>240.697226</ele>
        <time>2019-06-05T06:07:25.000Z</time>
      </trkpt>
      <trkpt lat="50.463047" lon="25.759762">
        <ele>240.735967</ele>
        <time>2019-06-05T06:07:27.000Z</time>
      </trkpt>
      <trkpt lat="50.463108" lon="25.759647">
        <ele>240.777048</ele>
        <time>2019-06-05T06:07:29.000Z</time>
      </trkpt>
      <trkpt lat="50.463160" lon="25.759527">
        <ele>240.816886</ele>
        <time>2019-06-05T06:07:31.000Z</time>
      </trkpt>
      <trkpt lat="50.463220" lon="25.759413">
        <ele>240.857481</ele>
        <time>2019-06-05T06:07:33.000Z</time>
      </trkpt>
      <trkpt lat="50.463284" lon="25.759312">
        <ele>240.896590</ele>
        <time>2019-06-05T06:07:35.000Z</time>
      </trkpt>
      <trkpt lat="50.463364" lon="25.759151">
        <ele>240.952642</ele>
        <time>2019-06-05T06:07:38.000Z</time>
      </trkpt>
      <trkpt lat="50.463420" lon="25.759037">
        <ele>240.992159</ele>
        <time>2019-06-05T06:07:40.000Z</time>
      </trkpt>
      <trkpt lat="50.463500" lon="25.758870">
        <ele>241.021246</ele>
        <time>2019-06-05T06:07:43.000Z</time>
      </trkpt>
      <trkpt lat="50.463562" lon="25.758762">
        <ele>241.034264</ele>
        <time>2019-06-05T06:07:45.000Z</time>
      </trkpt>
      <trkpt lat="50.463642" lon="25.758596">
        <ele>241.052901</ele>
        <time>2019-06-05T06:07:48.000Z</time>
      </trkpt>
      <trkpt lat="50.463726" lon="25.758446">
        <ele>241.070783</ele>
        <time>2019-06-05T06:07:51.000Z</time>
      </trkpt>
      <trkpt lat="50.463790" lon="25.758331">
        <ele>241.084456</ele>
        <time>2019-06-05T06:07:53.000Z</time>
      </trkpt>
      <trkpt lat="50.463844" lon="25.758215">
        <ele>241.097320</ele>
        <time>2019-06-05T06:07:55.000Z</time>
      </trkpt>
      <trkpt lat="50.463932" lon="25.758049">
        <ele>241.116656</ele>
        <time>2019-06-05T06:07:58.000Z</time>
      </trkpt>
      <trkpt lat="50.463993" lon="25.757927">
        <ele>241.130542</ele>
        <time>2019-06-05T06:08:00.000Z</time>
      </trkpt>
      <trkpt lat="50.464050" lon="25.757812">
        <ele>241.143588</ele>
        <time>2019-06-05T06:08:02.000Z</time>
      </trkpt>
      <trkpt lat="50.464104" lon="25.757692">
        <ele>241.156742</ele>
        <time>2019-06-05T06:08:04.000Z</time>
      </trkpt>
      <trkpt lat="50.464176" lon="25.757534">
        <ele>241.174135</ele>
        <time>2019-06-05T06:08:07.000Z</time>
      </trkpt>
      <trkpt lat="50.464230" lon="25.757414">
        <ele>241.187289</ele>
        <time>2019-06-05T06:08:09.000Z</time>
      </trkpt>
      <trkpt lat="50.464283" lon="25.757292">
        <ele>241.200510</ele>
        <time>2019-06-05T06:08:11.000Z</time>
      </trkpt>
      <trkpt lat="50.464344" lon="25.757177">
        <ele>241.213909</ele>
        <time>2019-06-05T06:08:13.000Z</time>
      </trkpt>
      <trkpt lat="50.464413" lon="25.757063">
        <ele>241.227990</ele>
        <time>2019-06-05T06:08:15.000Z</time>
      </trkpt>
      <trkpt lat="50.464470" lon="25.756947">
        <ele>241.241106</ele>
        <time>2019-06-05T06:08:17.000Z</time>
      </trkpt>
      <trkpt lat="50.464523" lon="25.756823">
        <ele>241.254475</ele>
        <time>2019-06-05T06:08:19.000Z</time>
      </trkpt>
      <trkpt lat="50.464584" lon="25.756714">
        <ele>241.243807</ele>
        <time>2019-06-05T06:08:21.000Z</time>
      </trkpt>
      <trkpt lat="50.464640" lon="25.756600">
        <ele>241.213065</ele>
        <time>2019-06-05T06:08:23.000Z</time>
      </trkpt>
      <trkpt lat="50.464703" lon="25.756481">
        <ele>241.180020</ele>
        <time>2019-06-05T06:08:25.000Z</time>
      </trkpt>
      <trkpt lat="50.464760" lon="25.756365">
        <ele>241.148735</ele>
        <time>2019-06-05T06:08:27.000Z</time>
      </trkpt>
      <trkpt lat="50.464817" lon="25.756254">
        <ele>241.118287</ele>
        <time>2019-06-05T06:08:29.000Z</time>
      </trkpt>
      <trkpt lat="50.464900" lon="25.756107">
        <ele>241.076336</ele>
        <time>2019-06-05T06:08:32.000Z</time>
      </trkpt>
      <trkpt lat="50.464985" lon="25.755943">
        <ele>241.031185</ele>
        <time>2019-06-05T06:08:35.000Z</time>
      </trkpt>
      <trkpt lat="50.465042" lon="25.755816">
        <ele>240.998009</ele>
        <time>2019-06-05T06:08:37.000Z</time>
      </trkpt>
      <trkpt lat="50.465100" lon="25.755690">
        <ele>240.964812</ele>
        <time>2019-06-05T06:08:39.000Z</time>
      </trkpt>
      <trkpt lat="50.465157" lon="25.755568">
        <ele>240.932503</ele>
        <time>2019-06-05T06:08:41.000Z</time>
      </trkpt>
      <trkpt lat="50.465233" lon="25.755420">
        <ele>240.891906</ele>
        <time>2019-06-05T06:08:44.000Z</time>
      </trkpt>
      <trkpt lat="50.465290" lon="25.755306">
        <ele>240.860958</ele>
        <time>2019-06-05T06:08:46.000Z</time>
      </trkpt>
      <trkpt lat="50.465343" lon="25.755186">
        <ele>240.829776</ele>
        <time>2019-06-05T06:08:48.000Z</time>
      </trkpt>
      <trkpt lat="50.465405" lon="25.755066">
        <ele>240.796780</ele>
        <time>2019-06-05T06:08:50.000Z</time>
      </trkpt>
      <trkpt lat="50.465466" lon="25.754951">
        <ele>240.764821</ele>
        <time>2019-06-05T06:08:52.000Z</time>
      </trkpt>
      <trkpt lat="50.465527" lon="25.754843">
        <ele>240.733996</ele>
        <time>2019-06-05T06:08:54.000Z</time>
      </trkpt>
      <trkpt lat="50.465603" lon="25.754675">
        <ele>240.689994</ele>
        <time>2019-06-05T06:08:57.000Z</time>
      </trkpt>
      <trkpt lat="50.465675" lon="25.754517">
        <ele>240.651941</ele>
        <time>2019-06-05T06:09:00.000Z</time>
      </trkpt>
      <trkpt lat="50.465736" lon="25.754414">
        <ele>240.633730</ele>
        <time>2019-06-05T06:09:02.000Z</time>
      </trkpt>
      <trkpt lat="50.465797" lon="25.754295">
        <ele>240.613951</ele>
        <time>2019-06-05T06:09:04.000Z</time>
      </trkpt>
      <trkpt lat="50.465855" lon="25.754177">
        <ele>240.594652</ele>
        <time>2019-06-05T06:09:06.000Z</time>
      </trkpt>
      <trkpt lat="50.465910" lon="25.754063">
        <ele>240.576135</ele>
        <time>2019-06-05T06:09:08.000Z</time>
      </trkpt>
      <trkpt lat="50.465990" lon="25.753891">
        <ele>240.548559</ele>
        <time>2019-06-05T06:09:11.000Z</time>
      </trkpt>
      <trkpt lat="50.466076" lon="25.753735">
        <ele>240.521845</ele>
        <time>2019-06-05T06:09:14.000Z</time>
      </trkpt>
      <trkpt lat="50.466137" lon="25.753622">
        <ele>240.502665</ele>
        <time>2019-06-05T06:09:16.000Z</time>
      </trkpt>
      <trkpt lat="50.466198" lon="25.753511">
        <ele>240.483682</ele>
        <time>2019-06-05T06:09:18.000Z</time>
      </trkpt>
      <trkpt lat="50.466250" lon="25.753395">
        <ele>240.465316</ele>
        <time>2019-06-05T06:09:20.000Z</time>
      </trkpt>
      <trkpt lat="50.466330" lon="25.753239">
        <ele>240.439384</ele>
        <time>2019-06-05T06:09:23.000Z</time>
      </trkpt>
      <trkpt lat="50.466385" lon="25.753122">
        <ele>240.420556</ele>
        <time>2019-06-05T06:09:25.000Z</time>
      </trkpt>
      <trkpt lat="50.466442" lon="25.752998">
        <ele>240.400757</ele>
        <time>2019-06-05T06:09:27.000Z</time>
      </trkpt>
      <trkpt lat="50.466507" lon="25.752876">
        <ele>240.380162</ele>
        <time>2019-06-05T06:09:29.000Z</time>
      </trkpt>
      <trkpt lat="50.466568" lon="25.752754">
        <ele>240.360080</ele>
        <time>2019-06-05T06:09:31.000Z</time>
      </trkpt>
      <trkpt lat="50.466633" lon="25.752632">
        <ele>240.339485</ele>
        <time>2019-06-05T06:09:33.000Z</time>
      </trkpt>
      <trkpt lat="50.466690" lon="25.752522">
        <ele>240.321124</ele>
        <time>2019-06-05T06:09:35.000Z</time>
      </trkpt>
      <trkpt lat="50.466750" lon="25.752410">
        <ele>240.302175</ele>
        <time>2019-06-05T06:09:37.000Z</time>
      </trkpt>
      <trkpt lat="50.466830" lon="25.752249">
        <ele>240.210964</ele>
        <time>2019-06-05T06:09:40.000Z</time>
      </trkpt>
      <trkpt lat="50.466892" lon="25.752136">
        <ele>240.112035</ele>
        <time>2019-06-05T06:09:42.000Z</time>
      </trkpt>
      <trkpt lat="50.466957" lon="25.752024">
        <ele>240.011529</ele>
        <time>2019-06-05T06:09:44.000Z</time>
      </trkpt>
      <trkpt lat="50.467022" lon="25.751902">
        <ele>239.906028</ele>
        <time>2019-06-05T06:09:46.000Z</time>
      </trkpt>
      <trkpt lat="50.467080" lon="25.751787">
        <ele>239.808733</ele>
        <time>2019-06-05T06:09:48.000Z</time>
      </trkpt>
      <trkpt lat="50.467140" lon="25.751667">
        <ele>239.707544</ele>
        <time>2019-06-05T06:09:50.000Z</time>
      </trkpt>
      <trkpt lat="50.467197" lon="25.751543">
        <ele>239.606117</ele>
        <time>2019-06-05T06:09:52.000Z</time>
      </trkpt>
      <trkpt lat="50.467278" lon="25.751380">
        <ele>239.468989</ele>
        <time>2019-06-05T06:09:55.000Z</time>
      </trkpt>
      <trkpt lat="50.467354" lon="25.751220">
        <ele>239.336605</ele>
        <time>2019-06-05T06:09:58.000Z</time>
      </trkpt>
      <trkpt lat="50.467415" lon="25.751108">
        <ele>239.238858</ele>
        <time>2019-06-05T06:10:00.000Z</time>
      </trkpt>
      <trkpt lat="50.467484" lon="25.750963">
        <ele>239.118807</ele>
        <time>2019-06-05T06:10:03.000Z</time>
      </trkpt>
      <trkpt lat="50.467564" lon="25.750835">
        <ele>238.999851</ele>
        <time>2019-06-05T06:10:06.000Z</time>
      </trkpt>
      <trkpt lat="50.467640" lon="25.750683">
        <ele>238.871679</ele>
        <time>2019-06-05T06:10:09.000Z</time>
      </trkpt>
      <trkpt lat="50.467716" lon="25.750519">
        <ele>238.737160</ele>
        <time>2019-06-05T06:10:12.000Z</time>
      </trkpt>
      <trkpt lat="50.467793" lon="25.750349">
        <ele>238.598803</ele>
        <time>2019-06-05T06:10:15.000Z</time>
      </trkpt>
      <trkpt lat="50.467850" lon="25.750227">
        <ele>238.498449</ele>
        <time>2019-06-05T06:10:17.000Z</time>
      </trkpt>
      <trkpt lat="50.467930" lon="25.750070">
        <ele>238.390827</ele>
        <time>2019-06-05T06:10:20.000Z</time>
      </trkpt>
      <trkpt lat="50.467987" lon="25.749960">
        <ele>238.342833</ele>
        <time>2019-06-05T06:10:22.000Z</time>
      </trkpt>
      <trkpt lat="50.468050" lon="25.749840">
        <ele>238.290200</ele>
        <time>2019-06-05T06:10:24.000Z</time>
      </trkpt>
      <trkpt lat="50.468110" lon="25.749714">
        <ele>238.236956</ele>
        <time>2019-06-05T06:10:26.000Z</time>
      </trkpt>
      <trkpt lat="50.468174" lon="25.749592">
        <ele>238.183463</ele>
        <time>2019-06-05T06:10:28.000Z</time>
      </trkpt>
      <trkpt lat="50.468230" lon="25.749481">
        <ele>238.135538</ele>
        <time>2019-06-05T06:10:30.000Z</time>
      </trkpt>
      <trkpt lat="50.468296" lon="25.749376">
        <ele>238.085607</ele>
        <time>2019-06-05T06:10:32.000Z</time>
      </trkpt>
      <trkpt lat="50.468380" lon="25.749222">
        <ele>238.016984</ele>
        <time>2019-06-05T06:10:35.000Z</time>
      </trkpt>
      <trkpt lat="50.468440" lon="25.749094">
        <ele>237.963197</ele>
        <time>2019-06-05T06:10:37.000Z</time>
      </trkpt>
      <trkpt lat="50.468500" lon="25.748966">
        <ele>237.909410</ele>
        <time>2019-06-05T06:10:39.000Z</time>
      </trkpt>
      <trkpt lat="50.468555" lon="25.748844">
        <ele>237.858825</ele>
        <time>2019-06-05T06:10:41.000Z</time>
      </trkpt>
      <trkpt lat="50.468616" lon="25.748722">
        <ele>237.806332</ele>
        <time>2019-06-05T06:10:43.000Z</time>
      </trkpt>
      <trkpt lat="50.468674" lon="25.748598">
        <ele>237.754265</ele>
        <time>2019-06-05T06:10:45.000Z</time>
      </trkpt>
      <trkpt lat="50.468742" lon="25.748474">
        <ele>237.698885</ele>
        <time>2019-06-05T06:10:47.000Z</time>
      </trkpt>
      <trkpt lat="50.468810" lon="25.748346">
        <ele>237.642472</ele>
        <time>2019-06-05T06:10:49.000Z</time>
      </trkpt>
      <trkpt lat="50.468876" lon="25.748205">
        <ele>237.583252</ele>
        <time>2019-06-05T06:10:51.000Z</time>
      </trkpt>
      <trkpt lat="50.468940" lon="25.748068">
        <ele>237.525753</ele>
        <time>2019-06-05T06:10:53.000Z</time>
      </trkpt>
      <trkpt lat="50.469000" lon="25.747936">
        <ele>237.470870</ele>
        <time>2019-06-05T06:10:55.000Z</time>
      </trkpt>
      <trkpt lat="50.469070" lon="25.747805">
        <ele>237.408229</ele>
        <time>2019-06-05T06:10:57.000Z</time>
      </trkpt>
      <trkpt lat="50.469135" lon="25.747670">
        <ele>237.345325</ele>
        <time>2019-06-05T06:10:59.000Z</time>
      </trkpt>
      <trkpt lat="50.469200" lon="25.747534">
        <ele>237.282123</ele>
        <time>2019-06-05T06:11:01.000Z</time>
      </trkpt>
      <trkpt lat="50.469273" lon="25.747400">
        <ele>237.216578</ele>
        <time>2019-06-05T06:11:03.000Z</time>
      </trkpt>
      <trkpt lat="50.469340" lon="25.747263">
        <ele>237.152375</ele>
        <time>2019-06-05T06:11:05.000Z</time>
      </trkpt>
      <trkpt lat="50.469406" lon="25.747131">
        <ele>237.089997</ele>
        <time>2019-06-05T06:11:07.000Z</time>
      </trkpt>
      <trkpt lat="50.469470" lon="25.747010">
        <ele>237.031534</ele>
        <time>2019-06-05T06:11:09.000Z</time>
      </trkpt>
      <trkpt lat="50.469540" lon="25.746878">
        <ele>236.967687</ele>
        <time>2019-06-05T06:11:11.000Z</time>
      </trkpt>
      <trkpt lat="50.469597" lon="25.746752">
        <ele>236.910243</ele>
        <time>2019-06-05T06:11:13.000Z</time>
      </trkpt>
      <trkpt lat="50.469658" lon="25.746640">
        <ele>236.855465</ele>
        <time>2019-06-05T06:11:15.000Z</time>
      </trkpt>
      <trkpt lat="50.469723" lon="25.746523">
        <ele>236.797754</ele>
        <time>2019-06-05T06:11:17.000Z</time>
      </trkpt>
      <trkpt lat="50.469788" lon="25.746399">
        <ele>236.738059</ele>
        <time>2019-06-05T06:11:19.000Z</time>
      </trkpt>
      <trkpt lat="50.469850" lon="25.746277">
        <ele>236.680045</ele>
        <time>2019-06-05T06:11:21.000Z</time>
      </trkpt>
      <trkpt lat="50.469910" lon="25.746159">
        <ele>236.623921</ele>
        <time>2019-06-05T06:11:23.000Z</time>
      </trkpt>
      <trkpt lat="50.469967" lon="25.746042">
        <ele>236.569168</ele>
        <time>2019-06-05T06:11:25.000Z</time>
      </trkpt>
      <trkpt lat="50.470028" lon="25.745913">
        <ele>236.509450</ele>
        <time>2019-06-05T06:11:27.000Z</time>
      </trkpt>
      <trkpt lat="50.470097" lon="25.745785">
        <ele>236.447117</ele>
        <time>2019-06-05T06:11:29.000Z</time>
      </trkpt>
      <trkpt lat="50.470165" lon="25.745657">
        <ele>236.399941</ele>
        <time>2019-06-05T06:11:31.000Z</time>
      </trkpt>
      <trkpt lat="50.470230" lon="25.745522">
        <ele>236.372497</ele>
        <time>2019-06-05T06:11:33.000Z</time>
      </trkpt>
      <trkpt lat="50.470295" lon="25.745380">
        <ele>236.344139</ele>
        <time>2019-06-05T06:11:35.000Z</time>
      </trkpt>
      <trkpt lat="50.470364" lon="25.745247">
        <ele>236.316320</ele>
        <time>2019-06-05T06:11:37.000Z</time>
      </trkpt>
      <trkpt lat="50.470430" lon="25.745117">
        <ele>236.289359</ele>
        <time>2019-06-05T06:11:39.000Z</time>
      </trkpt>
      <trkpt lat="50.470493" lon="25.744991">
        <ele>236.263381</ele>
        <time>2019-06-05T06:11:41.000Z</time>
      </trkpt>
      <trkpt lat="50.470562" lon="25.744854">
        <ele>236.235057</ele>
        <time>2019-06-05T06:11:43.000Z</time>
      </trkpt>
      <trkpt lat="50.470634" lon="25.744709">
        <ele>236.205240</ele>
        <time>2019-06-05T06:11:45.000Z</time>
      </trkpt>
      <trkpt lat="50.470703" lon="25.744566">
        <ele>236.176146</ele>
        <time>2019-06-05T06:11:47.000Z</time>
      </trkpt>
      <trkpt lat="50.470776" lon="25.744423">
        <ele>236.146426</ele>
        <time>2019-06-05T06:11:49.000Z</time>
      </trkpt>
      <trkpt lat="50.470848" lon="25.744278">
        <ele>236.116609</ele>
        <time>2019-06-05T06:11:51.000Z</time>
      </trkpt>
      <trkpt lat="50.470913" lon="25.744135">
        <ele>236.088120</ele>
        <time>2019-06-05T06:11:53.000Z</time>
      </trkpt>
      <trkpt lat="50.470980" lon="25.744000">
        <ele>236.060365</ele>
        <time>2019-06-05T06:11:55.000Z</time>
      </trkpt>
      <trkpt lat="50.471050" lon="25.743889">
        <ele>236.035031</ele>
        <time>2019-06-05T06:11:57.000Z</time>
      </trkpt>
      <trkpt lat="50.471123" lon="25.743767">
        <ele>236.007883</ele>
        <time>2019-06-05T06:11:59.000Z</time>
      </trkpt>
      <trkpt lat="50.471195" lon="25.743626">
        <ele>235.978576</ele>
        <time>2019-06-05T06:12:01.000Z</time>
      </trkpt>
      <trkpt lat="50.471268" lon="25.743477">
        <ele>235.948623</ele>
        <time>2019-06-05T06:12:03.000Z</time>
      </trkpt>
      <trkpt lat="50.471325" lon="25.743350">
        <ele>235.926046</ele>
        <time>2019-06-05T06:12:05.000Z</time>
      </trkpt>
      <trkpt lat="50.471394" lon="25.743212">
        <ele>235.900550</ele>
        <time>2019-06-05T06:12:07.000Z</time>
      </trkpt>
      <trkpt lat="50.471460" lon="25.743076">
        <ele>235.875703</ele>
        <time>2019-06-05T06:12:09.000Z</time>
      </trkpt>
      <trkpt lat="50.471523" lon="25.742950">
        <ele>235.852425</ele>
        <time>2019-06-05T06:12:11.000Z</time>
      </trkpt>
      <trkpt lat="50.471590" lon="25.742826">
        <ele>235.828793</ele>
        <time>2019-06-05T06:12:13.000Z</time>
      </trkpt>
      <trkpt lat="50.471650" lon="25.742700">
        <ele>235.805931</ele>
        <time>2019-06-05T06:12:15.000Z</time>
      </trkpt>
      <trkpt lat="50.471718" lon="25.742570">
        <ele>235.781485</ele>
        <time>2019-06-05T06:12:17.000Z</time>
      </trkpt>
      <trkpt lat="50.471783" lon="25.742441">
        <ele>235.757581</ele>
        <time>2019-06-05T06:12:19.000Z</time>
      </trkpt>
      <trkpt lat="50.471850" lon="25.742311">
        <ele>235.733279</ele>
        <time>2019-06-05T06:12:21.000Z</time>
      </trkpt>
      <trkpt lat="50.471916" lon="25.742182">
        <ele>235.709233</ele>
        <time>2019-06-05T06:12:23.000Z</time>
      </trkpt>
      <trkpt lat="50.471980" lon="25.742048">
        <ele>235.684894</ele>
        <time>2019-06-05T06:12:25.000Z</time>
      </trkpt>
      <trkpt lat="50.472042" lon="25.741920">
        <ele>235.661525</ele>
        <time>2019-06-05T06:12:27.000Z</time>
      </trkpt>
      <trkpt lat="50.472100" lon="25.741798">
        <ele>235.639402</ele>
        <time>2019-06-05T06:12:29.000Z</time>
      </trkpt>
      <trkpt lat="50.472164" lon="25.741676">
        <ele>235.616433</ele>
        <time>2019-06-05T06:12:31.000Z</time>
      </trkpt>
      <trkpt lat="50.472225" lon="25.741550">
        <ele>235.593434</ele>
        <time>2019-06-05T06:12:33.000Z</time>
      </trkpt>
      <trkpt lat="50.472286" lon="25.741425">
        <ele>235.570550</ele>
        <time>2019-06-05T06:12:35.000Z</time>
      </trkpt>
      <trkpt lat="50.472347" lon="25.741302">
        <ele>235.547896</ele>
        <time>2019-06-05T06:12:37.000Z</time>
      </trkpt>
      <trkpt lat="50.472410" lon="25.741188">
        <ele>235.558851</ele>
        <time>2019-06-05T06:12:39.000Z</time>
      </trkpt>
      <trkpt lat="50.472466" lon="25.741068">
        <ele>235.579845</ele>
        <time>2019-06-05T06:12:41.000Z</time>
      </trkpt>
      <trkpt lat="50.472523" lon="25.740946">
        <ele>235.601197</ele>
        <time>2019-06-05T06:12:43.000Z</time>
      </trkpt>
      <trkpt lat="50.472588" lon="25.740822">
        <ele>235.623861</ele>
        <time>2019-06-05T06:12:45.000Z</time>
      </trkpt>
      <trkpt lat="50.472664" lon="25.740670">
        <ele>235.651132</ele>
        <time>2019-06-05T06:12:48.000Z</time>
      </trkpt>
      <trkpt lat="50.472720" lon="25.740559">
        <ele>235.671116</ele>
        <time>2019-06-05T06:12:50.000Z</time>
      </trkpt>
      <trkpt lat="50.472782" lon="25.740440">
        <ele>235.692813</ele>
        <time>2019-06-05T06:12:52.000Z</time>
      </trkpt>
      <trkpt lat="50.472843" lon="25.740303">
        <ele>235.716402</ele>
        <time>2019-06-05T06:12:54.000Z</time>
      </trkpt>
      <trkpt lat="50.472910" lon="25.740171">
        <ele>235.740222</ele>
        <time>2019-06-05T06:12:56.000Z</time>
      </trkpt>
      <trkpt lat="50.472977" lon="25.740044">
        <ele>235.763495</ele>
        <time>2019-06-05T06:12:58.000Z</time>
      </trkpt>
      <trkpt lat="50.473030" lon="25.739927">
        <ele>235.783756</ele>
        <time>2019-06-05T06:13:00.000Z</time>
      </trkpt>
      <trkpt lat="50.473095" lon="25.739809">
        <ele>235.805773</ele>
        <time>2019-06-05T06:13:02.000Z</time>
      </trkpt>
      <trkpt lat="50.473152" lon="25.739689">
        <ele>235.826899</ele>
        <time>2019-06-05T06:13:04.000Z</time>
      </trkpt>
      <trkpt lat="50.473217" lon="25.739563">
        <ele>235.849781</ele>
        <time>2019-06-05T06:13:06.000Z</time>
      </trkpt>
      <trkpt lat="50.473280" lon="25.739440">
        <ele>235.872056</ele>
        <time>2019-06-05T06:13:08.000Z</time>
      </trkpt>
      <trkpt lat="50.473347" lon="25.739315">
        <ele>235.895112</ele>
        <time>2019-06-05T06:13:10.000Z</time>
      </trkpt>
      <trkpt lat="50.473410" lon="25.739185">
        <ele>235.918165</ele>
        <time>2019-06-05T06:13:12.000Z</time>
      </trkpt>
      <trkpt lat="50.473473" lon="25.739061">
        <ele>235.940550</ele>
        <time>2019-06-05T06:13:14.000Z</time>
      </trkpt>
      <trkpt lat="50.473540" lon="25.738930">
        <ele>235.911201</ele>
        <time>2019-06-05T06:13:16.000Z</time>
      </trkpt>
      <trkpt lat="50.473606" lon="25.738804">
        <ele>235.880877</ele>
        <time>2019-06-05T06:13:18.000Z</time>
      </trkpt>
      <trkpt lat="50.473675" lon="25.738665">
        <ele>235.848121</ele>
        <time>2019-06-05T06:13:20.000Z</time>
      </trkpt>
      <trkpt lat="50.473740" lon="25.738525">
        <ele>235.815919</ele>
        <time>2019-06-05T06:13:22.000Z</time>
      </trkpt>
      <trkpt lat="50.473810" lon="25.738394">
        <ele>235.784135</ele>
        <time>2019-06-05T06:13:24.000Z</time>
      </trkpt>
      <trkpt lat="50.473880" lon="25.738256">
        <ele>235.751343</ele>
        <time>2019-06-05T06:13:26.000Z</time>
      </trkpt>
      <trkpt lat="50.473957" lon="25.738115">
        <ele>235.716819</ele>
        <time>2019-06-05T06:13:28.000Z</time>
      </trkpt>
      <trkpt lat="50.474022" lon="25.737982">
        <ele>235.685660</ele>
        <time>2019-06-05T06:13:30.000Z</time>
      </trkpt>
      <trkpt lat="50.474083" lon="25.737864">
        <ele>235.657411</ele>
        <time>2019-06-05T06:13:32.000Z</time>
      </trkpt>
      <trkpt lat="50.474144" lon="25.737747">
        <ele>235.629306</ele>
        <time>2019-06-05T06:13:34.000Z</time>
      </trkpt>
      <trkpt lat="50.474205" lon="25.737638">
        <ele>235.602336</ele>
        <time>2019-06-05T06:13:36.000Z</time>
      </trkpt>
      <trkpt lat="50.474260" lon="25.737528">
        <ele>235.576342</ele>
        <time>2019-06-05T06:13:38.000Z</time>
      </trkpt>
      <trkpt lat="50.474320" lon="25.737413">
        <ele>235.548710</ele>
        <time>2019-06-05T06:13:40.000Z</time>
      </trkpt>
      <trkpt lat="50.474380" lon="25.737299">
        <ele>235.521222</ele>
        <time>2019-06-05T06:13:42.000Z</time>
      </trkpt>
      <trkpt lat="50.474440" lon="25.737175">
        <ele>235.492277</ele>
        <time>2019-06-05T06:13:44.000Z</time>
      </trkpt>
      <trkpt lat="50.474500" lon="25.737045">
        <ele>235.462437</ele>
        <time>2019-06-05T06:13:46.000Z</time>
      </trkpt>
      <trkpt lat="50.474560" lon="25.736910">
        <ele>235.431841</ele>
        <time>2019-06-05T06:13:48.000Z</time>
      </trkpt>
      <trkpt lat="50.474630" lon="25.736778">
        <ele>235.434134</ele>
        <time>2019-06-05T06:13:50.000Z</time>
      </trkpt>
      <trkpt lat="50.474697" lon="25.736643">
        <ele>235.469125</ele>
        <time>2019-06-05T06:13:52.000Z</time>
      </trkpt>
      <trkpt lat="50.474766" lon="25.736510">
        <ele>235.504197</ele>
        <time>2019-06-05T06:13:54.000Z</time>
      </trkpt>
      <trkpt lat="50.474830" lon="25.736385">
        <ele>235.536988</ele>
        <time>2019-06-05T06:13:56.000Z</time>
      </trkpt>
      <trkpt lat="50.474900" lon="25.736254">
        <ele>235.571950</ele>
        <time>2019-06-05T06:13:58.000Z</time>
      </trkpt>
      <trkpt lat="50.474964" lon="25.736116">
        <ele>235.606850</ele>
        <time>2019-06-05T06:14:00.000Z</time>
      </trkpt>
      <trkpt lat="50.475020" lon="25.735987">
        <ele>235.638766</ele>
        <time>2019-06-05T06:14:02.000Z</time>
      </trkpt>
      <trkpt lat="50.475086" lon="25.735853">
        <ele>235.673399</ele>
        <time>2019-06-05T06:14:04.000Z</time>
      </trkpt>
      <trkpt lat="50.475150" lon="25.735723">
        <ele>235.706992</ele>
        <time>2019-06-05T06:14:06.000Z</time>
      </trkpt>
      <trkpt lat="50.475220" lon="25.735605">
        <ele>235.739963</ele>
        <time>2019-06-05T06:14:08.000Z</time>
      </trkpt>
      <trkpt lat="50.475285" lon="25.735483">
        <ele>235.772483</ele>
        <time>2019-06-05T06:14:10.000Z</time>
      </trkpt>
      <trkpt lat="50.475365" lon="25.735332">
        <ele>235.812640</ele>
        <time>2019-06-05T06:14:13.000Z</time>
      </trkpt>
      <trkpt lat="50.475433" lon="25.735180">
        <ele>235.850615</ele>
        <time>2019-06-05T06:14:16.000Z</time>
      </trkpt>
      <trkpt lat="50.475502" lon="25.735025">
        <ele>235.889277</ele>
        <time>2019-06-05T06:14:19.000Z</time>
      </trkpt>
      <trkpt lat="50.475570" lon="25.734900">
        <ele>235.922887</ele>
        <time>2019-06-05T06:14:22.000Z</time>
      </trkpt>
      <trkpt lat="50.475643" lon="25.734764">
        <ele>235.959251</ele>
        <time>2019-06-05T06:14:25.000Z</time>
      </trkpt>
      <trkpt lat="50.475720" lon="25.734606">
        <ele>235.982767</ele>
        <time>2019-06-05T06:14:28.000Z</time>
      </trkpt>
      <trkpt lat="50.475796" lon="25.734459">
        <ele>235.911957</ele>
        <time>2019-06-05T06:14:31.000Z</time>
      </trkpt>
      <trkpt lat="50.475870" lon="25.734297">
        <ele>235.837402</ele>
        <time>2019-06-05T06:14:34.000Z</time>
      </trkpt>
      <trkpt lat="50.475933" lon="25.734180">
        <ele>235.780101</ele>
        <time>2019-06-05T06:14:36.000Z</time>
      </trkpt>
      <trkpt lat="50.475994" lon="25.734060">
        <ele>235.722681</ele>
        <time>2019-06-05T06:14:38.000Z</time>
      </trkpt>
      <trkpt lat="50.476055" lon="25.733940">
        <ele>235.665260</ele>
        <time>2019-06-05T06:14:40.000Z</time>
      </trkpt>
      <trkpt lat="50.476120" lon="25.733826">
        <ele>235.608034</ele>
        <time>2019-06-05T06:14:42.000Z</time>
      </trkpt>
      <trkpt lat="50.476173" lon="25.733704">
        <ele>235.552807</ele>
        <time>2019-06-05T06:14:44.000Z</time>
      </trkpt>
      <trkpt lat="50.476265" lon="25.733536">
        <ele>235.469943</ele>
        <time>2019-06-05T06:14:47.000Z</time>
      </trkpt>
      <trkpt lat="50.476330" lon="25.733412">
        <ele>235.409881</ele>
        <time>2019-06-05T06:14:49.000Z</time>
      </trkpt>
      <trkpt lat="50.476400" lon="25.733276">
        <ele>235.344485</ele>
        <time>2019-06-05T06:14:51.000Z</time>
      </trkpt>
      <trkpt lat="50.476467" lon="25.733133">
        <ele>235.278095</ele>
        <time>2019-06-05T06:14:53.000Z</time>
      </trkpt>
      <trkpt lat="50.476540" lon="25.732988">
        <ele>235.208971</ele>
        <time>2019-06-05T06:14:55.000Z</time>
      </trkpt>
      <trkpt lat="50.476612" lon="25.732855">
        <ele>235.143689</ele>
        <time>2019-06-05T06:14:57.000Z</time>
      </trkpt>
      <trkpt lat="50.476680" lon="25.732727">
        <ele>235.081351</ele>
        <time>2019-06-05T06:14:59.000Z</time>
      </trkpt>
      <trkpt lat="50.476740" lon="25.732600">
        <ele>235.022215</ele>
        <time>2019-06-05T06:15:01.000Z</time>
      </trkpt>
      <trkpt lat="50.476807" lon="25.732470">
        <ele>234.959673</ele>
        <time>2019-06-05T06:15:03.000Z</time>
      </trkpt>
      <trkpt lat="50.476870" lon="25.732330">
        <ele>234.993188</ele>
        <time>2019-06-05T06:15:05.000Z</time>
      </trkpt>
      <trkpt lat="50.476940" lon="25.732183">
        <ele>235.085550</ele>
        <time>2019-06-05T06:15:07.000Z</time>
      </trkpt>
      <trkpt lat="50.477010" lon="25.732035">
        <ele>235.178316</ele>
        <time>2019-06-05T06:15:09.000Z</time>
      </trkpt>
      <trkpt lat="50.477080" lon="25.731884">
        <ele>235.272296</ele>
        <time>2019-06-05T06:15:11.000Z</time>
      </trkpt>
      <trkpt lat="50.477150" lon="25.731735">
        <ele>235.365466</ele>
        <time>2019-06-05T06:15:13.000Z</time>
      </trkpt>
      <trkpt lat="50.477222" lon="25.731598">
        <ele>235.454849</ele>
        <time>2019-06-05T06:15:15.000Z</time>
      </trkpt>
      <trkpt lat="50.477295" lon="25.731468">
        <ele>235.542068</ele>
        <time>2019-06-05T06:15:17.000Z</time>
      </trkpt>
      <trkpt lat="50.477367" lon="25.731327">
        <ele>235.633012</ele>
        <time>2019-06-05T06:15:19.000Z</time>
      </trkpt>
      <trkpt lat="50.477432" lon="25.731188">
        <ele>235.719786</ele>
        <time>2019-06-05T06:15:21.000Z</time>
      </trkpt>
      <trkpt lat="50.477505" lon="25.731050">
        <ele>235.810061</ele>
        <time>2019-06-05T06:15:23.000Z</time>
      </trkpt>
      <trkpt lat="50.477573" lon="25.730915">
        <ele>235.896674</ele>
        <time>2019-06-05T06:15:25.000Z</time>
      </trkpt>
      <trkpt lat="50.477634" lon="25.730791">
        <ele>235.975518</ele>
        <time>2019-06-05T06:15:27.000Z</time>
      </trkpt>
      <trkpt lat="50.477700" lon="25.730656">
        <ele>236.061159</ele>
        <time>2019-06-05T06:15:29.000Z</time>
      </trkpt>
      <trkpt lat="50.477764" lon="25.730522">
        <ele>236.145442</ele>
        <time>2019-06-05T06:15:31.000Z</time>
      </trkpt>
      <trkpt lat="50.477830" lon="25.730390">
        <ele>236.229890</ele>
        <time>2019-06-05T06:15:33.000Z</time>
      </trkpt>
      <trkpt lat="50.477898" lon="25.730259">
        <ele>236.314934</ele>
        <time>2019-06-05T06:15:35.000Z</time>
      </trkpt>
      <trkpt lat="50.477962" lon="25.730120">
        <ele>236.373954</ele>
        <time>2019-06-05T06:15:37.000Z</time>
      </trkpt>
      <trkpt lat="50.478027" lon="25.729984">
        <ele>236.404215</ele>
        <time>2019-06-05T06:15:39.000Z</time>
      </trkpt>
      <trkpt lat="50.478096" lon="25.729856">
        <ele>236.434060</ele>
        <time>2019-06-05T06:15:41.000Z</time>
      </trkpt>
      <trkpt lat="50.478160" lon="25.729733">
        <ele>236.462327</ele>
        <time>2019-06-05T06:15:43.000Z</time>
      </trkpt>
      <trkpt lat="50.478233" lon="25.729597">
        <ele>236.493982</ele>
        <time>2019-06-05T06:15:45.000Z</time>
      </trkpt>
      <trkpt lat="50.478306" lon="25.729465">
        <ele>236.525096</ele>
        <time>2019-06-05T06:15:47.000Z</time>
      </trkpt>
      <trkpt lat="50.478380" lon="25.729334">
        <ele>236.556260</ele>
        <time>2019-06-05T06:15:49.000Z</time>
      </trkpt>
      <trkpt lat="50.478450" lon="25.729200">
        <ele>236.587104</ele>
        <time>2019-06-05T06:15:51.000Z</time>
      </trkpt>
      <trkpt lat="50.478527" lon="25.729067">
        <ele>236.619094</ele>
        <time>2019-06-05T06:15:53.000Z</time>
      </trkpt>
      <trkpt lat="50.478600" lon="25.728922">
        <ele>236.651988</ele>
        <time>2019-06-05T06:15:55.000Z</time>
      </trkpt>
      <trkpt lat="50.478670" lon="25.728773">
        <ele>236.684939</ele>
        <time>2019-06-05T06:15:57.000Z</time>
      </trkpt>
      <trkpt lat="50.478740" lon="25.728630">
        <ele>236.717037</ele>
        <time>2019-06-05T06:15:59.000Z</time>
      </trkpt>
      <trkpt lat="50.478810" lon="25.728493">
        <ele>236.748295</ele>
        <time>2019-06-05T06:16:01.000Z</time>
      </trkpt>
      <trkpt lat="50.478878" lon="25.728369">
        <ele>236.777418</ele>
        <time>2019-06-05T06:16:03.000Z</time>
      </trkpt>
      <trkpt lat="50.478940" lon="25.728241">
        <ele>236.806037</ele>
        <time>2019-06-05T06:16:05.000Z</time>
      </trkpt>
      <trkpt lat="50.479000" lon="25.728111">
        <ele>236.834608</ele>
        <time>2019-06-05T06:16:07.000Z</time>
      </trkpt>
      <trkpt lat="50.479060" lon="25.727982">
        <ele>236.862124</ele>
        <time>2019-06-05T06:16:09.000Z</time>
      </trkpt>
      <trkpt lat="50.479130" lon="25.727860">
        <ele>236.868266</ele>
        <time>2019-06-05T06:16:11.000Z</time>
      </trkpt>
      <trkpt lat="50.479200" lon="25.727722">
        <ele>236.874864</ele>
        <time>2019-06-05T06:16:13.000Z</time>
      </trkpt>
      <trkpt lat="50.479263" lon="25.727600">
        <ele>236.880738</ele>
        <time>2019-06-05T06:16:15.000Z</time>
      </trkpt>
      <trkpt lat="50.479330" lon="25.727476">
        <ele>236.886821</ele>
        <time>2019-06-05T06:16:17.000Z</time>
      </trkpt>
      <trkpt lat="50.479393" lon="25.727348">
        <ele>236.892871</ele>
        <time>2019-06-05T06:16:19.000Z</time>
      </trkpt>
      <trkpt lat="50.479454" lon="25.727230">
        <ele>236.898555</ele>
        <time>2019-06-05T06:16:21.000Z</time>
      </trkpt>
      <trkpt lat="50.479507" lon="25.727110">
        <ele>236.904017</ele>
        <time>2019-06-05T06:16:23.000Z</time>
      </trkpt>
      <trkpt lat="50.479572" lon="25.727003">
        <ele>236.909548</ele>
        <time>2019-06-05T06:16:25.000Z</time>
      </trkpt>
      <trkpt lat="50.479637" lon="25.726890">
        <ele>236.915243</ele>
        <time>2019-06-05T06:16:27.000Z</time>
      </trkpt>
      <trkpt lat="50.479702" lon="25.726763">
        <ele>236.921337</ele>
        <time>2019-06-05T06:16:29.000Z</time>
      </trkpt>
      <trkpt lat="50.479770" lon="25.726631">
        <ele>236.927686</ele>
        <time>2019-06-05T06:16:31.000Z</time>
      </trkpt>
      <trkpt lat="50.479830" lon="25.726501">
        <ele>236.933691</ele>
        <time>2019-06-05T06:16:33.000Z</time>
      </trkpt>
      <trkpt lat="50.479897" lon="25.726376">
        <ele>236.939801</ele>
        <time>2019-06-05T06:16:35.000Z</time>
      </trkpt>
      <trkpt lat="50.479960" lon="25.726254">
        <ele>236.945676</ele>
        <time>2019-06-05T06:16:37.000Z</time>
      </trkpt>
      <trkpt lat="50.480026" lon="25.726116">
        <ele>236.952130</ele>
        <time>2019-06-05T06:16:39.000Z</time>
      </trkpt>
      <trkpt lat="50.480095" lon="25.725975">
        <ele>236.958781</ele>
        <time>2019-06-05T06:16:41.000Z</time>
      </trkpt>
      <trkpt lat="50.480164" lon="25.725843">
        <ele>236.965168</ele>
        <time>2019-06-05T06:16:43.000Z</time>
      </trkpt>
      <trkpt lat="50.480230" lon="25.725708">
        <ele>236.947912</ele>
        <time>2019-06-05T06:16:45.000Z</time>
      </trkpt>
      <trkpt lat="50.480300" lon="25.725588">
        <ele>236.917800</ele>
        <time>2019-06-05T06:16:47.000Z</time>
      </trkpt>
      <trkpt lat="50.480370" lon="25.725458">
        <ele>236.886299</ele>
        <time>2019-06-05T06:16:49.000Z</time>
      </trkpt>
      <trkpt lat="50.480440" lon="25.725332">
        <ele>236.855360</ele>
        <time>2019-06-05T06:16:51.000Z</time>
      </trkpt>
      <trkpt lat="50.480503" lon="25.725212">
        <ele>236.826583</ele>
        <time>2019-06-05T06:16:53.000Z</time>
      </trkpt>
      <trkpt lat="50.480556" lon="25.725092">
        <ele>236.799564</ele>
        <time>2019-06-05T06:16:55.000Z</time>
      </trkpt>
      <trkpt lat="50.480618" lon="25.724976">
        <ele>236.771542</ele>
        <time>2019-06-05T06:16:57.000Z</time>
      </trkpt>
      <trkpt lat="50.480680" lon="25.724861">
        <ele>236.743662</ele>
        <time>2019-06-05T06:16:59.000Z</time>
      </trkpt>
      <trkpt lat="50.480736" lon="25.724737">
        <ele>236.715536</ele>
        <time>2019-06-05T06:17:01.000Z</time>
      </trkpt>
      <trkpt lat="50.480797" lon="25.724611">
        <ele>236.686251</ele>
        <time>2019-06-05T06:17:03.000Z</time>
      </trkpt>
      <trkpt lat="50.480865" lon="25.724487">
        <ele>236.655972</ele>
        <time>2019-06-05T06:17:05.000Z</time>
      </trkpt>
      <trkpt lat="50.480934" lon="25.724363">
        <ele>236.625502</ele>
        <time>2019-06-05T06:17:07.000Z</time>
      </trkpt>
      <trkpt lat="50.481000" lon="25.724240">
        <ele>236.595741</ele>
        <time>2019-06-05T06:17:09.000Z</time>
      </trkpt>
      <trkpt lat="50.481064" lon="25.724113">
        <ele>236.565776</ele>
        <time>2019-06-05T06:17:11.000Z</time>
      </trkpt>
      <trkpt lat="50.481130" lon="25.723982">
        <ele>236.534869</ele>
        <time>2019-06-05T06:17:13.000Z</time>
      </trkpt>
      <trkpt lat="50.481194" lon="25.723858">
        <ele>236.505336</ele>
        <time>2019-06-05T06:17:15.000Z</time>
      </trkpt>
      <trkpt lat="50.481250" lon="25.723736">
        <ele>236.477511</ele>
        <time>2019-06-05T06:17:17.000Z</time>
      </trkpt>
      <trkpt lat="50.481316" lon="25.723623">
        <ele>236.449139</ele>
        <time>2019-06-05T06:17:19.000Z</time>
      </trkpt>
      <trkpt lat="50.481373" lon="25.723497">
        <ele>236.462821</ele>
        <time>2019-06-05T06:17:21.000Z</time>
      </trkpt>
      <trkpt lat="50.481430" lon="25.723381">
        <ele>236.483112</ele>
        <time>2019-06-05T06:17:23.000Z</time>
      </trkpt>
      <trkpt lat="50.481500" lon="25.723263">
        <ele>236.505447</ele>
        <time>2019-06-05T06:17:25.000Z</time>
      </trkpt>
      <trkpt lat="50.481564" lon="25.723135">
        <ele>236.527984</ele>
        <time>2019-06-05T06:17:27.000Z</time>
      </trkpt>
      <trkpt lat="50.481625" lon="25.723020">
        <ele>236.548712</ele>
        <time>2019-06-05T06:17:29.000Z</time>
      </trkpt>
      <trkpt lat="50.481686" lon="25.722900">
        <ele>236.569976</ele>
        <time>2019-06-05T06:17:31.000Z</time>
      </trkpt>
      <trkpt lat="50.481743" lon="25.722775">
        <ele>236.591267</ele>
        <time>2019-06-05T06:17:33.000Z</time>
      </trkpt>
      <trkpt lat="50.481804" lon="25.722652">
        <ele>236.612857</ele>
        <time>2019-06-05T06:17:35.000Z</time>
      </trkpt>
      <trkpt lat="50.481873" lon="25.722538">
        <ele>236.634640</ele>
        <time>2019-06-05T06:17:37.000Z</time>
      </trkpt>
      <trkpt lat="50.481934" lon="25.722412">
        <ele>236.656559</ele>
        <time>2019-06-05T06:17:39.000Z</time>
      </trkpt>
      <trkpt lat="50.482020" lon="25.722240">
        <ele>236.686843</ele>
        <time>2019-06-05T06:17:42.000Z</time>
      </trkpt>
      <trkpt lat="50.482090" lon="25.722120">
        <ele>236.709382</ele>
        <time>2019-06-05T06:17:44.000Z</time>
      </trkpt>
      <trkpt lat="50.482155" lon="25.722000">
        <ele>236.731199</ele>
        <time>2019-06-05T06:17:46.000Z</time>
      </trkpt>
      <trkpt lat="50.482224" lon="25.721878">
        <ele>236.753797</ele>
        <time>2019-06-05T06:17:48.000Z</time>
      </trkpt>
      <trkpt lat="50.482285" lon="25.721760">
        <ele>236.774846</ele>
        <time>2019-06-05T06:17:50.000Z</time>
      </trkpt>
      <trkpt lat="50.482340" lon="25.721650">
        <ele>236.794214</ele>
        <time>2019-06-05T06:17:52.000Z</time>
      </trkpt>
      <trkpt lat="50.482403" lon="25.721535">
        <ele>236.815222</ele>
        <time>2019-06-05T06:17:54.000Z</time>
      </trkpt>
      <trkpt lat="50.482464" lon="25.721416">
        <ele>236.836151</ele>
        <time>2019-06-05T06:17:56.000Z</time>
      </trkpt>
      <trkpt lat="50.482525" lon="25.721294">
        <ele>236.842281</ele>
        <time>2019-06-05T06:17:58.000Z</time>
      </trkpt>
      <trkpt lat="50.482590" lon="25.721172">
        <ele>236.848568</ele>
        <time>2019-06-05T06:18:00.000Z</time>
      </trkpt>
      <trkpt lat="50.482647" lon="25.721052">
        <ele>236.854484</ele>
        <time>2019-06-05T06:18:02.000Z</time>
      </trkpt>
      <trkpt lat="50.482708" lon="25.720936">
        <ele>236.860430</ele>
        <time>2019-06-05T06:18:04.000Z</time>
      </trkpt>
      <trkpt lat="50.482765" lon="25.720814">
        <ele>236.866410</ele>
        <time>2019-06-05T06:18:06.000Z</time>
      </trkpt>
      <trkpt lat="50.482822" lon="25.720700">
        <ele>236.872138</ele>
        <time>2019-06-05T06:18:08.000Z</time>
      </trkpt>
      <trkpt lat="50.482876" lon="25.720589">
        <ele>236.877658</ele>
        <time>2019-06-05T06:18:10.000Z</time>
      </trkpt>
      <trkpt lat="50.482933" lon="25.720476">
        <ele>236.883355</ele>
        <time>2019-06-05T06:18:12.000Z</time>
      </trkpt>
      <trkpt lat="50.483017" lon="25.720316">
        <ele>236.891551</ele>
        <time>2019-06-05T06:18:15.000Z</time>
      </trkpt>
      <trkpt lat="50.483078" lon="25.720200">
        <ele>236.897496</ele>
        <time>2019-06-05T06:18:17.000Z</time>
      </trkpt>
      <trkpt lat="50.483166" lon="25.720020">
        <ele>236.906464</ele>
        <time>2019-06-05T06:18:20.000Z</time>
      </trkpt>
      <trkpt lat="50.483223" lon="25.719910">
        <ele>236.912069</ele>
        <time>2019-06-05T06:18:22.000Z</time>
      </trkpt>
      <trkpt lat="50.483284" lon="25.719790">
        <ele>236.918137</ele>
        <time>2019-06-05T06:18:24.000Z</time>
      </trkpt>
      <trkpt lat="50.483345" lon="25.719677">
        <ele>236.923992</ele>
        <time>2019-06-05T06:18:26.000Z</time>
      </trkpt>
      <trkpt lat="50.483406" lon="25.719570">
        <ele>236.929668</ele>
        <time>2019-06-05T06:18:28.000Z</time>
      </trkpt>
      <trkpt lat="50.483463" lon="25.719456">
        <ele>236.935396</ele>
        <time>2019-06-05T06:18:30.000Z</time>
      </trkpt>
      <trkpt lat="50.483513" lon="25.719340">
        <ele>236.940931</ele>
        <time>2019-06-05T06:18:32.000Z</time>
      </trkpt>
      <trkpt lat="50.483566" lon="25.719220">
        <ele>236.946703</ele>
        <time>2019-06-05T06:18:34.000Z</time>
      </trkpt>
      <trkpt lat="50.483627" lon="25.719100">
        <ele>236.921517</ele>
        <time>2019-06-05T06:18:36.000Z</time>
      </trkpt>
      <trkpt lat="50.483692" lon="25.718985">
        <ele>236.889846</ele>
        <time>2019-06-05T06:18:38.000Z</time>
      </trkpt>
      <trkpt lat="50.483746" lon="25.718870">
        <ele>236.860418</ele>
        <time>2019-06-05T06:18:40.000Z</time>
      </trkpt>
      <trkpt lat="50.483826" lon="25.718710">
        <ele>236.818521</ele>
        <time>2019-06-05T06:18:43.000Z</time>
      </trkpt>
      <trkpt lat="50.483880" lon="25.718588">
        <ele>236.787921</ele>
        <time>2019-06-05T06:18:45.000Z</time>
      </trkpt>
      <trkpt lat="50.483936" lon="25.718468">
        <ele>236.757281</ele>
        <time>2019-06-05T06:18:47.000Z</time>
      </trkpt>
      <trkpt lat="50.483994" lon="25.718344">
        <ele>236.725594</ele>
        <time>2019-06-05T06:18:49.000Z</time>
      </trkpt>
      <trkpt lat="50.484060" lon="25.718225">
        <ele>236.693091</ele>
        <time>2019-06-05T06:18:51.000Z</time>
      </trkpt>
      <trkpt lat="50.484123" lon="25.718105">
        <ele>236.661059</ele>
        <time>2019-06-05T06:18:53.000Z</time>
      </trkpt>
      <trkpt lat="50.484196" lon="25.717978">
        <ele>236.625821</ele>
        <time>2019-06-05T06:18:55.000Z</time>
      </trkpt>
      <trkpt lat="50.484260" lon="25.717854">
        <ele>236.592947</ele>
        <time>2019-06-05T06:18:57.000Z</time>
      </trkpt>
      <trkpt lat="50.484318" lon="25.717718">
        <ele>236.559237</ele>
        <time>2019-06-05T06:18:59.000Z</time>
      </trkpt>
      <trkpt lat="50.484390" lon="25.717585">
        <ele>236.523283</ele>
        <time>2019-06-05T06:19:01.000Z</time>
      </trkpt>
      <trkpt lat="50.484460" lon="25.717459">
        <ele>236.488843</ele>
        <time>2019-06-05T06:19:03.000Z</time>
      </trkpt>
      <trkpt lat="50.484524" lon="25.717327">
        <ele>236.454674</ele>
        <time>2019-06-05T06:19:05.000Z</time>
      </trkpt>
      <trkpt lat="50.484580" lon="25.717203">
        <ele>236.423366</ele>
        <time>2019-06-05T06:19:07.000Z</time>
      </trkpt>
      <trkpt lat="50.484640" lon="25.717089">
        <ele>236.392905</ele>
        <time>2019-06-05T06:19:09.000Z</time>
      </trkpt>
      <trkpt lat="50.484695" lon="25.716978">
        <ele>236.370587</ele>
        <time>2019-06-05T06:19:11.000Z</time>
      </trkpt>
      <trkpt lat="50.484756" lon="25.716852">
        <ele>236.459465</ele>
        <time>2019-06-05T06:19:13.000Z</time>
      </trkpt>
      <trkpt lat="50.484810" lon="25.716738">
        <ele>236.539247</ele>
        <time>2019-06-05T06:19:15.000Z</time>
      </trkpt>
      <trkpt lat="50.484894" lon="25.716597">
        <ele>236.647679</ele>
        <time>2019-06-05T06:19:18.000Z</time>
      </trkpt>
      <trkpt lat="50.484980" lon="25.716452">
        <ele>236.758956</ele>
        <time>2019-06-05T06:19:21.000Z</time>
      </trkpt>
      <trkpt lat="50.485035" lon="25.716340">
        <ele>236.838376</ele>
        <time>2019-06-05T06:19:23.000Z</time>
      </trkpt>
      <trkpt lat="50.485107" lon="25.716183">
        <ele>236.947016</ele>
        <time>2019-06-05T06:19:26.000Z</time>
      </trkpt>
      <trkpt lat="50.485184" lon="25.716045">
        <ele>237.050052</ele>
        <time>2019-06-05T06:19:29.000Z</time>
      </trkpt>
      <trkpt lat="50.485260" lon="25.715887">
        <ele>237.161239</ele>
        <time>2019-06-05T06:19:32.000Z</time>
      </trkpt>
      <trkpt lat="50.485336" lon="25.715715">
        <ele>237.278792</ele>
        <time>2019-06-05T06:19:35.000Z</time>
      </trkpt>
      <trkpt lat="50.485397" lon="25.715600">
        <ele>237.362839</ele>
        <time>2019-06-05T06:19:37.000Z</time>
      </trkpt>
      <trkpt lat="50.485455" lon="25.715479">
        <ele>237.447881</ele>
        <time>2019-06-05T06:19:39.000Z</time>
      </trkpt>
      <trkpt lat="50.485508" lon="25.715359">
        <ele>237.529882</ele>
        <time>2019-06-05T06:19:41.000Z</time>
      </trkpt>
      <trkpt lat="50.485600" lon="25.715180">
        <ele>237.659053</ele>
        <time>2019-06-05T06:19:44.000Z</time>
      </trkpt>
      <trkpt lat="50.485664" lon="25.715052">
        <ele>237.750438</ele>
        <time>2019-06-05T06:19:46.000Z</time>
      </trkpt>
      <trkpt lat="50.485730" lon="25.714931">
        <ele>237.839904</ele>
        <time>2019-06-05T06:19:48.000Z</time>
      </trkpt>
      <trkpt lat="50.485794" lon="25.714806">
        <ele>237.929971</ele>
        <time>2019-06-05T06:19:50.000Z</time>
      </trkpt>
      <trkpt lat="50.485860" lon="25.714676">
        <ele>237.928397</ele>
        <time>2019-06-05T06:19:52.000Z</time>
      </trkpt>
      <trkpt lat="50.485924" lon="25.714550">
        <ele>237.897444</ele>
        <time>2019-06-05T06:19:54.000Z</time>
      </trkpt>
      <trkpt lat="50.485990" lon="25.714407">
        <ele>237.863527</ele>
        <time>2019-06-05T06:19:56.000Z</time>
      </trkpt>
      <trkpt lat="50.486060" lon="25.714268">
        <ele>237.829494</ele>
        <time>2019-06-05T06:19:58.000Z</time>
      </trkpt>
      <trkpt lat="50.486130" lon="25.714138">
        <ele>237.796797</ele>
        <time>2019-06-05T06:20:00.000Z</time>
      </trkpt>
      <trkpt lat="50.486195" lon="25.714012">
        <ele>237.765655</ele>
        <time>2019-06-05T06:20:02.000Z</time>
      </trkpt>
      <trkpt lat="50.486263" lon="25.713879">
        <ele>237.732898</ele>
        <time>2019-06-05T06:20:04.000Z</time>
      </trkpt>
      <trkpt lat="50.486332" lon="25.713743">
        <ele>237.699503</ele>
        <time>2019-06-05T06:20:06.000Z</time>
      </trkpt>
      <trkpt lat="50.486400" lon="25.713602">
        <ele>237.665535</ele>
        <time>2019-06-05T06:20:08.000Z</time>
      </trkpt>
      <trkpt lat="50.486470" lon="25.713472">
        <ele>237.632839</ele>
        <time>2019-06-05T06:20:10.000Z</time>
      </trkpt>
      <trkpt lat="50.486534" lon="25.713350">
        <ele>237.602482</ele>
        <time>2019-06-05T06:20:12.000Z</time>
      </trkpt>
      <trkpt lat="50.486603" lon="25.713219">
        <ele>237.569833</ele>
        <time>2019-06-05T06:20:14.000Z</time>
      </trkpt>
      <trkpt lat="50.486670" lon="25.713090">
        <ele>237.537863</ele>
        <time>2019-06-05T06:20:16.000Z</time>
      </trkpt>
      <trkpt lat="50.486740" lon="25.712950">
        <ele>237.503679</ele>
        <time>2019-06-05T06:20:18.000Z</time>
      </trkpt>
      <trkpt lat="50.486810" lon="25.712814">
        <ele>237.470095</ele>
        <time>2019-06-05T06:20:20.000Z</time>
      </trkpt>
      <trkpt lat="50.486880" lon="25.712685">
        <ele>237.437545</ele>
        <time>2019-06-05T06:20:22.000Z</time>
      </trkpt>
      <trkpt lat="50.486942" lon="25.712559">
        <ele>237.403373</ele>
        <time>2019-06-05T06:20:24.000Z</time>
      </trkpt>
      <trkpt lat="50.487000" lon="25.712427">
        <ele>237.334450</ele>
        <time>2019-06-05T06:20:26.000Z</time>
      </trkpt>
      <trkpt lat="50.487064" lon="25.712303">
        <ele>237.265849</ele>
        <time>2019-06-05T06:20:28.000Z</time>
      </trkpt>
      <trkpt lat="50.487125" lon="25.712172">
        <ele>237.196102</ele>
        <time>2019-06-05T06:20:30.000Z</time>
      </trkpt>
      <trkpt lat="50.487186" lon="25.712044">
        <ele>237.127391</ele>
        <time>2019-06-05T06:20:32.000Z</time>
      </trkpt>
      <trkpt lat="50.487260" lon="25.711914">
        <ele>237.052446</ele>
        <time>2019-06-05T06:20:34.000Z</time>
      </trkpt>
      <trkpt lat="50.487328" lon="25.711784">
        <ele>236.980140</ele>
        <time>2019-06-05T06:20:36.000Z</time>
      </trkpt>
      <trkpt lat="50.487390" lon="25.711670">
        <ele>236.915705</ele>
        <time>2019-06-05T06:20:38.000Z</time>
      </trkpt>
      <trkpt lat="50.487446" lon="25.711552">
        <ele>236.852457</ele>
        <time>2019-06-05T06:20:40.000Z</time>
      </trkpt>
      <trkpt lat="50.487503" lon="25.711424">
        <ele>236.785331</ele>
        <time>2019-06-05T06:20:42.000Z</time>
      </trkpt>
      <trkpt lat="50.487570" lon="25.711306">
        <ele>236.717381</ele>
        <time>2019-06-05T06:20:44.000Z</time>
      </trkpt>
      <trkpt lat="50.487637" lon="25.711180">
        <ele>236.646829</ele>
        <time>2019-06-05T06:20:46.000Z</time>
      </trkpt>
      <trkpt lat="50.487698" lon="25.711050">
        <ele>236.577428</ele>
        <time>2019-06-05T06:20:48.000Z</time>
      </trkpt>
      <trkpt lat="50.487762" lon="25.710930">
        <ele>236.510154</ele>
        <time>2019-06-05T06:20:50.000Z</time>
      </trkpt>
      <trkpt lat="50.487820" lon="25.710817">
        <ele>236.447776</ele>
        <time>2019-06-05T06:20:52.000Z</time>
      </trkpt>
      <trkpt lat="50.487890" lon="25.710703">
        <ele>236.379707</ele>
        <time>2019-06-05T06:20:54.000Z</time>
      </trkpt>
      <trkpt lat="50.487953" lon="25.710590">
        <ele>236.315156</ele>
        <time>2019-06-05T06:20:56.000Z</time>
      </trkpt>
      <trkpt lat="50.488010" lon="25.710463">
        <ele>236.248381</ele>
        <time>2019-06-05T06:20:58.000Z</time>
      </trkpt>
      <trkpt lat="50.488070" lon="25.710340">
        <ele>236.163272</ele>
        <time>2019-06-05T06:21:00.000Z</time>
      </trkpt>
      <trkpt lat="50.488140" lon="25.710213">
        <ele>235.991985</ele>
        <time>2019-06-05T06:21:02.000Z</time>
      </trkpt>
      <trkpt lat="50.488220" lon="25.710073">
        <ele>235.800160</ele>
        <time>2019-06-05T06:21:04.000Z</time>
      </trkpt>
      <trkpt lat="50.488300" lon="25.709938">
        <ele>235.612096</ele>
        <time>2019-06-05T06:21:06.000Z</time>
      </trkpt>
      <trkpt lat="50.488380" lon="25.709797">
        <ele>235.419512</ele>
        <time>2019-06-05T06:21:08.000Z</time>
      </trkpt>
      <trkpt lat="50.488450" lon="25.709667">
        <ele>235.245902</ele>
        <time>2019-06-05T06:21:10.000Z</time>
      </trkpt>
      <trkpt lat="50.488514" lon="25.709550">
        <ele>235.088614</ele>
        <time>2019-06-05T06:21:12.000Z</time>
      </trkpt>
      <trkpt lat="50.488583" lon="25.709425">
        <ele>234.919918</ele>
        <time>2019-06-05T06:21:14.000Z</time>
      </trkpt>
      <trkpt lat="50.488650" lon="25.709297">
        <ele>234.750953</ele>
        <time>2019-06-05T06:21:16.000Z</time>
      </trkpt>
      <trkpt lat="50.488716" lon="25.709162">
        <ele>234.577401</ele>
        <time>2019-06-05T06:21:18.000Z</time>
      </trkpt>
      <trkpt lat="50.488790" lon="25.709028">
        <ele>234.396525</ele>
        <time>2019-06-05T06:21:20.000Z</time>
      </trkpt>
      <trkpt lat="50.488860" lon="25.708900">
        <ele>234.224468</ele>
        <time>2019-06-05T06:21:22.000Z</time>
      </trkpt>
      <trkpt lat="50.488934" lon="25.708767">
        <ele>234.044361</ele>
        <time>2019-06-05T06:21:24.000Z</time>
      </trkpt>
      <trkpt lat="50.489006" lon="25.708622">
        <ele>233.856863</ele>
        <time>2019-06-05T06:21:26.000Z</time>
      </trkpt>
      <trkpt lat="50.489080" lon="25.708490">
        <ele>233.677523</ele>
        <time>2019-06-05T06:21:28.000Z</time>
      </trkpt>
      <trkpt lat="50.489193" lon="25.708273">
        <ele>233.391673</ele>
        <time>2019-06-05T06:21:31.000Z</time>
      </trkpt>
      <trkpt lat="50.489270" lon="25.708132">
        <ele>233.233267</ele>
        <time>2019-06-05T06:21:33.000Z</time>
      </trkpt>
      <trkpt lat="50.489346" lon="25.707996">
        <ele>233.100201</ele>
        <time>2019-06-05T06:21:35.000Z</time>
      </trkpt>
      <trkpt lat="50.489410" lon="25.707860">
        <ele>232.975849</ele>
        <time>2019-06-05T06:21:37.000Z</time>
      </trkpt>
      <trkpt lat="50.489483" lon="25.707724">
        <ele>232.845045</ele>
        <time>2019-06-05T06:21:39.000Z</time>
      </trkpt>
      <trkpt lat="50.489560" lon="25.707579">
        <ele>232.706202</ele>
        <time>2019-06-05T06:21:41.000Z</time>
      </trkpt>
      <trkpt lat="50.489640" lon="25.707447">
        <ele>232.572186</ele>
        <time>2019-06-05T06:21:43.000Z</time>
      </trkpt>
      <trkpt lat="50.489710" lon="25.707298">
        <ele>232.436028</ele>
        <time>2019-06-05T06:21:45.000Z</time>
      </trkpt>
      <trkpt lat="50.489784" lon="25.707169">
        <ele>232.308344</ele>
        <time>2019-06-05T06:21:47.000Z</time>
      </trkpt>
      <trkpt lat="50.489853" lon="25.707031">
        <ele>232.179319</ele>
        <time>2019-06-05T06:21:49.000Z</time>
      </trkpt>
      <trkpt lat="50.489925" lon="25.706886">
        <ele>232.044106</ele>
        <time>2019-06-05T06:21:51.000Z</time>
      </trkpt>
      <trkpt lat="50.490000" lon="25.706753">
        <ele>231.913459</ele>
        <time>2019-06-05T06:21:53.000Z</time>
      </trkpt>
      <trkpt lat="50.490078" lon="25.706606">
        <ele>231.772748</ele>
        <time>2019-06-05T06:21:55.000Z</time>
      </trkpt>
      <trkpt lat="50.490150" lon="25.706465">
        <ele>231.639841</ele>
        <time>2019-06-05T06:21:57.000Z</time>
      </trkpt>
      <trkpt lat="50.490230" lon="25.706318">
        <ele>231.497639</ele>
        <time>2019-06-05T06:21:59.000Z</time>
      </trkpt>
      <trkpt lat="50.490314" lon="25.706175">
        <ele>231.354565</ele>
        <time>2019-06-05T06:22:01.000Z</time>
      </trkpt>
      <trkpt lat="50.490390" lon="25.706032">
        <ele>231.216120</ele>
        <time>2019-06-05T06:22:03.000Z</time>
      </trkpt>
      <trkpt lat="50.490463" lon="25.705885">
        <ele>231.067596</ele>
        <time>2019-06-05T06:22:05.000Z</time>
      </trkpt>
      <trkpt lat="50.490540" lon="25.705753">
        <ele>230.924961</ele>
        <time>2019-06-05T06:22:07.000Z</time>
      </trkpt>
      <trkpt lat="50.490620" lon="25.705631">
        <ele>230.785420</ele>
        <time>2019-06-05T06:22:09.000Z</time>
      </trkpt>
      <trkpt lat="50.490690" lon="25.705507">
        <ele>230.653386</ele>
        <time>2019-06-05T06:22:11.000Z</time>
      </trkpt>
      <trkpt lat="50.490740" lon="25.705390">
        <ele>230.541129</ele>
        <time>2019-06-05T06:22:13.000Z</time>
      </trkpt>
      <trkpt lat="50.490818" lon="25.705257">
        <ele>230.397061</ele>
        <time>2019-06-05T06:22:16.000Z</time>
      </trkpt>
      <trkpt lat="50.490788" lon="25.705390">
        <ele>230.284672</ele>
        <time>2019-06-05T06:22:41.000Z</time>
      </trkpt>
      <trkpt lat="50.490870" lon="25.705470">
        <ele>230.163851</ele>
        <time>2019-06-05T06:23:27.000Z</time>
      </trkpt>
      <trkpt lat="50.490948" lon="25.705560">
        <ele>230.042719</ele>
        <time>2019-06-05T06:23:37.000Z</time>
      </trkpt>
      <trkpt lat="50.491028" lon="25.705645">
        <ele>229.921833</ele>
        <time>2019-06-05T06:32:18.000Z</time>
      </trkpt>
      <trkpt lat="50.491116" lon="25.705692">
        <ele>229.805482</ele>
        <time>2019-06-05T06:44:40.000Z</time>
      </trkpt>
      <trkpt lat="50.491030" lon="25.705606">
        <ele>229.677878</ele>
        <time>2019-06-05T06:44:51.000Z</time>
      </trkpt>
      <trkpt lat="50.490932" lon="25.705675">
        <ele>229.543447</ele>
        <time>2019-06-05T06:45:53.000Z</time>
      </trkpt>
      <trkpt lat="50.490917" lon="25.705534">
        <ele>229.429589</ele>
        <time>2019-06-05T06:50:45.000Z</time>
      </trkpt>
      <trkpt lat="50.490833" lon="25.705421">
        <ele>229.291176</ele>
        <time>2019-06-05T06:50:52.000Z</time>
      </trkpt>
      <trkpt lat="50.490803" lon="25.705288">
        <ele>229.178787</ele>
        <time>2019-06-05T06:50:56.000Z</time>
      </trkpt>
      <trkpt lat="50.490883" lon="25.705149">
        <ele>229.029502</ele>
        <time>2019-06-05T06:51:00.000Z</time>
      </trkpt>
      <trkpt lat="50.490960" lon="25.705029">
        <ele>228.893087</ele>
        <time>2019-06-05T06:51:03.000Z</time>
      </trkpt>
      <trkpt lat="50.491040" lon="25.704876">
        <ele>228.734176</ele>
        <time>2019-06-05T06:51:06.000Z</time>
      </trkpt>
      <trkpt lat="50.491116" lon="25.704712">
        <ele>228.571373</ele>
        <time>2019-06-05T06:51:09.000Z</time>
      </trkpt>
      <trkpt lat="50.491200" lon="25.704554">
        <ele>228.406154</ele>
        <time>2019-06-05T06:51:12.000Z</time>
      </trkpt>
      <trkpt lat="50.491287" lon="25.704409">
        <ele>228.246226</ele>
        <time>2019-06-05T06:51:15.000Z</time>
      </trkpt>
      <trkpt lat="50.491340" lon="25.704288">
        <ele>228.128350</ele>
        <time>2019-06-05T06:51:17.000Z</time>
      </trkpt>
      <trkpt lat="50.491400" lon="25.704172">
        <ele>228.008391</ele>
        <time>2019-06-05T06:51:19.000Z</time>
      </trkpt>
      <trkpt lat="50.491463" lon="25.704052">
        <ele>227.883552</ele>
        <time>2019-06-05T06:51:21.000Z</time>
      </trkpt>
      <trkpt lat="50.491524" lon="25.703936">
        <ele>227.762793</ele>
        <time>2019-06-05T06:51:23.000Z</time>
      </trkpt>
      <trkpt lat="50.491590" lon="25.703808">
        <ele>227.630590</ele>
        <time>2019-06-05T06:51:25.000Z</time>
      </trkpt>
      <trkpt lat="50.491657" lon="25.703674">
        <ele>227.493837</ele>
        <time>2019-06-05T06:51:27.000Z</time>
      </trkpt>
      <trkpt lat="50.491726" lon="25.703558">
        <ele>227.366413</ele>
        <time>2019-06-05T06:51:29.000Z</time>
      </trkpt>
      <trkpt lat="50.491790" lon="25.703428">
        <ele>227.234518</ele>
        <time>2019-06-05T06:51:31.000Z</time>
      </trkpt>
      <trkpt lat="50.491850" lon="25.703306">
        <ele>227.110787</ele>
        <time>2019-06-05T06:51:33.000Z</time>
      </trkpt>
      <trkpt lat="50.491917" lon="25.703175">
        <ele>226.975918</ele>
        <time>2019-06-05T06:51:35.000Z</time>
      </trkpt>
      <trkpt lat="50.491985" lon="25.703041">
        <ele>226.838383</ele>
        <time>2019-06-05T06:51:37.000Z</time>
      </trkpt>
      <trkpt lat="50.492060" lon="25.702898">
        <ele>226.680451</ele>
        <time>2019-06-05T06:51:39.000Z</time>
      </trkpt>
      <trkpt lat="50.492138" lon="25.702734">
        <ele>226.456331</ele>
        <time>2019-06-05T06:51:41.000Z</time>
      </trkpt>
      <trkpt lat="50.492214" lon="25.702574">
        <ele>226.237778</ele>
        <time>2019-06-05T06:51:43.000Z</time>
      </trkpt>
      <trkpt lat="50.492306" lon="25.702406">
        <ele>225.995156</ele>
        <time>2019-06-05T06:51:45.000Z</time>
      </trkpt>
      <trkpt lat="50.492397" lon="25.702230">
        <ele>225.746922</ele>
        <time>2019-06-05T06:51:47.000Z</time>
      </trkpt>
      <trkpt lat="50.492485" lon="25.702055">
        <ele>225.502770</ele>
        <time>2019-06-05T06:51:49.000Z</time>
      </trkpt>
      <trkpt lat="50.492580" lon="25.701889">
        <ele>225.258383</ele>
        <time>2019-06-05T06:51:51.000Z</time>
      </trkpt>
      <trkpt lat="50.492672" lon="25.701712">
        <ele>225.008214</ele>
        <time>2019-06-05T06:51:53.000Z</time>
      </trkpt>
      <trkpt lat="50.492767" lon="25.701530">
        <ele>224.750541</ele>
        <time>2019-06-05T06:51:55.000Z</time>
      </trkpt>
      <trkpt lat="50.492860" lon="25.701340">
        <ele>224.488153</ele>
        <time>2019-06-05T06:51:57.000Z</time>
      </trkpt>
      <trkpt lat="50.492958" lon="25.701166">
        <ele>224.233797</ele>
        <time>2019-06-05T06:51:59.000Z</time>
      </trkpt>
      <trkpt lat="50.493057" lon="25.700989">
        <ele>223.975841</ele>
        <time>2019-06-05T06:52:01.000Z</time>
      </trkpt>
      <trkpt lat="50.493156" lon="25.700808">
        <ele>223.714582</ele>
        <time>2019-06-05T06:52:03.000Z</time>
      </trkpt>
      <trkpt lat="50.493263" lon="25.700630">
        <ele>223.672267</ele>
        <time>2019-06-05T06:52:05.000Z</time>
      </trkpt>
      <trkpt lat="50.493360" lon="25.700447">
        <ele>223.749806</ele>
        <time>2019-06-05T06:52:07.000Z</time>
      </trkpt>
      <trkpt lat="50.493446" lon="25.700274">
        <ele>223.821276</ele>
        <time>2019-06-05T06:52:09.000Z</time>
      </trkpt>
      <trkpt lat="50.493526" lon="25.700120">
        <ele>223.885997</ele>
        <time>2019-06-05T06:52:11.000Z</time>
      </trkpt>
      <trkpt lat="50.493603" lon="25.699968">
        <ele>223.949248</ele>
        <time>2019-06-05T06:52:13.000Z</time>
      </trkpt>
      <trkpt lat="50.493687" lon="25.699820">
        <ele>224.013812</ele>
        <time>2019-06-05T06:52:15.000Z</time>
      </trkpt>
      <trkpt lat="50.493797" lon="25.699598">
        <ele>224.105412</ele>
        <time>2019-06-05T06:52:18.000Z</time>
      </trkpt>
      <trkpt lat="50.493877" lon="25.699460">
        <ele>224.166188</ele>
        <time>2019-06-05T06:52:20.000Z</time>
      </trkpt>
      <trkpt lat="50.493954" lon="25.699322">
        <ele>224.225941</ele>
        <time>2019-06-05T06:52:22.000Z</time>
      </trkpt>
      <trkpt lat="50.494022" lon="25.699192">
        <ele>224.280727</ele>
        <time>2019-06-05T06:52:24.000Z</time>
      </trkpt>
      <trkpt lat="50.494083" lon="25.699060">
        <ele>224.333836</ele>
        <time>2019-06-05T06:52:26.000Z</time>
      </trkpt>
      <trkpt lat="50.494152" lon="25.698938">
        <ele>224.386975</ele>
        <time>2019-06-05T06:52:28.000Z</time>
      </trkpt>
      <trkpt lat="50.494236" lon="25.698770">
        <ele>224.456532</ele>
        <time>2019-06-05T06:52:31.000Z</time>
      </trkpt>
      <trkpt lat="50.494297" lon="25.698658">
        <ele>224.504527</ele>
        <time>2019-06-05T06:52:33.000Z</time>
      </trkpt>
      <trkpt lat="50.494360" lon="25.698538">
        <ele>224.586097</ele>
        <time>2019-06-05T06:52:35.000Z</time>
      </trkpt>
      <trkpt lat="50.494427" lon="25.698431">
        <ele>224.740725</ele>
        <time>2019-06-05T06:52:37.000Z</time>
      </trkpt>
      <trkpt lat="50.494490" lon="25.698310">
        <ele>224.901761</ele>
        <time>2019-06-05T06:52:39.000Z</time>
      </trkpt>
      <trkpt lat="50.494553" lon="25.698195">
        <ele>225.058064</ele>
        <time>2019-06-05T06:52:41.000Z</time>
      </trkpt>
      <trkpt lat="50.494602" lon="25.698074">
        <ele>225.205789</ele>
        <time>2019-06-05T06:52:43.000Z</time>
      </trkpt>
      <trkpt lat="50.494660" lon="25.697958">
        <ele>225.357743</ele>
        <time>2019-06-05T06:52:45.000Z</time>
      </trkpt>
      <trkpt lat="50.494717" lon="25.697847">
        <ele>225.504659</ele>
        <time>2019-06-05T06:52:47.000Z</time>
      </trkpt>
      <trkpt lat="50.494774" lon="25.697725">
        <ele>225.660554</ele>
        <time>2019-06-05T06:52:49.000Z</time>
      </trkpt>
      <trkpt lat="50.494835" lon="25.697615">
        <ele>225.810844</ele>
        <time>2019-06-05T06:52:51.000Z</time>
      </trkpt>
      <trkpt lat="50.494896" lon="25.697495">
        <ele>225.969042</ele>
        <time>2019-06-05T06:52:53.000Z</time>
      </trkpt>
      <trkpt lat="50.494957" lon="25.697376">
        <ele>226.126437</ele>
        <time>2019-06-05T06:52:55.000Z</time>
      </trkpt>
      <trkpt lat="50.495018" lon="25.697258">
        <ele>226.283031</ele>
        <time>2019-06-05T06:52:57.000Z</time>
      </trkpt>
      <trkpt lat="50.495087" lon="25.697140">
        <ele>226.448099</ele>
        <time>2019-06-05T06:52:59.000Z</time>
      </trkpt>
      <trkpt lat="50.495150" lon="25.697027">
        <ele>226.602846</ele>
        <time>2019-06-05T06:53:01.000Z</time>
      </trkpt>
      <trkpt lat="50.495224" lon="25.696901">
        <ele>226.779458</ele>
        <time>2019-06-05T06:53:03.000Z</time>
      </trkpt>
      <trkpt lat="50.495290" lon="25.696783">
        <ele>226.941279</ele>
        <time>2019-06-05T06:53:05.000Z</time>
      </trkpt>
      <trkpt lat="50.495384" lon="25.696602">
        <ele>227.181919</ele>
        <time>2019-06-05T06:53:08.000Z</time>
      </trkpt>
      <trkpt lat="50.495453" lon="25.696476">
        <ele>227.353143</ele>
        <time>2019-06-05T06:53:10.000Z</time>
      </trkpt>
      <trkpt lat="50.495518" lon="25.696350">
        <ele>227.471403</ele>
        <time>2019-06-05T06:53:12.000Z</time>
      </trkpt>
      <trkpt lat="50.495586" lon="25.696217">
        <ele>227.519880</ele>
        <time>2019-06-05T06:53:14.000Z</time>
      </trkpt>
      <trkpt lat="50.495660" lon="25.696077">
        <ele>227.571592</ele>
        <time>2019-06-05T06:53:16.000Z</time>
      </trkpt>
      <trkpt lat="50.495735" lon="25.695934">
        <ele>227.624245</ele>
        <time>2019-06-05T06:53:18.000Z</time>
      </trkpt>
      <trkpt lat="50.495810" lon="25.695793">
        <ele>227.676462</ele>
        <time>2019-06-05T06:53:20.000Z</time>
      </trkpt>
      <trkpt lat="50.495884" lon="25.695656">
        <ele>227.727521</ele>
        <time>2019-06-05T06:53:22.000Z</time>
      </trkpt>
      <trkpt lat="50.495953" lon="25.695524">
        <ele>227.776059</ele>
        <time>2019-06-05T06:53:24.000Z</time>
      </trkpt>
      <trkpt lat="50.496020" lon="25.695389">
        <ele>227.824703</ele>
        <time>2019-06-05T06:53:26.000Z</time>
      </trkpt>
      <trkpt lat="50.496086" lon="25.695261">
        <ele>227.871513</ele>
        <time>2019-06-05T06:53:28.000Z</time>
      </trkpt>
      <trkpt lat="50.496160" lon="25.695127">
        <ele>227.921926</ele>
        <time>2019-06-05T06:53:30.000Z</time>
      </trkpt>
      <trkpt lat="50.496235" lon="25.694996">
        <ele>227.971996</ele>
        <time>2019-06-05T06:53:32.000Z</time>
      </trkpt>
      <trkpt lat="50.496304" lon="25.694870">
        <ele>228.019229</ele>
        <time>2019-06-05T06:53:34.000Z</time>
      </trkpt>
      <trkpt lat="50.496376" lon="25.694738">
        <ele>228.068628</ele>
        <time>2019-06-05T06:53:36.000Z</time>
      </trkpt>
      <trkpt lat="50.496440" lon="25.694614">
        <ele>228.113992</ele>
        <time>2019-06-05T06:53:38.000Z</time>
      </trkpt>
      <trkpt lat="50.496513" lon="25.694477">
        <ele>228.164763</ele>
        <time>2019-06-05T06:53:40.000Z</time>
      </trkpt>
      <trkpt lat="50.496580" lon="25.694345">
        <ele>228.212738</ele>
        <time>2019-06-05T06:53:42.000Z</time>
      </trkpt>
      <trkpt lat="50.496643" lon="25.694218">
        <ele>228.261505</ele>
        <time>2019-06-05T06:53:44.000Z</time>
      </trkpt>
      <trkpt lat="50.496716" lon="25.694086">
        <ele>228.373342</ele>
        <time>2019-06-05T06:53:46.000Z</time>
      </trkpt>
      <trkpt lat="50.496780" lon="25.693956">
        <ele>228.478449</ele>
        <time>2019-06-05T06:53:48.000Z</time>
      </trkpt>
      <trkpt lat="50.496840" lon="25.693836">
        <ele>228.576042</ele>
        <time>2019-06-05T06:53:50.000Z</time>
      </trkpt>
      <trkpt lat="50.496918" lon="25.693716">
        <ele>228.685741</ele>
        <time>2019-06-05T06:53:52.000Z</time>
      </trkpt>
      <trkpt lat="50.496983" lon="25.693592">
        <ele>228.788478</ele>
        <time>2019-06-05T06:53:54.000Z</time>
      </trkpt>
      <trkpt lat="50.497040" lon="25.693480">
        <ele>228.880189</ele>
        <time>2019-06-05T06:53:56.000Z</time>
      </trkpt>
      <trkpt lat="50.497097" lon="25.693365">
        <ele>228.973405</ele>
        <time>2019-06-05T06:53:58.000Z</time>
      </trkpt>
      <trkpt lat="50.497154" lon="25.693249">
        <ele>229.067126</ele>
        <time>2019-06-05T06:54:00.000Z</time>
      </trkpt>
      <trkpt lat="50.497242" lon="25.693087">
        <ele>229.203336</ele>
        <time>2019-06-05T06:54:03.000Z</time>
      </trkpt>
      <trkpt lat="50.497334" lon="25.692924">
        <ele>229.342668</ele>
        <time>2019-06-05T06:54:06.000Z</time>
      </trkpt>
      <trkpt lat="50.497395" lon="25.692810">
        <ele>229.437918</ele>
        <time>2019-06-05T06:54:08.000Z</time>
      </trkpt>
      <trkpt lat="50.497482" lon="25.692636">
        <ele>229.579426</ele>
        <time>2019-06-05T06:54:11.000Z</time>
      </trkpt>
      <trkpt lat="50.497543" lon="25.692509">
        <ele>229.681177</ele>
        <time>2019-06-05T06:54:13.000Z</time>
      </trkpt>
      <trkpt lat="50.497610" lon="25.692387">
        <ele>229.784231</ele>
        <time>2019-06-05T06:54:15.000Z</time>
      </trkpt>
      <trkpt lat="50.497670" lon="25.692268">
        <ele>229.881321</ele>
        <time>2019-06-05T06:54:17.000Z</time>
      </trkpt>
      <trkpt lat="50.497734" lon="25.692142">
        <ele>229.984417</ele>
        <time>2019-06-05T06:54:19.000Z</time>
      </trkpt>
      <trkpt lat="50.497795" lon="25.692019">
        <ele>230.070133</ele>
        <time>2019-06-05T06:54:21.000Z</time>
      </trkpt>
      <trkpt lat="50.497860" lon="25.691895">
        <ele>230.101447</ele>
        <time>2019-06-05T06:54:23.000Z</time>
      </trkpt>
      <trkpt lat="50.497920" lon="25.691774">
        <ele>230.131347</ele>
        <time>2019-06-05T06:54:25.000Z</time>
      </trkpt>
      <trkpt lat="50.497986" lon="25.691654">
        <ele>230.162264</ele>
        <time>2019-06-05T06:54:27.000Z</time>
      </trkpt>
      <trkpt lat="50.498055" lon="25.691532">
        <ele>230.194079</ele>
        <time>2019-06-05T06:54:29.000Z</time>
      </trkpt>
      <trkpt lat="50.498127" lon="25.691402">
        <ele>230.227672</ele>
        <time>2019-06-05T06:54:31.000Z</time>
      </trkpt>
      <trkpt lat="50.498196" lon="25.691277">
        <ele>230.259927</ele>
        <time>2019-06-05T06:54:33.000Z</time>
      </trkpt>
      <trkpt lat="50.498264" lon="25.691150">
        <ele>230.292279</ele>
        <time>2019-06-05T06:54:35.000Z</time>
      </trkpt>
      <trkpt lat="50.498333" lon="25.691017">
        <ele>230.325726</ele>
        <time>2019-06-05T06:54:37.000Z</time>
      </trkpt>
      <trkpt lat="50.498400" lon="25.690890">
        <ele>230.357882</ele>
        <time>2019-06-05T06:54:39.000Z</time>
      </trkpt>
      <trkpt lat="50.498470" lon="25.690758">
        <ele>230.391374</ele>
        <time>2019-06-05T06:54:41.000Z</time>
      </trkpt>
      <trkpt lat="50.498540" lon="25.690626">
        <ele>230.424866</ele>
        <time>2019-06-05T06:54:43.000Z</time>
      </trkpt>
      <trkpt lat="50.498610" lon="25.690485">
        <ele>230.459724</ele>
        <time>2019-06-05T06:54:45.000Z</time>
      </trkpt>
      <trkpt lat="50.498684" lon="25.690348">
        <ele>230.494750</ele>
        <time>2019-06-05T06:54:47.000Z</time>
      </trkpt>
      <trkpt lat="50.498756" lon="25.690210">
        <ele>230.529534</ele>
        <time>2019-06-05T06:54:49.000Z</time>
      </trkpt>
      <trkpt lat="50.498833" lon="25.690075">
        <ele>230.564871</ele>
        <time>2019-06-05T06:54:51.000Z</time>
      </trkpt>
      <trkpt lat="50.498910" lon="25.689938">
        <ele>230.600500</ele>
        <time>2019-06-05T06:54:53.000Z</time>
      </trkpt>
      <trkpt lat="50.498980" lon="25.689793">
        <ele>230.660242</ele>
        <time>2019-06-05T06:54:55.000Z</time>
      </trkpt>
      <trkpt lat="50.499058" lon="25.689655">
        <ele>230.737957</ele>
        <time>2019-06-05T06:54:57.000Z</time>
      </trkpt>
      <trkpt lat="50.499130" lon="25.689524">
        <ele>230.810838</ele>
        <time>2019-06-05T06:54:59.000Z</time>
      </trkpt>
      <trkpt lat="50.499207" lon="25.689384">
        <ele>230.888750</ele>
        <time>2019-06-05T06:55:01.000Z</time>
      </trkpt>
      <trkpt lat="50.499280" lon="25.689249">
        <ele>230.963340</ele>
        <time>2019-06-05T06:55:03.000Z</time>
      </trkpt>
      <trkpt lat="50.499348" lon="25.689106">
        <ele>231.038500</ele>
        <time>2019-06-05T06:55:05.000Z</time>
      </trkpt>
      <trkpt lat="50.499454" lon="25.688902">
        <ele>231.149387</ele>
        <time>2019-06-05T06:55:08.000Z</time>
      </trkpt>
      <trkpt lat="50.499527" lon="25.688765">
        <ele>231.224621</ele>
        <time>2019-06-05T06:55:10.000Z</time>
      </trkpt>
      <trkpt lat="50.499603" lon="25.688625">
        <ele>231.302101</ele>
        <time>2019-06-05T06:55:12.000Z</time>
      </trkpt>
      <trkpt lat="50.499676" lon="25.688486">
        <ele>231.377982</ele>
        <time>2019-06-05T06:55:14.000Z</time>
      </trkpt>
      <trkpt lat="50.499750" lon="25.688343">
        <ele>231.455584</ele>
        <time>2019-06-05T06:55:16.000Z</time>
      </trkpt>
      <trkpt lat="50.499825" lon="25.688206">
        <ele>231.531674</ele>
        <time>2019-06-05T06:55:18.000Z</time>
      </trkpt>
      <trkpt lat="50.499900" lon="25.688065">
        <ele>231.609048</ele>
        <time>2019-06-05T06:55:20.000Z</time>
      </trkpt>
      <trkpt lat="50.499977" lon="25.687925">
        <ele>231.686959</ele>
        <time>2019-06-05T06:55:22.000Z</time>
      </trkpt>
      <trkpt lat="50.500050" lon="25.687782">
        <ele>231.764145</ele>
        <time>2019-06-05T06:55:24.000Z</time>
      </trkpt>
      <trkpt lat="50.500130" lon="25.687637">
        <ele>231.861971</ele>
        <time>2019-06-05T06:55:26.000Z</time>
      </trkpt>
      <trkpt lat="50.500206" lon="25.687496">
        <ele>231.973270</ele>
        <time>2019-06-05T06:55:28.000Z</time>
      </trkpt>
      <trkpt lat="50.500280" lon="25.687359">
        <ele>232.081506</ele>
        <time>2019-06-05T06:55:30.000Z</time>
      </trkpt>
      <trkpt lat="50.500350" lon="25.687218">
        <ele>232.189219</ele>
        <time>2019-06-05T06:55:32.000Z</time>
      </trkpt>
      <trkpt lat="50.500427" lon="25.687077">
        <ele>232.301132</ele>
        <time>2019-06-05T06:55:34.000Z</time>
      </trkpt>
      <trkpt lat="50.500504" lon="25.686935">
        <ele>232.413502</ele>
        <time>2019-06-05T06:55:36.000Z</time>
      </trkpt>
      <trkpt lat="50.500580" lon="25.686789">
        <ele>232.527114</ele>
        <time>2019-06-05T06:55:38.000Z</time>
      </trkpt>
      <trkpt lat="50.500652" lon="25.686650">
        <ele>232.635065</ele>
        <time>2019-06-05T06:55:40.000Z</time>
      </trkpt>
      <trkpt lat="50.500730" lon="25.686502">
        <ele>232.750810</ele>
        <time>2019-06-05T06:55:42.000Z</time>
      </trkpt>
      <trkpt lat="50.500805" lon="25.686356">
        <ele>232.863824</ele>
        <time>2019-06-05T06:55:44.000Z</time>
      </trkpt>
      <trkpt lat="50.500880" lon="25.686214">
        <ele>232.974975</ele>
        <time>2019-06-05T06:55:46.000Z</time>
      </trkpt>
      <trkpt lat="50.500960" lon="25.686066">
        <ele>233.091937</ele>
        <time>2019-06-05T06:55:48.000Z</time>
      </trkpt>
      <trkpt lat="50.501034" lon="25.685923">
        <ele>233.202951</ele>
        <time>2019-06-05T06:55:50.000Z</time>
      </trkpt>
      <trkpt lat="50.501110" lon="25.685778">
        <ele>233.316097</ele>
        <time>2019-06-05T06:55:52.000Z</time>
      </trkpt>
      <trkpt lat="50.501183" lon="25.685642">
        <ele>233.423261</ele>
        <time>2019-06-05T06:55:54.000Z</time>
      </trkpt>
      <trkpt lat="50.501250" lon="25.685503">
        <ele>233.532351</ele>
        <time>2019-06-05T06:55:56.000Z</time>
      </trkpt>
      <trkpt lat="50.501328" lon="25.685362">
        <ele>233.667755</ele>
        <time>2019-06-05T06:55:58.000Z</time>
      </trkpt>
      <trkpt lat="50.501400" lon="25.685228">
        <ele>233.794860</ele>
        <time>2019-06-05T06:56:00.000Z</time>
      </trkpt>
      <trkpt lat="50.501470" lon="25.685091">
        <ele>233.922194</ele>
        <time>2019-06-05T06:56:02.000Z</time>
      </trkpt>
      <trkpt lat="50.501534" lon="25.684958">
        <ele>234.043039</ele>
        <time>2019-06-05T06:56:04.000Z</time>
      </trkpt>
      <trkpt lat="50.501610" lon="25.684830">
        <ele>234.169919</ele>
        <time>2019-06-05T06:56:06.000Z</time>
      </trkpt>
      <trkpt lat="50.501680" lon="25.684696">
        <ele>234.295565</ele>
        <time>2019-06-05T06:56:08.000Z</time>
      </trkpt>
      <trkpt lat="50.501747" lon="25.684560">
        <ele>234.420213</ele>
        <time>2019-06-05T06:56:10.000Z</time>
      </trkpt>
      <trkpt lat="50.501816" lon="25.684427">
        <ele>234.544576</ele>
        <time>2019-06-05T06:56:12.000Z</time>
      </trkpt>
      <trkpt lat="50.501892" lon="25.684296">
        <ele>234.673053</ele>
        <time>2019-06-05T06:56:14.000Z</time>
      </trkpt>
      <trkpt lat="50.501970" lon="25.684164">
        <ele>234.803607</ele>
        <time>2019-06-05T06:56:16.000Z</time>
      </trkpt>
      <trkpt lat="50.502040" lon="25.684029">
        <ele>234.929813</ele>
        <time>2019-06-05T06:56:18.000Z</time>
      </trkpt>
      <trkpt lat="50.502117" lon="25.683887">
        <ele>235.065022</ele>
        <time>2019-06-05T06:56:20.000Z</time>
      </trkpt>
      <trkpt lat="50.502186" lon="25.683744">
        <ele>235.195081</ele>
        <time>2019-06-05T06:56:22.000Z</time>
      </trkpt>
      <trkpt lat="50.502260" lon="25.683601">
        <ele>235.328659</ele>
        <time>2019-06-05T06:56:24.000Z</time>
      </trkpt>
      <trkpt lat="50.502327" lon="25.683472">
        <ele>235.449336</ele>
        <time>2019-06-05T06:56:26.000Z</time>
      </trkpt>
      <trkpt lat="50.502400" lon="25.683334">
        <ele>235.569812</ele>
        <time>2019-06-05T06:56:28.000Z</time>
      </trkpt>
      <trkpt lat="50.502476" lon="25.683199">
        <ele>235.643734</ele>
        <time>2019-06-05T06:56:30.000Z</time>
      </trkpt>
      <trkpt lat="50.502544" lon="25.683058">
        <ele>235.716289</ele>
        <time>2019-06-05T06:56:32.000Z</time>
      </trkpt>
      <trkpt lat="50.502613" lon="25.682934">
        <ele>235.783844</ele>
        <time>2019-06-05T06:56:34.000Z</time>
      </trkpt>
      <trkpt lat="50.502680" lon="25.682806">
        <ele>235.851816</ele>
        <time>2019-06-05T06:56:36.000Z</time>
      </trkpt>
      <trkpt lat="50.502747" lon="25.682682">
        <ele>235.918530</ele>
        <time>2019-06-05T06:56:38.000Z</time>
      </trkpt>
      <trkpt lat="50.502810" lon="25.682550">
        <ele>235.986197</ele>
        <time>2019-06-05T06:56:40.000Z</time>
      </trkpt>
      <trkpt lat="50.502884" lon="25.682413">
        <ele>236.059894</ele>
        <time>2019-06-05T06:56:42.000Z</time>
      </trkpt>
      <trkpt lat="50.502953" lon="25.682281">
        <ele>236.129951</ele>
        <time>2019-06-05T06:56:44.000Z</time>
      </trkpt>
      <trkpt lat="50.503017" lon="25.682150">
        <ele>236.197682</ele>
        <time>2019-06-05T06:56:46.000Z</time>
      </trkpt>
      <trkpt lat="50.503086" lon="25.682020">
        <ele>236.267107</ele>
        <time>2019-06-05T06:56:48.000Z</time>
      </trkpt>
      <trkpt lat="50.503150" lon="25.681889">
        <ele>236.334838</ele>
        <time>2019-06-05T06:56:50.000Z</time>
      </trkpt>
      <trkpt lat="50.503220" lon="25.681763">
        <ele>236.403434</ele>
        <time>2019-06-05T06:56:52.000Z</time>
      </trkpt>
      <trkpt lat="50.503284" lon="25.681643">
        <ele>236.467646</ele>
        <time>2019-06-05T06:56:54.000Z</time>
      </trkpt>
      <trkpt lat="50.503340" lon="25.681524">
        <ele>236.528343</ele>
        <time>2019-06-05T06:56:56.000Z</time>
      </trkpt>
      <trkpt lat="50.503407" lon="25.681416">
        <ele>236.590202</ele>
        <time>2019-06-05T06:56:58.000Z</time>
      </trkpt>
      <trkpt lat="50.503468" lon="25.681295">
        <ele>236.653509</ele>
        <time>2019-06-05T06:57:00.000Z</time>
      </trkpt>
      <trkpt lat="50.503530" lon="25.681181">
        <ele>236.715011</ele>
        <time>2019-06-05T06:57:02.000Z</time>
      </trkpt>
      <trkpt lat="50.503613" lon="25.681034">
        <ele>236.752393</ele>
        <time>2019-06-05T06:57:05.000Z</time>
      </trkpt>
      <trkpt lat="50.503700" lon="25.680874">
        <ele>236.791352</ele>
        <time>2019-06-05T06:57:08.000Z</time>
      </trkpt>
      <trkpt lat="50.503760" lon="25.680752">
        <ele>236.819894</ele>
        <time>2019-06-05T06:57:10.000Z</time>
      </trkpt>
      <trkpt lat="50.503826" lon="25.680628">
        <ele>236.849819</ele>
        <time>2019-06-05T06:57:12.000Z</time>
      </trkpt>
      <trkpt lat="50.503895" lon="25.680498">
        <ele>236.881156</ele>
        <time>2019-06-05T06:57:14.000Z</time>
      </trkpt>
      <trkpt lat="50.503975" lon="25.680365">
        <ele>236.915036</ele>
        <time>2019-06-05T06:57:16.000Z</time>
      </trkpt>
      <trkpt lat="50.504044" lon="25.680237">
        <ele>236.946089</ele>
        <time>2019-06-05T06:57:18.000Z</time>
      </trkpt>
      <trkpt lat="50.504112" lon="25.680107">
        <ele>236.977241</ele>
        <time>2019-06-05T06:57:20.000Z</time>
      </trkpt>
      <trkpt lat="50.504177" lon="25.679974">
        <ele>237.008284</ele>
        <time>2019-06-05T06:57:22.000Z</time>
      </trkpt>
      <trkpt lat="50.504242" lon="25.679850">
        <ele>237.038023</ele>
        <time>2019-06-05T06:57:24.000Z</time>
      </trkpt>
      <trkpt lat="50.504310" lon="25.679718">
        <ele>237.069461</ele>
        <time>2019-06-05T06:57:26.000Z</time>
      </trkpt>
      <trkpt lat="50.504375" lon="25.679588">
        <ele>237.100065</ele>
        <time>2019-06-05T06:57:28.000Z</time>
      </trkpt>
      <trkpt lat="50.504440" lon="25.679464">
        <ele>237.129804</ele>
        <time>2019-06-05T06:57:30.000Z</time>
      </trkpt>
      <trkpt lat="50.504510" lon="25.679342">
        <ele>237.160213</ele>
        <time>2019-06-05T06:57:32.000Z</time>
      </trkpt>
      <trkpt lat="50.504578" lon="25.679210">
        <ele>237.191651</ele>
        <time>2019-06-05T06:57:34.000Z</time>
      </trkpt>
      <trkpt lat="50.504650" lon="25.679080">
        <ele>237.223555</ele>
        <time>2019-06-05T06:57:36.000Z</time>
      </trkpt>
      <trkpt lat="50.504723" lon="25.678951">
        <ele>237.281264</ele>
        <time>2019-06-05T06:57:38.000Z</time>
      </trkpt>
      <trkpt lat="50.504787" lon="25.678823">
        <ele>237.362154</ele>
        <time>2019-06-05T06:57:40.000Z</time>
      </trkpt>
      <trkpt lat="50.504852" lon="25.678696">
        <ele>237.443141</ele>
        <time>2019-06-05T06:57:42.000Z</time>
      </trkpt>
      <trkpt lat="50.504917" lon="25.678566">
        <ele>237.525295</ele>
        <time>2019-06-05T06:57:44.000Z</time>
      </trkpt>
      <trkpt lat="50.504986" lon="25.678438">
        <ele>237.608655</ele>
        <time>2019-06-05T06:57:46.000Z</time>
      </trkpt>
      <trkpt lat="50.505060" lon="25.678310">
        <ele>237.694592</ele>
        <time>2019-06-05T06:57:48.000Z</time>
      </trkpt>
      <trkpt lat="50.505123" lon="25.678175">
        <ele>237.777778</ele>
        <time>2019-06-05T06:57:50.000Z</time>
      </trkpt>
      <trkpt lat="50.505184" lon="25.678045">
        <ele>237.858038</ele>
        <time>2019-06-05T06:57:52.000Z</time>
      </trkpt>
      <trkpt lat="50.505250" lon="25.677917">
        <ele>237.939902</ele>
        <time>2019-06-05T06:57:54.000Z</time>
      </trkpt>
      <trkpt lat="50.505314" lon="25.677788">
        <ele>238.021183</ele>
        <time>2019-06-05T06:57:56.000Z</time>
      </trkpt>
      <trkpt lat="50.505380" lon="25.677668">
        <ele>238.099999</ele>
        <time>2019-06-05T06:57:58.000Z</time>
      </trkpt>
      <trkpt lat="50.505447" lon="25.677546">
        <ele>238.180078</ele>
        <time>2019-06-05T06:58:00.000Z</time>
      </trkpt>
      <trkpt lat="50.505512" lon="25.677423">
        <ele>238.259526</ele>
        <time>2019-06-05T06:58:02.000Z</time>
      </trkpt>
      <trkpt lat="50.505596" lon="25.677277">
        <ele>238.357334</ele>
        <time>2019-06-05T06:58:05.000Z</time>
      </trkpt>
      <trkpt lat="50.505688" lon="25.677114">
        <ele>238.465603</ele>
        <time>2019-06-05T06:58:08.000Z</time>
      </trkpt>
      <trkpt lat="50.505750" lon="25.676998">
        <ele>238.540879</ele>
        <time>2019-06-05T06:58:10.000Z</time>
      </trkpt>
      <trkpt lat="50.505814" lon="25.676870">
        <ele>238.621768</ele>
        <time>2019-06-05T06:58:12.000Z</time>
      </trkpt>
      <trkpt lat="50.505875" lon="25.676739">
        <ele>238.753598</ele>
        <time>2019-06-05T06:58:14.000Z</time>
      </trkpt>
      <trkpt lat="50.505940" lon="25.676605">
        <ele>238.912184</ele>
        <time>2019-06-05T06:58:16.000Z</time>
      </trkpt>
      <trkpt lat="50.506000" lon="25.676472">
        <ele>239.065628</ele>
        <time>2019-06-05T06:58:18.000Z</time>
      </trkpt>
      <trkpt lat="50.506070" lon="25.676338">
        <ele>239.228806</ele>
        <time>2019-06-05T06:58:20.000Z</time>
      </trkpt>
      <trkpt lat="50.506140" lon="25.676216">
        <ele>239.383425</ele>
        <time>2019-06-05T06:58:22.000Z</time>
      </trkpt>
      <trkpt lat="50.506210" lon="25.676104">
        <ele>239.531191</ele>
        <time>2019-06-05T06:58:24.000Z</time>
      </trkpt>
      <trkpt lat="50.506280" lon="25.675978">
        <ele>239.688624</ele>
        <time>2019-06-05T06:58:26.000Z</time>
      </trkpt>
      <trkpt lat="50.506344" lon="25.675850">
        <ele>239.841839</ele>
        <time>2019-06-05T06:58:28.000Z</time>
      </trkpt>
      <trkpt lat="50.506410" lon="25.675720">
        <ele>239.998367</ele>
        <time>2019-06-05T06:58:30.000Z</time>
      </trkpt>
      <trkpt lat="50.506477" lon="25.675592">
        <ele>240.154365</ele>
        <time>2019-06-05T06:58:32.000Z</time>
      </trkpt>
      <trkpt lat="50.506542" lon="25.675467">
        <ele>240.306303</ele>
        <time>2019-06-05T06:58:34.000Z</time>
      </trkpt>
      <trkpt lat="50.506610" lon="25.675335">
        <ele>240.466151</ele>
        <time>2019-06-05T06:58:36.000Z</time>
      </trkpt>
      <trkpt lat="50.506680" lon="25.675210">
        <ele>240.622876</ele>
        <time>2019-06-05T06:58:38.000Z</time>
      </trkpt>
      <trkpt lat="50.506744" lon="25.675083">
        <ele>240.775352</ele>
        <time>2019-06-05T06:58:40.000Z</time>
      </trkpt>
      <trkpt lat="50.506810" lon="25.674955">
        <ele>240.930413</ele>
        <time>2019-06-05T06:58:42.000Z</time>
      </trkpt>
      <trkpt lat="50.506874" lon="25.674835">
        <ele>241.077782</ele>
        <time>2019-06-05T06:58:44.000Z</time>
      </trkpt>
      <trkpt lat="50.506947" lon="25.674711">
        <ele>241.236783</ele>
        <time>2019-06-05T06:58:46.000Z</time>
      </trkpt>
      <trkpt lat="50.507008" lon="25.674591">
        <ele>241.450232</ele>
        <time>2019-06-05T06:58:48.000Z</time>
      </trkpt>
      <trkpt lat="50.507070" lon="25.674484">
        <ele>241.711751</ele>
        <time>2019-06-05T06:58:50.000Z</time>
      </trkpt>
      <trkpt lat="50.507130" lon="25.674372">
        <ele>241.976320</ele>
        <time>2019-06-05T06:58:52.000Z</time>
      </trkpt>
      <trkpt lat="50.507183" lon="25.674255">
        <ele>242.235840</ele>
        <time>2019-06-05T06:58:54.000Z</time>
      </trkpt>
      <trkpt lat="50.507248" lon="25.674131">
        <ele>242.526157</ele>
        <time>2019-06-05T06:58:56.000Z</time>
      </trkpt>
      <trkpt lat="50.507310" lon="25.674013">
        <ele>242.802690</ele>
        <time>2019-06-05T06:58:58.000Z</time>
      </trkpt>
      <trkpt lat="50.507374" lon="25.673897">
        <ele>243.080135</ele>
        <time>2019-06-05T06:59:00.000Z</time>
      </trkpt>
      <trkpt lat="50.507450" lon="25.673742">
        <ele>243.433732</ele>
        <time>2019-06-05T06:59:03.000Z</time>
      </trkpt>
      <trkpt lat="50.507526" lon="25.673582">
        <ele>243.794526</ele>
        <time>2019-06-05T06:59:06.000Z</time>
      </trkpt>
      <trkpt lat="50.507603" lon="25.673426">
        <ele>244.151290</ele>
        <time>2019-06-05T06:59:09.000Z</time>
      </trkpt>
      <trkpt lat="50.507690" lon="25.673288">
        <ele>244.502348</ele>
        <time>2019-06-05T06:59:12.000Z</time>
      </trkpt>
      <trkpt lat="50.507782" lon="25.673138">
        <ele>244.878838</ele>
        <time>2019-06-05T06:59:15.000Z</time>
      </trkpt>
      <trkpt lat="50.507860" lon="25.672981">
        <ele>245.238771</ele>
        <time>2019-06-05T06:59:18.000Z</time>
      </trkpt>
      <trkpt lat="50.507940" lon="25.672827">
        <ele>245.598016</ele>
        <time>2019-06-05T06:59:21.000Z</time>
      </trkpt>
      <trkpt lat="50.508026" lon="25.672674">
        <ele>245.966923</ele>
        <time>2019-06-05T06:59:24.000Z</time>
      </trkpt>
      <trkpt lat="50.508110" lon="25.672522">
        <ele>246.330725</ele>
        <time>2019-06-05T06:59:27.000Z</time>
      </trkpt>
      <trkpt lat="50.508190" lon="25.672375">
        <ele>246.643069</ele>
        <time>2019-06-05T06:59:30.000Z</time>
      </trkpt>
      <trkpt lat="50.508247" lon="25.672264">
        <ele>246.864538</ele>
        <time>2019-06-05T06:59:32.000Z</time>
      </trkpt>
      <trkpt lat="50.508330" lon="25.672121">
        <ele>247.165076</ele>
        <time>2019-06-05T06:59:35.000Z</time>
      </trkpt>
      <trkpt lat="50.508408" lon="25.671970">
        <ele>247.467059</ele>
        <time>2019-06-05T06:59:38.000Z</time>
      </trkpt>
      <trkpt lat="50.508488" lon="25.671816">
        <ele>247.775737</ele>
        <time>2019-06-05T06:59:41.000Z</time>
      </trkpt>
      <trkpt lat="50.508564" lon="25.671679">
        <ele>248.057947</ele>
        <time>2019-06-05T06:59:44.000Z</time>
      </trkpt>
      <trkpt lat="50.508648" lon="25.671526">
        <ele>248.371714</ele>
        <time>2019-06-05T06:59:47.000Z</time>
      </trkpt>
      <trkpt lat="50.508720" lon="25.671358">
        <ele>248.686197</ele>
        <time>2019-06-05T06:59:50.000Z</time>
      </trkpt>
      <trkpt lat="50.508797" lon="25.671213">
        <ele>248.979437</ele>
        <time>2019-06-05T06:59:53.000Z</time>
      </trkpt>
      <trkpt lat="50.508873" lon="25.671060">
        <ele>249.280806</ele>
        <time>2019-06-05T06:59:56.000Z</time>
      </trkpt>
      <trkpt lat="50.508953" lon="25.670904">
        <ele>249.591892</ele>
        <time>2019-06-05T06:59:59.000Z</time>
      </trkpt>
      <trkpt lat="50.509040" lon="25.670748">
        <ele>249.913978</ele>
        <time>2019-06-05T07:00:02.000Z</time>
      </trkpt>
      <trkpt lat="50.509117" lon="25.670610">
        <ele>250.198962</ele>
        <time>2019-06-05T07:00:05.000Z</time>
      </trkpt>
      <trkpt lat="50.509193" lon="25.670467">
        <ele>250.488254</ele>
        <time>2019-06-05T07:00:08.000Z</time>
      </trkpt>
      <trkpt lat="50.509270" lon="25.670315">
        <ele>250.789914</ele>
        <time>2019-06-05T07:00:11.000Z</time>
      </trkpt>
      <trkpt lat="50.509357" lon="25.670164">
        <ele>250.973853</ele>
        <time>2019-06-05T07:00:14.000Z</time>
      </trkpt>
      <trkpt lat="50.509445" lon="25.670004">
        <ele>251.157289</ele>
        <time>2019-06-05T07:00:17.000Z</time>
      </trkpt>
      <trkpt lat="50.509506" lon="25.669886">
        <ele>251.289156</ele>
        <time>2019-06-05T07:00:19.000Z</time>
      </trkpt>
      <trkpt lat="50.509563" lon="25.669771">
        <ele>251.415591</ele>
        <time>2019-06-05T07:00:21.000Z</time>
      </trkpt>
      <trkpt lat="50.509624" lon="25.669655">
        <ele>251.546117</ele>
        <time>2019-06-05T07:00:23.000Z</time>
      </trkpt>
      <trkpt lat="50.509693" lon="25.669530">
        <ele>251.689649</ele>
        <time>2019-06-05T07:00:25.000Z</time>
      </trkpt>
      <trkpt lat="50.509758" lon="25.669407">
        <ele>251.828329</ele>
        <time>2019-06-05T07:00:27.000Z</time>
      </trkpt>
      <trkpt lat="50.509827" lon="25.669277">
        <ele>251.975163</ele>
        <time>2019-06-05T07:00:29.000Z</time>
      </trkpt>
      <trkpt lat="50.509895" lon="25.669150">
        <ele>252.119128</ele>
        <time>2019-06-05T07:00:31.000Z</time>
      </trkpt>
      <trkpt lat="50.509960" lon="25.669031">
        <ele>252.255157</ele>
        <time>2019-06-05T07:00:33.000Z</time>
      </trkpt>
      <trkpt lat="50.510020" lon="25.668907">
        <ele>252.390270</ele>
        <time>2019-06-05T07:00:35.000Z</time>
      </trkpt>
      <trkpt lat="50.510086" lon="25.668781">
        <ele>252.531823</ele>
        <time>2019-06-05T07:00:37.000Z</time>
      </trkpt>
      <trkpt lat="50.510155" lon="25.668663">
        <ele>252.670828</ele>
        <time>2019-06-05T07:00:39.000Z</time>
      </trkpt>
      <trkpt lat="50.510210" lon="25.668540">
        <ele>252.801214</ele>
        <time>2019-06-05T07:00:41.000Z</time>
      </trkpt>
      <trkpt lat="50.510270" lon="25.668411">
        <ele>252.939802</ele>
        <time>2019-06-05T07:00:43.000Z</time>
      </trkpt>
      <trkpt lat="50.510330" lon="25.668287">
        <ele>253.074915</ele>
        <time>2019-06-05T07:00:45.000Z</time>
      </trkpt>
      <trkpt lat="50.510406" lon="25.668175">
        <ele>253.216942</ele>
        <time>2019-06-05T07:00:47.000Z</time>
      </trkpt>
      <trkpt lat="50.510470" lon="25.668058">
        <ele>253.365425</ele>
        <time>2019-06-05T07:00:49.000Z</time>
      </trkpt>
      <trkpt lat="50.510532" lon="25.667942">
        <ele>253.517791</ele>
        <time>2019-06-05T07:00:51.000Z</time>
      </trkpt>
      <trkpt lat="50.510593" lon="25.667818">
        <ele>253.675427</ele>
        <time>2019-06-05T07:00:53.000Z</time>
      </trkpt>
      <trkpt lat="50.510662" lon="25.667700">
        <ele>253.836613</ele>
        <time>2019-06-05T07:00:55.000Z</time>
      </trkpt>
      <trkpt lat="50.510723" lon="25.667578">
        <ele>253.992663</ele>
        <time>2019-06-05T07:00:57.000Z</time>
      </trkpt>
      <trkpt lat="50.510788" lon="25.667454">
        <ele>254.154245</ele>
        <time>2019-06-05T07:00:59.000Z</time>
      </trkpt>
      <trkpt lat="50.510850" lon="25.667332">
        <ele>254.311277</ele>
        <time>2019-06-05T07:01:01.000Z</time>
      </trkpt>
      <trkpt lat="50.510914" lon="25.667217">
        <ele>254.464938</ele>
        <time>2019-06-05T07:01:03.000Z</time>
      </trkpt>
      <trkpt lat="50.510975" lon="25.667095">
        <ele>254.620987</ele>
        <time>2019-06-05T07:01:05.000Z</time>
      </trkpt>
      <trkpt lat="50.511032" lon="25.666970">
        <ele>254.775649</ele>
        <time>2019-06-05T07:01:07.000Z</time>
      </trkpt>
      <trkpt lat="50.511097" lon="25.666847">
        <ele>254.936457</ele>
        <time>2019-06-05T07:01:09.000Z</time>
      </trkpt>
      <trkpt lat="50.511160" lon="25.666729">
        <ele>255.091378</ele>
        <time>2019-06-05T07:01:11.000Z</time>
      </trkpt>
      <trkpt lat="50.511230" lon="25.666607">
        <ele>255.256602</ele>
        <time>2019-06-05T07:01:13.000Z</time>
      </trkpt>
      <trkpt lat="50.511290" lon="25.666489">
        <ele>255.408516</ele>
        <time>2019-06-05T07:01:15.000Z</time>
      </trkpt>
      <trkpt lat="50.511356" lon="25.666360">
        <ele>255.574994</ele>
        <time>2019-06-05T07:01:17.000Z</time>
      </trkpt>
      <trkpt lat="50.511414" lon="25.666233">
        <ele>255.732212</ele>
        <time>2019-06-05T07:01:19.000Z</time>
      </trkpt>
      <trkpt lat="50.511486" lon="25.666113">
        <ele>255.898101</ele>
        <time>2019-06-05T07:01:21.000Z</time>
      </trkpt>
      <trkpt lat="50.511555" lon="25.665989">
        <ele>256.063777</ele>
        <time>2019-06-05T07:01:23.000Z</time>
      </trkpt>
      <trkpt lat="50.511612" lon="25.665865">
        <ele>256.071694</ele>
        <time>2019-06-05T07:01:25.000Z</time>
      </trkpt>
      <trkpt lat="50.511673" lon="25.665745">
        <ele>256.029738</ele>
        <time>2019-06-05T07:01:27.000Z</time>
      </trkpt>
      <trkpt lat="50.511740" lon="25.665623">
        <ele>255.985714</ele>
        <time>2019-06-05T07:01:29.000Z</time>
      </trkpt>
      <trkpt lat="50.511810" lon="25.665506">
        <ele>255.941841</ele>
        <time>2019-06-05T07:01:31.000Z</time>
      </trkpt>
      <trkpt lat="50.511875" lon="25.665396">
        <ele>255.900832</ele>
        <time>2019-06-05T07:01:33.000Z</time>
      </trkpt>
      <trkpt lat="50.511940" lon="25.665281">
        <ele>255.858812</ele>
        <time>2019-06-05T07:01:35.000Z</time>
      </trkpt>
      <trkpt lat="50.512000" lon="25.665170">
        <ele>255.819026</ele>
        <time>2019-06-05T07:01:37.000Z</time>
      </trkpt>
      <trkpt lat="50.512066" lon="25.665052">
        <ele>255.776108</ele>
        <time>2019-06-05T07:01:39.000Z</time>
      </trkpt>
      <trkpt lat="50.512130" lon="25.664936">
        <ele>255.734166</ele>
        <time>2019-06-05T07:01:41.000Z</time>
      </trkpt>
      <trkpt lat="50.512200" lon="25.664825">
        <ele>255.691473</ele>
        <time>2019-06-05T07:01:43.000Z</time>
      </trkpt>
      <trkpt lat="50.512264" lon="25.664719">
        <ele>255.651554</ele>
        <time>2019-06-05T07:01:45.000Z</time>
      </trkpt>
      <trkpt lat="50.512350" lon="25.664558">
        <ele>255.594131</ele>
        <time>2019-06-05T07:01:48.000Z</time>
      </trkpt>
      <trkpt lat="50.512424" lon="25.664404">
        <ele>255.541416</ele>
        <time>2019-06-05T07:01:51.000Z</time>
      </trkpt>
      <trkpt lat="50.512505" lon="25.664251">
        <ele>255.487046</ele>
        <time>2019-06-05T07:01:54.000Z</time>
      </trkpt>
      <trkpt lat="50.512585" lon="25.664099">
        <ele>255.433161</ele>
        <time>2019-06-05T07:01:57.000Z</time>
      </trkpt>
      <trkpt lat="50.512650" lon="25.663967">
        <ele>255.387567</ele>
        <time>2019-06-05T07:02:00.000Z</time>
      </trkpt>
      <trkpt lat="50.512707" lon="25.663847">
        <ele>255.346661</ele>
        <time>2019-06-05T07:02:03.000Z</time>
      </trkpt>
      <trkpt lat="50.512768" lon="25.663727">
        <ele>255.318385</ele>
        <time>2019-06-05T07:02:06.000Z</time>
      </trkpt>
      <trkpt lat="50.512830" lon="25.663593">
        <ele>255.297216</ele>
        <time>2019-06-05T07:02:09.000Z</time>
      </trkpt>
      <trkpt lat="50.512900" lon="25.663460">
        <ele>255.275162</ele>
        <time>2019-06-05T07:02:12.000Z</time>
      </trkpt>
      <trkpt lat="50.513004" lon="25.663439">
        <ele>255.254098</ele>
        <time>2019-06-05T07:02:15.000Z</time>
      </trkpt>
      <trkpt lat="50.513050" lon="25.663570">
        <ele>255.234982</ele>
        <time>2019-06-05T07:02:18.000Z</time>
      </trkpt>
      <trkpt lat="50.512966" lon="25.663680">
        <ele>255.213023</ele>
        <time>2019-06-05T07:02:22.000Z</time>
      </trkpt>
      <trkpt lat="50.512910" lon="25.663818">
        <ele>255.192110</ele>
        <time>2019-06-05T07:02:26.000Z</time>
      </trkpt>
      <trkpt lat="50.512863" lon="25.663939">
        <ele>255.173998</ele>
        <time>2019-06-05T07:02:30.000Z</time>
      </trkpt>
      <trkpt lat="50.513020" lon="25.663830">
        <ele>255.139522</ele>
        <time>2019-06-05T07:11:02.000Z</time>
      </trkpt>
      <trkpt lat="50.513050" lon="25.663670">
        <ele>255.118213</ele>
        <time>2019-06-05T07:11:08.000Z</time>
      </trkpt>
      <trkpt lat="50.513070" lon="25.663490">
        <ele>255.094871</ele>
        <time>2019-06-05T07:11:13.000Z</time>
      </trkpt>
      <trkpt lat="50.513077" lon="25.663317">
        <ele>255.072726</ele>
        <time>2019-06-05T07:11:17.000Z</time>
      </trkpt>
      <trkpt lat="50.513100" lon="25.663172">
        <ele>255.053636</ele>
        <time>2019-06-05T07:11:21.000Z</time>
      </trkpt>
      <trkpt lat="50.513172" lon="25.663060">
        <ele>255.033291</ele>
        <time>2019-06-05T07:11:27.000Z</time>
      </trkpt>
      <trkpt lat="50.513092" lon="25.663147">
        <ele>255.013752</ele>
        <time>2019-06-05T07:11:40.000Z</time>
      </trkpt>
      <trkpt lat="50.513042" lon="25.663265">
        <ele>254.995638</ele>
        <time>2019-06-05T07:11:47.000Z</time>
      </trkpt>
      <trkpt lat="50.513115" lon="25.663170">
        <ele>254.976603</ele>
        <time>2019-06-05T07:11:55.000Z</time>
      </trkpt>
      <trkpt lat="50.513160" lon="25.663042">
        <ele>254.945067</ele>
        <time>2019-06-05T07:12:02.000Z</time>
      </trkpt>
      <trkpt lat="50.513233" lon="25.662930">
        <ele>254.900997</ele>
        <time>2019-06-05T07:12:08.000Z</time>
      </trkpt>
      <trkpt lat="50.513294" lon="25.662798">
        <ele>254.856159</ele>
        <time>2019-06-05T07:12:13.000Z</time>
      </trkpt>
      <trkpt lat="50.513367" lon="25.662678">
        <ele>254.810527</ele>
        <time>2019-06-05T07:12:17.000Z</time>
      </trkpt>
      <trkpt lat="50.513443" lon="25.662556">
        <ele>254.763599</ele>
        <time>2019-06-05T07:12:21.000Z</time>
      </trkpt>
      <trkpt lat="50.513515" lon="25.662410">
        <ele>254.712831</ele>
        <time>2019-06-05T07:12:25.000Z</time>
      </trkpt>
      <trkpt lat="50.513588" lon="25.662298">
        <ele>254.668761</ele>
        <time>2019-06-05T07:12:28.000Z</time>
      </trkpt>
      <trkpt lat="50.513640" lon="25.662169">
        <ele>254.626792</ele>
        <time>2019-06-05T07:12:31.000Z</time>
      </trkpt>
      <trkpt lat="50.513706" lon="25.662048">
        <ele>254.582988</ele>
        <time>2019-06-05T07:12:34.000Z</time>
      </trkpt>
      <trkpt lat="50.513783" lon="25.661884">
        <ele>254.526972</ele>
        <time>2019-06-05T07:12:38.000Z</time>
      </trkpt>
      <trkpt lat="50.513836" lon="25.661741">
        <ele>254.481492</ele>
        <time>2019-06-05T07:12:41.000Z</time>
      </trkpt>
      <trkpt lat="50.513912" lon="25.661583">
        <ele>254.427056</ele>
        <time>2019-06-05T07:12:44.000Z</time>
      </trkpt>
      <trkpt lat="50.514000" lon="25.661419">
        <ele>254.368093</ele>
        <time>2019-06-05T07:12:47.000Z</time>
      </trkpt>
      <trkpt lat="50.514057" lon="25.661300">
        <ele>254.327156</ele>
        <time>2019-06-05T07:12:49.000Z</time>
      </trkpt>
      <trkpt lat="50.514114" lon="25.661186">
        <ele>254.287307</ele>
        <time>2019-06-05T07:12:51.000Z</time>
      </trkpt>
      <trkpt lat="50.514180" lon="25.661072">
        <ele>254.244945</ele>
        <time>2019-06-05T07:12:53.000Z</time>
      </trkpt>
      <trkpt lat="50.514244" lon="25.660957">
        <ele>254.202953</ele>
        <time>2019-06-05T07:12:55.000Z</time>
      </trkpt>
      <trkpt lat="50.514305" lon="25.660837">
        <ele>254.315068</ele>
        <time>2019-06-05T07:12:57.000Z</time>
      </trkpt>
      <trkpt lat="50.514397" lon="25.660704">
        <ele>254.528764</ele>
        <time>2019-06-05T07:13:00.000Z</time>
      </trkpt>
      <trkpt lat="50.514520" lon="25.660667">
        <ele>254.742911</ele>
        <time>2019-06-05T07:13:03.000Z</time>
      </trkpt>
      <trkpt lat="50.514610" lon="25.660732">
        <ele>254.912268</ele>
        <time>2019-06-05T07:13:06.000Z</time>
      </trkpt>
      <trkpt lat="50.514656" lon="25.660889">
        <ele>255.100237</ele>
        <time>2019-06-05T07:13:10.000Z</time>
      </trkpt>
      <trkpt lat="50.514675" lon="25.661026">
        <ele>255.252710</ele>
        <time>2019-06-05T07:13:14.000Z</time>
      </trkpt>
      <trkpt lat="50.514660" lon="25.661186">
        <ele>255.428570</ele>
        <time>2019-06-05T07:13:18.000Z</time>
      </trkpt>
      <trkpt lat="50.514664" lon="25.661343">
        <ele>255.599426</ele>
        <time>2019-06-05T07:13:23.000Z</time>
      </trkpt>
      <trkpt lat="50.514720" lon="25.661535">
        <ele>255.829116</ele>
        <time>2019-06-05T07:25:06.000Z</time>
      </trkpt>
      <trkpt lat="50.514774" lon="25.661676">
        <ele>256.008097</ele>
        <time>2019-06-05T07:25:16.000Z</time>
      </trkpt>
      <trkpt lat="50.514793" lon="25.661818">
        <ele>256.165885</ele>
        <time>2019-06-05T07:25:21.000Z</time>
      </trkpt>
      <trkpt lat="50.514816" lon="25.661957">
        <ele>256.322063</ele>
        <time>2019-06-05T07:25:26.000Z</time>
      </trkpt>
      <trkpt lat="50.514830" lon="25.662107">
        <ele>256.486917</ele>
        <time>2019-06-05T07:25:32.000Z</time>
      </trkpt>
      <trkpt lat="50.514908" lon="25.662237">
        <ele>256.681270</ele>
        <time>2019-06-05T07:26:27.000Z</time>
      </trkpt>
      <trkpt lat="50.514874" lon="25.662472">
        <ele>256.943333</ele>
        <time>2019-06-05T07:29:46.000Z</time>
      </trkpt>
      <trkpt lat="50.514904" lon="25.662620">
        <ele>257.112243</ele>
        <time>2019-06-05T07:29:50.000Z</time>
      </trkpt>
      <trkpt lat="50.514915" lon="25.662794">
        <ele>257.281842</ele>
        <time>2019-06-05T07:29:54.000Z</time>
      </trkpt>
      <trkpt lat="50.514940" lon="25.662940">
        <ele>257.349147</ele>
        <time>2019-06-05T07:29:57.000Z</time>
      </trkpt>
      <trkpt lat="50.514957" lon="25.663090">
        <ele>257.416970</ele>
        <time>2019-06-05T07:30:00.000Z</time>
      </trkpt>
      <trkpt lat="50.514988" lon="25.663256">
        <ele>257.493983</ele>
        <time>2019-06-05T07:30:03.000Z</time>
      </trkpt>
      <trkpt lat="50.515010" lon="25.663430">
        <ele>257.572953</ele>
        <time>2019-06-05T07:30:06.000Z</time>
      </trkpt>
      <trkpt lat="50.515030" lon="25.663599">
        <ele>257.649473</ele>
        <time>2019-06-05T07:30:09.000Z</time>
      </trkpt>
      <trkpt lat="50.515050" lon="25.663780">
        <ele>257.731250</ele>
        <time>2019-06-05T07:30:12.000Z</time>
      </trkpt>
      <trkpt lat="50.515080" lon="25.663952">
        <ele>257.810641</ele>
        <time>2019-06-05T07:30:15.000Z</time>
      </trkpt>
      <trkpt lat="50.515102" lon="25.664146">
        <ele>257.898360</ele>
        <time>2019-06-05T07:30:18.000Z</time>
      </trkpt>
      <trkpt lat="50.515125" lon="25.664331">
        <ele>257.982269</ele>
        <time>2019-06-05T07:30:21.000Z</time>
      </trkpt>
      <trkpt lat="50.515156" lon="25.664520">
        <ele>258.069153</ele>
        <time>2019-06-05T07:30:24.000Z</time>
      </trkpt>
      <trkpt lat="50.515167" lon="25.664728">
        <ele>258.162060</ele>
        <time>2019-06-05T07:30:27.000Z</time>
      </trkpt>
      <trkpt lat="50.515194" lon="25.664927">
        <ele>258.252636</ele>
        <time>2019-06-05T07:30:30.000Z</time>
      </trkpt>
      <trkpt lat="50.515217" lon="25.665129">
        <ele>258.343983</ele>
        <time>2019-06-05T07:30:33.000Z</time>
      </trkpt>
      <trkpt lat="50.515250" lon="25.665320">
        <ele>258.432086</ele>
        <time>2019-06-05T07:30:36.000Z</time>
      </trkpt>
      <trkpt lat="50.515285" lon="25.665514">
        <ele>258.521850</ele>
        <time>2019-06-05T07:30:39.000Z</time>
      </trkpt>
      <trkpt lat="50.515300" lon="25.665700">
        <ele>258.491420</ele>
        <time>2019-06-05T07:30:42.000Z</time>
      </trkpt>
      <trkpt lat="50.515327" lon="25.665897">
        <ele>258.451124</ele>
        <time>2019-06-05T07:30:45.000Z</time>
      </trkpt>
      <trkpt lat="50.515360" lon="25.666096">
        <ele>258.410001</ele>
        <time>2019-06-05T07:30:48.000Z</time>
      </trkpt>
      <trkpt lat="50.515385" lon="25.666296">
        <ele>258.369245</ele>
        <time>2019-06-05T07:30:51.000Z</time>
      </trkpt>
      <trkpt lat="50.515410" lon="25.666492">
        <ele>258.329272</ele>
        <time>2019-06-05T07:30:54.000Z</time>
      </trkpt>
      <trkpt lat="50.515440" lon="25.666690">
        <ele>258.288572</ele>
        <time>2019-06-05T07:30:57.000Z</time>
      </trkpt>
      <trkpt lat="50.515476" lon="25.666952">
        <ele>258.234975</ele>
        <time>2019-06-05T07:31:01.000Z</time>
      </trkpt>
      <trkpt lat="50.515490" lon="25.667097">
        <ele>258.205649</ele>
        <time>2019-06-05T07:31:03.000Z</time>
      </trkpt>
      <trkpt lat="50.515510" lon="25.667236">
        <ele>258.177152</ele>
        <time>2019-06-05T07:31:05.000Z</time>
      </trkpt>
      <trkpt lat="50.515533" lon="25.667437">
        <ele>258.136315</ele>
        <time>2019-06-05T07:31:08.000Z</time>
      </trkpt>
      <trkpt lat="50.515545" lon="25.667583">
        <ele>258.106879</ele>
        <time>2019-06-05T07:31:10.000Z</time>
      </trkpt>
      <trkpt lat="50.515560" lon="25.667723">
        <ele>258.078490</ele>
        <time>2019-06-05T07:31:12.000Z</time>
      </trkpt>
      <trkpt lat="50.515587" lon="25.667923">
        <ele>258.037608</ele>
        <time>2019-06-05T07:31:15.000Z</time>
      </trkpt>
      <trkpt lat="50.515617" lon="25.668130">
        <ele>257.995155</ele>
        <time>2019-06-05T07:31:18.000Z</time>
      </trkpt>
      <trkpt lat="50.515630" lon="25.668272">
        <ele>257.966469</ele>
        <time>2019-06-05T07:31:20.000Z</time>
      </trkpt>
      <trkpt lat="50.515644" lon="25.668413">
        <ele>257.930397</ele>
        <time>2019-06-05T07:31:22.000Z</time>
      </trkpt>
      <trkpt lat="50.515663" lon="25.668560">
        <ele>257.890651</ele>
        <time>2019-06-05T07:31:24.000Z</time>
      </trkpt>
      <trkpt lat="50.515675" lon="25.668703">
        <ele>257.852434</ele>
        <time>2019-06-05T07:31:26.000Z</time>
      </trkpt>
      <trkpt lat="50.515690" lon="25.668854">
        <ele>257.811940</ele>
        <time>2019-06-05T07:31:28.000Z</time>
      </trkpt>
      <trkpt lat="50.515700" lon="25.669006">
        <ele>257.771451</ele>
        <time>2019-06-05T07:31:30.000Z</time>
      </trkpt>
      <trkpt lat="50.515713" lon="25.669155">
        <ele>257.731602</ele>
        <time>2019-06-05T07:31:32.000Z</time>
      </trkpt>
      <trkpt lat="50.515720" lon="25.669304">
        <ele>257.692016</ele>
        <time>2019-06-05T07:31:34.000Z</time>
      </trkpt>
      <trkpt lat="50.515736" lon="25.669455">
        <ele>257.651456</ele>
        <time>2019-06-05T07:31:36.000Z</time>
      </trkpt>
      <trkpt lat="50.515750" lon="25.669601">
        <ele>257.612334</ele>
        <time>2019-06-05T07:31:38.000Z</time>
      </trkpt>
      <trkpt lat="50.515760" lon="25.669748">
        <ele>257.573163</ele>
        <time>2019-06-05T07:31:40.000Z</time>
      </trkpt>
      <trkpt lat="50.515774" lon="25.669890">
        <ele>257.535090</ele>
        <time>2019-06-05T07:31:42.000Z</time>
      </trkpt>
      <trkpt lat="50.515785" lon="25.670040">
        <ele>257.495083</ele>
        <time>2019-06-05T07:31:44.000Z</time>
      </trkpt>
      <trkpt lat="50.515793" lon="25.670197">
        <ele>257.453351</ele>
        <time>2019-06-05T07:31:46.000Z</time>
      </trkpt>
      <trkpt lat="50.515804" lon="25.670343">
        <ele>257.414396</ele>
        <time>2019-06-05T07:31:48.000Z</time>
      </trkpt>
      <trkpt lat="50.515816" lon="25.670486">
        <ele>257.376179</ele>
        <time>2019-06-05T07:31:50.000Z</time>
      </trkpt>
      <trkpt lat="50.515830" lon="25.670633">
        <ele>257.336796</ele>
        <time>2019-06-05T07:31:52.000Z</time>
      </trkpt>
      <trkpt lat="50.515842" lon="25.670786">
        <ele>257.295950</ele>
        <time>2019-06-05T07:31:54.000Z</time>
      </trkpt>
      <trkpt lat="50.515850" lon="25.670940">
        <ele>257.255011</ele>
        <time>2019-06-05T07:31:56.000Z</time>
      </trkpt>
      <trkpt lat="50.515858" lon="25.671082">
        <ele>257.217239</ele>
        <time>2019-06-05T07:31:58.000Z</time>
      </trkpt>
      <trkpt lat="50.515865" lon="25.671232">
        <ele>257.190814</ele>
        <time>2019-06-05T07:32:00.000Z</time>
      </trkpt>
      <trkpt lat="50.515877" lon="25.671383">
        <ele>257.166297</ele>
        <time>2019-06-05T07:32:02.000Z</time>
      </trkpt>
      <trkpt lat="50.515896" lon="25.671535">
        <ele>257.141339</ele>
        <time>2019-06-05T07:32:04.000Z</time>
      </trkpt>
      <trkpt lat="50.515907" lon="25.671686">
        <ele>257.116851</ele>
        <time>2019-06-05T07:32:06.000Z</time>
      </trkpt>
      <trkpt lat="50.515915" lon="25.671837">
        <ele>257.092438</ele>
        <time>2019-06-05T07:32:08.000Z</time>
      </trkpt>
      <trkpt lat="50.515926" lon="25.671982">
        <ele>257.068911</ele>
        <time>2019-06-05T07:32:10.000Z</time>
      </trkpt>
      <trkpt lat="50.515938" lon="25.672132">
        <ele>257.044553</ele>
        <time>2019-06-05T07:32:12.000Z</time>
      </trkpt>
      <trkpt lat="50.515945" lon="25.672281">
        <ele>257.020482</ele>
        <time>2019-06-05T07:32:14.000Z</time>
      </trkpt>
      <trkpt lat="50.515960" lon="25.672434">
        <ele>256.995540</ele>
        <time>2019-06-05T07:32:16.000Z</time>
      </trkpt>
      <trkpt lat="50.515972" lon="25.672580">
        <ele>256.971822</ele>
        <time>2019-06-05T07:32:18.000Z</time>
      </trkpt>
      <trkpt lat="50.515987" lon="25.672724">
        <ele>256.948312</ele>
        <time>2019-06-05T07:32:20.000Z</time>
      </trkpt>
      <trkpt lat="50.516003" lon="25.672873">
        <ele>256.923966</ele>
        <time>2019-06-05T07:32:22.000Z</time>
      </trkpt>
      <trkpt lat="50.516010" lon="25.673014">
        <ele>256.901180</ele>
        <time>2019-06-05T07:32:24.000Z</time>
      </trkpt>
      <trkpt lat="50.516026" lon="25.673220">
        <ele>256.867743</ele>
        <time>2019-06-05T07:32:27.000Z</time>
      </trkpt>
      <trkpt lat="50.516037" lon="25.673360">
        <ele>256.845016</ele>
        <time>2019-06-05T07:32:29.000Z</time>
      </trkpt>
      <trkpt lat="50.516050" lon="25.673500">
        <ele>256.822221</ele>
        <time>2019-06-05T07:32:31.000Z</time>
      </trkpt>
      <trkpt lat="50.516056" lon="25.673649">
        <ele>256.798166</ele>
        <time>2019-06-05T07:32:33.000Z</time>
      </trkpt>
      <trkpt lat="50.516068" lon="25.673798">
        <ele>256.773969</ele>
        <time>2019-06-05T07:32:35.000Z</time>
      </trkpt>
      <trkpt lat="50.516075" lon="25.673944">
        <ele>256.752842</ele>
        <time>2019-06-05T07:32:37.000Z</time>
      </trkpt>
      <trkpt lat="50.516083" lon="25.674097">
        <ele>256.739132</ele>
        <time>2019-06-05T07:32:39.000Z</time>
      </trkpt>
      <trkpt lat="50.516098" lon="25.674244">
        <ele>256.725835</ele>
        <time>2019-06-05T07:32:41.000Z</time>
      </trkpt>
      <trkpt lat="50.516113" lon="25.674390">
        <ele>256.712627</ele>
        <time>2019-06-05T07:32:43.000Z</time>
      </trkpt>
      <trkpt lat="50.516132" lon="25.674543">
        <ele>256.698704</ele>
        <time>2019-06-05T07:32:45.000Z</time>
      </trkpt>
      <trkpt lat="50.516140" lon="25.674704">
        <ele>256.684282</ele>
        <time>2019-06-05T07:32:47.000Z</time>
      </trkpt>
      <trkpt lat="50.516150" lon="25.674852">
        <ele>256.670989</ele>
        <time>2019-06-05T07:32:49.000Z</time>
      </trkpt>
      <trkpt lat="50.516167" lon="25.675000">
        <ele>256.657558</ele>
        <time>2019-06-05T07:32:51.000Z</time>
      </trkpt>
      <trkpt lat="50.516174" lon="25.675154">
        <ele>256.643769</ele>
        <time>2019-06-05T07:32:53.000Z</time>
      </trkpt>
      <trkpt lat="50.516180" lon="25.675306">
        <ele>256.630168</ele>
        <time>2019-06-05T07:32:55.000Z</time>
      </trkpt>
      <trkpt lat="50.516193" lon="25.675516">
        <ele>256.611324</ele>
        <time>2019-06-05T07:32:58.000Z</time>
      </trkpt>
      <trkpt lat="50.516205" lon="25.675657">
        <ele>256.598619</ele>
        <time>2019-06-05T07:33:00.000Z</time>
      </trkpt>
      <trkpt lat="50.516220" lon="25.675806">
        <ele>256.585146</ele>
        <time>2019-06-05T07:33:02.000Z</time>
      </trkpt>
      <trkpt lat="50.516224" lon="25.675957">
        <ele>256.571649</ele>
        <time>2019-06-05T07:33:04.000Z</time>
      </trkpt>
      <trkpt lat="50.516235" lon="25.676098">
        <ele>256.558962</ele>
        <time>2019-06-05T07:33:06.000Z</time>
      </trkpt>
      <trkpt lat="50.516240" lon="25.676247">
        <ele>256.545636</ele>
        <time>2019-06-05T07:33:08.000Z</time>
      </trkpt>
      <trkpt lat="50.516247" lon="25.676400">
        <ele>256.531937</ele>
        <time>2019-06-05T07:33:10.000Z</time>
      </trkpt>
      <trkpt lat="50.516260" lon="25.676542">
        <ele>256.519124</ele>
        <time>2019-06-05T07:33:12.000Z</time>
      </trkpt>
      <trkpt lat="50.516277" lon="25.676750">
        <ele>256.511588</ele>
        <time>2019-06-05T07:33:15.000Z</time>
      </trkpt>
      <trkpt lat="50.516296" lon="25.676956">
        <ele>256.565168</ele>
        <time>2019-06-05T07:33:18.000Z</time>
      </trkpt>
      <trkpt lat="50.516308" lon="25.677095">
        <ele>256.601276</ele>
        <time>2019-06-05T07:33:20.000Z</time>
      </trkpt>
      <trkpt lat="50.516330" lon="25.677370">
        <ele>256.672621</ele>
        <time>2019-06-05T07:33:24.000Z</time>
      </trkpt>
      <trkpt lat="50.516340" lon="25.677519">
        <ele>256.711187</ele>
        <time>2019-06-05T07:33:26.000Z</time>
      </trkpt>
      <trkpt lat="50.516350" lon="25.677660">
        <ele>256.747706</ele>
        <time>2019-06-05T07:33:28.000Z</time>
      </trkpt>
      <trkpt lat="50.516357" lon="25.677801">
        <ele>256.784111</ele>
        <time>2019-06-05T07:33:30.000Z</time>
      </trkpt>
      <trkpt lat="50.516370" lon="25.677948">
        <ele>256.822314</ele>
        <time>2019-06-05T07:33:32.000Z</time>
      </trkpt>
      <trkpt lat="50.516380" lon="25.678091">
        <ele>256.859345</ele>
        <time>2019-06-05T07:33:34.000Z</time>
      </trkpt>
      <trkpt lat="50.516388" lon="25.678234">
        <ele>256.896296</ele>
        <time>2019-06-05T07:33:36.000Z</time>
      </trkpt>
      <trkpt lat="50.516396" lon="25.678387">
        <ele>256.935812</ele>
        <time>2019-06-05T07:33:38.000Z</time>
      </trkpt>
      <trkpt lat="50.516407" lon="25.678528">
        <ele>256.972378</ele>
        <time>2019-06-05T07:33:40.000Z</time>
      </trkpt>
      <trkpt lat="50.516430" lon="25.678736">
        <ele>257.026722</ele>
        <time>2019-06-05T07:33:43.000Z</time>
      </trkpt>
      <trkpt lat="50.516440" lon="25.678885">
        <ele>257.065289</ele>
        <time>2019-06-05T07:33:45.000Z</time>
      </trkpt>
      <trkpt lat="50.516450" lon="25.679028">
        <ele>257.102320</ele>
        <time>2019-06-05T07:33:47.000Z</time>
      </trkpt>
      <trkpt lat="50.516457" lon="25.679176">
        <ele>257.140521</ele>
        <time>2019-06-05T07:33:49.000Z</time>
      </trkpt>
      <trkpt lat="50.516468" lon="25.679317">
        <ele>257.177087</ele>
        <time>2019-06-05T07:33:51.000Z</time>
      </trkpt>
      <trkpt lat="50.516476" lon="25.679466">
        <ele>257.215577</ele>
        <time>2019-06-05T07:33:53.000Z</time>
      </trkpt>
      <trkpt lat="50.516487" lon="25.679611">
        <ele>257.256134</ele>
        <time>2019-06-05T07:33:55.000Z</time>
      </trkpt>
      <trkpt lat="50.516506" lon="25.679758">
        <ele>257.300011</ele>
        <time>2019-06-05T07:33:57.000Z</time>
      </trkpt>
      <trkpt lat="50.516518" lon="25.679909">
        <ele>257.344523</ele>
        <time>2019-06-05T07:33:59.000Z</time>
      </trkpt>
      <trkpt lat="50.516530" lon="25.680058">
        <ele>257.388455</ele>
        <time>2019-06-05T07:34:01.000Z</time>
      </trkpt>
      <trkpt lat="50.516544" lon="25.680267">
        <ele>257.449927</ele>
        <time>2019-06-05T07:34:04.000Z</time>
      </trkpt>
      <trkpt lat="50.516560" lon="25.680410">
        <ele>257.492398</ele>
        <time>2019-06-05T07:34:06.000Z</time>
      </trkpt>
      <trkpt lat="50.516570" lon="25.680555">
        <ele>257.535060</ele>
        <time>2019-06-05T07:34:08.000Z</time>
      </trkpt>
      <trkpt lat="50.516598" lon="25.680700">
        <ele>257.579386</ele>
        <time>2019-06-05T07:34:10.000Z</time>
      </trkpt>
      <trkpt lat="50.516630" lon="25.680845">
        <ele>257.624281</ele>
        <time>2019-06-05T07:34:12.000Z</time>
      </trkpt>
      <trkpt lat="50.516660" lon="25.680988">
        <ele>257.668327</ele>
        <time>2019-06-05T07:34:14.000Z</time>
      </trkpt>
      <trkpt lat="50.516693" lon="25.681133">
        <ele>257.713375</ele>
        <time>2019-06-05T07:34:16.000Z</time>
      </trkpt>
      <trkpt lat="50.516727" lon="25.681278">
        <ele>257.758580</ele>
        <time>2019-06-05T07:34:18.000Z</time>
      </trkpt>
      <trkpt lat="50.516766" lon="25.681425">
        <ele>257.805171</ele>
        <time>2019-06-05T07:34:20.000Z</time>
      </trkpt>
      <trkpt lat="50.516804" lon="25.681572">
        <ele>257.851587</ele>
        <time>2019-06-05T07:34:22.000Z</time>
      </trkpt>
      <trkpt lat="50.516840" lon="25.681717">
        <ele>257.897118</ele>
        <time>2019-06-05T07:34:24.000Z</time>
      </trkpt>
      <trkpt lat="50.516880" lon="25.681868">
        <ele>257.944966</ele>
        <time>2019-06-05T07:34:26.000Z</time>
      </trkpt>
      <trkpt lat="50.516926" lon="25.682014">
        <ele>257.992627</ele>
        <time>2019-06-05T07:34:28.000Z</time>
      </trkpt>
      <trkpt lat="50.516960" lon="25.682161">
        <ele>258.038381</ele>
        <time>2019-06-05T07:34:30.000Z</time>
      </trkpt>
      <trkpt lat="50.516994" lon="25.682304">
        <ele>258.125214</ele>
        <time>2019-06-05T07:34:32.000Z</time>
      </trkpt>
      <trkpt lat="50.517030" lon="25.682451">
        <ele>258.251498</ele>
        <time>2019-06-05T07:34:34.000Z</time>
      </trkpt>
      <trkpt lat="50.517063" lon="25.682590">
        <ele>258.370443</ele>
        <time>2019-06-05T07:34:36.000Z</time>
      </trkpt>
      <trkpt lat="50.517100" lon="25.682737">
        <ele>258.497186</ele>
        <time>2019-06-05T07:34:38.000Z</time>
      </trkpt>
      <trkpt lat="50.517143" lon="25.682870">
        <ele>258.616799</ele>
        <time>2019-06-05T07:34:40.000Z</time>
      </trkpt>
      <trkpt lat="50.517180" lon="25.682999">
        <ele>258.730249</ele>
        <time>2019-06-05T07:34:42.000Z</time>
      </trkpt>
      <trkpt lat="50.517230" lon="25.683197">
        <ele>258.901038</ele>
        <time>2019-06-05T07:34:45.000Z</time>
      </trkpt>
      <trkpt lat="50.517265" lon="25.683332">
        <ele>259.017914</ele>
        <time>2019-06-05T07:34:47.000Z</time>
      </trkpt>
      <trkpt lat="50.517320" lon="25.683525">
        <ele>259.187464</ele>
        <time>2019-06-05T07:34:50.000Z</time>
      </trkpt>
      <trkpt lat="50.517353" lon="25.683657">
        <ele>259.301169</ele>
        <time>2019-06-05T07:34:52.000Z</time>
      </trkpt>
      <trkpt lat="50.517387" lon="25.683788">
        <ele>259.414599</ele>
        <time>2019-06-05T07:34:54.000Z</time>
      </trkpt>
      <trkpt lat="50.517418" lon="25.683920">
        <ele>259.527405</ele>
        <time>2019-06-05T07:34:56.000Z</time>
      </trkpt>
      <trkpt lat="50.517470" lon="25.684101">
        <ele>259.686630</ele>
        <time>2019-06-05T07:34:59.000Z</time>
      </trkpt>
      <trkpt lat="50.517520" lon="25.684282">
        <ele>259.844833</ele>
        <time>2019-06-05T07:35:02.000Z</time>
      </trkpt>
      <trkpt lat="50.517567" lon="25.684475">
        <ele>260.010513</ele>
        <time>2019-06-05T07:35:05.000Z</time>
      </trkpt>
      <trkpt lat="50.517597" lon="25.684607">
        <ele>260.122888</ele>
        <time>2019-06-05T07:35:07.000Z</time>
      </trkpt>
      <trkpt lat="50.517643" lon="25.684790">
        <ele>260.280640</ele>
        <time>2019-06-05T07:35:10.000Z</time>
      </trkpt>
      <trkpt lat="50.517685" lon="25.684986">
        <ele>260.367162</ele>
        <time>2019-06-05T07:35:13.000Z</time>
      </trkpt>
      <trkpt lat="50.517730" lon="25.685177">
        <ele>260.422507</ele>
        <time>2019-06-05T07:35:16.000Z</time>
      </trkpt>
      <trkpt lat="50.517780" lon="25.685364">
        <ele>260.477626</ele>
        <time>2019-06-05T07:35:19.000Z</time>
      </trkpt>
      <trkpt lat="50.517834" lon="25.685550">
        <ele>260.533183</ele>
        <time>2019-06-05T07:35:22.000Z</time>
      </trkpt>
      <trkpt lat="50.517890" lon="25.685736">
        <ele>260.589100</ele>
        <time>2019-06-05T07:35:25.000Z</time>
      </trkpt>
      <trkpt lat="50.517920" lon="25.685870">
        <ele>260.627700</ele>
        <time>2019-06-05T07:35:27.000Z</time>
      </trkpt>
      <trkpt lat="50.517970" lon="25.686050">
        <ele>260.681071</ele>
        <time>2019-06-05T07:35:30.000Z</time>
      </trkpt>
      <trkpt lat="50.518017" lon="25.686249">
        <ele>260.738751</ele>
        <time>2019-06-05T07:35:33.000Z</time>
      </trkpt>
      <trkpt lat="50.518063" lon="25.686450">
        <ele>260.796794</ele>
        <time>2019-06-05T07:35:36.000Z</time>
      </trkpt>
      <trkpt lat="50.518097" lon="25.686584">
        <ele>260.835995</ele>
        <time>2019-06-05T07:35:38.000Z</time>
      </trkpt>
      <trkpt lat="50.518154" lon="25.686779">
        <ele>260.894308</ele>
        <time>2019-06-05T07:35:41.000Z</time>
      </trkpt>
      <trkpt lat="50.518196" lon="25.686909">
        <ele>260.933929</ele>
        <time>2019-06-05T07:35:43.000Z</time>
      </trkpt>
      <trkpt lat="50.518234" lon="25.687038">
        <ele>260.972558</ele>
        <time>2019-06-05T07:35:45.000Z</time>
      </trkpt>
      <trkpt lat="50.518284" lon="25.687233">
        <ele>261.029686</ele>
        <time>2019-06-05T07:35:48.000Z</time>
      </trkpt>
      <trkpt lat="50.518330" lon="25.687433">
        <ele>261.087474</ele>
        <time>2019-06-05T07:35:51.000Z</time>
      </trkpt>
      <trkpt lat="50.518364" lon="25.687574">
        <ele>261.160127</ele>
        <time>2019-06-05T07:35:53.000Z</time>
      </trkpt>
      <trkpt lat="50.518406" lon="25.687767">
        <ele>261.268233</ele>
        <time>2019-06-05T07:35:56.000Z</time>
      </trkpt>
      <trkpt lat="50.518456" lon="25.687960">
        <ele>261.378679</ele>
        <time>2019-06-05T07:35:59.000Z</time>
      </trkpt>
      <trkpt lat="50.518505" lon="25.688139">
        <ele>261.481959</ele>
        <time>2019-06-05T07:36:02.000Z</time>
      </trkpt>
      <trkpt lat="50.518547" lon="25.688318">
        <ele>261.583075</ele>
        <time>2019-06-05T07:36:05.000Z</time>
      </trkpt>
      <trkpt lat="50.518593" lon="25.688507">
        <ele>261.690323</ele>
        <time>2019-06-05T07:36:08.000Z</time>
      </trkpt>
      <trkpt lat="50.518642" lon="25.688698">
        <ele>261.799474</ele>
        <time>2019-06-05T07:36:11.000Z</time>
      </trkpt>
      <trkpt lat="50.518673" lon="25.688830">
        <ele>261.874047</ele>
        <time>2019-06-05T07:36:13.000Z</time>
      </trkpt>
      <trkpt lat="50.518715" lon="25.688960">
        <ele>261.951324</ele>
        <time>2019-06-05T07:36:15.000Z</time>
      </trkpt>
      <trkpt lat="50.518764" lon="25.689148">
        <ele>262.059002</ele>
        <time>2019-06-05T07:36:18.000Z</time>
      </trkpt>
      <trkpt lat="50.518818" lon="25.689335">
        <ele>262.167845</ele>
        <time>2019-06-05T07:36:21.000Z</time>
      </trkpt>
      <trkpt lat="50.518860" lon="25.689463">
        <ele>262.244179</ele>
        <time>2019-06-05T07:36:23.000Z</time>
      </trkpt>
      <trkpt lat="50.518906" lon="25.689655">
        <ele>262.352913</ele>
        <time>2019-06-05T07:36:26.000Z</time>
      </trkpt>
      <trkpt lat="50.518950" lon="25.689842">
        <ele>262.458582</ele>
        <time>2019-06-05T07:36:29.000Z</time>
      </trkpt>
      <trkpt lat="50.518986" lon="25.689972">
        <ele>262.533727</ele>
        <time>2019-06-05T07:36:31.000Z</time>
      </trkpt>
      <trkpt lat="50.519024" lon="25.690107">
        <ele>262.629607</ele>
        <time>2019-06-05T07:36:33.000Z</time>
      </trkpt>
      <trkpt lat="50.519070" lon="25.690302">
        <ele>262.849664</ele>
        <time>2019-06-05T07:36:36.000Z</time>
      </trkpt>
      <trkpt lat="50.519115" lon="25.690500">
        <ele>263.072133</ele>
        <time>2019-06-05T07:36:39.000Z</time>
      </trkpt>
      <trkpt lat="50.519160" lon="25.690683">
        <ele>263.279727</ele>
        <time>2019-06-05T07:36:42.000Z</time>
      </trkpt>
      <trkpt lat="50.519200" lon="25.690815">
        <ele>263.434436</ele>
        <time>2019-06-05T07:36:44.000Z</time>
      </trkpt>
      <trkpt lat="50.519257" lon="25.691010">
        <ele>263.661509</ele>
        <time>2019-06-05T07:36:47.000Z</time>
      </trkpt>
      <trkpt lat="50.519287" lon="25.691149">
        <ele>263.816815</ele>
        <time>2019-06-05T07:36:49.000Z</time>
      </trkpt>
      <trkpt lat="50.519318" lon="25.691294">
        <ele>263.978668</ele>
        <time>2019-06-05T07:36:51.000Z</time>
      </trkpt>
      <trkpt lat="50.519356" lon="25.691427">
        <ele>264.132939</ele>
        <time>2019-06-05T07:36:53.000Z</time>
      </trkpt>
      <trkpt lat="50.519394" lon="25.691563">
        <ele>264.290111</ele>
        <time>2019-06-05T07:36:55.000Z</time>
      </trkpt>
      <trkpt lat="50.519455" lon="25.691755">
        <ele>264.517198</ele>
        <time>2019-06-05T07:36:58.000Z</time>
      </trkpt>
      <trkpt lat="50.519500" lon="25.691921">
        <ele>264.708126</ele>
        <time>2019-06-05T07:37:01.000Z</time>
      </trkpt>
      <trkpt lat="50.519547" lon="25.692104">
        <ele>264.916942</ele>
        <time>2019-06-05T07:37:04.000Z</time>
      </trkpt>
      <trkpt lat="50.519596" lon="25.692335">
        <ele>265.174585</ele>
        <time>2019-06-05T07:37:08.000Z</time>
      </trkpt>
      <trkpt lat="50.519630" lon="25.692497">
        <ele>265.355079</ele>
        <time>2019-06-05T07:37:11.000Z</time>
      </trkpt>
      <trkpt lat="50.519672" lon="25.692660">
        <ele>265.541158</ele>
        <time>2019-06-05T07:37:14.000Z</time>
      </trkpt>
      <trkpt lat="50.519707" lon="25.692820">
        <ele>265.925440</ele>
        <time>2019-06-05T07:37:17.000Z</time>
      </trkpt>
      <trkpt lat="50.519753" lon="25.692968">
        <ele>266.368878</ele>
        <time>2019-06-05T07:37:20.000Z</time>
      </trkpt>
      <trkpt lat="50.519790" lon="25.693117">
        <ele>266.799458</ele>
        <time>2019-06-05T07:37:23.000Z</time>
      </trkpt>
      <trkpt lat="50.519825" lon="25.693275">
        <ele>267.249833</ele>
        <time>2019-06-05T07:37:26.000Z</time>
      </trkpt>
      <trkpt lat="50.519870" lon="25.693424">
        <ele>267.693856</ele>
        <time>2019-06-05T07:37:29.000Z</time>
      </trkpt>
      <trkpt lat="50.519917" lon="25.693575">
        <ele>268.146407</ele>
        <time>2019-06-05T07:37:32.000Z</time>
      </trkpt>
      <trkpt lat="50.519960" lon="25.693724">
        <ele>268.586863</ele>
        <time>2019-06-05T07:37:35.000Z</time>
      </trkpt>
      <trkpt lat="50.520010" lon="25.693890">
        <ele>269.081302</ele>
        <time>2019-06-05T07:37:38.000Z</time>
      </trkpt>
      <trkpt lat="50.520058" lon="25.694050">
        <ele>269.557520</ele>
        <time>2019-06-05T07:37:41.000Z</time>
      </trkpt>
      <trkpt lat="50.520092" lon="25.694210">
        <ele>270.011621</ele>
        <time>2019-06-05T07:37:44.000Z</time>
      </trkpt>
      <trkpt lat="50.520130" lon="25.694350">
        <ele>270.421371</ele>
        <time>2019-06-05T07:37:47.000Z</time>
      </trkpt>
      <trkpt lat="50.520172" lon="25.694490">
        <ele>270.838061</ele>
        <time>2019-06-05T07:37:50.000Z</time>
      </trkpt>
      <trkpt lat="50.520214" lon="25.694628">
        <ele>271.249889</ele>
        <time>2019-06-05T07:37:53.000Z</time>
      </trkpt>
      <trkpt lat="50.520256" lon="25.694770">
        <ele>271.671454</ele>
        <time>2019-06-05T07:37:56.000Z</time>
      </trkpt>
      <trkpt lat="50.520306" lon="25.694942">
        <ele>272.180532</ele>
        <time>2019-06-05T07:38:00.000Z</time>
      </trkpt>
      <trkpt lat="50.520350" lon="25.695103">
        <ele>272.652244</ele>
        <time>2019-06-05T07:38:04.000Z</time>
      </trkpt>
      <trkpt lat="50.520397" lon="25.695270">
        <ele>273.143837</ele>
        <time>2019-06-05T07:38:08.000Z</time>
      </trkpt>
      <trkpt lat="50.520443" lon="25.695421">
        <ele>273.412153</ele>
        <time>2019-06-05T07:38:12.000Z</time>
      </trkpt>
      <trkpt lat="50.520490" lon="25.695581">
        <ele>273.666132</ele>
        <time>2019-06-05T07:38:16.000Z</time>
      </trkpt>
      <trkpt lat="50.520540" lon="25.695740">
        <ele>273.921743</ele>
        <time>2019-06-05T07:38:20.000Z</time>
      </trkpt>
      <trkpt lat="50.520580" lon="25.695890">
        <ele>274.156135</ele>
        <time>2019-06-05T07:38:24.000Z</time>
      </trkpt>
      <trkpt lat="50.520615" lon="25.696050">
        <ele>274.399959</ele>
        <time>2019-06-05T07:38:28.000Z</time>
      </trkpt>
      <trkpt lat="50.520650" lon="25.696213">
        <ele>274.647875</ele>
        <time>2019-06-05T07:38:32.000Z</time>
      </trkpt>
      <trkpt lat="50.520690" lon="25.696362">
        <ele>274.880938</ele>
        <time>2019-06-05T07:38:36.000Z</time>
      </trkpt>
      <trkpt lat="50.520718" lon="25.696510">
        <ele>275.103447</ele>
        <time>2019-06-05T07:38:40.000Z</time>
      </trkpt>
      <trkpt lat="50.520760" lon="25.696665">
        <ele>275.346240</ele>
        <time>2019-06-05T07:38:44.000Z</time>
      </trkpt>
      <trkpt lat="50.520805" lon="25.696795">
        <ele>275.559533</ele>
        <time>2019-06-05T07:38:48.000Z</time>
      </trkpt>
      <trkpt lat="50.520847" lon="25.696930">
        <ele>275.776107</ele>
        <time>2019-06-05T07:38:52.000Z</time>
      </trkpt>
      <trkpt lat="50.520880" lon="25.697071">
        <ele>275.992616</ele>
        <time>2019-06-05T07:38:56.000Z</time>
      </trkpt>
      <trkpt lat="50.520927" lon="25.697210">
        <ele>276.219477</ele>
        <time>2019-06-05T07:39:00.000Z</time>
      </trkpt>
      <trkpt lat="50.520970" lon="25.697355">
        <ele>276.450031</ele>
        <time>2019-06-05T07:39:04.000Z</time>
      </trkpt>
      <trkpt lat="50.521008" lon="25.697517">
        <ele>276.698851</ele>
        <time>2019-06-05T07:39:08.000Z</time>
      </trkpt>
      <trkpt lat="50.521046" lon="25.697670">
        <ele>276.935546</ele>
        <time>2019-06-05T07:39:12.000Z</time>
      </trkpt>
      <trkpt lat="50.521084" lon="25.697828">
        <ele>277.178967</ele>
        <time>2019-06-05T07:39:16.000Z</time>
      </trkpt>
      <trkpt lat="50.521114" lon="25.697998">
        <ele>277.460126</ele>
        <time>2019-06-05T07:39:20.000Z</time>
      </trkpt>
      <trkpt lat="50.521156" lon="25.698132">
        <ele>277.712890</ele>
        <time>2019-06-05T07:39:24.000Z</time>
      </trkpt>
      <trkpt lat="50.521200" lon="25.698298">
        <ele>278.017172</ele>
        <time>2019-06-05T07:39:28.000Z</time>
      </trkpt>
      <trkpt lat="50.521244" lon="25.698458">
        <ele>278.312109</ele>
        <time>2019-06-05T07:39:32.000Z</time>
      </trkpt>
      <trkpt lat="50.521286" lon="25.698631">
        <ele>278.625417</ele>
        <time>2019-06-05T07:39:36.000Z</time>
      </trkpt>
      <trkpt lat="50.521310" lon="25.698778">
        <ele>278.882192</ele>
        <time>2019-06-05T07:39:39.000Z</time>
      </trkpt>
      <trkpt lat="50.521350" lon="25.698952">
        <ele>279.195231</ele>
        <time>2019-06-05T07:39:43.000Z</time>
      </trkpt>
      <trkpt lat="50.521390" lon="25.699121">
        <ele>279.500328</ele>
        <time>2019-06-05T07:39:47.000Z</time>
      </trkpt>
      <trkpt lat="50.521430" lon="25.699253">
        <ele>279.747724</ele>
        <time>2019-06-05T07:39:50.000Z</time>
      </trkpt>
      <trkpt lat="50.521460" lon="25.699400">
        <ele>280.008928</ele>
        <time>2019-06-05T07:39:53.000Z</time>
      </trkpt>
      <trkpt lat="50.521492" lon="25.699540">
        <ele>280.260632</ele>
        <time>2019-06-05T07:39:56.000Z</time>
      </trkpt>
      <trkpt lat="50.521526" lon="25.699670">
        <ele>280.498457</ele>
        <time>2019-06-05T07:39:59.000Z</time>
      </trkpt>
      <trkpt lat="50.521572" lon="25.699802">
        <ele>280.753131</ele>
        <time>2019-06-05T07:40:02.000Z</time>
      </trkpt>
      <trkpt lat="50.521620" lon="25.699936">
        <ele>281.013347</ele>
        <time>2019-06-05T07:40:05.000Z</time>
      </trkpt>
      <trkpt lat="50.521656" lon="25.700079">
        <ele>281.273560</ele>
        <time>2019-06-05T07:40:08.000Z</time>
      </trkpt>
      <trkpt lat="50.521698" lon="25.700224">
        <ele>281.543140</ele>
        <time>2019-06-05T07:40:11.000Z</time>
      </trkpt>
      <trkpt lat="50.521740" lon="25.700365">
        <ele>281.806576</ele>
        <time>2019-06-05T07:40:14.000Z</time>
      </trkpt>
      <trkpt lat="50.521786" lon="25.700504">
        <ele>282.081590</ele>
        <time>2019-06-05T07:40:17.000Z</time>
      </trkpt>
      <trkpt lat="50.521830" lon="25.700651">
        <ele>282.752004</ele>
        <time>2019-06-05T07:40:20.000Z</time>
      </trkpt>
      <trkpt lat="50.521873" lon="25.700804">
        <ele>283.442248</ele>
        <time>2019-06-05T07:40:23.000Z</time>
      </trkpt>
      <trkpt lat="50.521910" lon="25.700947">
        <ele>284.079290</ele>
        <time>2019-06-05T07:40:26.000Z</time>
      </trkpt>
      <trkpt lat="50.521946" lon="25.701101">
        <ele>284.756320</ele>
        <time>2019-06-05T07:40:29.000Z</time>
      </trkpt>
      <trkpt lat="50.521976" lon="25.701248">
        <ele>285.393357</ele>
        <time>2019-06-05T07:40:32.000Z</time>
      </trkpt>
      <trkpt lat="50.522015" lon="25.701395">
        <ele>286.050604</ele>
        <time>2019-06-05T07:40:35.000Z</time>
      </trkpt>
      <trkpt lat="50.522053" lon="25.701532">
        <ele>286.667350</ele>
        <time>2019-06-05T07:40:38.000Z</time>
      </trkpt>
      <trkpt lat="50.522083" lon="25.701680">
        <ele>287.308316</ele>
        <time>2019-06-05T07:40:42.000Z</time>
      </trkpt>
      <trkpt lat="50.522125" lon="25.701809">
        <ele>287.906332</ele>
        <time>2019-06-05T07:40:46.000Z</time>
      </trkpt>
      <trkpt lat="50.522163" lon="25.701954">
        <ele>288.553467</ele>
        <time>2019-06-05T07:40:52.000Z</time>
      </trkpt>
      <trkpt lat="50.522186" lon="25.702095">
        <ele>289.154106</ele>
        <time>2019-06-05T07:40:58.000Z</time>
      </trkpt>
      <trkpt lat="50.522232" lon="25.702229">
        <ele>289.782466</ele>
        <time>2019-06-05T07:41:03.000Z</time>
      </trkpt>
      <trkpt lat="50.522280" lon="25.702374">
        <ele>290.457007</ele>
        <time>2019-06-05T07:41:07.000Z</time>
      </trkpt>
      <trkpt lat="50.522312" lon="25.702515">
        <ele>291.074756</ele>
        <time>2019-06-05T07:41:10.000Z</time>
      </trkpt>
      <trkpt lat="50.522350" lon="25.702670">
        <ele>291.760218</ele>
        <time>2019-06-05T07:41:13.000Z</time>
      </trkpt>
      <trkpt lat="50.522396" lon="25.702839">
        <ele>292.518762</ele>
        <time>2019-06-05T07:41:16.000Z</time>
      </trkpt>
      <trkpt lat="50.522453" lon="25.703001">
        <ele>293.282740</ele>
        <time>2019-06-05T07:41:19.000Z</time>
      </trkpt>
      <trkpt lat="50.522514" lon="25.703178">
        <ele>293.899976</ele>
        <time>2019-06-05T07:41:22.000Z</time>
      </trkpt>
      <trkpt lat="50.522570" lon="25.703367">
        <ele>294.271140</ele>
        <time>2019-06-05T07:41:25.000Z</time>
      </trkpt>
      <trkpt lat="50.522625" lon="25.703550">
        <ele>294.631445</ele>
        <time>2019-06-05T07:41:28.000Z</time>
      </trkpt>
      <trkpt lat="50.522660" lon="25.703686">
        <ele>294.892607</ele>
        <time>2019-06-05T07:41:30.000Z</time>
      </trkpt>
      <trkpt lat="50.522705" lon="25.703882">
        <ele>295.263541</ele>
        <time>2019-06-05T07:41:33.000Z</time>
      </trkpt>
      <trkpt lat="50.522743" lon="25.704012">
        <ele>295.518228</ele>
        <time>2019-06-05T07:41:35.000Z</time>
      </trkpt>
      <trkpt lat="50.522793" lon="25.704200">
        <ele>295.880969</ele>
        <time>2019-06-05T07:41:38.000Z</time>
      </trkpt>
      <trkpt lat="50.522854" lon="25.704393">
        <ele>296.264620</ele>
        <time>2019-06-05T07:41:41.000Z</time>
      </trkpt>
      <trkpt lat="50.522896" lon="25.704523">
        <ele>296.524184</ele>
        <time>2019-06-05T07:41:43.000Z</time>
      </trkpt>
      <trkpt lat="50.522938" lon="25.704650">
        <ele>296.778999</ele>
        <time>2019-06-05T07:41:45.000Z</time>
      </trkpt>
      <trkpt lat="50.522972" lon="25.704780">
        <ele>297.029213</ele>
        <time>2019-06-05T07:41:47.000Z</time>
      </trkpt>
      <trkpt lat="50.523010" lon="25.704910">
        <ele>297.283899</ele>
        <time>2019-06-05T07:41:49.000Z</time>
      </trkpt>
      <trkpt lat="50.523052" lon="25.705042">
        <ele>297.546641</ele>
        <time>2019-06-05T07:41:51.000Z</time>
      </trkpt>
      <trkpt lat="50.523090" lon="25.705172">
        <ele>297.801327</ele>
        <time>2019-06-05T07:41:53.000Z</time>
      </trkpt>
      <trkpt lat="50.523125" lon="25.705307">
        <ele>298.060838</ele>
        <time>2019-06-05T07:41:55.000Z</time>
      </trkpt>
      <trkpt lat="50.523193" lon="25.705580">
        <ele>298.582739</ele>
        <time>2019-06-05T07:41:59.000Z</time>
      </trkpt>
      <trkpt lat="50.523228" lon="25.705720">
        <ele>298.801822</ele>
        <time>2019-06-05T07:42:01.000Z</time>
      </trkpt>
      <trkpt lat="50.523262" lon="25.705853">
        <ele>298.895103</ele>
        <time>2019-06-05T07:42:03.000Z</time>
      </trkpt>
      <trkpt lat="50.523296" lon="25.705988">
        <ele>298.989594</ele>
        <time>2019-06-05T07:42:05.000Z</time>
      </trkpt>
      <trkpt lat="50.523330" lon="25.706121">
        <ele>299.082875</ele>
        <time>2019-06-05T07:42:07.000Z</time>
      </trkpt>
      <trkpt lat="50.523365" lon="25.706259">
        <ele>299.179558</ele>
        <time>2019-06-05T07:42:09.000Z</time>
      </trkpt>
      <trkpt lat="50.523403" lon="25.706390">
        <ele>299.273257</ele>
        <time>2019-06-05T07:42:11.000Z</time>
      </trkpt>
      <trkpt lat="50.523450" lon="25.706533">
        <ele>299.378011</ele>
        <time>2019-06-05T07:42:13.000Z</time>
      </trkpt>
      <trkpt lat="50.523490" lon="25.706667">
        <ele>299.474342</ele>
        <time>2019-06-05T07:42:15.000Z</time>
      </trkpt>
      <trkpt lat="50.523560" lon="25.706856">
        <ele>299.616677</ele>
        <time>2019-06-05T07:42:18.000Z</time>
      </trkpt>
      <trkpt lat="50.523590" lon="25.706997">
        <ele>299.713431</ele>
        <time>2019-06-05T07:42:20.000Z</time>
      </trkpt>
      <trkpt lat="50.523620" lon="25.707134">
        <ele>299.807721</ele>
        <time>2019-06-05T07:42:22.000Z</time>
      </trkpt>
      <trkpt lat="50.523650" lon="25.707272">
        <ele>299.902626</ele>
        <time>2019-06-05T07:42:24.000Z</time>
      </trkpt>
      <trkpt lat="50.523690" lon="25.707407">
        <ele>299.999546</ele>
        <time>2019-06-05T07:42:26.000Z</time>
      </trkpt>
      <trkpt lat="50.523740" lon="25.707535">
        <ele>300.097304</ele>
        <time>2019-06-05T07:42:28.000Z</time>
      </trkpt>
      <trkpt lat="50.523785" lon="25.707664">
        <ele>300.193054</ele>
        <time>2019-06-05T07:42:30.000Z</time>
      </trkpt>
      <trkpt lat="50.523820" lon="25.707798">
        <ele>300.287323</ele>
        <time>2019-06-05T07:42:32.000Z</time>
      </trkpt>
      <trkpt lat="50.523850" lon="25.707937">
        <ele>300.382843</ele>
        <time>2019-06-05T07:42:34.000Z</time>
      </trkpt>
      <trkpt lat="50.523888" lon="25.708076">
        <ele>300.481302</ele>
        <time>2019-06-05T07:42:36.000Z</time>
      </trkpt>
      <trkpt lat="50.523926" lon="25.708216">
        <ele>300.580358</ele>
        <time>2019-06-05T07:42:38.000Z</time>
      </trkpt>
      <trkpt lat="50.523964" lon="25.708355">
        <ele>300.759682</ele>
        <time>2019-06-05T07:42:40.000Z</time>
      </trkpt>
      <trkpt lat="50.524002" lon="25.708506">
        <ele>300.998738</ele>
        <time>2019-06-05T07:42:42.000Z</time>
      </trkpt>
      <trkpt lat="50.524036" lon="25.708650">
        <ele>301.224857</ele>
        <time>2019-06-05T07:42:44.000Z</time>
      </trkpt>
      <trkpt lat="50.524070" lon="25.708790">
        <ele>301.445465</ele>
        <time>2019-06-05T07:42:46.000Z</time>
      </trkpt>
      <trkpt lat="50.524110" lon="25.708927">
        <ele>301.667382</ele>
        <time>2019-06-05T07:42:48.000Z</time>
      </trkpt>
      <trkpt lat="50.524143" lon="25.709072">
        <ele>301.894090</ele>
        <time>2019-06-05T07:42:50.000Z</time>
      </trkpt>
      <trkpt lat="50.524180" lon="25.709211">
        <ele>302.115912</ele>
        <time>2019-06-05T07:42:52.000Z</time>
      </trkpt>
      <trkpt lat="50.524220" lon="25.709352">
        <ele>302.343193</ele>
        <time>2019-06-05T07:42:54.000Z</time>
      </trkpt>
      <trkpt lat="50.524250" lon="25.709486">
        <ele>302.552317</ele>
        <time>2019-06-05T07:42:56.000Z</time>
      </trkpt>
      <trkpt lat="50.524290" lon="25.709620">
        <ele>302.770229</ele>
        <time>2019-06-05T07:42:58.000Z</time>
      </trkpt>
      <trkpt lat="50.524338" lon="25.709806">
        <ele>303.065721</ele>
        <time>2019-06-05T07:43:01.000Z</time>
      </trkpt>
      <trkpt lat="50.524384" lon="25.709997">
        <ele>303.366374</ele>
        <time>2019-06-05T07:43:04.000Z</time>
      </trkpt>
      <trkpt lat="50.524440" lon="25.710188">
        <ele>303.675988</ele>
        <time>2019-06-05T07:43:07.000Z</time>
      </trkpt>
      <trkpt lat="50.524483" lon="25.710323">
        <ele>303.898255</ele>
        <time>2019-06-05T07:43:09.000Z</time>
      </trkpt>
      <trkpt lat="50.524525" lon="25.710459">
        <ele>304.120819</ele>
        <time>2019-06-05T07:43:11.000Z</time>
      </trkpt>
      <trkpt lat="50.524567" lon="25.710594">
        <ele>304.342059</ele>
        <time>2019-06-05T07:43:13.000Z</time>
      </trkpt>
      <trkpt lat="50.524597" lon="25.710735">
        <ele>304.560927</ele>
        <time>2019-06-05T07:43:15.000Z</time>
      </trkpt>
      <trkpt lat="50.524628" lon="25.710888">
        <ele>304.784521</ele>
        <time>2019-06-05T07:43:17.000Z</time>
      </trkpt>
      <trkpt lat="50.524666" lon="25.711042">
        <ele>304.854763</ele>
        <time>2019-06-05T07:43:19.000Z</time>
      </trkpt>
      <trkpt lat="50.524704" lon="25.711182">
        <ele>304.919492</ele>
        <time>2019-06-05T07:43:21.000Z</time>
      </trkpt>
      <trkpt lat="50.524742" lon="25.711313">
        <ele>304.980719</ele>
        <time>2019-06-05T07:43:23.000Z</time>
      </trkpt>
      <trkpt lat="50.524780" lon="25.711454">
        <ele>305.045839</ele>
        <time>2019-06-05T07:43:25.000Z</time>
      </trkpt>
      <trkpt lat="50.524815" lon="25.711592">
        <ele>305.109016</ele>
        <time>2019-06-05T07:43:27.000Z</time>
      </trkpt>
      <trkpt lat="50.524850" lon="25.711727">
        <ele>305.171009</ele>
        <time>2019-06-05T07:43:29.000Z</time>
      </trkpt>
      <trkpt lat="50.524883" lon="25.711864">
        <ele>305.233305</ele>
        <time>2019-06-05T07:43:31.000Z</time>
      </trkpt>
      <trkpt lat="50.524918" lon="25.711998">
        <ele>305.294904</ele>
        <time>2019-06-05T07:43:33.000Z</time>
      </trkpt>
      <trkpt lat="50.524952" lon="25.712128">
        <ele>305.354677</ele>
        <time>2019-06-05T07:43:35.000Z</time>
      </trkpt>
      <trkpt lat="50.524986" lon="25.712265">
        <ele>305.417212</ele>
        <time>2019-06-05T07:43:37.000Z</time>
      </trkpt>
      <trkpt lat="50.525036" lon="25.712470">
        <ele>305.510575</ele>
        <time>2019-06-05T07:43:40.000Z</time>
      </trkpt>
      <trkpt lat="50.525066" lon="25.712603">
        <ele>305.570583</ele>
        <time>2019-06-05T07:43:42.000Z</time>
      </trkpt>
      <trkpt lat="50.525100" lon="25.712748">
        <ele>305.636298</ele>
        <time>2019-06-05T07:43:44.000Z</time>
      </trkpt>
      <trkpt lat="50.525140" lon="25.712896">
        <ele>305.704680</ele>
        <time>2019-06-05T07:43:46.000Z</time>
      </trkpt>
      <trkpt lat="50.525177" lon="25.713036">
        <ele>305.769149</ele>
        <time>2019-06-05T07:43:48.000Z</time>
      </trkpt>
      <trkpt lat="50.525215" lon="25.713167">
        <ele>305.830376</ele>
        <time>2019-06-05T07:43:50.000Z</time>
      </trkpt>
      <trkpt lat="50.525250" lon="25.713303">
        <ele>305.892763</ele>
        <time>2019-06-05T07:43:52.000Z</time>
      </trkpt>
      <trkpt lat="50.525284" lon="25.713444">
        <ele>305.956885</ele>
        <time>2019-06-05T07:43:54.000Z</time>
      </trkpt>
      <trkpt lat="50.525322" lon="25.713585">
        <ele>306.003282</ele>
        <time>2019-06-05T07:43:56.000Z</time>
      </trkpt>
      <trkpt lat="50.525360" lon="25.713728">
        <ele>306.038079</ele>
        <time>2019-06-05T07:43:58.000Z</time>
      </trkpt>
      <trkpt lat="50.525394" lon="25.713867">
        <ele>306.071517</ele>
        <time>2019-06-05T07:44:00.000Z</time>
      </trkpt>
      <trkpt lat="50.525425" lon="25.714016">
        <ele>306.106715</ele>
        <time>2019-06-05T07:44:02.000Z</time>
      </trkpt>
      <trkpt lat="50.525455" lon="25.714163">
        <ele>306.141378</ele>
        <time>2019-06-05T07:44:04.000Z</time>
      </trkpt>
      <trkpt lat="50.525494" lon="25.714310">
        <ele>306.177140</ele>
        <time>2019-06-05T07:44:06.000Z</time>
      </trkpt>
      <trkpt lat="50.525524" lon="25.714449">
        <ele>306.210096</ele>
        <time>2019-06-05T07:44:08.000Z</time>
      </trkpt>
      <trkpt lat="50.525560" lon="25.714590">
        <ele>306.244210</ele>
        <time>2019-06-05T07:44:10.000Z</time>
      </trkpt>
      <trkpt lat="50.525580" lon="25.714740">
        <ele>306.278620</ele>
        <time>2019-06-05T07:44:12.000Z</time>
      </trkpt>
      <trkpt lat="50.525608" lon="25.714888">
        <ele>306.313288</ele>
        <time>2019-06-05T07:44:14.000Z</time>
      </trkpt>
      <trkpt lat="50.525642" lon="25.715038">
        <ele>306.349041</ele>
        <time>2019-06-05T07:44:16.000Z</time>
      </trkpt>
      <trkpt lat="50.525680" lon="25.715189">
        <ele>306.385502</ele>
        <time>2019-06-05T07:44:18.000Z</time>
      </trkpt>
      <trkpt lat="50.525710" lon="25.715332">
        <ele>306.419310</ele>
        <time>2019-06-05T07:44:20.000Z</time>
      </trkpt>
      <trkpt lat="50.525740" lon="25.715475">
        <ele>306.453118</ele>
        <time>2019-06-05T07:44:22.000Z</time>
      </trkpt>
      <trkpt lat="50.525772" lon="25.715628">
        <ele>306.489280</ele>
        <time>2019-06-05T07:44:24.000Z</time>
      </trkpt>
      <trkpt lat="50.525803" lon="25.715780">
        <ele>306.525119</ele>
        <time>2019-06-05T07:44:26.000Z</time>
      </trkpt>
      <trkpt lat="50.525830" lon="25.715927">
        <ele>306.559472</ele>
        <time>2019-06-05T07:44:28.000Z</time>
      </trkpt>
      <trkpt lat="50.525864" lon="25.716074">
        <ele>306.594591</ele>
        <time>2019-06-05T07:44:30.000Z</time>
      </trkpt>
      <trkpt lat="50.525894" lon="25.716223">
        <ele>306.616326</ele>
        <time>2019-06-05T07:44:32.000Z</time>
      </trkpt>
      <trkpt lat="50.525930" lon="25.716381">
        <ele>306.612565</ele>
        <time>2019-06-05T07:44:34.000Z</time>
      </trkpt>
      <trkpt lat="50.525950" lon="25.716530">
        <ele>306.609153</ele>
        <time>2019-06-05T07:44:36.000Z</time>
      </trkpt>
      <trkpt lat="50.525980" lon="25.716677">
        <ele>306.605693</ele>
        <time>2019-06-05T07:44:38.000Z</time>
      </trkpt>
      <trkpt lat="50.526010" lon="25.716818">
        <ele>306.602362</ele>
        <time>2019-06-05T07:44:40.000Z</time>
      </trkpt>
      <trkpt lat="50.526030" lon="25.716974">
        <ele>306.598796</ele>
        <time>2019-06-05T07:44:42.000Z</time>
      </trkpt>
      <trkpt lat="50.526066" lon="25.717129">
        <ele>306.595098</ele>
        <time>2019-06-05T07:44:44.000Z</time>
      </trkpt>
      <trkpt lat="50.526096" lon="25.717280">
        <ele>306.591553</ele>
        <time>2019-06-05T07:44:46.000Z</time>
      </trkpt>
      <trkpt lat="50.526130" lon="25.717428">
        <ele>306.588027</ele>
        <time>2019-06-05T07:44:48.000Z</time>
      </trkpt>
      <trkpt lat="50.526160" lon="25.717579">
        <ele>306.584482</ele>
        <time>2019-06-05T07:44:50.000Z</time>
      </trkpt>
      <trkpt lat="50.526190" lon="25.717728">
        <ele>306.580980</ele>
        <time>2019-06-05T07:44:52.000Z</time>
      </trkpt>
      <trkpt lat="50.526230" lon="25.717884">
        <ele>306.577211</ele>
        <time>2019-06-05T07:44:54.000Z</time>
      </trkpt>
      <trkpt lat="50.526268" lon="25.718037">
        <ele>306.573531</ele>
        <time>2019-06-05T07:44:56.000Z</time>
      </trkpt>
      <trkpt lat="50.526314" lon="25.718191">
        <ele>306.569718</ele>
        <time>2019-06-05T07:44:58.000Z</time>
      </trkpt>
      <trkpt lat="50.526344" lon="25.718346">
        <ele>306.566088</ele>
        <time>2019-06-05T07:45:00.000Z</time>
      </trkpt>
      <trkpt lat="50.526375" lon="25.718504">
        <ele>306.562383</ele>
        <time>2019-06-05T07:45:02.000Z</time>
      </trkpt>
      <trkpt lat="50.526400" lon="25.718662">
        <ele>306.558734</ele>
        <time>2019-06-05T07:45:04.000Z</time>
      </trkpt>
      <trkpt lat="50.526420" lon="25.718828">
        <ele>306.554949</ele>
        <time>2019-06-05T07:45:06.000Z</time>
      </trkpt>
      <trkpt lat="50.526450" lon="25.718992">
        <ele>306.151923</ele>
        <time>2019-06-05T07:45:08.000Z</time>
      </trkpt>
      <trkpt lat="50.526470" lon="25.719145">
        <ele>305.685412</ele>
        <time>2019-06-05T07:45:10.000Z</time>
      </trkpt>
      <trkpt lat="50.526497" lon="25.719300">
        <ele>305.205424</ele>
        <time>2019-06-05T07:45:12.000Z</time>
      </trkpt>
      <trkpt lat="50.526527" lon="25.719452">
        <ele>304.730085</ele>
        <time>2019-06-05T07:45:14.000Z</time>
      </trkpt>
      <trkpt lat="50.526560" lon="25.719603">
        <ele>304.253204</ele>
        <time>2019-06-05T07:45:16.000Z</time>
      </trkpt>
      <trkpt lat="50.526596" lon="25.719748">
        <ele>303.788293</ele>
        <time>2019-06-05T07:45:18.000Z</time>
      </trkpt>
      <trkpt lat="50.526630" lon="25.719900">
        <ele>303.307049</ele>
        <time>2019-06-05T07:45:20.000Z</time>
      </trkpt>
      <trkpt lat="50.526660" lon="25.720058">
        <ele>302.814569</ele>
        <time>2019-06-05T07:45:22.000Z</time>
      </trkpt>
      <trkpt lat="50.526690" lon="25.720205">
        <ele>302.353472</ele>
        <time>2019-06-05T07:45:24.000Z</time>
      </trkpt>
      <trkpt lat="50.526722" lon="25.720360">
        <ele>301.866751</ele>
        <time>2019-06-05T07:45:26.000Z</time>
      </trkpt>
      <trkpt lat="50.526740" lon="25.720522">
        <ele>301.375589</ele>
        <time>2019-06-05T07:45:28.000Z</time>
      </trkpt>
      <trkpt lat="50.526770" lon="25.720678">
        <ele>300.888830</ele>
        <time>2019-06-05T07:45:30.000Z</time>
      </trkpt>
      <trkpt lat="50.526806" lon="25.720830">
        <ele>300.404387</ele>
        <time>2019-06-05T07:45:32.000Z</time>
      </trkpt>
      <trkpt lat="50.526833" lon="25.720987">
        <ele>299.918639</ele>
        <time>2019-06-05T07:45:34.000Z</time>
      </trkpt>
      <trkpt lat="50.526870" lon="25.721142">
        <ele>299.424159</ele>
        <time>2019-06-05T07:45:36.000Z</time>
      </trkpt>
      <trkpt lat="50.526894" lon="25.721304">
        <ele>298.927369</ele>
        <time>2019-06-05T07:45:38.000Z</time>
      </trkpt>
      <trkpt lat="50.526920" lon="25.721458">
        <ele>298.451493</ele>
        <time>2019-06-05T07:45:40.000Z</time>
      </trkpt>
      <trkpt lat="50.526950" lon="25.721617">
        <ele>298.008992</ele>
        <time>2019-06-05T07:45:42.000Z</time>
      </trkpt>
      <trkpt lat="50.526985" lon="25.721773">
        <ele>297.691310</ele>
        <time>2019-06-05T07:45:44.000Z</time>
      </trkpt>
      <trkpt lat="50.527016" lon="25.721930">
        <ele>297.375610</ele>
        <time>2019-06-05T07:45:46.000Z</time>
      </trkpt>
      <trkpt lat="50.527046" lon="25.722090">
        <ele>297.055271</ele>
        <time>2019-06-05T07:45:48.000Z</time>
      </trkpt>
      <trkpt lat="50.527077" lon="25.722246">
        <ele>296.741405</ele>
        <time>2019-06-05T07:45:50.000Z</time>
      </trkpt>
      <trkpt lat="50.527115" lon="25.722400">
        <ele>296.424178</ele>
        <time>2019-06-05T07:45:52.000Z</time>
      </trkpt>
      <trkpt lat="50.527140" lon="25.722557">
        <ele>296.113372</ele>
        <time>2019-06-05T07:45:54.000Z</time>
      </trkpt>
      <trkpt lat="50.527172" lon="25.722717">
        <ele>295.791273</ele>
        <time>2019-06-05T07:45:56.000Z</time>
      </trkpt>
      <trkpt lat="50.527206" lon="25.722880">
        <ele>295.461841</ele>
        <time>2019-06-05T07:45:58.000Z</time>
      </trkpt>
      <trkpt lat="50.527250" lon="25.723051">
        <ele>295.107587</ele>
        <time>2019-06-05T07:46:00.000Z</time>
      </trkpt>
      <trkpt lat="50.527283" lon="25.723228">
        <ele>294.753373</ele>
        <time>2019-06-05T07:46:02.000Z</time>
      </trkpt>
      <trkpt lat="50.527320" lon="25.723408">
        <ele>294.390095</ele>
        <time>2019-06-05T07:46:04.000Z</time>
      </trkpt>
      <trkpt lat="50.527360" lon="25.723583">
        <ele>294.032977</ele>
        <time>2019-06-05T07:46:06.000Z</time>
      </trkpt>
      <trkpt lat="50.527397" lon="25.723763">
        <ele>293.669699</ele>
        <time>2019-06-05T07:46:08.000Z</time>
      </trkpt>
      <trkpt lat="50.527435" lon="25.723946">
        <ele>293.300009</ele>
        <time>2019-06-05T07:46:10.000Z</time>
      </trkpt>
      <trkpt lat="50.527466" lon="25.724121">
        <ele>292.951150</ele>
        <time>2019-06-05T07:46:12.000Z</time>
      </trkpt>
      <trkpt lat="50.527500" lon="25.724300">
        <ele>292.621852</ele>
        <time>2019-06-05T07:46:14.000Z</time>
      </trkpt>
      <trkpt lat="50.527540" lon="25.724487">
        <ele>292.385108</ele>
        <time>2019-06-05T07:46:16.000Z</time>
      </trkpt>
      <trkpt lat="50.527580" lon="25.724672">
        <ele>292.150637</ele>
        <time>2019-06-05T07:46:18.000Z</time>
      </trkpt>
      <trkpt lat="50.527620" lon="25.724854">
        <ele>291.919572</ele>
        <time>2019-06-05T07:46:20.000Z</time>
      </trkpt>
      <trkpt lat="50.527657" lon="25.725030">
        <ele>291.697140</ele>
        <time>2019-06-05T07:46:22.000Z</time>
      </trkpt>
      <trkpt lat="50.527687" lon="25.725200">
        <ele>291.485443</ele>
        <time>2019-06-05T07:46:24.000Z</time>
      </trkpt>
      <trkpt lat="50.527720" lon="25.725382">
        <ele>291.258352</ele>
        <time>2019-06-05T07:46:26.000Z</time>
      </trkpt>
      <trkpt lat="50.527756" lon="25.725555">
        <ele>291.039931</ele>
        <time>2019-06-05T07:46:28.000Z</time>
      </trkpt>
      <trkpt lat="50.527794" lon="25.725729">
        <ele>290.819171</ele>
        <time>2019-06-05T07:46:30.000Z</time>
      </trkpt>
      <trkpt lat="50.527840" lon="25.725899">
        <ele>290.597479</ele>
        <time>2019-06-05T07:46:32.000Z</time>
      </trkpt>
      <trkpt lat="50.527900" lon="25.726158">
        <ele>290.266713</ele>
        <time>2019-06-05T07:46:35.000Z</time>
      </trkpt>
      <trkpt lat="50.527946" lon="25.726330">
        <ele>290.042811</ele>
        <time>2019-06-05T07:46:37.000Z</time>
      </trkpt>
      <trkpt lat="50.527985" lon="25.726503">
        <ele>289.822563</ele>
        <time>2019-06-05T07:46:39.000Z</time>
      </trkpt>
      <trkpt lat="50.528034" lon="25.726675">
        <ele>289.596405</ele>
        <time>2019-06-05T07:46:41.000Z</time>
      </trkpt>
      <trkpt lat="50.528080" lon="25.726852">
        <ele>289.366961</ele>
        <time>2019-06-05T07:46:43.000Z</time>
      </trkpt>
      <trkpt lat="50.528130" lon="25.727030">
        <ele>289.180142</ele>
        <time>2019-06-05T07:46:45.000Z</time>
      </trkpt>
      <trkpt lat="50.528180" lon="25.727196">
        <ele>289.031944</ele>
        <time>2019-06-05T07:46:47.000Z</time>
      </trkpt>
      <trkpt lat="50.528230" lon="25.727367">
        <ele>288.880091</ele>
        <time>2019-06-05T07:46:49.000Z</time>
      </trkpt>
      <trkpt lat="50.528275" lon="25.727543">
        <ele>288.727044</ele>
        <time>2019-06-05T07:46:51.000Z</time>
      </trkpt>
      <trkpt lat="50.528320" lon="25.727716">
        <ele>288.576240</ele>
        <time>2019-06-05T07:46:53.000Z</time>
      </trkpt>
      <trkpt lat="50.528366" lon="25.727892">
        <ele>288.422715</ele>
        <time>2019-06-05T07:46:55.000Z</time>
      </trkpt>
      <trkpt lat="50.528410" lon="25.728060">
        <ele>288.276125</ele>
        <time>2019-06-05T07:46:57.000Z</time>
      </trkpt>
      <trkpt lat="50.528454" lon="25.728230">
        <ele>288.128042</ele>
        <time>2019-06-05T07:46:59.000Z</time>
      </trkpt>
      <trkpt lat="50.528500" lon="25.728405">
        <ele>287.975263</ele>
        <time>2019-06-05T07:47:01.000Z</time>
      </trkpt>
      <trkpt lat="50.528557" lon="25.728570">
        <ele>287.823760</ele>
        <time>2019-06-05T07:47:03.000Z</time>
      </trkpt>
      <trkpt lat="50.528606" lon="25.728743">
        <ele>287.670962</ele>
        <time>2019-06-05T07:47:05.000Z</time>
      </trkpt>
      <trkpt lat="50.528652" lon="25.728920">
        <ele>287.516691</ele>
        <time>2019-06-05T07:47:07.000Z</time>
      </trkpt>
      <trkpt lat="50.528706" lon="25.729105">
        <ele>287.352457</ele>
        <time>2019-06-05T07:47:09.000Z</time>
      </trkpt>
      <trkpt lat="50.528750" lon="25.729286">
        <ele>287.196120</ele>
        <time>2019-06-05T07:47:11.000Z</time>
      </trkpt>
      <trkpt lat="50.528790" lon="25.729471">
        <ele>287.038471</ele>
        <time>2019-06-05T07:47:13.000Z</time>
      </trkpt>
      <trkpt lat="50.528843" lon="25.729654">
        <ele>286.802263</ele>
        <time>2019-06-05T07:47:15.000Z</time>
      </trkpt>
      <trkpt lat="50.528890" lon="25.729832">
        <ele>286.548478</ele>
        <time>2019-06-05T07:47:17.000Z</time>
      </trkpt>
      <trkpt lat="50.528940" lon="25.730017">
        <ele>286.283787</ele>
        <time>2019-06-05T07:47:19.000Z</time>
      </trkpt>
      <trkpt lat="50.528990" lon="25.730202">
        <ele>286.019098</ele>
        <time>2019-06-05T07:47:21.000Z</time>
      </trkpt>
      <trkpt lat="50.529034" lon="25.730385">
        <ele>285.761484</ele>
        <time>2019-06-05T07:47:23.000Z</time>
      </trkpt>
      <trkpt lat="50.529083" lon="25.730560">
        <ele>285.509701</ele>
        <time>2019-06-05T07:47:25.000Z</time>
      </trkpt>
      <trkpt lat="50.529133" lon="25.730734">
        <ele>285.258277</ele>
        <time>2019-06-05T07:47:27.000Z</time>
      </trkpt>
      <trkpt lat="50.529180" lon="25.730915">
        <ele>285.000840</ele>
        <time>2019-06-05T07:47:29.000Z</time>
      </trkpt>
      <trkpt lat="50.529220" lon="25.731090">
        <ele>284.755977</ele>
        <time>2019-06-05T07:47:31.000Z</time>
      </trkpt>
      <trkpt lat="50.529266" lon="25.731268">
        <ele>284.502980</ele>
        <time>2019-06-05T07:47:33.000Z</time>
      </trkpt>
      <trkpt lat="50.529312" lon="25.731443">
        <ele>284.253638</ele>
        <time>2019-06-05T07:47:35.000Z</time>
      </trkpt>
      <trkpt lat="50.529360" lon="25.731617">
        <ele>284.003893</ele>
        <time>2019-06-05T07:47:37.000Z</time>
      </trkpt>
      <trkpt lat="50.529410" lon="25.731792">
        <ele>283.751269</ele>
        <time>2019-06-05T07:47:39.000Z</time>
      </trkpt>
      <trkpt lat="50.529457" lon="25.731964">
        <ele>283.504763</ele>
        <time>2019-06-05T07:47:41.000Z</time>
      </trkpt>
      <trkpt lat="50.529495" lon="25.732136">
        <ele>283.266500</ele>
        <time>2019-06-05T07:47:43.000Z</time>
      </trkpt>
      <trkpt lat="50.529537" lon="25.732296">
        <ele>283.162530</ele>
        <time>2019-06-05T07:47:45.000Z</time>
      </trkpt>
      <trkpt lat="50.529583" lon="25.732452">
        <ele>283.059244</ele>
        <time>2019-06-05T07:47:47.000Z</time>
      </trkpt>
      <trkpt lat="50.529633" lon="25.732624">
        <ele>282.945648</ele>
        <time>2019-06-05T07:47:49.000Z</time>
      </trkpt>
      <trkpt lat="50.529680" lon="25.732805">
        <ele>282.828216</ele>
        <time>2019-06-05T07:47:51.000Z</time>
      </trkpt>
      <trkpt lat="50.529750" lon="25.733070">
        <ele>282.655859</ele>
        <time>2019-06-05T07:47:54.000Z</time>
      </trkpt>
      <trkpt lat="50.529793" lon="25.733244">
        <ele>282.543732</ele>
        <time>2019-06-05T07:47:56.000Z</time>
      </trkpt>
      <trkpt lat="50.529846" lon="25.733421">
        <ele>282.426220</ele>
        <time>2019-06-05T07:47:58.000Z</time>
      </trkpt>
      <trkpt lat="50.529892" lon="25.733597">
        <ele>282.311925</ele>
        <time>2019-06-05T07:48:00.000Z</time>
      </trkpt>
      <trkpt lat="50.529940" lon="25.733778">
        <ele>282.194134</ele>
        <time>2019-06-05T07:48:02.000Z</time>
      </trkpt>
      <trkpt lat="50.529995" lon="25.733953">
        <ele>282.076882</ele>
        <time>2019-06-05T07:48:04.000Z</time>
      </trkpt>
      <trkpt lat="50.530045" lon="25.734130">
        <ele>281.960549</ele>
        <time>2019-06-05T07:48:06.000Z</time>
      </trkpt>
      <trkpt lat="50.530098" lon="25.734314">
        <ele>281.839221</ele>
        <time>2019-06-05T07:48:08.000Z</time>
      </trkpt>
      <trkpt lat="50.530150" lon="25.734491">
        <ele>281.722108</ele>
        <time>2019-06-05T07:48:10.000Z</time>
      </trkpt>
      <trkpt lat="50.530193" lon="25.734663">
        <ele>281.611101</ele>
        <time>2019-06-05T07:48:12.000Z</time>
      </trkpt>
      <trkpt lat="50.530243" lon="25.734830">
        <ele>281.500339</ele>
        <time>2019-06-05T07:48:14.000Z</time>
      </trkpt>
      <trkpt lat="50.530285" lon="25.735003">
        <ele>281.389291</ele>
        <time>2019-06-05T07:48:16.000Z</time>
      </trkpt>
      <trkpt lat="50.530327" lon="25.735165">
        <ele>281.284379</ele>
        <time>2019-06-05T07:48:18.000Z</time>
      </trkpt>
      <trkpt lat="50.530365" lon="25.735332">
        <ele>281.178014</ele>
        <time>2019-06-05T07:48:20.000Z</time>
      </trkpt>
      <trkpt lat="50.530407" lon="25.735493">
        <ele>281.073657</ele>
        <time>2019-06-05T07:48:22.000Z</time>
      </trkpt>
      <trkpt lat="50.530445" lon="25.735655">
        <ele>280.970111</ele>
        <time>2019-06-05T07:48:24.000Z</time>
      </trkpt>
      <trkpt lat="50.530487" lon="25.735802">
        <ele>280.873468</ele>
        <time>2019-06-05T07:48:26.000Z</time>
      </trkpt>
      <trkpt lat="50.530530" lon="25.735937">
        <ele>280.782921</ele>
        <time>2019-06-05T07:48:28.000Z</time>
      </trkpt>
      <trkpt lat="50.530570" lon="25.736070">
        <ele>280.694692</ele>
        <time>2019-06-05T07:48:30.000Z</time>
      </trkpt>
      <trkpt lat="50.530605" lon="25.736216">
        <ele>280.601124</ele>
        <time>2019-06-05T07:48:32.000Z</time>
      </trkpt>
      <trkpt lat="50.530643" lon="25.736374">
        <ele>280.499825</ele>
        <time>2019-06-05T07:48:34.000Z</time>
      </trkpt>
      <trkpt lat="50.530690" lon="25.736526">
        <ele>280.398468</ele>
        <time>2019-06-05T07:48:36.000Z</time>
      </trkpt>
      <trkpt lat="50.530735" lon="25.736683">
        <ele>280.295195</ele>
        <time>2019-06-05T07:48:38.000Z</time>
      </trkpt>
      <trkpt lat="50.530773" lon="25.736837">
        <ele>280.196136</ele>
        <time>2019-06-05T07:48:40.000Z</time>
      </trkpt>
      <trkpt lat="50.530815" lon="25.736996">
        <ele>280.092888</ele>
        <time>2019-06-05T07:48:42.000Z</time>
      </trkpt>
      <trkpt lat="50.530853" lon="25.737160">
        <ele>279.988217</ele>
        <time>2019-06-05T07:48:44.000Z</time>
      </trkpt>
      <trkpt lat="50.530890" lon="25.737324">
        <ele>279.883865</ele>
        <time>2019-06-05T07:48:46.000Z</time>
      </trkpt>
      <trkpt lat="50.530930" lon="25.737482">
        <ele>279.776936</ele>
        <time>2019-06-05T07:48:48.000Z</time>
      </trkpt>
      <trkpt lat="50.530975" lon="25.737642">
        <ele>279.666234</ele>
        <time>2019-06-05T07:48:50.000Z</time>
      </trkpt>
      <trkpt lat="50.531010" lon="25.737790">
        <ele>279.566322</ele>
        <time>2019-06-05T07:48:52.000Z</time>
      </trkpt>
      <trkpt lat="50.531048" lon="25.737932">
        <ele>279.468839</ele>
        <time>2019-06-05T07:48:54.000Z</time>
      </trkpt>
      <trkpt lat="50.531086" lon="25.738077">
        <ele>279.369604</ele>
        <time>2019-06-05T07:48:56.000Z</time>
      </trkpt>
      <trkpt lat="50.531136" lon="25.738214">
        <ele>279.269651</ele>
        <time>2019-06-05T07:48:58.000Z</time>
      </trkpt>
      <trkpt lat="50.531174" lon="25.738354">
        <ele>279.173333</ele>
        <time>2019-06-05T07:49:00.000Z</time>
      </trkpt>
      <trkpt lat="50.531210" lon="25.738499">
        <ele>279.074840</ele>
        <time>2019-06-05T07:49:02.000Z</time>
      </trkpt>
      <trkpt lat="50.531240" lon="25.738640">
        <ele>278.980762</ele>
        <time>2019-06-05T07:49:04.000Z</time>
      </trkpt>
      <trkpt lat="50.531277" lon="25.738781">
        <ele>278.884247</ele>
        <time>2019-06-05T07:49:06.000Z</time>
      </trkpt>
      <trkpt lat="50.531320" lon="25.738928">
        <ele>278.781863</ele>
        <time>2019-06-05T07:49:08.000Z</time>
      </trkpt>
      <trkpt lat="50.531360" lon="25.739080">
        <ele>278.677775</ele>
        <time>2019-06-05T07:49:10.000Z</time>
      </trkpt>
      <trkpt lat="50.531395" lon="25.739227">
        <ele>278.578455</ele>
        <time>2019-06-05T07:49:12.000Z</time>
      </trkpt>
      <trkpt lat="50.531433" lon="25.739370">
        <ele>278.480390</ele>
        <time>2019-06-05T07:49:14.000Z</time>
      </trkpt>
      <trkpt lat="50.531464" lon="25.739510">
        <ele>278.386590</ele>
        <time>2019-06-05T07:49:16.000Z</time>
      </trkpt>
      <trkpt lat="50.531506" lon="25.739662">
        <ele>278.281724</ele>
        <time>2019-06-05T07:49:18.000Z</time>
      </trkpt>
      <trkpt lat="50.531544" lon="25.739822">
        <ele>278.173655</ele>
        <time>2019-06-05T07:49:20.000Z</time>
      </trkpt>
      <trkpt lat="50.531586" lon="25.739994">
        <ele>277.971923</ele>
        <time>2019-06-05T07:49:22.000Z</time>
      </trkpt>
      <trkpt lat="50.531628" lon="25.740173">
        <ele>277.426432</ele>
        <time>2019-06-05T07:49:24.000Z</time>
      </trkpt>
      <trkpt lat="50.531673" lon="25.740350">
        <ele>276.881437</ele>
        <time>2019-06-05T07:49:26.000Z</time>
      </trkpt>
      <trkpt lat="50.531710" lon="25.740526">
        <ele>276.351470</ele>
        <time>2019-06-05T07:49:28.000Z</time>
      </trkpt>
      <trkpt lat="50.531750" lon="25.740702">
        <ele>275.817113</ele>
        <time>2019-06-05T07:49:30.000Z</time>
      </trkpt>
      <trkpt lat="50.531796" lon="25.740887">
        <ele>275.249197</ele>
        <time>2019-06-05T07:49:32.000Z</time>
      </trkpt>
      <trkpt lat="50.531837" lon="25.741064">
        <ele>274.710625</ele>
        <time>2019-06-05T07:49:34.000Z</time>
      </trkpt>
      <trkpt lat="50.531876" lon="25.741241">
        <ele>274.175067</ele>
        <time>2019-06-05T07:49:36.000Z</time>
      </trkpt>
      <trkpt lat="50.531920" lon="25.741419">
        <ele>273.629065</ele>
        <time>2019-06-05T07:49:38.000Z</time>
      </trkpt>
      <trkpt lat="50.531963" lon="25.741615">
        <ele>273.036292</ele>
        <time>2019-06-05T07:49:40.000Z</time>
      </trkpt>
      <trkpt lat="50.532010" lon="25.741810">
        <ele>272.440083</ele>
        <time>2019-06-05T07:49:42.000Z</time>
      </trkpt>
      <trkpt lat="50.532047" lon="25.742000">
        <ele>271.871981</ele>
        <time>2019-06-05T07:49:44.000Z</time>
      </trkpt>
      <trkpt lat="50.532093" lon="25.742190">
        <ele>271.290732</ele>
        <time>2019-06-05T07:49:46.000Z</time>
      </trkpt>
      <trkpt lat="50.532135" lon="25.742382">
        <ele>270.710238</ele>
        <time>2019-06-05T07:49:48.000Z</time>
      </trkpt>
      <trkpt lat="50.532180" lon="25.742573">
        <ele>270.127897</ele>
        <time>2019-06-05T07:49:50.000Z</time>
      </trkpt>
      <trkpt lat="50.532223" lon="25.742764">
        <ele>269.654247</ele>
        <time>2019-06-05T07:49:52.000Z</time>
      </trkpt>
      <trkpt lat="50.532265" lon="25.742960">
        <ele>269.203870</ele>
        <time>2019-06-05T07:49:54.000Z</time>
      </trkpt>
      <trkpt lat="50.532310" lon="25.743166">
        <ele>268.729570</ele>
        <time>2019-06-05T07:49:56.000Z</time>
      </trkpt>
      <trkpt lat="50.532360" lon="25.743374">
        <ele>268.245359</ele>
        <time>2019-06-05T07:49:58.000Z</time>
      </trkpt>
      <trkpt lat="50.532413" lon="25.743582">
        <ele>267.757419</ele>
        <time>2019-06-05T07:50:00.000Z</time>
      </trkpt>
      <trkpt lat="50.532460" lon="25.743786">
        <ele>267.284946</ele>
        <time>2019-06-05T07:50:02.000Z</time>
      </trkpt>
      <trkpt lat="50.532500" lon="25.743996">
        <ele>266.807598</ele>
        <time>2019-06-05T07:50:04.000Z</time>
      </trkpt>
      <trkpt lat="50.532547" lon="25.744190">
        <ele>266.355535</ele>
        <time>2019-06-05T07:50:06.000Z</time>
      </trkpt>
      <trkpt lat="50.532590" lon="25.744380">
        <ele>265.916385</ele>
        <time>2019-06-05T07:50:08.000Z</time>
      </trkpt>
      <trkpt lat="50.532630" lon="25.744580">
        <ele>265.459853</ele>
        <time>2019-06-05T07:50:10.000Z</time>
      </trkpt>
      <trkpt lat="50.532673" lon="25.744768">
        <ele>265.024803</ele>
        <time>2019-06-05T07:50:12.000Z</time>
      </trkpt>
      <trkpt lat="50.532710" lon="25.744951">
        <ele>264.606664</ele>
        <time>2019-06-05T07:50:14.000Z</time>
      </trkpt>
      <trkpt lat="50.532757" lon="25.745136">
        <ele>264.172859</ele>
        <time>2019-06-05T07:50:16.000Z</time>
      </trkpt>
      <trkpt lat="50.532800" lon="25.745320">
        <ele>263.748134</ele>
        <time>2019-06-05T07:50:18.000Z</time>
      </trkpt>
      <trkpt lat="50.532840" lon="25.745485">
        <ele>263.373364</ele>
        <time>2019-06-05T07:50:20.000Z</time>
      </trkpt>
      <trkpt lat="50.532883" lon="25.745657">
        <ele>262.981123</ele>
        <time>2019-06-05T07:50:22.000Z</time>
      </trkpt>
      <trkpt lat="50.532925" lon="25.745846">
        <ele>262.556216</ele>
        <time>2019-06-05T07:50:24.000Z</time>
      </trkpt>
      <trkpt lat="50.532967" lon="25.746038">
        <ele>262.125295</ele>
        <time>2019-06-05T07:50:26.000Z</time>
      </trkpt>
      <trkpt lat="50.533010" lon="25.746243">
        <ele>261.667164</ele>
        <time>2019-06-05T07:50:28.000Z</time>
      </trkpt>
      <trkpt lat="50.533060" lon="25.746447">
        <ele>261.203161</ele>
        <time>2019-06-05T07:50:30.000Z</time>
      </trkpt>
      <trkpt lat="50.533108" lon="25.746647">
        <ele>260.749470</ele>
        <time>2019-06-05T07:50:32.000Z</time>
      </trkpt>
      <trkpt lat="50.533150" lon="25.746847">
        <ele>260.302462</ele>
        <time>2019-06-05T07:50:34.000Z</time>
      </trkpt>
      <trkpt lat="50.533195" lon="25.747050">
        <ele>259.846206</ele>
        <time>2019-06-05T07:50:36.000Z</time>
      </trkpt>
      <trkpt lat="50.533237" lon="25.747257">
        <ele>259.385070</ele>
        <time>2019-06-05T07:50:38.000Z</time>
      </trkpt>
      <trkpt lat="50.533287" lon="25.747454">
        <ele>258.934898</ele>
        <time>2019-06-05T07:50:40.000Z</time>
      </trkpt>
      <trkpt lat="50.533333" lon="25.747643">
        <ele>258.505403</ele>
        <time>2019-06-05T07:50:42.000Z</time>
      </trkpt>
      <trkpt lat="50.533382" lon="25.747828">
        <ele>258.080073</ele>
        <time>2019-06-05T07:50:44.000Z</time>
      </trkpt>
      <trkpt lat="50.533420" lon="25.748007">
        <ele>257.840750</ele>
        <time>2019-06-05T07:50:46.000Z</time>
      </trkpt>
      <trkpt lat="50.533460" lon="25.748186">
        <ele>257.883759</ele>
        <time>2019-06-05T07:50:48.000Z</time>
      </trkpt>
      <trkpt lat="50.533493" lon="25.748360">
        <ele>257.924919</ele>
        <time>2019-06-05T07:50:50.000Z</time>
      </trkpt>
      <trkpt lat="50.533527" lon="25.748528">
        <ele>257.964883</ele>
        <time>2019-06-05T07:50:52.000Z</time>
      </trkpt>
      <trkpt lat="50.533560" lon="25.748703">
        <ele>258.006260</ele>
        <time>2019-06-05T07:50:54.000Z</time>
      </trkpt>
      <trkpt lat="50.533604" lon="25.748877">
        <ele>258.048707</ele>
        <time>2019-06-05T07:50:56.000Z</time>
      </trkpt>
      <trkpt lat="50.533646" lon="25.749044">
        <ele>258.089417</ele>
        <time>2019-06-05T07:50:58.000Z</time>
      </trkpt>
      <trkpt lat="50.533676" lon="25.749212">
        <ele>258.128972</ele>
        <time>2019-06-05T07:51:00.000Z</time>
      </trkpt>
      <trkpt lat="50.533700" lon="25.749382">
        <ele>258.168445</ele>
        <time>2019-06-05T07:51:02.000Z</time>
      </trkpt>
      <trkpt lat="50.533720" lon="25.749560">
        <ele>258.209419</ele>
        <time>2019-06-05T07:51:04.000Z</time>
      </trkpt>
      <trkpt lat="50.533740" lon="25.749744">
        <ele>258.251732</ele>
        <time>2019-06-05T07:51:06.000Z</time>
      </trkpt>
      <trkpt lat="50.533756" lon="25.749926">
        <ele>258.293378</ele>
        <time>2019-06-05T07:51:08.000Z</time>
      </trkpt>
      <trkpt lat="50.533768" lon="25.750092">
        <ele>258.331248</ele>
        <time>2019-06-05T07:51:10.000Z</time>
      </trkpt>
      <trkpt lat="50.533780" lon="25.750261">
        <ele>258.369794</ele>
        <time>2019-06-05T07:51:12.000Z</time>
      </trkpt>
      <trkpt lat="50.533800" lon="25.750418">
        <ele>258.406089</ele>
        <time>2019-06-05T07:51:14.000Z</time>
      </trkpt>
      <trkpt lat="50.533825" lon="25.750578">
        <ele>258.443436</ele>
        <time>2019-06-05T07:51:16.000Z</time>
      </trkpt>
      <trkpt lat="50.533844" lon="25.750738">
        <ele>258.578350</ele>
        <time>2019-06-05T07:51:18.000Z</time>
      </trkpt>
      <trkpt lat="50.533850" lon="25.750883">
        <ele>258.846665</ele>
        <time>2019-06-05T07:51:20.000Z</time>
      </trkpt>
      <trkpt lat="50.533870" lon="25.751083">
        <ele>259.220517</ele>
        <time>2019-06-05T07:51:23.000Z</time>
      </trkpt>
      <trkpt lat="50.533886" lon="25.751291">
        <ele>259.607400</ele>
        <time>2019-06-05T07:51:26.000Z</time>
      </trkpt>
      <trkpt lat="50.533910" lon="25.751478">
        <ele>259.959672</ele>
        <time>2019-06-05T07:51:29.000Z</time>
      </trkpt>
      <trkpt lat="50.533924" lon="25.751648">
        <ele>260.276208</ele>
        <time>2019-06-05T07:51:32.000Z</time>
      </trkpt>
      <trkpt lat="50.533947" lon="25.751825">
        <ele>260.609806</ele>
        <time>2019-06-05T07:51:35.000Z</time>
      </trkpt>
      <trkpt lat="50.533960" lon="25.751995">
        <ele>260.925981</ele>
        <time>2019-06-05T07:51:38.000Z</time>
      </trkpt>
      <trkpt lat="50.533966" lon="25.752180">
        <ele>261.268035</ele>
        <time>2019-06-05T07:51:41.000Z</time>
      </trkpt>
      <trkpt lat="50.533970" lon="25.752352">
        <ele>261.585852</ele>
        <time>2019-06-05T07:51:44.000Z</time>
      </trkpt>
      <trkpt lat="50.533962" lon="25.752527">
        <ele>261.909831</ele>
        <time>2019-06-05T07:51:47.000Z</time>
      </trkpt>
      <trkpt lat="50.533950" lon="25.752705">
        <ele>262.240359</ele>
        <time>2019-06-05T07:51:50.000Z</time>
      </trkpt>
      <trkpt lat="50.533930" lon="25.752872">
        <ele>262.554157</ele>
        <time>2019-06-05T07:51:53.000Z</time>
      </trkpt>
      <trkpt lat="50.533913" lon="25.753044">
        <ele>262.875579</ele>
        <time>2019-06-05T07:51:56.000Z</time>
      </trkpt>
      <trkpt lat="50.533897" lon="25.753199">
        <ele>263.165543</ele>
        <time>2019-06-05T07:51:59.000Z</time>
      </trkpt>
      <trkpt lat="50.533875" lon="25.753376">
        <ele>263.498571</ele>
        <time>2019-06-05T07:52:02.000Z</time>
      </trkpt>
      <trkpt lat="50.533860" lon="25.753561">
        <ele>263.901468</ele>
        <time>2019-06-05T07:52:05.000Z</time>
      </trkpt>
      <trkpt lat="50.533830" lon="25.753738">
        <ele>264.370727</ele>
        <time>2019-06-05T07:52:08.000Z</time>
      </trkpt>
      <trkpt lat="50.533802" lon="25.753930">
        <ele>264.875347</ele>
        <time>2019-06-05T07:52:11.000Z</time>
      </trkpt>
      <trkpt lat="50.533764" lon="25.754110">
        <ele>265.361215</ele>
        <time>2019-06-05T07:52:14.000Z</time>
      </trkpt>
      <trkpt lat="50.533750" lon="25.754276">
        <ele>265.790180</ele>
        <time>2019-06-05T07:52:17.000Z</time>
      </trkpt>
      <trkpt lat="50.533722" lon="25.754448">
        <ele>266.245009</ele>
        <time>2019-06-05T07:52:20.000Z</time>
      </trkpt>
      <trkpt lat="50.533700" lon="25.754600">
        <ele>266.644351</ele>
        <time>2019-06-05T07:52:23.000Z</time>
      </trkpt>
      <trkpt lat="50.533680" lon="25.754750">
        <ele>267.036965</ele>
        <time>2019-06-05T07:52:26.000Z</time>
      </trkpt>
      <trkpt lat="50.533665" lon="25.754900">
        <ele>267.425943</ele>
        <time>2019-06-05T07:52:29.000Z</time>
      </trkpt>
      <trkpt lat="50.533646" lon="25.755041">
        <ele>267.795168</ele>
        <time>2019-06-05T07:52:32.000Z</time>
      </trkpt>
      <trkpt lat="50.533630" lon="25.755194">
        <ele>268.192374</ele>
        <time>2019-06-05T07:52:35.000Z</time>
      </trkpt>
      <trkpt lat="50.533623" lon="25.755348">
        <ele>268.587880</ele>
        <time>2019-06-05T07:52:38.000Z</time>
      </trkpt>
      <trkpt lat="50.533600" lon="25.755499">
        <ele>268.985645</ele>
        <time>2019-06-05T07:52:41.000Z</time>
      </trkpt>
      <trkpt lat="50.533573" lon="25.755644">
        <ele>269.372700</ele>
        <time>2019-06-05T07:52:44.000Z</time>
      </trkpt>
      <trkpt lat="50.533554" lon="25.755795">
        <ele>269.767021</ele>
        <time>2019-06-05T07:52:47.000Z</time>
      </trkpt>
      <trkpt lat="50.533527" lon="25.755947">
        <ele>270.171316</ele>
        <time>2019-06-05T07:52:50.000Z</time>
      </trkpt>
      <trkpt lat="50.533512" lon="25.756104">
        <ele>270.578019</ele>
        <time>2019-06-05T07:52:53.000Z</time>
      </trkpt>
      <trkpt lat="50.533497" lon="25.756256">
        <ele>270.960080</ele>
        <time>2019-06-05T07:52:56.000Z</time>
      </trkpt>
      <trkpt lat="50.533474" lon="25.756410">
        <ele>271.210551</ele>
        <time>2019-06-05T07:52:59.000Z</time>
      </trkpt>
      <trkpt lat="50.533450" lon="25.756575">
        <ele>271.478551</ele>
        <time>2019-06-05T07:53:02.000Z</time>
      </trkpt>
      <trkpt lat="50.533440" lon="25.756733">
        <ele>271.729952</ele>
        <time>2019-06-05T07:53:05.000Z</time>
      </trkpt>
      <trkpt lat="50.533420" lon="25.756900">
        <ele>271.999019</ele>
        <time>2019-06-05T07:53:08.000Z</time>
      </trkpt>
      <trkpt lat="50.533410" lon="25.757061">
        <ele>272.255147</ele>
        <time>2019-06-05T07:53:11.000Z</time>
      </trkpt>
      <trkpt lat="50.533400" lon="25.757229">
        <ele>272.522308</ele>
        <time>2019-06-05T07:53:14.000Z</time>
      </trkpt>
      <trkpt lat="50.533394" lon="25.757397">
        <ele>272.788725</ele>
        <time>2019-06-05T07:53:17.000Z</time>
      </trkpt>
      <trkpt lat="50.533398" lon="25.757551">
        <ele>273.032760</ele>
        <time>2019-06-05T07:53:20.000Z</time>
      </trkpt>
      <trkpt lat="50.533394" lon="25.757736">
        <ele>273.325843</ele>
        <time>2019-06-05T07:53:24.000Z</time>
      </trkpt>
      <trkpt lat="50.533424" lon="25.757938">
        <ele>273.654288</ele>
        <time>2019-06-05T07:53:28.000Z</time>
      </trkpt>
      <trkpt lat="50.533443" lon="25.758106">
        <ele>273.924462</ele>
        <time>2019-06-05T07:53:31.000Z</time>
      </trkpt>
      <trkpt lat="50.533450" lon="25.758295">
        <ele>274.224217</ele>
        <time>2019-06-05T07:53:34.000Z</time>
      </trkpt>
      <trkpt lat="50.533466" lon="25.758470">
        <ele>274.504149</ele>
        <time>2019-06-05T07:53:37.000Z</time>
      </trkpt>
      <trkpt lat="50.533480" lon="25.758661">
        <ele>274.808566</ele>
        <time>2019-06-05T07:53:40.000Z</time>
      </trkpt>
      <trkpt lat="50.533504" lon="25.758854">
        <ele>275.119939</ele>
        <time>2019-06-05T07:53:43.000Z</time>
      </trkpt>
      <trkpt lat="50.533516" lon="25.759040">
        <ele>275.415949</ele>
        <time>2019-06-05T07:53:46.000Z</time>
      </trkpt>
      <trkpt lat="50.533527" lon="25.759235">
        <ele>275.374751</ele>
        <time>2019-06-05T07:53:49.000Z</time>
      </trkpt>
      <trkpt lat="50.533550" lon="25.759432">
        <ele>275.326620</ele>
        <time>2019-06-05T07:53:52.000Z</time>
      </trkpt>
      <trkpt lat="50.533570" lon="25.759628">
        <ele>275.278919</ele>
        <time>2019-06-05T07:53:55.000Z</time>
      </trkpt>
      <trkpt lat="50.533580" lon="25.759775">
        <ele>275.243393</ele>
        <time>2019-06-05T07:53:57.000Z</time>
      </trkpt>
      <trkpt lat="50.533592" lon="25.759981">
        <ele>275.193684</ele>
        <time>2019-06-05T07:54:00.000Z</time>
      </trkpt>
      <trkpt lat="50.533615" lon="25.760185">
        <ele>275.143898</ele>
        <time>2019-06-05T07:54:03.000Z</time>
      </trkpt>
      <trkpt lat="50.533627" lon="25.760330">
        <ele>275.108760</ele>
        <time>2019-06-05T07:54:05.000Z</time>
      </trkpt>
      <trkpt lat="50.533640" lon="25.760471">
        <ele>275.074524</ele>
        <time>2019-06-05T07:54:07.000Z</time>
      </trkpt>
      <trkpt lat="50.533650" lon="25.760616">
        <ele>275.039476</ele>
        <time>2019-06-05T07:54:09.000Z</time>
      </trkpt>
      <trkpt lat="50.533665" lon="25.760763">
        <ele>275.003700</ele>
        <time>2019-06-05T07:54:11.000Z</time>
      </trkpt>
      <trkpt lat="50.533672" lon="25.760904">
        <ele>274.969714</ele>
        <time>2019-06-05T07:54:13.000Z</time>
      </trkpt>
      <trkpt lat="50.533688" lon="25.761047">
        <ele>274.934823</ele>
        <time>2019-06-05T07:54:15.000Z</time>
      </trkpt>
      <trkpt lat="50.533700" lon="25.761192">
        <ele>274.899686</ele>
        <time>2019-06-05T07:54:17.000Z</time>
      </trkpt>
      <trkpt lat="50.533722" lon="25.761400">
        <ele>274.849016</ele>
        <time>2019-06-05T07:54:20.000Z</time>
      </trkpt>
      <trkpt lat="50.533737" lon="25.761541">
        <ele>274.814663</ele>
        <time>2019-06-05T07:54:22.000Z</time>
      </trkpt>
      <trkpt lat="50.533752" lon="25.761753">
        <ele>274.763405</ele>
        <time>2019-06-05T07:54:25.000Z</time>
      </trkpt>
      <trkpt lat="50.533764" lon="25.761906">
        <ele>274.730510</ele>
        <time>2019-06-05T07:54:27.000Z</time>
      </trkpt>
      <trkpt lat="50.533783" lon="25.762054">
        <ele>274.704481</ele>
        <time>2019-06-05T07:54:29.000Z</time>
      </trkpt>
      <trkpt lat="50.533800" lon="25.762217">
        <ele>274.676005</ele>
        <time>2019-06-05T07:54:31.000Z</time>
      </trkpt>
      <trkpt lat="50.533810" lon="25.762370">
        <ele>274.649490</ele>
        <time>2019-06-05T07:54:33.000Z</time>
      </trkpt>
      <trkpt lat="50.533820" lon="25.762524">
        <ele>274.622803</ele>
        <time>2019-06-05T07:54:35.000Z</time>
      </trkpt>
      <trkpt lat="50.533830" lon="25.762674">
        <ele>274.596803</ele>
        <time>2019-06-05T07:54:37.000Z</time>
      </trkpt>
      <trkpt lat="50.533840" lon="25.762827">
        <ele>274.570288</ele>
        <time>2019-06-05T07:54:39.000Z</time>
      </trkpt>
      <trkpt lat="50.533850" lon="25.762983">
        <ele>274.543258</ele>
        <time>2019-06-05T07:54:41.000Z</time>
      </trkpt>
      <trkpt lat="50.533863" lon="25.763142">
        <ele>274.515622</ele>
        <time>2019-06-05T07:54:43.000Z</time>
      </trkpt>
      <trkpt lat="50.533875" lon="25.763294">
        <ele>274.489217</ele>
        <time>2019-06-05T07:54:45.000Z</time>
      </trkpt>
      <trkpt lat="50.533890" lon="25.763458">
        <ele>274.460653</ele>
        <time>2019-06-05T07:54:47.000Z</time>
      </trkpt>
      <trkpt lat="50.533905" lon="25.763622">
        <ele>274.432090</ele>
        <time>2019-06-05T07:54:49.000Z</time>
      </trkpt>
      <trkpt lat="50.533920" lon="25.763790">
        <ele>274.402844</ele>
        <time>2019-06-05T07:54:51.000Z</time>
      </trkpt>
      <trkpt lat="50.533940" lon="25.763954">
        <ele>274.374056</ele>
        <time>2019-06-05T07:54:53.000Z</time>
      </trkpt>
      <trkpt lat="50.533955" lon="25.764120">
        <ele>274.345151</ele>
        <time>2019-06-05T07:54:55.000Z</time>
      </trkpt>
      <trkpt lat="50.533970" lon="25.764288">
        <ele>274.315905</ele>
        <time>2019-06-05T07:54:57.000Z</time>
      </trkpt>
      <trkpt lat="50.533980" lon="25.764454">
        <ele>274.287160</ele>
        <time>2019-06-05T07:54:59.000Z</time>
      </trkpt>
      <trkpt lat="50.533993" lon="25.764622">
        <ele>274.257984</ele>
        <time>2019-06-05T07:55:01.000Z</time>
      </trkpt>
      <trkpt lat="50.534016" lon="25.764790">
        <ele>274.162502</ele>
        <time>2019-06-05T07:55:03.000Z</time>
      </trkpt>
      <trkpt lat="50.534023" lon="25.764965">
        <ele>274.052202</ele>
        <time>2019-06-05T07:55:05.000Z</time>
      </trkpt>
      <trkpt lat="50.534042" lon="25.765146">
        <ele>273.936804</ele>
        <time>2019-06-05T07:55:07.000Z</time>
      </trkpt>
      <trkpt lat="50.534060" lon="25.765327">
        <ele>273.821563</ele>
        <time>2019-06-05T07:55:09.000Z</time>
      </trkpt>
      <trkpt lat="50.534084" lon="25.765509">
        <ele>273.704641</ele>
        <time>2019-06-05T07:55:11.000Z</time>
      </trkpt>
      <trkpt lat="50.534100" lon="25.765688">
        <ele>273.590935</ele>
        <time>2019-06-05T07:55:13.000Z</time>
      </trkpt>
      <trkpt lat="50.534115" lon="25.765867">
        <ele>273.477364</ele>
        <time>2019-06-05T07:55:15.000Z</time>
      </trkpt>
      <trkpt lat="50.534130" lon="25.766043">
        <ele>273.365662</ele>
        <time>2019-06-05T07:55:17.000Z</time>
      </trkpt>
      <trkpt lat="50.534140" lon="25.766220">
        <ele>273.253884</ele>
        <time>2019-06-05T07:55:19.000Z</time>
      </trkpt>
      <trkpt lat="50.534157" lon="25.766396">
        <ele>273.141903</ele>
        <time>2019-06-05T07:55:21.000Z</time>
      </trkpt>
      <trkpt lat="50.534170" lon="25.766575">
        <ele>273.028573</ele>
        <time>2019-06-05T07:55:23.000Z</time>
      </trkpt>
      <trkpt lat="50.534184" lon="25.766762">
        <ele>272.910130</ele>
        <time>2019-06-05T07:55:25.000Z</time>
      </trkpt>
      <trkpt lat="50.534200" lon="25.766940">
        <ele>272.797048</ele>
        <time>2019-06-05T07:55:27.000Z</time>
      </trkpt>
      <trkpt lat="50.534206" lon="25.767115">
        <ele>272.686807</ele>
        <time>2019-06-05T07:55:29.000Z</time>
      </trkpt>
      <trkpt lat="50.534220" lon="25.767292">
        <ele>272.574609</ele>
        <time>2019-06-05T07:55:31.000Z</time>
      </trkpt>
      <trkpt lat="50.534240" lon="25.767464">
        <ele>272.458353</ele>
        <time>2019-06-05T07:55:33.000Z</time>
      </trkpt>
      <trkpt lat="50.534252" lon="25.767637">
        <ele>272.268981</ele>
        <time>2019-06-05T07:55:35.000Z</time>
      </trkpt>
      <trkpt lat="50.534267" lon="25.767813">
        <ele>272.075749</ele>
        <time>2019-06-05T07:55:37.000Z</time>
      </trkpt>
      <trkpt lat="50.534283" lon="25.767990">
        <ele>271.881204</ele>
        <time>2019-06-05T07:55:39.000Z</time>
      </trkpt>
      <trkpt lat="50.534294" lon="25.768166">
        <ele>271.688762</ele>
        <time>2019-06-05T07:55:41.000Z</time>
      </trkpt>
      <trkpt lat="50.534310" lon="25.768341">
        <ele>271.496371</ele>
        <time>2019-06-05T07:55:43.000Z</time>
      </trkpt>
      <trkpt lat="50.534317" lon="25.768518">
        <ele>271.303392</ele>
        <time>2019-06-05T07:55:45.000Z</time>
      </trkpt>
      <trkpt lat="50.534330" lon="25.768690">
        <ele>271.114908</ele>
        <time>2019-06-05T07:55:47.000Z</time>
      </trkpt>
      <trkpt lat="50.534340" lon="25.768867">
        <ele>270.921542</ele>
        <time>2019-06-05T07:55:49.000Z</time>
      </trkpt>
      <trkpt lat="50.534355" lon="25.769043">
        <ele>270.728310</ele>
        <time>2019-06-05T07:55:51.000Z</time>
      </trkpt>
      <trkpt lat="50.534378" lon="25.769213">
        <ele>270.539176</ele>
        <time>2019-06-05T07:55:53.000Z</time>
      </trkpt>
      <trkpt lat="50.534400" lon="25.769384">
        <ele>270.349325</ele>
        <time>2019-06-05T07:55:55.000Z</time>
      </trkpt>
      <trkpt lat="50.534416" lon="25.769554">
        <ele>270.162319</ele>
        <time>2019-06-05T07:55:57.000Z</time>
      </trkpt>
      <trkpt lat="50.534440" lon="25.769720">
        <ele>269.977069</ele>
        <time>2019-06-05T07:55:59.000Z</time>
      </trkpt>
      <trkpt lat="50.534466" lon="25.769896">
        <ele>269.780446</ele>
        <time>2019-06-05T07:56:01.000Z</time>
      </trkpt>
      <trkpt lat="50.534504" lon="25.770071">
        <ele>269.579211</ele>
        <time>2019-06-05T07:56:03.000Z</time>
      </trkpt>
      <trkpt lat="50.534546" lon="25.770250">
        <ele>269.386424</ele>
        <time>2019-06-05T07:56:05.000Z</time>
      </trkpt>
      <trkpt lat="50.534576" lon="25.770432">
        <ele>269.317709</ele>
        <time>2019-06-05T07:56:07.000Z</time>
      </trkpt>
      <trkpt lat="50.534610" lon="25.770636">
        <ele>269.240634</ele>
        <time>2019-06-05T07:56:09.000Z</time>
      </trkpt>
      <trkpt lat="50.534645" lon="25.770834">
        <ele>269.165526</ele>
        <time>2019-06-05T07:56:11.000Z</time>
      </trkpt>
      <trkpt lat="50.534683" lon="25.771032">
        <ele>269.089938</ele>
        <time>2019-06-05T07:56:13.000Z</time>
      </trkpt>
      <trkpt lat="50.534718" lon="25.771236">
        <ele>269.012715</ele>
        <time>2019-06-05T07:56:15.000Z</time>
      </trkpt>
      <trkpt lat="50.534750" lon="25.771446">
        <ele>268.933794</ele>
        <time>2019-06-05T07:56:17.000Z</time>
      </trkpt>
      <trkpt lat="50.534782" lon="25.771637">
        <ele>268.861606</ele>
        <time>2019-06-05T07:56:19.000Z</time>
      </trkpt>
      <trkpt lat="50.534805" lon="25.771830">
        <ele>268.789843</ele>
        <time>2019-06-05T07:56:21.000Z</time>
      </trkpt>
      <trkpt lat="50.534830" lon="25.772022">
        <ele>268.718217</ele>
        <time>2019-06-05T07:56:23.000Z</time>
      </trkpt>
      <trkpt lat="50.534866" lon="25.772207">
        <ele>268.647509</ele>
        <time>2019-06-05T07:56:25.000Z</time>
      </trkpt>
      <trkpt lat="50.534904" lon="25.772390">
        <ele>268.577151</ele>
        <time>2019-06-05T07:56:27.000Z</time>
      </trkpt>
      <trkpt lat="50.534930" lon="25.772577">
        <ele>268.507194</ele>
        <time>2019-06-05T07:56:29.000Z</time>
      </trkpt>
      <trkpt lat="50.534966" lon="25.772755">
        <ele>268.438928</ele>
        <time>2019-06-05T07:56:31.000Z</time>
      </trkpt>
      <trkpt lat="50.534992" lon="25.772926">
        <ele>268.374671</ele>
        <time>2019-06-05T07:56:33.000Z</time>
      </trkpt>
      <trkpt lat="50.535027" lon="25.773110">
        <ele>268.441571</ele>
        <time>2019-06-05T07:56:35.000Z</time>
      </trkpt>
      <trkpt lat="50.535057" lon="25.773283">
        <ele>268.538593</ele>
        <time>2019-06-05T07:56:37.000Z</time>
      </trkpt>
      <trkpt lat="50.535088" lon="25.773462">
        <ele>268.638970</ele>
        <time>2019-06-05T07:56:39.000Z</time>
      </trkpt>
      <trkpt lat="50.535120" lon="25.773623">
        <ele>268.730238</ele>
        <time>2019-06-05T07:56:41.000Z</time>
      </trkpt>
      <trkpt lat="50.535140" lon="25.773770">
        <ele>268.811573</ele>
        <time>2019-06-05T07:56:43.000Z</time>
      </trkpt>
      <trkpt lat="50.535160" lon="25.773909">
        <ele>268.888681</ele>
        <time>2019-06-05T07:56:45.000Z</time>
      </trkpt>
      <trkpt lat="50.535183" lon="25.774046">
        <ele>268.965345</ele>
        <time>2019-06-05T07:56:47.000Z</time>
      </trkpt>
      <trkpt lat="50.535220" lon="25.774183">
        <ele>269.045882</ele>
        <time>2019-06-05T07:56:49.000Z</time>
      </trkpt>
      <trkpt lat="50.535244" lon="25.774320">
        <ele>269.122769</ele>
        <time>2019-06-05T07:56:51.000Z</time>
      </trkpt>
      <trkpt lat="50.535267" lon="25.774467">
        <ele>269.204676</ele>
        <time>2019-06-05T07:56:53.000Z</time>
      </trkpt>
      <trkpt lat="50.535286" lon="25.774605">
        <ele>269.281071</ele>
        <time>2019-06-05T07:56:55.000Z</time>
      </trkpt>
      <trkpt lat="50.535297" lon="25.774746">
        <ele>269.357930</ele>
        <time>2019-06-05T07:56:57.000Z</time>
      </trkpt>
      <trkpt lat="50.535328" lon="25.774939">
        <ele>269.465634</ele>
        <time>2019-06-05T07:57:00.000Z</time>
      </trkpt>
      <trkpt lat="50.535362" lon="25.775074">
        <ele>269.544199</ele>
        <time>2019-06-05T07:57:02.000Z</time>
      </trkpt>
      <trkpt lat="50.535390" lon="25.775210">
        <ele>269.621545</ele>
        <time>2019-06-05T07:57:04.000Z</time>
      </trkpt>
      <trkpt lat="50.535410" lon="25.775349">
        <ele>269.698652</ele>
        <time>2019-06-05T07:57:06.000Z</time>
      </trkpt>
      <trkpt lat="50.535435" lon="25.775543">
        <ele>269.805749</ele>
        <time>2019-06-05T07:57:09.000Z</time>
      </trkpt>
      <trkpt lat="50.535465" lon="25.775740">
        <ele>269.845283</ele>
        <time>2019-06-05T07:57:12.000Z</time>
      </trkpt>
      <trkpt lat="50.535500" lon="25.775944">
        <ele>269.633347</ele>
        <time>2019-06-05T07:57:15.000Z</time>
      </trkpt>
      <trkpt lat="50.535540" lon="25.776148">
        <ele>269.419219</ele>
        <time>2019-06-05T07:57:18.000Z</time>
      </trkpt>
      <trkpt lat="50.535564" lon="25.776287">
        <ele>269.274749</ele>
        <time>2019-06-05T07:57:20.000Z</time>
      </trkpt>
      <trkpt lat="50.535595" lon="25.776438">
        <ele>269.115591</ele>
        <time>2019-06-05T07:57:22.000Z</time>
      </trkpt>
      <trkpt lat="50.535625" lon="25.776606">
        <ele>268.940563</ele>
        <time>2019-06-05T07:57:24.000Z</time>
      </trkpt>
      <trkpt lat="50.535652" lon="25.776775">
        <ele>268.765783</ele>
        <time>2019-06-05T07:57:26.000Z</time>
      </trkpt>
      <trkpt lat="50.535683" lon="25.776940">
        <ele>268.593209</ele>
        <time>2019-06-05T07:57:28.000Z</time>
      </trkpt>
      <trkpt lat="50.535713" lon="25.777113">
        <ele>268.413348</ele>
        <time>2019-06-05T07:57:30.000Z</time>
      </trkpt>
      <trkpt lat="50.535744" lon="25.777287">
        <ele>268.232100</ele>
        <time>2019-06-05T07:57:32.000Z</time>
      </trkpt>
      <trkpt lat="50.535770" lon="25.777450">
        <ele>268.063541</ele>
        <time>2019-06-05T07:57:34.000Z</time>
      </trkpt>
      <trkpt lat="50.535797" lon="25.777613">
        <ele>267.894592</ele>
        <time>2019-06-05T07:57:36.000Z</time>
      </trkpt>
      <trkpt lat="50.535820" lon="25.777773">
        <ele>267.730059</ele>
        <time>2019-06-05T07:57:38.000Z</time>
      </trkpt>
      <trkpt lat="50.535840" lon="25.777937">
        <ele>267.562567</ele>
        <time>2019-06-05T07:57:40.000Z</time>
      </trkpt>
      <trkpt lat="50.535854" lon="25.778100">
        <ele>267.397593</ele>
        <time>2019-06-05T07:57:42.000Z</time>
      </trkpt>
      <trkpt lat="50.535870" lon="25.778261">
        <ele>267.234148</ele>
        <time>2019-06-05T07:57:44.000Z</time>
      </trkpt>
      <trkpt lat="50.535890" lon="25.778430">
        <ele>267.061729</ele>
        <time>2019-06-05T07:57:46.000Z</time>
      </trkpt>
      <trkpt lat="50.535908" lon="25.778600">
        <ele>267.042997</ele>
        <time>2019-06-05T07:57:48.000Z</time>
      </trkpt>
      <trkpt lat="50.535923" lon="25.778776">
        <ele>267.032691</ele>
        <time>2019-06-05T07:57:50.000Z</time>
      </trkpt>
      <trkpt lat="50.535946" lon="25.778946">
        <ele>267.022604</ele>
        <time>2019-06-05T07:57:52.000Z</time>
      </trkpt>
      <trkpt lat="50.535957" lon="25.779121">
        <ele>267.012398</ele>
        <time>2019-06-05T07:57:54.000Z</time>
      </trkpt>
      <trkpt lat="50.535973" lon="25.779300">
        <ele>267.001907</ele>
        <time>2019-06-05T07:57:56.000Z</time>
      </trkpt>
      <trkpt lat="50.535980" lon="25.779474">
        <ele>266.991788</ele>
        <time>2019-06-05T07:57:58.000Z</time>
      </trkpt>
      <trkpt lat="50.536000" lon="25.779640">
        <ele>266.981983</ele>
        <time>2019-06-05T07:58:00.000Z</time>
      </trkpt>
      <trkpt lat="50.536015" lon="25.779810">
        <ele>266.972022</ele>
        <time>2019-06-05T07:58:02.000Z</time>
      </trkpt>
      <trkpt lat="50.536026" lon="25.779982">
        <ele>266.961989</ele>
        <time>2019-06-05T07:58:04.000Z</time>
      </trkpt>
      <trkpt lat="50.536040" lon="25.780146">
        <ele>266.952386</ele>
        <time>2019-06-05T07:58:06.000Z</time>
      </trkpt>
      <trkpt lat="50.536057" lon="25.780315">
        <ele>266.942456</ele>
        <time>2019-06-05T07:58:08.000Z</time>
      </trkpt>
      <trkpt lat="50.536076" lon="25.780476">
        <ele>266.932952</ele>
        <time>2019-06-05T07:58:10.000Z</time>
      </trkpt>
      <trkpt lat="50.536100" lon="25.780622">
        <ele>266.924200</ele>
        <time>2019-06-05T07:58:12.000Z</time>
      </trkpt>
      <trkpt lat="50.536120" lon="25.780762">
        <ele>266.915872</ele>
        <time>2019-06-05T07:58:14.000Z</time>
      </trkpt>
      <trkpt lat="50.536140" lon="25.780940">
        <ele>266.905382</ele>
        <time>2019-06-05T07:58:17.000Z</time>
      </trkpt>
      <trkpt lat="50.536156" lon="25.781105">
        <ele>266.895695</ele>
        <time>2019-06-05T07:58:20.000Z</time>
      </trkpt>
      <trkpt lat="50.536170" lon="25.781256">
        <ele>266.863314</ele>
        <time>2019-06-05T07:58:23.000Z</time>
      </trkpt>
      <trkpt lat="50.536190" lon="25.781395">
        <ele>266.714946</ele>
        <time>2019-06-05T07:58:26.000Z</time>
      </trkpt>
      <trkpt lat="50.536213" lon="25.781565">
        <ele>266.534003</ele>
        <time>2019-06-05T07:58:29.000Z</time>
      </trkpt>
      <trkpt lat="50.536236" lon="25.781765">
        <ele>266.322413</ele>
        <time>2019-06-05T07:58:32.000Z</time>
      </trkpt>
      <trkpt lat="50.536247" lon="25.781908">
        <ele>266.172457</ele>
        <time>2019-06-05T07:58:34.000Z</time>
      </trkpt>
      <trkpt lat="50.536263" lon="25.782051">
        <ele>266.021298</ele>
        <time>2019-06-05T07:58:36.000Z</time>
      </trkpt>
      <trkpt lat="50.536270" lon="25.782198">
        <ele>265.867835</ele>
        <time>2019-06-05T07:58:38.000Z</time>
      </trkpt>
      <trkpt lat="50.536297" lon="25.782402">
        <ele>265.650906</ele>
        <time>2019-06-05T07:58:41.000Z</time>
      </trkpt>
      <trkpt lat="50.536320" lon="25.782597">
        <ele>265.444436</ele>
        <time>2019-06-05T07:58:44.000Z</time>
      </trkpt>
      <trkpt lat="50.536335" lon="25.782803">
        <ele>265.228578</ele>
        <time>2019-06-05T07:58:47.000Z</time>
      </trkpt>
      <trkpt lat="50.536358" lon="25.783007">
        <ele>265.012889</ele>
        <time>2019-06-05T07:58:50.000Z</time>
      </trkpt>
      <trkpt lat="50.536373" lon="25.783155">
        <ele>264.856868</ele>
        <time>2019-06-05T07:58:52.000Z</time>
      </trkpt>
      <trkpt lat="50.536385" lon="25.783302">
        <ele>264.702577</ele>
        <time>2019-06-05T07:58:54.000Z</time>
      </trkpt>
      <trkpt lat="50.536392" lon="25.783453">
        <ele>264.544962</ele>
        <time>2019-06-05T07:58:56.000Z</time>
      </trkpt>
      <trkpt lat="50.536404" lon="25.783619">
        <ele>264.371035</ele>
        <time>2019-06-05T07:58:58.000Z</time>
      </trkpt>
      <trkpt lat="50.536420" lon="25.783781">
        <ele>264.200362</ele>
        <time>2019-06-05T07:59:00.000Z</time>
      </trkpt>
      <trkpt lat="50.536430" lon="25.783958">
        <ele>264.015370</ele>
        <time>2019-06-05T07:59:02.000Z</time>
      </trkpt>
      <trkpt lat="50.536440" lon="25.784138">
        <ele>263.707016</ele>
        <time>2019-06-05T07:59:04.000Z</time>
      </trkpt>
      <trkpt lat="50.536453" lon="25.784330">
        <ele>263.295668</ele>
        <time>2019-06-05T07:59:06.000Z</time>
      </trkpt>
      <trkpt lat="50.536460" lon="25.784520">
        <ele>262.890216</ele>
        <time>2019-06-05T07:59:08.000Z</time>
      </trkpt>
      <trkpt lat="50.536472" lon="25.784702">
        <ele>262.500406</ele>
        <time>2019-06-05T07:59:10.000Z</time>
      </trkpt>
      <trkpt lat="50.536480" lon="25.784883">
        <ele>262.113876</ele>
        <time>2019-06-05T07:59:12.000Z</time>
      </trkpt>
      <trkpt lat="50.536490" lon="25.785060">
        <ele>261.735311</ele>
        <time>2019-06-05T07:59:14.000Z</time>
      </trkpt>
      <trkpt lat="50.536503" lon="25.785234">
        <ele>261.362073</ele>
        <time>2019-06-05T07:59:16.000Z</time>
      </trkpt>
      <trkpt lat="50.536514" lon="25.785402">
        <ele>261.002275</ele>
        <time>2019-06-05T07:59:18.000Z</time>
      </trkpt>
      <trkpt lat="50.536522" lon="25.785574">
        <ele>260.634870</ele>
        <time>2019-06-05T07:59:20.000Z</time>
      </trkpt>
      <trkpt lat="50.536533" lon="25.785742">
        <ele>260.275072</ele>
        <time>2019-06-05T07:59:22.000Z</time>
      </trkpt>
      <trkpt lat="50.536552" lon="25.785913">
        <ele>259.905253</ele>
        <time>2019-06-05T07:59:24.000Z</time>
      </trkpt>
      <trkpt lat="50.536570" lon="25.786102">
        <ele>259.498116</ele>
        <time>2019-06-05T07:59:26.000Z</time>
      </trkpt>
      <trkpt lat="50.536583" lon="25.786291">
        <ele>259.093124</ele>
        <time>2019-06-05T07:59:28.000Z</time>
      </trkpt>
      <trkpt lat="50.536594" lon="25.786484">
        <ele>258.680311</ele>
        <time>2019-06-05T07:59:30.000Z</time>
      </trkpt>
      <trkpt lat="50.536602" lon="25.786678">
        <ele>258.266150</ele>
        <time>2019-06-05T07:59:32.000Z</time>
      </trkpt>
      <trkpt lat="50.536617" lon="25.786877">
        <ele>257.852626</ele>
        <time>2019-06-05T07:59:34.000Z</time>
      </trkpt>
      <trkpt lat="50.536633" lon="25.787070">
        <ele>257.512818</ele>
        <time>2019-06-05T07:59:36.000Z</time>
      </trkpt>
      <trkpt lat="50.536636" lon="25.787264">
        <ele>257.174017</ele>
        <time>2019-06-05T07:59:38.000Z</time>
      </trkpt>
      <trkpt lat="50.536650" lon="25.787464">
        <ele>256.822731</ele>
        <time>2019-06-05T07:59:40.000Z</time>
      </trkpt>
      <trkpt lat="50.536663" lon="25.787653">
        <ele>256.490833</ele>
        <time>2019-06-05T07:59:42.000Z</time>
      </trkpt>
      <trkpt lat="50.536674" lon="25.787846">
        <ele>256.152527</ele>
        <time>2019-06-05T07:59:44.000Z</time>
      </trkpt>
      <trkpt lat="50.536686" lon="25.788044">
        <ele>255.805276</ele>
        <time>2019-06-05T07:59:46.000Z</time>
      </trkpt>
      <trkpt lat="50.536697" lon="25.788237">
        <ele>255.466970</ele>
        <time>2019-06-05T07:59:48.000Z</time>
      </trkpt>
      <trkpt lat="50.536713" lon="25.788437">
        <ele>255.115040</ele>
        <time>2019-06-05T07:59:50.000Z</time>
      </trkpt>
      <trkpt lat="50.536728" lon="25.788624">
        <ele>254.785972</ele>
        <time>2019-06-05T07:59:52.000Z</time>
      </trkpt>
      <trkpt lat="50.536740" lon="25.788813">
        <ele>254.454360</ele>
        <time>2019-06-05T07:59:54.000Z</time>
      </trkpt>
      <trkpt lat="50.536750" lon="25.788996">
        <ele>254.133687</ele>
        <time>2019-06-05T07:59:56.000Z</time>
      </trkpt>
      <trkpt lat="50.536762" lon="25.789177">
        <ele>253.815969</ele>
        <time>2019-06-05T07:59:58.000Z</time>
      </trkpt>
      <trkpt lat="50.536774" lon="25.789358">
        <ele>253.498252</ele>
        <time>2019-06-05T08:00:00.000Z</time>
      </trkpt>
      <trkpt lat="50.536780" lon="25.789540">
        <ele>253.180076</ele>
        <time>2019-06-05T08:00:02.000Z</time>
      </trkpt>
      <trkpt lat="50.536793" lon="25.789715">
        <ele>252.821586</ele>
        <time>2019-06-05T08:00:04.000Z</time>
      </trkpt>
      <trkpt lat="50.536804" lon="25.789890">
        <ele>252.358821</ele>
        <time>2019-06-05T08:00:06.000Z</time>
      </trkpt>
      <trkpt lat="50.536810" lon="25.790068">
        <ele>251.889751</ele>
        <time>2019-06-05T08:00:08.000Z</time>
      </trkpt>
      <trkpt lat="50.536820" lon="25.790247">
        <ele>251.416891</ele>
        <time>2019-06-05T08:00:10.000Z</time>
      </trkpt>
      <trkpt lat="50.536830" lon="25.790436">
        <ele>250.917811</ele>
        <time>2019-06-05T08:00:12.000Z</time>
      </trkpt>
      <trkpt lat="50.536846" lon="25.790625">
        <ele>250.416060</ele>
        <time>2019-06-05T08:00:14.000Z</time>
      </trkpt>
      <trkpt lat="50.536854" lon="25.790812">
        <ele>249.922851</ele>
        <time>2019-06-05T08:00:16.000Z</time>
      </trkpt>
      <trkpt lat="50.536873" lon="25.790995">
        <ele>249.434898</ele>
        <time>2019-06-05T08:00:18.000Z</time>
      </trkpt>
      <trkpt lat="50.536877" lon="25.791166">
        <ele>248.984603</ele>
        <time>2019-06-05T08:00:20.000Z</time>
      </trkpt>
      <trkpt lat="50.536884" lon="25.791310">
        <ele>248.604556</ele>
        <time>2019-06-05T08:00:22.000Z</time>
      </trkpt>
      <trkpt lat="50.536892" lon="25.791520">
        <ele>248.050944</ele>
        <time>2019-06-05T08:00:25.000Z</time>
      </trkpt>
      <trkpt lat="50.536907" lon="25.791702">
        <ele>247.567996</ele>
        <time>2019-06-05T08:00:28.000Z</time>
      </trkpt>
      <trkpt lat="50.536910" lon="25.791847">
        <ele>247.186223</ele>
        <time>2019-06-05T08:00:31.000Z</time>
      </trkpt>
      <trkpt lat="50.536873" lon="25.791980">
        <ele>246.804172</ele>
        <time>2019-06-05T08:00:34.000Z</time>
      </trkpt>
      <trkpt lat="50.536846" lon="25.792131">
        <ele>246.391386</ele>
        <time>2019-06-05T08:00:39.000Z</time>
      </trkpt>
      <trkpt lat="50.536915" lon="25.792233">
        <ele>245.999388</ele>
        <time>2019-06-05T08:04:36.000Z</time>
      </trkpt>
      <trkpt lat="50.536953" lon="25.792380">
        <ele>245.581783</ele>
        <time>2019-06-05T08:04:39.000Z</time>
      </trkpt>
      <trkpt lat="50.536987" lon="25.792543">
        <ele>245.161219</ele>
        <time>2019-06-05T08:04:42.000Z</time>
      </trkpt>
      <trkpt lat="50.537003" lon="25.792730">
        <ele>244.703464</ele>
        <time>2019-06-05T08:04:45.000Z</time>
      </trkpt>
      <trkpt lat="50.537020" lon="25.792873">
        <ele>244.350530</ele>
        <time>2019-06-05T08:04:47.000Z</time>
      </trkpt>
      <trkpt lat="50.537037" lon="25.793024">
        <ele>243.978501</ele>
        <time>2019-06-05T08:04:49.000Z</time>
      </trkpt>
      <trkpt lat="50.537040" lon="25.793182">
        <ele>243.595022</ele>
        <time>2019-06-05T08:04:51.000Z</time>
      </trkpt>
      <trkpt lat="50.537052" lon="25.793352">
        <ele>243.180066</ele>
        <time>2019-06-05T08:04:53.000Z</time>
      </trkpt>
      <trkpt lat="50.537067" lon="25.793531">
        <ele>242.742054</ele>
        <time>2019-06-05T08:04:55.000Z</time>
      </trkpt>
      <trkpt lat="50.537086" lon="25.793713">
        <ele>242.294606</ele>
        <time>2019-06-05T08:04:57.000Z</time>
      </trkpt>
      <trkpt lat="50.537100" lon="25.793995">
        <ele>241.608391</ele>
        <time>2019-06-05T08:05:00.000Z</time>
      </trkpt>
      <trkpt lat="50.537110" lon="25.794205">
        <ele>241.097504</ele>
        <time>2019-06-05T08:05:02.000Z</time>
      </trkpt>
      <trkpt lat="50.537125" lon="25.794416">
        <ele>240.582427</ele>
        <time>2019-06-05T08:05:04.000Z</time>
      </trkpt>
      <trkpt lat="50.537132" lon="25.794626">
        <ele>240.072268</ele>
        <time>2019-06-05T08:05:06.000Z</time>
      </trkpt>
      <trkpt lat="50.537148" lon="25.794838">
        <ele>239.554344</ele>
        <time>2019-06-05T08:05:08.000Z</time>
      </trkpt>
      <trkpt lat="50.537150" lon="25.795044">
        <ele>239.054531</ele>
        <time>2019-06-05T08:05:10.000Z</time>
      </trkpt>
      <trkpt lat="50.537155" lon="25.795235">
        <ele>238.664739</ele>
        <time>2019-06-05T08:05:12.000Z</time>
      </trkpt>
      <trkpt lat="50.537160" lon="25.795420">
        <ele>238.692968</ele>
        <time>2019-06-05T08:05:14.000Z</time>
      </trkpt>
      <trkpt lat="50.537167" lon="25.795599">
        <ele>238.720308</ele>
        <time>2019-06-05T08:05:16.000Z</time>
      </trkpt>
      <trkpt lat="50.537174" lon="25.795765">
        <ele>238.745670</ele>
        <time>2019-06-05T08:05:18.000Z</time>
      </trkpt>
      <trkpt lat="50.537174" lon="25.795920">
        <ele>238.769299</ele>
        <time>2019-06-05T08:05:20.000Z</time>
      </trkpt>
      <trkpt lat="50.537167" lon="25.796070">
        <ele>238.792228</ele>
        <time>2019-06-05T08:05:22.000Z</time>
      </trkpt>
      <trkpt lat="50.537160" lon="25.796259">
        <ele>238.821090</ele>
        <time>2019-06-05T08:05:25.000Z</time>
      </trkpt>
      <trkpt lat="50.537150" lon="25.796452">
        <ele>238.850610</ele>
        <time>2019-06-05T08:05:28.000Z</time>
      </trkpt>
      <trkpt lat="50.537144" lon="25.796667">
        <ele>238.883418</ele>
        <time>2019-06-05T08:05:31.000Z</time>
      </trkpt>
      <trkpt lat="50.537144" lon="25.796858">
        <ele>238.912536</ele>
        <time>2019-06-05T08:05:34.000Z</time>
      </trkpt>
      <trkpt lat="50.537140" lon="25.797049">
        <ele>238.941669</ele>
        <time>2019-06-05T08:05:37.000Z</time>
      </trkpt>
      <trkpt lat="50.537140" lon="25.797256">
        <ele>238.973226</ele>
        <time>2019-06-05T08:05:40.000Z</time>
      </trkpt>
      <trkpt lat="50.537130" lon="25.797450">
        <ele>239.002898</ele>
        <time>2019-06-05T08:05:43.000Z</time>
      </trkpt>
      <trkpt lat="50.537120" lon="25.797636">
        <ele>239.031355</ele>
        <time>2019-06-05T08:05:46.000Z</time>
      </trkpt>
      <trkpt lat="50.537125" lon="25.797825">
        <ele>239.060192</ele>
        <time>2019-06-05T08:05:49.000Z</time>
      </trkpt>
      <trkpt lat="50.537125" lon="25.798012">
        <ele>239.088700</ele>
        <time>2019-06-05T08:05:52.000Z</time>
      </trkpt>
      <trkpt lat="50.537120" lon="25.798206">
        <ele>239.417589</ele>
        <time>2019-06-05T08:05:55.000Z</time>
      </trkpt>
      <trkpt lat="50.537110" lon="25.798393">
        <ele>239.769126</ele>
        <time>2019-06-05T08:05:58.000Z</time>
      </trkpt>
      <trkpt lat="50.537094" lon="25.798595">
        <ele>240.150452</ele>
        <time>2019-06-05T08:06:01.000Z</time>
      </trkpt>
      <trkpt lat="50.537090" lon="25.798780">
        <ele>240.497206</ele>
        <time>2019-06-05T08:06:04.000Z</time>
      </trkpt>
      <trkpt lat="50.537086" lon="25.798956">
        <ele>240.827111</ele>
        <time>2019-06-05T08:06:07.000Z</time>
      </trkpt>
      <trkpt lat="50.537070" lon="25.799130">
        <ele>241.156453</ele>
        <time>2019-06-05T08:06:10.000Z</time>
      </trkpt>
      <trkpt lat="50.537064" lon="25.799294">
        <ele>241.464176</ele>
        <time>2019-06-05T08:06:13.000Z</time>
      </trkpt>
      <trkpt lat="50.537052" lon="25.799448">
        <ele>241.754819</ele>
        <time>2019-06-05T08:06:16.000Z</time>
      </trkpt>
      <trkpt lat="50.537056" lon="25.799593">
        <ele>242.026698</ele>
        <time>2019-06-05T08:06:19.000Z</time>
      </trkpt>
      <trkpt lat="50.537067" lon="25.799740">
        <ele>242.303970</ele>
        <time>2019-06-05T08:06:22.000Z</time>
      </trkpt>
      <trkpt lat="50.537086" lon="25.799887">
        <ele>242.584976</ele>
        <time>2019-06-05T08:06:25.000Z</time>
      </trkpt>
      <trkpt lat="50.537100" lon="25.800034">
        <ele>242.863420</ele>
        <time>2019-06-05T08:06:28.000Z</time>
      </trkpt>
      <trkpt lat="50.537117" lon="25.800179">
        <ele>243.139625</ele>
        <time>2019-06-05T08:06:31.000Z</time>
      </trkpt>
      <trkpt lat="50.537136" lon="25.800323">
        <ele>243.415126</ele>
        <time>2019-06-05T08:06:34.000Z</time>
      </trkpt>
      <trkpt lat="50.537140" lon="25.800510">
        <ele>243.765624</ele>
        <time>2019-06-05T08:06:38.000Z</time>
      </trkpt>
      <trkpt lat="50.537148" lon="25.800660">
        <ele>244.047601</ele>
        <time>2019-06-05T08:06:41.000Z</time>
      </trkpt>
      <trkpt lat="50.537163" lon="25.800837">
        <ele>244.382102</ele>
        <time>2019-06-05T08:06:45.000Z</time>
      </trkpt>
      <trkpt lat="50.537186" lon="25.801014">
        <ele>244.856394</ele>
        <time>2019-06-05T08:06:49.000Z</time>
      </trkpt>
      <trkpt lat="50.537197" lon="25.801186">
        <ele>245.314548</ele>
        <time>2019-06-05T08:06:53.000Z</time>
      </trkpt>
      <trkpt lat="50.537210" lon="25.801376">
        <ele>245.821015</ele>
        <time>2019-06-05T08:06:58.000Z</time>
      </trkpt>
      <trkpt lat="50.537220" lon="25.801560">
        <ele>246.310450</ele>
        <time>2019-06-05T08:07:02.000Z</time>
      </trkpt>
      <trkpt lat="50.537224" lon="25.801704">
        <ele>246.692457</ele>
        <time>2019-06-05T08:07:05.000Z</time>
      </trkpt>
      <trkpt lat="50.537243" lon="25.801884">
        <ele>247.176046</ele>
        <time>2019-06-05T08:07:09.000Z</time>
      </trkpt>
      <trkpt lat="50.537260" lon="25.802052">
        <ele>247.626903</ele>
        <time>2019-06-05T08:07:13.000Z</time>
      </trkpt>
      <trkpt lat="50.537270" lon="25.802221">
        <ele>248.076741</ele>
        <time>2019-06-05T08:07:17.000Z</time>
      </trkpt>
      <trkpt lat="50.537285" lon="25.802391">
        <ele>248.531612</ele>
        <time>2019-06-05T08:07:21.000Z</time>
      </trkpt>
      <trkpt lat="50.537300" lon="25.802563">
        <ele>248.991734</ele>
        <time>2019-06-05T08:07:25.000Z</time>
      </trkpt>
      <trkpt lat="50.537300" lon="25.802721">
        <ele>249.410481</ele>
        <time>2019-06-05T08:07:29.000Z</time>
      </trkpt>
      <trkpt lat="50.537308" lon="25.802898">
        <ele>249.880768</ele>
        <time>2019-06-05T08:07:33.000Z</time>
      </trkpt>
      <trkpt lat="50.537334" lon="25.803068">
        <ele>250.344179</ele>
        <time>2019-06-05T08:07:37.000Z</time>
      </trkpt>
      <trkpt lat="50.537346" lon="25.803232">
        <ele>250.781698</ele>
        <time>2019-06-05T08:07:41.000Z</time>
      </trkpt>
      <trkpt lat="50.537354" lon="25.803410">
        <ele>251.254628</ele>
        <time>2019-06-05T08:07:45.000Z</time>
      </trkpt>
      <trkpt lat="50.537365" lon="25.803558">
        <ele>251.649545</ele>
        <time>2019-06-05T08:07:48.000Z</time>
      </trkpt>
      <trkpt lat="50.537388" lon="25.803713">
        <ele>252.001671</ele>
        <time>2019-06-05T08:07:51.000Z</time>
      </trkpt>
      <trkpt lat="50.537400" lon="25.803873">
        <ele>252.261625</ele>
        <time>2019-06-05T08:07:54.000Z</time>
      </trkpt>
      <trkpt lat="50.537410" lon="25.804039">
        <ele>252.530668</ele>
        <time>2019-06-05T08:07:57.000Z</time>
      </trkpt>
      <trkpt lat="50.537430" lon="25.804213">
        <ele>252.815973</ele>
        <time>2019-06-05T08:08:00.000Z</time>
      </trkpt>
      <trkpt lat="50.537450" lon="25.804382">
        <ele>253.093344</ele>
        <time>2019-06-05T08:08:03.000Z</time>
      </trkpt>
      <trkpt lat="50.537453" lon="25.804564">
        <ele>253.387101</ele>
        <time>2019-06-05T08:08:06.000Z</time>
      </trkpt>
      <trkpt lat="50.537476" lon="25.804760">
        <ele>253.708694</ele>
        <time>2019-06-05T08:08:09.000Z</time>
      </trkpt>
      <trkpt lat="50.537487" lon="25.804937">
        <ele>253.995648</ele>
        <time>2019-06-05T08:08:12.000Z</time>
      </trkpt>
      <trkpt lat="50.537500" lon="25.805110">
        <ele>254.276729</ele>
        <time>2019-06-05T08:08:15.000Z</time>
      </trkpt>
      <trkpt lat="50.537510" lon="25.805273">
        <ele>254.540953</ele>
        <time>2019-06-05T08:08:18.000Z</time>
      </trkpt>
      <trkpt lat="50.537525" lon="25.805418">
        <ele>254.777991</ele>
        <time>2019-06-05T08:08:21.000Z</time>
      </trkpt>
      <trkpt lat="50.537544" lon="25.805603">
        <ele>255.080362</ele>
        <time>2019-06-05T08:08:25.000Z</time>
      </trkpt>
      <trkpt lat="50.537550" lon="25.805782">
        <ele>255.369581</ele>
        <time>2019-06-05T08:08:29.000Z</time>
      </trkpt>
      <trkpt lat="50.537563" lon="25.805960">
        <ele>255.658675</ele>
        <time>2019-06-05T08:08:33.000Z</time>
      </trkpt>
      <trkpt lat="50.537580" lon="25.806135">
        <ele>255.944318</ele>
        <time>2019-06-05T08:08:37.000Z</time>
      </trkpt>
      <trkpt lat="50.537594" lon="25.806276">
        <ele>256.174582</ele>
        <time>2019-06-05T08:08:40.000Z</time>
      </trkpt>
      <trkpt lat="50.537617" lon="25.806454">
        <ele>256.476891</ele>
        <time>2019-06-05T08:08:44.000Z</time>
      </trkpt>
      <trkpt lat="50.537630" lon="25.806635">
        <ele>257.096522</ele>
        <time>2019-06-05T08:08:48.000Z</time>
      </trkpt>
      <trkpt lat="50.537643" lon="25.806818">
        <ele>257.722914</ele>
        <time>2019-06-05T08:08:52.000Z</time>
      </trkpt>
      <trkpt lat="50.537660" lon="25.806992">
        <ele>258.321767</ele>
        <time>2019-06-05T08:08:56.000Z</time>
      </trkpt>
      <trkpt lat="50.537670" lon="25.807137">
        <ele>258.817912</ele>
        <time>2019-06-05T08:08:59.000Z</time>
      </trkpt>
      <trkpt lat="50.537690" lon="25.807308">
        <ele>259.409373</ele>
        <time>2019-06-05T08:09:03.000Z</time>
      </trkpt>
      <trkpt lat="50.537700" lon="25.807476">
        <ele>259.983363</ele>
        <time>2019-06-05T08:09:07.000Z</time>
      </trkpt>
      <trkpt lat="50.537720" lon="25.807644">
        <ele>260.564791</ele>
        <time>2019-06-05T08:09:11.000Z</time>
      </trkpt>
      <trkpt lat="50.537773" lon="25.807768">
        <ele>261.073115</ele>
        <time>2019-06-05T08:09:16.000Z</time>
      </trkpt>
      <trkpt lat="50.537770" lon="25.807926">
        <ele>261.610826</ele>
        <time>2019-06-05T08:09:21.000Z</time>
      </trkpt>
      <trkpt lat="50.537773" lon="25.808075">
        <ele>262.117936</ele>
        <time>2019-06-05T08:09:27.000Z</time>
      </trkpt>
      <trkpt lat="50.537815" lon="25.808212">
        <ele>262.635353</ele>
        <time>2019-06-05T08:09:33.000Z</time>
      </trkpt>
      <trkpt lat="50.537820" lon="25.808376">
        <ele>263.193875</ele>
        <time>2019-06-05T08:09:38.000Z</time>
      </trkpt>
      <trkpt lat="50.537846" lon="25.808521">
        <ele>263.706377</ele>
        <time>2019-06-05T08:09:43.000Z</time>
      </trkpt>
      <trkpt lat="50.537853" lon="25.808683">
        <ele>264.258726</ele>
        <time>2019-06-05T08:09:49.000Z</time>
      </trkpt>
      <trkpt lat="50.537857" lon="25.808832">
        <ele>264.766033</ele>
        <time>2019-06-05T08:09:54.000Z</time>
      </trkpt>
      <trkpt lat="50.537907" lon="25.808950">
        <ele>265.248463</ele>
        <time>2019-06-05T08:09:58.000Z</time>
      </trkpt>
      <trkpt lat="50.537876" lon="25.809114">
        <ele>265.830493</ele>
        <time>2019-06-05T08:10:03.000Z</time>
      </trkpt>
      <trkpt lat="50.537945" lon="25.809237">
        <ele>266.337681</ele>
        <time>2019-06-05T08:10:08.000Z</time>
      </trkpt>
      <trkpt lat="50.537918" lon="25.809378">
        <ele>266.754338</ele>
        <time>2019-06-05T08:10:13.000Z</time>
      </trkpt>
      <trkpt lat="50.537960" lon="25.809513">
        <ele>267.179612</ele>
        <time>2019-06-05T08:10:18.000Z</time>
      </trkpt>
      <trkpt lat="50.537968" lon="25.809658">
        <ele>267.591416</ele>
        <time>2019-06-05T08:10:23.000Z</time>
      </trkpt>
      <trkpt lat="50.537964" lon="25.809824">
        <ele>268.061431</ele>
        <time>2019-06-05T08:10:28.000Z</time>
      </trkpt>
      <trkpt lat="50.537990" lon="25.809969">
        <ele>268.487707</ele>
        <time>2019-06-05T08:10:32.000Z</time>
      </trkpt>
      <trkpt lat="50.538000" lon="25.810120">
        <ele>268.917257</ele>
        <time>2019-06-05T08:10:36.000Z</time>
      </trkpt>
      <trkpt lat="50.538020" lon="25.810270">
        <ele>269.350902</ele>
        <time>2019-06-05T08:10:40.000Z</time>
      </trkpt>
      <trkpt lat="50.538025" lon="25.810423">
        <ele>269.784370</ele>
        <time>2019-06-05T08:10:44.000Z</time>
      </trkpt>
      <trkpt lat="50.538036" lon="25.810581">
        <ele>270.234086</ele>
        <time>2019-06-05T08:10:48.000Z</time>
      </trkpt>
      <trkpt lat="50.538063" lon="25.810730">
        <ele>270.672463</ele>
        <time>2019-06-05T08:10:52.000Z</time>
      </trkpt>
      <trkpt lat="50.538082" lon="25.810877">
        <ele>271.096895</ele>
        <time>2019-06-05T08:10:56.000Z</time>
      </trkpt>
      <trkpt lat="50.538090" lon="25.811052">
        <ele>271.593315</ele>
        <time>2019-06-05T08:11:01.000Z</time>
      </trkpt>
      <trkpt lat="50.538130" lon="25.811195">
        <ele>272.035368</ele>
        <time>2019-06-05T08:11:05.000Z</time>
      </trkpt>
      <trkpt lat="50.538150" lon="25.811361">
        <ele>272.513409</ele>
        <time>2019-06-05T08:11:10.000Z</time>
      </trkpt>
      <trkpt lat="50.538147" lon="25.811518">
        <ele>272.957821</ele>
        <time>2019-06-05T08:11:14.000Z</time>
      </trkpt>
      <trkpt lat="50.538166" lon="25.811674">
        <ele>273.407235</ele>
        <time>2019-06-05T08:11:18.000Z</time>
      </trkpt>
      <trkpt lat="50.538185" lon="25.811830">
        <ele>273.856648</ele>
        <time>2019-06-05T08:11:22.000Z</time>
      </trkpt>
      <trkpt lat="50.538193" lon="25.811980">
        <ele>274.195184</ele>
        <time>2019-06-05T08:11:26.000Z</time>
      </trkpt>
      <trkpt lat="50.538208" lon="25.812138">
        <ele>274.438639</ele>
        <time>2019-06-05T08:11:30.000Z</time>
      </trkpt>
      <trkpt lat="50.538240" lon="25.811980">
        <ele>274.691353</ele>
        <time>2019-06-05T08:11:41.000Z</time>
      </trkpt>
      <trkpt lat="50.538230" lon="25.812122">
        <ele>274.909077</ele>
        <time>2019-06-05T08:11:49.000Z</time>
      </trkpt>
      <trkpt lat="50.538250" lon="25.812277">
        <ele>275.150108</ele>
        <time>2019-06-05T08:11:54.000Z</time>
      </trkpt>
      <trkpt lat="50.538258" lon="25.812430">
        <ele>275.384060</ele>
        <time>2019-06-05T08:11:59.000Z</time>
      </trkpt>
      <trkpt lat="50.538284" lon="25.812595">
        <ele>275.643124</ele>
        <time>2019-06-05T08:12:04.000Z</time>
      </trkpt>
      <trkpt lat="50.538270" lon="25.812744">
        <ele>275.872660</ele>
        <time>2019-06-05T08:12:08.000Z</time>
      </trkpt>
      <trkpt lat="50.538310" lon="25.812878">
        <ele>276.098270</ele>
        <time>2019-06-05T08:12:12.000Z</time>
      </trkpt>
      <trkpt lat="50.538326" lon="25.813025">
        <ele>276.325551</ele>
        <time>2019-06-05T08:12:16.000Z</time>
      </trkpt>
      <trkpt lat="50.538310" lon="25.813177">
        <ele>276.560347</ele>
        <time>2019-06-05T08:12:20.000Z</time>
      </trkpt>
      <trkpt lat="50.538340" lon="25.813318">
        <ele>276.786944</ele>
        <time>2019-06-05T08:12:24.000Z</time>
      </trkpt>
      <trkpt lat="50.538364" lon="25.813500">
        <ele>277.070208</ele>
        <time>2019-06-05T08:12:29.000Z</time>
      </trkpt>
      <trkpt lat="50.538372" lon="25.813675">
        <ele>277.337587</ele>
        <time>2019-06-05T08:12:33.000Z</time>
      </trkpt>
      <trkpt lat="50.538387" lon="25.813850">
        <ele>277.606692</ele>
        <time>2019-06-05T08:12:37.000Z</time>
      </trkpt>
      <trkpt lat="50.538414" lon="25.813995">
        <ele>277.836952</ele>
        <time>2019-06-05T08:12:41.000Z</time>
      </trkpt>
      <trkpt lat="50.538414" lon="25.814178">
        <ele>278.115833</ele>
        <time>2019-06-05T08:12:46.000Z</time>
      </trkpt>
      <trkpt lat="50.538418" lon="25.814340">
        <ele>278.362898</ele>
        <time>2019-06-05T08:12:50.000Z</time>
      </trkpt>
      <trkpt lat="50.538433" lon="25.814505">
        <ele>278.042723</ele>
        <time>2019-06-05T08:12:54.000Z</time>
      </trkpt>
      <trkpt lat="50.538460" lon="25.814660">
        <ele>277.620963</ele>
        <time>2019-06-05T08:12:58.000Z</time>
      </trkpt>
      <trkpt lat="50.538480" lon="25.814802">
        <ele>277.239278</ele>
        <time>2019-06-05T08:13:01.000Z</time>
      </trkpt>
      <trkpt lat="50.538494" lon="25.814960">
        <ele>276.820636</ele>
        <time>2019-06-05T08:13:04.000Z</time>
      </trkpt>
      <trkpt lat="50.538517" lon="25.815111">
        <ele>276.413153</ele>
        <time>2019-06-05T08:13:07.000Z</time>
      </trkpt>
      <trkpt lat="50.538532" lon="25.815294">
        <ele>275.928938</ele>
        <time>2019-06-05T08:13:10.000Z</time>
      </trkpt>
      <trkpt lat="50.538536" lon="25.815495">
        <ele>275.401205</ele>
        <time>2019-06-05T08:13:13.000Z</time>
      </trkpt>
      <trkpt lat="50.538544" lon="25.815643">
        <ele>275.011414</ele>
        <time>2019-06-05T08:13:15.000Z</time>
      </trkpt>
      <trkpt lat="50.538555" lon="25.815788">
        <ele>274.628197</ele>
        <time>2019-06-05T08:13:17.000Z</time>
      </trkpt>
      <trkpt lat="50.538570" lon="25.815945">
        <ele>274.211560</ele>
        <time>2019-06-05T08:13:19.000Z</time>
      </trkpt>
      <trkpt lat="50.538574" lon="25.816101">
        <ele>273.801845</ele>
        <time>2019-06-05T08:13:21.000Z</time>
      </trkpt>
      <trkpt lat="50.538574" lon="25.816248">
        <ele>273.416080</ele>
        <time>2019-06-05T08:13:23.000Z</time>
      </trkpt>
      <trkpt lat="50.538580" lon="25.816412">
        <ele>272.984991</ele>
        <time>2019-06-05T08:13:25.000Z</time>
      </trkpt>
      <trkpt lat="50.538586" lon="25.816576">
        <ele>272.553902</ele>
        <time>2019-06-05T08:13:27.000Z</time>
      </trkpt>
      <trkpt lat="50.538590" lon="25.816750">
        <ele>272.096985</ele>
        <time>2019-06-05T08:13:29.000Z</time>
      </trkpt>
      <trkpt lat="50.538597" lon="25.816914">
        <ele>271.665639</ele>
        <time>2019-06-05T08:13:31.000Z</time>
      </trkpt>
      <trkpt lat="50.538610" lon="25.817072">
        <ele>271.247548</ele>
        <time>2019-06-05T08:13:33.000Z</time>
      </trkpt>
      <trkpt lat="50.538616" lon="25.817250">
        <ele>270.713386</ele>
        <time>2019-06-05T08:13:35.000Z</time>
      </trkpt>
      <trkpt lat="50.538628" lon="25.817425">
        <ele>270.097778</ele>
        <time>2019-06-05T08:13:37.000Z</time>
      </trkpt>
      <trkpt lat="50.538635" lon="25.817616">
        <ele>269.428653</ele>
        <time>2019-06-05T08:13:39.000Z</time>
      </trkpt>
      <trkpt lat="50.538643" lon="25.817810">
        <ele>268.748720</ele>
        <time>2019-06-05T08:13:41.000Z</time>
      </trkpt>
      <trkpt lat="50.538654" lon="25.818003">
        <ele>268.071001</ele>
        <time>2019-06-05T08:13:43.000Z</time>
      </trkpt>
      <trkpt lat="50.538670" lon="25.818192">
        <ele>267.404143</ele>
        <time>2019-06-05T08:13:45.000Z</time>
      </trkpt>
      <trkpt lat="50.538696" lon="25.818373">
        <ele>266.755136</ele>
        <time>2019-06-05T08:13:47.000Z</time>
      </trkpt>
      <trkpt lat="50.538727" lon="25.818554">
        <ele>266.099514</ele>
        <time>2019-06-05T08:13:49.000Z</time>
      </trkpt>
      <trkpt lat="50.538750" lon="25.818733">
        <ele>265.460804</ele>
        <time>2019-06-05T08:13:51.000Z</time>
      </trkpt>
      <trkpt lat="50.538773" lon="25.818924">
        <ele>264.780906</ele>
        <time>2019-06-05T08:13:53.000Z</time>
      </trkpt>
      <trkpt lat="50.538810" lon="25.819115">
        <ele>264.082552</ele>
        <time>2019-06-05T08:13:55.000Z</time>
      </trkpt>
      <trkpt lat="50.538845" lon="25.819305">
        <ele>263.390688</ele>
        <time>2019-06-05T08:13:57.000Z</time>
      </trkpt>
      <trkpt lat="50.538895" lon="25.819511">
        <ele>262.619463</ele>
        <time>2019-06-05T08:13:59.000Z</time>
      </trkpt>
      <trkpt lat="50.538950" lon="25.819730">
        <ele>261.795893</ele>
        <time>2019-06-05T08:14:01.000Z</time>
      </trkpt>
      <trkpt lat="50.539010" lon="25.819963">
        <ele>260.893486</ele>
        <time>2019-06-05T08:14:03.000Z</time>
      </trkpt>
      <trkpt lat="50.539074" lon="25.820198">
        <ele>259.873648</ele>
        <time>2019-06-05T08:14:05.000Z</time>
      </trkpt>
      <trkpt lat="50.539146" lon="25.820433">
        <ele>258.833011</ele>
        <time>2019-06-05T08:14:07.000Z</time>
      </trkpt>
      <trkpt lat="50.539234" lon="25.820673">
        <ele>257.727770</ele>
        <time>2019-06-05T08:14:09.000Z</time>
      </trkpt>
      <trkpt lat="50.539276" lon="25.820799">
        <ele>257.160232</ele>
        <time>2019-06-05T08:14:10.000Z</time>
      </trkpt>
      <trkpt lat="50.539320" lon="25.820925">
        <ele>256.586757</ele>
        <time>2019-06-05T08:14:11.000Z</time>
      </trkpt>
      <trkpt lat="50.539368" lon="25.821053">
        <ele>255.993923</ele>
        <time>2019-06-05T08:14:12.000Z</time>
      </trkpt>
      <trkpt lat="50.539413" lon="25.821178">
        <ele>255.420874</ele>
        <time>2019-06-05T08:14:13.000Z</time>
      </trkpt>
      <trkpt lat="50.539460" lon="25.821310">
        <ele>254.817337</ele>
        <time>2019-06-05T08:14:14.000Z</time>
      </trkpt>
      <trkpt lat="50.539505" lon="25.821445">
        <ele>254.209263</ele>
        <time>2019-06-05T08:14:15.000Z</time>
      </trkpt>
      <trkpt lat="50.539555" lon="25.821580">
        <ele>253.585995</ele>
        <time>2019-06-05T08:14:16.000Z</time>
      </trkpt>
      <trkpt lat="50.539604" lon="25.821716">
        <ele>252.962396</ele>
        <time>2019-06-05T08:14:17.000Z</time>
      </trkpt>
      <trkpt lat="50.539650" lon="25.821850">
        <ele>252.354896</ele>
        <time>2019-06-05T08:14:18.000Z</time>
      </trkpt>
      <trkpt lat="50.539692" lon="25.821983">
        <ele>251.762493</ele>
        <time>2019-06-05T08:14:19.000Z</time>
      </trkpt>
      <trkpt lat="50.539740" lon="25.822119">
        <ele>251.141967</ele>
        <time>2019-06-05T08:14:20.000Z</time>
      </trkpt>
      <trkpt lat="50.539783" lon="25.822252">
        <ele>250.546745</ele>
        <time>2019-06-05T08:14:21.000Z</time>
      </trkpt>
      <trkpt lat="50.539830" lon="25.822390">
        <ele>249.922222</ele>
        <time>2019-06-05T08:14:22.000Z</time>
      </trkpt>
      <trkpt lat="50.539875" lon="25.822527">
        <ele>249.651203</ele>
        <time>2019-06-05T08:14:23.000Z</time>
      </trkpt>
      <trkpt lat="50.539917" lon="25.822660">
        <ele>249.478749</ele>
        <time>2019-06-05T08:14:24.000Z</time>
      </trkpt>
      <trkpt lat="50.539955" lon="25.822802">
        <ele>249.299838</ele>
        <time>2019-06-05T08:14:25.000Z</time>
      </trkpt>
      <trkpt lat="50.539990" lon="25.822939">
        <ele>249.128382</ele>
        <time>2019-06-05T08:14:26.000Z</time>
      </trkpt>
      <trkpt lat="50.540024" lon="25.823078">
        <ele>248.955434</ele>
        <time>2019-06-05T08:14:27.000Z</time>
      </trkpt>
      <trkpt lat="50.540050" lon="25.823221">
        <ele>248.782721</ele>
        <time>2019-06-05T08:14:28.000Z</time>
      </trkpt>
      <trkpt lat="50.540077" lon="25.823359">
        <ele>248.615055</ele>
        <time>2019-06-05T08:14:29.000Z</time>
      </trkpt>
      <trkpt lat="50.540100" lon="25.823494">
        <ele>248.452759</ele>
        <time>2019-06-05T08:14:30.000Z</time>
      </trkpt>
      <trkpt lat="50.540146" lon="25.823757">
        <ele>248.136011</ele>
        <time>2019-06-05T08:14:32.000Z</time>
      </trkpt>
      <trkpt lat="50.540190" lon="25.824000">
        <ele>247.842612</ele>
        <time>2019-06-05T08:14:34.000Z</time>
      </trkpt>
      <trkpt lat="50.540234" lon="25.824238">
        <ele>247.554793</ele>
        <time>2019-06-05T08:14:36.000Z</time>
      </trkpt>
      <trkpt lat="50.540270" lon="25.824470">
        <ele>247.277484</ele>
        <time>2019-06-05T08:14:38.000Z</time>
      </trkpt>
      <trkpt lat="50.540310" lon="25.824696">
        <ele>247.005068</ele>
        <time>2019-06-05T08:14:40.000Z</time>
      </trkpt>
      <trkpt lat="50.540344" lon="25.824910">
        <ele>246.748927</ele>
        <time>2019-06-05T08:14:42.000Z</time>
      </trkpt>
      <trkpt lat="50.540386" lon="25.825115">
        <ele>246.496693</ele>
        <time>2019-06-05T08:14:44.000Z</time>
      </trkpt>
      <trkpt lat="50.540424" lon="25.825321">
        <ele>246.175961</ele>
        <time>2019-06-05T08:14:46.000Z</time>
      </trkpt>
      <trkpt lat="50.540462" lon="25.825520">
        <ele>245.865266</ele>
        <time>2019-06-05T08:14:48.000Z</time>
      </trkpt>
      <trkpt lat="50.540490" lon="25.825716">
        <ele>245.564886</ele>
        <time>2019-06-05T08:14:50.000Z</time>
      </trkpt>
      <trkpt lat="50.540524" lon="25.825926">
        <ele>245.240857</ele>
        <time>2019-06-05T08:14:52.000Z</time>
      </trkpt>
      <trkpt lat="50.540558" lon="25.826118">
        <ele>244.942835</ele>
        <time>2019-06-05T08:14:54.000Z</time>
      </trkpt>
      <trkpt lat="50.540596" lon="25.826315">
        <ele>244.635004</ele>
        <time>2019-06-05T08:14:56.000Z</time>
      </trkpt>
      <trkpt lat="50.540638" lon="25.826508">
        <ele>244.329975</ele>
        <time>2019-06-05T08:14:58.000Z</time>
      </trkpt>
      <trkpt lat="50.540672" lon="25.826708">
        <ele>244.020414</ele>
        <time>2019-06-05T08:15:00.000Z</time>
      </trkpt>
      <trkpt lat="50.540714" lon="25.826920">
        <ele>243.688379</ele>
        <time>2019-06-05T08:15:02.000Z</time>
      </trkpt>
      <trkpt lat="50.540760" lon="25.827140">
        <ele>243.342082</ele>
        <time>2019-06-05T08:15:04.000Z</time>
      </trkpt>
      <trkpt lat="50.540810" lon="25.827360">
        <ele>242.992730</ele>
        <time>2019-06-05T08:15:06.000Z</time>
      </trkpt>
      <trkpt lat="50.540863" lon="25.827581">
        <ele>242.639540</ele>
        <time>2019-06-05T08:15:08.000Z</time>
      </trkpt>
      <trkpt lat="50.540913" lon="25.827800">
        <ele>242.291596</ele>
        <time>2019-06-05T08:15:10.000Z</time>
      </trkpt>
      <trkpt lat="50.540955" lon="25.828022">
        <ele>242.368906</ele>
        <time>2019-06-05T08:15:12.000Z</time>
      </trkpt>
      <trkpt lat="50.541000" lon="25.828243">
        <ele>242.468426</ele>
        <time>2019-06-05T08:15:14.000Z</time>
      </trkpt>
      <trkpt lat="50.541054" lon="25.828465">
        <ele>242.570363</ele>
        <time>2019-06-05T08:15:16.000Z</time>
      </trkpt>
      <trkpt lat="50.541100" lon="25.828682">
        <ele>242.668462</ele>
        <time>2019-06-05T08:15:18.000Z</time>
      </trkpt>
      <trkpt lat="50.541153" lon="25.828886">
        <ele>242.762973</ele>
        <time>2019-06-05T08:15:20.000Z</time>
      </trkpt>
      <trkpt lat="50.541190" lon="25.829079">
        <ele>242.849423</ele>
        <time>2019-06-05T08:15:22.000Z</time>
      </trkpt>
      <trkpt lat="50.541233" lon="25.829262">
        <ele>242.933093</ele>
        <time>2019-06-05T08:15:24.000Z</time>
      </trkpt>
      <trkpt lat="50.541267" lon="25.829449">
        <ele>243.016503</ele>
        <time>2019-06-05T08:15:26.000Z</time>
      </trkpt>
      <trkpt lat="50.541306" lon="25.829636">
        <ele>243.100904</ele>
        <time>2019-06-05T08:15:28.000Z</time>
      </trkpt>
      <trkpt lat="50.541344" lon="25.829817">
        <ele>243.182649</ele>
        <time>2019-06-05T08:15:30.000Z</time>
      </trkpt>
      <trkpt lat="50.541386" lon="25.829990">
        <ele>243.262067</ele>
        <time>2019-06-05T08:15:32.000Z</time>
      </trkpt>
      <trkpt lat="50.541424" lon="25.830158">
        <ele>243.338539</ele>
        <time>2019-06-05T08:15:34.000Z</time>
      </trkpt>
      <trkpt lat="50.541460" lon="25.830330">
        <ele>243.416197</ele>
        <time>2019-06-05T08:15:36.000Z</time>
      </trkpt>
      <trkpt lat="50.541492" lon="25.830490">
        <ele>243.488128</ele>
        <time>2019-06-05T08:15:38.000Z</time>
      </trkpt>
      <trkpt lat="50.541523" lon="25.830645">
        <ele>243.789536</ele>
        <time>2019-06-05T08:15:40.000Z</time>
      </trkpt>
      <trkpt lat="50.541550" lon="25.830800">
        <ele>244.087800</ele>
        <time>2019-06-05T08:15:42.000Z</time>
      </trkpt>
      <trkpt lat="50.541584" lon="25.830952">
        <ele>244.386850</ele>
        <time>2019-06-05T08:15:44.000Z</time>
      </trkpt>
      <trkpt lat="50.541620" lon="25.831095">
        <ele>244.672298</ele>
        <time>2019-06-05T08:15:46.000Z</time>
      </trkpt>
      <trkpt lat="50.541660" lon="25.831232">
        <ele>244.952096</ele>
        <time>2019-06-05T08:15:48.000Z</time>
      </trkpt>
      <trkpt lat="50.541700" lon="25.831362">
        <ele>245.220144</ele>
        <time>2019-06-05T08:15:50.000Z</time>
      </trkpt>
      <trkpt lat="50.541760" lon="25.831543">
        <ele>245.598999</ele>
        <time>2019-06-05T08:15:53.000Z</time>
      </trkpt>
      <trkpt lat="50.541824" lon="25.831709">
        <ele>245.959324</ele>
        <time>2019-06-05T08:15:56.000Z</time>
      </trkpt>
      <trkpt lat="50.541893" lon="25.831867">
        <ele>246.315102</ele>
        <time>2019-06-05T08:15:59.000Z</time>
      </trkpt>
      <trkpt lat="50.541973" lon="25.832006">
        <ele>246.663124</ele>
        <time>2019-06-05T08:16:02.000Z</time>
      </trkpt>
      <trkpt lat="50.542060" lon="25.832144">
        <ele>247.023864</ele>
        <time>2019-06-05T08:16:05.000Z</time>
      </trkpt>
      <trkpt lat="50.542137" lon="25.832264">
        <ele>247.340336</ele>
        <time>2019-06-05T08:16:08.000Z</time>
      </trkpt>
      <trkpt lat="50.542220" lon="25.832378">
        <ele>247.662057</ele>
        <time>2019-06-05T08:16:11.000Z</time>
      </trkpt>
      <trkpt lat="50.542316" lon="25.832472">
        <ele>247.992241</ele>
        <time>2019-06-05T08:16:14.000Z</time>
      </trkpt>
      <trkpt lat="50.542397" lon="25.832575">
        <ele>248.296357</ele>
        <time>2019-06-05T08:16:17.000Z</time>
      </trkpt>
      <trkpt lat="50.542484" lon="25.832680">
        <ele>248.616537</ele>
        <time>2019-06-05T08:16:20.000Z</time>
      </trkpt>
      <trkpt lat="50.542572" lon="25.832770">
        <ele>248.936820</ele>
        <time>2019-06-05T08:16:23.000Z</time>
      </trkpt>
      <trkpt lat="50.542664" lon="25.832876">
        <ele>249.294975</ele>
        <time>2019-06-05T08:16:26.000Z</time>
      </trkpt>
      <trkpt lat="50.542744" lon="25.832977">
        <ele>249.617137</ele>
        <time>2019-06-05T08:16:29.000Z</time>
      </trkpt>
      <trkpt lat="50.542820" lon="25.833061">
        <ele>249.908856</ele>
        <time>2019-06-05T08:16:32.000Z</time>
      </trkpt>
      <trkpt lat="50.542915" lon="25.833164">
        <ele>250.271226</ele>
        <time>2019-06-05T08:16:36.000Z</time>
      </trkpt>
      <trkpt lat="50.543003" lon="25.833280">
        <ele>250.631804</ele>
        <time>2019-06-05T08:16:40.000Z</time>
      </trkpt>
      <trkpt lat="50.543087" lon="25.833384">
        <ele>250.967527</ele>
        <time>2019-06-05T08:16:44.000Z</time>
      </trkpt>
      <trkpt lat="50.543160" lon="25.833506">
        <ele>251.302012</ele>
        <time>2019-06-05T08:16:48.000Z</time>
      </trkpt>
      <trkpt lat="50.543240" lon="25.833630">
        <ele>251.654725</ele>
        <time>2019-06-05T08:16:52.000Z</time>
      </trkpt>
      <trkpt lat="50.543310" lon="25.833769">
        <ele>252.008739</ele>
        <time>2019-06-05T08:16:56.000Z</time>
      </trkpt>
      <trkpt lat="50.543380" lon="25.833895">
        <ele>252.342804</ele>
        <time>2019-06-05T08:17:00.000Z</time>
      </trkpt>
      <trkpt lat="50.543457" lon="25.834020">
        <ele>252.690296</ele>
        <time>2019-06-05T08:17:04.000Z</time>
      </trkpt>
      <trkpt lat="50.543533" lon="25.834156">
        <ele>253.051794</ele>
        <time>2019-06-05T08:17:08.000Z</time>
      </trkpt>
      <trkpt lat="50.543600" lon="25.834303">
        <ele>253.412885</ele>
        <time>2019-06-05T08:17:12.000Z</time>
      </trkpt>
      <trkpt lat="50.543650" lon="25.834429">
        <ele>253.709398</ele>
        <time>2019-06-05T08:17:15.000Z</time>
      </trkpt>
      <trkpt lat="50.543700" lon="25.834553">
        <ele>254.002533</ele>
        <time>2019-06-05T08:17:18.000Z</time>
      </trkpt>
      <trkpt lat="50.543743" lon="25.834677">
        <ele>254.284500</ele>
        <time>2019-06-05T08:17:21.000Z</time>
      </trkpt>
      <trkpt lat="50.543785" lon="25.834846">
        <ele>254.318123</ele>
        <time>2019-06-05T08:17:25.000Z</time>
      </trkpt>
      <trkpt lat="50.543823" lon="25.835012">
        <ele>254.219303</ele>
        <time>2019-06-05T08:17:29.000Z</time>
      </trkpt>
      <trkpt lat="50.543860" lon="25.835190">
        <ele>254.114413</ele>
        <time>2019-06-05T08:17:33.000Z</time>
      </trkpt>
      <trkpt lat="50.543896" lon="25.835350">
        <ele>254.019350</ele>
        <time>2019-06-05T08:17:37.000Z</time>
      </trkpt>
      <trkpt lat="50.543926" lon="25.835510">
        <ele>253.925920</ele>
        <time>2019-06-05T08:17:41.000Z</time>
      </trkpt>
      <trkpt lat="50.543957" lon="25.835651">
        <ele>253.842357</ele>
        <time>2019-06-05T08:17:45.000Z</time>
      </trkpt>
      <trkpt lat="50.543983" lon="25.835802">
        <ele>253.754737</ele>
        <time>2019-06-05T08:17:50.000Z</time>
      </trkpt>
      <trkpt lat="50.544014" lon="25.835970">
        <ele>253.656759</ele>
        <time>2019-06-05T08:17:55.000Z</time>
      </trkpt>
      <trkpt lat="50.544037" lon="25.836111">
        <ele>253.575229</ele>
        <time>2019-06-05T08:17:59.000Z</time>
      </trkpt>
      <trkpt lat="50.544064" lon="25.836273">
        <ele>253.481429</ele>
        <time>2019-06-05T08:18:05.000Z</time>
      </trkpt>
      <trkpt lat="50.544110" lon="25.836409">
        <ele>253.395143</ele>
        <time>2019-06-05T08:18:10.000Z</time>
      </trkpt>
      <trkpt lat="50.544117" lon="25.836550">
        <ele>253.315933</ele>
        <time>2019-06-05T08:18:16.000Z</time>
      </trkpt>
      <trkpt lat="50.544140" lon="25.836704">
        <ele>253.227332</ele>
        <time>2019-06-05T08:18:45.000Z</time>
      </trkpt>
      <trkpt lat="50.544174" lon="25.836878">
        <ele>253.125377</ele>
        <time>2019-06-05T08:18:49.000Z</time>
      </trkpt>
      <trkpt lat="50.544197" lon="25.837025">
        <ele>253.040589</ele>
        <time>2019-06-05T08:18:52.000Z</time>
      </trkpt>
      <trkpt lat="50.544228" lon="25.837183">
        <ele>252.947976</ele>
        <time>2019-06-05T08:18:55.000Z</time>
      </trkpt>
      <trkpt lat="50.544250" lon="25.837358">
        <ele>252.848065</ele>
        <time>2019-06-05T08:18:58.000Z</time>
      </trkpt>
      <trkpt lat="50.544285" lon="25.837557">
        <ele>252.812921</ele>
        <time>2019-06-05T08:19:01.000Z</time>
      </trkpt>
      <trkpt lat="50.544315" lon="25.837694">
        <ele>252.821866</ele>
        <time>2019-06-05T08:19:03.000Z</time>
      </trkpt>
      <trkpt lat="50.544342" lon="25.837833">
        <ele>252.830838</ele>
        <time>2019-06-05T08:19:05.000Z</time>
      </trkpt>
      <trkpt lat="50.544373" lon="25.837986">
        <ele>252.840752</ele>
        <time>2019-06-05T08:19:07.000Z</time>
      </trkpt>
      <trkpt lat="50.544390" lon="25.838140">
        <ele>252.850401</ele>
        <time>2019-06-05T08:19:09.000Z</time>
      </trkpt>
      <trkpt lat="50.544420" lon="25.838290">
        <ele>252.860108</ele>
        <time>2019-06-05T08:19:11.000Z</time>
      </trkpt>
      <trkpt lat="50.544450" lon="25.838434">
        <ele>252.869463</ele>
        <time>2019-06-05T08:19:13.000Z</time>
      </trkpt>
      <trkpt lat="50.544476" lon="25.838573">
        <ele>252.878408</ele>
        <time>2019-06-05T08:19:15.000Z</time>
      </trkpt>
      <trkpt lat="50.544506" lon="25.838764">
        <ele>252.890554</ele>
        <time>2019-06-05T08:19:18.000Z</time>
      </trkpt>
      <trkpt lat="50.544550" lon="25.838964">
        <ele>252.903619</ele>
        <time>2019-06-05T08:19:21.000Z</time>
      </trkpt>
      <trkpt lat="50.544586" lon="25.839148">
        <ele>252.915504</ele>
        <time>2019-06-05T08:19:24.000Z</time>
      </trkpt>
      <trkpt lat="50.544617" lon="25.839330">
        <ele>252.927135</ele>
        <time>2019-06-05T08:19:27.000Z</time>
      </trkpt>
      <trkpt lat="50.544647" lon="25.839500">
        <ele>252.938027</ele>
        <time>2019-06-05T08:19:30.000Z</time>
      </trkpt>
      <trkpt lat="50.544670" lon="25.839647">
        <ele>252.947372</ele>
        <time>2019-06-05T08:19:33.000Z</time>
      </trkpt>
      <trkpt lat="50.544693" lon="25.839794">
        <ele>252.956718</ele>
        <time>2019-06-05T08:19:36.000Z</time>
      </trkpt>
      <trkpt lat="50.544720" lon="25.839950">
        <ele>252.966699</ele>
        <time>2019-06-05T08:19:39.000Z</time>
      </trkpt>
      <trkpt lat="50.544746" lon="25.840101">
        <ele>252.976356</ele>
        <time>2019-06-05T08:19:42.000Z</time>
      </trkpt>
      <trkpt lat="50.544773" lon="25.840254">
        <ele>253.028167</ele>
        <time>2019-06-05T08:19:45.000Z</time>
      </trkpt>
      <trkpt lat="50.544807" lon="25.840408">
        <ele>253.103210</ele>
        <time>2019-06-05T08:19:48.000Z</time>
      </trkpt>
      <trkpt lat="50.544838" lon="25.840553">
        <ele>253.173630</ele>
        <time>2019-06-05T08:19:51.000Z</time>
      </trkpt>
      <trkpt lat="50.544853" lon="25.840708">
        <ele>253.245800</ele>
        <time>2019-06-05T08:19:54.000Z</time>
      </trkpt>
      <trkpt lat="50.544884" lon="25.840870">
        <ele>253.323677</ele>
        <time>2019-06-05T08:19:57.000Z</time>
      </trkpt>
      <trkpt lat="50.544918" lon="25.841020">
        <ele>253.396983</ele>
        <time>2019-06-05T08:20:00.000Z</time>
      </trkpt>
      <trkpt lat="50.544945" lon="25.841170">
        <ele>253.468745</ele>
        <time>2019-06-05T08:20:03.000Z</time>
      </trkpt>
      <trkpt lat="50.544975" lon="25.841305">
        <ele>253.534576</ele>
        <time>2019-06-05T08:20:06.000Z</time>
      </trkpt>
      <trkpt lat="50.545006" lon="25.841450">
        <ele>253.604996</ele>
        <time>2019-06-05T08:20:09.000Z</time>
      </trkpt>
      <trkpt lat="50.545040" lon="25.841599">
        <ele>253.677868</ele>
        <time>2019-06-05T08:20:12.000Z</time>
      </trkpt>
      <trkpt lat="50.545067" lon="25.841745">
        <ele>253.747860</ele>
        <time>2019-06-05T08:20:15.000Z</time>
      </trkpt>
      <trkpt lat="50.545097" lon="25.841917">
        <ele>253.829960</ele>
        <time>2019-06-05T08:20:19.000Z</time>
      </trkpt>
      <trkpt lat="50.545130" lon="25.842081">
        <ele>253.909144</ele>
        <time>2019-06-05T08:20:23.000Z</time>
      </trkpt>
      <trkpt lat="50.545160" lon="25.842260">
        <ele>253.994355</ele>
        <time>2019-06-05T08:20:27.000Z</time>
      </trkpt>
      <trkpt lat="50.545193" lon="25.842443">
        <ele>254.081916</ele>
        <time>2019-06-05T08:20:31.000Z</time>
      </trkpt>
      <trkpt lat="50.545216" lon="25.842610">
        <ele>254.160571</ele>
        <time>2019-06-05T08:20:34.000Z</time>
      </trkpt>
      <trkpt lat="50.545246" lon="25.842802">
        <ele>254.251581</ele>
        <time>2019-06-05T08:20:37.000Z</time>
      </trkpt>
      <trkpt lat="50.545273" lon="25.842941">
        <ele>254.093859</ele>
        <time>2019-06-05T08:20:39.000Z</time>
      </trkpt>
      <trkpt lat="50.545300" lon="25.843086">
        <ele>253.729320</ele>
        <time>2019-06-05T08:20:41.000Z</time>
      </trkpt>
      <trkpt lat="50.545330" lon="25.843239">
        <ele>253.343017</ele>
        <time>2019-06-05T08:20:43.000Z</time>
      </trkpt>
      <trkpt lat="50.545360" lon="25.843407">
        <ele>252.921998</ele>
        <time>2019-06-05T08:20:45.000Z</time>
      </trkpt>
      <trkpt lat="50.545400" lon="25.843594">
        <ele>252.445965</ele>
        <time>2019-06-05T08:20:47.000Z</time>
      </trkpt>
      <trkpt lat="50.545433" lon="25.843792">
        <ele>251.952111</ele>
        <time>2019-06-05T08:20:49.000Z</time>
      </trkpt>
      <trkpt lat="50.545470" lon="25.844006">
        <ele>251.417044</ele>
        <time>2019-06-05T08:20:51.000Z</time>
      </trkpt>
      <trkpt lat="50.545520" lon="25.844221">
        <ele>250.864688</ele>
        <time>2019-06-05T08:20:53.000Z</time>
      </trkpt>
      <trkpt lat="50.545570" lon="25.844446">
        <ele>250.289617</ele>
        <time>2019-06-05T08:20:55.000Z</time>
      </trkpt>
      <trkpt lat="50.545616" lon="25.844690">
        <ele>249.675582</ele>
        <time>2019-06-05T08:20:57.000Z</time>
      </trkpt>
      <trkpt lat="50.545660" lon="25.844942">
        <ele>249.045074</ele>
        <time>2019-06-05T08:20:59.000Z</time>
      </trkpt>
      <trkpt lat="50.545700" lon="25.845186">
        <ele>248.437127</ele>
        <time>2019-06-05T08:21:01.000Z</time>
      </trkpt>
      <trkpt lat="50.545742" lon="25.845423">
        <ele>247.843523</ele>
        <time>2019-06-05T08:21:03.000Z</time>
      </trkpt>
      <trkpt lat="50.545773" lon="25.845642">
        <ele>247.353293</ele>
        <time>2019-06-05T08:21:05.000Z</time>
      </trkpt>
      <trkpt lat="50.545807" lon="25.845844">
        <ele>247.019061</ele>
        <time>2019-06-05T08:21:07.000Z</time>
      </trkpt>
      <trkpt lat="50.545830" lon="25.846037">
        <ele>246.704984</ele>
        <time>2019-06-05T08:21:09.000Z</time>
      </trkpt>
      <trkpt lat="50.545856" lon="25.846210">
        <ele>246.420645</ele>
        <time>2019-06-05T08:21:11.000Z</time>
      </trkpt>
      <trkpt lat="50.545883" lon="25.846352">
        <ele>246.183573</ele>
        <time>2019-06-05T08:21:13.000Z</time>
      </trkpt>
      <trkpt lat="50.545918" lon="25.846521">
        <ele>245.899271</ele>
        <time>2019-06-05T08:21:16.000Z</time>
      </trkpt>
      <trkpt lat="50.545937" lon="25.846684">
        <ele>245.634211</ele>
        <time>2019-06-05T08:21:19.000Z</time>
      </trkpt>
      <trkpt lat="50.545944" lon="25.846857">
        <ele>245.356945</ele>
        <time>2019-06-05T08:21:23.000Z</time>
      </trkpt>
      <trkpt lat="50.545963" lon="25.847004">
        <ele>245.117011</ele>
        <time>2019-06-05T08:21:27.000Z</time>
      </trkpt>
      <trkpt lat="50.546010" lon="25.847140">
        <ele>244.869398</ele>
        <time>2019-06-05T08:21:31.000Z</time>
      </trkpt>
      <trkpt lat="50.545998" lon="25.847280">
        <ele>244.643447</ele>
        <time>2019-06-05T08:21:36.000Z</time>
      </trkpt>
      <trkpt lat="50.546078" lon="25.847210">
        <ele>244.413053</ele>
        <time>2019-06-05T08:22:55.000Z</time>
      </trkpt>
      <trkpt lat="50.546020" lon="25.847334">
        <ele>244.166786</ele>
        <time>2019-06-05T08:23:07.000Z</time>
      </trkpt>
      <trkpt lat="50.546055" lon="25.847470">
        <ele>243.932099</ele>
        <time>2019-06-05T08:23:22.000Z</time>
      </trkpt>
      <trkpt lat="50.546078" lon="25.847612">
        <ele>243.697716</ele>
        <time>2019-06-05T08:30:24.000Z</time>
      </trkpt>
      <trkpt lat="50.546120" lon="25.847775">
        <ele>243.416388</ele>
        <time>2019-06-05T08:30:46.000Z</time>
      </trkpt>
      <trkpt lat="50.546154" lon="25.847961">
        <ele>243.106827</ele>
        <time>2019-06-05T08:30:50.000Z</time>
      </trkpt>
      <trkpt lat="50.546192" lon="25.848139">
        <ele>242.647738</ele>
        <time>2019-06-05T08:30:53.000Z</time>
      </trkpt>
      <trkpt lat="50.546207" lon="25.848284">
        <ele>242.102130</ele>
        <time>2019-06-05T08:30:55.000Z</time>
      </trkpt>
      <trkpt lat="50.546234" lon="25.848430">
        <ele>241.537403</ele>
        <time>2019-06-05T08:30:57.000Z</time>
      </trkpt>
      <trkpt lat="50.546272" lon="25.848590">
        <ele>240.903029</ele>
        <time>2019-06-05T08:30:59.000Z</time>
      </trkpt>
      <trkpt lat="50.546307" lon="25.848763">
        <ele>240.228745</ele>
        <time>2019-06-05T08:31:01.000Z</time>
      </trkpt>
      <trkpt lat="50.546340" lon="25.848946">
        <ele>239.522264</ele>
        <time>2019-06-05T08:31:03.000Z</time>
      </trkpt>
      <trkpt lat="50.546375" lon="25.849138">
        <ele>238.780433</ele>
        <time>2019-06-05T08:31:05.000Z</time>
      </trkpt>
      <trkpt lat="50.546417" lon="25.849344">
        <ele>237.976954</ele>
        <time>2019-06-05T08:31:07.000Z</time>
      </trkpt>
      <trkpt lat="50.546444" lon="25.849571">
        <ele>237.119257</ele>
        <time>2019-06-05T08:31:09.000Z</time>
      </trkpt>
      <trkpt lat="50.546486" lon="25.849802">
        <ele>236.226919</ele>
        <time>2019-06-05T08:31:11.000Z</time>
      </trkpt>
      <trkpt lat="50.546528" lon="25.850033">
        <ele>235.334583</ele>
        <time>2019-06-05T08:31:13.000Z</time>
      </trkpt>
      <trkpt lat="50.546574" lon="25.850277">
        <ele>234.389354</ele>
        <time>2019-06-05T08:31:15.000Z</time>
      </trkpt>
      <trkpt lat="50.546623" lon="25.850523">
        <ele>233.431904</ele>
        <time>2019-06-05T08:31:17.000Z</time>
      </trkpt>
      <trkpt lat="50.546673" lon="25.850773">
        <ele>232.458532</ele>
        <time>2019-06-05T08:31:19.000Z</time>
      </trkpt>
      <trkpt lat="50.546720" lon="25.851020">
        <ele>231.778312</ele>
        <time>2019-06-05T08:31:21.000Z</time>
      </trkpt>
      <trkpt lat="50.546772" lon="25.851276">
        <ele>231.083238</ele>
        <time>2019-06-05T08:31:23.000Z</time>
      </trkpt>
      <trkpt lat="50.546820" lon="25.851538">
        <ele>230.378051</ele>
        <time>2019-06-05T08:31:25.000Z</time>
      </trkpt>
      <trkpt lat="50.546875" lon="25.851799">
        <ele>229.666902</ele>
        <time>2019-06-05T08:31:27.000Z</time>
      </trkpt>
      <trkpt lat="50.546900" lon="25.851936">
        <ele>229.298271</ele>
        <time>2019-06-05T08:31:28.000Z</time>
      </trkpt>
      <trkpt lat="50.546950" lon="25.852203">
        <ele>228.578393</ele>
        <time>2019-06-05T08:31:30.000Z</time>
      </trkpt>
      <trkpt lat="50.546986" lon="25.852480">
        <ele>227.847185</ele>
        <time>2019-06-05T08:31:32.000Z</time>
      </trkpt>
      <trkpt lat="50.547000" lon="25.852627">
        <ele>227.462767</ele>
        <time>2019-06-05T08:31:33.000Z</time>
      </trkpt>
      <trkpt lat="50.547005" lon="25.852770">
        <ele>227.092381</ele>
        <time>2019-06-05T08:31:34.000Z</time>
      </trkpt>
      <trkpt lat="50.547010" lon="25.853045">
        <ele>226.380884</ele>
        <time>2019-06-05T08:31:36.000Z</time>
      </trkpt>
      <trkpt lat="50.547016" lon="25.853304">
        <ele>225.710613</ele>
        <time>2019-06-05T08:31:38.000Z</time>
      </trkpt>
      <trkpt lat="50.547024" lon="25.853550">
        <ele>225.101155</ele>
        <time>2019-06-05T08:31:40.000Z</time>
      </trkpt>
      <trkpt lat="50.547016" lon="25.853785">
        <ele>225.310534</ele>
        <time>2019-06-05T08:31:42.000Z</time>
      </trkpt>
      <trkpt lat="50.547010" lon="25.854006">
        <ele>225.507336</ele>
        <time>2019-06-05T08:31:44.000Z</time>
      </trkpt>
      <trkpt lat="50.547000" lon="25.854225">
        <ele>225.702683</ele>
        <time>2019-06-05T08:31:46.000Z</time>
      </trkpt>
      <trkpt lat="50.546990" lon="25.854406">
        <ele>225.864326</ele>
        <time>2019-06-05T08:31:48.000Z</time>
      </trkpt>
      <trkpt lat="50.546978" lon="25.854576">
        <ele>226.016505</ele>
        <time>2019-06-05T08:31:50.000Z</time>
      </trkpt>
      <trkpt lat="50.546974" lon="25.854730">
        <ele>226.153633</ele>
        <time>2019-06-05T08:31:52.000Z</time>
      </trkpt>
      <trkpt lat="50.546960" lon="25.854881">
        <ele>226.289400</ele>
        <time>2019-06-05T08:31:54.000Z</time>
      </trkpt>
      <trkpt lat="50.546955" lon="25.855030">
        <ele>226.422150</ele>
        <time>2019-06-05T08:31:56.000Z</time>
      </trkpt>
      <trkpt lat="50.546944" lon="25.855173">
        <ele>226.550306</ele>
        <time>2019-06-05T08:31:58.000Z</time>
      </trkpt>
      <trkpt lat="50.546917" lon="25.855373">
        <ele>226.732218</ele>
        <time>2019-06-05T08:32:01.000Z</time>
      </trkpt>
      <trkpt lat="50.546894" lon="25.855553">
        <ele>226.895570</ele>
        <time>2019-06-05T08:32:04.000Z</time>
      </trkpt>
      <trkpt lat="50.546860" lon="25.855722">
        <ele>227.053285</ele>
        <time>2019-06-05T08:32:07.000Z</time>
      </trkpt>
      <trkpt lat="50.546818" lon="25.855880">
        <ele>227.205662</ele>
        <time>2019-06-05T08:32:10.000Z</time>
      </trkpt>
      <trkpt lat="50.546776" lon="25.856020">
        <ele>227.343404</ele>
        <time>2019-06-05T08:32:13.000Z</time>
      </trkpt>
      <trkpt lat="50.546738" lon="25.856153">
        <ele>227.473145</ele>
        <time>2019-06-05T08:32:16.000Z</time>
      </trkpt>
      <trkpt lat="50.546690" lon="25.856281">
        <ele>227.605379</ele>
        <time>2019-06-05T08:32:19.000Z</time>
      </trkpt>
      <trkpt lat="50.546642" lon="25.856410">
        <ele>227.713016</ele>
        <time>2019-06-05T08:32:22.000Z</time>
      </trkpt>
      <trkpt lat="50.546577" lon="25.856539">
        <ele>227.829999</ele>
        <time>2019-06-05T08:32:25.000Z</time>
      </trkpt>
      <trkpt lat="50.546510" lon="25.856682">
        <ele>227.956244</ele>
        <time>2019-06-05T08:32:28.000Z</time>
      </trkpt>
      <trkpt lat="50.546440" lon="25.856825">
        <ele>228.084509</ele>
        <time>2019-06-05T08:32:31.000Z</time>
      </trkpt>
      <trkpt lat="50.546364" lon="25.856970">
        <ele>228.218068</ele>
        <time>2019-06-05T08:32:34.000Z</time>
      </trkpt>
      <trkpt lat="50.546300" lon="25.857110">
        <ele>228.340615</ele>
        <time>2019-06-05T08:32:37.000Z</time>
      </trkpt>
      <trkpt lat="50.546234" lon="25.857243">
        <ele>228.460524</ele>
        <time>2019-06-05T08:32:40.000Z</time>
      </trkpt>
      <trkpt lat="50.546165" lon="25.857376">
        <ele>228.582526</ele>
        <time>2019-06-05T08:32:43.000Z</time>
      </trkpt>
      <trkpt lat="50.546100" lon="25.857508">
        <ele>228.701187</ele>
        <time>2019-06-05T08:32:46.000Z</time>
      </trkpt>
      <trkpt lat="50.546032" lon="25.857649">
        <ele>228.826965</ele>
        <time>2019-06-05T08:32:49.000Z</time>
      </trkpt>
      <trkpt lat="50.545970" lon="25.857777">
        <ele>228.941329</ele>
        <time>2019-06-05T08:32:52.000Z</time>
      </trkpt>
      <trkpt lat="50.545910" lon="25.857897">
        <ele>229.049829</ele>
        <time>2019-06-05T08:32:55.000Z</time>
      </trkpt>
      <trkpt lat="50.545850" lon="25.858019">
        <ele>229.159449</ele>
        <time>2019-06-05T08:32:58.000Z</time>
      </trkpt>
      <trkpt lat="50.545800" lon="25.858147">
        <ele>229.266213</ele>
        <time>2019-06-05T08:33:01.000Z</time>
      </trkpt>
      <trkpt lat="50.545746" lon="25.858274">
        <ele>229.374795</ele>
        <time>2019-06-05T08:33:04.000Z</time>
      </trkpt>
      <trkpt lat="50.545690" lon="25.858416">
        <ele>229.493549</ele>
        <time>2019-06-05T08:33:07.000Z</time>
      </trkpt>
      <trkpt lat="50.545640" lon="25.858553">
        <ele>229.605812</ele>
        <time>2019-06-05T08:33:10.000Z</time>
      </trkpt>
      <trkpt lat="50.545586" lon="25.858685">
        <ele>229.551231</ele>
        <time>2019-06-05T08:33:13.000Z</time>
      </trkpt>
      <trkpt lat="50.545530" lon="25.858845">
        <ele>229.450879</ele>
        <time>2019-06-05T08:33:17.000Z</time>
      </trkpt>
      <trkpt lat="50.545470" lon="25.859009">
        <ele>229.346916</ele>
        <time>2019-06-05T08:33:21.000Z</time>
      </trkpt>
      <trkpt lat="50.545430" lon="25.859170">
        <ele>229.251946</ele>
        <time>2019-06-05T08:33:24.000Z</time>
      </trkpt>
      <trkpt lat="50.545390" lon="25.859343">
        <ele>229.150807</ele>
        <time>2019-06-05T08:33:27.000Z</time>
      </trkpt>
      <trkpt lat="50.545350" lon="25.859535">
        <ele>229.039802</ele>
        <time>2019-06-05T08:33:30.000Z</time>
      </trkpt>
      <trkpt lat="50.545315" lon="25.859741">
        <ele>228.922654</ele>
        <time>2019-06-05T08:33:33.000Z</time>
      </trkpt>
      <trkpt lat="50.545296" lon="25.859938">
        <ele>228.813187</ele>
        <time>2019-06-05T08:33:36.000Z</time>
      </trkpt>
      <trkpt lat="50.545273" lon="25.860142">
        <ele>228.699362</ele>
        <time>2019-06-05T08:33:39.000Z</time>
      </trkpt>
      <trkpt lat="50.545250" lon="25.860342">
        <ele>228.587701</ele>
        <time>2019-06-05T08:33:42.000Z</time>
      </trkpt>
      <trkpt lat="50.545240" lon="25.860530">
        <ele>228.484056</ele>
        <time>2019-06-05T08:33:45.000Z</time>
      </trkpt>
      <trkpt lat="50.545220" lon="25.860720">
        <ele>228.378251</ele>
        <time>2019-06-05T08:33:48.000Z</time>
      </trkpt>
      <trkpt lat="50.545200" lon="25.860912">
        <ele>228.271362</ele>
        <time>2019-06-05T08:33:51.000Z</time>
      </trkpt>
      <trkpt lat="50.545190" lon="25.861120">
        <ele>228.156763</ele>
        <time>2019-06-05T08:33:54.000Z</time>
      </trkpt>
      <trkpt lat="50.545170" lon="25.861322">
        <ele>228.161274</ele>
        <time>2019-06-05T08:33:57.000Z</time>
      </trkpt>
      <trkpt lat="50.545160" lon="25.861515">
        <ele>228.567664</ele>
        <time>2019-06-05T08:34:00.000Z</time>
      </trkpt>
      <trkpt lat="50.545143" lon="25.861708">
        <ele>228.976583</ele>
        <time>2019-06-05T08:34:03.000Z</time>
      </trkpt>
      <trkpt lat="50.545135" lon="25.861906">
        <ele>229.392962</ele>
        <time>2019-06-05T08:34:06.000Z</time>
      </trkpt>
      <trkpt lat="50.545124" lon="25.862110">
        <ele>229.822632</ele>
        <time>2019-06-05T08:34:09.000Z</time>
      </trkpt>
      <trkpt lat="50.545116" lon="25.862305">
        <ele>230.232728</ele>
        <time>2019-06-05T08:34:12.000Z</time>
      </trkpt>
      <trkpt lat="50.545105" lon="25.862501">
        <ele>230.645671</ele>
        <time>2019-06-05T08:34:15.000Z</time>
      </trkpt>
      <trkpt lat="50.545094" lon="25.862680">
        <ele>231.023088</ele>
        <time>2019-06-05T08:34:18.000Z</time>
      </trkpt>
      <trkpt lat="50.545070" lon="25.862850">
        <ele>231.388564</ele>
        <time>2019-06-05T08:34:21.000Z</time>
      </trkpt>
      <trkpt lat="50.545063" lon="25.863018">
        <ele>231.741900</ele>
        <time>2019-06-05T08:34:24.000Z</time>
      </trkpt>
      <trkpt lat="50.545048" lon="25.863192">
        <ele>232.110417</ele>
        <time>2019-06-05T08:34:27.000Z</time>
      </trkpt>
      <trkpt lat="50.545030" lon="25.863352">
        <ele>232.451429</ele>
        <time>2019-06-05T08:34:30.000Z</time>
      </trkpt>
      <trkpt lat="50.545010" lon="25.863506">
        <ele>232.781307</ele>
        <time>2019-06-05T08:34:33.000Z</time>
      </trkpt>
      <trkpt lat="50.544990" lon="25.863674">
        <ele>233.140021</ele>
        <time>2019-06-05T08:34:36.000Z</time>
      </trkpt>
      <trkpt lat="50.544970" lon="25.863850">
        <ele>233.515250</ele>
        <time>2019-06-05T08:34:39.000Z</time>
      </trkpt>
      <trkpt lat="50.544964" lon="25.864020">
        <ele>233.872578</ele>
        <time>2019-06-05T08:34:42.000Z</time>
      </trkpt>
      <trkpt lat="50.544950" lon="25.864191">
        <ele>234.245438</ele>
        <time>2019-06-05T08:34:45.000Z</time>
      </trkpt>
      <trkpt lat="50.544930" lon="25.864351">
        <ele>234.604377</ele>
        <time>2019-06-05T08:34:48.000Z</time>
      </trkpt>
      <trkpt lat="50.544910" lon="25.864517">
        <ele>234.976285</ele>
        <time>2019-06-05T08:34:51.000Z</time>
      </trkpt>
      <trkpt lat="50.544907" lon="25.864674">
        <ele>235.322028</ele>
        <time>2019-06-05T08:34:54.000Z</time>
      </trkpt>
      <trkpt lat="50.544900" lon="25.864822">
        <ele>235.648706</ele>
        <time>2019-06-05T08:34:57.000Z</time>
      </trkpt>
      <trkpt lat="50.544884" lon="25.864980">
        <ele>236.000883</ele>
        <time>2019-06-05T08:35:00.000Z</time>
      </trkpt>
      <trkpt lat="50.544872" lon="25.865139">
        <ele>236.353333</ele>
        <time>2019-06-05T08:35:03.000Z</time>
      </trkpt>
      <trkpt lat="50.544850" lon="25.865313">
        <ele>236.743848</ele>
        <time>2019-06-05T08:35:06.000Z</time>
      </trkpt>
      <trkpt lat="50.544823" lon="25.865484">
        <ele>237.131698</ele>
        <time>2019-06-05T08:35:09.000Z</time>
      </trkpt>
      <trkpt lat="50.544815" lon="25.865654">
        <ele>237.506926</ele>
        <time>2019-06-05T08:35:12.000Z</time>
      </trkpt>
      <trkpt lat="50.544796" lon="25.865831">
        <ele>237.902058</ele>
        <time>2019-06-05T08:35:15.000Z</time>
      </trkpt>
      <trkpt lat="50.544780" lon="25.865995">
        <ele>238.267284</ele>
        <time>2019-06-05T08:35:18.000Z</time>
      </trkpt>
      <trkpt lat="50.544760" lon="25.866161">
        <ele>238.639193</ele>
        <time>2019-06-05T08:35:21.000Z</time>
      </trkpt>
      <trkpt lat="50.544754" lon="25.866330">
        <ele>239.011776</ele>
        <time>2019-06-05T08:35:24.000Z</time>
      </trkpt>
      <trkpt lat="50.544735" lon="25.866505">
        <ele>239.402568</ele>
        <time>2019-06-05T08:35:27.000Z</time>
      </trkpt>
      <trkpt lat="50.544724" lon="25.866669">
        <ele>239.765570</ele>
        <time>2019-06-05T08:35:30.000Z</time>
      </trkpt>
      <trkpt lat="50.544724" lon="25.866833">
        <ele>240.126567</ele>
        <time>2019-06-05T08:35:33.000Z</time>
      </trkpt>
      <trkpt lat="50.544720" lon="25.867010">
        <ele>240.524720</ele>
        <time>2019-06-05T08:35:36.000Z</time>
      </trkpt>
      <trkpt lat="50.544720" lon="25.867172">
        <ele>240.891978</ele>
        <time>2019-06-05T08:35:39.000Z</time>
      </trkpt>
      <trkpt lat="50.544720" lon="25.867338">
        <ele>241.268304</ele>
        <time>2019-06-05T08:35:42.000Z</time>
      </trkpt>
      <trkpt lat="50.544724" lon="25.867485">
        <ele>241.601862</ele>
        <time>2019-06-05T08:35:45.000Z</time>
      </trkpt>
      <trkpt lat="50.544727" lon="25.867670">
        <ele>242.021398</ele>
        <time>2019-06-05T08:35:49.000Z</time>
      </trkpt>
      <trkpt lat="50.544724" lon="25.867819">
        <ele>242.359354</ele>
        <time>2019-06-05T08:35:53.000Z</time>
      </trkpt>
      <trkpt lat="50.544716" lon="25.867964">
        <ele>242.689310</ele>
        <time>2019-06-05T08:35:57.000Z</time>
      </trkpt>
      <trkpt lat="50.544740" lon="25.868120">
        <ele>243.053182</ele>
        <time>2019-06-05T08:36:01.000Z</time>
      </trkpt>
      <trkpt lat="50.544754" lon="25.868282">
        <ele>243.423820</ele>
        <time>2019-06-05T08:36:05.000Z</time>
      </trkpt>
      <trkpt lat="50.544765" lon="25.868443">
        <ele>243.790914</ele>
        <time>2019-06-05T08:36:09.000Z</time>
      </trkpt>
      <trkpt lat="50.544770" lon="25.868610">
        <ele>244.169927</ele>
        <time>2019-06-05T08:36:13.000Z</time>
      </trkpt>
      <trkpt lat="50.544792" lon="25.868767">
        <ele>244.534400</ele>
        <time>2019-06-05T08:36:17.000Z</time>
      </trkpt>
      <trkpt lat="50.544810" lon="25.868921">
        <ele>244.889378</ele>
        <time>2019-06-05T08:36:21.000Z</time>
      </trkpt>
      <trkpt lat="50.544830" lon="25.869076">
        <ele>245.247936</ele>
        <time>2019-06-05T08:36:25.000Z</time>
      </trkpt>
      <trkpt lat="50.544853" lon="25.869228">
        <ele>245.602157</ele>
        <time>2019-06-05T08:36:29.000Z</time>
      </trkpt>
      <trkpt lat="50.544860" lon="25.869373">
        <ele>245.931822</ele>
        <time>2019-06-05T08:36:33.000Z</time>
      </trkpt>
      <trkpt lat="50.544872" lon="25.869522">
        <ele>246.272310</ele>
        <time>2019-06-05T08:36:37.000Z</time>
      </trkpt>
      <trkpt lat="50.544895" lon="25.869684">
        <ele>246.648621</ele>
        <time>2019-06-05T08:36:41.000Z</time>
      </trkpt>
      <trkpt lat="50.544920" lon="25.869840">
        <ele>247.203751</ele>
        <time>2019-06-05T08:36:45.000Z</time>
      </trkpt>
      <trkpt lat="50.544945" lon="25.870003">
        <ele>247.786232</ele>
        <time>2019-06-05T08:36:49.000Z</time>
      </trkpt>
      <trkpt lat="50.544960" lon="25.870167">
        <ele>248.361798</ele>
        <time>2019-06-05T08:36:53.000Z</time>
      </trkpt>
      <trkpt lat="50.544970" lon="25.870369">
        <ele>249.065622</ele>
        <time>2019-06-05T08:36:58.000Z</time>
      </trkpt>
      <trkpt lat="50.544983" lon="25.870525">
        <ele>249.612168</ele>
        <time>2019-06-05T08:37:02.000Z</time>
      </trkpt>
      <trkpt lat="50.545010" lon="25.870670">
        <ele>250.137040</ele>
        <time>2019-06-05T08:37:06.000Z</time>
      </trkpt>
      <trkpt lat="50.545033" lon="25.870817">
        <ele>250.662932</ele>
        <time>2019-06-05T08:37:10.000Z</time>
      </trkpt>
      <trkpt lat="50.545055" lon="25.870964">
        <ele>251.187543</ele>
        <time>2019-06-05T08:37:14.000Z</time>
      </trkpt>
      <trkpt lat="50.545060" lon="25.871110">
        <ele>251.695446</ele>
        <time>2019-06-05T08:37:18.000Z</time>
      </trkpt>
      <trkpt lat="50.545074" lon="25.871254">
        <ele>252.201486</ele>
        <time>2019-06-05T08:37:22.000Z</time>
      </trkpt>
      <trkpt lat="50.545094" lon="25.871400">
        <ele>252.720303</ele>
        <time>2019-06-05T08:37:26.000Z</time>
      </trkpt>
      <trkpt lat="50.545116" lon="25.871544">
        <ele>253.234775</ele>
        <time>2019-06-05T08:37:30.000Z</time>
      </trkpt>
      <trkpt lat="50.545135" lon="25.871710">
        <ele>253.820695</ele>
        <time>2019-06-05T08:37:35.000Z</time>
      </trkpt>
      <trkpt lat="50.545143" lon="25.871851">
        <ele>254.312441</ele>
        <time>2019-06-05T08:37:39.000Z</time>
      </trkpt>
      <trkpt lat="50.545162" lon="25.871996">
        <ele>254.826730</ele>
        <time>2019-06-05T08:37:43.000Z</time>
      </trkpt>
      <trkpt lat="50.545177" lon="25.872143">
        <ele>255.343911</ele>
        <time>2019-06-05T08:37:47.000Z</time>
      </trkpt>
      <trkpt lat="50.545193" lon="25.872300">
        <ele>255.896257</ele>
        <time>2019-06-05T08:37:51.000Z</time>
      </trkpt>
      <trkpt lat="50.545216" lon="25.872442">
        <ele>256.405298</ele>
        <time>2019-06-05T08:37:55.000Z</time>
      </trkpt>
      <trkpt lat="50.545235" lon="25.872595">
        <ele>257.006321</ele>
        <time>2019-06-05T08:37:59.000Z</time>
      </trkpt>
      <trkpt lat="50.545250" lon="25.872742">
        <ele>257.590520</ele>
        <time>2019-06-05T08:38:03.000Z</time>
      </trkpt>
      <trkpt lat="50.545270" lon="25.872889">
        <ele>258.180403</ele>
        <time>2019-06-05T08:38:07.000Z</time>
      </trkpt>
      <trkpt lat="50.545277" lon="25.873030">
        <ele>258.735356</ele>
        <time>2019-06-05T08:38:11.000Z</time>
      </trkpt>
      <trkpt lat="50.545280" lon="25.873170">
        <ele>259.285011</ele>
        <time>2019-06-05T08:38:15.000Z</time>
      </trkpt>
      <trkpt lat="50.545296" lon="25.873320">
        <ele>259.881827</ele>
        <time>2019-06-05T08:38:19.000Z</time>
      </trkpt>
      <trkpt lat="50.545307" lon="25.873465">
        <ele>260.454830</ele>
        <time>2019-06-05T08:38:23.000Z</time>
      </trkpt>
      <trkpt lat="50.545326" lon="25.873611">
        <ele>261.039605</ele>
        <time>2019-06-05T08:38:27.000Z</time>
      </trkpt>
      <trkpt lat="50.545345" lon="25.873758">
        <ele>261.628225</ele>
        <time>2019-06-05T08:38:31.000Z</time>
      </trkpt>
      <trkpt lat="50.545357" lon="25.873907">
        <ele>262.217559</ele>
        <time>2019-06-05T08:38:35.000Z</time>
      </trkpt>
      <trkpt lat="50.545380" lon="25.874060">
        <ele>262.834481</ele>
        <time>2019-06-05T08:38:39.000Z</time>
      </trkpt>
      <trkpt lat="50.545387" lon="25.874212">
        <ele>263.432473</ele>
        <time>2019-06-05T08:38:43.000Z</time>
      </trkpt>
      <trkpt lat="50.545410" lon="25.874363">
        <ele>264.041761</ele>
        <time>2019-06-05T08:38:47.000Z</time>
      </trkpt>
      <trkpt lat="50.545418" lon="25.874520">
        <ele>264.659785</ele>
        <time>2019-06-05T08:38:51.000Z</time>
      </trkpt>
      <trkpt lat="50.545440" lon="25.874670">
        <ele>265.263839</ele>
        <time>2019-06-05T08:38:55.000Z</time>
      </trkpt>
      <trkpt lat="50.545467" lon="25.874830">
        <ele>265.913416</ele>
        <time>2019-06-05T08:38:59.000Z</time>
      </trkpt>
      <trkpt lat="50.545486" lon="25.874980">
        <ele>266.513575</ele>
        <time>2019-06-05T08:39:03.000Z</time>
      </trkpt>
      <trkpt lat="50.545506" lon="25.875135">
        <ele>267.134185</ele>
        <time>2019-06-05T08:39:07.000Z</time>
      </trkpt>
      <trkpt lat="50.545525" lon="25.875284">
        <ele>267.571242</ele>
        <time>2019-06-05T08:39:11.000Z</time>
      </trkpt>
      <trkpt lat="50.545544" lon="25.875427">
        <ele>267.475610</ele>
        <time>2019-06-05T08:39:15.000Z</time>
      </trkpt>
      <trkpt lat="50.545560" lon="25.875582">
        <ele>267.372818</ele>
        <time>2019-06-05T08:39:19.000Z</time>
      </trkpt>
      <trkpt lat="50.545574" lon="25.875725">
        <ele>267.278107</ele>
        <time>2019-06-05T08:39:23.000Z</time>
      </trkpt>
      <trkpt lat="50.545590" lon="25.875887">
        <ele>267.170790</ele>
        <time>2019-06-05T08:39:28.000Z</time>
      </trkpt>
      <trkpt lat="50.545610" lon="25.876045">
        <ele>267.065332</ele>
        <time>2019-06-05T08:39:34.000Z</time>
      </trkpt>
      <trkpt lat="50.545666" lon="25.876270">
        <ele>266.907154</ele>
        <time>2019-06-05T08:41:37.000Z</time>
      </trkpt>
      <trkpt lat="50.545700" lon="25.876434">
        <ele>266.794232</ele>
        <time>2019-06-05T08:41:41.000Z</time>
      </trkpt>
      <trkpt lat="50.545723" lon="25.876596">
        <ele>266.685574</ele>
        <time>2019-06-05T08:41:45.000Z</time>
      </trkpt>
      <trkpt lat="50.545757" lon="25.876750">
        <ele>266.578856</ele>
        <time>2019-06-05T08:41:49.000Z</time>
      </trkpt>
      <trkpt lat="50.545803" lon="25.876911">
        <ele>266.463304</ele>
        <time>2019-06-05T08:41:53.000Z</time>
      </trkpt>
      <trkpt lat="50.545850" lon="25.877037">
        <ele>266.367666</ele>
        <time>2019-06-05T08:41:56.000Z</time>
      </trkpt>
      <trkpt lat="50.545902" lon="25.877184">
        <ele>266.257537</ele>
        <time>2019-06-05T08:41:59.000Z</time>
      </trkpt>
      <trkpt lat="50.545967" lon="25.877363">
        <ele>266.122583</ele>
        <time>2019-06-05T08:42:02.000Z</time>
      </trkpt>
      <trkpt lat="50.546013" lon="25.877512">
        <ele>266.014148</ele>
        <time>2019-06-05T08:42:04.000Z</time>
      </trkpt>
      <trkpt lat="50.546062" lon="25.877678">
        <ele>265.894336</ele>
        <time>2019-06-05T08:42:06.000Z</time>
      </trkpt>
      <trkpt lat="50.546127" lon="25.877850">
        <ele>265.763342</ele>
        <time>2019-06-05T08:42:08.000Z</time>
      </trkpt>
      <trkpt lat="50.546196" lon="25.878027">
        <ele>265.181010</ele>
        <time>2019-06-05T08:42:10.000Z</time>
      </trkpt>
      <trkpt lat="50.546265" lon="25.878216">
        <ele>264.478661</ele>
        <time>2019-06-05T08:42:12.000Z</time>
      </trkpt>
      <trkpt lat="50.546337" lon="25.878414">
        <ele>263.743587</ele>
        <time>2019-06-05T08:42:14.000Z</time>
      </trkpt>
      <trkpt lat="50.546410" lon="25.878622">
        <ele>262.977942</ele>
        <time>2019-06-05T08:42:16.000Z</time>
      </trkpt>
      <trkpt lat="50.546482" lon="25.878834">
        <ele>262.203393</ele>
        <time>2019-06-05T08:42:18.000Z</time>
      </trkpt>
      <trkpt lat="50.546560" lon="25.879050">
        <ele>261.402868</ele>
        <time>2019-06-05T08:42:20.000Z</time>
      </trkpt>
      <trkpt lat="50.546642" lon="25.879280">
        <ele>260.553089</ele>
        <time>2019-06-05T08:42:22.000Z</time>
      </trkpt>
      <trkpt lat="50.546730" lon="25.879519">
        <ele>259.663049</ele>
        <time>2019-06-05T08:42:24.000Z</time>
      </trkpt>
      <trkpt lat="50.546810" lon="25.879759">
        <ele>258.789787</ele>
        <time>2019-06-05T08:42:26.000Z</time>
      </trkpt>
      <trkpt lat="50.546894" lon="25.880007">
        <ele>257.884258</ele>
        <time>2019-06-05T08:42:28.000Z</time>
      </trkpt>
      <trkpt lat="50.546978" lon="25.880264">
        <ele>256.953039</ele>
        <time>2019-06-05T08:42:30.000Z</time>
      </trkpt>
      <trkpt lat="50.547020" lon="25.880392">
        <ele>256.568335</ele>
        <time>2019-06-05T08:42:31.000Z</time>
      </trkpt>
      <trkpt lat="50.547062" lon="25.880520">
        <ele>256.383733</ele>
        <time>2019-06-05T08:42:32.000Z</time>
      </trkpt>
      <trkpt lat="50.547108" lon="25.880646">
        <ele>256.197520</ele>
        <time>2019-06-05T08:42:33.000Z</time>
      </trkpt>
      <trkpt lat="50.547153" lon="25.880774">
        <ele>256.010065</ele>
        <time>2019-06-05T08:42:34.000Z</time>
      </trkpt>
      <trkpt lat="50.547203" lon="25.880898">
        <ele>255.821875</ele>
        <time>2019-06-05T08:42:35.000Z</time>
      </trkpt>
      <trkpt lat="50.547250" lon="25.881016">
        <ele>255.643415</ele>
        <time>2019-06-05T08:42:36.000Z</time>
      </trkpt>
      <trkpt lat="50.547340" lon="25.881240">
        <ele>255.303806</ele>
        <time>2019-06-05T08:42:38.000Z</time>
      </trkpt>
      <trkpt lat="50.547420" lon="25.881450">
        <ele>254.990050</ele>
        <time>2019-06-05T08:42:40.000Z</time>
      </trkpt>
      <trkpt lat="50.547490" lon="25.881657">
        <ele>254.689570</ele>
        <time>2019-06-05T08:42:42.000Z</time>
      </trkpt>
      <trkpt lat="50.547558" lon="25.881847">
        <ele>254.410136</ele>
        <time>2019-06-05T08:42:44.000Z</time>
      </trkpt>
      <trkpt lat="50.547623" lon="25.882027">
        <ele>254.144835</ele>
        <time>2019-06-05T08:42:46.000Z</time>
      </trkpt>
      <trkpt lat="50.547688" lon="25.882189">
        <ele>253.899323</ele>
        <time>2019-06-05T08:42:48.000Z</time>
      </trkpt>
      <trkpt lat="50.547745" lon="25.882350">
        <ele>253.663152</ele>
        <time>2019-06-05T08:42:50.000Z</time>
      </trkpt>
      <trkpt lat="50.547802" lon="25.882510">
        <ele>253.428100</ele>
        <time>2019-06-05T08:42:52.000Z</time>
      </trkpt>
      <trkpt lat="50.547850" lon="25.882673">
        <ele>253.197889</ele>
        <time>2019-06-05T08:42:54.000Z</time>
      </trkpt>
      <trkpt lat="50.547905" lon="25.882832">
        <ele>252.995929</ele>
        <time>2019-06-05T08:42:56.000Z</time>
      </trkpt>
      <trkpt lat="50.547947" lon="25.882980">
        <ele>253.013057</ele>
        <time>2019-06-05T08:42:58.000Z</time>
      </trkpt>
      <trkpt lat="50.547993" lon="25.883112">
        <ele>253.028967</ele>
        <time>2019-06-05T08:43:00.000Z</time>
      </trkpt>
      <trkpt lat="50.548040" lon="25.883238">
        <ele>253.044406</ele>
        <time>2019-06-05T08:43:02.000Z</time>
      </trkpt>
      <trkpt lat="50.548100" lon="25.883415">
        <ele>253.065606</ele>
        <time>2019-06-05T08:43:05.000Z</time>
      </trkpt>
      <trkpt lat="50.548164" lon="25.883593">
        <ele>253.087219</ele>
        <time>2019-06-05T08:43:08.000Z</time>
      </trkpt>
      <trkpt lat="50.548230" lon="25.883762">
        <ele>253.108181</ele>
        <time>2019-06-05T08:43:11.000Z</time>
      </trkpt>
      <trkpt lat="50.548280" lon="25.883883">
        <ele>253.123434</ele>
        <time>2019-06-05T08:43:13.000Z</time>
      </trkpt>
      <trkpt lat="50.548332" lon="25.884008">
        <ele>253.139222</ele>
        <time>2019-06-05T08:43:15.000Z</time>
      </trkpt>
      <trkpt lat="50.548380" lon="25.884153">
        <ele>253.156500</ele>
        <time>2019-06-05T08:43:17.000Z</time>
      </trkpt>
      <trkpt lat="50.548435" lon="25.884314">
        <ele>253.175816</ele>
        <time>2019-06-05T08:43:19.000Z</time>
      </trkpt>
      <trkpt lat="50.548492" lon="25.884462">
        <ele>253.194105</ele>
        <time>2019-06-05T08:43:21.000Z</time>
      </trkpt>
      <trkpt lat="50.548553" lon="25.884619">
        <ele>253.213551</ele>
        <time>2019-06-05T08:43:23.000Z</time>
      </trkpt>
      <trkpt lat="50.548610" lon="25.884768">
        <ele>253.231930</ele>
        <time>2019-06-05T08:43:25.000Z</time>
      </trkpt>
      <trkpt lat="50.548676" lon="25.884932">
        <ele>253.252444</ele>
        <time>2019-06-05T08:43:27.000Z</time>
      </trkpt>
      <trkpt lat="50.548730" lon="25.885086">
        <ele>253.271031</ele>
        <time>2019-06-05T08:43:29.000Z</time>
      </trkpt>
      <trkpt lat="50.548770" lon="25.885223">
        <ele>253.286964</ele>
        <time>2019-06-05T08:43:31.000Z</time>
      </trkpt>
      <trkpt lat="50.548832" lon="25.885400">
        <ele>253.503665</ele>
        <time>2019-06-05T08:43:34.000Z</time>
      </trkpt>
      <trkpt lat="50.548878" lon="25.885572">
        <ele>253.771013</ele>
        <time>2019-06-05T08:43:37.000Z</time>
      </trkpt>
      <trkpt lat="50.548927" lon="25.885727">
        <ele>254.019033</ele>
        <time>2019-06-05T08:43:40.000Z</time>
      </trkpt>
      <trkpt lat="50.548980" lon="25.885870">
        <ele>254.256201</ele>
        <time>2019-06-05T08:43:43.000Z</time>
      </trkpt>
      <trkpt lat="50.549038" lon="25.886005">
        <ele>254.489664</ele>
        <time>2019-06-05T08:43:46.000Z</time>
      </trkpt>
      <trkpt lat="50.549090" lon="25.886147">
        <ele>254.724461</ele>
        <time>2019-06-05T08:43:49.000Z</time>
      </trkpt>
      <trkpt lat="50.549150" lon="25.886272">
        <ele>254.948890</ele>
        <time>2019-06-05T08:43:52.000Z</time>
      </trkpt>
      <trkpt lat="50.549202" lon="25.886420">
        <ele>255.191172</ele>
        <time>2019-06-05T08:43:55.000Z</time>
      </trkpt>
      <trkpt lat="50.549240" lon="25.886560">
        <ele>255.409271</ele>
        <time>2019-06-05T08:43:58.000Z</time>
      </trkpt>
      <trkpt lat="50.549294" lon="25.886717">
        <ele>255.665028</ele>
        <time>2019-06-05T08:44:01.000Z</time>
      </trkpt>
      <trkpt lat="50.549360" lon="25.886860">
        <ele>255.918231</ele>
        <time>2019-06-05T08:44:04.000Z</time>
      </trkpt>
      <trkpt lat="50.549416" lon="25.887000">
        <ele>256.155228</ele>
        <time>2019-06-05T08:44:07.000Z</time>
      </trkpt>
      <trkpt lat="50.549470" lon="25.887142">
        <ele>256.392307</ele>
        <time>2019-06-05T08:44:10.000Z</time>
      </trkpt>
      <trkpt lat="50.549522" lon="25.887297">
        <ele>256.643411</ele>
        <time>2019-06-05T08:44:13.000Z</time>
      </trkpt>
      <trkpt lat="50.549570" lon="25.887455">
        <ele>256.894303</ele>
        <time>2019-06-05T08:44:16.000Z</time>
      </trkpt>
      <trkpt lat="50.549618" lon="25.887602">
        <ele>257.131075</ele>
        <time>2019-06-05T08:44:19.000Z</time>
      </trkpt>
      <trkpt lat="50.549675" lon="25.887756">
        <ele>257.362369</ele>
        <time>2019-06-05T08:44:22.000Z</time>
      </trkpt>
      <trkpt lat="50.549725" lon="25.887910">
        <ele>257.455064</ele>
        <time>2019-06-05T08:44:25.000Z</time>
      </trkpt>
      <trkpt lat="50.549774" lon="25.888067">
        <ele>257.548818</ele>
        <time>2019-06-05T08:44:28.000Z</time>
      </trkpt>
      <trkpt lat="50.549830" lon="25.888212">
        <ele>257.639767</ele>
        <time>2019-06-05T08:44:31.000Z</time>
      </trkpt>
      <trkpt lat="50.549885" lon="25.888357">
        <ele>257.730280</ele>
        <time>2019-06-05T08:44:34.000Z</time>
      </trkpt>
      <trkpt lat="50.549940" lon="25.888510">
        <ele>257.824501</ele>
        <time>2019-06-05T08:44:37.000Z</time>
      </trkpt>
      <trkpt lat="50.550000" lon="25.888660">
        <ele>257.919504</ele>
        <time>2019-06-05T08:44:40.000Z</time>
      </trkpt>
      <trkpt lat="50.550040" lon="25.888826">
        <ele>258.014662</ele>
        <time>2019-06-05T08:44:43.000Z</time>
      </trkpt>
      <trkpt lat="50.550102" lon="25.888983">
        <ele>258.113740</ele>
        <time>2019-06-05T08:44:46.000Z</time>
      </trkpt>
      <trkpt lat="50.550150" lon="25.889132">
        <ele>258.203280</ele>
        <time>2019-06-05T08:44:49.000Z</time>
      </trkpt>
      <trkpt lat="50.550205" lon="25.889286">
        <ele>258.297968</ele>
        <time>2019-06-05T08:44:52.000Z</time>
      </trkpt>
      <trkpt lat="50.550262" lon="25.889433">
        <ele>258.390270</ele>
        <time>2019-06-05T08:44:55.000Z</time>
      </trkpt>
      <trkpt lat="50.550327" lon="25.889584">
        <ele>258.488028</ele>
        <time>2019-06-05T08:44:58.000Z</time>
      </trkpt>
      <trkpt lat="50.550400" lon="25.889729">
        <ele>258.587185</ele>
        <time>2019-06-05T08:45:01.000Z</time>
      </trkpt>
      <trkpt lat="50.550476" lon="25.889889">
        <ele>258.694257</ele>
        <time>2019-06-05T08:45:04.000Z</time>
      </trkpt>
      <trkpt lat="50.550564" lon="25.890043">
        <ele>258.805268</ele>
        <time>2019-06-05T08:45:07.000Z</time>
      </trkpt>
      <trkpt lat="50.550625" lon="25.890158">
        <ele>258.858860</ele>
        <time>2019-06-05T08:45:09.000Z</time>
      </trkpt>
      <trkpt lat="50.550686" lon="25.890265">
        <ele>258.834686</ele>
        <time>2019-06-05T08:45:11.000Z</time>
      </trkpt>
      <trkpt lat="50.550743" lon="25.890377">
        <ele>258.810555</ele>
        <time>2019-06-05T08:45:13.000Z</time>
      </trkpt>
      <trkpt lat="50.550808" lon="25.890491">
        <ele>258.784798</ele>
        <time>2019-06-05T08:45:15.000Z</time>
      </trkpt>
      <trkpt lat="50.550873" lon="25.890604">
        <ele>258.759165</ele>
        <time>2019-06-05T08:45:17.000Z</time>
      </trkpt>
      <trkpt lat="50.550938" lon="25.890715">
        <ele>258.733781</ele>
        <time>2019-06-05T08:45:19.000Z</time>
      </trkpt>
      <trkpt lat="50.551030" lon="25.890858">
        <ele>258.699559</ele>
        <time>2019-06-05T08:45:22.000Z</time>
      </trkpt>
      <trkpt lat="50.551113" lon="25.891016">
        <ele>258.665085</ele>
        <time>2019-06-05T08:45:25.000Z</time>
      </trkpt>
      <trkpt lat="50.551174" lon="25.891127">
        <ele>258.640406</ele>
        <time>2019-06-05T08:45:27.000Z</time>
      </trkpt>
      <trkpt lat="50.551230" lon="25.891241">
        <ele>258.616175</ele>
        <time>2019-06-05T08:45:29.000Z</time>
      </trkpt>
      <trkpt lat="50.551296" lon="25.891356">
        <ele>258.590115</ele>
        <time>2019-06-05T08:45:31.000Z</time>
      </trkpt>
      <trkpt lat="50.551353" lon="25.891466">
        <ele>258.566246</ele>
        <time>2019-06-05T08:45:33.000Z</time>
      </trkpt>
      <trkpt lat="50.551440" lon="25.891620">
        <ele>258.531594</ele>
        <time>2019-06-05T08:45:36.000Z</time>
      </trkpt>
      <trkpt lat="50.551502" lon="25.891730">
        <ele>258.506867</ele>
        <time>2019-06-05T08:45:38.000Z</time>
      </trkpt>
      <trkpt lat="50.551563" lon="25.891844">
        <ele>258.481804</ele>
        <time>2019-06-05T08:45:40.000Z</time>
      </trkpt>
      <trkpt lat="50.551630" lon="25.891950">
        <ele>258.456662</ele>
        <time>2019-06-05T08:45:42.000Z</time>
      </trkpt>
      <trkpt lat="50.551690" lon="25.892056">
        <ele>258.432789</ele>
        <time>2019-06-05T08:45:44.000Z</time>
      </trkpt>
      <trkpt lat="50.551758" lon="25.892162">
        <ele>258.407459</ele>
        <time>2019-06-05T08:45:46.000Z</time>
      </trkpt>
      <trkpt lat="50.551820" lon="25.892277">
        <ele>258.295628</ele>
        <time>2019-06-05T08:45:48.000Z</time>
      </trkpt>
      <trkpt lat="50.551884" lon="25.892393">
        <ele>257.955737</ele>
        <time>2019-06-05T08:45:50.000Z</time>
      </trkpt>
      <trkpt lat="50.551968" lon="25.892542">
        <ele>257.515034</ele>
        <time>2019-06-05T08:45:53.000Z</time>
      </trkpt>
      <trkpt lat="50.552055" lon="25.892683">
        <ele>257.080198</ele>
        <time>2019-06-05T08:45:56.000Z</time>
      </trkpt>
      <trkpt lat="50.552143" lon="25.892843">
        <ele>256.612014</ele>
        <time>2019-06-05T08:45:59.000Z</time>
      </trkpt>
      <trkpt lat="50.552204" lon="25.892956">
        <ele>256.283966</ele>
        <time>2019-06-05T08:46:01.000Z</time>
      </trkpt>
      <trkpt lat="50.552260" lon="25.893074">
        <ele>255.958119</ele>
        <time>2019-06-05T08:46:03.000Z</time>
      </trkpt>
      <trkpt lat="50.552330" lon="25.893185">
        <ele>255.612118</ele>
        <time>2019-06-05T08:46:05.000Z</time>
      </trkpt>
      <trkpt lat="50.552390" lon="25.893301">
        <ele>255.281194</ele>
        <time>2019-06-05T08:46:07.000Z</time>
      </trkpt>
      <trkpt lat="50.552452" lon="25.893421">
        <ele>254.939011</ele>
        <time>2019-06-05T08:46:09.000Z</time>
      </trkpt>
      <trkpt lat="50.552560" lon="25.893610">
        <ele>254.376640</ele>
        <time>2019-06-05T08:46:12.000Z</time>
      </trkpt>
      <trkpt lat="50.552630" lon="25.893740">
        <ele>253.999640</ele>
        <time>2019-06-05T08:46:14.000Z</time>
      </trkpt>
      <trkpt lat="50.552704" lon="25.893880">
        <ele>253.596741</ele>
        <time>2019-06-05T08:46:16.000Z</time>
      </trkpt>
      <trkpt lat="50.552780" lon="25.894026">
        <ele>253.179172</ele>
        <time>2019-06-05T08:46:18.000Z</time>
      </trkpt>
      <trkpt lat="50.552860" lon="25.894169">
        <ele>252.757644</ele>
        <time>2019-06-05T08:46:20.000Z</time>
      </trkpt>
      <trkpt lat="50.552944" lon="25.894314">
        <ele>252.323527</ele>
        <time>2019-06-05T08:46:22.000Z</time>
      </trkpt>
      <trkpt lat="50.553032" lon="25.894468">
        <ele>251.727884</ele>
        <time>2019-06-05T08:46:24.000Z</time>
      </trkpt>
      <trkpt lat="50.553123" lon="25.894610">
        <ele>251.046743</ele>
        <time>2019-06-05T08:46:26.000Z</time>
      </trkpt>
      <trkpt lat="50.553215" lon="25.894762">
        <ele>250.337762</ele>
        <time>2019-06-05T08:46:28.000Z</time>
      </trkpt>
      <trkpt lat="50.553303" lon="25.894922">
        <ele>249.623074</ele>
        <time>2019-06-05T08:46:30.000Z</time>
      </trkpt>
      <trkpt lat="50.553390" lon="25.895086">
        <ele>248.901537</ele>
        <time>2019-06-05T08:46:32.000Z</time>
      </trkpt>
      <trkpt lat="50.553490" lon="25.895247">
        <ele>248.141157</ele>
        <time>2019-06-05T08:46:34.000Z</time>
      </trkpt>
      <trkpt lat="50.553593" lon="25.895418">
        <ele>247.345387</ele>
        <time>2019-06-05T08:46:36.000Z</time>
      </trkpt>
      <trkpt lat="50.553690" lon="25.895594">
        <ele>246.558537</ele>
        <time>2019-06-05T08:46:38.000Z</time>
      </trkpt>
      <trkpt lat="50.553800" lon="25.895780">
        <ele>245.700371</ele>
        <time>2019-06-05T08:46:40.000Z</time>
      </trkpt>
      <trkpt lat="50.553910" lon="25.895966">
        <ele>244.842206</ele>
        <time>2019-06-05T08:46:42.000Z</time>
      </trkpt>
      <trkpt lat="50.554024" lon="25.896156">
        <ele>243.959645</ele>
        <time>2019-06-05T08:46:44.000Z</time>
      </trkpt>
      <trkpt lat="50.554140" lon="25.896362">
        <ele>243.030037</ele>
        <time>2019-06-05T08:46:46.000Z</time>
      </trkpt>
      <trkpt lat="50.554253" lon="25.896568">
        <ele>242.433142</ele>
        <time>2019-06-05T08:46:48.000Z</time>
      </trkpt>
      <trkpt lat="50.554375" lon="25.896770">
        <ele>242.158741</ele>
        <time>2019-06-05T08:46:50.000Z</time>
      </trkpt>
      <trkpt lat="50.554493" lon="25.896976">
        <ele>241.885661</ele>
        <time>2019-06-05T08:46:52.000Z</time>
      </trkpt>
      <trkpt lat="50.554610" lon="25.897188">
        <ele>241.609184</ele>
        <time>2019-06-05T08:46:54.000Z</time>
      </trkpt>
      <trkpt lat="50.554672" lon="25.897295">
        <ele>241.466604</ele>
        <time>2019-06-05T08:46:55.000Z</time>
      </trkpt>
      <trkpt lat="50.554730" lon="25.897404">
        <ele>241.326621</ele>
        <time>2019-06-05T08:46:56.000Z</time>
      </trkpt>
      <trkpt lat="50.554832" lon="25.897629">
        <ele>241.054487</ele>
        <time>2019-06-05T08:46:58.000Z</time>
      </trkpt>
      <trkpt lat="50.554940" lon="25.897821">
        <ele>240.802012</ele>
        <time>2019-06-05T08:47:00.000Z</time>
      </trkpt>
      <trkpt lat="50.555035" lon="25.897982">
        <ele>240.585682</ele>
        <time>2019-06-05T08:47:02.000Z</time>
      </trkpt>
      <trkpt lat="50.555077" lon="25.898140">
        <ele>240.417056</ele>
        <time>2019-06-05T08:47:04.000Z</time>
      </trkpt>
      <trkpt lat="50.555100" lon="25.898283">
        <ele>240.271825</ele>
        <time>2019-06-05T08:47:06.000Z</time>
      </trkpt>
      <trkpt lat="50.555134" lon="25.898453">
        <ele>240.096355</ele>
        <time>2019-06-05T08:47:09.000Z</time>
      </trkpt>
      <trkpt lat="50.555210" lon="25.898592">
        <ele>239.915804</ele>
        <time>2019-06-05T08:47:13.000Z</time>
      </trkpt>
      <trkpt lat="50.555298" lon="25.898695">
        <ele>239.723238</ele>
        <time>2019-06-05T08:47:17.000Z</time>
      </trkpt>
      <trkpt lat="50.555360" lon="25.898800">
        <ele>239.484204</ele>
        <time>2019-06-05T08:47:21.000Z</time>
      </trkpt>
      <trkpt lat="50.555435" lon="25.898966">
        <ele>239.144538</ele>
        <time>2019-06-05T09:43:02.000Z</time>
      </trkpt>
      <trkpt lat="50.555527" lon="25.899069">
        <ele>238.848215</ele>
        <time>2019-06-05T09:43:23.000Z</time>
      </trkpt>
      <trkpt lat="50.555595" lon="25.899160">
        <ele>238.613950</ele>
        <time>2019-06-05T09:43:26.000Z</time>
      </trkpt>
      <trkpt lat="50.555668" lon="25.899288">
        <ele>238.327125</ele>
        <time>2019-06-05T09:43:29.000Z</time>
      </trkpt>
      <trkpt lat="50.555750" lon="25.899431">
        <ele>238.005907</ele>
        <time>2019-06-05T09:43:32.000Z</time>
      </trkpt>
      <trkpt lat="50.555843" lon="25.899578">
        <ele>237.659977</ele>
        <time>2019-06-05T09:43:35.000Z</time>
      </trkpt>
      <trkpt lat="50.555910" lon="25.899685">
        <ele>237.409460</ele>
        <time>2019-06-05T09:43:37.000Z</time>
      </trkpt>
      <trkpt lat="50.555960" lon="25.899817">
        <ele>237.153196</ele>
        <time>2019-06-05T09:43:39.000Z</time>
      </trkpt>
      <trkpt lat="50.556026" lon="25.899923">
        <ele>236.905708</ele>
        <time>2019-06-05T09:43:41.000Z</time>
      </trkpt>
      <trkpt lat="50.556107" lon="25.900036">
        <ele>236.621626</ele>
        <time>2019-06-05T09:43:43.000Z</time>
      </trkpt>
      <trkpt lat="50.556190" lon="25.900152">
        <ele>236.330297</ele>
        <time>2019-06-05T09:43:45.000Z</time>
      </trkpt>
      <trkpt lat="50.556280" lon="25.900263">
        <ele>236.030200</ele>
        <time>2019-06-05T09:43:47.000Z</time>
      </trkpt>
      <trkpt lat="50.556360" lon="25.900390">
        <ele>235.731979</ele>
        <time>2019-06-05T09:43:49.000Z</time>
      </trkpt>
      <trkpt lat="50.556446" lon="25.900515">
        <ele>235.424740</ele>
        <time>2019-06-05T09:43:51.000Z</time>
      </trkpt>
      <trkpt lat="50.556534" lon="25.900640">
        <ele>235.113625</ele>
        <time>2019-06-05T09:43:53.000Z</time>
      </trkpt>
      <trkpt lat="50.556614" lon="25.900808">
        <ele>234.560359</ele>
        <time>2019-06-05T09:43:55.000Z</time>
      </trkpt>
      <trkpt lat="50.556700" lon="25.900967">
        <ele>233.971631</ele>
        <time>2019-06-05T09:43:57.000Z</time>
      </trkpt>
      <trkpt lat="50.556800" lon="25.901120">
        <ele>233.352761</ele>
        <time>2019-06-05T09:43:59.000Z</time>
      </trkpt>
      <trkpt lat="50.556892" lon="25.901287">
        <ele>232.729575</ele>
        <time>2019-06-05T09:44:01.000Z</time>
      </trkpt>
      <trkpt lat="50.556988" lon="25.901466">
        <ele>232.069142</ele>
        <time>2019-06-05T09:44:03.000Z</time>
      </trkpt>
      <trkpt lat="50.557095" lon="25.901650">
        <ele>231.365884</ele>
        <time>2019-06-05T09:44:05.000Z</time>
      </trkpt>
      <trkpt lat="50.557200" lon="25.901846">
        <ele>230.643066</ele>
        <time>2019-06-05T09:44:07.000Z</time>
      </trkpt>
      <trkpt lat="50.557316" lon="25.902046">
        <ele>229.879568</ele>
        <time>2019-06-05T09:44:09.000Z</time>
      </trkpt>
      <trkpt lat="50.557423" lon="25.902248">
        <ele>229.138087</ele>
        <time>2019-06-05T09:44:11.000Z</time>
      </trkpt>
      <trkpt lat="50.557537" lon="25.902452">
        <ele>228.372116</ele>
        <time>2019-06-05T09:44:13.000Z</time>
      </trkpt>
      <trkpt lat="50.557648" lon="25.902647">
        <ele>227.633960</ele>
        <time>2019-06-05T09:44:15.000Z</time>
      </trkpt>
      <trkpt lat="50.557762" lon="25.902843">
        <ele>227.035756</ele>
        <time>2019-06-05T09:44:17.000Z</time>
      </trkpt>
      <trkpt lat="50.557860" lon="25.903030">
        <ele>226.892424</ele>
        <time>2019-06-05T09:44:19.000Z</time>
      </trkpt>
      <trkpt lat="50.557964" lon="25.903206">
        <ele>226.750305</ele>
        <time>2019-06-05T09:44:21.000Z</time>
      </trkpt>
      <trkpt lat="50.558060" lon="25.903378">
        <ele>226.614934</ele>
        <time>2019-06-05T09:44:23.000Z</time>
      </trkpt>
      <trkpt lat="50.558150" lon="25.903542">
        <ele>226.486798</ele>
        <time>2019-06-05T09:44:25.000Z</time>
      </trkpt>
      <trkpt lat="50.558243" lon="25.903696">
        <ele>226.361168</ele>
        <time>2019-06-05T09:44:27.000Z</time>
      </trkpt>
      <trkpt lat="50.558323" lon="25.903852">
        <ele>226.242630</ele>
        <time>2019-06-05T09:44:29.000Z</time>
      </trkpt>
      <trkpt lat="50.558410" lon="25.903992">
        <ele>226.126836</ele>
        <time>2019-06-05T09:44:31.000Z</time>
      </trkpt>
      <trkpt lat="50.558483" lon="25.904130">
        <ele>226.020660</ele>
        <time>2019-06-05T09:44:33.000Z</time>
      </trkpt>
      <trkpt lat="50.558550" lon="25.904270">
        <ele>225.917024</ele>
        <time>2019-06-05T09:44:35.000Z</time>
      </trkpt>
      <trkpt lat="50.558620" lon="25.904402">
        <ele>225.815360</ele>
        <time>2019-06-05T09:44:37.000Z</time>
      </trkpt>
      <trkpt lat="50.558690" lon="25.904512">
        <ele>225.723304</ele>
        <time>2019-06-05T09:44:39.000Z</time>
      </trkpt>
      <trkpt lat="50.558754" lon="25.904625">
        <ele>225.633796</ele>
        <time>2019-06-05T09:44:41.000Z</time>
      </trkpt>
      <trkpt lat="50.558820" lon="25.904730">
        <ele>225.546461</ele>
        <time>2019-06-05T09:44:43.000Z</time>
      </trkpt>
      <trkpt lat="50.558884" lon="25.904839">
        <ele>225.458704</ele>
        <time>2019-06-05T09:44:45.000Z</time>
      </trkpt>
      <trkpt lat="50.558940" lon="25.904950">
        <ele>225.382796</ele>
        <time>2019-06-05T09:44:47.000Z</time>
      </trkpt>
      <trkpt lat="50.559032" lon="25.905092">
        <ele>225.298042</ele>
        <time>2019-06-05T09:44:50.000Z</time>
      </trkpt>
      <trkpt lat="50.559105" lon="25.905228">
        <ele>225.223640</ele>
        <time>2019-06-05T09:44:53.000Z</time>
      </trkpt>
      <trkpt lat="50.559177" lon="25.905365">
        <ele>225.149339</ele>
        <time>2019-06-05T09:44:56.000Z</time>
      </trkpt>
      <trkpt lat="50.559284" lon="25.905546">
        <ele>225.046021</ele>
        <time>2019-06-05T09:45:00.000Z</time>
      </trkpt>
      <trkpt lat="50.559370" lon="25.905699">
        <ele>224.960653</ele>
        <time>2019-06-05T09:45:03.000Z</time>
      </trkpt>
      <trkpt lat="50.559464" lon="25.905865">
        <ele>224.867727</ele>
        <time>2019-06-05T09:45:06.000Z</time>
      </trkpt>
      <trkpt lat="50.559536" lon="25.905996">
        <ele>224.795342</ele>
        <time>2019-06-05T09:45:08.000Z</time>
      </trkpt>
      <trkpt lat="50.559605" lon="25.906128">
        <ele>224.723909</ele>
        <time>2019-06-05T09:45:10.000Z</time>
      </trkpt>
      <trkpt lat="50.559680" lon="25.906265">
        <ele>224.648336</ele>
        <time>2019-06-05T09:45:12.000Z</time>
      </trkpt>
      <trkpt lat="50.559753" lon="25.906395">
        <ele>224.575832</ele>
        <time>2019-06-05T09:45:14.000Z</time>
      </trkpt>
      <trkpt lat="50.559826" lon="25.906517">
        <ele>224.505798</ele>
        <time>2019-06-05T09:45:16.000Z</time>
      </trkpt>
      <trkpt lat="50.559895" lon="25.906649">
        <ele>224.434366</ele>
        <time>2019-06-05T09:45:18.000Z</time>
      </trkpt>
      <trkpt lat="50.559963" lon="25.906761">
        <ele>224.369627</ele>
        <time>2019-06-05T09:45:20.000Z</time>
      </trkpt>
      <trkpt lat="50.560036" lon="25.906864">
        <ele>224.305142</ele>
        <time>2019-06-05T09:45:22.000Z</time>
      </trkpt>
      <trkpt lat="50.560100" lon="25.906979">
        <ele>224.241255</ele>
        <time>2019-06-05T09:45:24.000Z</time>
      </trkpt>
      <trkpt lat="50.560165" lon="25.907100">
        <ele>224.211184</ele>
        <time>2019-06-05T09:45:26.000Z</time>
      </trkpt>
      <trkpt lat="50.560238" lon="25.907225">
        <ele>224.198955</ele>
        <time>2019-06-05T09:45:28.000Z</time>
      </trkpt>
      <trkpt lat="50.560303" lon="25.907343">
        <ele>224.187707</ele>
        <time>2019-06-05T09:45:30.000Z</time>
      </trkpt>
      <trkpt lat="50.560368" lon="25.907460">
        <ele>224.176512</ele>
        <time>2019-06-05T09:45:32.000Z</time>
      </trkpt>
      <trkpt lat="50.560436" lon="25.907570">
        <ele>224.165458</ele>
        <time>2019-06-05T09:45:34.000Z</time>
      </trkpt>
      <trkpt lat="50.560497" lon="25.907682">
        <ele>224.154832</ele>
        <time>2019-06-05T09:45:36.000Z</time>
      </trkpt>
      <trkpt lat="50.560560" lon="25.907803">
        <ele>224.143565</ele>
        <time>2019-06-05T09:45:38.000Z</time>
      </trkpt>
      <trkpt lat="50.560620" lon="25.907907">
        <ele>224.133446</ele>
        <time>2019-06-05T09:45:40.000Z</time>
      </trkpt>
      <trkpt lat="50.560680" lon="25.908014">
        <ele>224.123167</ele>
        <time>2019-06-05T09:45:42.000Z</time>
      </trkpt>
      <trkpt lat="50.560740" lon="25.908125">
        <ele>224.112670</ele>
        <time>2019-06-05T09:45:44.000Z</time>
      </trkpt>
      <trkpt lat="50.560800" lon="25.908234">
        <ele>224.102283</ele>
        <time>2019-06-05T09:45:46.000Z</time>
      </trkpt>
      <trkpt lat="50.560863" lon="25.908339">
        <ele>224.091881</ele>
        <time>2019-06-05T09:45:48.000Z</time>
      </trkpt>
      <trkpt lat="50.560920" lon="25.908447">
        <ele>224.081768</ele>
        <time>2019-06-05T09:45:50.000Z</time>
      </trkpt>
      <trkpt lat="50.560986" lon="25.908566">
        <ele>224.070391</ele>
        <time>2019-06-05T09:45:52.000Z</time>
      </trkpt>
      <trkpt lat="50.561054" lon="25.908682">
        <ele>224.059023</ele>
        <time>2019-06-05T09:45:54.000Z</time>
      </trkpt>
      <trkpt lat="50.561115" lon="25.908806">
        <ele>224.047727</ele>
        <time>2019-06-05T09:45:56.000Z</time>
      </trkpt>
      <trkpt lat="50.561176" lon="25.908928">
        <ele>224.036545</ele>
        <time>2019-06-05T09:45:58.000Z</time>
      </trkpt>
      <trkpt lat="50.561237" lon="25.909046">
        <ele>224.025589</ele>
        <time>2019-06-05T09:46:00.000Z</time>
      </trkpt>
      <trkpt lat="50.561306" lon="25.909174">
        <ele>224.028523</ele>
        <time>2019-06-05T09:46:02.000Z</time>
      </trkpt>
      <trkpt lat="50.561370" lon="25.909290">
        <ele>224.145919</ele>
        <time>2019-06-05T09:46:04.000Z</time>
      </trkpt>
      <trkpt lat="50.561443" lon="25.909410">
        <ele>224.272870</ele>
        <time>2019-06-05T09:46:06.000Z</time>
      </trkpt>
      <trkpt lat="50.561516" lon="25.909525">
        <ele>224.397090</ele>
        <time>2019-06-05T09:46:08.000Z</time>
      </trkpt>
      <trkpt lat="50.561580" lon="25.909641">
        <ele>224.514485</ele>
        <time>2019-06-05T09:46:10.000Z</time>
      </trkpt>
      <trkpt lat="50.561646" lon="25.909756">
        <ele>224.632903</ele>
        <time>2019-06-05T09:46:12.000Z</time>
      </trkpt>
      <trkpt lat="50.561707" lon="25.909872">
        <ele>224.747964</ele>
        <time>2019-06-05T09:46:14.000Z</time>
      </trkpt>
      <trkpt lat="50.561775" lon="25.909979">
        <ele>224.863609</ele>
        <time>2019-06-05T09:46:16.000Z</time>
      </trkpt>
      <trkpt lat="50.561863" lon="25.910135">
        <ele>225.023018</ele>
        <time>2019-06-05T09:46:19.000Z</time>
      </trkpt>
      <trkpt lat="50.561924" lon="25.910250">
        <ele>225.137491</ele>
        <time>2019-06-05T09:46:21.000Z</time>
      </trkpt>
      <trkpt lat="50.561985" lon="25.910366">
        <ele>225.252551</ele>
        <time>2019-06-05T09:46:23.000Z</time>
      </trkpt>
      <trkpt lat="50.562046" lon="25.910475">
        <ele>225.363544</ele>
        <time>2019-06-05T09:46:25.000Z</time>
      </trkpt>
      <trkpt lat="50.562122" lon="25.910639">
        <ele>225.518652</ele>
        <time>2019-06-05T09:46:28.000Z</time>
      </trkpt>
      <trkpt lat="50.562183" lon="25.910746">
        <ele>225.628502</ele>
        <time>2019-06-05T09:46:30.000Z</time>
      </trkpt>
      <trkpt lat="50.562267" lon="25.910873">
        <ele>225.768589</ele>
        <time>2019-06-05T09:46:33.000Z</time>
      </trkpt>
      <trkpt lat="50.562332" lon="25.911009">
        <ele>225.898629</ele>
        <time>2019-06-05T09:46:36.000Z</time>
      </trkpt>
      <trkpt lat="50.562393" lon="25.911146">
        <ele>226.026459</ele>
        <time>2019-06-05T09:46:39.000Z</time>
      </trkpt>
      <trkpt lat="50.562470" lon="25.911285">
        <ele>226.167374</ele>
        <time>2019-06-05T09:46:42.000Z</time>
      </trkpt>
      <trkpt lat="50.562540" lon="25.911434">
        <ele>226.335571</ele>
        <time>2019-06-05T09:46:45.000Z</time>
      </trkpt>
      <trkpt lat="50.562603" lon="25.911577">
        <ele>226.495583</ele>
        <time>2019-06-05T09:46:48.000Z</time>
      </trkpt>
      <trkpt lat="50.562660" lon="25.911716">
        <ele>226.647708</ele>
        <time>2019-06-05T09:46:51.000Z</time>
      </trkpt>
      <trkpt lat="50.562725" lon="25.911846">
        <ele>226.799826</ele>
        <time>2019-06-05T09:46:54.000Z</time>
      </trkpt>
      <trkpt lat="50.562790" lon="25.911964">
        <ele>226.943436</ele>
        <time>2019-06-05T09:46:57.000Z</time>
      </trkpt>
      <trkpt lat="50.562836" lon="25.912098">
        <ele>227.083485</ele>
        <time>2019-06-05T09:47:00.000Z</time>
      </trkpt>
      <trkpt lat="50.562880" lon="25.912231">
        <ele>227.221366</ele>
        <time>2019-06-05T09:47:03.000Z</time>
      </trkpt>
      <trkpt lat="50.562935" lon="25.912369">
        <ele>227.371159</ele>
        <time>2019-06-05T09:47:06.000Z</time>
      </trkpt>
      <trkpt lat="50.562984" lon="25.912506">
        <ele>227.515722</ele>
        <time>2019-06-05T09:47:09.000Z</time>
      </trkpt>
      <trkpt lat="50.563030" lon="25.912651">
        <ele>227.664746</ele>
        <time>2019-06-05T09:47:12.000Z</time>
      </trkpt>
      <trkpt lat="50.563072" lon="25.912810">
        <ele>227.823078</ele>
        <time>2019-06-05T09:47:15.000Z</time>
      </trkpt>
      <trkpt lat="50.563114" lon="25.912954">
        <ele>227.968772</ele>
        <time>2019-06-05T09:47:18.000Z</time>
      </trkpt>
      <trkpt lat="50.563160" lon="25.913092">
        <ele>228.112067</ele>
        <time>2019-06-05T09:47:21.000Z</time>
      </trkpt>
      <trkpt lat="50.563206" lon="25.913225">
        <ele>228.251307</ele>
        <time>2019-06-05T09:47:24.000Z</time>
      </trkpt>
      <trkpt lat="50.563244" lon="25.913364">
        <ele>228.390446</ele>
        <time>2019-06-05T09:47:27.000Z</time>
      </trkpt>
      <trkpt lat="50.563293" lon="25.913504">
        <ele>228.537418</ele>
        <time>2019-06-05T09:47:30.000Z</time>
      </trkpt>
      <trkpt lat="50.563340" lon="25.913656">
        <ele>228.692855</ele>
        <time>2019-06-05T09:47:33.000Z</time>
      </trkpt>
      <trkpt lat="50.563380" lon="25.913805">
        <ele>228.878560</ele>
        <time>2019-06-05T09:47:36.000Z</time>
      </trkpt>
      <trkpt lat="50.563430" lon="25.913960">
        <ele>229.137032</ele>
        <time>2019-06-05T09:47:39.000Z</time>
      </trkpt>
      <trkpt lat="50.563477" lon="25.914108">
        <ele>229.383049</ele>
        <time>2019-06-05T09:47:42.000Z</time>
      </trkpt>
      <trkpt lat="50.563538" lon="25.914236">
        <ele>229.620967</ele>
        <time>2019-06-05T09:47:45.000Z</time>
      </trkpt>
      <trkpt lat="50.563576" lon="25.914370">
        <ele>229.839154</ele>
        <time>2019-06-05T09:47:48.000Z</time>
      </trkpt>
      <trkpt lat="50.563614" lon="25.914501">
        <ele>230.053275</ele>
        <time>2019-06-05T09:47:51.000Z</time>
      </trkpt>
      <trkpt lat="50.563663" lon="25.914648">
        <ele>230.300103</ele>
        <time>2019-06-05T09:47:55.000Z</time>
      </trkpt>
      <trkpt lat="50.563713" lon="25.914800">
        <ele>230.554604</ele>
        <time>2019-06-05T09:47:59.000Z</time>
      </trkpt>
      <trkpt lat="50.563780" lon="25.914938">
        <ele>230.812853</ele>
        <time>2019-06-05T09:48:03.000Z</time>
      </trkpt>
      <trkpt lat="50.563824" lon="25.915087">
        <ele>231.057157</ele>
        <time>2019-06-05T09:48:07.000Z</time>
      </trkpt>
      <trkpt lat="50.563877" lon="25.915240">
        <ele>231.316267</ele>
        <time>2019-06-05T09:48:11.000Z</time>
      </trkpt>
      <trkpt lat="50.563923" lon="25.915379">
        <ele>231.549299</ele>
        <time>2019-06-05T09:48:15.000Z</time>
      </trkpt>
      <trkpt lat="50.563957" lon="25.915518">
        <ele>231.770758</ele>
        <time>2019-06-05T09:48:19.000Z</time>
      </trkpt>
      <trkpt lat="50.563995" lon="25.915655">
        <ele>231.993024</ele>
        <time>2019-06-05T09:48:23.000Z</time>
      </trkpt>
      <trkpt lat="50.564034" lon="25.915796">
        <ele>232.221676</ele>
        <time>2019-06-05T09:48:27.000Z</time>
      </trkpt>
      <trkpt lat="50.564080" lon="25.915947">
        <ele>232.470667</ele>
        <time>2019-06-05T09:48:31.000Z</time>
      </trkpt>
      <trkpt lat="50.564130" lon="25.916086">
        <ele>232.708170</ele>
        <time>2019-06-05T09:48:35.000Z</time>
      </trkpt>
      <trkpt lat="50.564180" lon="25.916227">
        <ele>232.948264</ele>
        <time>2019-06-05T09:48:39.000Z</time>
      </trkpt>
      <trkpt lat="50.564236" lon="25.916376">
        <ele>233.156470</ele>
        <time>2019-06-05T09:48:43.000Z</time>
      </trkpt>
      <trkpt lat="50.564320" lon="25.916512">
        <ele>233.373673</ele>
        <time>2019-06-05T09:48:47.000Z</time>
      </trkpt>
      <trkpt lat="50.564342" lon="25.916658">
        <ele>233.545486</ele>
        <time>2019-06-05T09:48:51.000Z</time>
      </trkpt>
      <trkpt lat="50.564380" lon="25.916817">
        <ele>233.740004</ele>
        <time>2019-06-05T09:48:55.000Z</time>
      </trkpt>
      <trkpt lat="50.564423" lon="25.916979">
        <ele>233.941041</ele>
        <time>2019-06-05T09:48:59.000Z</time>
      </trkpt>
      <trkpt lat="50.564480" lon="25.917133">
        <ele>234.145126</ele>
        <time>2019-06-05T09:49:03.000Z</time>
      </trkpt>
      <trkpt lat="50.564520" lon="25.917297">
        <ele>234.346276</ele>
        <time>2019-06-05T09:49:07.000Z</time>
      </trkpt>
      <trkpt lat="50.564575" lon="25.917498">
        <ele>234.596870</ele>
        <time>2019-06-05T09:49:12.000Z</time>
      </trkpt>
      <trkpt lat="50.564630" lon="25.917646">
        <ele>234.793204</ele>
        <time>2019-06-05T09:49:16.000Z</time>
      </trkpt>
      <trkpt lat="50.564670" lon="25.917797">
        <ele>234.980534</ele>
        <time>2019-06-05T09:49:20.000Z</time>
      </trkpt>
      <trkpt lat="50.564713" lon="25.917936">
        <ele>235.157562</ele>
        <time>2019-06-05T09:49:24.000Z</time>
      </trkpt>
      <trkpt lat="50.564750" lon="25.918070">
        <ele>235.324863</ele>
        <time>2019-06-05T09:49:29.000Z</time>
      </trkpt>
      <trkpt lat="50.564804" lon="25.918259">
        <ele>235.562154</ele>
        <time>2019-06-05T09:50:38.000Z</time>
      </trkpt>
      <trkpt lat="50.564877" lon="25.918373">
        <ele>235.747503</ele>
        <time>2019-06-05T09:50:44.000Z</time>
      </trkpt>
      <trkpt lat="50.564964" lon="25.918430">
        <ele>235.917366</ele>
        <time>2019-06-05T09:50:49.000Z</time>
      </trkpt>
      <trkpt lat="50.565000" lon="25.918562">
        <ele>236.081850</ele>
        <time>2019-06-05T09:50:53.000Z</time>
      </trkpt>
      <trkpt lat="50.564915" lon="25.918522">
        <ele>236.231006</ele>
        <time>2019-06-05T09:50:59.000Z</time>
      </trkpt>
      <trkpt lat="50.564860" lon="25.918367">
        <ele>236.157963</ele>
        <time>2019-06-05T09:51:04.000Z</time>
      </trkpt>
      <trkpt lat="50.564823" lon="25.918234">
        <ele>236.098229</ele>
        <time>2019-06-05T09:51:08.000Z</time>
      </trkpt>
      <trkpt lat="50.564880" lon="25.918350">
        <ele>236.037894</ele>
        <time>2019-06-05T09:51:19.000Z</time>
      </trkpt>
      <trkpt lat="50.564915" lon="25.918530">
        <ele>235.960449</ele>
        <time>2019-06-05T09:51:23.000Z</time>
      </trkpt>
      <trkpt lat="50.564953" lon="25.918682">
        <ele>235.893247</ele>
        <time>2019-06-05T09:51:26.000Z</time>
      </trkpt>
      <trkpt lat="50.565000" lon="25.918823">
        <ele>235.827737</ele>
        <time>2019-06-05T09:51:29.000Z</time>
      </trkpt>
      <trkpt lat="50.565052" lon="25.918995">
        <ele>235.749370</ele>
        <time>2019-06-05T09:51:32.000Z</time>
      </trkpt>
      <trkpt lat="50.565100" lon="25.919190">
        <ele>235.663334</ele>
        <time>2019-06-05T09:51:35.000Z</time>
      </trkpt>
      <trkpt lat="50.565147" lon="25.919320">
        <ele>235.601796</ele>
        <time>2019-06-05T09:51:37.000Z</time>
      </trkpt>
      <trkpt lat="50.565190" lon="25.919453">
        <ele>235.540399</ele>
        <time>2019-06-05T09:51:39.000Z</time>
      </trkpt>
      <trkpt lat="50.565230" lon="25.919586">
        <ele>235.479860</ele>
        <time>2019-06-05T09:51:41.000Z</time>
      </trkpt>
      <trkpt lat="50.565290" lon="25.919775">
        <ele>235.392935</ele>
        <time>2019-06-05T09:51:44.000Z</time>
      </trkpt>
      <trkpt lat="50.565323" lon="25.919912">
        <ele>235.332657</ele>
        <time>2019-06-05T09:51:46.000Z</time>
      </trkpt>
      <trkpt lat="50.565372" lon="25.920046">
        <ele>235.269047</ele>
        <time>2019-06-05T09:51:48.000Z</time>
      </trkpt>
      <trkpt lat="50.565422" lon="25.920176">
        <ele>235.206525</ele>
        <time>2019-06-05T09:51:50.000Z</time>
      </trkpt>
      <trkpt lat="50.565464" lon="25.920313">
        <ele>235.143943</ele>
        <time>2019-06-05T09:51:52.000Z</time>
      </trkpt>
      <trkpt lat="50.565525" lon="25.920498">
        <ele>235.071482</ele>
        <time>2019-06-05T09:51:55.000Z</time>
      </trkpt>
      <trkpt lat="50.565586" lon="25.920680">
        <ele>235.091685</ele>
        <time>2019-06-05T09:51:58.000Z</time>
      </trkpt>
      <trkpt lat="50.565647" lon="25.920858">
        <ele>235.111541</ele>
        <time>2019-06-05T09:52:01.000Z</time>
      </trkpt>
      <trkpt lat="50.565700" lon="25.921036">
        <ele>235.130841</ele>
        <time>2019-06-05T09:52:04.000Z</time>
      </trkpt>
      <trkpt lat="50.565760" lon="25.921213">
        <ele>235.150538</ele>
        <time>2019-06-05T09:52:07.000Z</time>
      </trkpt>
      <trkpt lat="50.565815" lon="25.921398">
        <ele>235.170591</ele>
        <time>2019-06-05T09:52:10.000Z</time>
      </trkpt>
      <trkpt lat="50.565880" lon="25.921585">
        <ele>235.191519</ele>
        <time>2019-06-05T09:52:13.000Z</time>
      </trkpt>
      <trkpt lat="50.565920" lon="25.921713">
        <ele>235.205524</ele>
        <time>2019-06-05T09:52:15.000Z</time>
      </trkpt>
      <trkpt lat="50.565980" lon="25.921907">
        <ele>235.226707</ele>
        <time>2019-06-05T09:52:18.000Z</time>
      </trkpt>
      <trkpt lat="50.566020" lon="25.922035">
        <ele>235.240712</ele>
        <time>2019-06-05T09:52:20.000Z</time>
      </trkpt>
      <trkpt lat="50.566063" lon="25.922169">
        <ele>235.255451</ele>
        <time>2019-06-05T09:52:22.000Z</time>
      </trkpt>
      <trkpt lat="50.566105" lon="25.922300">
        <ele>235.269857</ele>
        <time>2019-06-05T09:52:24.000Z</time>
      </trkpt>
      <trkpt lat="50.566143" lon="25.922430">
        <ele>235.283906</ele>
        <time>2019-06-05T09:52:26.000Z</time>
      </trkpt>
      <trkpt lat="50.566190" lon="25.922564">
        <ele>235.298934</ele>
        <time>2019-06-05T09:52:28.000Z</time>
      </trkpt>
      <trkpt lat="50.566230" lon="25.922695">
        <ele>235.313204</ele>
        <time>2019-06-05T09:52:30.000Z</time>
      </trkpt>
      <trkpt lat="50.566273" lon="25.922832">
        <ele>235.328206</ele>
        <time>2019-06-05T09:52:32.000Z</time>
      </trkpt>
      <trkpt lat="50.566315" lon="25.922974">
        <ele>235.343584</ele>
        <time>2019-06-05T09:52:34.000Z</time>
      </trkpt>
      <trkpt lat="50.566357" lon="25.923111">
        <ele>235.294216</ele>
        <time>2019-06-05T09:52:36.000Z</time>
      </trkpt>
      <trkpt lat="50.566400" lon="25.923244">
        <ele>235.227647</ele>
        <time>2019-06-05T09:52:38.000Z</time>
      </trkpt>
      <trkpt lat="50.566440" lon="25.923378">
        <ele>235.161605</ele>
        <time>2019-06-05T09:52:40.000Z</time>
      </trkpt>
      <trkpt lat="50.566500" lon="25.923563">
        <ele>235.068950</ele>
        <time>2019-06-05T09:52:43.000Z</time>
      </trkpt>
      <trkpt lat="50.566560" lon="25.923750">
        <ele>234.975500</ele>
        <time>2019-06-05T09:52:46.000Z</time>
      </trkpt>
      <trkpt lat="50.566605" lon="25.923878">
        <ele>234.910244</ele>
        <time>2019-06-05T09:52:48.000Z</time>
      </trkpt>
      <trkpt lat="50.566650" lon="25.924010">
        <ele>234.843421</ele>
        <time>2019-06-05T09:52:50.000Z</time>
      </trkpt>
      <trkpt lat="50.566690" lon="25.924143">
        <ele>234.777782</ele>
        <time>2019-06-05T09:52:52.000Z</time>
      </trkpt>
      <trkpt lat="50.566734" lon="25.924276">
        <ele>234.710892</ele>
        <time>2019-06-05T09:52:54.000Z</time>
      </trkpt>
      <trkpt lat="50.566772" lon="25.924414">
        <ele>234.643802</ele>
        <time>2019-06-05T09:52:56.000Z</time>
      </trkpt>
      <trkpt lat="50.566814" lon="25.924553">
        <ele>234.575143</ele>
        <time>2019-06-05T09:52:58.000Z</time>
      </trkpt>
      <trkpt lat="50.566856" lon="25.924685">
        <ele>234.509290</ele>
        <time>2019-06-05T09:53:00.000Z</time>
      </trkpt>
      <trkpt lat="50.566900" lon="25.924816">
        <ele>234.443191</ele>
        <time>2019-06-05T09:53:02.000Z</time>
      </trkpt>
      <trkpt lat="50.566956" lon="25.925003">
        <ele>234.350975</ele>
        <time>2019-06-05T09:53:05.000Z</time>
      </trkpt>
      <trkpt lat="50.566994" lon="25.925130">
        <ele>234.288356</ele>
        <time>2019-06-05T09:53:07.000Z</time>
      </trkpt>
      <trkpt lat="50.567060" lon="25.925322">
        <ele>234.190977</ele>
        <time>2019-06-05T09:53:10.000Z</time>
      </trkpt>
      <trkpt lat="50.567097" lon="25.925455">
        <ele>234.126212</ele>
        <time>2019-06-05T09:53:12.000Z</time>
      </trkpt>
      <trkpt lat="50.567140" lon="25.925581">
        <ele>234.071588</ele>
        <time>2019-06-05T09:53:14.000Z</time>
      </trkpt>
      <trkpt lat="50.567184" lon="25.925709">
        <ele>234.034479</ele>
        <time>2019-06-05T09:53:16.000Z</time>
      </trkpt>
      <trkpt lat="50.567245" lon="25.925900">
        <ele>233.979970</ele>
        <time>2019-06-05T09:53:19.000Z</time>
      </trkpt>
      <trkpt lat="50.567284" lon="25.926037">
        <ele>233.941692</ele>
        <time>2019-06-05T09:53:21.000Z</time>
      </trkpt>
      <trkpt lat="50.567320" lon="25.926165">
        <ele>233.906000</ele>
        <time>2019-06-05T09:53:23.000Z</time>
      </trkpt>
      <trkpt lat="50.567383" lon="25.926350">
        <ele>233.852479</ele>
        <time>2019-06-05T09:53:26.000Z</time>
      </trkpt>
      <trkpt lat="50.567425" lon="25.926477">
        <ele>233.815972</ele>
        <time>2019-06-05T09:53:28.000Z</time>
      </trkpt>
      <trkpt lat="50.567490" lon="25.926664">
        <ele>233.761620</ele>
        <time>2019-06-05T09:53:31.000Z</time>
      </trkpt>
      <trkpt lat="50.567535" lon="25.926790">
        <ele>233.724764</ele>
        <time>2019-06-05T09:53:33.000Z</time>
      </trkpt>
      <trkpt lat="50.567600" lon="25.926970">
        <ele>233.671971</ele>
        <time>2019-06-05T09:53:36.000Z</time>
      </trkpt>
      <trkpt lat="50.567640" lon="25.927103">
        <ele>233.634451</ele>
        <time>2019-06-05T09:53:38.000Z</time>
      </trkpt>
      <trkpt lat="50.567677" lon="25.927235">
        <ele>233.597664</ele>
        <time>2019-06-05T09:53:40.000Z</time>
      </trkpt>
      <trkpt lat="50.567715" lon="25.927368">
        <ele>233.560481</ele>
        <time>2019-06-05T09:53:42.000Z</time>
      </trkpt>
      <trkpt lat="50.567757" lon="25.927504">
        <ele>233.521924</ele>
        <time>2019-06-05T09:53:44.000Z</time>
      </trkpt>
      <trkpt lat="50.567800" lon="25.927633">
        <ele>233.484779</ele>
        <time>2019-06-05T09:53:46.000Z</time>
      </trkpt>
      <trkpt lat="50.567844" lon="25.927757">
        <ele>233.448565</ele>
        <time>2019-06-05T09:53:48.000Z</time>
      </trkpt>
      <trkpt lat="50.567883" lon="25.927885">
        <ele>233.412368</ele>
        <time>2019-06-05T09:53:50.000Z</time>
      </trkpt>
      <trkpt lat="50.567930" lon="25.928013">
        <ele>233.374672</ele>
        <time>2019-06-05T09:53:52.000Z</time>
      </trkpt>
      <trkpt lat="50.567966" lon="25.928146">
        <ele>233.409387</ele>
        <time>2019-06-05T09:53:54.000Z</time>
      </trkpt>
      <trkpt lat="50.568050" lon="25.928398">
        <ele>233.553089</ele>
        <time>2019-06-05T09:53:58.000Z</time>
      </trkpt>
      <trkpt lat="50.568092" lon="25.928524">
        <ele>233.624941</ele>
        <time>2019-06-05T09:54:00.000Z</time>
      </trkpt>
      <trkpt lat="50.568150" lon="25.928709">
        <ele>233.729114</ele>
        <time>2019-06-05T09:54:03.000Z</time>
      </trkpt>
      <trkpt lat="50.568188" lon="25.928840">
        <ele>233.801832</ele>
        <time>2019-06-05T09:54:05.000Z</time>
      </trkpt>
      <trkpt lat="50.568226" lon="25.928974">
        <ele>233.875931</ele>
        <time>2019-06-05T09:54:07.000Z</time>
      </trkpt>
      <trkpt lat="50.568268" lon="25.929108">
        <ele>233.951383</ele>
        <time>2019-06-05T09:54:09.000Z</time>
      </trkpt>
      <trkpt lat="50.568310" lon="25.929235">
        <ele>234.023681</ele>
        <time>2019-06-05T09:54:11.000Z</time>
      </trkpt>
      <trkpt lat="50.568348" lon="25.929370">
        <ele>234.098241</ele>
        <time>2019-06-05T09:54:13.000Z</time>
      </trkpt>
      <trkpt lat="50.568390" lon="25.929500">
        <ele>234.171887</ele>
        <time>2019-06-05T09:54:15.000Z</time>
      </trkpt>
      <trkpt lat="50.568436" lon="25.929630">
        <ele>234.247027</ele>
        <time>2019-06-05T09:54:17.000Z</time>
      </trkpt>
      <trkpt lat="50.568474" lon="25.929766">
        <ele>234.322049</ele>
        <time>2019-06-05T09:54:19.000Z</time>
      </trkpt>
      <trkpt lat="50.568512" lon="25.929897">
        <ele>234.394767</ele>
        <time>2019-06-05T09:54:21.000Z</time>
      </trkpt>
      <trkpt lat="50.568554" lon="25.930025">
        <ele>234.467514</ele>
        <time>2019-06-05T09:54:23.000Z</time>
      </trkpt>
      <trkpt lat="50.568596" lon="25.930150">
        <ele>234.538918</ele>
        <time>2019-06-05T09:54:25.000Z</time>
      </trkpt>
      <trkpt lat="50.568657" lon="25.930338">
        <ele>234.645514</ele>
        <time>2019-06-05T09:54:28.000Z</time>
      </trkpt>
      <trkpt lat="50.568695" lon="25.930470">
        <ele>234.718691</ele>
        <time>2019-06-05T09:54:30.000Z</time>
      </trkpt>
      <trkpt lat="50.568750" lon="25.930650">
        <ele>234.861363</ele>
        <time>2019-06-05T09:54:33.000Z</time>
      </trkpt>
      <trkpt lat="50.568806" lon="25.930830">
        <ele>235.114544</ele>
        <time>2019-06-05T09:54:36.000Z</time>
      </trkpt>
      <trkpt lat="50.568860" lon="25.931007">
        <ele>235.362579</ele>
        <time>2019-06-05T09:54:39.000Z</time>
      </trkpt>
      <trkpt lat="50.568916" lon="25.931181">
        <ele>235.608976</ele>
        <time>2019-06-05T09:54:42.000Z</time>
      </trkpt>
      <trkpt lat="50.568974" lon="25.931362">
        <ele>235.865058</ele>
        <time>2019-06-05T09:54:45.000Z</time>
      </trkpt>
      <trkpt lat="50.569023" lon="25.931536">
        <ele>236.105483</ele>
        <time>2019-06-05T09:54:48.000Z</time>
      </trkpt>
      <trkpt lat="50.569080" lon="25.931707">
        <ele>236.349423</ele>
        <time>2019-06-05T09:54:51.000Z</time>
      </trkpt>
      <trkpt lat="50.569134" lon="25.931877">
        <ele>236.589517</ele>
        <time>2019-06-05T09:54:54.000Z</time>
      </trkpt>
      <trkpt lat="50.569187" lon="25.932028">
        <ele>236.807441</ele>
        <time>2019-06-05T09:54:57.000Z</time>
      </trkpt>
      <trkpt lat="50.569250" lon="25.932175">
        <ele>237.031442</ele>
        <time>2019-06-05T09:55:00.000Z</time>
      </trkpt>
      <trkpt lat="50.569298" lon="25.932318">
        <ele>237.235747</ele>
        <time>2019-06-05T09:55:03.000Z</time>
      </trkpt>
      <trkpt lat="50.569347" lon="25.932474">
        <ele>237.455578</ele>
        <time>2019-06-05T09:55:06.000Z</time>
      </trkpt>
      <trkpt lat="50.569405" lon="25.932629">
        <ele>237.682819</ele>
        <time>2019-06-05T09:55:09.000Z</time>
      </trkpt>
      <trkpt lat="50.569460" lon="25.932785">
        <ele>237.908193</ele>
        <time>2019-06-05T09:55:12.000Z</time>
      </trkpt>
      <trkpt lat="50.569508" lon="25.932940">
        <ele>238.126014</ele>
        <time>2019-06-05T09:55:15.000Z</time>
      </trkpt>
      <trkpt lat="50.569570" lon="25.933102">
        <ele>238.364922</ele>
        <time>2019-06-05T09:55:18.000Z</time>
      </trkpt>
      <trkpt lat="50.569620" lon="25.933268">
        <ele>238.622600</ele>
        <time>2019-06-05T09:55:21.000Z</time>
      </trkpt>
      <trkpt lat="50.569668" lon="25.933440">
        <ele>238.886542</ele>
        <time>2019-06-05T09:55:24.000Z</time>
      </trkpt>
      <trkpt lat="50.569717" lon="25.933610">
        <ele>239.148821</ele>
        <time>2019-06-05T09:55:27.000Z</time>
      </trkpt>
      <trkpt lat="50.569770" lon="25.933754">
        <ele>239.382641</ele>
        <time>2019-06-05T09:55:30.000Z</time>
      </trkpt>
      <trkpt lat="50.569828" lon="25.933916">
        <ele>239.643906</ele>
        <time>2019-06-05T09:55:33.000Z</time>
      </trkpt>
      <trkpt lat="50.569874" lon="25.934084">
        <ele>239.900929</ele>
        <time>2019-06-05T09:55:36.000Z</time>
      </trkpt>
      <trkpt lat="50.569923" lon="25.934252">
        <ele>240.160650</ele>
        <time>2019-06-05T09:55:39.000Z</time>
      </trkpt>
      <trkpt lat="50.569977" lon="25.934433">
        <ele>240.441594</ele>
        <time>2019-06-05T09:55:42.000Z</time>
      </trkpt>
      <trkpt lat="50.570038" lon="25.934608">
        <ele>240.722045</ele>
        <time>2019-06-05T09:55:45.000Z</time>
      </trkpt>
      <trkpt lat="50.570100" lon="25.934776">
        <ele>240.995019</ele>
        <time>2019-06-05T09:55:48.000Z</time>
      </trkpt>
      <trkpt lat="50.570152" lon="25.934954">
        <ele>241.270276</ele>
        <time>2019-06-05T09:55:51.000Z</time>
      </trkpt>
      <trkpt lat="50.570210" lon="25.935120">
        <ele>241.536448</ele>
        <time>2019-06-05T09:55:54.000Z</time>
      </trkpt>
      <trkpt lat="50.570263" lon="25.935308">
        <ele>241.825418</ele>
        <time>2019-06-05T09:55:57.000Z</time>
      </trkpt>
      <trkpt lat="50.570320" lon="25.935478">
        <ele>242.095488</ele>
        <time>2019-06-05T09:56:00.000Z</time>
      </trkpt>
      <trkpt lat="50.570385" lon="25.935642">
        <ele>242.347831</ele>
        <time>2019-06-05T09:56:03.000Z</time>
      </trkpt>
      <trkpt lat="50.570440" lon="25.935823">
        <ele>242.354867</ele>
        <time>2019-06-05T09:56:06.000Z</time>
      </trkpt>
      <trkpt lat="50.570488" lon="25.935999">
        <ele>242.361583</ele>
        <time>2019-06-05T09:56:09.000Z</time>
      </trkpt>
      <trkpt lat="50.570534" lon="25.936176">
        <ele>242.368289</ele>
        <time>2019-06-05T09:56:12.000Z</time>
      </trkpt>
      <trkpt lat="50.570610" lon="25.936410">
        <ele>242.377505</ele>
        <time>2019-06-05T09:56:16.000Z</time>
      </trkpt>
      <trkpt lat="50.570667" lon="25.936586">
        <ele>242.384432</ele>
        <time>2019-06-05T09:56:19.000Z</time>
      </trkpt>
      <trkpt lat="50.570724" lon="25.936756">
        <ele>242.391173</ele>
        <time>2019-06-05T09:56:22.000Z</time>
      </trkpt>
      <trkpt lat="50.570786" lon="25.936934">
        <ele>242.398291</ele>
        <time>2019-06-05T09:56:25.000Z</time>
      </trkpt>
      <trkpt lat="50.570847" lon="25.937113">
        <ele>242.405414</ele>
        <time>2019-06-05T09:56:28.000Z</time>
      </trkpt>
      <trkpt lat="50.570892" lon="25.937288">
        <ele>242.412035</ele>
        <time>2019-06-05T09:56:31.000Z</time>
      </trkpt>
      <trkpt lat="50.570950" lon="25.937480">
        <ele>242.419490</ele>
        <time>2019-06-05T09:56:34.000Z</time>
      </trkpt>
      <trkpt lat="50.570988" lon="25.937616">
        <ele>242.424700</ele>
        <time>2019-06-05T09:56:36.000Z</time>
      </trkpt>
      <trkpt lat="50.571050" lon="25.937796">
        <ele>242.431880</ele>
        <time>2019-06-05T09:56:39.000Z</time>
      </trkpt>
      <trkpt lat="50.571102" lon="25.937984">
        <ele>242.439070</ele>
        <time>2019-06-05T09:56:42.000Z</time>
      </trkpt>
      <trkpt lat="50.571144" lon="25.938118">
        <ele>242.444309</ele>
        <time>2019-06-05T09:56:44.000Z</time>
      </trkpt>
      <trkpt lat="50.571200" lon="25.938303">
        <ele>242.274952</ele>
        <time>2019-06-05T09:56:47.000Z</time>
      </trkpt>
      <trkpt lat="50.571266" lon="25.938488">
        <ele>242.011863</ele>
        <time>2019-06-05T09:56:50.000Z</time>
      </trkpt>
      <trkpt lat="50.571310" lon="25.938618">
        <ele>241.829218</ele>
        <time>2019-06-05T09:56:52.000Z</time>
      </trkpt>
      <trkpt lat="50.571346" lon="25.938753">
        <ele>241.647678</ele>
        <time>2019-06-05T09:56:54.000Z</time>
      </trkpt>
      <trkpt lat="50.571390" lon="25.938900">
        <ele>241.446188</ele>
        <time>2019-06-05T09:56:56.000Z</time>
      </trkpt>
      <trkpt lat="50.571434" lon="25.939050">
        <ele>241.241328</ele>
        <time>2019-06-05T09:56:58.000Z</time>
      </trkpt>
      <trkpt lat="50.571480" lon="25.939201">
        <ele>241.033683</ele>
        <time>2019-06-05T09:57:00.000Z</time>
      </trkpt>
      <trkpt lat="50.571533" lon="25.939350">
        <ele>240.821940</ele>
        <time>2019-06-05T09:57:02.000Z</time>
      </trkpt>
      <trkpt lat="50.571580" lon="25.939507">
        <ele>240.606738</ele>
        <time>2019-06-05T09:57:04.000Z</time>
      </trkpt>
      <trkpt lat="50.571632" lon="25.939651">
        <ele>240.401354</ele>
        <time>2019-06-05T09:57:06.000Z</time>
      </trkpt>
      <trkpt lat="50.571682" lon="25.939793">
        <ele>240.200044</ele>
        <time>2019-06-05T09:57:08.000Z</time>
      </trkpt>
      <trkpt lat="50.571728" lon="25.939934">
        <ele>240.003506</ele>
        <time>2019-06-05T09:57:10.000Z</time>
      </trkpt>
      <trkpt lat="50.571766" lon="25.940065">
        <ele>239.824943</ele>
        <time>2019-06-05T09:57:12.000Z</time>
      </trkpt>
      <trkpt lat="50.571810" lon="25.940195">
        <ele>239.642300</ele>
        <time>2019-06-05T09:57:14.000Z</time>
      </trkpt>
      <trkpt lat="50.571873" lon="25.940376">
        <ele>239.386391</ele>
        <time>2019-06-05T09:57:17.000Z</time>
      </trkpt>
      <trkpt lat="50.571915" lon="25.940504">
        <ele>239.207759</ele>
        <time>2019-06-05T09:57:19.000Z</time>
      </trkpt>
      <trkpt lat="50.571960" lon="25.940638">
        <ele>239.019820</ele>
        <time>2019-06-05T09:57:21.000Z</time>
      </trkpt>
      <trkpt lat="50.572010" lon="25.940823">
        <ele>238.772479</ele>
        <time>2019-06-05T09:57:24.000Z</time>
      </trkpt>
      <trkpt lat="50.572063" lon="25.941013">
        <ele>238.518211</ele>
        <time>2019-06-05T09:57:27.000Z</time>
      </trkpt>
      <trkpt lat="50.572120" lon="25.941208">
        <ele>238.255192</ele>
        <time>2019-06-05T09:57:30.000Z</time>
      </trkpt>
      <trkpt lat="50.572166" lon="25.941341">
        <ele>238.069633</ele>
        <time>2019-06-05T09:57:32.000Z</time>
      </trkpt>
      <trkpt lat="50.572216" lon="25.941475">
        <ele>237.879207</ele>
        <time>2019-06-05T09:57:34.000Z</time>
      </trkpt>
      <trkpt lat="50.572260" lon="25.941612">
        <ele>237.691103</ele>
        <time>2019-06-05T09:57:36.000Z</time>
      </trkpt>
      <trkpt lat="50.572308" lon="25.941744">
        <ele>237.504733</ele>
        <time>2019-06-05T09:57:38.000Z</time>
      </trkpt>
      <trkpt lat="50.572346" lon="25.941877">
        <ele>237.326041</ele>
        <time>2019-06-05T09:57:40.000Z</time>
      </trkpt>
      <trkpt lat="50.572395" lon="25.942060">
        <ele>237.082705</ele>
        <time>2019-06-05T09:57:43.000Z</time>
      </trkpt>
      <trkpt lat="50.572437" lon="25.942236">
        <ele>236.852338</ele>
        <time>2019-06-05T09:57:46.000Z</time>
      </trkpt>
      <trkpt lat="50.572495" lon="25.942406">
        <ele>236.615890</ele>
        <time>2019-06-05T09:57:49.000Z</time>
      </trkpt>
      <trkpt lat="50.572548" lon="25.942570">
        <ele>236.390429</ele>
        <time>2019-06-05T09:57:52.000Z</time>
      </trkpt>
      <trkpt lat="50.572598" lon="25.942730">
        <ele>236.171940</ele>
        <time>2019-06-05T09:57:55.000Z</time>
      </trkpt>
      <trkpt lat="50.572643" lon="25.942898">
        <ele>235.948538</ele>
        <time>2019-06-05T09:57:58.000Z</time>
      </trkpt>
      <trkpt lat="50.572704" lon="25.943058">
        <ele>235.719886</ele>
        <time>2019-06-05T09:58:01.000Z</time>
      </trkpt>
      <trkpt lat="50.572754" lon="25.943226">
        <ele>235.492562</ele>
        <time>2019-06-05T09:58:04.000Z</time>
      </trkpt>
      <trkpt lat="50.572807" lon="25.943401">
        <ele>235.297928</ele>
        <time>2019-06-05T09:58:07.000Z</time>
      </trkpt>
      <trkpt lat="50.572850" lon="25.943570">
        <ele>235.120388</ele>
        <time>2019-06-05T09:58:10.000Z</time>
      </trkpt>
      <trkpt lat="50.572903" lon="25.943748">
        <ele>234.928676</ele>
        <time>2019-06-05T09:58:13.000Z</time>
      </trkpt>
      <trkpt lat="50.572956" lon="25.943935">
        <ele>234.728983</ele>
        <time>2019-06-05T09:58:16.000Z</time>
      </trkpt>
      <trkpt lat="50.573013" lon="25.944110">
        <ele>234.537191</ele>
        <time>2019-06-05T09:58:19.000Z</time>
      </trkpt>
      <trkpt lat="50.573060" lon="25.944235">
        <ele>234.395533</ele>
        <time>2019-06-05T09:58:21.000Z</time>
      </trkpt>
      <trkpt lat="50.573120" lon="25.944418">
        <ele>234.194698</ele>
        <time>2019-06-05T09:58:24.000Z</time>
      </trkpt>
      <trkpt lat="50.573154" lon="25.944550">
        <ele>234.055791</ele>
        <time>2019-06-05T09:58:26.000Z</time>
      </trkpt>
      <trkpt lat="50.573220" lon="25.944735">
        <ele>233.848868</ele>
        <time>2019-06-05T09:58:29.000Z</time>
      </trkpt>
      <trkpt lat="50.573273" lon="25.944923">
        <ele>233.648284</ele>
        <time>2019-06-05T09:58:32.000Z</time>
      </trkpt>
      <trkpt lat="50.573330" lon="25.945110">
        <ele>233.446011</ele>
        <time>2019-06-05T09:58:35.000Z</time>
      </trkpt>
      <trkpt lat="50.573368" lon="25.945236">
        <ele>233.309989</ele>
        <time>2019-06-05T09:58:37.000Z</time>
      </trkpt>
      <trkpt lat="50.573410" lon="25.945362">
        <ele>233.171222</ele>
        <time>2019-06-05T09:58:39.000Z</time>
      </trkpt>
      <trkpt lat="50.573470" lon="25.945541">
        <ele>232.973846</ele>
        <time>2019-06-05T09:58:42.000Z</time>
      </trkpt>
      <trkpt lat="50.573530" lon="25.945723">
        <ele>232.773878</ele>
        <time>2019-06-05T09:58:45.000Z</time>
      </trkpt>
      <trkpt lat="50.573578" lon="25.945915">
        <ele>232.581225</ele>
        <time>2019-06-05T09:58:48.000Z</time>
      </trkpt>
      <trkpt lat="50.573624" lon="25.946037">
        <ele>232.451923</ele>
        <time>2019-06-05T09:58:50.000Z</time>
      </trkpt>
      <trkpt lat="50.573673" lon="25.946165">
        <ele>232.315719</ele>
        <time>2019-06-05T09:58:52.000Z</time>
      </trkpt>
      <trkpt lat="50.573730" lon="25.946335">
        <ele>232.140525</ele>
        <time>2019-06-05T09:58:55.000Z</time>
      </trkpt>
      <trkpt lat="50.573784" lon="25.946507">
        <ele>231.965668</ele>
        <time>2019-06-05T09:58:58.000Z</time>
      </trkpt>
      <trkpt lat="50.573822" lon="25.946640">
        <ele>231.832759</ele>
        <time>2019-06-05T09:59:00.000Z</time>
      </trkpt>
      <trkpt lat="50.573864" lon="25.946768">
        <ele>231.701458</ele>
        <time>2019-06-05T09:59:02.000Z</time>
      </trkpt>
      <trkpt lat="50.573933" lon="25.946949">
        <ele>231.509071</ele>
        <time>2019-06-05T09:59:05.000Z</time>
      </trkpt>
      <trkpt lat="50.573997" lon="25.947120">
        <ele>231.328185</ele>
        <time>2019-06-05T09:59:08.000Z</time>
      </trkpt>
      <trkpt lat="50.574055" lon="25.947290">
        <ele>231.152318</ele>
        <time>2019-06-05T09:59:11.000Z</time>
      </trkpt>
      <trkpt lat="50.574100" lon="25.947449">
        <ele>230.993679</ele>
        <time>2019-06-05T09:59:14.000Z</time>
      </trkpt>
      <trkpt lat="50.574146" lon="25.947598">
        <ele>230.842697</ele>
        <time>2019-06-05T09:59:17.000Z</time>
      </trkpt>
      <trkpt lat="50.574192" lon="25.947744">
        <ele>230.694169</ele>
        <time>2019-06-05T09:59:20.000Z</time>
      </trkpt>
      <trkpt lat="50.574245" lon="25.947887">
        <ele>230.543280</ele>
        <time>2019-06-05T09:59:23.000Z</time>
      </trkpt>
      <trkpt lat="50.574290" lon="25.948044">
        <ele>230.386304</ele>
        <time>2019-06-05T09:59:26.000Z</time>
      </trkpt>
      <trkpt lat="50.574337" lon="25.948208">
        <ele>230.222334</ele>
        <time>2019-06-05T09:59:29.000Z</time>
      </trkpt>
      <trkpt lat="50.574390" lon="25.948374">
        <ele>229.998912</ele>
        <time>2019-06-05T09:59:32.000Z</time>
      </trkpt>
      <trkpt lat="50.574448" lon="25.948520">
        <ele>229.719739</ele>
        <time>2019-06-05T09:59:35.000Z</time>
      </trkpt>
      <trkpt lat="50.574516" lon="25.948668">
        <ele>229.423610</ele>
        <time>2019-06-05T09:59:38.000Z</time>
      </trkpt>
      <trkpt lat="50.574593" lon="25.948810">
        <ele>229.120917</ele>
        <time>2019-06-05T09:59:41.000Z</time>
      </trkpt>
      <trkpt lat="50.574690" lon="25.948935">
        <ele>228.800964</ele>
        <time>2019-06-05T09:59:44.000Z</time>
      </trkpt>
      <trkpt lat="50.574770" lon="25.949007">
        <ele>228.565752</ele>
        <time>2019-06-05T09:59:46.000Z</time>
      </trkpt>
      <trkpt lat="50.574852" lon="25.949087">
        <ele>228.319517</ele>
        <time>2019-06-05T09:59:48.000Z</time>
      </trkpt>
      <trkpt lat="50.574940" lon="25.949158">
        <ele>228.067116</ele>
        <time>2019-06-05T09:59:50.000Z</time>
      </trkpt>
      <trkpt lat="50.575016" lon="25.949242">
        <ele>227.830096</ele>
        <time>2019-06-05T09:59:52.000Z</time>
      </trkpt>
      <trkpt lat="50.575096" lon="25.949330">
        <ele>227.580993</ele>
        <time>2019-06-05T09:59:54.000Z</time>
      </trkpt>
      <trkpt lat="50.575180" lon="25.949413">
        <ele>227.327854</ele>
        <time>2019-06-05T09:59:56.000Z</time>
      </trkpt>
      <trkpt lat="50.575260" lon="25.949507">
        <ele>227.073056</ele>
        <time>2019-06-05T09:59:58.000Z</time>
      </trkpt>
      <trkpt lat="50.575348" lon="25.949602">
        <ele>226.800704</ele>
        <time>2019-06-05T10:00:00.000Z</time>
      </trkpt>
      <trkpt lat="50.575440" lon="25.949697">
        <ele>226.519872</ele>
        <time>2019-06-05T10:00:02.000Z</time>
      </trkpt>
      <trkpt lat="50.575540" lon="25.949793">
        <ele>226.220912</ele>
        <time>2019-06-05T10:00:04.000Z</time>
      </trkpt>
      <trkpt lat="50.575638" lon="25.949892">
        <ele>225.923701</ele>
        <time>2019-06-05T10:00:06.000Z</time>
      </trkpt>
      <trkpt lat="50.575745" lon="25.949982">
        <ele>225.614047</ele>
        <time>2019-06-05T10:00:08.000Z</time>
      </trkpt>
      <trkpt lat="50.575848" lon="25.950092">
        <ele>225.461982</ele>
        <time>2019-06-05T10:00:10.000Z</time>
      </trkpt>
      <trkpt lat="50.575947" lon="25.950193">
        <ele>225.373213</ele>
        <time>2019-06-05T10:00:12.000Z</time>
      </trkpt>
      <trkpt lat="50.576040" lon="25.950304">
        <ele>225.285396</ele>
        <time>2019-06-05T10:00:14.000Z</time>
      </trkpt>
      <trkpt lat="50.576138" lon="25.950401">
        <ele>225.198290</ele>
        <time>2019-06-05T10:00:16.000Z</time>
      </trkpt>
      <trkpt lat="50.576233" lon="25.950485">
        <ele>225.116300</ele>
        <time>2019-06-05T10:00:18.000Z</time>
      </trkpt>
      <trkpt lat="50.576324" lon="25.950570">
        <ele>225.036679</ele>
        <time>2019-06-05T10:00:20.000Z</time>
      </trkpt>
      <trkpt lat="50.576412" lon="25.950660">
        <ele>224.957715</ele>
        <time>2019-06-05T10:00:22.000Z</time>
      </trkpt>
      <trkpt lat="50.576496" lon="25.950747">
        <ele>224.882055</ele>
        <time>2019-06-05T10:00:24.000Z</time>
      </trkpt>
      <trkpt lat="50.576580" lon="25.950834">
        <ele>224.806396</ele>
        <time>2019-06-05T10:00:26.000Z</time>
      </trkpt>
      <trkpt lat="50.576668" lon="25.950918">
        <ele>224.728957</ele>
        <time>2019-06-05T10:00:28.000Z</time>
      </trkpt>
      <trkpt lat="50.576748" lon="25.951014">
        <ele>224.653266</ele>
        <time>2019-06-05T10:00:30.000Z</time>
      </trkpt>
      <trkpt lat="50.576824" lon="25.951107">
        <ele>224.580836</ele>
        <time>2019-06-05T10:00:32.000Z</time>
      </trkpt>
      <trkpt lat="50.576904" lon="25.951189">
        <ele>224.509004</ele>
        <time>2019-06-05T10:00:34.000Z</time>
      </trkpt>
      <trkpt lat="50.576984" lon="25.951277">
        <ele>224.435568</ele>
        <time>2019-06-05T10:00:36.000Z</time>
      </trkpt>
      <trkpt lat="50.577065" lon="25.951363">
        <ele>224.362053</ele>
        <time>2019-06-05T10:00:38.000Z</time>
      </trkpt>
      <trkpt lat="50.577152" lon="25.951435">
        <ele>224.288092</ele>
        <time>2019-06-05T10:00:40.000Z</time>
      </trkpt>
      <trkpt lat="50.577236" lon="25.951517">
        <ele>224.213719</ele>
        <time>2019-06-05T10:00:42.000Z</time>
      </trkpt>
      <trkpt lat="50.577324" lon="25.951601">
        <ele>224.187332</ele>
        <time>2019-06-05T10:00:44.000Z</time>
      </trkpt>
      <trkpt lat="50.577408" lon="25.951687">
        <ele>224.204879</ele>
        <time>2019-06-05T10:00:46.000Z</time>
      </trkpt>
      <trkpt lat="50.577488" lon="25.951769">
        <ele>224.221596</ele>
        <time>2019-06-05T10:00:48.000Z</time>
      </trkpt>
      <trkpt lat="50.577570" lon="25.951853">
        <ele>224.238728</ele>
        <time>2019-06-05T10:00:50.000Z</time>
      </trkpt>
      <trkpt lat="50.577656" lon="25.951933">
        <ele>224.256221</ele>
        <time>2019-06-05T10:00:52.000Z</time>
      </trkpt>
      <trkpt lat="50.577740" lon="25.952026">
        <ele>224.274204</ele>
        <time>2019-06-05T10:00:54.000Z</time>
      </trkpt>
      <trkpt lat="50.577827" lon="25.952110">
        <ele>224.292076</ele>
        <time>2019-06-05T10:00:56.000Z</time>
      </trkpt>
      <trkpt lat="50.577915" lon="25.952198">
        <ele>224.310333</ele>
        <time>2019-06-05T10:00:58.000Z</time>
      </trkpt>
      <trkpt lat="50.577995" lon="25.952293">
        <ele>224.327881</ele>
        <time>2019-06-05T10:01:00.000Z</time>
      </trkpt>
      <trkpt lat="50.578080" lon="25.952381">
        <ele>224.345696</ele>
        <time>2019-06-05T10:01:02.000Z</time>
      </trkpt>
      <trkpt lat="50.578163" lon="25.952463">
        <ele>224.362855</ele>
        <time>2019-06-05T10:01:04.000Z</time>
      </trkpt>
      <trkpt lat="50.578247" lon="25.952547">
        <ele>224.380282</ele>
        <time>2019-06-05T10:01:06.000Z</time>
      </trkpt>
      <trkpt lat="50.578335" lon="25.952625">
        <ele>224.397967</ele>
        <time>2019-06-05T10:01:08.000Z</time>
      </trkpt>
      <trkpt lat="50.578415" lon="25.952711">
        <ele>224.414931</ele>
        <time>2019-06-05T10:01:10.000Z</time>
      </trkpt>
      <trkpt lat="50.578490" lon="25.952795">
        <ele>224.431049</ele>
        <time>2019-06-05T10:01:12.000Z</time>
      </trkpt>
      <trkpt lat="50.578598" lon="25.952910">
        <ele>224.453882</ele>
        <time>2019-06-05T10:01:15.000Z</time>
      </trkpt>
      <trkpt lat="50.578680" lon="25.952991">
        <ele>224.470834</ele>
        <time>2019-06-05T10:01:17.000Z</time>
      </trkpt>
      <trkpt lat="50.578790" lon="25.953096">
        <ele>224.502870</ele>
        <time>2019-06-05T10:01:20.000Z</time>
      </trkpt>
      <trkpt lat="50.578896" lon="25.953200">
        <ele>224.836228</ele>
        <time>2019-06-05T10:01:23.000Z</time>
      </trkpt>
      <trkpt lat="50.579006" lon="25.953302">
        <ele>225.176961</ele>
        <time>2019-06-05T10:01:26.000Z</time>
      </trkpt>
      <trkpt lat="50.579110" lon="25.953405">
        <ele>225.504893</ele>
        <time>2019-06-05T10:01:29.000Z</time>
      </trkpt>
      <trkpt lat="50.579210" lon="25.953510">
        <ele>225.825707</ele>
        <time>2019-06-05T10:01:32.000Z</time>
      </trkpt>
      <trkpt lat="50.579308" lon="25.953613">
        <ele>226.140197</ele>
        <time>2019-06-05T10:01:35.000Z</time>
      </trkpt>
      <trkpt lat="50.579407" lon="25.953724">
        <ele>226.464583</ele>
        <time>2019-06-05T10:01:38.000Z</time>
      </trkpt>
      <trkpt lat="50.579502" lon="25.953823">
        <ele>226.768652</ele>
        <time>2019-06-05T10:01:41.000Z</time>
      </trkpt>
      <trkpt lat="50.579605" lon="25.953915">
        <ele>227.084725</ele>
        <time>2019-06-05T10:01:44.000Z</time>
      </trkpt>
      <trkpt lat="50.579700" lon="25.954014">
        <ele>227.388793</ele>
        <time>2019-06-05T10:01:47.000Z</time>
      </trkpt>
      <trkpt lat="50.579796" lon="25.954107">
        <ele>227.689639</ele>
        <time>2019-06-05T10:01:50.000Z</time>
      </trkpt>
      <trkpt lat="50.579887" lon="25.954203">
        <ele>227.982002</ele>
        <time>2019-06-05T10:01:53.000Z</time>
      </trkpt>
      <trkpt lat="50.579970" lon="25.954288">
        <ele>228.246271</ele>
        <time>2019-06-05T10:01:56.000Z</time>
      </trkpt>
      <trkpt lat="50.580060" lon="25.954372">
        <ele>228.525521</ele>
        <time>2019-06-05T10:01:59.000Z</time>
      </trkpt>
      <trkpt lat="50.580147" lon="25.954456">
        <ele>228.797913</ele>
        <time>2019-06-05T10:02:02.000Z</time>
      </trkpt>
      <trkpt lat="50.580230" lon="25.954536">
        <ele>229.057659</ele>
        <time>2019-06-05T10:02:05.000Z</time>
      </trkpt>
      <trkpt lat="50.580310" lon="25.954618">
        <ele>229.336555</ele>
        <time>2019-06-05T10:02:08.000Z</time>
      </trkpt>
      <trkpt lat="50.580387" lon="25.954700">
        <ele>229.902969</ele>
        <time>2019-06-05T10:02:11.000Z</time>
      </trkpt>
      <trkpt lat="50.580470" lon="25.954756">
        <ele>230.453196</ele>
        <time>2019-06-05T10:02:14.000Z</time>
      </trkpt>
      <trkpt lat="50.580547" lon="25.954853">
        <ele>231.054048</ele>
        <time>2019-06-05T10:02:17.000Z</time>
      </trkpt>
      <trkpt lat="50.580624" lon="25.954935">
        <ele>231.620461</ele>
        <time>2019-06-05T10:02:20.000Z</time>
      </trkpt>
      <trkpt lat="50.580696" lon="25.955020">
        <ele>232.168787</ele>
        <time>2019-06-05T10:02:23.000Z</time>
      </trkpt>
      <trkpt lat="50.580790" lon="25.955122">
        <ele>232.864387</ele>
        <time>2019-06-05T10:02:27.000Z</time>
      </trkpt>
      <trkpt lat="50.580880" lon="25.955236">
        <ele>233.568189</ele>
        <time>2019-06-05T10:02:31.000Z</time>
      </trkpt>
      <trkpt lat="50.580975" lon="25.955315">
        <ele>234.222826</ele>
        <time>2019-06-05T10:02:35.000Z</time>
      </trkpt>
      <trkpt lat="50.581066" lon="25.955393">
        <ele>234.854152</ele>
        <time>2019-06-05T10:02:39.000Z</time>
      </trkpt>
      <trkpt lat="50.581158" lon="25.955494">
        <ele>235.537530</ele>
        <time>2019-06-05T10:02:43.000Z</time>
      </trkpt>
      <trkpt lat="50.581240" lon="25.955582">
        <ele>236.142188</ele>
        <time>2019-06-05T10:02:47.000Z</time>
      </trkpt>
      <trkpt lat="50.581333" lon="25.955660">
        <ele>236.784244</ele>
        <time>2019-06-05T10:02:51.000Z</time>
      </trkpt>
      <trkpt lat="50.581410" lon="25.955750">
        <ele>237.368556</ele>
        <time>2019-06-05T10:02:55.000Z</time>
      </trkpt>
      <trkpt lat="50.581497" lon="25.955835">
        <ele>237.992428</ele>
        <time>2019-06-05T10:02:59.000Z</time>
      </trkpt>
      <trkpt lat="50.581577" lon="25.955925">
        <ele>238.591517</ele>
        <time>2019-06-05T10:03:03.000Z</time>
      </trkpt>
      <trkpt lat="50.581657" lon="25.956020">
        <ele>239.202056</ele>
        <time>2019-06-05T10:03:07.000Z</time>
      </trkpt>
      <trkpt lat="50.581740" lon="25.956112">
        <ele>239.820533</ele>
        <time>2019-06-05T10:03:11.000Z</time>
      </trkpt>
      <trkpt lat="50.581833" lon="25.956211">
        <ele>240.423834</ele>
        <time>2019-06-05T10:03:15.000Z</time>
      </trkpt>
      <trkpt lat="50.581900" lon="25.956305">
        <ele>240.794619</ele>
        <time>2019-06-05T10:03:19.000Z</time>
      </trkpt>
      <trkpt lat="50.581990" lon="25.956400">
        <ele>241.242326</ele>
        <time>2019-06-05T10:03:23.000Z</time>
      </trkpt>
      <trkpt lat="50.582077" lon="25.956518">
        <ele>241.716774</ele>
        <time>2019-06-05T10:03:28.000Z</time>
      </trkpt>
      <trkpt lat="50.582153" lon="25.956621">
        <ele>242.131096</ele>
        <time>2019-06-05T10:03:32.000Z</time>
      </trkpt>
      <trkpt lat="50.582233" lon="25.956705">
        <ele>242.528408</ele>
        <time>2019-06-05T10:03:36.000Z</time>
      </trkpt>
      <trkpt lat="50.582314" lon="25.956790">
        <ele>242.930614</ele>
        <time>2019-06-05T10:03:40.000Z</time>
      </trkpt>
      <trkpt lat="50.582363" lon="25.956932">
        <ele>243.354660</ele>
        <time>2019-06-05T10:03:44.000Z</time>
      </trkpt>
      <trkpt lat="50.582420" lon="25.957062">
        <ele>243.769175</ele>
        <time>2019-06-05T10:03:48.000Z</time>
      </trkpt>
      <trkpt lat="50.582485" lon="25.957174">
        <ele>244.167296</ele>
        <time>2019-06-05T10:03:52.000Z</time>
      </trkpt>
      <trkpt lat="50.582546" lon="25.957289">
        <ele>244.560465</ele>
        <time>2019-06-05T10:03:56.000Z</time>
      </trkpt>
      <trkpt lat="50.582623" lon="25.957420">
        <ele>245.028845</ele>
        <time>2019-06-05T10:04:01.000Z</time>
      </trkpt>
      <trkpt lat="50.582687" lon="25.957552">
        <ele>245.464611</ele>
        <time>2019-06-05T10:04:05.000Z</time>
      </trkpt>
      <trkpt lat="50.582752" lon="25.957659">
        <ele>245.853147</ele>
        <time>2019-06-05T10:04:09.000Z</time>
      </trkpt>
      <trkpt lat="50.582825" lon="25.957785">
        <ele>246.300683</ele>
        <time>2019-06-05T10:04:14.000Z</time>
      </trkpt>
      <trkpt lat="50.582867" lon="25.957909">
        <ele>246.669428</ele>
        <time>2019-06-05T10:04:18.000Z</time>
      </trkpt>
      <trkpt lat="50.582935" lon="25.958052">
        <ele>247.138183</ele>
        <time>2019-06-05T10:04:23.000Z</time>
      </trkpt>
      <trkpt lat="50.582985" lon="25.958174">
        <ele>247.519171</ele>
        <time>2019-06-05T10:04:27.000Z</time>
      </trkpt>
      <trkpt lat="50.583057" lon="25.958296">
        <ele>247.837952</ele>
        <time>2019-06-05T10:04:32.000Z</time>
      </trkpt>
      <trkpt lat="50.583126" lon="25.958391">
        <ele>248.050862</ele>
        <time>2019-06-05T10:04:36.000Z</time>
      </trkpt>
      <trkpt lat="50.583183" lon="25.958506">
        <ele>248.266057</ele>
        <time>2019-06-05T10:04:40.000Z</time>
      </trkpt>
      <trkpt lat="50.583233" lon="25.958630">
        <ele>248.482730</ele>
        <time>2019-06-05T10:04:44.000Z</time>
      </trkpt>
      <trkpt lat="50.583298" lon="25.958736">
        <ele>248.700097</ele>
        <time>2019-06-05T10:04:48.000Z</time>
      </trkpt>
      <trkpt lat="50.583363" lon="25.958847">
        <ele>248.922828</ele>
        <time>2019-06-05T10:04:52.000Z</time>
      </trkpt>
      <trkpt lat="50.583424" lon="25.958960">
        <ele>249.141607</ele>
        <time>2019-06-05T10:04:56.000Z</time>
      </trkpt>
      <trkpt lat="50.583480" lon="25.959091">
        <ele>249.374550</ele>
        <time>2019-06-05T10:05:01.000Z</time>
      </trkpt>
      <trkpt lat="50.583538" lon="25.959223">
        <ele>249.611332</ele>
        <time>2019-06-05T10:05:05.000Z</time>
      </trkpt>
      <trkpt lat="50.583588" lon="25.959343">
        <ele>249.823046</ele>
        <time>2019-06-05T10:05:08.000Z</time>
      </trkpt>
      <trkpt lat="50.583652" lon="25.959461">
        <ele>250.051958</ele>
        <time>2019-06-05T10:05:11.000Z</time>
      </trkpt>
      <trkpt lat="50.583710" lon="25.959590">
        <ele>250.285113</ele>
        <time>2019-06-05T10:05:14.000Z</time>
      </trkpt>
      <trkpt lat="50.583780" lon="25.959715">
        <ele>250.530959</ele>
        <time>2019-06-05T10:05:17.000Z</time>
      </trkpt>
      <trkpt lat="50.583843" lon="25.959839">
        <ele>250.765211</ele>
        <time>2019-06-05T10:05:20.000Z</time>
      </trkpt>
      <trkpt lat="50.583900" lon="25.959955">
        <ele>250.981569</ele>
        <time>2019-06-05T10:05:23.000Z</time>
      </trkpt>
      <trkpt lat="50.583958" lon="25.960066">
        <ele>251.193611</ele>
        <time>2019-06-05T10:05:26.000Z</time>
      </trkpt>
      <trkpt lat="50.584020" lon="25.960190">
        <ele>251.426419</ele>
        <time>2019-06-05T10:05:29.000Z</time>
      </trkpt>
      <trkpt lat="50.584095" lon="25.960316">
        <ele>251.681170</ele>
        <time>2019-06-05T10:05:32.000Z</time>
      </trkpt>
      <trkpt lat="50.584175" lon="25.960442">
        <ele>251.857954</ele>
        <time>2019-06-05T10:05:35.000Z</time>
      </trkpt>
      <trkpt lat="50.584244" lon="25.960594">
        <ele>251.835132</ele>
        <time>2019-06-05T10:05:38.000Z</time>
      </trkpt>
      <trkpt lat="50.584320" lon="25.960750">
        <ele>251.811116</ele>
        <time>2019-06-05T10:05:41.000Z</time>
      </trkpt>
      <trkpt lat="50.584400" lon="25.960897">
        <ele>251.787469</ele>
        <time>2019-06-05T10:05:44.000Z</time>
      </trkpt>
      <trkpt lat="50.584488" lon="25.961056">
        <ele>251.761707</ele>
        <time>2019-06-05T10:05:47.000Z</time>
      </trkpt>
      <trkpt lat="50.584570" lon="25.961220">
        <ele>251.736211</ele>
        <time>2019-06-05T10:05:50.000Z</time>
      </trkpt>
      <trkpt lat="50.584656" lon="25.961382">
        <ele>251.710420</ele>
        <time>2019-06-05T10:05:53.000Z</time>
      </trkpt>
      <trkpt lat="50.584732" lon="25.961535">
        <ele>251.686694</ele>
        <time>2019-06-05T10:05:56.000Z</time>
      </trkpt>
      <trkpt lat="50.584810" lon="25.961672">
        <ele>251.664219</ele>
        <time>2019-06-05T10:05:59.000Z</time>
      </trkpt>
      <trkpt lat="50.584880" lon="25.961817">
        <ele>251.641971</ele>
        <time>2019-06-05T10:06:02.000Z</time>
      </trkpt>
      <trkpt lat="50.584965" lon="25.961970">
        <ele>251.617141</ele>
        <time>2019-06-05T10:06:05.000Z</time>
      </trkpt>
      <trkpt lat="50.585052" lon="25.962126">
        <ele>251.591781</ele>
        <time>2019-06-05T10:06:08.000Z</time>
      </trkpt>
      <trkpt lat="50.585133" lon="25.962292">
        <ele>251.566211</ele>
        <time>2019-06-05T10:06:11.000Z</time>
      </trkpt>
      <trkpt lat="50.585213" lon="25.962448">
        <ele>251.541719</ele>
        <time>2019-06-05T10:06:14.000Z</time>
      </trkpt>
      <trkpt lat="50.585297" lon="25.962600">
        <ele>251.510856</ele>
        <time>2019-06-05T10:06:17.000Z</time>
      </trkpt>
      <trkpt lat="50.585358" lon="25.962715">
        <ele>251.412890</ele>
        <time>2019-06-05T10:06:19.000Z</time>
      </trkpt>
      <trkpt lat="50.585420" lon="25.962824">
        <ele>251.317217</ele>
        <time>2019-06-05T10:06:21.000Z</time>
      </trkpt>
      <trkpt lat="50.585503" lon="25.962978">
        <ele>251.185156</ele>
        <time>2019-06-05T10:06:24.000Z</time>
      </trkpt>
      <trkpt lat="50.585575" lon="25.963137">
        <ele>251.057481</ele>
        <time>2019-06-05T10:06:27.000Z</time>
      </trkpt>
      <trkpt lat="50.585655" lon="25.963295">
        <ele>250.925364</ele>
        <time>2019-06-05T10:06:30.000Z</time>
      </trkpt>
      <trkpt lat="50.585735" lon="25.963465">
        <ele>250.787028</ele>
        <time>2019-06-05T10:06:33.000Z</time>
      </trkpt>
      <trkpt lat="50.585810" lon="25.963636">
        <ele>250.651156</ele>
        <time>2019-06-05T10:06:36.000Z</time>
      </trkpt>
      <trkpt lat="50.585873" lon="25.963750">
        <ele>250.552352</ele>
        <time>2019-06-05T10:06:38.000Z</time>
      </trkpt>
      <trkpt lat="50.585930" lon="25.963863">
        <ele>250.458002</ele>
        <time>2019-06-05T10:06:40.000Z</time>
      </trkpt>
      <trkpt lat="50.586014" lon="25.964025">
        <ele>250.321264</ele>
        <time>2019-06-05T10:06:43.000Z</time>
      </trkpt>
      <trkpt lat="50.586067" lon="25.964140">
        <ele>250.228365</ele>
        <time>2019-06-05T10:06:45.000Z</time>
      </trkpt>
      <trkpt lat="50.586130" lon="25.964256">
        <ele>250.128571</ele>
        <time>2019-06-05T10:06:47.000Z</time>
      </trkpt>
      <trkpt lat="50.586200" lon="25.964376">
        <ele>250.022038</ele>
        <time>2019-06-05T10:06:49.000Z</time>
      </trkpt>
      <trkpt lat="50.586266" lon="25.964512">
        <ele>249.910131</ele>
        <time>2019-06-05T10:06:51.000Z</time>
      </trkpt>
      <trkpt lat="50.586338" lon="25.964659">
        <ele>249.788758</ele>
        <time>2019-06-05T10:06:53.000Z</time>
      </trkpt>
      <trkpt lat="50.586420" lon="25.964798">
        <ele>249.664560</ele>
        <time>2019-06-05T10:06:55.000Z</time>
      </trkpt>
      <trkpt lat="50.586544" lon="25.965021">
        <ele>249.454272</ele>
        <time>2019-06-05T10:06:58.000Z</time>
      </trkpt>
      <trkpt lat="50.586620" lon="25.965174">
        <ele>249.316464</ele>
        <time>2019-06-05T10:07:00.000Z</time>
      </trkpt>
      <trkpt lat="50.586693" lon="25.965317">
        <ele>249.186297</ele>
        <time>2019-06-05T10:07:02.000Z</time>
      </trkpt>
      <trkpt lat="50.586765" lon="25.965448">
        <ele>249.063383</ele>
        <time>2019-06-05T10:07:04.000Z</time>
      </trkpt>
      <trkpt lat="50.586838" lon="25.965588">
        <ele>248.934868</ele>
        <time>2019-06-05T10:07:06.000Z</time>
      </trkpt>
      <trkpt lat="50.586906" lon="25.965721">
        <ele>248.813731</ele>
        <time>2019-06-05T10:07:08.000Z</time>
      </trkpt>
      <trkpt lat="50.586970" lon="25.965855">
        <ele>248.694779</ele>
        <time>2019-06-05T10:07:10.000Z</time>
      </trkpt>
      <trkpt lat="50.587032" lon="25.965982">
        <ele>248.581133</ele>
        <time>2019-06-05T10:07:12.000Z</time>
      </trkpt>
      <trkpt lat="50.587093" lon="25.966099">
        <ele>248.473736</ele>
        <time>2019-06-05T10:07:14.000Z</time>
      </trkpt>
      <trkpt lat="50.587180" lon="25.966259">
        <ele>248.324298</ele>
        <time>2019-06-05T10:07:17.000Z</time>
      </trkpt>
      <trkpt lat="50.587250" lon="25.966421">
        <ele>248.185288</ele>
        <time>2019-06-05T10:07:20.000Z</time>
      </trkpt>
      <trkpt lat="50.587320" lon="25.966583">
        <ele>248.046278</ele>
        <time>2019-06-05T10:07:23.000Z</time>
      </trkpt>
      <trkpt lat="50.587380" lon="25.966750">
        <ele>247.910158</ele>
        <time>2019-06-05T10:07:26.000Z</time>
      </trkpt>
      <trkpt lat="50.587433" lon="25.966925">
        <ele>247.772615</ele>
        <time>2019-06-05T10:07:29.000Z</time>
      </trkpt>
      <trkpt lat="50.587494" lon="25.967110">
        <ele>247.631710</ele>
        <time>2019-06-05T10:07:32.000Z</time>
      </trkpt>
      <trkpt lat="50.587524" lon="25.967247">
        <ele>247.551192</ele>
        <time>2019-06-05T10:07:34.000Z</time>
      </trkpt>
      <trkpt lat="50.587560" lon="25.967382">
        <ele>247.469837</ele>
        <time>2019-06-05T10:07:36.000Z</time>
      </trkpt>
      <trkpt lat="50.587593" lon="25.967516">
        <ele>247.389981</ele>
        <time>2019-06-05T10:07:38.000Z</time>
      </trkpt>
      <trkpt lat="50.587630" lon="25.967660">
        <ele>247.303671</ele>
        <time>2019-06-05T10:07:40.000Z</time>
      </trkpt>
      <trkpt lat="50.587666" lon="25.967800">
        <ele>247.219748</ele>
        <time>2019-06-05T10:07:42.000Z</time>
      </trkpt>
      <trkpt lat="50.587700" lon="25.967943">
        <ele>247.134908</ele>
        <time>2019-06-05T10:07:44.000Z</time>
      </trkpt>
      <trkpt lat="50.587738" lon="25.968090">
        <ele>247.046724</ele>
        <time>2019-06-05T10:07:46.000Z</time>
      </trkpt>
      <trkpt lat="50.587772" lon="25.968240">
        <ele>246.958231</ele>
        <time>2019-06-05T10:07:48.000Z</time>
      </trkpt>
      <trkpt lat="50.587807" lon="25.968393">
        <ele>246.867874</ele>
        <time>2019-06-05T10:07:50.000Z</time>
      </trkpt>
      <trkpt lat="50.587850" lon="25.968542">
        <ele>246.776939</ele>
        <time>2019-06-05T10:07:52.000Z</time>
      </trkpt>
      <trkpt lat="50.587894" lon="25.968729">
        <ele>246.666135</ele>
        <time>2019-06-05T10:07:55.000Z</time>
      </trkpt>
      <trkpt lat="50.587930" lon="25.968897">
        <ele>246.567621</ele>
        <time>2019-06-05T10:07:59.000Z</time>
      </trkpt>
      <trkpt lat="50.587967" lon="25.969055">
        <ele>246.474055</ele>
        <time>2019-06-05T10:08:03.000Z</time>
      </trkpt>
      <trkpt lat="50.588010" lon="25.969221">
        <ele>246.374444</ele>
        <time>2019-06-05T10:08:07.000Z</time>
      </trkpt>
      <trkpt lat="50.588047" lon="25.969383">
        <ele>246.278790</ele>
        <time>2019-06-05T10:08:10.000Z</time>
      </trkpt>
      <trkpt lat="50.588090" lon="25.969563">
        <ele>246.171937</ele>
        <time>2019-06-05T10:08:13.000Z</time>
      </trkpt>
      <trkpt lat="50.588130" lon="25.969757">
        <ele>246.039067</ele>
        <time>2019-06-05T10:08:16.000Z</time>
      </trkpt>
      <trkpt lat="50.588158" lon="25.969896">
        <ele>245.892849</ele>
        <time>2019-06-05T10:08:18.000Z</time>
      </trkpt>
      <trkpt lat="50.588184" lon="25.970034">
        <ele>245.748516</ele>
        <time>2019-06-05T10:08:20.000Z</time>
      </trkpt>
      <trkpt lat="50.588215" lon="25.970173">
        <ele>245.600796</ele>
        <time>2019-06-05T10:08:22.000Z</time>
      </trkpt>
      <trkpt lat="50.588240" lon="25.970318">
        <ele>245.450144</ele>
        <time>2019-06-05T10:08:24.000Z</time>
      </trkpt>
      <trkpt lat="50.588280" lon="25.970465">
        <ele>245.289784</ele>
        <time>2019-06-05T10:08:26.000Z</time>
      </trkpt>
      <trkpt lat="50.588314" lon="25.970600">
        <ele>245.144163</ele>
        <time>2019-06-05T10:08:28.000Z</time>
      </trkpt>
      <trkpt lat="50.588352" lon="25.970737">
        <ele>244.994260</ele>
        <time>2019-06-05T10:08:30.000Z</time>
      </trkpt>
      <trkpt lat="50.588387" lon="25.970879">
        <ele>244.841528</ele>
        <time>2019-06-05T10:08:32.000Z</time>
      </trkpt>
      <trkpt lat="50.588417" lon="25.971025">
        <ele>244.687663</ele>
        <time>2019-06-05T10:08:34.000Z</time>
      </trkpt>
      <trkpt lat="50.588450" lon="25.971165">
        <ele>244.537927</ele>
        <time>2019-06-05T10:08:36.000Z</time>
      </trkpt>
      <trkpt lat="50.588486" lon="25.971308">
        <ele>244.383685</ele>
        <time>2019-06-05T10:08:38.000Z</time>
      </trkpt>
      <trkpt lat="50.588528" lon="25.971458">
        <ele>244.219308</ele>
        <time>2019-06-05T10:08:40.000Z</time>
      </trkpt>
      <trkpt lat="50.588562" lon="25.971610">
        <ele>244.057721</ele>
        <time>2019-06-05T10:08:42.000Z</time>
      </trkpt>
      <trkpt lat="50.588604" lon="25.971760">
        <ele>243.893344</ele>
        <time>2019-06-05T10:08:44.000Z</time>
      </trkpt>
      <trkpt lat="50.588640" lon="25.971909">
        <ele>243.733495</ele>
        <time>2019-06-05T10:08:46.000Z</time>
      </trkpt>
      <trkpt lat="50.588676" lon="25.972055">
        <ele>243.576454</ele>
        <time>2019-06-05T10:08:48.000Z</time>
      </trkpt>
      <trkpt lat="50.588710" lon="25.972206">
        <ele>243.415812</ele>
        <time>2019-06-05T10:08:50.000Z</time>
      </trkpt>
      <trkpt lat="50.588745" lon="25.972351">
        <ele>243.260274</ele>
        <time>2019-06-05T10:08:52.000Z</time>
      </trkpt>
      <trkpt lat="50.588783" lon="25.972498">
        <ele>243.246893</ele>
        <time>2019-06-05T10:08:54.000Z</time>
      </trkpt>
      <trkpt lat="50.588814" lon="25.972645">
        <ele>243.251917</ele>
        <time>2019-06-05T10:08:56.000Z</time>
      </trkpt>
      <trkpt lat="50.588850" lon="25.972795">
        <ele>243.257118</ele>
        <time>2019-06-05T10:08:58.000Z</time>
      </trkpt>
      <trkpt lat="50.588886" lon="25.972937">
        <ele>243.262078</ele>
        <time>2019-06-05T10:09:00.000Z</time>
      </trkpt>
      <trkpt lat="50.588930" lon="25.973085">
        <ele>243.267378</ele>
        <time>2019-06-05T10:09:02.000Z</time>
      </trkpt>
      <trkpt lat="50.588960" lon="25.973230">
        <ele>243.272325</ele>
        <time>2019-06-05T10:09:04.000Z</time>
      </trkpt>
      <trkpt lat="50.588990" lon="25.973392">
        <ele>243.277798</ele>
        <time>2019-06-05T10:09:06.000Z</time>
      </trkpt>
      <trkpt lat="50.589024" lon="25.973541">
        <ele>243.282934</ele>
        <time>2019-06-05T10:09:08.000Z</time>
      </trkpt>
      <trkpt lat="50.589054" lon="25.973682">
        <ele>243.287757</ele>
        <time>2019-06-05T10:09:10.000Z</time>
      </trkpt>
      <trkpt lat="50.589090" lon="25.973831">
        <ele>243.292928</ele>
        <time>2019-06-05T10:09:12.000Z</time>
      </trkpt>
      <trkpt lat="50.589115" lon="25.973980">
        <ele>243.297926</ele>
        <time>2019-06-05T10:09:14.000Z</time>
      </trkpt>
      <trkpt lat="50.589146" lon="25.974123">
        <ele>243.302828</ele>
        <time>2019-06-05T10:09:16.000Z</time>
      </trkpt>
      <trkpt lat="50.589170" lon="25.974266">
        <ele>243.307625</ele>
        <time>2019-06-05T10:09:18.000Z</time>
      </trkpt>
      <trkpt lat="50.589200" lon="25.974405">
        <ele>243.312387</ele>
        <time>2019-06-05T10:09:20.000Z</time>
      </trkpt>
      <trkpt lat="50.589233" lon="25.974556">
        <ele>243.317567</ele>
        <time>2019-06-05T10:09:22.000Z</time>
      </trkpt>
      <trkpt lat="50.589264" lon="25.974707">
        <ele>243.322714</ele>
        <time>2019-06-05T10:09:24.000Z</time>
      </trkpt>
      <trkpt lat="50.589306" lon="25.974850">
        <ele>243.327824</ele>
        <time>2019-06-05T10:09:26.000Z</time>
      </trkpt>
      <trkpt lat="50.589344" lon="25.974997">
        <ele>243.332972</ele>
        <time>2019-06-05T10:09:28.000Z</time>
      </trkpt>
      <trkpt lat="50.589370" lon="25.975153">
        <ele>243.295839</ele>
        <time>2019-06-05T10:09:30.000Z</time>
      </trkpt>
      <trkpt lat="50.589405" lon="25.975298">
        <ele>243.247429</ele>
        <time>2019-06-05T10:09:32.000Z</time>
      </trkpt>
      <trkpt lat="50.589447" lon="25.975443">
        <ele>243.197693</ele>
        <time>2019-06-05T10:09:34.000Z</time>
      </trkpt>
      <trkpt lat="50.589480" lon="25.975590">
        <ele>243.149036</ele>
        <time>2019-06-05T10:09:36.000Z</time>
      </trkpt>
      <trkpt lat="50.589527" lon="25.975794">
        <ele>243.081313</ele>
        <time>2019-06-05T10:09:39.000Z</time>
      </trkpt>
      <trkpt lat="50.589550" lon="25.975939">
        <ele>243.034673</ele>
        <time>2019-06-05T10:09:41.000Z</time>
      </trkpt>
      <trkpt lat="50.589580" lon="25.976090">
        <ele>242.985298</ele>
        <time>2019-06-05T10:09:43.000Z</time>
      </trkpt>
      <trkpt lat="50.589620" lon="25.976234">
        <ele>242.936248</ele>
        <time>2019-06-05T10:09:45.000Z</time>
      </trkpt>
      <trkpt lat="50.589650" lon="25.976383">
        <ele>242.887469</ele>
        <time>2019-06-05T10:09:47.000Z</time>
      </trkpt>
      <trkpt lat="50.589680" lon="25.976534">
        <ele>242.838094</ele>
        <time>2019-06-05T10:09:49.000Z</time>
      </trkpt>
      <trkpt lat="50.589720" lon="25.976690">
        <ele>242.785592</ele>
        <time>2019-06-05T10:09:51.000Z</time>
      </trkpt>
      <trkpt lat="50.589756" lon="25.976831">
        <ele>242.738166</ele>
        <time>2019-06-05T10:09:53.000Z</time>
      </trkpt>
      <trkpt lat="50.589794" lon="25.976982">
        <ele>242.687478</ele>
        <time>2019-06-05T10:09:55.000Z</time>
      </trkpt>
      <trkpt lat="50.589840" lon="25.977127">
        <ele>242.636894</ele>
        <time>2019-06-05T10:09:57.000Z</time>
      </trkpt>
      <trkpt lat="50.589870" lon="25.977278">
        <ele>242.587519</ele>
        <time>2019-06-05T10:09:59.000Z</time>
      </trkpt>
      <trkpt lat="50.589900" lon="25.977432">
        <ele>242.537251</ele>
        <time>2019-06-05T10:10:01.000Z</time>
      </trkpt>
      <trkpt lat="50.589940" lon="25.977585">
        <ele>242.485615</ele>
        <time>2019-06-05T10:10:03.000Z</time>
      </trkpt>
      <trkpt lat="50.589973" lon="25.977740">
        <ele>242.464965</ele>
        <time>2019-06-05T10:10:05.000Z</time>
      </trkpt>
      <trkpt lat="50.590004" lon="25.977898">
        <ele>242.514359</ele>
        <time>2019-06-05T10:10:07.000Z</time>
      </trkpt>
      <trkpt lat="50.590040" lon="25.978048">
        <ele>242.562255</ele>
        <time>2019-06-05T10:10:09.000Z</time>
      </trkpt>
      <trkpt lat="50.590073" lon="25.978184">
        <ele>242.605742</ele>
        <time>2019-06-05T10:10:11.000Z</time>
      </trkpt>
      <trkpt lat="50.590103" lon="25.978320">
        <ele>242.648744</ele>
        <time>2019-06-05T10:10:13.000Z</time>
      </trkpt>
      <trkpt lat="50.590150" lon="25.978514">
        <ele>242.710764</ele>
        <time>2019-06-05T10:10:16.000Z</time>
      </trkpt>
      <trkpt lat="50.590180" lon="25.978647">
        <ele>242.752921</ele>
        <time>2019-06-05T10:10:18.000Z</time>
      </trkpt>
      <trkpt lat="50.590214" lon="25.978786">
        <ele>242.797412</ele>
        <time>2019-06-05T10:10:20.000Z</time>
      </trkpt>
      <trkpt lat="50.590250" lon="25.978930">
        <ele>242.843636</ele>
        <time>2019-06-05T10:10:22.000Z</time>
      </trkpt>
      <trkpt lat="50.590280" lon="25.979074">
        <ele>242.888903</ele>
        <time>2019-06-05T10:10:24.000Z</time>
      </trkpt>
      <trkpt lat="50.590300" lon="25.979220">
        <ele>242.933513</ele>
        <time>2019-06-05T10:10:26.000Z</time>
      </trkpt>
      <trkpt lat="50.590330" lon="25.979360">
        <ele>242.977646</ele>
        <time>2019-06-05T10:10:28.000Z</time>
      </trkpt>
      <trkpt lat="50.590366" lon="25.979492">
        <ele>243.020555</ele>
        <time>2019-06-05T10:10:30.000Z</time>
      </trkpt>
      <trkpt lat="50.590397" lon="25.979635">
        <ele>243.065688</ele>
        <time>2019-06-05T10:10:32.000Z</time>
      </trkpt>
      <trkpt lat="50.590430" lon="25.979778">
        <ele>243.111133</ele>
        <time>2019-06-05T10:10:34.000Z</time>
      </trkpt>
      <trkpt lat="50.590470" lon="25.979918">
        <ele>243.156987</ele>
        <time>2019-06-05T10:10:36.000Z</time>
      </trkpt>
      <trkpt lat="50.590504" lon="25.980057">
        <ele>243.201478</ele>
        <time>2019-06-05T10:10:38.000Z</time>
      </trkpt>
      <trkpt lat="50.590538" lon="25.980194">
        <ele>243.245412</ele>
        <time>2019-06-05T10:10:40.000Z</time>
      </trkpt>
      <trkpt lat="50.590572" lon="25.980335">
        <ele>243.290461</ele>
        <time>2019-06-05T10:10:42.000Z</time>
      </trkpt>
      <trkpt lat="50.590603" lon="25.980480">
        <ele>243.183097</ele>
        <time>2019-06-05T10:10:44.000Z</time>
      </trkpt>
      <trkpt lat="50.590633" lon="25.980630">
        <ele>243.049653</ele>
        <time>2019-06-05T10:10:46.000Z</time>
      </trkpt>
      <trkpt lat="50.590660" lon="25.980778">
        <ele>242.918992</ele>
        <time>2019-06-05T10:10:48.000Z</time>
      </trkpt>
      <trkpt lat="50.590687" lon="25.980913">
        <ele>242.798893</ele>
        <time>2019-06-05T10:10:50.000Z</time>
      </trkpt>
      <trkpt lat="50.590720" lon="25.981049">
        <ele>242.675354</ele>
        <time>2019-06-05T10:10:52.000Z</time>
      </trkpt>
      <trkpt lat="50.590750" lon="25.981184">
        <ele>242.553990</ele>
        <time>2019-06-05T10:10:54.000Z</time>
      </trkpt>
      <trkpt lat="50.590786" lon="25.981323">
        <ele>242.426611</ele>
        <time>2019-06-05T10:10:56.000Z</time>
      </trkpt>
      <trkpt lat="50.590813" lon="25.981468">
        <ele>242.298394</ele>
        <time>2019-06-05T10:10:58.000Z</time>
      </trkpt>
      <trkpt lat="50.590843" lon="25.981617">
        <ele>242.165760</ele>
        <time>2019-06-05T10:11:00.000Z</time>
      </trkpt>
      <trkpt lat="50.590870" lon="25.981764">
        <ele>242.035915</ele>
        <time>2019-06-05T10:11:02.000Z</time>
      </trkpt>
      <trkpt lat="50.590908" lon="25.981913">
        <ele>241.899667</ele>
        <time>2019-06-05T10:11:04.000Z</time>
      </trkpt>
      <trkpt lat="50.590950" lon="25.982052">
        <ele>241.769047</ele>
        <time>2019-06-05T10:11:06.000Z</time>
      </trkpt>
      <trkpt lat="50.590984" lon="25.982199">
        <ele>241.636297</ele>
        <time>2019-06-05T10:11:08.000Z</time>
      </trkpt>
      <trkpt lat="50.591022" lon="25.982399">
        <ele>241.459159</ele>
        <time>2019-06-05T10:11:11.000Z</time>
      </trkpt>
      <trkpt lat="50.591053" lon="25.982584">
        <ele>241.296810</ele>
        <time>2019-06-05T10:11:14.000Z</time>
      </trkpt>
      <trkpt lat="50.591084" lon="25.982727">
        <ele>241.168595</ele>
        <time>2019-06-05T10:11:17.000Z</time>
      </trkpt>
      <trkpt lat="50.591125" lon="25.982900">
        <ele>241.011909</ele>
        <time>2019-06-05T10:11:21.000Z</time>
      </trkpt>
      <trkpt lat="50.591160" lon="25.983036">
        <ele>240.894126</ele>
        <time>2019-06-05T10:11:24.000Z</time>
      </trkpt>
      <trkpt lat="50.591213" lon="25.983190">
        <ele>240.947355</ele>
        <time>2019-06-05T10:11:27.000Z</time>
      </trkpt>
      <trkpt lat="50.591260" lon="25.983364">
        <ele>241.004815</ele>
        <time>2019-06-05T10:11:30.000Z</time>
      </trkpt>
      <trkpt lat="50.591300" lon="25.983528">
        <ele>241.058200</ele>
        <time>2019-06-05T10:11:33.000Z</time>
      </trkpt>
      <trkpt lat="50.591340" lon="25.983686">
        <ele>241.109888</ele>
        <time>2019-06-05T10:11:36.000Z</time>
      </trkpt>
      <trkpt lat="50.591377" lon="25.983831">
        <ele>241.157374</ele>
        <time>2019-06-05T10:11:40.000Z</time>
      </trkpt>
      <trkpt lat="50.591450" lon="25.983734">
        <ele>241.203087</ele>
        <time>2019-06-05T10:11:47.000Z</time>
      </trkpt>
      <trkpt lat="50.591404" lon="25.983862">
        <ele>241.247781</ele>
        <time>2019-06-05T10:13:40.000Z</time>
      </trkpt>
      <trkpt lat="50.591430" lon="25.984015">
        <ele>241.295910</ele>
        <time>2019-06-05T10:13:46.000Z</time>
      </trkpt>
      <trkpt lat="50.591454" lon="25.984154">
        <ele>241.339681</ele>
        <time>2019-06-05T10:13:50.000Z</time>
      </trkpt>
      <trkpt lat="50.591488" lon="25.984318">
        <ele>241.392105</ele>
        <time>2019-06-05T10:13:54.000Z</time>
      </trkpt>
      <trkpt lat="50.591522" lon="25.984465">
        <ele>241.439645</ele>
        <time>2019-06-05T10:13:57.000Z</time>
      </trkpt>
      <trkpt lat="50.591557" lon="25.984606">
        <ele>241.485649</ele>
        <time>2019-06-05T10:14:00.000Z</time>
      </trkpt>
      <trkpt lat="50.591600" lon="25.984766">
        <ele>241.538444</ele>
        <time>2019-06-05T10:14:03.000Z</time>
      </trkpt>
      <trkpt lat="50.591637" lon="25.984951">
        <ele>241.597383</ele>
        <time>2019-06-05T10:14:06.000Z</time>
      </trkpt>
      <trkpt lat="50.591680" lon="25.985128">
        <ele>241.654970</ele>
        <time>2019-06-05T10:14:09.000Z</time>
      </trkpt>
      <trkpt lat="50.591724" lon="25.985302">
        <ele>241.711882</ele>
        <time>2019-06-05T10:14:12.000Z</time>
      </trkpt>
      <trkpt lat="50.591760" lon="25.985481">
        <ele>241.707728</ele>
        <time>2019-06-05T10:14:15.000Z</time>
      </trkpt>
      <trkpt lat="50.591793" lon="25.985651">
        <ele>241.550851</ele>
        <time>2019-06-05T10:14:18.000Z</time>
      </trkpt>
      <trkpt lat="50.591824" lon="25.985834">
        <ele>241.383709</ele>
        <time>2019-06-05T10:14:21.000Z</time>
      </trkpt>
      <trkpt lat="50.591854" lon="25.985994">
        <ele>241.236483</ele>
        <time>2019-06-05T10:14:24.000Z</time>
      </trkpt>
      <trkpt lat="50.591890" lon="25.986147">
        <ele>241.092490</ele>
        <time>2019-06-05T10:14:27.000Z</time>
      </trkpt>
      <trkpt lat="50.591938" lon="25.986305">
        <ele>240.937917</ele>
        <time>2019-06-05T10:14:30.000Z</time>
      </trkpt>
      <trkpt lat="50.591976" lon="25.986477">
        <ele>240.777203</ele>
        <time>2019-06-05T10:14:33.000Z</time>
      </trkpt>
      <trkpt lat="50.592030" lon="25.986649">
        <ele>240.607872</ele>
        <time>2019-06-05T10:14:36.000Z</time>
      </trkpt>
      <trkpt lat="50.592056" lon="25.986786">
        <ele>240.481687</ele>
        <time>2019-06-05T10:14:38.000Z</time>
      </trkpt>
      <trkpt lat="50.592083" lon="25.986980">
        <ele>240.306423</ele>
        <time>2019-06-05T10:14:41.000Z</time>
      </trkpt>
      <trkpt lat="50.592120" lon="25.987175">
        <ele>240.126820</ele>
        <time>2019-06-05T10:14:44.000Z</time>
      </trkpt>
      <trkpt lat="50.592160" lon="25.987358">
        <ele>239.956024</ele>
        <time>2019-06-05T10:14:47.000Z</time>
      </trkpt>
      <trkpt lat="50.592200" lon="25.987558">
        <ele>239.770980</ele>
        <time>2019-06-05T10:14:50.000Z</time>
      </trkpt>
      <trkpt lat="50.592243" lon="25.987750">
        <ele>239.591312</ele>
        <time>2019-06-05T10:14:53.000Z</time>
      </trkpt>
      <trkpt lat="50.592285" lon="25.987938">
        <ele>239.415436</ele>
        <time>2019-06-05T10:14:56.000Z</time>
      </trkpt>
      <trkpt lat="50.592310" lon="25.988077">
        <ele>239.287946</ele>
        <time>2019-06-05T10:14:58.000Z</time>
      </trkpt>
      <trkpt lat="50.592340" lon="25.988216">
        <ele>239.224250</ele>
        <time>2019-06-05T10:15:00.000Z</time>
      </trkpt>
      <trkpt lat="50.592380" lon="25.988350">
        <ele>239.184520</ele>
        <time>2019-06-05T10:15:02.000Z</time>
      </trkpt>
      <trkpt lat="50.592422" lon="25.988539">
        <ele>239.130793</ele>
        <time>2019-06-05T10:15:05.000Z</time>
      </trkpt>
      <trkpt lat="50.592460" lon="25.988672">
        <ele>239.091660</ele>
        <time>2019-06-05T10:15:07.000Z</time>
      </trkpt>
      <trkpt lat="50.592506" lon="25.988852">
        <ele>239.039598</ele>
        <time>2019-06-05T10:15:10.000Z</time>
      </trkpt>
      <trkpt lat="50.592552" lon="25.989044">
        <ele>238.984537</ele>
        <time>2019-06-05T10:15:13.000Z</time>
      </trkpt>
      <trkpt lat="50.592587" lon="25.989240">
        <ele>238.929907</ele>
        <time>2019-06-05T10:15:16.000Z</time>
      </trkpt>
      <trkpt lat="50.592617" lon="25.989433">
        <ele>238.876594</ele>
        <time>2019-06-05T10:15:19.000Z</time>
      </trkpt>
      <trkpt lat="50.592660" lon="25.989618">
        <ele>238.823735</ele>
        <time>2019-06-05T10:15:22.000Z</time>
      </trkpt>
      <trkpt lat="50.592705" lon="25.989805">
        <ele>238.770078</ele>
        <time>2019-06-05T10:15:25.000Z</time>
      </trkpt>
      <trkpt lat="50.592754" lon="25.989992">
        <ele>238.715798</ele>
        <time>2019-06-05T10:15:28.000Z</time>
      </trkpt>
      <trkpt lat="50.592804" lon="25.990183">
        <ele>238.660366</ele>
        <time>2019-06-05T10:15:31.000Z</time>
      </trkpt>
      <trkpt lat="50.592840" lon="25.990324">
        <ele>238.619590</ele>
        <time>2019-06-05T10:15:33.000Z</time>
      </trkpt>
      <trkpt lat="50.592870" lon="25.990467">
        <ele>238.579181</ele>
        <time>2019-06-05T10:15:35.000Z</time>
      </trkpt>
      <trkpt lat="50.592900" lon="25.990612">
        <ele>238.538263</ele>
        <time>2019-06-05T10:15:37.000Z</time>
      </trkpt>
      <trkpt lat="50.592930" lon="25.990746">
        <ele>238.500139</ele>
        <time>2019-06-05T10:15:39.000Z</time>
      </trkpt>
      <trkpt lat="50.592960" lon="25.990885">
        <ele>238.474550</ele>
        <time>2019-06-05T10:15:41.000Z</time>
      </trkpt>
      <trkpt lat="50.592990" lon="25.991034">
        <ele>238.450650</ele>
        <time>2019-06-05T10:15:43.000Z</time>
      </trkpt>
      <trkpt lat="50.593014" lon="25.991186">
        <ele>238.426701</ele>
        <time>2019-06-05T10:15:45.000Z</time>
      </trkpt>
      <trkpt lat="50.593044" lon="25.991330">
        <ele>238.403528</ele>
        <time>2019-06-05T10:15:47.000Z</time>
      </trkpt>
      <trkpt lat="50.593075" lon="25.991474">
        <ele>238.380278</ele>
        <time>2019-06-05T10:15:49.000Z</time>
      </trkpt>
      <trkpt lat="50.593110" lon="25.991613">
        <ele>238.357414</ele>
        <time>2019-06-05T10:15:51.000Z</time>
      </trkpt>
      <trkpt lat="50.593143" lon="25.991753">
        <ele>238.334580</ele>
        <time>2019-06-05T10:15:53.000Z</time>
      </trkpt>
      <trkpt lat="50.593193" lon="25.991943">
        <ele>238.303132</ele>
        <time>2019-06-05T10:15:56.000Z</time>
      </trkpt>
      <trkpt lat="50.593227" lon="25.992079">
        <ele>238.280783</ele>
        <time>2019-06-05T10:15:58.000Z</time>
      </trkpt>
      <trkpt lat="50.593260" lon="25.992216">
        <ele>238.258379</ele>
        <time>2019-06-05T10:16:00.000Z</time>
      </trkpt>
      <trkpt lat="50.593296" lon="25.992357">
        <ele>238.235142</ele>
        <time>2019-06-05T10:16:02.000Z</time>
      </trkpt>
      <trkpt lat="50.593323" lon="25.992493">
        <ele>238.213354</ele>
        <time>2019-06-05T10:16:06.000Z</time>
      </trkpt>
      <trkpt lat="50.593230" lon="25.992554">
        <ele>238.189090</ele>
        <time>2019-06-05T10:16:13.000Z</time>
      </trkpt>
      <trkpt lat="50.593110" lon="25.992632">
        <ele>238.157824</ele>
        <time>2019-06-05T10:28:42.000Z</time>
      </trkpt>
      <trkpt lat="50.593193" lon="25.992558">
        <ele>238.134853</ele>
        <time>2019-06-05T10:28:49.000Z</time>
      </trkpt>
      <trkpt lat="50.593285" lon="25.992579">
        <ele>238.112463</ele>
        <time>2019-06-05T10:28:53.000Z</time>
      </trkpt>
      <trkpt lat="50.593353" lon="25.992680">
        <ele>238.089952</ele>
        <time>2019-06-05T10:28:56.000Z</time>
      </trkpt>
      <trkpt lat="50.593410" lon="25.992828">
        <ele>238.063484</ele>
        <time>2019-06-05T10:28:59.000Z</time>
      </trkpt>
      <trkpt lat="50.593445" lon="25.993002">
        <ele>237.914351</ele>
        <time>2019-06-05T10:29:02.000Z</time>
      </trkpt>
      <trkpt lat="50.593494" lon="25.993162">
        <ele>237.750267</ele>
        <time>2019-06-05T10:29:05.000Z</time>
      </trkpt>
      <trkpt lat="50.593536" lon="25.993345">
        <ele>237.570529</ele>
        <time>2019-06-05T10:29:08.000Z</time>
      </trkpt>
      <trkpt lat="50.593570" lon="25.993546">
        <ele>237.378396</ele>
        <time>2019-06-05T10:29:11.000Z</time>
      </trkpt>
      <trkpt lat="50.593610" lon="25.993683">
        <ele>237.239112</ele>
        <time>2019-06-05T10:29:13.000Z</time>
      </trkpt>
      <trkpt lat="50.593640" lon="25.993820">
        <ele>237.105253</ele>
        <time>2019-06-05T10:29:15.000Z</time>
      </trkpt>
      <trkpt lat="50.593666" lon="25.993970">
        <ele>236.961633</ele>
        <time>2019-06-05T10:29:17.000Z</time>
      </trkpt>
      <trkpt lat="50.593693" lon="25.994116">
        <ele>236.821173</ele>
        <time>2019-06-05T10:29:19.000Z</time>
      </trkpt>
      <trkpt lat="50.593735" lon="25.994259">
        <ele>236.675638</ele>
        <time>2019-06-05T10:29:21.000Z</time>
      </trkpt>
      <trkpt lat="50.593792" lon="25.994421">
        <ele>236.504559</ele>
        <time>2019-06-05T10:29:23.000Z</time>
      </trkpt>
      <trkpt lat="50.593834" lon="25.994583">
        <ele>236.342929</ele>
        <time>2019-06-05T10:29:25.000Z</time>
      </trkpt>
      <trkpt lat="50.593876" lon="25.994750">
        <ele>236.177015</ele>
        <time>2019-06-05T10:29:27.000Z</time>
      </trkpt>
      <trkpt lat="50.593918" lon="25.994926">
        <ele>236.003345</ele>
        <time>2019-06-05T10:29:29.000Z</time>
      </trkpt>
      <trkpt lat="50.593956" lon="25.995104">
        <ele>235.829887</ele>
        <time>2019-06-05T10:29:31.000Z</time>
      </trkpt>
      <trkpt lat="50.593994" lon="25.995272">
        <ele>235.665157</ele>
        <time>2019-06-05T10:29:33.000Z</time>
      </trkpt>
      <trkpt lat="50.594025" lon="25.995430">
        <ele>235.512409</ele>
        <time>2019-06-05T10:29:35.000Z</time>
      </trkpt>
      <trkpt lat="50.594063" lon="25.995577">
        <ele>235.434746</ele>
        <time>2019-06-05T10:29:37.000Z</time>
      </trkpt>
      <trkpt lat="50.594093" lon="25.995720">
        <ele>235.420528</ele>
        <time>2019-06-05T10:29:39.000Z</time>
      </trkpt>
      <trkpt lat="50.594143" lon="25.995905">
        <ele>235.401546</ele>
        <time>2019-06-05T10:29:42.000Z</time>
      </trkpt>
      <trkpt lat="50.594180" lon="25.996086">
        <ele>235.383595</ele>
        <time>2019-06-05T10:29:45.000Z</time>
      </trkpt>
      <trkpt lat="50.594223" lon="25.996283">
        <ele>235.363928</ele>
        <time>2019-06-05T10:29:48.000Z</time>
      </trkpt>
      <trkpt lat="50.594257" lon="25.996416">
        <ele>235.350392</ele>
        <time>2019-06-05T10:29:50.000Z</time>
      </trkpt>
      <trkpt lat="50.594307" lon="25.996597">
        <ele>235.331757</ele>
        <time>2019-06-05T10:29:53.000Z</time>
      </trkpt>
      <trkpt lat="50.594337" lon="25.996778">
        <ele>235.314097</ele>
        <time>2019-06-05T10:29:56.000Z</time>
      </trkpt>
      <trkpt lat="50.594370" lon="25.996970">
        <ele>235.295319</ele>
        <time>2019-06-05T10:29:59.000Z</time>
      </trkpt>
      <trkpt lat="50.594406" lon="25.997107">
        <ele>235.281321</ele>
        <time>2019-06-05T10:30:01.000Z</time>
      </trkpt>
      <trkpt lat="50.594448" lon="25.997238">
        <ele>235.267466</ele>
        <time>2019-06-05T10:30:03.000Z</time>
      </trkpt>
      <trkpt lat="50.594475" lon="25.997380">
        <ele>235.253472</ele>
        <time>2019-06-05T10:30:05.000Z</time>
      </trkpt>
      <trkpt lat="50.594498" lon="25.997526">
        <ele>235.239271</ele>
        <time>2019-06-05T10:30:07.000Z</time>
      </trkpt>
      <trkpt lat="50.594530" lon="25.997660">
        <ele>235.225755</ele>
        <time>2019-06-05T10:30:09.000Z</time>
      </trkpt>
      <trkpt lat="50.594578" lon="25.997843">
        <ele>235.207063</ele>
        <time>2019-06-05T10:30:12.000Z</time>
      </trkpt>
      <trkpt lat="50.594616" lon="25.998020">
        <ele>235.189423</ele>
        <time>2019-06-05T10:30:15.000Z</time>
      </trkpt>
      <trkpt lat="50.594660" lon="25.998209">
        <ele>235.184455</ele>
        <time>2019-06-05T10:30:18.000Z</time>
      </trkpt>
      <trkpt lat="50.594692" lon="25.998343">
        <ele>235.211375</ele>
        <time>2019-06-05T10:30:20.000Z</time>
      </trkpt>
      <trkpt lat="50.594710" lon="25.998487">
        <ele>235.238972</ele>
        <time>2019-06-05T10:30:22.000Z</time>
      </trkpt>
      <trkpt lat="50.594746" lon="25.998680">
        <ele>235.276798</ele>
        <time>2019-06-05T10:30:25.000Z</time>
      </trkpt>
      <trkpt lat="50.594795" lon="25.998850">
        <ele>235.311905</ele>
        <time>2019-06-05T10:30:28.000Z</time>
      </trkpt>
      <trkpt lat="50.594845" lon="25.999018">
        <ele>235.346794</ele>
        <time>2019-06-05T10:30:31.000Z</time>
      </trkpt>
      <trkpt lat="50.594880" lon="25.999207">
        <ele>235.383814</ele>
        <time>2019-06-05T10:30:34.000Z</time>
      </trkpt>
      <trkpt lat="50.594913" lon="25.999367">
        <ele>235.415448</ele>
        <time>2019-06-05T10:30:37.000Z</time>
      </trkpt>
      <trkpt lat="50.594950" lon="25.999520">
        <ele>235.446234</ele>
        <time>2019-06-05T10:30:40.000Z</time>
      </trkpt>
      <trkpt lat="50.594994" lon="25.999693">
        <ele>235.481278</ele>
        <time>2019-06-05T10:30:43.000Z</time>
      </trkpt>
      <trkpt lat="50.595030" lon="25.999874">
        <ele>235.516944</ele>
        <time>2019-06-05T10:30:46.000Z</time>
      </trkpt>
      <trkpt lat="50.595070" lon="26.000040">
        <ele>235.550331</ele>
        <time>2019-06-05T10:30:49.000Z</time>
      </trkpt>
      <trkpt lat="50.595110" lon="26.000220">
        <ele>235.586191</ele>
        <time>2019-06-05T10:30:52.000Z</time>
      </trkpt>
      <trkpt lat="50.595154" lon="26.000400">
        <ele>235.622460</ele>
        <time>2019-06-05T10:30:55.000Z</time>
      </trkpt>
      <trkpt lat="50.595203" lon="26.000580">
        <ele>235.659287</ele>
        <time>2019-06-05T10:30:58.000Z</time>
      </trkpt>
      <trkpt lat="50.595240" lon="26.000765">
        <ele>235.695759</ele>
        <time>2019-06-05T10:31:01.000Z</time>
      </trkpt>
      <trkpt lat="50.595270" lon="26.000937">
        <ele>236.019519</ele>
        <time>2019-06-05T10:31:04.000Z</time>
      </trkpt>
      <trkpt lat="50.595303" lon="26.001099">
        <ele>236.485183</ele>
        <time>2019-06-05T10:31:07.000Z</time>
      </trkpt>
      <trkpt lat="50.595350" lon="26.001259">
        <ele>236.967717</ele>
        <time>2019-06-05T10:31:10.000Z</time>
      </trkpt>
      <trkpt lat="50.595387" lon="26.001429">
        <ele>237.459595</ele>
        <time>2019-06-05T10:31:13.000Z</time>
      </trkpt>
      <trkpt lat="50.595425" lon="26.001590">
        <ele>237.929725</ele>
        <time>2019-06-05T10:31:16.000Z</time>
      </trkpt>
      <trkpt lat="50.595470" lon="26.001774">
        <ele>238.469414</ele>
        <time>2019-06-05T10:31:19.000Z</time>
      </trkpt>
      <trkpt lat="50.595505" lon="26.001945">
        <ele>238.961166</ele>
        <time>2019-06-05T10:31:22.000Z</time>
      </trkpt>
      <trkpt lat="50.595550" lon="26.002111">
        <ele>239.455200</ele>
        <time>2019-06-05T10:31:25.000Z</time>
      </trkpt>
      <trkpt lat="50.595580" lon="26.002275">
        <ele>239.922331</ele>
        <time>2019-06-05T10:31:28.000Z</time>
      </trkpt>
      <trkpt lat="50.595610" lon="26.002426">
        <ele>240.355384</ele>
        <time>2019-06-05T10:31:31.000Z</time>
      </trkpt>
      <trkpt lat="50.595654" lon="26.002563">
        <ele>240.775610</ele>
        <time>2019-06-05T10:31:34.000Z</time>
      </trkpt>
      <trkpt lat="50.595688" lon="26.002695">
        <ele>241.165500</ele>
        <time>2019-06-05T10:31:37.000Z</time>
      </trkpt>
      <trkpt lat="50.595720" lon="26.002832">
        <ele>241.565044</ele>
        <time>2019-06-05T10:31:40.000Z</time>
      </trkpt>
      <trkpt lat="50.595750" lon="26.002964">
        <ele>241.948782</ele>
        <time>2019-06-05T10:31:43.000Z</time>
      </trkpt>
      <trkpt lat="50.595780" lon="26.003103">
        <ele>242.350610</ele>
        <time>2019-06-05T10:31:46.000Z</time>
      </trkpt>
      <trkpt lat="50.595810" lon="26.003244">
        <ele>242.757623</ele>
        <time>2019-06-05T10:31:49.000Z</time>
      </trkpt>
      <trkpt lat="50.595840" lon="26.003386">
        <ele>243.167232</ele>
        <time>2019-06-05T10:31:52.000Z</time>
      </trkpt>
      <trkpt lat="50.595867" lon="26.003525">
        <ele>243.486215</ele>
        <time>2019-06-05T10:31:55.000Z</time>
      </trkpt>
      <trkpt lat="50.595900" lon="26.003656">
        <ele>243.573995</ele>
        <time>2019-06-05T10:31:58.000Z</time>
      </trkpt>
      <trkpt lat="50.595940" lon="26.003834">
        <ele>243.691599</ele>
        <time>2019-06-05T10:32:02.000Z</time>
      </trkpt>
      <trkpt lat="50.595970" lon="26.003975">
        <ele>243.784219</ele>
        <time>2019-06-05T10:32:05.000Z</time>
      </trkpt>
      <trkpt lat="50.596012" lon="26.004143">
        <ele>243.896675</ele>
        <time>2019-06-05T10:32:09.000Z</time>
      </trkpt>
      <trkpt lat="50.596043" lon="26.004278">
        <ele>243.986088</ele>
        <time>2019-06-05T10:32:12.000Z</time>
      </trkpt>
      <trkpt lat="50.596073" lon="26.004423">
        <ele>244.081073</ele>
        <time>2019-06-05T10:32:15.000Z</time>
      </trkpt>
      <trkpt lat="50.596107" lon="26.004566">
        <ele>244.176179</ele>
        <time>2019-06-05T10:32:18.000Z</time>
      </trkpt>
      <trkpt lat="50.596140" lon="26.004728">
        <ele>244.282144</ele>
        <time>2019-06-05T10:32:21.000Z</time>
      </trkpt>
      <trkpt lat="50.596170" lon="26.004883">
        <ele>244.383069</ele>
        <time>2019-06-05T10:32:24.000Z</time>
      </trkpt>
      <trkpt lat="50.596203" lon="26.005043">
        <ele>244.487848</ele>
        <time>2019-06-05T10:32:27.000Z</time>
      </trkpt>
      <trkpt lat="50.596237" lon="26.005219">
        <ele>244.602428</ele>
        <time>2019-06-05T10:32:30.000Z</time>
      </trkpt>
      <trkpt lat="50.596280" lon="26.005402">
        <ele>244.723962</ele>
        <time>2019-06-05T10:32:33.000Z</time>
      </trkpt>
      <trkpt lat="50.596333" lon="26.005579">
        <ele>244.845850</ele>
        <time>2019-06-05T10:32:36.000Z</time>
      </trkpt>
      <trkpt lat="50.596382" lon="26.005768">
        <ele>244.973002</ele>
        <time>2019-06-05T10:32:39.000Z</time>
      </trkpt>
      <trkpt lat="50.596424" lon="26.005955">
        <ele>245.096544</ele>
        <time>2019-06-05T10:32:42.000Z</time>
      </trkpt>
      <trkpt lat="50.596462" lon="26.006140">
        <ele>245.217647</ele>
        <time>2019-06-05T10:32:45.000Z</time>
      </trkpt>
      <trkpt lat="50.596497" lon="26.006323">
        <ele>245.352193</ele>
        <time>2019-06-05T10:32:48.000Z</time>
      </trkpt>
      <trkpt lat="50.596546" lon="26.006510">
        <ele>245.496127</ele>
        <time>2019-06-05T10:32:51.000Z</time>
      </trkpt>
      <trkpt lat="50.596592" lon="26.006699">
        <ele>245.640140</ele>
        <time>2019-06-05T10:32:54.000Z</time>
      </trkpt>
      <trkpt lat="50.596640" lon="26.006890">
        <ele>245.786293</ele>
        <time>2019-06-05T10:32:57.000Z</time>
      </trkpt>
      <trkpt lat="50.596676" lon="26.007095">
        <ele>245.937622</ele>
        <time>2019-06-05T10:33:00.000Z</time>
      </trkpt>
      <trkpt lat="50.596720" lon="26.007286">
        <ele>246.082185</ele>
        <time>2019-06-05T10:33:03.000Z</time>
      </trkpt>
      <trkpt lat="50.596764" lon="26.007480">
        <ele>246.228755</ele>
        <time>2019-06-05T10:33:06.000Z</time>
      </trkpt>
      <trkpt lat="50.596806" lon="26.007670">
        <ele>246.371896</ele>
        <time>2019-06-05T10:33:09.000Z</time>
      </trkpt>
      <trkpt lat="50.596848" lon="26.007866">
        <ele>246.519074</ele>
        <time>2019-06-05T10:33:12.000Z</time>
      </trkpt>
      <trkpt lat="50.596886" lon="26.008053">
        <ele>246.658769</ele>
        <time>2019-06-05T10:33:15.000Z</time>
      </trkpt>
      <trkpt lat="50.596930" lon="26.008240">
        <ele>246.800659</ele>
        <time>2019-06-05T10:33:18.000Z</time>
      </trkpt>
      <trkpt lat="50.596980" lon="26.008423">
        <ele>246.942406</ele>
        <time>2019-06-05T10:33:21.000Z</time>
      </trkpt>
      <trkpt lat="50.597020" lon="26.008598">
        <ele>247.074738</ele>
        <time>2019-06-05T10:33:24.000Z</time>
      </trkpt>
      <trkpt lat="50.597060" lon="26.008780">
        <ele>247.211766</ele>
        <time>2019-06-05T10:33:27.000Z</time>
      </trkpt>
      <trkpt lat="50.597107" lon="26.008972">
        <ele>247.461271</ele>
        <time>2019-06-05T10:33:30.000Z</time>
      </trkpt>
      <trkpt lat="50.597150" lon="26.009157">
        <ele>247.727659</ele>
        <time>2019-06-05T10:33:33.000Z</time>
      </trkpt>
      <trkpt lat="50.597183" lon="26.009338">
        <ele>247.982291</ele>
        <time>2019-06-05T10:33:36.000Z</time>
      </trkpt>
      <trkpt lat="50.597220" lon="26.009527">
        <ele>248.249723</ele>
        <time>2019-06-05T10:33:39.000Z</time>
      </trkpt>
      <trkpt lat="50.597263" lon="26.009705">
        <ele>248.507244</ele>
        <time>2019-06-05T10:33:42.000Z</time>
      </trkpt>
      <trkpt lat="50.597305" lon="26.009888">
        <ele>248.770362</ele>
        <time>2019-06-05T10:33:45.000Z</time>
      </trkpt>
      <trkpt lat="50.597343" lon="26.010061">
        <ele>249.017890</ele>
        <time>2019-06-05T10:33:48.000Z</time>
      </trkpt>
      <trkpt lat="50.597385" lon="26.010235">
        <ele>249.269597</ele>
        <time>2019-06-05T10:33:51.000Z</time>
      </trkpt>
      <trkpt lat="50.597430" lon="26.010430">
        <ele>249.550147</ele>
        <time>2019-06-05T10:33:54.000Z</time>
      </trkpt>
      <trkpt lat="50.597477" lon="26.010607">
        <ele>249.809571</ele>
        <time>2019-06-05T10:33:57.000Z</time>
      </trkpt>
      <trkpt lat="50.597520" lon="26.010796">
        <ele>250.081042</ele>
        <time>2019-06-05T10:34:00.000Z</time>
      </trkpt>
      <trkpt lat="50.597557" lon="26.010975">
        <ele>250.335583</ele>
        <time>2019-06-05T10:34:03.000Z</time>
      </trkpt>
      <trkpt lat="50.597595" lon="26.011164">
        <ele>250.603648</ele>
        <time>2019-06-05T10:34:06.000Z</time>
      </trkpt>
      <trkpt lat="50.597637" lon="26.011350">
        <ele>250.870582</ele>
        <time>2019-06-05T10:34:09.000Z</time>
      </trkpt>
      <trkpt lat="50.597675" lon="26.011513">
        <ele>251.089562</ele>
        <time>2019-06-05T10:34:12.000Z</time>
      </trkpt>
      <trkpt lat="50.597713" lon="26.011700">
        <ele>251.216739</ele>
        <time>2019-06-05T10:34:15.000Z</time>
      </trkpt>
      <trkpt lat="50.597755" lon="26.011880">
        <ele>251.340955</ele>
        <time>2019-06-05T10:34:18.000Z</time>
      </trkpt>
      <trkpt lat="50.597800" lon="26.012062">
        <ele>251.467465</ele>
        <time>2019-06-05T10:34:21.000Z</time>
      </trkpt>
      <trkpt lat="50.597850" lon="26.012250">
        <ele>251.599491</ele>
        <time>2019-06-05T10:34:24.000Z</time>
      </trkpt>
      <trkpt lat="50.597893" lon="26.012444">
        <ele>251.732587</ele>
        <time>2019-06-05T10:34:27.000Z</time>
      </trkpt>
      <trkpt lat="50.597940" lon="26.012634">
        <ele>251.864666</ele>
        <time>2019-06-05T10:34:30.000Z</time>
      </trkpt>
      <trkpt lat="50.597980" lon="26.012829">
        <ele>251.997400</ele>
        <time>2019-06-05T10:34:33.000Z</time>
      </trkpt>
      <trkpt lat="50.598022" lon="26.013012">
        <ele>252.123440</ele>
        <time>2019-06-05T10:34:36.000Z</time>
      </trkpt>
      <trkpt lat="50.598060" lon="26.013200">
        <ele>252.251233</ele>
        <time>2019-06-05T10:34:39.000Z</time>
      </trkpt>
      <trkpt lat="50.598103" lon="26.013391">
        <ele>252.382496</ele>
        <time>2019-06-05T10:34:42.000Z</time>
      </trkpt>
      <trkpt lat="50.598145" lon="26.013577">
        <ele>252.510365</ele>
        <time>2019-06-05T10:34:45.000Z</time>
      </trkpt>
      <trkpt lat="50.598198" lon="26.013754">
        <ele>252.637124</ele>
        <time>2019-06-05T10:34:48.000Z</time>
      </trkpt>
      <trkpt lat="50.598240" lon="26.013945">
        <ele>252.768048</ele>
        <time>2019-06-05T10:34:51.000Z</time>
      </trkpt>
      <trkpt lat="50.598293" lon="26.014124">
        <ele>252.895980</ele>
        <time>2019-06-05T10:34:54.000Z</time>
      </trkpt>
      <trkpt lat="50.598343" lon="26.014313">
        <ele>252.928276</ele>
        <time>2019-06-05T10:34:57.000Z</time>
      </trkpt>
      <trkpt lat="50.598385" lon="26.014503">
        <ele>252.948021</ele>
        <time>2019-06-05T10:35:00.000Z</time>
      </trkpt>
      <trkpt lat="50.598427" lon="26.014688">
        <ele>252.967303</ele>
        <time>2019-06-05T10:35:03.000Z</time>
      </trkpt>
      <trkpt lat="50.598457" lon="26.014824">
        <ele>252.981434</ele>
        <time>2019-06-05T10:35:05.000Z</time>
      </trkpt>
      <trkpt lat="50.598495" lon="26.015026">
        <ele>253.002110</ele>
        <time>2019-06-05T10:35:08.000Z</time>
      </trkpt>
      <trkpt lat="50.598522" lon="26.015163">
        <ele>253.016189</ele>
        <time>2019-06-05T10:35:10.000Z</time>
      </trkpt>
      <trkpt lat="50.598553" lon="26.015306">
        <ele>253.031019</ele>
        <time>2019-06-05T10:35:12.000Z</time>
      </trkpt>
      <trkpt lat="50.598595" lon="26.015501">
        <ele>253.051228</ele>
        <time>2019-06-05T10:35:15.000Z</time>
      </trkpt>
      <trkpt lat="50.598640" lon="26.015694">
        <ele>253.071407</ele>
        <time>2019-06-05T10:35:18.000Z</time>
      </trkpt>
      <trkpt lat="50.598680" lon="26.015880">
        <ele>253.090680</ele>
        <time>2019-06-05T10:35:21.000Z</time>
      </trkpt>
      <trkpt lat="50.598724" lon="26.016070">
        <ele>253.110529</ele>
        <time>2019-06-05T10:35:24.000Z</time>
      </trkpt>
      <trkpt lat="50.598774" lon="26.016264">
        <ele>253.131078</ele>
        <time>2019-06-05T10:35:27.000Z</time>
      </trkpt>
      <trkpt lat="50.598810" lon="26.016397">
        <ele>253.145268</ele>
        <time>2019-06-05T10:35:29.000Z</time>
      </trkpt>
      <trkpt lat="50.598850" lon="26.016598">
        <ele>253.165941</ele>
        <time>2019-06-05T10:35:32.000Z</time>
      </trkpt>
      <trkpt lat="50.598890" lon="26.016735">
        <ele>253.180740</ele>
        <time>2019-06-05T10:35:34.000Z</time>
      </trkpt>
      <trkpt lat="50.598930" lon="26.016930">
        <ele>253.241533</ele>
        <time>2019-06-05T10:35:37.000Z</time>
      </trkpt>
      <trkpt lat="50.598980" lon="26.017109">
        <ele>253.323702</ele>
        <time>2019-06-05T10:35:40.000Z</time>
      </trkpt>
      <trkpt lat="50.599007" lon="26.017242">
        <ele>253.382371</ele>
        <time>2019-06-05T10:35:42.000Z</time>
      </trkpt>
      <trkpt lat="50.599033" lon="26.017380">
        <ele>253.442853</ele>
        <time>2019-06-05T10:35:44.000Z</time>
      </trkpt>
      <trkpt lat="50.599070" lon="26.017510">
        <ele>253.502714</ele>
        <time>2019-06-05T10:35:46.000Z</time>
      </trkpt>
      <trkpt lat="50.599113" lon="26.017706">
        <ele>253.589844</ele>
        <time>2019-06-05T10:35:49.000Z</time>
      </trkpt>
      <trkpt lat="50.599140" lon="26.017843">
        <ele>253.650117</ele>
        <time>2019-06-05T10:35:51.000Z</time>
      </trkpt>
      <trkpt lat="50.599180" lon="26.018045">
        <ele>253.739022</ele>
        <time>2019-06-05T10:35:54.000Z</time>
      </trkpt>
      <trkpt lat="50.599224" lon="26.018229">
        <ele>253.821635</ele>
        <time>2019-06-05T10:35:57.000Z</time>
      </trkpt>
      <trkpt lat="50.599270" lon="26.018425">
        <ele>253.909435</ele>
        <time>2019-06-05T10:36:00.000Z</time>
      </trkpt>
      <trkpt lat="50.599316" lon="26.018627">
        <ele>253.999603</ele>
        <time>2019-06-05T10:36:03.000Z</time>
      </trkpt>
      <trkpt lat="50.599358" lon="26.018760">
        <ele>254.062017</ele>
        <time>2019-06-05T10:36:05.000Z</time>
      </trkpt>
      <trkpt lat="50.599390" lon="26.018904">
        <ele>254.126120</ele>
        <time>2019-06-05T10:36:07.000Z</time>
      </trkpt>
      <trkpt lat="50.599422" lon="26.019045">
        <ele>254.189035</ele>
        <time>2019-06-05T10:36:09.000Z</time>
      </trkpt>
      <trkpt lat="50.599450" lon="26.019192">
        <ele>254.253518</ele>
        <time>2019-06-05T10:36:11.000Z</time>
      </trkpt>
      <trkpt lat="50.599476" lon="26.019333">
        <ele>254.315209</ele>
        <time>2019-06-05T10:36:13.000Z</time>
      </trkpt>
      <trkpt lat="50.599503" lon="26.019472">
        <ele>254.376284</ele>
        <time>2019-06-05T10:36:15.000Z</time>
      </trkpt>
      <trkpt lat="50.599533" lon="26.019620">
        <ele>254.391326</ele>
        <time>2019-06-05T10:36:17.000Z</time>
      </trkpt>
      <trkpt lat="50.599575" lon="26.019760">
        <ele>254.404116</ele>
        <time>2019-06-05T10:36:19.000Z</time>
      </trkpt>
      <trkpt lat="50.599610" lon="26.019901">
        <ele>254.416621</ele>
        <time>2019-06-05T10:36:21.000Z</time>
      </trkpt>
      <trkpt lat="50.599640" lon="26.020040">
        <ele>254.428747</ele>
        <time>2019-06-05T10:36:23.000Z</time>
      </trkpt>
      <trkpt lat="50.599667" lon="26.020178">
        <ele>254.440674</ele>
        <time>2019-06-05T10:36:25.000Z</time>
      </trkpt>
      <trkpt lat="50.599693" lon="26.020327">
        <ele>254.453438</ele>
        <time>2019-06-05T10:36:27.000Z</time>
      </trkpt>
      <trkpt lat="50.599724" lon="26.020464">
        <ele>254.465451</ele>
        <time>2019-06-05T10:36:29.000Z</time>
      </trkpt>
      <trkpt lat="50.599754" lon="26.020603">
        <ele>254.477577</ele>
        <time>2019-06-05T10:36:31.000Z</time>
      </trkpt>
      <trkpt lat="50.599785" lon="26.020746">
        <ele>254.490058</ele>
        <time>2019-06-05T10:36:33.000Z</time>
      </trkpt>
      <trkpt lat="50.599815" lon="26.020885">
        <ele>254.502184</ele>
        <time>2019-06-05T10:36:35.000Z</time>
      </trkpt>
      <trkpt lat="50.599850" lon="26.021027">
        <ele>254.514766</ele>
        <time>2019-06-05T10:36:37.000Z</time>
      </trkpt>
      <trkpt lat="50.599880" lon="26.021173">
        <ele>254.527441</ele>
        <time>2019-06-05T10:36:39.000Z</time>
      </trkpt>
      <trkpt lat="50.599915" lon="26.021318">
        <ele>254.540254</ele>
        <time>2019-06-05T10:36:41.000Z</time>
      </trkpt>
      <trkpt lat="50.599957" lon="26.021456">
        <ele>254.552895</ele>
        <time>2019-06-05T10:36:43.000Z</time>
      </trkpt>
      <trkpt lat="50.599987" lon="26.021603">
        <ele>254.565648</ele>
        <time>2019-06-05T10:36:45.000Z</time>
      </trkpt>
      <trkpt lat="50.600014" lon="26.021736">
        <ele>254.577182</ele>
        <time>2019-06-05T10:36:47.000Z</time>
      </trkpt>
      <trkpt lat="50.600044" lon="26.021885">
        <ele>254.590093</ele>
        <time>2019-06-05T10:36:49.000Z</time>
      </trkpt>
      <trkpt lat="50.600080" lon="26.022034">
        <ele>254.603261</ele>
        <time>2019-06-05T10:36:51.000Z</time>
      </trkpt>
      <trkpt lat="50.600110" lon="26.022173">
        <ele>254.611780</ele>
        <time>2019-06-05T10:36:53.000Z</time>
      </trkpt>
      <trkpt lat="50.600140" lon="26.022314">
        <ele>254.604821</ele>
        <time>2019-06-05T10:36:55.000Z</time>
      </trkpt>
      <trkpt lat="50.600193" lon="26.022520">
        <ele>254.594419</ele>
        <time>2019-06-05T10:36:58.000Z</time>
      </trkpt>
      <trkpt lat="50.600227" lon="26.022661">
        <ele>254.587361</ele>
        <time>2019-06-05T10:37:00.000Z</time>
      </trkpt>
      <trkpt lat="50.600260" lon="26.022800">
        <ele>254.580417</ele>
        <time>2019-06-05T10:37:02.000Z</time>
      </trkpt>
      <trkpt lat="50.600290" lon="26.022943">
        <ele>254.573369</ele>
        <time>2019-06-05T10:37:04.000Z</time>
      </trkpt>
      <trkpt lat="50.600320" lon="26.023085">
        <ele>254.566366</ele>
        <time>2019-06-05T10:37:06.000Z</time>
      </trkpt>
      <trkpt lat="50.600353" lon="26.023220">
        <ele>254.559596</ele>
        <time>2019-06-05T10:37:08.000Z</time>
      </trkpt>
      <trkpt lat="50.600388" lon="26.023367">
        <ele>254.552250</ele>
        <time>2019-06-05T10:37:10.000Z</time>
      </trkpt>
      <trkpt lat="50.600433" lon="26.023567">
        <ele>254.542320</ele>
        <time>2019-06-05T10:37:13.000Z</time>
      </trkpt>
      <trkpt lat="50.600487" lon="26.023764">
        <ele>254.532279</ele>
        <time>2019-06-05T10:37:16.000Z</time>
      </trkpt>
      <trkpt lat="50.600536" lon="26.023962">
        <ele>254.522334</ele>
        <time>2019-06-05T10:37:19.000Z</time>
      </trkpt>
      <trkpt lat="50.600567" lon="26.024109">
        <ele>254.515086</ele>
        <time>2019-06-05T10:37:21.000Z</time>
      </trkpt>
      <trkpt lat="50.600597" lon="26.024246">
        <ele>254.508304</ele>
        <time>2019-06-05T10:37:23.000Z</time>
      </trkpt>
      <trkpt lat="50.600624" lon="26.024384">
        <ele>254.501547</ele>
        <time>2019-06-05T10:37:25.000Z</time>
      </trkpt>
      <trkpt lat="50.600655" lon="26.024525">
        <ele>254.494564</ele>
        <time>2019-06-05T10:37:27.000Z</time>
      </trkpt>
      <trkpt lat="50.600677" lon="26.024672">
        <ele>254.487497</ele>
        <time>2019-06-05T10:37:29.000Z</time>
      </trkpt>
      <trkpt lat="50.600716" lon="26.024809">
        <ele>254.480402</ele>
        <time>2019-06-05T10:37:31.000Z</time>
      </trkpt>
      <trkpt lat="50.600742" lon="26.024948">
        <ele>254.430737</ele>
        <time>2019-06-05T10:37:33.000Z</time>
      </trkpt>
      <trkpt lat="50.600777" lon="26.025091">
        <ele>254.378209</ele>
        <time>2019-06-05T10:37:35.000Z</time>
      </trkpt>
      <trkpt lat="50.600810" lon="26.025234">
        <ele>254.326061</ele>
        <time>2019-06-05T10:37:37.000Z</time>
      </trkpt>
      <trkpt lat="50.600838" lon="26.025383">
        <ele>254.272803</ele>
        <time>2019-06-05T10:37:39.000Z</time>
      </trkpt>
      <trkpt lat="50.600895" lon="26.025593">
        <ele>254.194526</ele>
        <time>2019-06-05T10:37:42.000Z</time>
      </trkpt>
      <trkpt lat="50.600933" lon="26.025726">
        <ele>254.144538</ele>
        <time>2019-06-05T10:37:44.000Z</time>
      </trkpt>
      <trkpt lat="50.600956" lon="26.025875">
        <ele>254.091983</ele>
        <time>2019-06-05T10:37:46.000Z</time>
      </trkpt>
      <trkpt lat="50.600994" lon="26.026014">
        <ele>254.040114</ele>
        <time>2019-06-05T10:37:48.000Z</time>
      </trkpt>
      <trkpt lat="50.601040" lon="26.026217">
        <ele>253.966240</ele>
        <time>2019-06-05T10:37:51.000Z</time>
      </trkpt>
      <trkpt lat="50.601074" lon="26.026363">
        <ele>253.912940</ele>
        <time>2019-06-05T10:37:53.000Z</time>
      </trkpt>
      <trkpt lat="50.601100" lon="26.026506">
        <ele>253.861959</ele>
        <time>2019-06-05T10:37:55.000Z</time>
      </trkpt>
      <trkpt lat="50.601135" lon="26.026644">
        <ele>253.811027</ele>
        <time>2019-06-05T10:37:57.000Z</time>
      </trkpt>
      <trkpt lat="50.601173" lon="26.026785">
        <ele>253.758527</ele>
        <time>2019-06-05T10:37:59.000Z</time>
      </trkpt>
      <trkpt lat="50.601215" lon="26.026990">
        <ele>253.684699</ele>
        <time>2019-06-05T10:38:02.000Z</time>
      </trkpt>
      <trkpt lat="50.601246" lon="26.027138">
        <ele>253.631286</ele>
        <time>2019-06-05T10:38:04.000Z</time>
      </trkpt>
      <trkpt lat="50.601280" lon="26.027287">
        <ele>253.577020</ele>
        <time>2019-06-05T10:38:06.000Z</time>
      </trkpt>
      <trkpt lat="50.601315" lon="26.027418">
        <ele>253.528308</ele>
        <time>2019-06-05T10:38:08.000Z</time>
      </trkpt>
      <trkpt lat="50.601340" lon="26.027555">
        <ele>253.476163</ele>
        <time>2019-06-05T10:38:10.000Z</time>
      </trkpt>
      <trkpt lat="50.601376" lon="26.027702">
        <ele>253.416206</ele>
        <time>2019-06-05T10:38:12.000Z</time>
      </trkpt>
      <trkpt lat="50.601410" lon="26.027845">
        <ele>253.358098</ele>
        <time>2019-06-05T10:38:14.000Z</time>
      </trkpt>
      <trkpt lat="50.601440" lon="26.027998">
        <ele>253.297163</ele>
        <time>2019-06-05T10:38:16.000Z</time>
      </trkpt>
      <trkpt lat="50.601470" lon="26.028147">
        <ele>253.237680</ele>
        <time>2019-06-05T10:38:18.000Z</time>
      </trkpt>
      <trkpt lat="50.601513" lon="26.028282">
        <ele>253.180204</ele>
        <time>2019-06-05T10:38:20.000Z</time>
      </trkpt>
      <trkpt lat="50.601543" lon="26.028427">
        <ele>253.122170</ele>
        <time>2019-06-05T10:38:22.000Z</time>
      </trkpt>
      <trkpt lat="50.601578" lon="26.028574">
        <ele>253.062427</ele>
        <time>2019-06-05T10:38:24.000Z</time>
      </trkpt>
      <trkpt lat="50.601600" lon="26.028715">
        <ele>253.007175</ele>
        <time>2019-06-05T10:38:26.000Z</time>
      </trkpt>
      <trkpt lat="50.601635" lon="26.028860">
        <ele>252.948144</ele>
        <time>2019-06-05T10:38:28.000Z</time>
      </trkpt>
      <trkpt lat="50.601673" lon="26.029007">
        <ele>252.887745</ele>
        <time>2019-06-05T10:38:30.000Z</time>
      </trkpt>
      <trkpt lat="50.601707" lon="26.029150">
        <ele>252.829638</ele>
        <time>2019-06-05T10:38:32.000Z</time>
      </trkpt>
      <trkpt lat="50.601734" lon="26.029299">
        <ele>252.770674</ele>
        <time>2019-06-05T10:38:34.000Z</time>
      </trkpt>
      <trkpt lat="50.601770" lon="26.029451">
        <ele>252.708939</ele>
        <time>2019-06-05T10:38:36.000Z</time>
      </trkpt>
      <trkpt lat="50.601803" lon="26.029593">
        <ele>252.651397</ele>
        <time>2019-06-05T10:38:38.000Z</time>
      </trkpt>
      <trkpt lat="50.601837" lon="26.029740">
        <ele>252.591861</ele>
        <time>2019-06-05T10:38:40.000Z</time>
      </trkpt>
      <trkpt lat="50.601870" lon="26.029880">
        <ele>252.535033</ele>
        <time>2019-06-05T10:38:42.000Z</time>
      </trkpt>
      <trkpt lat="50.601906" lon="26.030025">
        <ele>252.475786</ele>
        <time>2019-06-05T10:38:44.000Z</time>
      </trkpt>
      <trkpt lat="50.601933" lon="26.030176">
        <ele>252.432077</ele>
        <time>2019-06-05T10:38:46.000Z</time>
      </trkpt>
      <trkpt lat="50.601970" lon="26.030323">
        <ele>252.436675</ele>
        <time>2019-06-05T10:38:48.000Z</time>
      </trkpt>
      <trkpt lat="50.602000" lon="26.030460">
        <ele>252.440888</ele>
        <time>2019-06-05T10:38:50.000Z</time>
      </trkpt>
      <trkpt lat="50.602030" lon="26.030600">
        <ele>252.445184</ele>
        <time>2019-06-05T10:38:52.000Z</time>
      </trkpt>
      <trkpt lat="50.602062" lon="26.030745">
        <ele>252.449648</ele>
        <time>2019-06-05T10:38:54.000Z</time>
      </trkpt>
      <trkpt lat="50.602080" lon="26.030886">
        <ele>252.453830</ele>
        <time>2019-06-05T10:38:56.000Z</time>
      </trkpt>
      <trkpt lat="50.602110" lon="26.031029">
        <ele>252.458208</ele>
        <time>2019-06-05T10:38:58.000Z</time>
      </trkpt>
      <trkpt lat="50.602150" lon="26.031174">
        <ele>252.462805</ele>
        <time>2019-06-05T10:39:00.000Z</time>
      </trkpt>
      <trkpt lat="50.602192" lon="26.031319">
        <ele>252.467439</ele>
        <time>2019-06-05T10:39:02.000Z</time>
      </trkpt>
      <trkpt lat="50.602226" lon="26.031460">
        <ele>252.471825</ele>
        <time>2019-06-05T10:39:04.000Z</time>
      </trkpt>
      <trkpt lat="50.602257" lon="26.031599">
        <ele>252.476108</ele>
        <time>2019-06-05T10:39:06.000Z</time>
      </trkpt>
      <trkpt lat="50.602287" lon="26.031736">
        <ele>252.480322</ele>
        <time>2019-06-05T10:39:08.000Z</time>
      </trkpt>
      <trkpt lat="50.602325" lon="26.031876">
        <ele>252.484749</ele>
        <time>2019-06-05T10:39:10.000Z</time>
      </trkpt>
      <trkpt lat="50.602352" lon="26.032011">
        <ele>252.488865</ele>
        <time>2019-06-05T10:39:12.000Z</time>
      </trkpt>
      <trkpt lat="50.602383" lon="26.032146">
        <ele>252.493039</ele>
        <time>2019-06-05T10:39:14.000Z</time>
      </trkpt>
      <trkpt lat="50.602413" lon="26.032280">
        <ele>252.497170</ele>
        <time>2019-06-05T10:39:16.000Z</time>
      </trkpt>
      <trkpt lat="50.602448" lon="26.032420">
        <ele>252.501545</ele>
        <time>2019-06-05T10:39:18.000Z</time>
      </trkpt>
      <trkpt lat="50.602486" lon="26.032558">
        <ele>252.505918</ele>
        <time>2019-06-05T10:39:20.000Z</time>
      </trkpt>
      <trkpt lat="50.602516" lon="26.032696">
        <ele>252.510159</ele>
        <time>2019-06-05T10:39:22.000Z</time>
      </trkpt>
      <trkpt lat="50.602543" lon="26.032840">
        <ele>252.512227</ele>
        <time>2019-06-05T10:39:24.000Z</time>
      </trkpt>
      <trkpt lat="50.602570" lon="26.032984">
        <ele>252.508159</ele>
        <time>2019-06-05T10:39:26.000Z</time>
      </trkpt>
      <trkpt lat="50.602600" lon="26.033125">
        <ele>252.504130</ele>
        <time>2019-06-05T10:39:28.000Z</time>
      </trkpt>
      <trkpt lat="50.602630" lon="26.033262">
        <ele>252.500204</ele>
        <time>2019-06-05T10:39:30.000Z</time>
      </trkpt>
      <trkpt lat="50.602660" lon="26.033401">
        <ele>252.496226</ele>
        <time>2019-06-05T10:39:32.000Z</time>
      </trkpt>
      <trkpt lat="50.602695" lon="26.033545">
        <ele>252.492049</ele>
        <time>2019-06-05T10:39:34.000Z</time>
      </trkpt>
      <trkpt lat="50.602734" lon="26.033691">
        <ele>252.487757</ele>
        <time>2019-06-05T10:39:36.000Z</time>
      </trkpt>
      <trkpt lat="50.602760" lon="26.033829">
        <ele>252.483857</ele>
        <time>2019-06-05T10:39:38.000Z</time>
      </trkpt>
      <trkpt lat="50.602790" lon="26.033966">
        <ele>252.479931</ele>
        <time>2019-06-05T10:39:40.000Z</time>
      </trkpt>
      <trkpt lat="50.602825" lon="26.034098">
        <ele>252.476055</ele>
        <time>2019-06-05T10:39:42.000Z</time>
      </trkpt>
      <trkpt lat="50.602860" lon="26.034240">
        <ele>252.471928</ele>
        <time>2019-06-05T10:39:44.000Z</time>
      </trkpt>
      <trkpt lat="50.602890" lon="26.034374">
        <ele>252.468079</ele>
        <time>2019-06-05T10:39:46.000Z</time>
      </trkpt>
      <trkpt lat="50.602917" lon="26.034512">
        <ele>252.464167</ele>
        <time>2019-06-05T10:39:48.000Z</time>
      </trkpt>
      <trkpt lat="50.602974" lon="26.034708">
        <ele>252.458326</ele>
        <time>2019-06-05T10:39:51.000Z</time>
      </trkpt>
      <trkpt lat="50.603024" lon="26.034900">
        <ele>252.452703</ele>
        <time>2019-06-05T10:39:54.000Z</time>
      </trkpt>
      <trkpt lat="50.603043" lon="26.035048">
        <ele>252.448612</ele>
        <time>2019-06-05T10:39:56.000Z</time>
      </trkpt>
      <trkpt lat="50.603092" lon="26.035244">
        <ele>252.442905</ele>
        <time>2019-06-05T10:39:59.000Z</time>
      </trkpt>
      <trkpt lat="50.603120" lon="26.035383">
        <ele>252.438954</ele>
        <time>2019-06-05T10:40:01.000Z</time>
      </trkpt>
      <trkpt lat="50.603146" lon="26.035522">
        <ele>252.376522</ele>
        <time>2019-06-05T10:40:03.000Z</time>
      </trkpt>
      <trkpt lat="50.603176" lon="26.035656">
        <ele>252.225618</ele>
        <time>2019-06-05T10:40:05.000Z</time>
      </trkpt>
      <trkpt lat="50.603218" lon="26.035850">
        <ele>252.007931</ele>
        <time>2019-06-05T10:40:08.000Z</time>
      </trkpt>
      <trkpt lat="50.603264" lon="26.036053">
        <ele>251.779014</ele>
        <time>2019-06-05T10:40:11.000Z</time>
      </trkpt>
      <trkpt lat="50.603294" lon="26.036196">
        <ele>251.619065</ele>
        <time>2019-06-05T10:40:13.000Z</time>
      </trkpt>
      <trkpt lat="50.603336" lon="26.036345">
        <ele>251.445922</ele>
        <time>2019-06-05T10:40:15.000Z</time>
      </trkpt>
      <trkpt lat="50.603370" lon="26.036490">
        <ele>251.281757</ele>
        <time>2019-06-05T10:40:17.000Z</time>
      </trkpt>
      <trkpt lat="50.603405" lon="26.036634">
        <ele>251.117997</ele>
        <time>2019-06-05T10:40:19.000Z</time>
      </trkpt>
      <trkpt lat="50.603436" lon="26.036789">
        <ele>250.945406</ele>
        <time>2019-06-05T10:40:21.000Z</time>
      </trkpt>
      <trkpt lat="50.603470" lon="26.036936">
        <ele>250.779248</ele>
        <time>2019-06-05T10:40:23.000Z</time>
      </trkpt>
      <trkpt lat="50.603523" lon="26.037160">
        <ele>250.525366</ele>
        <time>2019-06-05T10:40:26.000Z</time>
      </trkpt>
      <trkpt lat="50.603565" lon="26.037312">
        <ele>250.349306</ele>
        <time>2019-06-05T10:40:28.000Z</time>
      </trkpt>
      <trkpt lat="50.603596" lon="26.037464">
        <ele>250.179752</ele>
        <time>2019-06-05T10:40:30.000Z</time>
      </trkpt>
      <trkpt lat="50.603620" lon="26.037613">
        <ele>250.016497</ele>
        <time>2019-06-05T10:40:32.000Z</time>
      </trkpt>
      <trkpt lat="50.603653" lon="26.037760">
        <ele>249.850905</ele>
        <time>2019-06-05T10:40:34.000Z</time>
      </trkpt>
      <trkpt lat="50.603683" lon="26.037910">
        <ele>249.683882</ele>
        <time>2019-06-05T10:40:36.000Z</time>
      </trkpt>
      <trkpt lat="50.603718" lon="26.038061">
        <ele>249.513160</ele>
        <time>2019-06-05T10:40:38.000Z</time>
      </trkpt>
      <trkpt lat="50.603750" lon="26.038218">
        <ele>249.379391</ele>
        <time>2019-06-05T10:40:40.000Z</time>
      </trkpt>
      <trkpt lat="50.603786" lon="26.038387">
        <ele>249.278156</ele>
        <time>2019-06-05T10:40:42.000Z</time>
      </trkpt>
      <trkpt lat="50.603830" lon="26.038548">
        <ele>249.178610</ele>
        <time>2019-06-05T10:40:44.000Z</time>
      </trkpt>
      <trkpt lat="50.603863" lon="26.038706">
        <ele>249.084151</ele>
        <time>2019-06-05T10:40:46.000Z</time>
      </trkpt>
      <trkpt lat="50.603893" lon="26.038857">
        <ele>248.994297</ele>
        <time>2019-06-05T10:40:48.000Z</time>
      </trkpt>
      <trkpt lat="50.603930" lon="26.039013">
        <ele>248.899723</ele>
        <time>2019-06-05T10:40:50.000Z</time>
      </trkpt>
      <trkpt lat="50.603966" lon="26.039170">
        <ele>248.804924</ele>
        <time>2019-06-05T10:40:52.000Z</time>
      </trkpt>
      <trkpt lat="50.604008" lon="26.039318">
        <ele>248.712858</ele>
        <time>2019-06-05T10:40:54.000Z</time>
      </trkpt>
      <trkpt lat="50.604046" lon="26.039520">
        <ele>248.593212</ele>
        <time>2019-06-05T10:40:57.000Z</time>
      </trkpt>
      <trkpt lat="50.604088" lon="26.039661">
        <ele>248.504761</ele>
        <time>2019-06-05T10:40:59.000Z</time>
      </trkpt>
      <trkpt lat="50.604130" lon="26.039820">
        <ele>248.406959</ele>
        <time>2019-06-05T10:41:01.000Z</time>
      </trkpt>
      <trkpt lat="50.604164" lon="26.039968">
        <ele>248.317576</ele>
        <time>2019-06-05T10:41:03.000Z</time>
      </trkpt>
      <trkpt lat="50.604200" lon="26.040125">
        <ele>248.222778</ele>
        <time>2019-06-05T10:41:05.000Z</time>
      </trkpt>
      <trkpt lat="50.604240" lon="26.040290">
        <ele>248.122474</ele>
        <time>2019-06-05T10:41:07.000Z</time>
      </trkpt>
      <trkpt lat="50.604280" lon="26.040440">
        <ele>248.030079</ele>
        <time>2019-06-05T10:41:09.000Z</time>
      </trkpt>
      <trkpt lat="50.604310" lon="26.040594">
        <ele>247.938598</ele>
        <time>2019-06-05T10:41:11.000Z</time>
      </trkpt>
      <trkpt lat="50.604340" lon="26.040745">
        <ele>247.848745</ele>
        <time>2019-06-05T10:41:13.000Z</time>
      </trkpt>
      <trkpt lat="50.604374" lon="26.040903">
        <ele>247.760198</ele>
        <time>2019-06-05T10:41:15.000Z</time>
      </trkpt>
      <trkpt lat="50.604404" lon="26.041061">
        <ele>247.675673</ele>
        <time>2019-06-05T10:41:17.000Z</time>
      </trkpt>
      <trkpt lat="50.604443" lon="26.041214">
        <ele>247.591169</ele>
        <time>2019-06-05T10:41:19.000Z</time>
      </trkpt>
      <trkpt lat="50.604485" lon="26.041368">
        <ele>247.505262</ele>
        <time>2019-06-05T10:41:21.000Z</time>
      </trkpt>
      <trkpt lat="50.604523" lon="26.041520">
        <ele>247.421533</ele>
        <time>2019-06-05T10:41:23.000Z</time>
      </trkpt>
      <trkpt lat="50.604560" lon="26.041672">
        <ele>247.338097</ele>
        <time>2019-06-05T10:41:25.000Z</time>
      </trkpt>
      <trkpt lat="50.604590" lon="26.041826">
        <ele>247.255534</ele>
        <time>2019-06-05T10:41:27.000Z</time>
      </trkpt>
      <trkpt lat="50.604620" lon="26.041975">
        <ele>247.175418</ele>
        <time>2019-06-05T10:41:29.000Z</time>
      </trkpt>
      <trkpt lat="50.604656" lon="26.042130">
        <ele>247.090826</ele>
        <time>2019-06-05T10:41:31.000Z</time>
      </trkpt>
      <trkpt lat="50.604687" lon="26.042290">
        <ele>247.005087</ele>
        <time>2019-06-05T10:41:33.000Z</time>
      </trkpt>
      <trkpt lat="50.604725" lon="26.042442">
        <ele>246.921358</ele>
        <time>2019-06-05T10:41:35.000Z</time>
      </trkpt>
      <trkpt lat="50.604763" lon="26.042591">
        <ele>246.839058</ele>
        <time>2019-06-05T10:41:37.000Z</time>
      </trkpt>
      <trkpt lat="50.604816" lon="26.042812">
        <ele>246.717975</ele>
        <time>2019-06-05T10:41:40.000Z</time>
      </trkpt>
      <trkpt lat="50.604847" lon="26.042969">
        <ele>246.633705</ele>
        <time>2019-06-05T10:41:42.000Z</time>
      </trkpt>
      <trkpt lat="50.604880" lon="26.043106">
        <ele>246.558604</ele>
        <time>2019-06-05T10:41:44.000Z</time>
      </trkpt>
      <trkpt lat="50.604908" lon="26.043253">
        <ele>246.479944</ele>
        <time>2019-06-05T10:41:46.000Z</time>
      </trkpt>
      <trkpt lat="50.604940" lon="26.043398">
        <ele>246.401264</ele>
        <time>2019-06-05T10:41:48.000Z</time>
      </trkpt>
      <trkpt lat="50.604970" lon="26.043537">
        <ele>246.338240</ele>
        <time>2019-06-05T10:41:50.000Z</time>
      </trkpt>
      <trkpt lat="50.605007" lon="26.043684">
        <ele>246.282549</ele>
        <time>2019-06-05T10:41:52.000Z</time>
      </trkpt>
      <trkpt lat="50.605040" lon="26.043835">
        <ele>246.226307</ele>
        <time>2019-06-05T10:41:54.000Z</time>
      </trkpt>
      <trkpt lat="50.605083" lon="26.043985">
        <ele>246.168343</ele>
        <time>2019-06-05T10:41:56.000Z</time>
      </trkpt>
      <trkpt lat="50.605120" lon="26.044136">
        <ele>246.111340</ele>
        <time>2019-06-05T10:41:58.000Z</time>
      </trkpt>
      <trkpt lat="50.605156" lon="26.044290">
        <ele>246.053545</ele>
        <time>2019-06-05T10:42:00.000Z</time>
      </trkpt>
      <trkpt lat="50.605190" lon="26.044440">
        <ele>245.997452</ele>
        <time>2019-06-05T10:42:02.000Z</time>
      </trkpt>
      <trkpt lat="50.605220" lon="26.044594">
        <ele>245.940721</ele>
        <time>2019-06-05T10:42:04.000Z</time>
      </trkpt>
      <trkpt lat="50.605247" lon="26.044743">
        <ele>245.886152</ele>
        <time>2019-06-05T10:42:06.000Z</time>
      </trkpt>
      <trkpt lat="50.605274" lon="26.044890">
        <ele>245.832259</ele>
        <time>2019-06-05T10:42:08.000Z</time>
      </trkpt>
      <trkpt lat="50.605300" lon="26.045036">
        <ele>245.778857</ele>
        <time>2019-06-05T10:42:10.000Z</time>
      </trkpt>
      <trkpt lat="50.605335" lon="26.045187">
        <ele>245.722245</ele>
        <time>2019-06-05T10:42:12.000Z</time>
      </trkpt>
      <trkpt lat="50.605362" lon="26.045336">
        <ele>245.667676</ele>
        <time>2019-06-05T10:42:14.000Z</time>
      </trkpt>
      <trkpt lat="50.605392" lon="26.045490">
        <ele>245.610945</ele>
        <time>2019-06-05T10:42:16.000Z</time>
      </trkpt>
      <trkpt lat="50.605420" lon="26.045650">
        <ele>245.552496</ele>
        <time>2019-06-05T10:42:18.000Z</time>
      </trkpt>
      <trkpt lat="50.605453" lon="26.045805">
        <ele>245.494921</ele>
        <time>2019-06-05T10:42:20.000Z</time>
      </trkpt>
      <trkpt lat="50.605488" lon="26.045956">
        <ele>245.438309</ele>
        <time>2019-06-05T10:42:22.000Z</time>
      </trkpt>
      <trkpt lat="50.605526" lon="26.046112">
        <ele>245.379464</ele>
        <time>2019-06-05T10:42:24.000Z</time>
      </trkpt>
      <trkpt lat="50.605556" lon="26.046265">
        <ele>245.433494</ele>
        <time>2019-06-05T10:42:26.000Z</time>
      </trkpt>
      <trkpt lat="50.605590" lon="26.046412">
        <ele>245.516779</ele>
        <time>2019-06-05T10:42:28.000Z</time>
      </trkpt>
      <trkpt lat="50.605625" lon="26.046555">
        <ele>245.598365</ele>
        <time>2019-06-05T10:42:30.000Z</time>
      </trkpt>
      <trkpt lat="50.605660" lon="26.046710">
        <ele>245.685941</ele>
        <time>2019-06-05T10:42:32.000Z</time>
      </trkpt>
      <trkpt lat="50.605698" lon="26.046864">
        <ele>245.773896</ele>
        <time>2019-06-05T10:42:34.000Z</time>
      </trkpt>
      <trkpt lat="50.605730" lon="26.047010">
        <ele>245.856118</ele>
        <time>2019-06-05T10:42:36.000Z</time>
      </trkpt>
      <trkpt lat="50.605766" lon="26.047155">
        <ele>245.939000</ele>
        <time>2019-06-05T10:42:38.000Z</time>
      </trkpt>
      <trkpt lat="50.605793" lon="26.047297">
        <ele>246.017908</ele>
        <time>2019-06-05T10:42:40.000Z</time>
      </trkpt>
      <trkpt lat="50.605824" lon="26.047438">
        <ele>246.097341</ele>
        <time>2019-06-05T10:42:42.000Z</time>
      </trkpt>
      <trkpt lat="50.605854" lon="26.047586">
        <ele>246.180044</ele>
        <time>2019-06-05T10:42:44.000Z</time>
      </trkpt>
      <trkpt lat="50.605885" lon="26.047730">
        <ele>246.260987</ele>
        <time>2019-06-05T10:42:46.000Z</time>
      </trkpt>
      <trkpt lat="50.605923" lon="26.047873">
        <ele>246.343511</ele>
        <time>2019-06-05T10:42:48.000Z</time>
      </trkpt>
      <trkpt lat="50.605965" lon="26.048006">
        <ele>246.422589</ele>
        <time>2019-06-05T10:42:50.000Z</time>
      </trkpt>
      <trkpt lat="50.606000" lon="26.048151">
        <ele>246.505169</ele>
        <time>2019-06-05T10:42:52.000Z</time>
      </trkpt>
      <trkpt lat="50.606030" lon="26.048296">
        <ele>246.586352</ele>
        <time>2019-06-05T10:42:54.000Z</time>
      </trkpt>
      <trkpt lat="50.606068" lon="26.048437">
        <ele>246.667895</ele>
        <time>2019-06-05T10:42:56.000Z</time>
      </trkpt>
      <trkpt lat="50.606100" lon="26.048578">
        <ele>246.747606</ele>
        <time>2019-06-05T10:42:58.000Z</time>
      </trkpt>
      <trkpt lat="50.606136" lon="26.048725">
        <ele>246.831479</ele>
        <time>2019-06-05T10:43:00.000Z</time>
      </trkpt>
      <trkpt lat="50.606174" lon="26.048874">
        <ele>246.826629</ele>
        <time>2019-06-05T10:43:02.000Z</time>
      </trkpt>
      <trkpt lat="50.606205" lon="26.049011">
        <ele>246.734750</ele>
        <time>2019-06-05T10:43:04.000Z</time>
      </trkpt>
      <trkpt lat="50.606243" lon="26.049160">
        <ele>246.633312</ele>
        <time>2019-06-05T10:43:06.000Z</time>
      </trkpt>
      <trkpt lat="50.606270" lon="26.049300">
        <ele>246.540881</ele>
        <time>2019-06-05T10:43:08.000Z</time>
      </trkpt>
      <trkpt lat="50.606308" lon="26.049440">
        <ele>246.444694</ele>
        <time>2019-06-05T10:43:10.000Z</time>
      </trkpt>
      <trkpt lat="50.606340" lon="26.049578">
        <ele>246.351883</ele>
        <time>2019-06-05T10:43:12.000Z</time>
      </trkpt>
      <trkpt lat="50.606370" lon="26.049720">
        <ele>246.257343</ele>
        <time>2019-06-05T10:43:14.000Z</time>
      </trkpt>
      <trkpt lat="50.606400" lon="26.049868">
        <ele>246.159199</ele>
        <time>2019-06-05T10:43:16.000Z</time>
      </trkpt>
      <trkpt lat="50.606434" lon="26.050007">
        <ele>246.065097</ele>
        <time>2019-06-05T10:43:18.000Z</time>
      </trkpt>
      <trkpt lat="50.606464" lon="26.050148">
        <ele>245.971156</ele>
        <time>2019-06-05T10:43:20.000Z</time>
      </trkpt>
      <trkpt lat="50.606495" lon="26.050285">
        <ele>245.879277</ele>
        <time>2019-06-05T10:43:22.000Z</time>
      </trkpt>
      <trkpt lat="50.606530" lon="26.050423">
        <ele>245.785400</ele>
        <time>2019-06-05T10:43:24.000Z</time>
      </trkpt>
      <trkpt lat="50.606552" lon="26.050580">
        <ele>245.683835</ele>
        <time>2019-06-05T10:43:26.000Z</time>
      </trkpt>
      <trkpt lat="50.606590" lon="26.050726">
        <ele>245.584153</ele>
        <time>2019-06-05T10:43:28.000Z</time>
      </trkpt>
      <trkpt lat="50.606625" lon="26.050869">
        <ele>245.487336</ele>
        <time>2019-06-05T10:43:30.000Z</time>
      </trkpt>
      <trkpt lat="50.606663" lon="26.051020">
        <ele>245.384725</ele>
        <time>2019-06-05T10:43:32.000Z</time>
      </trkpt>
      <trkpt lat="50.606705" lon="26.051167">
        <ele>245.282889</ele>
        <time>2019-06-05T10:43:34.000Z</time>
      </trkpt>
      <trkpt lat="50.606740" lon="26.051310">
        <ele>245.186072</ele>
        <time>2019-06-05T10:43:36.000Z</time>
      </trkpt>
      <trkpt lat="50.606773" lon="26.051450">
        <ele>245.091733</ele>
        <time>2019-06-05T10:43:38.000Z</time>
      </trkpt>
      <trkpt lat="50.606804" lon="26.051601">
        <ele>244.923362</ele>
        <time>2019-06-05T10:43:40.000Z</time>
      </trkpt>
      <trkpt lat="50.606834" lon="26.051748">
        <ele>244.755045</ele>
        <time>2019-06-05T10:43:42.000Z</time>
      </trkpt>
      <trkpt lat="50.606870" lon="26.051907">
        <ele>244.571029</ele>
        <time>2019-06-05T10:43:44.000Z</time>
      </trkpt>
      <trkpt lat="50.606910" lon="26.052063">
        <ele>244.387628</ele>
        <time>2019-06-05T10:43:46.000Z</time>
      </trkpt>
      <trkpt lat="50.606940" lon="26.052221">
        <ele>244.207859</ele>
        <time>2019-06-05T10:43:48.000Z</time>
      </trkpt>
      <trkpt lat="50.606976" lon="26.052378">
        <ele>244.025895</ele>
        <time>2019-06-05T10:43:50.000Z</time>
      </trkpt>
      <trkpt lat="50.607020" lon="26.052540">
        <ele>243.833817</ele>
        <time>2019-06-05T10:43:52.000Z</time>
      </trkpt>
      <trkpt lat="50.607063" lon="26.052704">
        <ele>243.640396</ele>
        <time>2019-06-05T10:43:54.000Z</time>
      </trkpt>
      <trkpt lat="50.607105" lon="26.052868">
        <ele>243.447623</ele>
        <time>2019-06-05T10:43:56.000Z</time>
      </trkpt>
      <trkpt lat="50.607147" lon="26.053030">
        <ele>243.256871</ele>
        <time>2019-06-05T10:43:58.000Z</time>
      </trkpt>
      <trkpt lat="50.607190" lon="26.053185">
        <ele>243.072479</ele>
        <time>2019-06-05T10:44:00.000Z</time>
      </trkpt>
      <trkpt lat="50.607235" lon="26.053343">
        <ele>242.883706</ele>
        <time>2019-06-05T10:44:02.000Z</time>
      </trkpt>
      <trkpt lat="50.607280" lon="26.053493">
        <ele>242.702853</ele>
        <time>2019-06-05T10:44:04.000Z</time>
      </trkpt>
      <trkpt lat="50.607320" lon="26.053640">
        <ele>242.528511</ele>
        <time>2019-06-05T10:44:06.000Z</time>
      </trkpt>
      <trkpt lat="50.607365" lon="26.053778">
        <ele>242.359392</ele>
        <time>2019-06-05T10:44:08.000Z</time>
      </trkpt>
      <trkpt lat="50.607410" lon="26.053919">
        <ele>242.187358</ele>
        <time>2019-06-05T10:44:10.000Z</time>
      </trkpt>
      <trkpt lat="50.607452" lon="26.054043">
        <ele>242.034148</ele>
        <time>2019-06-05T10:44:12.000Z</time>
      </trkpt>
      <trkpt lat="50.607490" lon="26.054180">
        <ele>241.969055</ele>
        <time>2019-06-05T10:44:14.000Z</time>
      </trkpt>
      <trkpt lat="50.607544" lon="26.054363">
        <ele>241.921498</ele>
        <time>2019-06-05T10:44:17.000Z</time>
      </trkpt>
      <trkpt lat="50.607610" lon="26.054556">
        <ele>241.869837</ele>
        <time>2019-06-05T10:44:20.000Z</time>
      </trkpt>
      <trkpt lat="50.607647" lon="26.054697">
        <ele>241.833883</ele>
        <time>2019-06-05T10:44:22.000Z</time>
      </trkpt>
      <trkpt lat="50.607685" lon="26.054834">
        <ele>241.798652</ele>
        <time>2019-06-05T10:44:24.000Z</time>
      </trkpt>
      <trkpt lat="50.607727" lon="26.054972">
        <ele>241.762587</ele>
        <time>2019-06-05T10:44:26.000Z</time>
      </trkpt>
      <trkpt lat="50.607758" lon="26.055109">
        <ele>241.728313</ele>
        <time>2019-06-05T10:44:28.000Z</time>
      </trkpt>
      <trkpt lat="50.607810" lon="26.055304">
        <ele>241.678472</ele>
        <time>2019-06-05T10:44:31.000Z</time>
      </trkpt>
      <trkpt lat="50.607870" lon="26.055490">
        <ele>241.629305</ele>
        <time>2019-06-05T10:44:34.000Z</time>
      </trkpt>
      <trkpt lat="50.607920" lon="26.055676">
        <ele>241.581706</ele>
        <time>2019-06-05T10:44:37.000Z</time>
      </trkpt>
      <trkpt lat="50.607975" lon="26.055870">
        <ele>241.531638</ele>
        <time>2019-06-05T10:44:40.000Z</time>
      </trkpt>
      <trkpt lat="50.608032" lon="26.056059">
        <ele>241.482329</ele>
        <time>2019-06-05T10:44:43.000Z</time>
      </trkpt>
      <trkpt lat="50.608074" lon="26.056194">
        <ele>241.446900</ele>
        <time>2019-06-05T10:44:45.000Z</time>
      </trkpt>
      <trkpt lat="50.608116" lon="26.056334">
        <ele>241.410411</ele>
        <time>2019-06-05T10:44:47.000Z</time>
      </trkpt>
      <trkpt lat="50.608154" lon="26.056465">
        <ele>241.376470</ele>
        <time>2019-06-05T10:44:49.000Z</time>
      </trkpt>
      <trkpt lat="50.608190" lon="26.056604">
        <ele>241.341093</ele>
        <time>2019-06-05T10:44:51.000Z</time>
      </trkpt>
      <trkpt lat="50.608230" lon="26.056755">
        <ele>241.243305</ele>
        <time>2019-06-05T10:44:53.000Z</time>
      </trkpt>
      <trkpt lat="50.608288" lon="26.056946">
        <ele>241.078257</ele>
        <time>2019-06-05T10:44:56.000Z</time>
      </trkpt>
      <trkpt lat="50.608330" lon="26.057095">
        <ele>240.951172</ele>
        <time>2019-06-05T10:44:58.000Z</time>
      </trkpt>
      <trkpt lat="50.608370" lon="26.057236">
        <ele>240.830784</ele>
        <time>2019-06-05T10:45:00.000Z</time>
      </trkpt>
      <trkpt lat="50.608414" lon="26.057373">
        <ele>240.711098</ele>
        <time>2019-06-05T10:45:02.000Z</time>
      </trkpt>
      <trkpt lat="50.608456" lon="26.057520">
        <ele>240.585437</ele>
        <time>2019-06-05T10:45:04.000Z</time>
      </trkpt>
      <trkpt lat="50.608498" lon="26.057663">
        <ele>240.462612</ele>
        <time>2019-06-05T10:45:06.000Z</time>
      </trkpt>
      <trkpt lat="50.608536" lon="26.057804">
        <ele>240.343205</ele>
        <time>2019-06-05T10:45:08.000Z</time>
      </trkpt>
      <trkpt lat="50.608574" lon="26.057941">
        <ele>240.226662</ele>
        <time>2019-06-05T10:45:10.000Z</time>
      </trkpt>
      <trkpt lat="50.608616" lon="26.058075">
        <ele>240.110167</ele>
        <time>2019-06-05T10:45:12.000Z</time>
      </trkpt>
      <trkpt lat="50.608658" lon="26.058222">
        <ele>239.984506</ele>
        <time>2019-06-05T10:45:14.000Z</time>
      </trkpt>
      <trkpt lat="50.608696" lon="26.058367">
        <ele>239.862224</ele>
        <time>2019-06-05T10:45:16.000Z</time>
      </trkpt>
      <trkpt lat="50.608738" lon="26.058506">
        <ele>239.742222</ele>
        <time>2019-06-05T10:45:18.000Z</time>
      </trkpt>
      <trkpt lat="50.608780" lon="26.058645">
        <ele>239.622220</ele>
        <time>2019-06-05T10:45:20.000Z</time>
      </trkpt>
      <trkpt lat="50.608818" lon="26.058790">
        <ele>239.499938</ele>
        <time>2019-06-05T10:45:22.000Z</time>
      </trkpt>
      <trkpt lat="50.608868" lon="26.058943">
        <ele>239.365795</ele>
        <time>2019-06-05T10:45:24.000Z</time>
      </trkpt>
      <trkpt lat="50.608917" lon="26.059088">
        <ele>239.237745</ele>
        <time>2019-06-05T10:45:26.000Z</time>
      </trkpt>
      <trkpt lat="50.608960" lon="26.059233">
        <ele>239.109654</ele>
        <time>2019-06-05T10:45:28.000Z</time>
      </trkpt>
      <trkpt lat="50.608997" lon="26.059395">
        <ele>238.900681</ele>
        <time>2019-06-05T10:45:30.000Z</time>
      </trkpt>
      <trkpt lat="50.609040" lon="26.059546">
        <ele>238.699799</ele>
        <time>2019-06-05T10:45:32.000Z</time>
      </trkpt>
      <trkpt lat="50.609085" lon="26.059694">
        <ele>238.500611</ele>
        <time>2019-06-05T10:45:34.000Z</time>
      </trkpt>
      <trkpt lat="50.609130" lon="26.059837">
        <ele>238.306878</ele>
        <time>2019-06-05T10:45:36.000Z</time>
      </trkpt>
      <trkpt lat="50.609173" lon="26.059982">
        <ele>238.112618</ele>
        <time>2019-06-05T10:45:38.000Z</time>
      </trkpt>
      <trkpt lat="50.609222" lon="26.060133">
        <ele>237.906772</ele>
        <time>2019-06-05T10:45:40.000Z</time>
      </trkpt>
      <trkpt lat="50.609264" lon="26.060280">
        <ele>237.711104</ele>
        <time>2019-06-05T10:45:42.000Z</time>
      </trkpt>
      <trkpt lat="50.609306" lon="26.060438">
        <ele>237.503189</ele>
        <time>2019-06-05T10:45:44.000Z</time>
      </trkpt>
      <trkpt lat="50.609350" lon="26.060598">
        <ele>237.291541</ele>
        <time>2019-06-05T10:45:46.000Z</time>
      </trkpt>
      <trkpt lat="50.609394" lon="26.060760">
        <ele>237.077664</ele>
        <time>2019-06-05T10:45:48.000Z</time>
      </trkpt>
      <trkpt lat="50.609436" lon="26.060917">
        <ele>236.870868</ele>
        <time>2019-06-05T10:45:50.000Z</time>
      </trkpt>
      <trkpt lat="50.609478" lon="26.061068">
        <ele>236.670763</ele>
        <time>2019-06-05T10:45:52.000Z</time>
      </trkpt>
      <trkpt lat="50.609512" lon="26.061218">
        <ele>236.477439</ele>
        <time>2019-06-05T10:45:54.000Z</time>
      </trkpt>
      <trkpt lat="50.609550" lon="26.061375">
        <ele>236.273493</ele>
        <time>2019-06-05T10:45:56.000Z</time>
      </trkpt>
      <trkpt lat="50.609580" lon="26.061535">
        <ele>236.070997</ele>
        <time>2019-06-05T10:45:58.000Z</time>
      </trkpt>
      <trkpt lat="50.609610" lon="26.061699">
        <ele>235.863841</ele>
        <time>2019-06-05T10:46:00.000Z</time>
      </trkpt>
      <trkpt lat="50.609653" lon="26.061860">
        <ele>235.658726</ele>
        <time>2019-06-05T10:46:02.000Z</time>
      </trkpt>
      <trkpt lat="50.609700" lon="26.062020">
        <ele>235.499226</ele>
        <time>2019-06-05T10:46:04.000Z</time>
      </trkpt>
      <trkpt lat="50.609737" lon="26.062174">
        <ele>235.350258</ele>
        <time>2019-06-05T10:46:06.000Z</time>
      </trkpt>
      <trkpt lat="50.609770" lon="26.062328">
        <ele>235.203212</ele>
        <time>2019-06-05T10:46:08.000Z</time>
      </trkpt>
      <trkpt lat="50.609802" lon="26.062483">
        <ele>235.055757</ele>
        <time>2019-06-05T10:46:10.000Z</time>
      </trkpt>
      <trkpt lat="50.609840" lon="26.062643">
        <ele>234.901207</ele>
        <time>2019-06-05T10:46:12.000Z</time>
      </trkpt>
      <trkpt lat="50.609882" lon="26.062794">
        <ele>234.752058</ele>
        <time>2019-06-05T10:46:14.000Z</time>
      </trkpt>
      <trkpt lat="50.609930" lon="26.062944">
        <ele>234.600084</ele>
        <time>2019-06-05T10:46:16.000Z</time>
      </trkpt>
      <trkpt lat="50.609970" lon="26.063164">
        <ele>234.393052</ele>
        <time>2019-06-05T10:46:19.000Z</time>
      </trkpt>
      <trkpt lat="50.610000" lon="26.063303">
        <ele>234.260232</ele>
        <time>2019-06-05T10:46:21.000Z</time>
      </trkpt>
      <trkpt lat="50.610030" lon="26.063442">
        <ele>234.127411</ele>
        <time>2019-06-05T10:46:23.000Z</time>
      </trkpt>
      <trkpt lat="50.610073" lon="26.063640">
        <ele>233.938092</ele>
        <time>2019-06-05T10:46:26.000Z</time>
      </trkpt>
      <trkpt lat="50.610100" lon="26.063787">
        <ele>233.799650</ele>
        <time>2019-06-05T10:46:28.000Z</time>
      </trkpt>
      <trkpt lat="50.610130" lon="26.063923">
        <ele>233.669396</ele>
        <time>2019-06-05T10:46:30.000Z</time>
      </trkpt>
      <trkpt lat="50.610157" lon="26.064064">
        <ele>233.536160</ele>
        <time>2019-06-05T10:46:32.000Z</time>
      </trkpt>
      <trkpt lat="50.610188" lon="26.064203">
        <ele>233.402874</ele>
        <time>2019-06-05T10:46:34.000Z</time>
      </trkpt>
      <trkpt lat="50.610220" lon="26.064346">
        <ele>233.265701</ele>
        <time>2019-06-05T10:46:36.000Z</time>
      </trkpt>
      <trkpt lat="50.610252" lon="26.064482">
        <ele>233.134484</ele>
        <time>2019-06-05T10:46:38.000Z</time>
      </trkpt>
      <trkpt lat="50.610280" lon="26.064620">
        <ele>233.151705</ele>
        <time>2019-06-05T10:46:40.000Z</time>
      </trkpt>
      <trkpt lat="50.610313" lon="26.064758">
        <ele>233.195841</ele>
        <time>2019-06-05T10:46:42.000Z</time>
      </trkpt>
      <trkpt lat="50.610348" lon="26.064894">
        <ele>233.239763</ele>
        <time>2019-06-05T10:46:44.000Z</time>
      </trkpt>
      <trkpt lat="50.610382" lon="26.065096">
        <ele>233.302308</ele>
        <time>2019-06-05T10:46:47.000Z</time>
      </trkpt>
      <trkpt lat="50.610424" lon="26.065292">
        <ele>233.364220</ele>
        <time>2019-06-05T10:46:50.000Z</time>
      </trkpt>
      <trkpt lat="50.610460" lon="26.065426">
        <ele>233.407770</ele>
        <time>2019-06-05T10:46:52.000Z</time>
      </trkpt>
      <trkpt lat="50.610497" lon="26.065565">
        <ele>233.452881</ele>
        <time>2019-06-05T10:46:54.000Z</time>
      </trkpt>
      <trkpt lat="50.610527" lon="26.065708">
        <ele>233.497956</ele>
        <time>2019-06-05T10:46:56.000Z</time>
      </trkpt>
      <trkpt lat="50.610565" lon="26.065844">
        <ele>233.542429</ele>
        <time>2019-06-05T10:46:58.000Z</time>
      </trkpt>
      <trkpt lat="50.610615" lon="26.066042">
        <ele>233.606205</ele>
        <time>2019-06-05T10:47:01.000Z</time>
      </trkpt>
      <trkpt lat="50.610653" lon="26.066244">
        <ele>233.669260</ele>
        <time>2019-06-05T10:47:04.000Z</time>
      </trkpt>
      <trkpt lat="50.610683" lon="26.066380">
        <ele>233.712350</ele>
        <time>2019-06-05T10:47:06.000Z</time>
      </trkpt>
      <trkpt lat="50.610730" lon="26.066584">
        <ele>233.777302</ele>
        <time>2019-06-05T10:47:09.000Z</time>
      </trkpt>
      <trkpt lat="50.610760" lon="26.066720">
        <ele>233.820393</ele>
        <time>2019-06-05T10:47:11.000Z</time>
      </trkpt>
      <trkpt lat="50.610790" lon="26.066856">
        <ele>233.863484</ele>
        <time>2019-06-05T10:47:13.000Z</time>
      </trkpt>
      <trkpt lat="50.610817" lon="26.066994">
        <ele>233.906702</ele>
        <time>2019-06-05T10:47:15.000Z</time>
      </trkpt>
      <trkpt lat="50.610847" lon="26.067130">
        <ele>233.949793</ele>
        <time>2019-06-05T10:47:17.000Z</time>
      </trkpt>
      <trkpt lat="50.610897" lon="26.067327">
        <ele>234.064079</ele>
        <time>2019-06-05T10:47:20.000Z</time>
      </trkpt>
      <trkpt lat="50.610928" lon="26.067461">
        <ele>234.149958</ele>
        <time>2019-06-05T10:47:22.000Z</time>
      </trkpt>
      <trkpt lat="50.610960" lon="26.067598">
        <ele>234.237859</ele>
        <time>2019-06-05T10:47:24.000Z</time>
      </trkpt>
      <trkpt lat="50.610985" lon="26.067738">
        <ele>234.325430</ele>
        <time>2019-06-05T10:47:26.000Z</time>
      </trkpt>
      <trkpt lat="50.611015" lon="26.067871">
        <ele>234.410421</ele>
        <time>2019-06-05T10:47:28.000Z</time>
      </trkpt>
      <trkpt lat="50.611046" lon="26.068007">
        <ele>234.497433</ele>
        <time>2019-06-05T10:47:30.000Z</time>
      </trkpt>
      <trkpt lat="50.611080" lon="26.068144">
        <ele>234.586007</ele>
        <time>2019-06-05T10:47:32.000Z</time>
      </trkpt>
      <trkpt lat="50.611137" lon="26.068327">
        <ele>234.708753</ele>
        <time>2019-06-05T10:47:35.000Z</time>
      </trkpt>
      <trkpt lat="50.611170" lon="26.068506">
        <ele>234.820989</ele>
        <time>2019-06-05T10:47:38.000Z</time>
      </trkpt>
      <trkpt lat="50.611202" lon="26.068695">
        <ele>234.938771</ele>
        <time>2019-06-05T10:47:41.000Z</time>
      </trkpt>
      <trkpt lat="50.611244" lon="26.068872">
        <ele>235.052554</ele>
        <time>2019-06-05T10:47:44.000Z</time>
      </trkpt>
      <trkpt lat="50.611282" lon="26.069035">
        <ele>235.157113</ele>
        <time>2019-06-05T10:47:47.000Z</time>
      </trkpt>
      <trkpt lat="50.611313" lon="26.069191">
        <ele>235.255541</ele>
        <time>2019-06-05T10:47:50.000Z</time>
      </trkpt>
      <trkpt lat="50.611347" lon="26.069342">
        <ele>235.352015</ele>
        <time>2019-06-05T10:47:53.000Z</time>
      </trkpt>
      <trkpt lat="50.611385" lon="26.069500">
        <ele>235.453753</ele>
        <time>2019-06-05T10:47:56.000Z</time>
      </trkpt>
      <trkpt lat="50.611427" lon="26.069650">
        <ele>235.552472</ele>
        <time>2019-06-05T10:47:59.000Z</time>
      </trkpt>
      <trkpt lat="50.611465" lon="26.069813">
        <ele>235.657031</ele>
        <time>2019-06-05T10:48:02.000Z</time>
      </trkpt>
      <trkpt lat="50.611500" lon="26.069971">
        <ele>235.603450</ele>
        <time>2019-06-05T10:48:05.000Z</time>
      </trkpt>
      <trkpt lat="50.611538" lon="26.070127">
        <ele>235.527698</ele>
        <time>2019-06-05T10:48:08.000Z</time>
      </trkpt>
      <trkpt lat="50.611572" lon="26.070292">
        <ele>235.449053</ele>
        <time>2019-06-05T10:48:11.000Z</time>
      </trkpt>
      <trkpt lat="50.611607" lon="26.070446">
        <ele>235.374896</ele>
        <time>2019-06-05T10:48:14.000Z</time>
      </trkpt>
      <trkpt lat="50.611637" lon="26.070620">
        <ele>235.293156</ele>
        <time>2019-06-05T10:48:17.000Z</time>
      </trkpt>
      <trkpt lat="50.611668" lon="26.070763">
        <ele>235.224651</ele>
        <time>2019-06-05T10:48:20.000Z</time>
      </trkpt>
      <trkpt lat="50.611702" lon="26.070923">
        <ele>235.148158</ele>
        <time>2019-06-05T10:48:24.000Z</time>
      </trkpt>
      <trkpt lat="50.611720" lon="26.071068">
        <ele>235.081178</ele>
        <time>2019-06-05T10:48:28.000Z</time>
      </trkpt>
      <trkpt lat="50.611750" lon="26.071228">
        <ele>235.005545</ele>
        <time>2019-06-05T10:55:02.000Z</time>
      </trkpt>
      <trkpt lat="50.611828" lon="26.071318">
        <ele>234.936482</ele>
        <time>2019-06-05T11:14:20.000Z</time>
      </trkpt>
      <trkpt lat="50.611862" lon="26.071474">
        <ele>234.861707</ele>
        <time>2019-06-05T11:14:30.000Z</time>
      </trkpt>
      <trkpt lat="50.611893" lon="26.071642">
        <ele>234.782392</ele>
        <time>2019-06-05T11:14:34.000Z</time>
      </trkpt>
      <trkpt lat="50.611923" lon="26.071793">
        <ele>234.710662</ele>
        <time>2019-06-05T11:14:38.000Z</time>
      </trkpt>
      <trkpt lat="50.611960" lon="26.071922">
        <ele>234.646486</ele>
        <time>2019-06-05T11:14:41.000Z</time>
      </trkpt>
      <trkpt lat="50.611996" lon="26.072067">
        <ele>234.575900</ele>
        <time>2019-06-05T11:14:44.000Z</time>
      </trkpt>
      <trkpt lat="50.612034" lon="26.072227">
        <ele>234.498454</ele>
        <time>2019-06-05T11:14:47.000Z</time>
      </trkpt>
      <trkpt lat="50.612076" lon="26.072410">
        <ele>234.410234</ele>
        <time>2019-06-05T11:14:50.000Z</time>
      </trkpt>
      <trkpt lat="50.612120" lon="26.072594">
        <ele>234.201325</ele>
        <time>2019-06-05T11:14:53.000Z</time>
      </trkpt>
      <trkpt lat="50.612137" lon="26.072735">
        <ele>234.013941</ele>
        <time>2019-06-05T11:14:55.000Z</time>
      </trkpt>
      <trkpt lat="50.612186" lon="26.072927">
        <ele>233.743751</ele>
        <time>2019-06-05T11:14:58.000Z</time>
      </trkpt>
      <trkpt lat="50.612225" lon="26.073122">
        <ele>233.476813</ele>
        <time>2019-06-05T11:15:01.000Z</time>
      </trkpt>
      <trkpt lat="50.612263" lon="26.073310">
        <ele>233.219209</ele>
        <time>2019-06-05T11:15:04.000Z</time>
      </trkpt>
      <trkpt lat="50.612310" lon="26.073503">
        <ele>232.949310</ele>
        <time>2019-06-05T11:15:07.000Z</time>
      </trkpt>
      <trkpt lat="50.612354" lon="26.073687">
        <ele>232.692588</ele>
        <time>2019-06-05T11:15:10.000Z</time>
      </trkpt>
      <trkpt lat="50.612408" lon="26.073870">
        <ele>232.429094</ele>
        <time>2019-06-05T11:15:13.000Z</time>
      </trkpt>
      <trkpt lat="50.612442" lon="26.074064">
        <ele>232.166326</ele>
        <time>2019-06-05T11:15:16.000Z</time>
      </trkpt>
      <trkpt lat="50.612484" lon="26.074253">
        <ele>231.904875</ele>
        <time>2019-06-05T11:15:19.000Z</time>
      </trkpt>
      <trkpt lat="50.612526" lon="26.074436">
        <ele>231.650804</ele>
        <time>2019-06-05T11:15:22.000Z</time>
      </trkpt>
      <trkpt lat="50.612576" lon="26.074621">
        <ele>231.388274</ele>
        <time>2019-06-05T11:15:25.000Z</time>
      </trkpt>
      <trkpt lat="50.612617" lon="26.074806">
        <ele>231.132432</ele>
        <time>2019-06-05T11:15:28.000Z</time>
      </trkpt>
      <trkpt lat="50.612663" lon="26.074993">
        <ele>230.870584</ele>
        <time>2019-06-05T11:15:31.000Z</time>
      </trkpt>
      <trkpt lat="50.612710" lon="26.075184">
        <ele>230.639608</ele>
        <time>2019-06-05T11:15:34.000Z</time>
      </trkpt>
      <trkpt lat="50.612743" lon="26.075327">
        <ele>230.530410</ele>
        <time>2019-06-05T11:15:36.000Z</time>
      </trkpt>
      <trkpt lat="50.612778" lon="26.075478">
        <ele>230.415043</ele>
        <time>2019-06-05T11:15:38.000Z</time>
      </trkpt>
      <trkpt lat="50.612812" lon="26.075630">
        <ele>230.299383</ele>
        <time>2019-06-05T11:15:40.000Z</time>
      </trkpt>
      <trkpt lat="50.612846" lon="26.075777">
        <ele>230.187101</ele>
        <time>2019-06-05T11:15:42.000Z</time>
      </trkpt>
      <trkpt lat="50.612880" lon="26.075928">
        <ele>230.072118</ele>
        <time>2019-06-05T11:15:44.000Z</time>
      </trkpt>
      <trkpt lat="50.612910" lon="26.076075">
        <ele>229.961304</ele>
        <time>2019-06-05T11:15:46.000Z</time>
      </trkpt>
      <trkpt lat="50.612940" lon="26.076225">
        <ele>229.848438</ele>
        <time>2019-06-05T11:15:48.000Z</time>
      </trkpt>
      <trkpt lat="50.612970" lon="26.076368">
        <ele>229.740353</ele>
        <time>2019-06-05T11:15:50.000Z</time>
      </trkpt>
      <trkpt lat="50.612990" lon="26.076508">
        <ele>229.637370</ele>
        <time>2019-06-05T11:15:52.000Z</time>
      </trkpt>
      <trkpt lat="50.613020" lon="26.076649">
        <ele>229.530647</ele>
        <time>2019-06-05T11:15:54.000Z</time>
      </trkpt>
      <trkpt lat="50.613056" lon="26.076778">
        <ele>229.429515</ele>
        <time>2019-06-05T11:15:56.000Z</time>
      </trkpt>
      <trkpt lat="50.613083" lon="26.076916">
        <ele>229.325880</ele>
        <time>2019-06-05T11:15:58.000Z</time>
      </trkpt>
      <trkpt lat="50.613125" lon="26.077051">
        <ele>229.217982</ele>
        <time>2019-06-05T11:16:00.000Z</time>
      </trkpt>
      <trkpt lat="50.613170" lon="26.077244">
        <ele>229.070425</ele>
        <time>2019-06-05T11:16:03.000Z</time>
      </trkpt>
      <trkpt lat="50.613194" lon="26.077381">
        <ele>228.968432</ele>
        <time>2019-06-05T11:16:05.000Z</time>
      </trkpt>
      <trkpt lat="50.613224" lon="26.077518">
        <ele>228.864427</ele>
        <time>2019-06-05T11:16:07.000Z</time>
      </trkpt>
      <trkpt lat="50.613260" lon="26.077658">
        <ele>228.756022</ele>
        <time>2019-06-05T11:16:09.000Z</time>
      </trkpt>
      <trkpt lat="50.613300" lon="26.077860">
        <ele>228.646985</ele>
        <time>2019-06-05T11:16:12.000Z</time>
      </trkpt>
      <trkpt lat="50.613342" lon="26.078058">
        <ele>228.637109</ele>
        <time>2019-06-05T11:16:15.000Z</time>
      </trkpt>
      <trkpt lat="50.613377" lon="26.078196">
        <ele>228.630079</ele>
        <time>2019-06-05T11:16:17.000Z</time>
      </trkpt>
      <trkpt lat="50.613407" lon="26.078330">
        <ele>228.623358</ele>
        <time>2019-06-05T11:16:19.000Z</time>
      </trkpt>
      <trkpt lat="50.613440" lon="26.078463">
        <ele>228.616602</ele>
        <time>2019-06-05T11:16:21.000Z</time>
      </trkpt>
      <trkpt lat="50.613476" lon="26.078598">
        <ele>228.609676</ele>
        <time>2019-06-05T11:16:23.000Z</time>
      </trkpt>
      <trkpt lat="50.613510" lon="26.078796">
        <ele>228.599973</ele>
        <time>2019-06-05T11:16:26.000Z</time>
      </trkpt>
      <trkpt lat="50.613556" lon="26.078995">
        <ele>228.589954</ele>
        <time>2019-06-05T11:16:29.000Z</time>
      </trkpt>
      <trkpt lat="50.613598" lon="26.079182">
        <ele>228.580571</ele>
        <time>2019-06-05T11:16:32.000Z</time>
      </trkpt>
      <trkpt lat="50.613640" lon="26.079369">
        <ele>228.571187</ele>
        <time>2019-06-05T11:16:35.000Z</time>
      </trkpt>
      <trkpt lat="50.613686" lon="26.079556">
        <ele>228.561700</ele>
        <time>2019-06-05T11:16:38.000Z</time>
      </trkpt>
      <trkpt lat="50.613724" lon="26.079742">
        <ele>228.552457</ele>
        <time>2019-06-05T11:16:41.000Z</time>
      </trkpt>
      <trkpt lat="50.613766" lon="26.079937">
        <ele>228.542716</ele>
        <time>2019-06-05T11:16:44.000Z</time>
      </trkpt>
      <trkpt lat="50.613810" lon="26.080130">
        <ele>228.533016</ele>
        <time>2019-06-05T11:16:47.000Z</time>
      </trkpt>
      <trkpt lat="50.613857" lon="26.080313">
        <ele>228.523677</ele>
        <time>2019-06-05T11:16:50.000Z</time>
      </trkpt>
      <trkpt lat="50.613900" lon="26.080503">
        <ele>228.554813</ele>
        <time>2019-06-05T11:16:53.000Z</time>
      </trkpt>
      <trkpt lat="50.613940" lon="26.080694">
        <ele>228.761553</ele>
        <time>2019-06-05T11:16:56.000Z</time>
      </trkpt>
      <trkpt lat="50.613987" lon="26.080890">
        <ele>228.976922</ele>
        <time>2019-06-05T11:16:59.000Z</time>
      </trkpt>
      <trkpt lat="50.614030" lon="26.081076">
        <ele>229.180400</ele>
        <time>2019-06-05T11:17:02.000Z</time>
      </trkpt>
      <trkpt lat="50.614056" lon="26.081213">
        <ele>229.327382</ele>
        <time>2019-06-05T11:17:04.000Z</time>
      </trkpt>
      <trkpt lat="50.614100" lon="26.081410">
        <ele>229.542050</ele>
        <time>2019-06-05T11:17:07.000Z</time>
      </trkpt>
      <trkpt lat="50.614147" lon="26.081606">
        <ele>229.757419</ele>
        <time>2019-06-05T11:17:10.000Z</time>
      </trkpt>
      <trkpt lat="50.614190" lon="26.081802">
        <ele>229.970583</ele>
        <time>2019-06-05T11:17:13.000Z</time>
      </trkpt>
      <trkpt lat="50.614220" lon="26.081942">
        <ele>230.122469</ele>
        <time>2019-06-05T11:17:15.000Z</time>
      </trkpt>
      <trkpt lat="50.614265" lon="26.082132">
        <ele>230.330924</ele>
        <time>2019-06-05T11:17:18.000Z</time>
      </trkpt>
      <trkpt lat="50.614307" lon="26.082321">
        <ele>230.536760</ele>
        <time>2019-06-05T11:17:21.000Z</time>
      </trkpt>
      <trkpt lat="50.614346" lon="26.082481">
        <ele>230.712935</ele>
        <time>2019-06-05T11:17:24.000Z</time>
      </trkpt>
      <trkpt lat="50.614380" lon="26.082632">
        <ele>230.877625</ele>
        <time>2019-06-05T11:17:27.000Z</time>
      </trkpt>
      <trkpt lat="50.614410" lon="26.082780">
        <ele>231.037323</ele>
        <time>2019-06-05T11:17:30.000Z</time>
      </trkpt>
      <trkpt lat="50.614440" lon="26.082918">
        <ele>231.187262</ele>
        <time>2019-06-05T11:17:33.000Z</time>
      </trkpt>
      <trkpt lat="50.614480" lon="26.083086">
        <ele>231.371699</ele>
        <time>2019-06-05T11:17:37.000Z</time>
      </trkpt>
      <trkpt lat="50.614517" lon="26.083248">
        <ele>231.852890</ele>
        <time>2019-06-05T11:17:41.000Z</time>
      </trkpt>
      <trkpt lat="50.614550" lon="26.083403">
        <ele>232.449893</ele>
        <time>2019-06-05T11:17:45.000Z</time>
      </trkpt>
      <trkpt lat="50.614594" lon="26.083544">
        <ele>233.023657</ele>
        <time>2019-06-05T11:17:49.000Z</time>
      </trkpt>
      <trkpt lat="50.614624" lon="26.083690">
        <ele>233.584042</ele>
        <time>2019-06-05T11:17:53.000Z</time>
      </trkpt>
      <trkpt lat="50.614660" lon="26.083838">
        <ele>234.162820</ele>
        <time>2019-06-05T11:17:57.000Z</time>
      </trkpt>
      <trkpt lat="50.614690" lon="26.083984">
        <ele>234.723203</ele>
        <time>2019-06-05T11:18:01.000Z</time>
      </trkpt>
      <trkpt lat="50.614723" lon="26.084135">
        <ele>235.306375</ele>
        <time>2019-06-05T11:18:05.000Z</time>
      </trkpt>
      <trkpt lat="50.614750" lon="26.084290">
        <ele>235.893305</ele>
        <time>2019-06-05T11:18:09.000Z</time>
      </trkpt>
      <trkpt lat="50.614790" lon="26.084436">
        <ele>236.474003</ele>
        <time>2019-06-05T11:18:13.000Z</time>
      </trkpt>
      <trkpt lat="50.614826" lon="26.084580">
        <ele>237.039166</ele>
        <time>2019-06-05T11:18:17.000Z</time>
      </trkpt>
      <trkpt lat="50.614864" lon="26.084717">
        <ele>237.585135</ele>
        <time>2019-06-05T11:18:21.000Z</time>
      </trkpt>
      <trkpt lat="50.614883" lon="26.084864">
        <ele>238.132934</ele>
        <time>2019-06-05T11:18:25.000Z</time>
      </trkpt>
      <trkpt lat="50.614910" lon="26.085010">
        <ele>238.688239</ele>
        <time>2019-06-05T11:18:29.000Z</time>
      </trkpt>
      <trkpt lat="50.614944" lon="26.085155">
        <ele>239.252707</ele>
        <time>2019-06-05T11:18:33.000Z</time>
      </trkpt>
      <trkpt lat="50.614980" lon="26.085290">
        <ele>239.787428</ele>
        <time>2019-06-05T11:18:37.000Z</time>
      </trkpt>
      <trkpt lat="50.615010" lon="26.085443">
        <ele>240.372178</ele>
        <time>2019-06-05T11:18:41.000Z</time>
      </trkpt>
      <trkpt lat="50.615032" lon="26.085594">
        <ele>240.937907</ele>
        <time>2019-06-05T11:18:45.000Z</time>
      </trkpt>
      <trkpt lat="50.615063" lon="26.085737">
        <ele>241.489709</ele>
        <time>2019-06-05T11:18:49.000Z</time>
      </trkpt>
      <trkpt lat="50.615105" lon="26.085884">
        <ele>242.100985</ele>
        <time>2019-06-05T11:18:53.000Z</time>
      </trkpt>
      <trkpt lat="50.615128" lon="26.086039">
        <ele>242.726283</ele>
        <time>2019-06-05T11:18:57.000Z</time>
      </trkpt>
      <trkpt lat="50.615170" lon="26.086184">
        <ele>243.352411</ele>
        <time>2019-06-05T11:19:01.000Z</time>
      </trkpt>
      <trkpt lat="50.615204" lon="26.086329">
        <ele>243.959646</ele>
        <time>2019-06-05T11:19:05.000Z</time>
      </trkpt>
      <trkpt lat="50.615242" lon="26.086462">
        <ele>244.532617</ele>
        <time>2019-06-05T11:19:11.000Z</time>
      </trkpt>
      <trkpt lat="50.615276" lon="26.086607">
        <ele>245.139851</ele>
        <time>2019-06-05T11:19:19.000Z</time>
      </trkpt>
      <trkpt lat="50.615314" lon="26.086765">
        <ele>245.803592</ele>
        <time>2019-06-05T11:19:25.000Z</time>
      </trkpt>
      <trkpt lat="50.615356" lon="26.086900">
        <ele>246.394209</ele>
        <time>2019-06-05T11:19:30.000Z</time>
      </trkpt>
      <trkpt lat="50.615387" lon="26.087050">
        <ele>247.013902</ele>
        <time>2019-06-05T11:19:35.000Z</time>
      </trkpt>
      <trkpt lat="50.615417" lon="26.087187">
        <ele>247.583207</ele>
        <time>2019-06-05T11:19:40.000Z</time>
      </trkpt>
      <trkpt lat="50.615456" lon="26.087340">
        <ele>248.230900</ele>
        <time>2019-06-05T11:19:46.000Z</time>
      </trkpt>
      <trkpt lat="50.615490" lon="26.087490">
        <ele>248.856592</ele>
        <time>2019-06-05T11:19:51.000Z</time>
      </trkpt>
      <trkpt lat="50.615530" lon="26.087637">
        <ele>249.484890</ele>
        <time>2019-06-05T11:19:56.000Z</time>
      </trkpt>
      <trkpt lat="50.615550" lon="26.087803">
        <ele>250.148616</ele>
        <time>2019-06-05T11:20:01.000Z</time>
      </trkpt>
      <trkpt lat="50.615585" lon="26.087936">
        <ele>250.714211</ele>
        <time>2019-06-05T11:20:05.000Z</time>
      </trkpt>
      <trkpt lat="50.615627" lon="26.088085">
        <ele>251.354662</ele>
        <time>2019-06-05T11:20:10.000Z</time>
      </trkpt>
      <trkpt lat="50.615654" lon="26.088228">
        <ele>251.940729</ele>
        <time>2019-06-05T11:20:15.000Z</time>
      </trkpt>
      <trkpt lat="50.615690" lon="26.088385">
        <ele>252.596483</ele>
        <time>2019-06-05T11:20:20.000Z</time>
      </trkpt>
      <trkpt lat="50.615710" lon="26.088547">
        <ele>253.014783</ele>
        <time>2019-06-05T11:20:25.000Z</time>
      </trkpt>
      <trkpt lat="50.615734" lon="26.088686">
        <ele>253.185845</ele>
        <time>2019-06-05T11:20:29.000Z</time>
      </trkpt>
      <trkpt lat="50.615757" lon="26.088860">
        <ele>253.396903</ele>
        <time>2019-06-05T11:20:34.000Z</time>
      </trkpt>
      <trkpt lat="50.615780" lon="26.089020">
        <ele>253.591716</ele>
        <time>2019-06-05T11:20:39.000Z</time>
      </trkpt>
      <trkpt lat="50.615803" lon="26.089190">
        <ele>253.798126</ele>
        <time>2019-06-05T11:20:44.000Z</time>
      </trkpt>
      <trkpt lat="50.615818" lon="26.089333">
        <ele>253.970241</ele>
        <time>2019-06-05T11:20:48.000Z</time>
      </trkpt>
      <trkpt lat="50.615837" lon="26.089504">
        <ele>254.176390</ele>
        <time>2019-06-05T11:20:53.000Z</time>
      </trkpt>
      <trkpt lat="50.615845" lon="26.089664">
        <ele>254.366976</ele>
        <time>2019-06-05T11:20:58.000Z</time>
      </trkpt>
      <trkpt lat="50.615864" lon="26.089827">
        <ele>254.563775</ele>
        <time>2019-06-05T11:21:03.000Z</time>
      </trkpt>
      <trkpt lat="50.615870" lon="26.090006">
        <ele>254.776630</ele>
        <time>2019-06-05T11:21:08.000Z</time>
      </trkpt>
      <trkpt lat="50.615900" lon="26.090149">
        <ele>254.955481</ele>
        <time>2019-06-05T11:21:12.000Z</time>
      </trkpt>
      <trkpt lat="50.615920" lon="26.090305">
        <ele>255.144471</ele>
        <time>2019-06-05T11:21:16.000Z</time>
      </trkpt>
      <trkpt lat="50.615917" lon="26.090460">
        <ele>255.328616</ele>
        <time>2019-06-05T11:21:21.000Z</time>
      </trkpt>
      <trkpt lat="50.615936" lon="26.090624">
        <ele>255.526582</ele>
        <time>2019-06-05T11:21:27.000Z</time>
      </trkpt>
      <trkpt lat="50.615955" lon="26.090794">
        <ele>255.731562</ele>
        <time>2019-06-05T11:21:32.000Z</time>
      </trkpt>
      <trkpt lat="50.615982" lon="26.090961">
        <ele>255.936207</ele>
        <time>2019-06-05T11:21:37.000Z</time>
      </trkpt>
      <trkpt lat="50.615990" lon="26.091124">
        <ele>256.130344</ele>
        <time>2019-06-05T11:21:42.000Z</time>
      </trkpt>
      <trkpt lat="50.616013" lon="26.091300">
        <ele>256.227999</ele>
        <time>2019-06-05T11:21:46.000Z</time>
      </trkpt>
      <trkpt lat="50.616035" lon="26.091476">
        <ele>256.046473</ele>
        <time>2019-06-05T11:21:50.000Z</time>
      </trkpt>
      <trkpt lat="50.616066" lon="26.091656">
        <ele>255.857732</ele>
        <time>2019-06-05T11:21:54.000Z</time>
      </trkpt>
      <trkpt lat="50.616090" lon="26.091835">
        <ele>255.672594</ele>
        <time>2019-06-05T11:21:58.000Z</time>
      </trkpt>
      <trkpt lat="50.616108" lon="26.092009">
        <ele>255.494191</ele>
        <time>2019-06-05T11:22:02.000Z</time>
      </trkpt>
      <trkpt lat="50.616123" lon="26.092184">
        <ele>255.315492</ele>
        <time>2019-06-05T11:22:06.000Z</time>
      </trkpt>
      <trkpt lat="50.616142" lon="26.092361">
        <ele>255.133832</ele>
        <time>2019-06-05T11:22:10.000Z</time>
      </trkpt>
      <trkpt lat="50.616165" lon="26.092533">
        <ele>254.955954</ele>
        <time>2019-06-05T11:22:14.000Z</time>
      </trkpt>
      <trkpt lat="50.616188" lon="26.092682">
        <ele>254.800777</ele>
        <time>2019-06-05T11:22:17.000Z</time>
      </trkpt>
      <trkpt lat="50.616200" lon="26.092846">
        <ele>254.633718</ele>
        <time>2019-06-05T11:22:20.000Z</time>
      </trkpt>
      <trkpt lat="50.616220" lon="26.093014">
        <ele>254.460745</ele>
        <time>2019-06-05T11:22:23.000Z</time>
      </trkpt>
      <trkpt lat="50.616230" lon="26.093178">
        <ele>254.294022</ele>
        <time>2019-06-05T11:22:26.000Z</time>
      </trkpt>
      <trkpt lat="50.616250" lon="26.093336">
        <ele>254.130984</ele>
        <time>2019-06-05T11:22:29.000Z</time>
      </trkpt>
      <trkpt lat="50.616264" lon="26.093500">
        <ele>253.963530</ele>
        <time>2019-06-05T11:22:32.000Z</time>
      </trkpt>
      <trkpt lat="50.616283" lon="26.093657">
        <ele>253.801791</ele>
        <time>2019-06-05T11:22:35.000Z</time>
      </trkpt>
      <trkpt lat="50.616300" lon="26.093811">
        <ele>253.643611</ele>
        <time>2019-06-05T11:22:38.000Z</time>
      </trkpt>
      <trkpt lat="50.616320" lon="26.093958">
        <ele>253.491475</ele>
        <time>2019-06-05T11:22:41.000Z</time>
      </trkpt>
      <trkpt lat="50.616337" lon="26.094114">
        <ele>253.290858</ele>
        <time>2019-06-05T11:22:44.000Z</time>
      </trkpt>
      <trkpt lat="50.616352" lon="26.094269">
        <ele>253.053361</ele>
        <time>2019-06-05T11:22:47.000Z</time>
      </trkpt>
      <trkpt lat="50.616370" lon="26.094437">
        <ele>252.795285</ele>
        <time>2019-06-05T11:22:50.000Z</time>
      </trkpt>
      <trkpt lat="50.616400" lon="26.094624">
        <ele>252.503119</ele>
        <time>2019-06-05T11:22:53.000Z</time>
      </trkpt>
      <trkpt lat="50.616430" lon="26.094810">
        <ele>252.212421</ele>
        <time>2019-06-05T11:22:56.000Z</time>
      </trkpt>
      <trkpt lat="50.616444" lon="26.095000">
        <ele>251.922690</ele>
        <time>2019-06-05T11:22:59.000Z</time>
      </trkpt>
      <trkpt lat="50.616463" lon="26.095179">
        <ele>251.647788</ele>
        <time>2019-06-05T11:23:02.000Z</time>
      </trkpt>
      <trkpt lat="50.616480" lon="26.095380">
        <ele>251.340637</ele>
        <time>2019-06-05T11:23:05.000Z</time>
      </trkpt>
      <trkpt lat="50.616500" lon="26.095572">
        <ele>251.045918</ele>
        <time>2019-06-05T11:23:08.000Z</time>
      </trkpt>
      <trkpt lat="50.616524" lon="26.095758">
        <ele>250.758414</ele>
        <time>2019-06-05T11:23:11.000Z</time>
      </trkpt>
      <trkpt lat="50.616543" lon="26.095932">
        <ele>250.490979</ele>
        <time>2019-06-05T11:23:14.000Z</time>
      </trkpt>
      <trkpt lat="50.616566" lon="26.096113">
        <ele>250.211371</ele>
        <time>2019-06-05T11:23:17.000Z</time>
      </trkpt>
      <trkpt lat="50.616580" lon="26.096285">
        <ele>249.948705</ele>
        <time>2019-06-05T11:23:20.000Z</time>
      </trkpt>
      <trkpt lat="50.616596" lon="26.096460">
        <ele>249.680893</ele>
        <time>2019-06-05T11:23:23.000Z</time>
      </trkpt>
      <trkpt lat="50.616623" lon="26.096645">
        <ele>249.393353</ele>
        <time>2019-06-05T11:23:26.000Z</time>
      </trkpt>
      <trkpt lat="50.616646" lon="26.096836">
        <ele>249.103506</ele>
        <time>2019-06-05T11:23:29.000Z</time>
      </trkpt>
      <trkpt lat="50.616657" lon="26.097015">
        <ele>248.893991</ele>
        <time>2019-06-05T11:23:32.000Z</time>
      </trkpt>
      <trkpt lat="50.616680" lon="26.097185">
        <ele>248.691485</ele>
        <time>2019-06-05T11:23:35.000Z</time>
      </trkpt>
      <trkpt lat="50.616695" lon="26.097353">
        <ele>248.493832</ele>
        <time>2019-06-05T11:23:38.000Z</time>
      </trkpt>
      <trkpt lat="50.616722" lon="26.097546">
        <ele>248.263582</ele>
        <time>2019-06-05T11:23:41.000Z</time>
      </trkpt>
      <trkpt lat="50.616750" lon="26.097750">
        <ele>248.020421</ele>
        <time>2019-06-05T11:23:44.000Z</time>
      </trkpt>
      <trkpt lat="50.616768" lon="26.097900">
        <ele>247.842569</ele>
        <time>2019-06-05T11:23:46.000Z</time>
      </trkpt>
      <trkpt lat="50.616780" lon="26.098055">
        <ele>247.660652</ele>
        <time>2019-06-05T11:23:48.000Z</time>
      </trkpt>
      <trkpt lat="50.616795" lon="26.098196">
        <ele>247.494091</ele>
        <time>2019-06-05T11:23:50.000Z</time>
      </trkpt>
      <trkpt lat="50.616833" lon="26.098398">
        <ele>247.248631</ele>
        <time>2019-06-05T11:23:53.000Z</time>
      </trkpt>
      <trkpt lat="50.616848" lon="26.098553">
        <ele>247.065965</ele>
        <time>2019-06-05T11:23:55.000Z</time>
      </trkpt>
      <trkpt lat="50.616856" lon="26.098720">
        <ele>246.870853</ele>
        <time>2019-06-05T11:23:57.000Z</time>
      </trkpt>
      <trkpt lat="50.616870" lon="26.098898">
        <ele>246.661892</ele>
        <time>2019-06-05T11:23:59.000Z</time>
      </trkpt>
      <trkpt lat="50.616882" lon="26.099072">
        <ele>246.457985</ele>
        <time>2019-06-05T11:24:01.000Z</time>
      </trkpt>
      <trkpt lat="50.616900" lon="26.099245">
        <ele>246.253745</ele>
        <time>2019-06-05T11:24:03.000Z</time>
      </trkpt>
      <trkpt lat="50.616920" lon="26.099424">
        <ele>246.041998</ele>
        <time>2019-06-05T11:24:05.000Z</time>
      </trkpt>
      <trkpt lat="50.616940" lon="26.099602">
        <ele>245.831398</ele>
        <time>2019-06-05T11:24:07.000Z</time>
      </trkpt>
      <trkpt lat="50.616960" lon="26.099789">
        <ele>245.578194</ele>
        <time>2019-06-05T11:24:09.000Z</time>
      </trkpt>
      <trkpt lat="50.616974" lon="26.099983">
        <ele>245.315078</ele>
        <time>2019-06-05T11:24:11.000Z</time>
      </trkpt>
      <trkpt lat="50.616997" lon="26.100174">
        <ele>245.053095</ele>
        <time>2019-06-05T11:24:13.000Z</time>
      </trkpt>
      <trkpt lat="50.617012" lon="26.100350">
        <ele>244.813791</ele>
        <time>2019-06-05T11:24:15.000Z</time>
      </trkpt>
      <trkpt lat="50.617035" lon="26.100527">
        <ele>244.570318</ele>
        <time>2019-06-05T11:24:17.000Z</time>
      </trkpt>
      <trkpt lat="50.617054" lon="26.100702">
        <ele>244.331064</ele>
        <time>2019-06-05T11:24:19.000Z</time>
      </trkpt>
      <trkpt lat="50.617073" lon="26.100876">
        <ele>244.093138</ele>
        <time>2019-06-05T11:24:21.000Z</time>
      </trkpt>
      <trkpt lat="50.617090" lon="26.101042">
        <ele>243.866545</ele>
        <time>2019-06-05T11:24:23.000Z</time>
      </trkpt>
      <trkpt lat="50.617104" lon="26.101206">
        <ele>243.643551</ele>
        <time>2019-06-05T11:24:25.000Z</time>
      </trkpt>
      <trkpt lat="50.617120" lon="26.101376">
        <ele>243.411956</ele>
        <time>2019-06-05T11:24:27.000Z</time>
      </trkpt>
      <trkpt lat="50.617140" lon="26.101538">
        <ele>243.189554</ele>
        <time>2019-06-05T11:24:29.000Z</time>
      </trkpt>
      <trkpt lat="50.617160" lon="26.101702">
        <ele>242.964506</ele>
        <time>2019-06-05T11:24:31.000Z</time>
      </trkpt>
      <trkpt lat="50.617176" lon="26.101856">
        <ele>242.754215</ele>
        <time>2019-06-05T11:24:33.000Z</time>
      </trkpt>
      <trkpt lat="50.617200" lon="26.102005">
        <ele>242.547058</ele>
        <time>2019-06-05T11:24:35.000Z</time>
      </trkpt>
      <trkpt lat="50.617214" lon="26.102156">
        <ele>242.341413</ele>
        <time>2019-06-05T11:24:37.000Z</time>
      </trkpt>
      <trkpt lat="50.617226" lon="26.102299">
        <ele>242.147031</ele>
        <time>2019-06-05T11:24:39.000Z</time>
      </trkpt>
      <trkpt lat="50.617240" lon="26.102440">
        <ele>242.063541</ele>
        <time>2019-06-05T11:24:41.000Z</time>
      </trkpt>
      <trkpt lat="50.617250" lon="26.102583">
        <ele>242.376139</ele>
        <time>2019-06-05T11:24:43.000Z</time>
      </trkpt>
      <trkpt lat="50.617264" lon="26.102730">
        <ele>242.699124</ele>
        <time>2019-06-05T11:24:45.000Z</time>
      </trkpt>
      <trkpt lat="50.617280" lon="26.102892">
        <ele>243.055362</ele>
        <time>2019-06-05T11:24:47.000Z</time>
      </trkpt>
      <trkpt lat="50.617300" lon="26.103033">
        <ele>243.369294</ele>
        <time>2019-06-05T11:24:49.000Z</time>
      </trkpt>
      <trkpt lat="50.617320" lon="26.103230">
        <ele>243.802787</ele>
        <time>2019-06-05T11:24:52.000Z</time>
      </trkpt>
      <trkpt lat="50.617332" lon="26.103409">
        <ele>244.193889</ele>
        <time>2019-06-05T11:24:55.000Z</time>
      </trkpt>
      <trkpt lat="50.617348" lon="26.103579">
        <ele>244.567313</ele>
        <time>2019-06-05T11:24:58.000Z</time>
      </trkpt>
      <trkpt lat="50.617363" lon="26.103750">
        <ele>244.942401</ele>
        <time>2019-06-05T11:25:01.000Z</time>
      </trkpt>
      <trkpt lat="50.617382" lon="26.103920">
        <ele>245.317469</ele>
        <time>2019-06-05T11:25:04.000Z</time>
      </trkpt>
      <trkpt lat="50.617397" lon="26.104067">
        <ele>245.640979</ele>
        <time>2019-06-05T11:25:07.000Z</time>
      </trkpt>
      <trkpt lat="50.617416" lon="26.104212">
        <ele>245.962688</ele>
        <time>2019-06-05T11:25:10.000Z</time>
      </trkpt>
      <trkpt lat="50.617430" lon="26.104387">
        <ele>246.345944</ele>
        <time>2019-06-05T11:25:14.000Z</time>
      </trkpt>
      <trkpt lat="50.617455" lon="26.104527">
        <ele>246.661957</ele>
        <time>2019-06-05T11:25:18.000Z</time>
      </trkpt>
      <trkpt lat="50.617466" lon="26.104666">
        <ele>246.966321</ele>
        <time>2019-06-05T11:25:22.000Z</time>
      </trkpt>
      <trkpt lat="50.617490" lon="26.104813">
        <ele>247.296131</ele>
        <time>2019-06-05T11:25:28.000Z</time>
      </trkpt>
      <trkpt lat="50.617508" lon="26.104970">
        <ele>247.642789</ele>
        <time>2019-06-05T11:25:34.000Z</time>
      </trkpt>
      <trkpt lat="50.617530" lon="26.105130">
        <ele>247.998510</ele>
        <time>2019-06-05T11:25:40.000Z</time>
      </trkpt>
      <trkpt lat="50.617546" lon="26.105290">
        <ele>248.394770</ele>
        <time>2019-06-05T11:25:46.000Z</time>
      </trkpt>
      <trkpt lat="50.617565" lon="26.105434">
        <ele>248.787116</ele>
        <time>2019-06-05T11:25:52.000Z</time>
      </trkpt>
      <trkpt lat="50.617577" lon="26.105576">
        <ele>249.169254</ele>
        <time>2019-06-05T11:25:57.000Z</time>
      </trkpt>
      <trkpt lat="50.617588" lon="26.105726">
        <ele>249.572051</ele>
        <time>2019-06-05T11:26:03.000Z</time>
      </trkpt>
      <trkpt lat="50.617603" lon="26.105886">
        <ele>250.003494</ele>
        <time>2019-06-05T11:26:10.000Z</time>
      </trkpt>
      <trkpt lat="50.617630" lon="26.106041">
        <ele>250.432264</ele>
        <time>2019-06-05T11:26:16.000Z</time>
      </trkpt>
      <trkpt lat="50.617640" lon="26.106197">
        <ele>250.850521</ele>
        <time>2019-06-05T11:26:22.000Z</time>
      </trkpt>
      <trkpt lat="50.617650" lon="26.106348">
        <ele>251.255510</ele>
        <time>2019-06-05T11:26:27.000Z</time>
      </trkpt>
      <trkpt lat="50.617672" lon="26.106500">
        <ele>251.671393</ele>
        <time>2019-06-05T11:26:32.000Z</time>
      </trkpt>
      <trkpt lat="50.617687" lon="26.106657">
        <ele>252.094920</ele>
        <time>2019-06-05T11:26:37.000Z</time>
      </trkpt>
      <trkpt lat="50.617695" lon="26.106827">
        <ele>252.549650</ele>
        <time>2019-06-05T11:26:42.000Z</time>
      </trkpt>
      <trkpt lat="50.617714" lon="26.106989">
        <ele>252.989113</ele>
        <time>2019-06-05T11:26:47.000Z</time>
      </trkpt>
      <trkpt lat="50.617733" lon="26.107130">
        <ele>253.373627</ele>
        <time>2019-06-05T11:26:51.000Z</time>
      </trkpt>
      <trkpt lat="50.617750" lon="26.107279">
        <ele>253.777466</ele>
        <time>2019-06-05T11:26:56.000Z</time>
      </trkpt>
      <trkpt lat="50.617764" lon="26.107447">
        <ele>254.229463</ele>
        <time>2019-06-05T11:27:01.000Z</time>
      </trkpt>
      <trkpt lat="50.617780" lon="26.107616">
        <ele>254.685269</ele>
        <time>2019-06-05T11:27:06.000Z</time>
      </trkpt>
      <trkpt lat="50.617790" lon="26.107758">
        <ele>255.066387</ele>
        <time>2019-06-05T11:27:10.000Z</time>
      </trkpt>
      <trkpt lat="50.617810" lon="26.107908">
        <ele>255.475258</ele>
        <time>2019-06-05T11:27:14.000Z</time>
      </trkpt>
      <trkpt lat="50.617830" lon="26.108055">
        <ele>255.691220</ele>
        <time>2019-06-05T11:27:18.000Z</time>
      </trkpt>
      <trkpt lat="50.617836" lon="26.108227">
        <ele>255.614384</ele>
        <time>2019-06-05T11:27:22.000Z</time>
      </trkpt>
      <trkpt lat="50.617860" lon="26.108398">
        <ele>255.536267</ele>
        <time>2019-06-05T11:27:26.000Z</time>
      </trkpt>
      <trkpt lat="50.617886" lon="26.108578">
        <ele>255.453924</ele>
        <time>2019-06-05T11:27:30.000Z</time>
      </trkpt>
      <trkpt lat="50.617893" lon="26.108723">
        <ele>255.389061</ele>
        <time>2019-06-05T11:27:33.000Z</time>
      </trkpt>
      <trkpt lat="50.617910" lon="26.108881">
        <ele>255.317579</ele>
        <time>2019-06-05T11:27:36.000Z</time>
      </trkpt>
      <trkpt lat="50.617924" lon="26.109032">
        <ele>255.249511</ele>
        <time>2019-06-05T11:27:39.000Z</time>
      </trkpt>
      <trkpt lat="50.617947" lon="26.109180">
        <ele>255.181545</ele>
        <time>2019-06-05T11:27:42.000Z</time>
      </trkpt>
      <trkpt lat="50.617970" lon="26.109325">
        <ele>255.114878</ele>
        <time>2019-06-05T11:27:45.000Z</time>
      </trkpt>
      <trkpt lat="50.617992" lon="26.109488">
        <ele>255.040546</ele>
        <time>2019-06-05T11:27:48.000Z</time>
      </trkpt>
      <trkpt lat="50.618000" lon="26.109655">
        <ele>254.965845</ele>
        <time>2019-06-05T11:27:51.000Z</time>
      </trkpt>
      <trkpt lat="50.618015" lon="26.109823">
        <ele>254.890171</ele>
        <time>2019-06-05T11:27:54.000Z</time>
      </trkpt>
      <trkpt lat="50.618046" lon="26.110067">
        <ele>254.779176</ele>
        <time>2019-06-05T11:27:58.000Z</time>
      </trkpt>
      <trkpt lat="50.618070" lon="26.110258">
        <ele>254.692327</ele>
        <time>2019-06-05T11:28:01.000Z</time>
      </trkpt>
      <trkpt lat="50.618090" lon="26.110464">
        <ele>254.599372</ele>
        <time>2019-06-05T11:28:04.000Z</time>
      </trkpt>
      <trkpt lat="50.618110" lon="26.110662">
        <ele>254.509943</ele>
        <time>2019-06-05T11:28:07.000Z</time>
      </trkpt>
      <trkpt lat="50.618130" lon="26.110865">
        <ele>254.555635</ele>
        <time>2019-06-05T11:28:10.000Z</time>
      </trkpt>
      <trkpt lat="50.618153" lon="26.111061">
        <ele>254.815779</ele>
        <time>2019-06-05T11:28:13.000Z</time>
      </trkpt>
      <trkpt lat="50.618176" lon="26.111258">
        <ele>255.077207</ele>
        <time>2019-06-05T11:28:16.000Z</time>
      </trkpt>
      <trkpt lat="50.618195" lon="26.111454">
        <ele>255.335981</ele>
        <time>2019-06-05T11:28:19.000Z</time>
      </trkpt>
      <trkpt lat="50.618217" lon="26.111643">
        <ele>255.586768</ele>
        <time>2019-06-05T11:28:22.000Z</time>
      </trkpt>
      <trkpt lat="50.618237" lon="26.111822">
        <ele>255.823981</ele>
        <time>2019-06-05T11:28:25.000Z</time>
      </trkpt>
      <trkpt lat="50.618250" lon="26.112000">
        <ele>256.057828</ele>
        <time>2019-06-05T11:28:28.000Z</time>
      </trkpt>
      <trkpt lat="50.618263" lon="26.112162">
        <ele>256.270944</ele>
        <time>2019-06-05T11:28:31.000Z</time>
      </trkpt>
      <trkpt lat="50.618282" lon="26.112326">
        <ele>256.488524</ele>
        <time>2019-06-05T11:28:34.000Z</time>
      </trkpt>
      <trkpt lat="50.618298" lon="26.112482">
        <ele>256.694767</ele>
        <time>2019-06-05T11:28:37.000Z</time>
      </trkpt>
      <trkpt lat="50.618320" lon="26.112627">
        <ele>256.889346</ele>
        <time>2019-06-05T11:28:40.000Z</time>
      </trkpt>
      <trkpt lat="50.618340" lon="26.112780">
        <ele>257.093225</ele>
        <time>2019-06-05T11:28:43.000Z</time>
      </trkpt>
      <trkpt lat="50.618355" lon="26.112930">
        <ele>257.291411</ele>
        <time>2019-06-05T11:28:46.000Z</time>
      </trkpt>
      <trkpt lat="50.618370" lon="26.113073">
        <ele>257.480577</ele>
        <time>2019-06-05T11:28:49.000Z</time>
      </trkpt>
      <trkpt lat="50.618380" lon="26.113222">
        <ele>257.676126</ele>
        <time>2019-06-05T11:28:52.000Z</time>
      </trkpt>
      <trkpt lat="50.618397" lon="26.113375">
        <ele>257.878849</ele>
        <time>2019-06-05T11:28:55.000Z</time>
      </trkpt>
      <trkpt lat="50.618412" lon="26.113556">
        <ele>258.117084</ele>
        <time>2019-06-05T11:28:59.000Z</time>
      </trkpt>
      <trkpt lat="50.618430" lon="26.113699">
        <ele>258.404168</ele>
        <time>2019-06-05T11:29:02.000Z</time>
      </trkpt>
      <trkpt lat="50.618443" lon="26.113840">
        <ele>258.706825</ele>
        <time>2019-06-05T11:29:05.000Z</time>
      </trkpt>
      <trkpt lat="50.618460" lon="26.113983">
        <ele>259.015870</ele>
        <time>2019-06-05T11:29:08.000Z</time>
      </trkpt>
      <trkpt lat="50.618492" lon="26.114119">
        <ele>259.323985</ele>
        <time>2019-06-05T11:29:11.000Z</time>
      </trkpt>
      <trkpt lat="50.618523" lon="26.114286">
        <ele>259.693595</ele>
        <time>2019-06-05T11:29:15.000Z</time>
      </trkpt>
      <trkpt lat="50.618550" lon="26.114458">
        <ele>260.069972</ele>
        <time>2019-06-05T11:29:19.000Z</time>
      </trkpt>
      <trkpt lat="50.618546" lon="26.114637">
        <ele>260.450437</ele>
        <time>2019-06-05T11:29:23.000Z</time>
      </trkpt>
      <trkpt lat="50.618560" lon="26.114784">
        <ele>260.766191</ele>
        <time>2019-06-05T11:29:26.000Z</time>
      </trkpt>
      <trkpt lat="50.618570" lon="26.114937">
        <ele>261.092911</ele>
        <time>2019-06-05T11:29:29.000Z</time>
      </trkpt>
      <trkpt lat="50.618584" lon="26.115088">
        <ele>261.417069</ele>
        <time>2019-06-05T11:29:32.000Z</time>
      </trkpt>
      <trkpt lat="50.618603" lon="26.115270">
        <ele>261.808869</ele>
        <time>2019-06-05T11:29:36.000Z</time>
      </trkpt>
      <trkpt lat="50.618618" lon="26.115421">
        <ele>262.133529</ele>
        <time>2019-06-05T11:29:39.000Z</time>
      </trkpt>
      <trkpt lat="50.618630" lon="26.115582">
        <ele>262.477874</ele>
        <time>2019-06-05T11:29:42.000Z</time>
      </trkpt>
      <trkpt lat="50.618650" lon="26.115732">
        <ele>262.803461</ele>
        <time>2019-06-05T11:29:45.000Z</time>
      </trkpt>
      <trkpt lat="50.618668" lon="26.115894">
        <ele>263.152815</ele>
        <time>2019-06-05T11:29:48.000Z</time>
      </trkpt>
      <trkpt lat="50.618690" lon="26.116058">
        <ele>263.508882</ele>
        <time>2019-06-05T11:29:51.000Z</time>
      </trkpt>
      <trkpt lat="50.618713" lon="26.116219">
        <ele>263.859437</ele>
        <time>2019-06-05T11:29:54.000Z</time>
      </trkpt>
      <trkpt lat="50.618732" lon="26.116396">
        <ele>264.190415</ele>
        <time>2019-06-05T11:29:57.000Z</time>
      </trkpt>
      <trkpt lat="50.618744" lon="26.116560">
        <ele>264.273449</ele>
        <time>2019-06-05T11:30:00.000Z</time>
      </trkpt>
      <trkpt lat="50.618763" lon="26.116728">
        <ele>264.359280</ele>
        <time>2019-06-05T11:30:03.000Z</time>
      </trkpt>
      <trkpt lat="50.618780" lon="26.116884">
        <ele>264.438892</ele>
        <time>2019-06-05T11:30:06.000Z</time>
      </trkpt>
      <trkpt lat="50.618797" lon="26.117040">
        <ele>264.518505</ele>
        <time>2019-06-05T11:30:09.000Z</time>
      </trkpt>
      <trkpt lat="50.618816" lon="26.117197">
        <ele>264.598895</ele>
        <time>2019-06-05T11:30:12.000Z</time>
      </trkpt>
      <trkpt lat="50.618835" lon="26.117365">
        <ele>264.684726</ele>
        <time>2019-06-05T11:30:15.000Z</time>
      </trkpt>
      <trkpt lat="50.618850" lon="26.117529">
        <ele>264.768066</ele>
        <time>2019-06-05T11:30:18.000Z</time>
      </trkpt>
      <trkpt lat="50.618866" lon="26.117693">
        <ele>264.851522</ele>
        <time>2019-06-05T11:30:21.000Z</time>
      </trkpt>
      <trkpt lat="50.618885" lon="26.117860">
        <ele>264.936858</ele>
        <time>2019-06-05T11:30:24.000Z</time>
      </trkpt>
      <trkpt lat="50.618908" lon="26.118020">
        <ele>265.019373</ele>
        <time>2019-06-05T11:30:27.000Z</time>
      </trkpt>
      <trkpt lat="50.618923" lon="26.118187">
        <ele>265.104206</ele>
        <time>2019-06-05T11:30:30.000Z</time>
      </trkpt>
      <trkpt lat="50.618935" lon="26.118336">
        <ele>265.179750</ele>
        <time>2019-06-05T11:30:33.000Z</time>
      </trkpt>
      <trkpt lat="50.618958" lon="26.118486">
        <ele>265.257367</ele>
        <time>2019-06-05T11:30:36.000Z</time>
      </trkpt>
      <trkpt lat="50.618973" lon="26.118633">
        <ele>265.332254</ele>
        <time>2019-06-05T11:30:39.000Z</time>
      </trkpt>
      <trkpt lat="50.618990" lon="26.118786">
        <ele>265.410379</ele>
        <time>2019-06-05T11:30:42.000Z</time>
      </trkpt>
      <trkpt lat="50.619007" lon="26.118952">
        <ele>265.494953</ele>
        <time>2019-06-05T11:30:45.000Z</time>
      </trkpt>
      <trkpt lat="50.619020" lon="26.119112">
        <ele>265.576085</ele>
        <time>2019-06-05T11:30:48.000Z</time>
      </trkpt>
      <trkpt lat="50.619034" lon="26.119274">
        <ele>265.518199</ele>
        <time>2019-06-05T11:30:51.000Z</time>
      </trkpt>
      <trkpt lat="50.619050" lon="26.119427">
        <ele>265.406723</ele>
        <time>2019-06-05T11:30:54.000Z</time>
      </trkpt>
      <trkpt lat="50.619076" lon="26.119581">
        <ele>265.292159</ele>
        <time>2019-06-05T11:30:57.000Z</time>
      </trkpt>
      <trkpt lat="50.619090" lon="26.119741">
        <ele>265.176046</ele>
        <time>2019-06-05T11:31:00.000Z</time>
      </trkpt>
      <trkpt lat="50.619114" lon="26.119890">
        <ele>265.065531</ele>
        <time>2019-06-05T11:31:03.000Z</time>
      </trkpt>
      <trkpt lat="50.619120" lon="26.120037">
        <ele>264.959634</ele>
        <time>2019-06-05T11:31:06.000Z</time>
      </trkpt>
      <trkpt lat="50.619140" lon="26.120182">
        <ele>264.852958</ele>
        <time>2019-06-05T11:31:09.000Z</time>
      </trkpt>
      <trkpt lat="50.619160" lon="26.120338">
        <ele>264.738543</ele>
        <time>2019-06-05T11:31:12.000Z</time>
      </trkpt>
      <trkpt lat="50.619175" lon="26.120508">
        <ele>264.615154</ele>
        <time>2019-06-05T11:31:15.000Z</time>
      </trkpt>
      <trkpt lat="50.619194" lon="26.120680">
        <ele>264.489642</ele>
        <time>2019-06-05T11:31:18.000Z</time>
      </trkpt>
      <trkpt lat="50.619210" lon="26.120865">
        <ele>264.355416</ele>
        <time>2019-06-05T11:31:21.000Z</time>
      </trkpt>
      <trkpt lat="50.619225" lon="26.121060">
        <ele>264.214204</ele>
        <time>2019-06-05T11:31:24.000Z</time>
      </trkpt>
      <trkpt lat="50.619240" lon="26.121246">
        <ele>264.079412</ele>
        <time>2019-06-05T11:31:27.000Z</time>
      </trkpt>
      <trkpt lat="50.619250" lon="26.121449">
        <ele>263.933036</ele>
        <time>2019-06-05T11:31:30.000Z</time>
      </trkpt>
      <trkpt lat="50.619270" lon="26.121588">
        <ele>263.830572</ele>
        <time>2019-06-05T11:31:32.000Z</time>
      </trkpt>
      <trkpt lat="50.619293" lon="26.121763">
        <ele>263.702093</ele>
        <time>2019-06-05T11:31:35.000Z</time>
      </trkpt>
      <trkpt lat="50.619312" lon="26.121954">
        <ele>263.563106</ele>
        <time>2019-06-05T11:31:38.000Z</time>
      </trkpt>
      <trkpt lat="50.619328" lon="26.122147">
        <ele>263.562016</ele>
        <time>2019-06-05T11:31:41.000Z</time>
      </trkpt>
      <trkpt lat="50.619340" lon="26.122328">
        <ele>263.561421</ele>
        <time>2019-06-05T11:31:44.000Z</time>
      </trkpt>
      <trkpt lat="50.619354" lon="26.122507">
        <ele>263.560832</ele>
        <time>2019-06-05T11:31:47.000Z</time>
      </trkpt>
      <trkpt lat="50.619366" lon="26.122683">
        <ele>263.560254</ele>
        <time>2019-06-05T11:31:50.000Z</time>
      </trkpt>
      <trkpt lat="50.619377" lon="26.122864">
        <ele>263.559660</ele>
        <time>2019-06-05T11:31:53.000Z</time>
      </trkpt>
      <trkpt lat="50.619400" lon="26.123043">
        <ele>263.559063</ele>
        <time>2019-06-05T11:31:56.000Z</time>
      </trkpt>
      <trkpt lat="50.619410" lon="26.123234">
        <ele>263.558437</ele>
        <time>2019-06-05T11:31:59.000Z</time>
      </trkpt>
      <trkpt lat="50.619430" lon="26.123415">
        <ele>263.557837</ele>
        <time>2019-06-05T11:32:02.000Z</time>
      </trkpt>
      <trkpt lat="50.619450" lon="26.123608">
        <ele>263.557198</ele>
        <time>2019-06-05T11:32:05.000Z</time>
      </trkpt>
      <trkpt lat="50.619465" lon="26.123783">
        <ele>263.556621</ele>
        <time>2019-06-05T11:32:08.000Z</time>
      </trkpt>
      <trkpt lat="50.619484" lon="26.123953">
        <ele>263.556057</ele>
        <time>2019-06-05T11:32:11.000Z</time>
      </trkpt>
      <trkpt lat="50.619495" lon="26.124126">
        <ele>263.555489</ele>
        <time>2019-06-05T11:32:14.000Z</time>
      </trkpt>
      <trkpt lat="50.619520" lon="26.124300">
        <ele>263.554907</ele>
        <time>2019-06-05T11:32:17.000Z</time>
      </trkpt>
      <trkpt lat="50.619530" lon="26.124470">
        <ele>263.554349</ele>
        <time>2019-06-05T11:32:20.000Z</time>
      </trkpt>
      <trkpt lat="50.619545" lon="26.124650">
        <ele>263.553756</ele>
        <time>2019-06-05T11:32:23.000Z</time>
      </trkpt>
      <trkpt lat="50.619556" lon="26.124828">
        <ele>263.575861</ele>
        <time>2019-06-05T11:32:26.000Z</time>
      </trkpt>
      <trkpt lat="50.619576" lon="26.125004">
        <ele>263.636311</ele>
        <time>2019-06-05T11:32:29.000Z</time>
      </trkpt>
      <trkpt lat="50.619590" lon="26.125187">
        <ele>263.698630</ele>
        <time>2019-06-05T11:32:32.000Z</time>
      </trkpt>
      <trkpt lat="50.619602" lon="26.125357">
        <ele>263.756459</ele>
        <time>2019-06-05T11:32:35.000Z</time>
      </trkpt>
      <trkpt lat="50.619617" lon="26.125523">
        <ele>263.813148</ele>
        <time>2019-06-05T11:32:38.000Z</time>
      </trkpt>
      <trkpt lat="50.619640" lon="26.125748">
        <ele>263.890199</ele>
        <time>2019-06-05T11:32:42.000Z</time>
      </trkpt>
      <trkpt lat="50.619650" lon="26.125917">
        <ele>263.947584</ele>
        <time>2019-06-05T11:32:45.000Z</time>
      </trkpt>
      <trkpt lat="50.619667" lon="26.126087">
        <ele>264.005769</ele>
        <time>2019-06-05T11:32:48.000Z</time>
      </trkpt>
      <trkpt lat="50.619682" lon="26.126244">
        <ele>264.059447</ele>
        <time>2019-06-05T11:32:51.000Z</time>
      </trkpt>
      <trkpt lat="50.619698" lon="26.126406">
        <ele>264.114877</ele>
        <time>2019-06-05T11:32:54.000Z</time>
      </trkpt>
      <trkpt lat="50.619713" lon="26.126562">
        <ele>264.168221</ele>
        <time>2019-06-05T11:32:57.000Z</time>
      </trkpt>
      <trkpt lat="50.619730" lon="26.126719">
        <ele>264.222068</ele>
        <time>2019-06-05T11:33:00.000Z</time>
      </trkpt>
      <trkpt lat="50.619740" lon="26.126894">
        <ele>264.281473</ele>
        <time>2019-06-05T11:33:03.000Z</time>
      </trkpt>
      <trkpt lat="50.619755" lon="26.127064">
        <ele>264.339501</ele>
        <time>2019-06-05T11:33:06.000Z</time>
      </trkpt>
      <trkpt lat="50.619774" lon="26.127249">
        <ele>264.402861</ele>
        <time>2019-06-05T11:33:09.000Z</time>
      </trkpt>
      <trkpt lat="50.619793" lon="26.127413">
        <ele>264.459224</ele>
        <time>2019-06-05T11:33:12.000Z</time>
      </trkpt>
      <trkpt lat="50.619812" lon="26.127634">
        <ele>264.489097</ele>
        <time>2019-06-05T11:33:16.000Z</time>
      </trkpt>
      <trkpt lat="50.619823" lon="26.127804">
        <ele>264.431461</ele>
        <time>2019-06-05T11:33:19.000Z</time>
      </trkpt>
      <trkpt lat="50.619843" lon="26.127983">
        <ele>264.370158</ele>
        <time>2019-06-05T11:33:22.000Z</time>
      </trkpt>
      <trkpt lat="50.619858" lon="26.128170">
        <ele>264.306583</ele>
        <time>2019-06-05T11:33:25.000Z</time>
      </trkpt>
      <trkpt lat="50.619880" lon="26.128372">
        <ele>264.237455</ele>
        <time>2019-06-05T11:33:28.000Z</time>
      </trkpt>
      <trkpt lat="50.619896" lon="26.128576">
        <ele>264.168125</ele>
        <time>2019-06-05T11:33:31.000Z</time>
      </trkpt>
      <trkpt lat="50.619920" lon="26.128778">
        <ele>264.098809</ele>
        <time>2019-06-05T11:33:34.000Z</time>
      </trkpt>
      <trkpt lat="50.619926" lon="26.128977">
        <ele>264.031613</ele>
        <time>2019-06-05T11:33:37.000Z</time>
      </trkpt>
      <trkpt lat="50.619938" lon="26.129179">
        <ele>263.963183</ele>
        <time>2019-06-05T11:33:40.000Z</time>
      </trkpt>
      <trkpt lat="50.619953" lon="26.129320">
        <ele>263.914962</ele>
        <time>2019-06-05T11:33:42.000Z</time>
      </trkpt>
      <trkpt lat="50.619972" lon="26.129510">
        <ele>263.850087</ele>
        <time>2019-06-05T11:33:45.000Z</time>
      </trkpt>
      <trkpt lat="50.620000" lon="26.129705">
        <ele>263.782653</ele>
        <time>2019-06-05T11:33:48.000Z</time>
      </trkpt>
      <trkpt lat="50.620014" lon="26.129900">
        <ele>263.716462</ele>
        <time>2019-06-05T11:33:51.000Z</time>
      </trkpt>
      <trkpt lat="50.620030" lon="26.130104">
        <ele>263.647133</ele>
        <time>2019-06-05T11:33:54.000Z</time>
      </trkpt>
      <trkpt lat="50.620050" lon="26.130310">
        <ele>263.576843</ele>
        <time>2019-06-05T11:33:57.000Z</time>
      </trkpt>
      <trkpt lat="50.620064" lon="26.130505">
        <ele>263.279599</ele>
        <time>2019-06-05T11:34:00.000Z</time>
      </trkpt>
      <trkpt lat="50.620070" lon="26.130690">
        <ele>262.896359</ele>
        <time>2019-06-05T11:34:03.000Z</time>
      </trkpt>
      <trkpt lat="50.620094" lon="26.130875">
        <ele>262.505699</ele>
        <time>2019-06-05T11:34:06.000Z</time>
      </trkpt>
      <trkpt lat="50.620110" lon="26.131063">
        <ele>262.113269</ele>
        <time>2019-06-05T11:34:09.000Z</time>
      </trkpt>
      <trkpt lat="50.620125" lon="26.131205">
        <ele>261.815446</ele>
        <time>2019-06-05T11:34:11.000Z</time>
      </trkpt>
      <trkpt lat="50.620132" lon="26.131351">
        <ele>261.512530</ele>
        <time>2019-06-05T11:34:13.000Z</time>
      </trkpt>
      <trkpt lat="50.620148" lon="26.131495">
        <ele>261.210079</ele>
        <time>2019-06-05T11:34:15.000Z</time>
      </trkpt>
      <trkpt lat="50.620167" lon="26.131643">
        <ele>260.897682</ele>
        <time>2019-06-05T11:34:17.000Z</time>
      </trkpt>
      <trkpt lat="50.620182" lon="26.131802">
        <ele>260.565116</ele>
        <time>2019-06-05T11:34:19.000Z</time>
      </trkpt>
      <trkpt lat="50.620197" lon="26.131979">
        <ele>260.195675</ele>
        <time>2019-06-05T11:34:21.000Z</time>
      </trkpt>
      <trkpt lat="50.620213" lon="26.132162">
        <ele>259.813495</ele>
        <time>2019-06-05T11:34:23.000Z</time>
      </trkpt>
      <trkpt lat="50.620230" lon="26.132360">
        <ele>259.400127</ele>
        <time>2019-06-05T11:34:25.000Z</time>
      </trkpt>
      <trkpt lat="50.620247" lon="26.132565">
        <ele>258.972403</ele>
        <time>2019-06-05T11:34:27.000Z</time>
      </trkpt>
      <trkpt lat="50.620262" lon="26.132776">
        <ele>258.533142</ele>
        <time>2019-06-05T11:34:29.000Z</time>
      </trkpt>
      <trkpt lat="50.620274" lon="26.132992">
        <ele>258.084558</ele>
        <time>2019-06-05T11:34:31.000Z</time>
      </trkpt>
      <trkpt lat="50.620293" lon="26.133210">
        <ele>257.717990</ele>
        <time>2019-06-05T11:34:33.000Z</time>
      </trkpt>
      <trkpt lat="50.620316" lon="26.133429">
        <ele>257.923441</ele>
        <time>2019-06-05T11:34:35.000Z</time>
      </trkpt>
      <trkpt lat="50.620342" lon="26.133644">
        <ele>258.126014</ele>
        <time>2019-06-05T11:34:37.000Z</time>
      </trkpt>
      <trkpt lat="50.620360" lon="26.133846">
        <ele>258.314807</ele>
        <time>2019-06-05T11:34:39.000Z</time>
      </trkpt>
      <trkpt lat="50.620377" lon="26.134037">
        <ele>258.493315</ele>
        <time>2019-06-05T11:34:41.000Z</time>
      </trkpt>
      <trkpt lat="50.620396" lon="26.134218">
        <ele>258.663114</ele>
        <time>2019-06-05T11:34:43.000Z</time>
      </trkpt>
      <trkpt lat="50.620407" lon="26.134382">
        <ele>258.815748</ele>
        <time>2019-06-05T11:34:45.000Z</time>
      </trkpt>
      <trkpt lat="50.620422" lon="26.134580">
        <ele>259.000305</ele>
        <time>2019-06-05T11:34:48.000Z</time>
      </trkpt>
      <trkpt lat="50.620440" lon="26.134740">
        <ele>259.150700</ele>
        <time>2019-06-05T11:34:51.000Z</time>
      </trkpt>
      <trkpt lat="50.620450" lon="26.134893">
        <ele>259.293056</ele>
        <time>2019-06-05T11:34:54.000Z</time>
      </trkpt>
      <trkpt lat="50.620464" lon="26.135044">
        <ele>259.434296</ele>
        <time>2019-06-05T11:34:57.000Z</time>
      </trkpt>
      <trkpt lat="50.620476" lon="26.135190">
        <ele>259.570553</ele>
        <time>2019-06-05T11:35:00.000Z</time>
      </trkpt>
      <trkpt lat="50.620495" lon="26.135334">
        <ele>259.706681</ele>
        <time>2019-06-05T11:35:03.000Z</time>
      </trkpt>
      <trkpt lat="50.620510" lon="26.135517">
        <ele>259.877462</ele>
        <time>2019-06-05T11:35:07.000Z</time>
      </trkpt>
      <trkpt lat="50.620520" lon="26.135670">
        <ele>260.019817</ele>
        <time>2019-06-05T11:35:10.000Z</time>
      </trkpt>
      <trkpt lat="50.620537" lon="26.135830">
        <ele>260.169965</ele>
        <time>2019-06-05T11:35:13.000Z</time>
      </trkpt>
      <trkpt lat="50.620550" lon="26.136007">
        <ele>260.329850</ele>
        <time>2019-06-05T11:35:16.000Z</time>
      </trkpt>
      <trkpt lat="50.620567" lon="26.136173">
        <ele>260.447235</ele>
        <time>2019-06-05T11:35:19.000Z</time>
      </trkpt>
      <trkpt lat="50.620583" lon="26.136337">
        <ele>260.563070</ele>
        <time>2019-06-05T11:35:22.000Z</time>
      </trkpt>
      <trkpt lat="50.620590" lon="26.136501">
        <ele>260.677818</ele>
        <time>2019-06-05T11:35:25.000Z</time>
      </trkpt>
      <trkpt lat="50.620600" lon="26.136658">
        <ele>260.787972</ele>
        <time>2019-06-05T11:35:28.000Z</time>
      </trkpt>
      <trkpt lat="50.620610" lon="26.136830">
        <ele>260.908549</ele>
        <time>2019-06-05T11:35:31.000Z</time>
      </trkpt>
      <trkpt lat="50.620613" lon="26.137000">
        <ele>261.027273</ele>
        <time>2019-06-05T11:35:34.000Z</time>
      </trkpt>
      <trkpt lat="50.620636" lon="26.137154">
        <ele>261.137720</ele>
        <time>2019-06-05T11:35:37.000Z</time>
      </trkpt>
      <trkpt lat="50.620647" lon="26.137316">
        <ele>261.251458</ele>
        <time>2019-06-05T11:35:40.000Z</time>
      </trkpt>
      <trkpt lat="50.620655" lon="26.137472">
        <ele>261.360718</ele>
        <time>2019-06-05T11:35:43.000Z</time>
      </trkpt>
      <trkpt lat="50.620667" lon="26.137636">
        <ele>261.475966</ele>
        <time>2019-06-05T11:35:46.000Z</time>
      </trkpt>
      <trkpt lat="50.620674" lon="26.137798">
        <ele>261.589321</ele>
        <time>2019-06-05T11:35:49.000Z</time>
      </trkpt>
      <trkpt lat="50.620690" lon="26.137972">
        <ele>261.712060</ele>
        <time>2019-06-05T11:35:52.000Z</time>
      </trkpt>
      <trkpt lat="50.620710" lon="26.138136">
        <ele>261.828645</ele>
        <time>2019-06-05T11:35:55.000Z</time>
      </trkpt>
      <trkpt lat="50.620724" lon="26.138298">
        <ele>261.942782</ele>
        <time>2019-06-05T11:35:58.000Z</time>
      </trkpt>
      <trkpt lat="50.620730" lon="26.138454">
        <ele>262.051886</ele>
        <time>2019-06-05T11:36:01.000Z</time>
      </trkpt>
      <trkpt lat="50.620750" lon="26.138601">
        <ele>262.156841</ele>
        <time>2019-06-05T11:36:04.000Z</time>
      </trkpt>
      <trkpt lat="50.620766" lon="26.138754">
        <ele>262.265092</ele>
        <time>2019-06-05T11:36:07.000Z</time>
      </trkpt>
      <trkpt lat="50.620780" lon="26.138899">
        <ele>262.086792</ele>
        <time>2019-06-05T11:36:10.000Z</time>
      </trkpt>
      <trkpt lat="50.620800" lon="26.139048">
        <ele>261.789669</ele>
        <time>2019-06-05T11:36:13.000Z</time>
      </trkpt>
      <trkpt lat="50.620808" lon="26.139220">
        <ele>261.453209</ele>
        <time>2019-06-05T11:36:16.000Z</time>
      </trkpt>
      <trkpt lat="50.620834" lon="26.139410">
        <ele>261.074008</ele>
        <time>2019-06-05T11:36:19.000Z</time>
      </trkpt>
      <trkpt lat="50.620842" lon="26.139587">
        <ele>260.727819</ele>
        <time>2019-06-05T11:36:22.000Z</time>
      </trkpt>
      <trkpt lat="50.620853" lon="26.139755">
        <ele>260.398323</ele>
        <time>2019-06-05T11:36:25.000Z</time>
      </trkpt>
      <trkpt lat="50.620872" lon="26.139935">
        <ele>260.042329</ele>
        <time>2019-06-05T11:36:28.000Z</time>
      </trkpt>
      <trkpt lat="50.620903" lon="26.140123">
        <ele>259.663370</ele>
        <time>2019-06-05T11:36:31.000Z</time>
      </trkpt>
      <trkpt lat="50.620934" lon="26.140322">
        <ele>259.263605</ele>
        <time>2019-06-05T11:36:34.000Z</time>
      </trkpt>
      <trkpt lat="50.620945" lon="26.140518">
        <ele>258.879731</ele>
        <time>2019-06-05T11:36:37.000Z</time>
      </trkpt>
      <trkpt lat="50.620960" lon="26.140722">
        <ele>258.479079</ele>
        <time>2019-06-05T11:36:40.000Z</time>
      </trkpt>
      <trkpt lat="50.620980" lon="26.140865">
        <ele>258.193399</ele>
        <time>2019-06-05T11:36:42.000Z</time>
      </trkpt>
      <trkpt lat="50.620995" lon="26.141010">
        <ele>257.906780</ele>
        <time>2019-06-05T11:36:44.000Z</time>
      </trkpt>
      <trkpt lat="50.621002" lon="26.141155">
        <ele>257.623078</ele>
        <time>2019-06-05T11:36:46.000Z</time>
      </trkpt>
      <trkpt lat="50.621020" lon="26.141360">
        <ele>257.219328</ele>
        <time>2019-06-05T11:36:49.000Z</time>
      </trkpt>
      <trkpt lat="50.621033" lon="26.141500">
        <ele>256.943289</ele>
        <time>2019-06-05T11:36:51.000Z</time>
      </trkpt>
      <trkpt lat="50.621044" lon="26.141650">
        <ele>256.670892</ele>
        <time>2019-06-05T11:36:53.000Z</time>
      </trkpt>
      <trkpt lat="50.621056" lon="26.141790">
        <ele>256.448929</ele>
        <time>2019-06-05T11:36:55.000Z</time>
      </trkpt>
      <trkpt lat="50.621075" lon="26.142008">
        <ele>256.103195</ele>
        <time>2019-06-05T11:36:58.000Z</time>
      </trkpt>
      <trkpt lat="50.621086" lon="26.142160">
        <ele>255.862828</ele>
        <time>2019-06-05T11:37:00.000Z</time>
      </trkpt>
      <trkpt lat="50.621100" lon="26.142323">
        <ele>255.604390</ele>
        <time>2019-06-05T11:37:02.000Z</time>
      </trkpt>
      <trkpt lat="50.621113" lon="26.142477">
        <ele>255.360297</ele>
        <time>2019-06-05T11:37:04.000Z</time>
      </trkpt>
      <trkpt lat="50.621124" lon="26.142635">
        <ele>255.110561</ele>
        <time>2019-06-05T11:37:06.000Z</time>
      </trkpt>
      <trkpt lat="50.621140" lon="26.142800">
        <ele>254.848307</ele>
        <time>2019-06-05T11:37:08.000Z</time>
      </trkpt>
      <trkpt lat="50.621150" lon="26.142963">
        <ele>254.591011</ele>
        <time>2019-06-05T11:37:10.000Z</time>
      </trkpt>
      <trkpt lat="50.621170" lon="26.143137">
        <ele>254.313176</ele>
        <time>2019-06-05T11:37:12.000Z</time>
      </trkpt>
      <trkpt lat="50.621190" lon="26.143303">
        <ele>254.047700</ele>
        <time>2019-06-05T11:37:14.000Z</time>
      </trkpt>
      <trkpt lat="50.621212" lon="26.143475">
        <ele>253.772021</ele>
        <time>2019-06-05T11:37:16.000Z</time>
      </trkpt>
      <trkpt lat="50.621230" lon="26.143633">
        <ele>253.519806</ele>
        <time>2019-06-05T11:37:18.000Z</time>
      </trkpt>
      <trkpt lat="50.621243" lon="26.143791">
        <ele>253.269482</ele>
        <time>2019-06-05T11:37:20.000Z</time>
      </trkpt>
      <trkpt lat="50.621254" lon="26.143940">
        <ele>253.033798</ele>
        <time>2019-06-05T11:37:22.000Z</time>
      </trkpt>
      <trkpt lat="50.621265" lon="26.144083">
        <ele>252.807475</ele>
        <time>2019-06-05T11:37:24.000Z</time>
      </trkpt>
      <trkpt lat="50.621273" lon="26.144226">
        <ele>252.581926</ele>
        <time>2019-06-05T11:37:26.000Z</time>
      </trkpt>
      <trkpt lat="50.621292" lon="26.144428">
        <ele>252.384340</ele>
        <time>2019-06-05T11:37:29.000Z</time>
      </trkpt>
      <trkpt lat="50.621304" lon="26.144623">
        <ele>252.877635</ele>
        <time>2019-06-05T11:37:32.000Z</time>
      </trkpt>
      <trkpt lat="50.621323" lon="26.144785">
        <ele>253.292446</ele>
        <time>2019-06-05T11:37:35.000Z</time>
      </trkpt>
      <trkpt lat="50.621334" lon="26.144947">
        <ele>253.702675</ele>
        <time>2019-06-05T11:37:38.000Z</time>
      </trkpt>
      <trkpt lat="50.621346" lon="26.145105">
        <ele>254.103343</ele>
        <time>2019-06-05T11:37:41.000Z</time>
      </trkpt>
      <trkpt lat="50.621357" lon="26.145273">
        <ele>254.528597</ele>
        <time>2019-06-05T11:37:44.000Z</time>
      </trkpt>
      <trkpt lat="50.621370" lon="26.145426">
        <ele>254.917274</ele>
        <time>2019-06-05T11:37:47.000Z</time>
      </trkpt>
      <trkpt lat="50.621384" lon="26.145578">
        <ele>255.304007</ele>
        <time>2019-06-05T11:37:50.000Z</time>
      </trkpt>
      <trkpt lat="50.621400" lon="26.145733">
        <ele>255.699412</ele>
        <time>2019-06-05T11:37:53.000Z</time>
      </trkpt>
      <trkpt lat="50.621403" lon="26.145895">
        <ele>256.107485</ele>
        <time>2019-06-05T11:37:56.000Z</time>
      </trkpt>
      <trkpt lat="50.621410" lon="26.146053">
        <ele>256.506281</ele>
        <time>2019-06-05T11:37:59.000Z</time>
      </trkpt>
      <trkpt lat="50.621430" lon="26.146212">
        <ele>256.914419</ele>
        <time>2019-06-05T11:38:02.000Z</time>
      </trkpt>
      <trkpt lat="50.621440" lon="26.146358">
        <ele>257.284167</ele>
        <time>2019-06-05T11:38:05.000Z</time>
      </trkpt>
      <trkpt lat="50.621445" lon="26.146500">
        <ele>257.642258</ele>
        <time>2019-06-05T11:38:08.000Z</time>
      </trkpt>
      <trkpt lat="50.621468" lon="26.146664">
        <ele>258.065161</ele>
        <time>2019-06-05T11:38:12.000Z</time>
      </trkpt>
      <trkpt lat="50.621480" lon="26.146809">
        <ele>258.433348</ele>
        <time>2019-06-05T11:38:16.000Z</time>
      </trkpt>
      <trkpt lat="50.621483" lon="26.146986">
        <ele>258.879174</ele>
        <time>2019-06-05T11:38:20.000Z</time>
      </trkpt>
      <trkpt lat="50.621510" lon="26.147146">
        <ele>259.296043</ele>
        <time>2019-06-05T11:38:25.000Z</time>
      </trkpt>
      <trkpt lat="50.621517" lon="26.147318">
        <ele>259.694100</ele>
        <time>2019-06-05T11:38:30.000Z</time>
      </trkpt>
      <trkpt lat="50.621536" lon="26.147457">
        <ele>260.006742</ele>
        <time>2019-06-05T11:38:34.000Z</time>
      </trkpt>
      <trkpt lat="50.621544" lon="26.147608">
        <ele>260.339912</ele>
        <time>2019-06-05T11:38:38.000Z</time>
      </trkpt>
      <trkpt lat="50.621563" lon="26.147781">
        <ele>260.725956</ele>
        <time>2019-06-05T11:38:43.000Z</time>
      </trkpt>
      <trkpt lat="50.621570" lon="26.147932">
        <ele>261.058855</ele>
        <time>2019-06-05T11:38:47.000Z</time>
      </trkpt>
      <trkpt lat="50.621586" lon="26.148077">
        <ele>261.382462</ele>
        <time>2019-06-05T11:38:51.000Z</time>
      </trkpt>
      <trkpt lat="50.621605" lon="26.148241">
        <ele>261.749023</ele>
        <time>2019-06-05T11:38:55.000Z</time>
      </trkpt>
      <trkpt lat="50.621616" lon="26.148418">
        <ele>262.140067</ele>
        <time>2019-06-05T11:38:59.000Z</time>
      </trkpt>
      <trkpt lat="50.621630" lon="26.148588">
        <ele>262.516993</ele>
        <time>2019-06-05T11:39:03.000Z</time>
      </trkpt>
      <trkpt lat="50.621647" lon="26.148775">
        <ele>262.932361</ele>
        <time>2019-06-05T11:39:07.000Z</time>
      </trkpt>
      <trkpt lat="50.621662" lon="26.148947">
        <ele>263.314105</ele>
        <time>2019-06-05T11:39:11.000Z</time>
      </trkpt>
      <trkpt lat="50.621677" lon="26.149130">
        <ele>263.719823</ele>
        <time>2019-06-05T11:39:15.000Z</time>
      </trkpt>
      <trkpt lat="50.621693" lon="26.149292">
        <ele>264.080312</ele>
        <time>2019-06-05T11:39:19.000Z</time>
      </trkpt>
      <trkpt lat="50.621708" lon="26.149456">
        <ele>264.444637</ele>
        <time>2019-06-05T11:39:23.000Z</time>
      </trkpt>
      <trkpt lat="50.621708" lon="26.149628">
        <ele>264.822824</ele>
        <time>2019-06-05T11:39:27.000Z</time>
      </trkpt>
      <trkpt lat="50.621723" lon="26.149784">
        <ele>265.169748</ele>
        <time>2019-06-05T11:39:31.000Z</time>
      </trkpt>
      <trkpt lat="50.621750" lon="26.150017">
        <ele>265.682680</ele>
        <time>2019-06-05T11:48:51.000Z</time>
      </trkpt>
      <trkpt lat="50.621773" lon="26.150160">
        <ele>265.760407</ele>
        <time>2019-06-05T11:48:56.000Z</time>
      </trkpt>
      <trkpt lat="50.621788" lon="26.150303">
        <ele>265.836773</ele>
        <time>2019-06-05T11:49:00.000Z</time>
      </trkpt>
      <trkpt lat="50.621807" lon="26.150446">
        <ele>265.913750</ele>
        <time>2019-06-05T11:49:04.000Z</time>
      </trkpt>
      <trkpt lat="50.621830" lon="26.150608">
        <ele>266.001215</ele>
        <time>2019-06-05T11:49:08.000Z</time>
      </trkpt>
      <trkpt lat="50.621840" lon="26.150778">
        <ele>266.091168</ele>
        <time>2019-06-05T11:49:12.000Z</time>
      </trkpt>
      <trkpt lat="50.621853" lon="26.150957">
        <ele>266.186095</ele>
        <time>2019-06-05T11:49:16.000Z</time>
      </trkpt>
      <trkpt lat="50.621864" lon="26.151130">
        <ele>266.277701</ele>
        <time>2019-06-05T11:49:20.000Z</time>
      </trkpt>
      <trkpt lat="50.621876" lon="26.151314">
        <ele>266.375157</ele>
        <time>2019-06-05T11:49:24.000Z</time>
      </trkpt>
      <trkpt lat="50.621895" lon="26.151499">
        <ele>266.473897</ele>
        <time>2019-06-05T11:49:28.000Z</time>
      </trkpt>
      <trkpt lat="50.621914" lon="26.151638">
        <ele>266.548813</ele>
        <time>2019-06-05T11:49:31.000Z</time>
      </trkpt>
      <trkpt lat="50.621914" lon="26.151785">
        <ele>266.626264</ele>
        <time>2019-06-05T11:49:34.000Z</time>
      </trkpt>
      <trkpt lat="50.621930" lon="26.151930">
        <ele>266.703807</ele>
        <time>2019-06-05T11:49:37.000Z</time>
      </trkpt>
      <trkpt lat="50.621950" lon="26.152111">
        <ele>266.800607</ele>
        <time>2019-06-05T11:49:41.000Z</time>
      </trkpt>
      <trkpt lat="50.621964" lon="26.152298">
        <ele>266.899816</ele>
        <time>2019-06-05T11:49:45.000Z</time>
      </trkpt>
      <trkpt lat="50.621975" lon="26.152440">
        <ele>266.975188</ele>
        <time>2019-06-05T11:49:48.000Z</time>
      </trkpt>
      <trkpt lat="50.621990" lon="26.152578">
        <ele>267.048956</ele>
        <time>2019-06-05T11:49:51.000Z</time>
      </trkpt>
      <trkpt lat="50.622005" lon="26.152765">
        <ele>267.148265</ele>
        <time>2019-06-05T11:49:55.000Z</time>
      </trkpt>
      <trkpt lat="50.622013" lon="26.152908">
        <ele>267.158539</ele>
        <time>2019-06-05T11:49:58.000Z</time>
      </trkpt>
      <trkpt lat="50.622020" lon="26.153060">
        <ele>267.133849</ele>
        <time>2019-06-05T11:50:01.000Z</time>
      </trkpt>
      <trkpt lat="50.622036" lon="26.153214">
        <ele>267.108568</ele>
        <time>2019-06-05T11:50:04.000Z</time>
      </trkpt>
      <trkpt lat="50.622047" lon="26.153360">
        <ele>267.084749</ele>
        <time>2019-06-05T11:50:07.000Z</time>
      </trkpt>
      <trkpt lat="50.622074" lon="26.153550">
        <ele>267.053205</ele>
        <time>2019-06-05T11:50:11.000Z</time>
      </trkpt>
      <trkpt lat="50.622090" lon="26.153698">
        <ele>267.028882</ele>
        <time>2019-06-05T11:50:14.000Z</time>
      </trkpt>
      <trkpt lat="50.622097" lon="26.153852">
        <ele>267.003870</ele>
        <time>2019-06-05T11:50:17.000Z</time>
      </trkpt>
      <trkpt lat="50.622112" lon="26.154007">
        <ele>266.978468</ele>
        <time>2019-06-05T11:50:20.000Z</time>
      </trkpt>
      <trkpt lat="50.622112" lon="26.154163">
        <ele>266.953195</ele>
        <time>2019-06-05T11:50:23.000Z</time>
      </trkpt>
      <trkpt lat="50.622128" lon="26.154325">
        <ele>266.926634</ele>
        <time>2019-06-05T11:50:26.000Z</time>
      </trkpt>
      <trkpt lat="50.622140" lon="26.154482">
        <ele>266.901016</ele>
        <time>2019-06-05T11:50:29.000Z</time>
      </trkpt>
      <trkpt lat="50.622154" lon="26.154646">
        <ele>266.874207</ele>
        <time>2019-06-05T11:50:32.000Z</time>
      </trkpt>
      <trkpt lat="50.622177" lon="26.154800">
        <ele>266.848577</ele>
        <time>2019-06-05T11:50:35.000Z</time>
      </trkpt>
      <trkpt lat="50.622196" lon="26.154959">
        <ele>266.822365</ele>
        <time>2019-06-05T11:50:38.000Z</time>
      </trkpt>
      <trkpt lat="50.622227" lon="26.155113">
        <ele>266.796190</ele>
        <time>2019-06-05T11:50:41.000Z</time>
      </trkpt>
      <trkpt lat="50.622257" lon="26.155262">
        <ele>266.770865</ele>
        <time>2019-06-05T11:50:44.000Z</time>
      </trkpt>
      <trkpt lat="50.622307" lon="26.155420">
        <ele>266.742261</ele>
        <time>2019-06-05T11:50:47.000Z</time>
      </trkpt>
      <trkpt lat="50.622360" lon="26.155573">
        <ele>266.718497</ele>
        <time>2019-06-05T11:50:50.000Z</time>
      </trkpt>
      <trkpt lat="50.622406" lon="26.155714">
        <ele>266.885285</ele>
        <time>2019-06-05T11:50:53.000Z</time>
      </trkpt>
      <trkpt lat="50.622460" lon="26.155850">
        <ele>267.054060</ele>
        <time>2019-06-05T11:50:56.000Z</time>
      </trkpt>
      <trkpt lat="50.622517" lon="26.155989">
        <ele>267.228167</ele>
        <time>2019-06-05T11:50:59.000Z</time>
      </trkpt>
      <trkpt lat="50.622585" lon="26.156132">
        <ele>267.416162</ele>
        <time>2019-06-05T11:51:02.000Z</time>
      </trkpt>
      <trkpt lat="50.622654" lon="26.156265">
        <ele>267.596895</ele>
        <time>2019-06-05T11:51:05.000Z</time>
      </trkpt>
      <trkpt lat="50.622726" lon="26.156393">
        <ele>267.776848</ele>
        <time>2019-06-05T11:51:08.000Z</time>
      </trkpt>
      <trkpt lat="50.622790" lon="26.156520">
        <ele>267.947464</ele>
        <time>2019-06-05T11:51:11.000Z</time>
      </trkpt>
      <trkpt lat="50.622845" lon="26.156647">
        <ele>268.109220</ele>
        <time>2019-06-05T11:51:14.000Z</time>
      </trkpt>
      <trkpt lat="50.622894" lon="26.156770">
        <ele>268.262003</ele>
        <time>2019-06-05T11:51:17.000Z</time>
      </trkpt>
      <trkpt lat="50.622955" lon="26.156878">
        <ele>268.414114</ele>
        <time>2019-06-05T11:51:20.000Z</time>
      </trkpt>
      <trkpt lat="50.623016" lon="26.156986">
        <ele>268.566224</ele>
        <time>2019-06-05T11:51:23.000Z</time>
      </trkpt>
      <trkpt lat="50.623077" lon="26.157110">
        <ele>268.731285</ele>
        <time>2019-06-05T11:51:26.000Z</time>
      </trkpt>
      <trkpt lat="50.623135" lon="26.157227">
        <ele>268.887480</ele>
        <time>2019-06-05T11:51:29.000Z</time>
      </trkpt>
      <trkpt lat="50.623203" lon="26.157377">
        <ele>269.081416</ele>
        <time>2019-06-05T11:51:33.000Z</time>
      </trkpt>
      <trkpt lat="50.623270" lon="26.157518">
        <ele>269.266731</ele>
        <time>2019-06-05T11:51:37.000Z</time>
      </trkpt>
      <trkpt lat="50.623350" lon="26.157650">
        <ele>269.458764</ele>
        <time>2019-06-05T11:51:41.000Z</time>
      </trkpt>
      <trkpt lat="50.623417" lon="26.157785">
        <ele>269.639067</ele>
        <time>2019-06-05T11:51:45.000Z</time>
      </trkpt>
      <trkpt lat="50.623493" lon="26.157917">
        <ele>269.810628</ele>
        <time>2019-06-05T11:51:49.000Z</time>
      </trkpt>
      <trkpt lat="50.623558" lon="26.158056">
        <ele>269.969918</ele>
        <time>2019-06-05T11:51:53.000Z</time>
      </trkpt>
      <trkpt lat="50.623627" lon="26.158200">
        <ele>270.136383</ele>
        <time>2019-06-05T11:51:57.000Z</time>
      </trkpt>
      <trkpt lat="50.623700" lon="26.158350">
        <ele>270.310774</ele>
        <time>2019-06-05T11:52:01.000Z</time>
      </trkpt>
      <trkpt lat="50.623753" lon="26.158460">
        <ele>270.438190</ele>
        <time>2019-06-05T11:52:04.000Z</time>
      </trkpt>
      <trkpt lat="50.623817" lon="26.158564">
        <ele>270.571844</ele>
        <time>2019-06-05T11:52:07.000Z</time>
      </trkpt>
      <trkpt lat="50.623898" lon="26.158697">
        <ele>270.741912</ele>
        <time>2019-06-05T11:52:11.000Z</time>
      </trkpt>
      <trkpt lat="50.623970" lon="26.158840">
        <ele>270.910318</ele>
        <time>2019-06-05T11:52:15.000Z</time>
      </trkpt>
      <trkpt lat="50.624040" lon="26.158970">
        <ele>271.067607</ele>
        <time>2019-06-05T11:52:19.000Z</time>
      </trkpt>
      <trkpt lat="50.624092" lon="26.159090">
        <ele>271.201659</ele>
        <time>2019-06-05T11:52:22.000Z</time>
      </trkpt>
      <trkpt lat="50.624153" lon="26.159204">
        <ele>271.339228</ele>
        <time>2019-06-05T11:52:25.000Z</time>
      </trkpt>
      <trkpt lat="50.624214" lon="26.159319">
        <ele>271.477504</ele>
        <time>2019-06-05T11:52:28.000Z</time>
      </trkpt>
      <trkpt lat="50.624290" lon="26.159458">
        <ele>271.646773</ele>
        <time>2019-06-05T11:52:32.000Z</time>
      </trkpt>
      <trkpt lat="50.624348" lon="26.159573">
        <ele>271.782291</ele>
        <time>2019-06-05T11:52:35.000Z</time>
      </trkpt>
      <trkpt lat="50.624420" lon="26.159714">
        <ele>271.949255</ele>
        <time>2019-06-05T11:52:39.000Z</time>
      </trkpt>
      <trkpt lat="50.624477" lon="26.159836">
        <ele>272.089018</ele>
        <time>2019-06-05T11:52:42.000Z</time>
      </trkpt>
      <trkpt lat="50.624530" lon="26.159956">
        <ele>272.223894</ele>
        <time>2019-06-05T11:52:45.000Z</time>
      </trkpt>
      <trkpt lat="50.624588" lon="26.160076">
        <ele>272.320813</ele>
        <time>2019-06-05T11:52:48.000Z</time>
      </trkpt>
      <trkpt lat="50.624650" lon="26.160190">
        <ele>272.344128</ele>
        <time>2019-06-05T11:52:51.000Z</time>
      </trkpt>
      <trkpt lat="50.624725" lon="26.160336">
        <ele>272.373297</ele>
        <time>2019-06-05T11:52:55.000Z</time>
      </trkpt>
      <trkpt lat="50.624786" lon="26.160463">
        <ele>272.398031</ele>
        <time>2019-06-05T11:52:58.000Z</time>
      </trkpt>
      <trkpt lat="50.624850" lon="26.160585">
        <ele>272.422611</ele>
        <time>2019-06-05T11:53:01.000Z</time>
      </trkpt>
      <trkpt lat="50.624912" lon="26.160688">
        <ele>272.444658</ele>
        <time>2019-06-05T11:53:04.000Z</time>
      </trkpt>
      <trkpt lat="50.624970" lon="26.160800">
        <ele>272.467106</ele>
        <time>2019-06-05T11:53:07.000Z</time>
      </trkpt>
      <trkpt lat="50.625027" lon="26.160917">
        <ele>272.490011</ele>
        <time>2019-06-05T11:53:10.000Z</time>
      </trkpt>
      <trkpt lat="50.625084" lon="26.161028">
        <ele>272.512185</ele>
        <time>2019-06-05T11:53:13.000Z</time>
      </trkpt>
      <trkpt lat="50.625140" lon="26.161160">
        <ele>272.536841</ele>
        <time>2019-06-05T11:53:16.000Z</time>
      </trkpt>
      <trkpt lat="50.625202" lon="26.161287">
        <ele>272.561723</ele>
        <time>2019-06-05T11:53:19.000Z</time>
      </trkpt>
      <trkpt lat="50.625263" lon="26.161396">
        <ele>272.584291</ele>
        <time>2019-06-05T11:53:22.000Z</time>
      </trkpt>
      <trkpt lat="50.625324" lon="26.161509">
        <ele>272.607329</ele>
        <time>2019-06-05T11:53:25.000Z</time>
      </trkpt>
      <trkpt lat="50.625385" lon="26.161633">
        <ele>272.631692</ele>
        <time>2019-06-05T11:53:28.000Z</time>
      </trkpt>
      <trkpt lat="50.625454" lon="26.161755">
        <ele>272.657070</ele>
        <time>2019-06-05T11:53:31.000Z</time>
      </trkpt>
      <trkpt lat="50.625520" lon="26.161873">
        <ele>272.681495</ele>
        <time>2019-06-05T11:53:34.000Z</time>
      </trkpt>
      <trkpt lat="50.625590" lon="26.162012">
        <ele>272.709051</ele>
        <time>2019-06-05T11:53:38.000Z</time>
      </trkpt>
      <trkpt lat="50.625668" lon="26.162125">
        <ele>272.734979</ele>
        <time>2019-06-05T11:53:41.000Z</time>
      </trkpt>
      <trkpt lat="50.625730" lon="26.162254">
        <ele>272.775297</ele>
        <time>2019-06-05T11:53:44.000Z</time>
      </trkpt>
      <trkpt lat="50.625797" lon="26.162410">
        <ele>272.862828</ele>
        <time>2019-06-05T11:53:48.000Z</time>
      </trkpt>
      <trkpt lat="50.625854" lon="26.162527">
        <ele>272.931370</ele>
        <time>2019-06-05T11:53:51.000Z</time>
      </trkpt>
      <trkpt lat="50.625910" lon="26.162636">
        <ele>272.996540</ele>
        <time>2019-06-05T11:53:54.000Z</time>
      </trkpt>
      <trkpt lat="50.625973" lon="26.162762">
        <ele>273.071081</ele>
        <time>2019-06-05T11:53:57.000Z</time>
      </trkpt>
      <trkpt lat="50.626026" lon="26.162888">
        <ele>273.141324</ele>
        <time>2019-06-05T11:54:00.000Z</time>
      </trkpt>
      <trkpt lat="50.626080" lon="26.163006">
        <ele>273.208927</ele>
        <time>2019-06-05T11:54:03.000Z</time>
      </trkpt>
      <trkpt lat="50.626144" lon="26.163122">
        <ele>273.280355</ele>
        <time>2019-06-05T11:54:06.000Z</time>
      </trkpt>
      <trkpt lat="50.626205" lon="26.163240">
        <ele>273.351079</ele>
        <time>2019-06-05T11:54:09.000Z</time>
      </trkpt>
      <trkpt lat="50.626263" lon="26.163353">
        <ele>273.418615</ele>
        <time>2019-06-05T11:54:12.000Z</time>
      </trkpt>
      <trkpt lat="50.626320" lon="26.163467">
        <ele>273.486056</ele>
        <time>2019-06-05T11:54:15.000Z</time>
      </trkpt>
      <trkpt lat="50.626377" lon="26.163578">
        <ele>273.552409</ele>
        <time>2019-06-05T11:54:18.000Z</time>
      </trkpt>
      <trkpt lat="50.626434" lon="26.163700">
        <ele>273.622807</ele>
        <time>2019-06-05T11:54:21.000Z</time>
      </trkpt>
      <trkpt lat="50.626490" lon="26.163815">
        <ele>273.690165</ele>
        <time>2019-06-05T11:54:24.000Z</time>
      </trkpt>
      <trkpt lat="50.626550" lon="26.163940">
        <ele>273.762995</ele>
        <time>2019-06-05T11:54:27.000Z</time>
      </trkpt>
      <trkpt lat="50.626617" lon="26.164083">
        <ele>273.845592</ele>
        <time>2019-06-05T11:54:31.000Z</time>
      </trkpt>
      <trkpt lat="50.626680" lon="26.164198">
        <ele>273.916190</ele>
        <time>2019-06-05T11:54:34.000Z</time>
      </trkpt>
      <trkpt lat="50.626728" lon="26.164318">
        <ele>273.982102</ele>
        <time>2019-06-05T11:54:37.000Z</time>
      </trkpt>
      <trkpt lat="50.626790" lon="26.164436">
        <ele>274.053291</ele>
        <time>2019-06-05T11:54:40.000Z</time>
      </trkpt>
      <trkpt lat="50.626850" lon="26.164545">
        <ele>273.937167</ele>
        <time>2019-06-05T11:54:43.000Z</time>
      </trkpt>
      <trkpt lat="50.626915" lon="26.164663">
        <ele>273.746471</ele>
        <time>2019-06-05T11:54:46.000Z</time>
      </trkpt>
      <trkpt lat="50.626984" lon="26.164774">
        <ele>273.556836</ele>
        <time>2019-06-05T11:54:49.000Z</time>
      </trkpt>
      <trkpt lat="50.627040" lon="26.164892">
        <ele>273.377015</ele>
        <time>2019-06-05T11:54:52.000Z</time>
      </trkpt>
      <trkpt lat="50.627106" lon="26.165010">
        <ele>273.185053</ele>
        <time>2019-06-05T11:54:55.000Z</time>
      </trkpt>
      <trkpt lat="50.627163" lon="26.165133">
        <ele>272.999182</ele>
        <time>2019-06-05T11:54:58.000Z</time>
      </trkpt>
      <trkpt lat="50.627220" lon="26.165249">
        <ele>272.820138</ele>
        <time>2019-06-05T11:55:01.000Z</time>
      </trkpt>
      <trkpt lat="50.627280" lon="26.165373">
        <ele>272.629838</ele>
        <time>2019-06-05T11:55:04.000Z</time>
      </trkpt>
      <trkpt lat="50.627346" lon="26.165491">
        <ele>272.437876</ele>
        <time>2019-06-05T11:55:07.000Z</time>
      </trkpt>
      <trkpt lat="50.627407" lon="26.165630">
        <ele>272.231635</ele>
        <time>2019-06-05T11:55:10.000Z</time>
      </trkpt>
      <trkpt lat="50.627480" lon="26.165750">
        <ele>272.028760</ele>
        <time>2019-06-05T11:55:13.000Z</time>
      </trkpt>
      <trkpt lat="50.627552" lon="26.165874">
        <ele>271.823639</ele>
        <time>2019-06-05T11:55:16.000Z</time>
      </trkpt>
      <trkpt lat="50.627617" lon="26.166012">
        <ele>271.613906</ele>
        <time>2019-06-05T11:55:19.000Z</time>
      </trkpt>
      <trkpt lat="50.627693" lon="26.166155">
        <ele>271.386270</ele>
        <time>2019-06-05T11:55:22.000Z</time>
      </trkpt>
      <trkpt lat="50.627747" lon="26.166273">
        <ele>271.208728</ele>
        <time>2019-06-05T11:55:24.000Z</time>
      </trkpt>
      <trkpt lat="50.627834" lon="26.166437">
        <ele>270.947862</ele>
        <time>2019-06-05T11:55:27.000Z</time>
      </trkpt>
      <trkpt lat="50.627900" lon="26.166567">
        <ele>270.744687</ele>
        <time>2019-06-05T11:55:29.000Z</time>
      </trkpt>
      <trkpt lat="50.627956" lon="26.166700">
        <ele>270.549463</ele>
        <time>2019-06-05T11:55:31.000Z</time>
      </trkpt>
      <trkpt lat="50.628020" lon="26.166832">
        <ele>270.345250</ele>
        <time>2019-06-05T11:55:33.000Z</time>
      </trkpt>
      <trkpt lat="50.628082" lon="26.166967">
        <ele>270.140392</ele>
        <time>2019-06-05T11:55:35.000Z</time>
      </trkpt>
      <trkpt lat="50.628160" lon="26.167105">
        <ele>269.913205</ele>
        <time>2019-06-05T11:55:37.000Z</time>
      </trkpt>
      <trkpt lat="50.628230" lon="26.167246">
        <ele>269.693129</ele>
        <time>2019-06-05T11:55:39.000Z</time>
      </trkpt>
      <trkpt lat="50.628310" lon="26.167387">
        <ele>269.460611</ele>
        <time>2019-06-05T11:55:41.000Z</time>
      </trkpt>
      <trkpt lat="50.628384" lon="26.167530">
        <ele>269.233776</ele>
        <time>2019-06-05T11:55:43.000Z</time>
      </trkpt>
      <trkpt lat="50.628456" lon="26.167675">
        <ele>269.007441</ele>
        <time>2019-06-05T11:55:45.000Z</time>
      </trkpt>
      <trkpt lat="50.628530" lon="26.167822">
        <ele>268.776777</ele>
        <time>2019-06-05T11:55:47.000Z</time>
      </trkpt>
      <trkpt lat="50.628600" lon="26.167961">
        <ele>268.558633</ele>
        <time>2019-06-05T11:55:49.000Z</time>
      </trkpt>
      <trkpt lat="50.628674" lon="26.168095">
        <ele>268.340259</ele>
        <time>2019-06-05T11:55:51.000Z</time>
      </trkpt>
      <trkpt lat="50.628740" lon="26.168240">
        <ele>268.120900</ele>
        <time>2019-06-05T11:55:53.000Z</time>
      </trkpt>
      <trkpt lat="50.628803" lon="26.168373">
        <ele>267.916877</ele>
        <time>2019-06-05T11:55:55.000Z</time>
      </trkpt>
      <trkpt lat="50.628872" lon="26.168493">
        <ele>267.717803</ele>
        <time>2019-06-05T11:55:57.000Z</time>
      </trkpt>
      <trkpt lat="50.628933" lon="26.168615">
        <ele>267.526867</ele>
        <time>2019-06-05T11:55:59.000Z</time>
      </trkpt>
      <trkpt lat="50.629013" lon="26.168780">
        <ele>267.271605</ele>
        <time>2019-06-05T11:56:02.000Z</time>
      </trkpt>
      <trkpt lat="50.629070" lon="26.168915">
        <ele>267.200524</ele>
        <time>2019-06-05T11:56:05.000Z</time>
      </trkpt>
      <trkpt lat="50.629130" lon="26.169024">
        <ele>267.455268</ele>
        <time>2019-06-05T11:56:08.000Z</time>
      </trkpt>
      <trkpt lat="50.629192" lon="26.169136">
        <ele>267.717660</ele>
        <time>2019-06-05T11:56:11.000Z</time>
      </trkpt>
      <trkpt lat="50.629253" lon="26.169256">
        <ele>267.989100</ele>
        <time>2019-06-05T11:56:14.000Z</time>
      </trkpt>
      <trkpt lat="50.629314" lon="26.169370">
        <ele>268.252359</ele>
        <time>2019-06-05T11:56:17.000Z</time>
      </trkpt>
      <trkpt lat="50.629387" lon="26.169514">
        <ele>268.577738</ele>
        <time>2019-06-05T11:56:21.000Z</time>
      </trkpt>
      <trkpt lat="50.629456" lon="26.169638">
        <ele>268.868897</ele>
        <time>2019-06-05T11:56:25.000Z</time>
      </trkpt>
      <trkpt lat="50.629517" lon="26.169756">
        <ele>269.137591</ele>
        <time>2019-06-05T11:56:29.000Z</time>
      </trkpt>
      <trkpt lat="50.629590" lon="26.169884">
        <ele>269.441419</ele>
        <time>2019-06-05T11:56:33.000Z</time>
      </trkpt>
      <trkpt lat="50.629646" lon="26.169996">
        <ele>269.693146</ele>
        <time>2019-06-05T11:56:37.000Z</time>
      </trkpt>
      <trkpt lat="50.629704" lon="26.170115">
        <ele>269.958042</ele>
        <time>2019-06-05T11:56:41.000Z</time>
      </trkpt>
      <trkpt lat="50.629770" lon="26.170221">
        <ele>270.220221</ele>
        <time>2019-06-05T11:56:45.000Z</time>
      </trkpt>
      <trkpt lat="50.629820" lon="26.170340">
        <ele>270.472172</ele>
        <time>2019-06-05T11:56:49.000Z</time>
      </trkpt>
      <trkpt lat="50.629875" lon="26.170456">
        <ele>270.727805</ele>
        <time>2019-06-05T11:56:53.000Z</time>
      </trkpt>
      <trkpt lat="50.629932" lon="26.170574">
        <ele>270.989608</ele>
        <time>2019-06-05T11:56:57.000Z</time>
      </trkpt>
      <trkpt lat="50.629986" lon="26.170700">
        <ele>271.258017</ele>
        <time>2019-06-05T11:57:01.000Z</time>
      </trkpt>
      <trkpt lat="50.630060" lon="26.170830">
        <ele>271.566330</ele>
        <time>2019-06-05T11:57:06.000Z</time>
      </trkpt>
      <trkpt lat="50.630120" lon="26.170948">
        <ele>271.833272</ele>
        <time>2019-06-05T11:57:10.000Z</time>
      </trkpt>
      <trkpt lat="50.630180" lon="26.171085">
        <ele>272.127132</ele>
        <time>2019-06-05T11:57:15.000Z</time>
      </trkpt>
      <trkpt lat="50.630245" lon="26.171234">
        <ele>272.104939</ele>
        <time>2019-06-05T11:57:19.000Z</time>
      </trkpt>
      <trkpt lat="50.630314" lon="26.171343">
        <ele>272.083440</ele>
        <time>2019-06-05T11:57:22.000Z</time>
      </trkpt>
      <trkpt lat="50.630380" lon="26.171460">
        <ele>272.061580</ele>
        <time>2019-06-05T11:57:25.000Z</time>
      </trkpt>
      <trkpt lat="50.630440" lon="26.171566">
        <ele>272.041746</ele>
        <time>2019-06-05T11:57:28.000Z</time>
      </trkpt>
      <trkpt lat="50.630510" lon="26.171680">
        <ele>272.019594</ele>
        <time>2019-06-05T11:57:31.000Z</time>
      </trkpt>
      <trkpt lat="50.630566" lon="26.171799">
        <ele>271.998907</ele>
        <time>2019-06-05T11:57:34.000Z</time>
      </trkpt>
      <trkpt lat="50.630630" lon="26.171944">
        <ele>271.974245</ele>
        <time>2019-06-05T11:57:38.000Z</time>
      </trkpt>
      <trkpt lat="50.630684" lon="26.172073">
        <ele>271.952666</ele>
        <time>2019-06-05T11:57:41.000Z</time>
      </trkpt>
      <trkpt lat="50.630745" lon="26.172192">
        <ele>271.931305</ele>
        <time>2019-06-05T11:57:44.000Z</time>
      </trkpt>
      <trkpt lat="50.630800" lon="26.172316">
        <ele>271.910181</ele>
        <time>2019-06-05T11:57:47.000Z</time>
      </trkpt>
      <trkpt lat="50.630863" lon="26.172420">
        <ele>271.890103</ele>
        <time>2019-06-05T11:57:50.000Z</time>
      </trkpt>
      <trkpt lat="50.630924" lon="26.172546">
        <ele>271.867974</ele>
        <time>2019-06-05T11:57:53.000Z</time>
      </trkpt>
      <trkpt lat="50.630980" lon="26.172680">
        <ele>271.845571</ele>
        <time>2019-06-05T11:57:56.000Z</time>
      </trkpt>
      <trkpt lat="50.631040" lon="26.172800">
        <ele>271.824238</ele>
        <time>2019-06-05T11:57:59.000Z</time>
      </trkpt>
      <trkpt lat="50.631110" lon="26.172922">
        <ele>271.801271</ele>
        <time>2019-06-05T11:58:02.000Z</time>
      </trkpt>
      <trkpt lat="50.631195" lon="26.173044">
        <ele>271.775971</ele>
        <time>2019-06-05T11:58:05.000Z</time>
      </trkpt>
      <trkpt lat="50.631264" lon="26.173166">
        <ele>271.753151</ele>
        <time>2019-06-05T11:58:08.000Z</time>
      </trkpt>
      <trkpt lat="50.631330" lon="26.173310">
        <ele>271.687266</ele>
        <time>2019-06-05T11:58:11.000Z</time>
      </trkpt>
      <trkpt lat="50.631393" lon="26.173440">
        <ele>271.500783</ele>
        <time>2019-06-05T11:58:14.000Z</time>
      </trkpt>
      <trkpt lat="50.631462" lon="26.173569">
        <ele>271.308436</ele>
        <time>2019-06-05T11:58:17.000Z</time>
      </trkpt>
      <trkpt lat="50.631540" lon="26.173690">
        <ele>271.111786</ele>
        <time>2019-06-05T11:58:20.000Z</time>
      </trkpt>
      <trkpt lat="50.631600" lon="26.173813">
        <ele>270.934916</ele>
        <time>2019-06-05T11:58:23.000Z</time>
      </trkpt>
      <trkpt lat="50.631664" lon="26.173954">
        <ele>270.737281</ele>
        <time>2019-06-05T11:58:26.000Z</time>
      </trkpt>
      <trkpt lat="50.631730" lon="26.174080">
        <ele>270.551015</ele>
        <time>2019-06-05T11:58:29.000Z</time>
      </trkpt>
      <trkpt lat="50.631790" lon="26.174198">
        <ele>270.378627</ele>
        <time>2019-06-05T11:58:32.000Z</time>
      </trkpt>
      <trkpt lat="50.631863" lon="26.174324">
        <ele>270.184110</ele>
        <time>2019-06-05T11:58:35.000Z</time>
      </trkpt>
      <trkpt lat="50.631927" lon="26.174452">
        <ele>269.998326</ele>
        <time>2019-06-05T11:58:38.000Z</time>
      </trkpt>
      <trkpt lat="50.631990" lon="26.174582">
        <ele>269.811844</ele>
        <time>2019-06-05T11:58:41.000Z</time>
      </trkpt>
      <trkpt lat="50.632057" lon="26.174738">
        <ele>269.597097</ele>
        <time>2019-06-05T11:58:44.000Z</time>
      </trkpt>
      <trkpt lat="50.632133" lon="26.174902">
        <ele>269.365583</ele>
        <time>2019-06-05T11:58:47.000Z</time>
      </trkpt>
      <trkpt lat="50.632217" lon="26.175064">
        <ele>269.127077</ele>
        <time>2019-06-05T11:58:50.000Z</time>
      </trkpt>
      <trkpt lat="50.632280" lon="26.175177">
        <ele>268.955589</ele>
        <time>2019-06-05T11:58:52.000Z</time>
      </trkpt>
      <trkpt lat="50.632330" lon="26.175297">
        <ele>268.791934</ele>
        <time>2019-06-05T11:58:54.000Z</time>
      </trkpt>
      <trkpt lat="50.632397" lon="26.175419">
        <ele>268.607990</ele>
        <time>2019-06-05T11:58:56.000Z</time>
      </trkpt>
      <trkpt lat="50.632460" lon="26.175549">
        <ele>268.438908</ele>
        <time>2019-06-05T11:58:58.000Z</time>
      </trkpt>
      <trkpt lat="50.632534" lon="26.175686">
        <ele>268.278228</ele>
        <time>2019-06-05T11:59:00.000Z</time>
      </trkpt>
      <trkpt lat="50.632607" lon="26.175817">
        <ele>268.122522</ele>
        <time>2019-06-05T11:59:02.000Z</time>
      </trkpt>
      <trkpt lat="50.632680" lon="26.175951">
        <ele>267.964793</ele>
        <time>2019-06-05T11:59:04.000Z</time>
      </trkpt>
      <trkpt lat="50.632750" lon="26.176086">
        <ele>267.809093</ele>
        <time>2019-06-05T11:59:06.000Z</time>
      </trkpt>
      <trkpt lat="50.632824" lon="26.176233">
        <ele>267.641516</ele>
        <time>2019-06-05T11:59:08.000Z</time>
      </trkpt>
      <trkpt lat="50.632904" lon="26.176378">
        <ele>267.469913</ele>
        <time>2019-06-05T11:59:10.000Z</time>
      </trkpt>
      <trkpt lat="50.632980" lon="26.176535">
        <ele>267.293560</ele>
        <time>2019-06-05T11:59:12.000Z</time>
      </trkpt>
      <trkpt lat="50.633060" lon="26.176680">
        <ele>267.121957</ele>
        <time>2019-06-05T11:59:14.000Z</time>
      </trkpt>
      <trkpt lat="50.633160" lon="26.176895">
        <ele>266.883892</ele>
        <time>2019-06-05T11:59:17.000Z</time>
      </trkpt>
      <trkpt lat="50.633236" lon="26.177046">
        <ele>266.711768</ele>
        <time>2019-06-05T11:59:19.000Z</time>
      </trkpt>
      <trkpt lat="50.633310" lon="26.177197">
        <ele>266.541379</ele>
        <time>2019-06-05T11:59:21.000Z</time>
      </trkpt>
      <trkpt lat="50.633385" lon="26.177345">
        <ele>266.372228</ele>
        <time>2019-06-05T11:59:23.000Z</time>
      </trkpt>
      <trkpt lat="50.633457" lon="26.177505">
        <ele>266.197056</ele>
        <time>2019-06-05T11:59:25.000Z</time>
      </trkpt>
      <trkpt lat="50.633522" lon="26.177650">
        <ele>266.038510</ele>
        <time>2019-06-05T11:59:27.000Z</time>
      </trkpt>
      <trkpt lat="50.633583" lon="26.177774">
        <ele>266.071924</ele>
        <time>2019-06-05T11:59:29.000Z</time>
      </trkpt>
      <trkpt lat="50.633650" lon="26.177902">
        <ele>266.284155</ele>
        <time>2019-06-05T11:59:31.000Z</time>
      </trkpt>
      <trkpt lat="50.633710" lon="26.178034">
        <ele>266.491831</ele>
        <time>2019-06-05T11:59:33.000Z</time>
      </trkpt>
      <trkpt lat="50.633770" lon="26.178148">
        <ele>266.681272</ele>
        <time>2019-06-05T11:59:35.000Z</time>
      </trkpt>
      <trkpt lat="50.633846" lon="26.178307">
        <ele>266.935877</ele>
        <time>2019-06-05T11:59:38.000Z</time>
      </trkpt>
      <trkpt lat="50.633920" lon="26.178430">
        <ele>267.152676</ele>
        <time>2019-06-05T11:59:41.000Z</time>
      </trkpt>
      <trkpt lat="50.633984" lon="26.178556">
        <ele>267.359106</ele>
        <time>2019-06-05T11:59:44.000Z</time>
      </trkpt>
      <trkpt lat="50.634045" lon="26.178677">
        <ele>267.556766</ele>
        <time>2019-06-05T11:59:47.000Z</time>
      </trkpt>
      <trkpt lat="50.634100" lon="26.178785">
        <ele>267.733887</ele>
        <time>2019-06-05T11:59:50.000Z</time>
      </trkpt>
      <trkpt lat="50.634170" lon="26.178913">
        <ele>267.950018</ele>
        <time>2019-06-05T11:59:54.000Z</time>
      </trkpt>
      <trkpt lat="50.634230" lon="26.179030">
        <ele>268.142425</ele>
        <time>2019-06-05T11:59:58.000Z</time>
      </trkpt>
      <trkpt lat="50.634293" lon="26.179152">
        <ele>268.343608</ele>
        <time>2019-06-05T12:00:02.000Z</time>
      </trkpt>
      <trkpt lat="50.634365" lon="26.179283">
        <ele>268.565278</ele>
        <time>2019-06-05T12:00:07.000Z</time>
      </trkpt>
      <trkpt lat="50.634434" lon="26.179420">
        <ele>268.788990</ele>
        <time>2019-06-05T12:00:12.000Z</time>
      </trkpt>
      <trkpt lat="50.634500" lon="26.179564">
        <ele>269.016186</ele>
        <time>2019-06-05T12:00:17.000Z</time>
      </trkpt>
      <trkpt lat="50.634567" lon="26.179680">
        <ele>269.216817</ele>
        <time>2019-06-05T12:00:21.000Z</time>
      </trkpt>
      <trkpt lat="50.634644" lon="26.179811">
        <ele>269.445215</ele>
        <time>2019-06-05T12:00:25.000Z</time>
      </trkpt>
      <trkpt lat="50.634716" lon="26.179962">
        <ele>269.541696</ele>
        <time>2019-06-05T12:00:29.000Z</time>
      </trkpt>
      <trkpt lat="50.634780" lon="26.180119">
        <ele>269.398300</ele>
        <time>2019-06-05T12:00:33.000Z</time>
      </trkpt>
      <trkpt lat="50.634842" lon="26.180246">
        <ele>269.275163</ele>
        <time>2019-06-05T12:00:36.000Z</time>
      </trkpt>
      <trkpt lat="50.634914" lon="26.180378">
        <ele>269.141396</ele>
        <time>2019-06-05T12:00:39.000Z</time>
      </trkpt>
      <trkpt lat="50.634975" lon="26.180510">
        <ele>269.015910</ele>
        <time>2019-06-05T12:00:42.000Z</time>
      </trkpt>
      <trkpt lat="50.635040" lon="26.180634">
        <ele>268.892309</ele>
        <time>2019-06-05T12:00:45.000Z</time>
      </trkpt>
      <trkpt lat="50.635117" lon="26.180782">
        <ele>268.745232</ele>
        <time>2019-06-05T12:00:48.000Z</time>
      </trkpt>
      <trkpt lat="50.635197" lon="26.180935">
        <ele>268.592880</ele>
        <time>2019-06-05T12:00:51.000Z</time>
      </trkpt>
      <trkpt lat="50.635273" lon="26.181095">
        <ele>268.439293</ele>
        <time>2019-06-05T12:00:54.000Z</time>
      </trkpt>
      <trkpt lat="50.635357" lon="26.181250">
        <ele>268.282649</ele>
        <time>2019-06-05T12:00:57.000Z</time>
      </trkpt>
      <trkpt lat="50.635418" lon="26.181364">
        <ele>268.168052</ele>
        <time>2019-06-05T12:00:59.000Z</time>
      </trkpt>
      <trkpt lat="50.635480" lon="26.181473">
        <ele>268.055558</ele>
        <time>2019-06-05T12:01:01.000Z</time>
      </trkpt>
      <trkpt lat="50.635540" lon="26.181597">
        <ele>267.935726</ele>
        <time>2019-06-05T12:01:03.000Z</time>
      </trkpt>
      <trkpt lat="50.635593" lon="26.181717">
        <ele>267.823374</ele>
        <time>2019-06-05T12:01:05.000Z</time>
      </trkpt>
      <trkpt lat="50.635650" lon="26.181839">
        <ele>267.706951</ele>
        <time>2019-06-05T12:01:07.000Z</time>
      </trkpt>
      <trkpt lat="50.635715" lon="26.181952">
        <ele>267.589742</ele>
        <time>2019-06-05T12:01:09.000Z</time>
      </trkpt>
      <trkpt lat="50.635777" lon="26.182064">
        <ele>267.475522</ele>
        <time>2019-06-05T12:01:11.000Z</time>
      </trkpt>
      <trkpt lat="50.635834" lon="26.182178">
        <ele>267.380765</ele>
        <time>2019-06-05T12:01:13.000Z</time>
      </trkpt>
      <trkpt lat="50.635890" lon="26.182293">
        <ele>267.304435</ele>
        <time>2019-06-05T12:01:15.000Z</time>
      </trkpt>
      <trkpt lat="50.635970" lon="26.182463">
        <ele>267.192991</ele>
        <time>2019-06-05T12:01:18.000Z</time>
      </trkpt>
      <trkpt lat="50.636032" lon="26.182571">
        <ele>267.116300</ele>
        <time>2019-06-05T12:01:20.000Z</time>
      </trkpt>
      <trkpt lat="50.636097" lon="26.182686">
        <ele>267.035204</ele>
        <time>2019-06-05T12:01:22.000Z</time>
      </trkpt>
      <trkpt lat="50.636158" lon="26.182810">
        <ele>266.952588</ele>
        <time>2019-06-05T12:01:24.000Z</time>
      </trkpt>
      <trkpt lat="50.636220" lon="26.182924">
        <ele>266.873527</ele>
        <time>2019-06-05T12:01:26.000Z</time>
      </trkpt>
      <trkpt lat="50.636280" lon="26.183037">
        <ele>266.795941</ele>
        <time>2019-06-05T12:01:28.000Z</time>
      </trkpt>
      <trkpt lat="50.636340" lon="26.183163">
        <ele>266.712991</ele>
        <time>2019-06-05T12:01:30.000Z</time>
      </trkpt>
      <trkpt lat="50.636400" lon="26.183287">
        <ele>266.630881</ele>
        <time>2019-06-05T12:01:32.000Z</time>
      </trkpt>
      <trkpt lat="50.636450" lon="26.183405">
        <ele>266.556170</ele>
        <time>2019-06-05T12:01:34.000Z</time>
      </trkpt>
      <trkpt lat="50.636530" lon="26.183558">
        <ele>266.451778</ele>
        <time>2019-06-05T12:01:37.000Z</time>
      </trkpt>
      <trkpt lat="50.636604" lon="26.183695">
        <ele>266.357041</ele>
        <time>2019-06-05T12:01:40.000Z</time>
      </trkpt>
      <trkpt lat="50.636665" lon="26.183836">
        <ele>266.267186</ele>
        <time>2019-06-05T12:01:43.000Z</time>
      </trkpt>
      <trkpt lat="50.636738" lon="26.183968">
        <ele>266.174985</ele>
        <time>2019-06-05T12:01:46.000Z</time>
      </trkpt>
      <trkpt lat="50.636806" lon="26.184103">
        <ele>266.084226</ele>
        <time>2019-06-05T12:01:49.000Z</time>
      </trkpt>
      <trkpt lat="50.636870" lon="26.184237">
        <ele>265.995915</ele>
        <time>2019-06-05T12:01:52.000Z</time>
      </trkpt>
      <trkpt lat="50.636936" lon="26.184370">
        <ele>265.920097</ele>
        <time>2019-06-05T12:01:55.000Z</time>
      </trkpt>
      <trkpt lat="50.637012" lon="26.184515">
        <ele>265.896074</ele>
        <time>2019-06-05T12:01:58.000Z</time>
      </trkpt>
      <trkpt lat="50.637077" lon="26.184649">
        <ele>265.874530</ele>
        <time>2019-06-05T12:02:01.000Z</time>
      </trkpt>
      <trkpt lat="50.637150" lon="26.184770">
        <ele>265.853202</ele>
        <time>2019-06-05T12:02:04.000Z</time>
      </trkpt>
      <trkpt lat="50.637210" lon="26.184904">
        <ele>265.832254</ele>
        <time>2019-06-05T12:02:07.000Z</time>
      </trkpt>
      <trkpt lat="50.637280" lon="26.185038">
        <ele>265.810084</ele>
        <time>2019-06-05T12:02:10.000Z</time>
      </trkpt>
      <trkpt lat="50.637350" lon="26.185177">
        <ele>265.787417</ele>
        <time>2019-06-05T12:02:13.000Z</time>
      </trkpt>
      <trkpt lat="50.637413" lon="26.185308">
        <ele>265.766421</ele>
        <time>2019-06-05T12:02:16.000Z</time>
      </trkpt>
      <trkpt lat="50.637490" lon="26.185429">
        <ele>265.744531</ele>
        <time>2019-06-05T12:02:19.000Z</time>
      </trkpt>
      <trkpt lat="50.637554" lon="26.185558">
        <ele>265.723615</ele>
        <time>2019-06-05T12:02:22.000Z</time>
      </trkpt>
      <trkpt lat="50.637620" lon="26.185682">
        <ele>265.702942</ele>
        <time>2019-06-05T12:02:25.000Z</time>
      </trkpt>
      <trkpt lat="50.637684" lon="26.185800">
        <ele>265.683113</ele>
        <time>2019-06-05T12:02:28.000Z</time>
      </trkpt>
      <trkpt lat="50.637750" lon="26.185940">
        <ele>265.660836</ele>
        <time>2019-06-05T12:02:31.000Z</time>
      </trkpt>
      <trkpt lat="50.637817" lon="26.186060">
        <ele>265.640419</ele>
        <time>2019-06-05T12:02:34.000Z</time>
      </trkpt>
      <trkpt lat="50.637882" lon="26.186201">
        <ele>265.618158</ele>
        <time>2019-06-05T12:02:37.000Z</time>
      </trkpt>
      <trkpt lat="50.637966" lon="26.186356">
        <ele>265.592121</ele>
        <time>2019-06-05T12:02:40.000Z</time>
      </trkpt>
      <trkpt lat="50.638023" lon="26.186472">
        <ele>265.573381</ele>
        <time>2019-06-05T12:02:42.000Z</time>
      </trkpt>
      <trkpt lat="50.638080" lon="26.186586">
        <ele>265.477288</ele>
        <time>2019-06-05T12:02:44.000Z</time>
      </trkpt>
      <trkpt lat="50.638138" lon="26.186697">
        <ele>265.262991</ele>
        <time>2019-06-05T12:02:46.000Z</time>
      </trkpt>
      <trkpt lat="50.638203" lon="26.186827">
        <ele>265.016329</ele>
        <time>2019-06-05T12:02:48.000Z</time>
      </trkpt>
      <trkpt lat="50.638264" lon="26.186949">
        <ele>264.784847</ele>
        <time>2019-06-05T12:02:50.000Z</time>
      </trkpt>
      <trkpt lat="50.638325" lon="26.187070">
        <ele>264.554532</ele>
        <time>2019-06-05T12:02:52.000Z</time>
      </trkpt>
      <trkpt lat="50.638386" lon="26.187191">
        <ele>264.324219</ele>
        <time>2019-06-05T12:02:54.000Z</time>
      </trkpt>
      <trkpt lat="50.638450" lon="26.187307">
        <ele>264.095126</ele>
        <time>2019-06-05T12:02:56.000Z</time>
      </trkpt>
      <trkpt lat="50.638508" lon="26.187426">
        <ele>263.871501</ele>
        <time>2019-06-05T12:02:58.000Z</time>
      </trkpt>
      <trkpt lat="50.638615" lon="26.187622">
        <ele>263.486164</ele>
        <time>2019-06-05T12:03:01.000Z</time>
      </trkpt>
      <trkpt lat="50.638687" lon="26.187760">
        <ele>263.219903</ele>
        <time>2019-06-05T12:03:03.000Z</time>
      </trkpt>
      <trkpt lat="50.638756" lon="26.187893">
        <ele>262.963873</ele>
        <time>2019-06-05T12:03:05.000Z</time>
      </trkpt>
      <trkpt lat="50.638830" lon="26.188040">
        <ele>262.684229</ele>
        <time>2019-06-05T12:03:07.000Z</time>
      </trkpt>
      <trkpt lat="50.638893" lon="26.188189">
        <ele>262.417402</ele>
        <time>2019-06-05T12:03:09.000Z</time>
      </trkpt>
      <trkpt lat="50.638958" lon="26.188316">
        <ele>262.174237</ele>
        <time>2019-06-05T12:03:11.000Z</time>
      </trkpt>
      <trkpt lat="50.639023" lon="26.188456">
        <ele>261.915712</ele>
        <time>2019-06-05T12:03:13.000Z</time>
      </trkpt>
      <trkpt lat="50.639088" lon="26.188591">
        <ele>261.663161</ele>
        <time>2019-06-05T12:03:15.000Z</time>
      </trkpt>
      <trkpt lat="50.639156" lon="26.188719">
        <ele>261.414369</ele>
        <time>2019-06-05T12:03:17.000Z</time>
      </trkpt>
      <trkpt lat="50.639217" lon="26.188854">
        <ele>261.287101</ele>
        <time>2019-06-05T12:03:19.000Z</time>
      </trkpt>
      <trkpt lat="50.639282" lon="26.188969">
        <ele>261.220184</ele>
        <time>2019-06-05T12:03:21.000Z</time>
      </trkpt>
      <trkpt lat="50.639343" lon="26.189093">
        <ele>261.152013</ele>
        <time>2019-06-05T12:03:23.000Z</time>
      </trkpt>
      <trkpt lat="50.639400" lon="26.189209">
        <ele>261.088267</ele>
        <time>2019-06-05T12:03:25.000Z</time>
      </trkpt>
      <trkpt lat="50.639465" lon="26.189322">
        <ele>261.021997</ele>
        <time>2019-06-05T12:03:27.000Z</time>
      </trkpt>
      <trkpt lat="50.639523" lon="26.189436">
        <ele>260.958509</ele>
        <time>2019-06-05T12:03:29.000Z</time>
      </trkpt>
      <trkpt lat="50.639600" lon="26.189592">
        <ele>260.872637</ele>
        <time>2019-06-05T12:03:32.000Z</time>
      </trkpt>
      <trkpt lat="50.639652" lon="26.189707">
        <ele>260.811284</ele>
        <time>2019-06-05T12:03:34.000Z</time>
      </trkpt>
      <trkpt lat="50.639720" lon="26.189863">
        <ele>260.729055</ele>
        <time>2019-06-05T12:03:37.000Z</time>
      </trkpt>
      <trkpt lat="50.639793" lon="26.190008">
        <ele>260.648633</ele>
        <time>2019-06-05T12:03:40.000Z</time>
      </trkpt>
      <trkpt lat="50.639877" lon="26.190130">
        <ele>260.570409</ele>
        <time>2019-06-05T12:03:43.000Z</time>
      </trkpt>
      <trkpt lat="50.639946" lon="26.190268">
        <ele>260.494072</ele>
        <time>2019-06-05T12:03:46.000Z</time>
      </trkpt>
      <trkpt lat="50.640020" lon="26.190422">
        <ele>260.410141</ele>
        <time>2019-06-05T12:03:49.000Z</time>
      </trkpt>
      <trkpt lat="50.640090" lon="26.190567">
        <ele>260.330981</ele>
        <time>2019-06-05T12:03:52.000Z</time>
      </trkpt>
      <trkpt lat="50.640194" lon="26.190756">
        <ele>260.222284</ele>
        <time>2019-06-05T12:03:56.000Z</time>
      </trkpt>
      <trkpt lat="50.640266" lon="26.190916">
        <ele>260.137062</ele>
        <time>2019-06-05T12:03:59.000Z</time>
      </trkpt>
      <trkpt lat="50.640312" lon="26.191038">
        <ele>260.109876</ele>
        <time>2019-06-05T12:04:01.000Z</time>
      </trkpt>
      <trkpt lat="50.640347" lon="26.191233">
        <ele>260.126614</ele>
        <time>2019-06-05T12:04:04.000Z</time>
      </trkpt>
      <trkpt lat="50.640377" lon="26.191404">
        <ele>260.141268</ele>
        <time>2019-06-05T12:04:07.000Z</time>
      </trkpt>
      <trkpt lat="50.640440" lon="26.191538">
        <ele>260.155045</ele>
        <time>2019-06-05T12:04:10.000Z</time>
      </trkpt>
      <trkpt lat="50.640500" lon="26.191671">
        <ele>260.168526</ele>
        <time>2019-06-05T12:04:14.000Z</time>
      </trkpt>
      <trkpt lat="50.640545" lon="26.191793">
        <ele>260.180182</ele>
        <time>2019-06-05T12:04:19.000Z</time>
      </trkpt>
      <trkpt lat="50.640610" lon="26.191923">
        <ele>260.193855</ele>
        <time>2019-06-05T12:06:13.000Z</time>
      </trkpt>
      <trkpt lat="50.640675" lon="26.192080">
        <ele>260.209341</ele>
        <time>2019-06-05T12:06:17.000Z</time>
      </trkpt>
      <trkpt lat="50.640760" lon="26.192205">
        <ele>260.224478</ele>
        <time>2019-06-05T12:06:20.000Z</time>
      </trkpt>
      <trkpt lat="50.640827" lon="26.192356">
        <ele>260.239698</ele>
        <time>2019-06-05T12:06:23.000Z</time>
      </trkpt>
      <trkpt lat="50.640900" lon="26.192474">
        <ele>260.253313</ele>
        <time>2019-06-05T12:06:26.000Z</time>
      </trkpt>
      <trkpt lat="50.640970" lon="26.192575">
        <ele>260.265670</ele>
        <time>2019-06-05T12:06:29.000Z</time>
      </trkpt>
      <trkpt lat="50.641045" lon="26.192717">
        <ele>260.280933</ele>
        <time>2019-06-05T12:06:33.000Z</time>
      </trkpt>
      <trkpt lat="50.641100" lon="26.192884">
        <ele>260.296475</ele>
        <time>2019-06-05T12:06:37.000Z</time>
      </trkpt>
      <trkpt lat="50.641167" lon="26.193000">
        <ele>260.309434</ele>
        <time>2019-06-05T12:06:40.000Z</time>
      </trkpt>
      <trkpt lat="50.641254" lon="26.193130">
        <ele>260.325043</ele>
        <time>2019-06-05T12:06:44.000Z</time>
      </trkpt>
      <trkpt lat="50.641330" lon="26.193247">
        <ele>260.348888</ele>
        <time>2019-06-05T12:06:48.000Z</time>
      </trkpt>
      <trkpt lat="50.641390" lon="26.193375">
        <ele>260.865899</ele>
        <time>2019-06-05T12:06:52.000Z</time>
      </trkpt>
      <trkpt lat="50.641470" lon="26.193481">
        <ele>261.401101</ele>
        <time>2019-06-05T12:06:56.000Z</time>
      </trkpt>
      <trkpt lat="50.641530" lon="26.193610">
        <ele>261.920726</ele>
        <time>2019-06-05T12:07:00.000Z</time>
      </trkpt>
      <trkpt lat="50.641586" lon="26.193730">
        <ele>262.404663</ele>
        <time>2019-06-05T12:07:05.000Z</time>
      </trkpt>
      <trkpt lat="50.641647" lon="26.193870">
        <ele>262.956390</ele>
        <time>2019-06-05T12:07:10.000Z</time>
      </trkpt>
      <trkpt lat="50.641710" lon="26.193996">
        <ele>263.477561</ele>
        <time>2019-06-05T12:07:14.000Z</time>
      </trkpt>
      <trkpt lat="50.641773" lon="26.194107">
        <ele>263.961412</ele>
        <time>2019-06-05T12:07:18.000Z</time>
      </trkpt>
      <trkpt lat="50.641838" lon="26.194223">
        <ele>264.464206</ele>
        <time>2019-06-05T12:07:22.000Z</time>
      </trkpt>
      <trkpt lat="50.641895" lon="26.194338">
        <ele>264.938296</ele>
        <time>2019-06-05T12:07:26.000Z</time>
      </trkpt>
      <trkpt lat="50.641956" lon="26.194445">
        <ele>265.405634</ele>
        <time>2019-06-05T12:07:30.000Z</time>
      </trkpt>
      <trkpt lat="50.642006" lon="26.194561">
        <ele>265.861208</ele>
        <time>2019-06-05T12:07:34.000Z</time>
      </trkpt>
      <trkpt lat="50.642063" lon="26.194675">
        <ele>266.332741</ele>
        <time>2019-06-05T12:07:38.000Z</time>
      </trkpt>
      <trkpt lat="50.642120" lon="26.194792">
        <ele>266.811964</ele>
        <time>2019-06-05T12:07:42.000Z</time>
      </trkpt>
      <trkpt lat="50.642180" lon="26.194937">
        <ele>267.374332</ele>
        <time>2019-06-05T12:07:47.000Z</time>
      </trkpt>
      <trkpt lat="50.642254" lon="26.195055">
        <ele>267.913364</ele>
        <time>2019-06-05T12:07:52.000Z</time>
      </trkpt>
      <trkpt lat="50.642323" lon="26.195173">
        <ele>268.434707</ele>
        <time>2019-06-05T12:07:57.000Z</time>
      </trkpt>
      <trkpt lat="50.642390" lon="26.195274">
        <ele>268.909453</ele>
        <time>2019-06-05T12:08:02.000Z</time>
      </trkpt>
      <trkpt lat="50.642452" lon="26.195410">
        <ele>269.453489</ele>
        <time>2019-06-05T12:08:07.000Z</time>
      </trkpt>
      <trkpt lat="50.642520" lon="26.195545">
        <ele>269.502924</ele>
        <time>2019-06-05T12:08:12.000Z</time>
      </trkpt>
      <trkpt lat="50.642580" lon="26.195686">
        <ele>269.445529</ele>
        <time>2019-06-05T12:08:17.000Z</time>
      </trkpt>
      <trkpt lat="50.642647" lon="26.195818">
        <ele>269.388381</ele>
        <time>2019-06-05T12:08:21.000Z</time>
      </trkpt>
      <trkpt lat="50.642708" lon="26.195953">
        <ele>269.332351</ele>
        <time>2019-06-05T12:08:25.000Z</time>
      </trkpt>
      <trkpt lat="50.642770" lon="26.196085">
        <ele>269.276829</ele>
        <time>2019-06-05T12:08:29.000Z</time>
      </trkpt>
      <trkpt lat="50.642830" lon="26.196196">
        <ele>269.227530</ele>
        <time>2019-06-05T12:08:33.000Z</time>
      </trkpt>
      <trkpt lat="50.642895" lon="26.196314">
        <ele>269.174699</ele>
        <time>2019-06-05T12:08:38.000Z</time>
      </trkpt>
      <trkpt lat="50.642963" lon="26.196447">
        <ele>269.116953</ele>
        <time>2019-06-05T12:08:43.000Z</time>
      </trkpt>
      <trkpt lat="50.643055" lon="26.196491">
        <ele>269.065711</ele>
        <time>2019-06-05T12:08:47.000Z</time>
      </trkpt>
      <trkpt lat="50.643130" lon="26.196620">
        <ele>269.006557</ele>
        <time>2019-06-05T12:08:51.000Z</time>
      </trkpt>
      <trkpt lat="50.643190" lon="26.196732">
        <ele>268.957000</ele>
        <time>2019-06-05T12:08:54.000Z</time>
      </trkpt>
      <trkpt lat="50.643250" lon="26.196863">
        <ele>268.902381</ele>
        <time>2019-06-05T12:08:57.000Z</time>
      </trkpt>
      <trkpt lat="50.643310" lon="26.196997">
        <ele>268.846936</ele>
        <time>2019-06-05T12:09:00.000Z</time>
      </trkpt>
      <trkpt lat="50.643380" lon="26.197134">
        <ele>268.787469</ele>
        <time>2019-06-05T12:09:03.000Z</time>
      </trkpt>
      <trkpt lat="50.643444" lon="26.197268">
        <ele>268.730767</ele>
        <time>2019-06-05T12:09:06.000Z</time>
      </trkpt>
      <trkpt lat="50.643505" lon="26.197397">
        <ele>268.676377</ele>
        <time>2019-06-05T12:09:09.000Z</time>
      </trkpt>
      <trkpt lat="50.643570" lon="26.197523">
        <ele>268.621477</ele>
        <time>2019-06-05T12:09:12.000Z</time>
      </trkpt>
      <trkpt lat="50.643654" lon="26.197693">
        <ele>268.458947</ele>
        <time>2019-06-05T12:09:16.000Z</time>
      </trkpt>
      <trkpt lat="50.643710" lon="26.197823">
        <ele>268.296879</ele>
        <time>2019-06-05T12:09:19.000Z</time>
      </trkpt>
      <trkpt lat="50.643776" lon="26.197952">
        <ele>268.125950</ele>
        <time>2019-06-05T12:09:22.000Z</time>
      </trkpt>
      <trkpt lat="50.643850" lon="26.198076">
        <ele>267.950356</ele>
        <time>2019-06-05T12:09:25.000Z</time>
      </trkpt>
      <trkpt lat="50.643917" lon="26.198202">
        <ele>267.780783</ele>
        <time>2019-06-05T12:09:28.000Z</time>
      </trkpt>
      <trkpt lat="50.643990" lon="26.198310">
        <ele>267.618004</ele>
        <time>2019-06-05T12:09:31.000Z</time>
      </trkpt>
      <trkpt lat="50.644054" lon="26.198452">
        <ele>267.438350</ele>
        <time>2019-06-05T12:09:34.000Z</time>
      </trkpt>
      <trkpt lat="50.644130" lon="26.198603">
        <ele>267.239547</ele>
        <time>2019-06-05T12:09:37.000Z</time>
      </trkpt>
      <trkpt lat="50.644196" lon="26.198734">
        <ele>267.067008</ele>
        <time>2019-06-05T12:09:40.000Z</time>
      </trkpt>
      <trkpt lat="50.644260" lon="26.198887">
        <ele>266.877994</ele>
        <time>2019-06-05T12:09:43.000Z</time>
      </trkpt>
      <trkpt lat="50.644290" lon="26.199045">
        <ele>266.707912</ele>
        <time>2019-06-05T12:09:46.000Z</time>
      </trkpt>
      <trkpt lat="50.644280" lon="26.199190">
        <ele>266.557502</ele>
        <time>2019-06-05T12:09:49.000Z</time>
      </trkpt>
      <trkpt lat="50.644260" lon="26.199340">
        <ele>266.399435</ele>
        <time>2019-06-05T12:09:52.000Z</time>
      </trkpt>
      <trkpt lat="50.644207" lon="26.199497">
        <ele>266.216019</ele>
        <time>2019-06-05T12:09:55.000Z</time>
      </trkpt>
      <trkpt lat="50.644140" lon="26.199667">
        <ele>266.009609</ele>
        <time>2019-06-05T12:09:58.000Z</time>
      </trkpt>
      <trkpt lat="50.644123" lon="26.199858">
        <ele>265.810712</ele>
        <time>2019-06-05T12:10:01.000Z</time>
      </trkpt>
      <trkpt lat="50.644104" lon="26.200033">
        <ele>265.600105</ele>
        <time>2019-06-05T12:10:04.000Z</time>
      </trkpt>
      <trkpt lat="50.644090" lon="26.200209">
        <ele>265.290635</ele>
        <time>2019-06-05T12:10:07.000Z</time>
      </trkpt>
      <trkpt lat="50.644073" lon="26.200386">
        <ele>264.978305</ele>
        <time>2019-06-05T12:10:10.000Z</time>
      </trkpt>
      <trkpt lat="50.644028" lon="26.200525">
        <ele>264.706020</ele>
        <time>2019-06-05T12:10:13.000Z</time>
      </trkpt>
      <trkpt lat="50.643950" lon="26.200644">
        <ele>264.407427</ele>
        <time>2019-06-05T12:10:16.000Z</time>
      </trkpt>
      <trkpt lat="50.643867" lon="26.200737">
        <ele>264.127296</ele>
        <time>2019-06-05T12:10:19.000Z</time>
      </trkpt>
      <trkpt lat="50.643776" lon="26.200861">
        <ele>263.796409</ele>
        <time>2019-06-05T12:10:22.000Z</time>
      </trkpt>
      <trkpt lat="50.643680" lon="26.201006">
        <ele>263.430678</ele>
        <time>2019-06-05T12:10:25.000Z</time>
      </trkpt>
      <trkpt lat="50.643612" lon="26.201101">
        <ele>263.180732</ele>
        <time>2019-06-05T12:10:27.000Z</time>
      </trkpt>
      <trkpt lat="50.643530" lon="26.201206">
        <ele>262.890117</ele>
        <time>2019-06-05T12:10:29.000Z</time>
      </trkpt>
      <trkpt lat="50.643440" lon="26.201313">
        <ele>262.580015</ele>
        <time>2019-06-05T12:10:31.000Z</time>
      </trkpt>
      <trkpt lat="50.643353" lon="26.201414">
        <ele>262.282785</ele>
        <time>2019-06-05T12:10:33.000Z</time>
      </trkpt>
      <trkpt lat="50.643260" lon="26.201529">
        <ele>261.957631</ele>
        <time>2019-06-05T12:10:35.000Z</time>
      </trkpt>
      <trkpt lat="50.643150" lon="26.201635">
        <ele>261.602957</ele>
        <time>2019-06-05T12:10:37.000Z</time>
      </trkpt>
      <trkpt lat="50.643047" lon="26.201756">
        <ele>261.249585</ele>
        <time>2019-06-05T12:10:39.000Z</time>
      </trkpt>
      <trkpt lat="50.642937" lon="26.201889">
        <ele>260.868223</ele>
        <time>2019-06-05T12:10:41.000Z</time>
      </trkpt>
      <trkpt lat="50.642826" lon="26.202023">
        <ele>260.354153</ele>
        <time>2019-06-05T12:10:43.000Z</time>
      </trkpt>
      <trkpt lat="50.642715" lon="26.202171">
        <ele>259.734114</ele>
        <time>2019-06-05T12:10:45.000Z</time>
      </trkpt>
      <trkpt lat="50.642620" lon="26.202337">
        <ele>259.129271</ele>
        <time>2019-06-05T12:10:47.000Z</time>
      </trkpt>
      <trkpt lat="50.642530" lon="26.202507">
        <ele>258.530238</ele>
        <time>2019-06-05T12:10:49.000Z</time>
      </trkpt>
      <trkpt lat="50.642437" lon="26.202663">
        <ele>257.951071</ele>
        <time>2019-06-05T12:10:51.000Z</time>
      </trkpt>
      <trkpt lat="50.642338" lon="26.202814">
        <ele>257.363565</ele>
        <time>2019-06-05T12:10:53.000Z</time>
      </trkpt>
      <trkpt lat="50.642250" lon="26.202955">
        <ele>256.828427</ele>
        <time>2019-06-05T12:10:55.000Z</time>
      </trkpt>
      <trkpt lat="50.642166" lon="26.203085">
        <ele>256.326389</ele>
        <time>2019-06-05T12:10:57.000Z</time>
      </trkpt>
      <trkpt lat="50.642086" lon="26.203200">
        <ele>255.864636</ele>
        <time>2019-06-05T12:10:59.000Z</time>
      </trkpt>
      <trkpt lat="50.642014" lon="26.203289">
        <ele>255.474404</ele>
        <time>2019-06-05T12:11:01.000Z</time>
      </trkpt>
      <trkpt lat="50.641910" lon="26.203411">
        <ele>254.921499</ele>
        <time>2019-06-05T12:11:04.000Z</time>
      </trkpt>
      <trkpt lat="50.641853" lon="26.203522">
        <ele>254.535144</ele>
        <time>2019-06-05T12:11:07.000Z</time>
      </trkpt>
      <trkpt lat="50.641785" lon="26.203630">
        <ele>254.123463</ele>
        <time>2019-06-05T12:11:11.000Z</time>
      </trkpt>
      <trkpt lat="50.641680" lon="26.203730">
        <ele>253.600233</ele>
        <time>2019-06-05T12:11:15.000Z</time>
      </trkpt>
      <trkpt lat="50.641575" lon="26.203808">
        <ele>253.105141</ele>
        <time>2019-06-05T12:11:18.000Z</time>
      </trkpt>
      <trkpt lat="50.641483" lon="26.203900">
        <ele>252.683428</ele>
        <time>2019-06-05T12:11:21.000Z</time>
      </trkpt>
      <trkpt lat="50.641380" lon="26.204037">
        <ele>252.169456</ele>
        <time>2019-06-05T12:11:24.000Z</time>
      </trkpt>
      <trkpt lat="50.641308" lon="26.204142">
        <ele>251.795384</ele>
        <time>2019-06-05T12:11:26.000Z</time>
      </trkpt>
      <trkpt lat="50.641235" lon="26.204245">
        <ele>251.421746</ele>
        <time>2019-06-05T12:11:28.000Z</time>
      </trkpt>
      <trkpt lat="50.641167" lon="26.204351">
        <ele>251.057031</ele>
        <time>2019-06-05T12:11:30.000Z</time>
      </trkpt>
      <trkpt lat="50.641087" lon="26.204460">
        <ele>250.653756</ele>
        <time>2019-06-05T12:11:32.000Z</time>
      </trkpt>
      <trkpt lat="50.641000" lon="26.204580">
        <ele>250.212874</ele>
        <time>2019-06-05T12:11:34.000Z</time>
      </trkpt>
      <trkpt lat="50.640915" lon="26.204685">
        <ele>249.801019</ele>
        <time>2019-06-05T12:11:36.000Z</time>
      </trkpt>
      <trkpt lat="50.640830" lon="26.204794">
        <ele>249.383127</ele>
        <time>2019-06-05T12:11:38.000Z</time>
      </trkpt>
      <trkpt lat="50.640750" lon="26.204906">
        <ele>248.975070</ele>
        <time>2019-06-05T12:11:40.000Z</time>
      </trkpt>
      <trkpt lat="50.640670" lon="26.205010">
        <ele>248.579596</ele>
        <time>2019-06-05T12:11:42.000Z</time>
      </trkpt>
      <trkpt lat="50.640610" lon="26.205122">
        <ele>248.224949</ele>
        <time>2019-06-05T12:11:44.000Z</time>
      </trkpt>
      <trkpt lat="50.640530" lon="26.205206">
        <ele>247.858344</ele>
        <time>2019-06-05T12:11:46.000Z</time>
      </trkpt>
      <trkpt lat="50.640450" lon="26.205305">
        <ele>247.470450</ele>
        <time>2019-06-05T12:11:48.000Z</time>
      </trkpt>
      <trkpt lat="50.640377" lon="26.205423">
        <ele>247.071696</ele>
        <time>2019-06-05T12:11:50.000Z</time>
      </trkpt>
      <trkpt lat="50.640300" lon="26.205528">
        <ele>246.683403</ele>
        <time>2019-06-05T12:11:52.000Z</time>
      </trkpt>
      <trkpt lat="50.640217" lon="26.205618">
        <ele>246.299186</ele>
        <time>2019-06-05T12:11:54.000Z</time>
      </trkpt>
      <trkpt lat="50.640137" lon="26.205706">
        <ele>245.921305</ele>
        <time>2019-06-05T12:11:56.000Z</time>
      </trkpt>
      <trkpt lat="50.640060" lon="26.205791">
        <ele>245.554722</ele>
        <time>2019-06-05T12:11:58.000Z</time>
      </trkpt>
      <trkpt lat="50.639996" lon="26.205890">
        <ele>245.205064</ele>
        <time>2019-06-05T12:12:00.000Z</time>
      </trkpt>
      <trkpt lat="50.639890" lon="26.206028">
        <ele>244.668957</ele>
        <time>2019-06-05T12:12:03.000Z</time>
      </trkpt>
      <trkpt lat="50.639824" lon="26.206139">
        <ele>244.292616</ele>
        <time>2019-06-05T12:12:05.000Z</time>
      </trkpt>
      <trkpt lat="50.639750" lon="26.206247">
        <ele>243.899361</ele>
        <time>2019-06-05T12:12:07.000Z</time>
      </trkpt>
      <trkpt lat="50.639683" lon="26.206343">
        <ele>243.546288</ele>
        <time>2019-06-05T12:12:09.000Z</time>
      </trkpt>
      <trkpt lat="50.639580" lon="26.206484">
        <ele>243.014315</ele>
        <time>2019-06-05T12:12:12.000Z</time>
      </trkpt>
      <trkpt lat="50.639515" lon="26.206585">
        <ele>242.658405</ele>
        <time>2019-06-05T12:12:14.000Z</time>
      </trkpt>
      <trkpt lat="50.639442" lon="26.206710">
        <ele>242.238111</ele>
        <time>2019-06-05T12:12:19.000Z</time>
      </trkpt>
      <trkpt lat="50.639343" lon="26.206670">
        <ele>241.839530</ele>
        <time>2019-06-05T12:12:25.000Z</time>
      </trkpt>
      <trkpt lat="50.639324" lon="26.206821">
        <ele>241.458764</ele>
        <time>2019-06-05T12:12:32.000Z</time>
      </trkpt>
      <trkpt lat="50.639310" lon="26.206978">
        <ele>241.066617</ele>
        <time>2019-06-05T12:12:37.000Z</time>
      </trkpt>
      <trkpt lat="50.639220" lon="26.207113">
        <ele>240.582156</ele>
        <time>2019-06-05T12:12:41.000Z</time>
      </trkpt>
      <trkpt lat="50.639153" lon="26.207232">
        <ele>240.188563</ele>
        <time>2019-06-05T12:12:44.000Z</time>
      </trkpt>
      <trkpt lat="50.639080" lon="26.207327">
        <ele>239.819415</ele>
        <time>2019-06-05T12:12:46.000Z</time>
      </trkpt>
      <trkpt lat="50.639008" lon="26.207417">
        <ele>239.461077</ele>
        <time>2019-06-05T12:12:48.000Z</time>
      </trkpt>
      <trkpt lat="50.638935" lon="26.207518">
        <ele>239.192222</ele>
        <time>2019-06-05T12:12:50.000Z</time>
      </trkpt>
      <trkpt lat="50.638860" lon="26.207626">
        <ele>239.285228</ele>
        <time>2019-06-05T12:12:52.000Z</time>
      </trkpt>
      <trkpt lat="50.638780" lon="26.207743">
        <ele>239.385142</ele>
        <time>2019-06-05T12:12:54.000Z</time>
      </trkpt>
      <trkpt lat="50.638700" lon="26.207860">
        <ele>239.485056</ele>
        <time>2019-06-05T12:12:56.000Z</time>
      </trkpt>
      <trkpt lat="50.638620" lon="26.207966">
        <ele>239.580741</ele>
        <time>2019-06-05T12:12:58.000Z</time>
      </trkpt>
      <trkpt lat="50.638540" lon="26.208063">
        <ele>239.673150</ele>
        <time>2019-06-05T12:13:00.000Z</time>
      </trkpt>
      <trkpt lat="50.638462" lon="26.208158">
        <ele>239.763400</ele>
        <time>2019-06-05T12:13:02.000Z</time>
      </trkpt>
      <trkpt lat="50.638374" lon="26.208280">
        <ele>239.870698</ele>
        <time>2019-06-05T12:13:05.000Z</time>
      </trkpt>
      <trkpt lat="50.638294" lon="26.208387">
        <ele>239.966758</ele>
        <time>2019-06-05T12:13:08.000Z</time>
      </trkpt>
      <trkpt lat="50.638218" lon="26.208504">
        <ele>240.064019</ele>
        <time>2019-06-05T12:13:11.000Z</time>
      </trkpt>
      <trkpt lat="50.638150" lon="26.208600">
        <ele>240.147597</ele>
        <time>2019-06-05T12:13:14.000Z</time>
      </trkpt>
      <trkpt lat="50.638065" lon="26.208714">
        <ele>240.249778</ele>
        <time>2019-06-05T12:13:17.000Z</time>
      </trkpt>
      <trkpt lat="50.637980" lon="26.208824">
        <ele>240.350470</ele>
        <time>2019-06-05T12:13:20.000Z</time>
      </trkpt>
      <trkpt lat="50.637860" lon="26.208977">
        <ele>240.491781</ele>
        <time>2019-06-05T12:13:24.000Z</time>
      </trkpt>
      <trkpt lat="50.637775" lon="26.209087">
        <ele>240.592473</ele>
        <time>2019-06-05T12:13:27.000Z</time>
      </trkpt>
      <trkpt lat="50.637695" lon="26.209202">
        <ele>240.691602</ele>
        <time>2019-06-05T12:13:30.000Z</time>
      </trkpt>
      <trkpt lat="50.637615" lon="26.209310">
        <ele>240.788040</ele>
        <time>2019-06-05T12:13:33.000Z</time>
      </trkpt>
      <trkpt lat="50.637527" lon="26.209417">
        <ele>240.609688</ele>
        <time>2019-06-05T12:13:36.000Z</time>
      </trkpt>
      <trkpt lat="50.637436" lon="26.209557">
        <ele>240.269943</ele>
        <time>2019-06-05T12:13:39.000Z</time>
      </trkpt>
      <trkpt lat="50.637367" lon="26.209665">
        <ele>240.010140</ele>
        <time>2019-06-05T12:13:41.000Z</time>
      </trkpt>
      <trkpt lat="50.637287" lon="26.209776">
        <ele>239.725379</ele>
        <time>2019-06-05T12:13:43.000Z</time>
      </trkpt>
      <trkpt lat="50.637210" lon="26.209885">
        <ele>239.448862</ele>
        <time>2019-06-05T12:13:45.000Z</time>
      </trkpt>
      <trkpt lat="50.637123" lon="26.210000">
        <ele>239.145494</ele>
        <time>2019-06-05T12:13:47.000Z</time>
      </trkpt>
      <trkpt lat="50.637030" lon="26.210123">
        <ele>238.821128</ele>
        <time>2019-06-05T12:13:49.000Z</time>
      </trkpt>
      <trkpt lat="50.636944" lon="26.210253">
        <ele>238.502768</ele>
        <time>2019-06-05T12:13:51.000Z</time>
      </trkpt>
      <trkpt lat="50.636803" lon="26.210459">
        <ele>237.989104</ele>
        <time>2019-06-05T12:13:54.000Z</time>
      </trkpt>
      <trkpt lat="50.636703" lon="26.210600">
        <ele>237.630621</ele>
        <time>2019-06-05T12:13:56.000Z</time>
      </trkpt>
      <trkpt lat="50.636597" lon="26.210741">
        <ele>237.260032</ele>
        <time>2019-06-05T12:13:58.000Z</time>
      </trkpt>
      <trkpt lat="50.636494" lon="26.210878">
        <ele>236.899942</ele>
        <time>2019-06-05T12:14:00.000Z</time>
      </trkpt>
      <trkpt lat="50.636400" lon="26.211010">
        <ele>236.563577</ele>
        <time>2019-06-05T12:14:02.000Z</time>
      </trkpt>
      <trkpt lat="50.636290" lon="26.211136">
        <ele>236.200255</ele>
        <time>2019-06-05T12:14:04.000Z</time>
      </trkpt>
      <trkpt lat="50.636196" lon="26.211252">
        <ele>236.046047</ele>
        <time>2019-06-05T12:14:06.000Z</time>
      </trkpt>
      <trkpt lat="50.636100" lon="26.211370">
        <ele>236.130746</ele>
        <time>2019-06-05T12:14:08.000Z</time>
      </trkpt>
      <trkpt lat="50.636005" lon="26.211508">
        <ele>236.220627</ele>
        <time>2019-06-05T12:14:10.000Z</time>
      </trkpt>
      <trkpt lat="50.635920" lon="26.211643">
        <ele>236.304577</ele>
        <time>2019-06-05T12:14:12.000Z</time>
      </trkpt>
      <trkpt lat="50.635822" lon="26.211780">
        <ele>236.395710</ele>
        <time>2019-06-05T12:14:14.000Z</time>
      </trkpt>
      <trkpt lat="50.635730" lon="26.211922">
        <ele>236.485293</ele>
        <time>2019-06-05T12:14:16.000Z</time>
      </trkpt>
      <trkpt lat="50.635630" lon="26.212050">
        <ele>236.574918</ele>
        <time>2019-06-05T12:14:18.000Z</time>
      </trkpt>
      <trkpt lat="50.635550" lon="26.212170">
        <ele>236.651750</ele>
        <time>2019-06-05T12:14:20.000Z</time>
      </trkpt>
      <trkpt lat="50.635468" lon="26.212286">
        <ele>236.728407</ele>
        <time>2019-06-05T12:14:22.000Z</time>
      </trkpt>
      <trkpt lat="50.635384" lon="26.212400">
        <ele>236.805526</ele>
        <time>2019-06-05T12:14:24.000Z</time>
      </trkpt>
      <trkpt lat="50.635310" lon="26.212513">
        <ele>236.877208</ele>
        <time>2019-06-05T12:14:26.000Z</time>
      </trkpt>
      <trkpt lat="50.635230" lon="26.212618">
        <ele>236.949637</ele>
        <time>2019-06-05T12:14:28.000Z</time>
      </trkpt>
      <trkpt lat="50.635150" lon="26.212729">
        <ele>237.023788</ele>
        <time>2019-06-05T12:14:30.000Z</time>
      </trkpt>
      <trkpt lat="50.635067" lon="26.212840">
        <ele>237.099518</ele>
        <time>2019-06-05T12:14:32.000Z</time>
      </trkpt>
      <trkpt lat="50.634995" lon="26.212930">
        <ele>237.163452</ele>
        <time>2019-06-05T12:14:34.000Z</time>
      </trkpt>
      <trkpt lat="50.634926" lon="26.213022">
        <ele>237.226329</ele>
        <time>2019-06-05T12:14:36.000Z</time>
      </trkpt>
      <trkpt lat="50.634853" lon="26.213125">
        <ele>237.472213</ele>
        <time>2019-06-05T12:14:38.000Z</time>
      </trkpt>
      <trkpt lat="50.634777" lon="26.213223">
        <ele>237.932642</ele>
        <time>2019-06-05T12:14:40.000Z</time>
      </trkpt>
      <trkpt lat="50.634710" lon="26.213318">
        <ele>238.355216</ele>
        <time>2019-06-05T12:14:42.000Z</time>
      </trkpt>
      <trkpt lat="50.634620" lon="26.213419">
        <ele>238.873278</ele>
        <time>2019-06-05T12:14:45.000Z</time>
      </trkpt>
      <trkpt lat="50.634533" lon="26.213524">
        <ele>239.387087</ele>
        <time>2019-06-05T12:14:48.000Z</time>
      </trkpt>
      <trkpt lat="50.634460" lon="26.213623">
        <ele>239.838649</ele>
        <time>2019-06-05T12:14:51.000Z</time>
      </trkpt>
      <trkpt lat="50.634377" lon="26.213745">
        <ele>240.370803</ele>
        <time>2019-06-05T12:14:55.000Z</time>
      </trkpt>
      <trkpt lat="50.634290" lon="26.213839">
        <ele>240.865408</ele>
        <time>2019-06-05T12:14:59.000Z</time>
      </trkpt>
      <trkpt lat="50.634212" lon="26.213957">
        <ele>241.372351</ele>
        <time>2019-06-05T12:15:03.000Z</time>
      </trkpt>
      <trkpt lat="50.634132" lon="26.214064">
        <ele>241.864331</ele>
        <time>2019-06-05T12:15:07.000Z</time>
      </trkpt>
      <trkpt lat="50.634060" lon="26.214172">
        <ele>242.330383</ele>
        <time>2019-06-05T12:15:11.000Z</time>
      </trkpt>
      <trkpt lat="50.633995" lon="26.214270">
        <ele>242.752150</ele>
        <time>2019-06-05T12:15:16.000Z</time>
      </trkpt>
      <trkpt lat="50.633920" lon="26.214382">
        <ele>243.236598</ele>
        <time>2019-06-05T12:15:22.000Z</time>
      </trkpt>
      <trkpt lat="50.633840" lon="26.214476">
        <ele>243.704494</ele>
        <time>2019-06-05T12:15:27.000Z</time>
      </trkpt>
      <trkpt lat="50.633778" lon="26.214596">
        <ele>244.164866</ele>
        <time>2019-06-05T12:15:33.000Z</time>
      </trkpt>
      <trkpt lat="50.633690" lon="26.214693">
        <ele>244.668408</ele>
        <time>2019-06-05T12:15:39.000Z</time>
      </trkpt>
      <trkpt lat="50.633617" lon="26.214780">
        <ele>245.097551</ele>
        <time>2019-06-05T12:15:44.000Z</time>
      </trkpt>
      <trkpt lat="50.633533" lon="26.214876">
        <ele>245.584087</ele>
        <time>2019-06-05T12:15:51.000Z</time>
      </trkpt>
      <trkpt lat="50.633480" lon="26.214996">
        <ele>245.581733</ele>
        <time>2019-06-05T12:15:58.000Z</time>
      </trkpt>
      <trkpt lat="50.633404" lon="26.215115">
        <ele>245.398921</ele>
        <time>2019-06-05T12:16:04.000Z</time>
      </trkpt>
      <trkpt lat="50.633327" lon="26.215200">
        <ele>245.238492</ele>
        <time>2019-06-05T12:16:08.000Z</time>
      </trkpt>
      <trkpt lat="50.633250" lon="26.215303">
        <ele>245.066146</ele>
        <time>2019-06-05T12:16:14.000Z</time>
      </trkpt>
      <trkpt lat="50.633183" lon="26.215403">
        <ele>244.908682</ele>
        <time>2019-06-05T12:16:19.000Z</time>
      </trkpt>
      <trkpt lat="50.633106" lon="26.215506">
        <ele>244.736336</ele>
        <time>2019-06-05T12:16:25.000Z</time>
      </trkpt>
      <trkpt lat="50.633030" lon="26.215612">
        <ele>244.563153</ele>
        <time>2019-06-05T12:16:31.000Z</time>
      </trkpt>
      <trkpt lat="50.632946" lon="26.215723">
        <ele>244.376090</ele>
        <time>2019-06-05T12:16:36.000Z</time>
      </trkpt>
      <trkpt lat="50.632877" lon="26.215818">
        <ele>244.219742</ele>
        <time>2019-06-05T12:16:42.000Z</time>
      </trkpt>
      <trkpt lat="50.632774" lon="26.215855">
        <ele>244.039445</ele>
        <time>2019-06-05T12:16:48.000Z</time>
      </trkpt>
      <trkpt lat="50.632690" lon="26.215958">
        <ele>243.857823</ele>
        <time>2019-06-05T12:16:53.000Z</time>
      </trkpt>
      <trkpt lat="50.632618" lon="26.216063">
        <ele>243.690429</ele>
        <time>2019-06-05T12:16:57.000Z</time>
      </trkpt>
      <trkpt lat="50.632538" lon="26.216148">
        <ele>243.525779</ele>
        <time>2019-06-05T12:17:01.000Z</time>
      </trkpt>
      <trkpt lat="50.632465" lon="26.216248">
        <ele>243.360727</ele>
        <time>2019-06-05T12:17:05.000Z</time>
      </trkpt>
      <trkpt lat="50.632390" lon="26.216324">
        <ele>243.208562</ele>
        <time>2019-06-05T12:17:08.000Z</time>
      </trkpt>
      <trkpt lat="50.632310" lon="26.216408">
        <ele>243.044514</ele>
        <time>2019-06-05T12:17:11.000Z</time>
      </trkpt>
      <trkpt lat="50.632230" lon="26.216509">
        <ele>242.869593</ele>
        <time>2019-06-05T12:17:14.000Z</time>
      </trkpt>
      <trkpt lat="50.632160" lon="26.216639">
        <ele>242.684988</ele>
        <time>2019-06-05T12:17:17.000Z</time>
      </trkpt>
      <trkpt lat="50.632084" lon="26.216763">
        <ele>242.247676</ele>
        <time>2019-06-05T12:17:20.000Z</time>
      </trkpt>
      <trkpt lat="50.632008" lon="26.216864">
        <ele>241.751746</ele>
        <time>2019-06-05T12:17:23.000Z</time>
      </trkpt>
      <trkpt lat="50.631927" lon="26.216974">
        <ele>241.218354</ele>
        <time>2019-06-05T12:17:26.000Z</time>
      </trkpt>
      <trkpt lat="50.631844" lon="26.217075">
        <ele>240.695236</ele>
        <time>2019-06-05T12:17:31.000Z</time>
      </trkpt>
      <trkpt lat="50.631750" lon="26.217192">
        <ele>240.097696</ele>
        <time>2019-06-05T12:17:35.000Z</time>
      </trkpt>
      <trkpt lat="50.631668" lon="26.217300">
        <ele>239.564593</ele>
        <time>2019-06-05T12:17:38.000Z</time>
      </trkpt>
      <trkpt lat="50.631580" lon="26.217410">
        <ele>239.004275</ele>
        <time>2019-06-05T12:17:41.000Z</time>
      </trkpt>
      <trkpt lat="50.631485" lon="26.217510">
        <ele>238.434352</ele>
        <time>2019-06-05T12:17:44.000Z</time>
      </trkpt>
      <trkpt lat="50.631390" lon="26.217638">
        <ele>237.810852</ele>
        <time>2019-06-05T12:17:47.000Z</time>
      </trkpt>
      <trkpt lat="50.631306" lon="26.217747">
        <ele>237.268046</ele>
        <time>2019-06-05T12:17:50.000Z</time>
      </trkpt>
      <trkpt lat="50.631220" lon="26.217861">
        <ele>236.707449</ele>
        <time>2019-06-05T12:17:54.000Z</time>
      </trkpt>
      <trkpt lat="50.631126" lon="26.217920">
        <ele>236.202654</ele>
        <time>2019-06-05T12:18:00.000Z</time>
      </trkpt>
      <trkpt lat="50.631126" lon="26.218075">
        <ele>235.712118</ele>
        <time>2019-06-05T12:18:04.000Z</time>
      </trkpt>
      <trkpt lat="50.631080" lon="26.218203">
        <ele>235.246533</ele>
        <time>2019-06-05T12:18:08.000Z</time>
      </trkpt>
      <trkpt lat="50.631000" lon="26.218310">
        <ele>234.723099</ele>
        <time>2019-06-05T12:18:11.000Z</time>
      </trkpt>
      <trkpt lat="50.630900" lon="26.218437">
        <ele>234.082418</ele>
        <time>2019-06-05T12:18:14.000Z</time>
      </trkpt>
      <trkpt lat="50.630825" lon="26.218546">
        <ele>233.674657</ele>
        <time>2019-06-05T12:18:16.000Z</time>
      </trkpt>
      <trkpt lat="50.630740" lon="26.218662">
        <ele>233.812312</ele>
        <time>2019-06-05T12:18:18.000Z</time>
      </trkpt>
      <trkpt lat="50.630650" lon="26.218792">
        <ele>233.961771</ele>
        <time>2019-06-05T12:18:20.000Z</time>
      </trkpt>
      <trkpt lat="50.630543" lon="26.218937">
        <ele>234.134534</ele>
        <time>2019-06-05T12:18:22.000Z</time>
      </trkpt>
      <trkpt lat="50.630450" lon="26.219086">
        <ele>234.296888</ele>
        <time>2019-06-05T12:18:24.000Z</time>
      </trkpt>
      <trkpt lat="50.630363" lon="26.219215">
        <ele>234.443127</ele>
        <time>2019-06-05T12:18:26.000Z</time>
      </trkpt>
      <trkpt lat="50.630280" lon="26.219336">
        <ele>234.581547</ele>
        <time>2019-06-05T12:18:28.000Z</time>
      </trkpt>
      <trkpt lat="50.630190" lon="26.219439">
        <ele>234.717720</ele>
        <time>2019-06-05T12:18:30.000Z</time>
      </trkpt>
      <trkpt lat="50.630123" lon="26.219532">
        <ele>234.827024</ele>
        <time>2019-06-05T12:18:32.000Z</time>
      </trkpt>
      <trkpt lat="50.630047" lon="26.219620">
        <ele>234.942484</ele>
        <time>2019-06-05T12:18:34.000Z</time>
      </trkpt>
      <trkpt lat="50.629950" lon="26.219723">
        <ele>235.085682</ele>
        <time>2019-06-05T12:18:37.000Z</time>
      </trkpt>
      <trkpt lat="50.629875" lon="26.219835">
        <ele>235.212174</ele>
        <time>2019-06-05T12:18:40.000Z</time>
      </trkpt>
      <trkpt lat="50.629803" lon="26.219942">
        <ele>235.333328</ele>
        <time>2019-06-05T12:18:43.000Z</time>
      </trkpt>
      <trkpt lat="50.629720" lon="26.220068">
        <ele>235.474414</ele>
        <time>2019-06-05T12:18:47.000Z</time>
      </trkpt>
      <trkpt lat="50.629640" lon="26.220163">
        <ele>235.597049</ele>
        <time>2019-06-05T12:18:51.000Z</time>
      </trkpt>
      <trkpt lat="50.629562" lon="26.220250">
        <ele>235.714041</ele>
        <time>2019-06-05T12:18:55.000Z</time>
      </trkpt>
      <trkpt lat="50.629490" lon="26.220358">
        <ele>235.835730</ele>
        <time>2019-06-05T12:18:59.000Z</time>
      </trkpt>
      <trkpt lat="50.629406" lon="26.220446">
        <ele>236.298955</ele>
        <time>2019-06-05T12:19:03.000Z</time>
      </trkpt>
      <trkpt lat="50.629333" lon="26.220535">
        <ele>236.787564</ele>
        <time>2019-06-05T12:19:07.000Z</time>
      </trkpt>
      <trkpt lat="50.629260" lon="26.220630">
        <ele>237.288755</ele>
        <time>2019-06-05T12:19:11.000Z</time>
      </trkpt>
      <trkpt lat="50.629180" lon="26.220718">
        <ele>237.805250</ele>
        <time>2019-06-05T12:19:15.000Z</time>
      </trkpt>
      <trkpt lat="50.629150" lon="26.220863">
        <ele>238.317495</ele>
        <time>2019-06-05T12:19:23.000Z</time>
      </trkpt>
      <trkpt lat="50.629070" lon="26.220978">
        <ele>238.890726</ele>
        <time>2019-06-05T12:19:28.000Z</time>
      </trkpt>
      <trkpt lat="50.628990" lon="26.221107">
        <ele>239.496636</ele>
        <time>2019-06-05T12:19:32.000Z</time>
      </trkpt>
      <trkpt lat="50.628918" lon="26.221212">
        <ele>240.015952</ele>
        <time>2019-06-05T12:19:35.000Z</time>
      </trkpt>
      <trkpt lat="50.628840" lon="26.221317">
        <ele>240.559018</ele>
        <time>2019-06-05T12:19:38.000Z</time>
      </trkpt>
      <trkpt lat="50.628770" lon="26.221410">
        <ele>241.043710</ele>
        <time>2019-06-05T12:19:41.000Z</time>
      </trkpt>
      <trkpt lat="50.628680" lon="26.221527">
        <ele>241.661356</ele>
        <time>2019-06-05T12:19:45.000Z</time>
      </trkpt>
      <trkpt lat="50.628600" lon="26.221642">
        <ele>242.234589</ele>
        <time>2019-06-05T12:19:49.000Z</time>
      </trkpt>
      <trkpt lat="50.628494" lon="26.221764">
        <ele>242.929486</ele>
        <time>2019-06-05T12:19:54.000Z</time>
      </trkpt>
      <trkpt lat="50.628407" lon="26.221855">
        <ele>243.482295</ele>
        <time>2019-06-05T12:19:59.000Z</time>
      </trkpt>
      <trkpt lat="50.628330" lon="26.221972">
        <ele>244.048536</ele>
        <time>2019-06-05T12:20:05.000Z</time>
      </trkpt>
      <trkpt lat="50.628270" lon="26.222082">
        <ele>244.535788</ele>
        <time>2019-06-05T12:20:10.000Z</time>
      </trkpt>
      <trkpt lat="50.628200" lon="26.222189">
        <ele>245.052038</ele>
        <time>2019-06-05T12:20:17.000Z</time>
      </trkpt>
      <trkpt lat="50.628124" lon="26.222307">
        <ele>245.449246</ele>
        <time>2019-06-05T12:20:22.000Z</time>
      </trkpt>
      <trkpt lat="50.628044" lon="26.222416">
        <ele>245.612591</ele>
        <time>2019-06-05T12:20:27.000Z</time>
      </trkpt>
      <trkpt lat="50.627968" lon="26.222510">
        <ele>245.761818</ele>
        <time>2019-06-05T12:20:32.000Z</time>
      </trkpt>
      <trkpt lat="50.627900" lon="26.222612">
        <ele>245.906820</ele>
        <time>2019-06-05T12:20:37.000Z</time>
      </trkpt>
      <trkpt lat="50.627827" lon="26.222723">
        <ele>246.063500</ele>
        <time>2019-06-05T12:20:41.000Z</time>
      </trkpt>
      <trkpt lat="50.627743" lon="26.222858">
        <ele>246.248809</ele>
        <time>2019-06-05T12:20:45.000Z</time>
      </trkpt>
      <trkpt lat="50.627660" lon="26.222973">
        <ele>246.419512</ele>
        <time>2019-06-05T12:20:49.000Z</time>
      </trkpt>
      <trkpt lat="50.627556" lon="26.223110">
        <ele>246.628880</ele>
        <time>2019-06-05T12:20:53.000Z</time>
      </trkpt>
      <trkpt lat="50.627476" lon="26.223206">
        <ele>246.784196</ele>
        <time>2019-06-05T12:20:56.000Z</time>
      </trkpt>
      <trkpt lat="50.627400" lon="26.223303">
        <ele>246.935256</ele>
        <time>2019-06-05T12:20:59.000Z</time>
      </trkpt>
      <trkpt lat="50.627316" lon="26.223413">
        <ele>247.103951</ele>
        <time>2019-06-05T12:21:03.000Z</time>
      </trkpt>
      <trkpt lat="50.627230" lon="26.223505">
        <ele>247.264505</ele>
        <time>2019-06-05T12:21:07.000Z</time>
      </trkpt>
      <trkpt lat="50.627144" lon="26.223620">
        <ele>247.438717</ele>
        <time>2019-06-05T12:21:11.000Z</time>
      </trkpt>
      <trkpt lat="50.627056" lon="26.223732">
        <ele>247.613434</ele>
        <time>2019-06-05T12:21:15.000Z</time>
      </trkpt>
      <trkpt lat="50.626976" lon="26.223848">
        <ele>247.781348</ele>
        <time>2019-06-05T12:21:19.000Z</time>
      </trkpt>
      <trkpt lat="50.626907" lon="26.223944">
        <ele>247.923516</ele>
        <time>2019-06-05T12:21:23.000Z</time>
      </trkpt>
      <trkpt lat="50.626820" lon="26.224064">
        <ele>248.102097</ele>
        <time>2019-06-05T12:21:27.000Z</time>
      </trkpt>
      <trkpt lat="50.626720" lon="26.224182">
        <ele>248.217442</ele>
        <time>2019-06-05T12:21:31.000Z</time>
      </trkpt>
      <trkpt lat="50.626633" lon="26.224302">
        <ele>248.294349</ele>
        <time>2019-06-05T12:21:35.000Z</time>
      </trkpt>
      <trkpt lat="50.626564" lon="26.224405">
        <ele>248.357569</ele>
        <time>2019-06-05T12:21:38.000Z</time>
      </trkpt>
      <trkpt lat="50.626495" lon="26.224516">
        <ele>248.423157</ele>
        <time>2019-06-05T12:21:41.000Z</time>
      </trkpt>
      <trkpt lat="50.626434" lon="26.224630">
        <ele>248.486098</ele>
        <time>2019-06-05T12:21:44.000Z</time>
      </trkpt>
      <trkpt lat="50.626358" lon="26.224747">
        <ele>248.556771</ele>
        <time>2019-06-05T12:21:48.000Z</time>
      </trkpt>
      <trkpt lat="50.626286" lon="26.224878">
        <ele>248.629921</ele>
        <time>2019-06-05T12:21:53.000Z</time>
      </trkpt>
      <trkpt lat="50.626198" lon="26.224997">
        <ele>248.707056</ele>
        <time>2019-06-05T12:21:57.000Z</time>
      </trkpt>
      <trkpt lat="50.626133" lon="26.225110">
        <ele>248.771432</ele>
        <time>2019-06-05T12:22:00.000Z</time>
      </trkpt>
      <trkpt lat="50.626057" lon="26.225204">
        <ele>248.835699</ele>
        <time>2019-06-05T12:22:03.000Z</time>
      </trkpt>
      <trkpt lat="50.625965" lon="26.225292">
        <ele>248.907291</ele>
        <time>2019-06-05T12:22:06.000Z</time>
      </trkpt>
      <trkpt lat="50.625847" lon="26.225428">
        <ele>249.004539</ele>
        <time>2019-06-05T12:22:10.000Z</time>
      </trkpt>
      <trkpt lat="50.625755" lon="26.225529">
        <ele>249.079125</ele>
        <time>2019-06-05T12:22:13.000Z</time>
      </trkpt>
      <trkpt lat="50.625670" lon="26.225645">
        <ele>249.153922</ele>
        <time>2019-06-05T12:22:16.000Z</time>
      </trkpt>
      <trkpt lat="50.625570" lon="26.225803">
        <ele>249.248116</ele>
        <time>2019-06-05T12:22:20.000Z</time>
      </trkpt>
      <trkpt lat="50.625496" lon="26.225922">
        <ele>249.318443</ele>
        <time>2019-06-05T12:22:23.000Z</time>
      </trkpt>
      <trkpt lat="50.625423" lon="26.226038">
        <ele>249.347446</ele>
        <time>2019-06-05T12:22:26.000Z</time>
      </trkpt>
      <trkpt lat="50.625340" lon="26.226150">
        <ele>249.329594</ele>
        <time>2019-06-05T12:22:29.000Z</time>
      </trkpt>
      <trkpt lat="50.625240" lon="26.226252">
        <ele>249.310133</ele>
        <time>2019-06-05T12:22:32.000Z</time>
      </trkpt>
      <trkpt lat="50.625153" lon="26.226366">
        <ele>249.291648</ele>
        <time>2019-06-05T12:22:35.000Z</time>
      </trkpt>
      <trkpt lat="50.625065" lon="26.226465">
        <ele>249.273983</ele>
        <time>2019-06-05T12:22:38.000Z</time>
      </trkpt>
      <trkpt lat="50.624990" lon="26.226560">
        <ele>249.258263</ele>
        <time>2019-06-05T12:22:41.000Z</time>
      </trkpt>
      <trkpt lat="50.624897" lon="26.226688">
        <ele>249.238090</ele>
        <time>2019-06-05T12:22:44.000Z</time>
      </trkpt>
      <trkpt lat="50.624813" lon="26.226803">
        <ele>249.219912</ele>
        <time>2019-06-05T12:22:47.000Z</time>
      </trkpt>
      <trkpt lat="50.624744" lon="26.226908">
        <ele>249.204241</ele>
        <time>2019-06-05T12:22:50.000Z</time>
      </trkpt>
      <trkpt lat="50.624657" lon="26.227020">
        <ele>249.185888</ele>
        <time>2019-06-05T12:22:54.000Z</time>
      </trkpt>
      <trkpt lat="50.624554" lon="26.227158">
        <ele>249.163801</ele>
        <time>2019-06-05T12:22:58.000Z</time>
      </trkpt>
      <trkpt lat="50.624485" lon="26.227266">
        <ele>249.147913</ele>
        <time>2019-06-05T12:23:01.000Z</time>
      </trkpt>
      <trkpt lat="50.624410" lon="26.227373">
        <ele>249.131385</ele>
        <time>2019-06-05T12:23:04.000Z</time>
      </trkpt>
      <trkpt lat="50.624332" lon="26.227497">
        <ele>249.113285</ele>
        <time>2019-06-05T12:23:07.000Z</time>
      </trkpt>
      <trkpt lat="50.624252" lon="26.227612">
        <ele>249.095594</ele>
        <time>2019-06-05T12:23:10.000Z</time>
      </trkpt>
      <trkpt lat="50.624170" lon="26.227734">
        <ele>249.077171</ele>
        <time>2019-06-05T12:23:13.000Z</time>
      </trkpt>
      <trkpt lat="50.624073" lon="26.227837">
        <ele>249.014439</ele>
        <time>2019-06-05T12:23:16.000Z</time>
      </trkpt>
      <trkpt lat="50.623978" lon="26.227943">
        <ele>248.750136</ele>
        <time>2019-06-05T12:23:19.000Z</time>
      </trkpt>
      <trkpt lat="50.623890" lon="26.228045">
        <ele>248.502096</ele>
        <time>2019-06-05T12:23:22.000Z</time>
      </trkpt>
      <trkpt lat="50.623810" lon="26.228157">
        <ele>248.259125</ele>
        <time>2019-06-05T12:23:25.000Z</time>
      </trkpt>
      <trkpt lat="50.623734" lon="26.228258">
        <ele>248.033394</ele>
        <time>2019-06-05T12:23:28.000Z</time>
      </trkpt>
      <trkpt lat="50.623660" lon="26.228363">
        <ele>247.807301</ele>
        <time>2019-06-05T12:23:31.000Z</time>
      </trkpt>
      <trkpt lat="50.623600" lon="26.228468">
        <ele>247.603722</ele>
        <time>2019-06-05T12:23:34.000Z</time>
      </trkpt>
      <trkpt lat="50.623512" lon="26.228579">
        <ele>247.347787</ele>
        <time>2019-06-05T12:23:37.000Z</time>
      </trkpt>
      <trkpt lat="50.623430" lon="26.228678">
        <ele>247.113238</ele>
        <time>2019-06-05T12:23:40.000Z</time>
      </trkpt>
      <trkpt lat="50.623352" lon="26.228796">
        <ele>246.867738</ele>
        <time>2019-06-05T12:23:43.000Z</time>
      </trkpt>
      <trkpt lat="50.623272" lon="26.228910">
        <ele>246.622843</ele>
        <time>2019-06-05T12:23:46.000Z</time>
      </trkpt>
      <trkpt lat="50.623207" lon="26.229025">
        <ele>246.400957</ele>
        <time>2019-06-05T12:23:49.000Z</time>
      </trkpt>
      <trkpt lat="50.623130" lon="26.229168">
        <ele>246.130748</ele>
        <time>2019-06-05T12:23:52.000Z</time>
      </trkpt>
      <trkpt lat="50.623055" lon="26.229254">
        <ele>245.920141</ele>
        <time>2019-06-05T12:23:54.000Z</time>
      </trkpt>
      <trkpt lat="50.622980" lon="26.229345">
        <ele>245.705218</ele>
        <time>2019-06-05T12:23:56.000Z</time>
      </trkpt>
      <trkpt lat="50.622902" lon="26.229435">
        <ele>245.485711</ele>
        <time>2019-06-05T12:23:58.000Z</time>
      </trkpt>
      <trkpt lat="50.622803" lon="26.229557">
        <ele>245.200352</ele>
        <time>2019-06-05T12:24:01.000Z</time>
      </trkpt>
      <trkpt lat="50.622730" lon="26.229641">
        <ele>244.995112</ele>
        <time>2019-06-05T12:24:03.000Z</time>
      </trkpt>
      <trkpt lat="50.622654" lon="26.229734">
        <ele>244.910945</ele>
        <time>2019-06-05T12:24:05.000Z</time>
      </trkpt>
      <trkpt lat="50.622555" lon="26.229876">
        <ele>244.810642</ele>
        <time>2019-06-05T12:24:08.000Z</time>
      </trkpt>
      <trkpt lat="50.622467" lon="26.230011">
        <ele>244.718623</ele>
        <time>2019-06-05T12:24:11.000Z</time>
      </trkpt>
      <trkpt lat="50.622390" lon="26.230114">
        <ele>244.642946</ele>
        <time>2019-06-05T12:24:13.000Z</time>
      </trkpt>
      <trkpt lat="50.622320" lon="26.230215">
        <ele>244.571834</ele>
        <time>2019-06-05T12:24:15.000Z</time>
      </trkpt>
      <trkpt lat="50.622242" lon="26.230320">
        <ele>244.494970</ele>
        <time>2019-06-05T12:24:17.000Z</time>
      </trkpt>
      <trkpt lat="50.622166" lon="26.230415">
        <ele>244.422285</ele>
        <time>2019-06-05T12:24:19.000Z</time>
      </trkpt>
      <trkpt lat="50.622097" lon="26.230505">
        <ele>244.355172</ele>
        <time>2019-06-05T12:24:21.000Z</time>
      </trkpt>
      <trkpt lat="50.621998" lon="26.230639">
        <ele>244.257388</ele>
        <time>2019-06-05T12:24:24.000Z</time>
      </trkpt>
      <trkpt lat="50.621902" lon="26.230762">
        <ele>244.164682</ele>
        <time>2019-06-05T12:24:27.000Z</time>
      </trkpt>
      <trkpt lat="50.621815" lon="26.230886">
        <ele>244.076788</ele>
        <time>2019-06-05T12:24:30.000Z</time>
      </trkpt>
      <trkpt lat="50.621742" lon="26.231018">
        <ele>243.993539</ele>
        <time>2019-06-05T12:24:33.000Z</time>
      </trkpt>
      <trkpt lat="50.621674" lon="26.231125">
        <ele>243.921538</ele>
        <time>2019-06-05T12:24:36.000Z</time>
      </trkpt>
      <trkpt lat="50.621620" lon="26.231237">
        <ele>243.854660</ele>
        <time>2019-06-05T12:24:39.000Z</time>
      </trkpt>
      <trkpt lat="50.621536" lon="26.231375">
        <ele>243.763741</ele>
        <time>2019-06-05T12:24:43.000Z</time>
      </trkpt>
      <trkpt lat="50.621452" lon="26.231466">
        <ele>243.687362</ele>
        <time>2019-06-05T12:24:46.000Z</time>
      </trkpt>
      <trkpt lat="50.621376" lon="26.231588">
        <ele>243.557901</ele>
        <time>2019-06-05T12:24:49.000Z</time>
      </trkpt>
      <trkpt lat="50.621310" lon="26.231728">
        <ele>243.302915</ele>
        <time>2019-06-05T12:24:52.000Z</time>
      </trkpt>
      <trkpt lat="50.621230" lon="26.231863">
        <ele>243.032855</ele>
        <time>2019-06-05T12:24:55.000Z</time>
      </trkpt>
      <trkpt lat="50.621174" lon="26.231995">
        <ele>242.800713</ele>
        <time>2019-06-05T12:24:58.000Z</time>
      </trkpt>
      <trkpt lat="50.621113" lon="26.232151">
        <ele>242.532816</ele>
        <time>2019-06-05T12:25:02.000Z</time>
      </trkpt>
      <trkpt lat="50.621050" lon="26.232304">
        <ele>242.266162</ele>
        <time>2019-06-05T12:25:06.000Z</time>
      </trkpt>
      <trkpt lat="50.621006" lon="26.232433">
        <ele>242.052046</ele>
        <time>2019-06-05T12:25:09.000Z</time>
      </trkpt>
      <trkpt lat="50.620950" lon="26.232594">
        <ele>241.783624</ele>
        <time>2019-06-05T12:25:13.000Z</time>
      </trkpt>
      <trkpt lat="50.620900" lon="26.232725">
        <ele>241.560126</ele>
        <time>2019-06-05T12:25:16.000Z</time>
      </trkpt>
      <trkpt lat="50.620850" lon="26.232864">
        <ele>241.326528</ele>
        <time>2019-06-05T12:25:19.000Z</time>
      </trkpt>
      <trkpt lat="50.620810" lon="26.233027">
        <ele>241.071028</ele>
        <time>2019-06-05T12:25:22.000Z</time>
      </trkpt>
      <trkpt lat="50.620780" lon="26.233194">
        <ele>240.817287</ele>
        <time>2019-06-05T12:25:25.000Z</time>
      </trkpt>
      <trkpt lat="50.620740" lon="26.233330">
        <ele>240.598138</ele>
        <time>2019-06-05T12:25:27.000Z</time>
      </trkpt>
      <trkpt lat="50.620712" lon="26.233477">
        <ele>240.373756</ele>
        <time>2019-06-05T12:25:29.000Z</time>
      </trkpt>
      <trkpt lat="50.620686" lon="26.233646">
        <ele>240.119528</ele>
        <time>2019-06-05T12:25:31.000Z</time>
      </trkpt>
      <trkpt lat="50.620640" lon="26.233818">
        <ele>239.846647</ele>
        <time>2019-06-05T12:25:33.000Z</time>
      </trkpt>
      <trkpt lat="50.620600" lon="26.234000">
        <ele>239.565061</ele>
        <time>2019-06-05T12:25:35.000Z</time>
      </trkpt>
      <trkpt lat="50.620564" lon="26.234192">
        <ele>238.929376</ele>
        <time>2019-06-05T12:25:37.000Z</time>
      </trkpt>
      <trkpt lat="50.620520" lon="26.234380">
        <ele>238.163323</ele>
        <time>2019-06-05T12:25:39.000Z</time>
      </trkpt>
      <trkpt lat="50.620483" lon="26.234604">
        <ele>237.278439</ele>
        <time>2019-06-05T12:25:41.000Z</time>
      </trkpt>
      <trkpt lat="50.620453" lon="26.234848">
        <ele>236.328288</ele>
        <time>2019-06-05T12:25:43.000Z</time>
      </trkpt>
      <trkpt lat="50.620430" lon="26.235090">
        <ele>235.392813</ele>
        <time>2019-06-05T12:25:45.000Z</time>
      </trkpt>
      <trkpt lat="50.620420" lon="26.235336">
        <ele>234.450441</ele>
        <time>2019-06-05T12:25:47.000Z</time>
      </trkpt>
      <trkpt lat="50.620407" lon="26.235567">
        <ele>233.563873</ele>
        <time>2019-06-05T12:25:49.000Z</time>
      </trkpt>
      <trkpt lat="50.620400" lon="26.235767">
        <ele>232.798122</ele>
        <time>2019-06-05T12:25:51.000Z</time>
      </trkpt>
      <trkpt lat="50.620390" lon="26.235943">
        <ele>232.122590</ele>
        <time>2019-06-05T12:25:53.000Z</time>
      </trkpt>
      <trkpt lat="50.620388" lon="26.236086">
        <ele>231.575776</ele>
        <time>2019-06-05T12:25:55.000Z</time>
      </trkpt>
      <trkpt lat="50.620373" lon="26.236267">
        <ele>230.877945</ele>
        <time>2019-06-05T12:25:58.000Z</time>
      </trkpt>
      <trkpt lat="50.620365" lon="26.236448">
        <ele>230.184314</ele>
        <time>2019-06-05T12:26:01.000Z</time>
      </trkpt>
      <trkpt lat="50.620358" lon="26.236626">
        <ele>229.502523</ele>
        <time>2019-06-05T12:26:04.000Z</time>
      </trkpt>
      <trkpt lat="50.620346" lon="26.236801">
        <ele>228.829611</ele>
        <time>2019-06-05T12:26:07.000Z</time>
      </trkpt>
      <trkpt lat="50.620335" lon="26.236973">
        <ele>228.460072</ele>
        <time>2019-06-05T12:26:10.000Z</time>
      </trkpt>
      <trkpt lat="50.620320" lon="26.237143">
        <ele>228.203680</ele>
        <time>2019-06-05T12:26:13.000Z</time>
      </trkpt>
      <trkpt lat="50.620310" lon="26.237303">
        <ele>227.963513</ele>
        <time>2019-06-05T12:26:16.000Z</time>
      </trkpt>
      <trkpt lat="50.620308" lon="26.237478">
        <ele>227.702053</ele>
        <time>2019-06-05T12:26:19.000Z</time>
      </trkpt>
      <trkpt lat="50.620300" lon="26.237684">
        <ele>227.393751</ele>
        <time>2019-06-05T12:26:22.000Z</time>
      </trkpt>
      <trkpt lat="50.620293" lon="26.237870">
        <ele>227.115413</ele>
        <time>2019-06-05T12:26:25.000Z</time>
      </trkpt>
      <trkpt lat="50.620280" lon="26.238066">
        <ele>226.821030</ele>
        <time>2019-06-05T12:26:28.000Z</time>
      </trkpt>
      <trkpt lat="50.620274" lon="26.238209">
        <ele>226.606948</ele>
        <time>2019-06-05T12:26:30.000Z</time>
      </trkpt>
      <trkpt lat="50.620270" lon="26.238356">
        <ele>226.387155</ele>
        <time>2019-06-05T12:26:32.000Z</time>
      </trkpt>
      <trkpt lat="50.620266" lon="26.238500">
        <ele>226.171839</ele>
        <time>2019-06-05T12:26:34.000Z</time>
      </trkpt>
      <trkpt lat="50.620255" lon="26.238655">
        <ele>225.938854</ele>
        <time>2019-06-05T12:26:36.000Z</time>
      </trkpt>
      <trkpt lat="50.620243" lon="26.238810">
        <ele>225.705595</ele>
        <time>2019-06-05T12:26:38.000Z</time>
      </trkpt>
      <trkpt lat="50.620235" lon="26.238958">
        <ele>225.483709</ele>
        <time>2019-06-05T12:26:40.000Z</time>
      </trkpt>
      <trkpt lat="50.620235" lon="26.239126">
        <ele>225.232748</ele>
        <time>2019-06-05T12:26:42.000Z</time>
      </trkpt>
      <trkpt lat="50.620228" lon="26.239288">
        <ele>224.990189</ele>
        <time>2019-06-05T12:26:44.000Z</time>
      </trkpt>
      <trkpt lat="50.620213" lon="26.239452">
        <ele>224.742670</ele>
        <time>2019-06-05T12:26:46.000Z</time>
      </trkpt>
      <trkpt lat="50.620210" lon="26.239622">
        <ele>224.488623</ele>
        <time>2019-06-05T12:26:48.000Z</time>
      </trkpt>
      <trkpt lat="50.620205" lon="26.239813">
        <ele>224.494584</ele>
        <time>2019-06-05T12:26:50.000Z</time>
      </trkpt>
      <trkpt lat="50.620190" lon="26.240015">
        <ele>224.614545</ele>
        <time>2019-06-05T12:26:52.000Z</time>
      </trkpt>
      <trkpt lat="50.620182" lon="26.240215">
        <ele>224.732748</ele>
        <time>2019-06-05T12:26:54.000Z</time>
      </trkpt>
      <trkpt lat="50.620170" lon="26.240416">
        <ele>224.851831</ele>
        <time>2019-06-05T12:26:56.000Z</time>
      </trkpt>
      <trkpt lat="50.620170" lon="26.240599">
        <ele>224.959772</ele>
        <time>2019-06-05T12:26:58.000Z</time>
      </trkpt>
      <trkpt lat="50.620163" lon="26.240765">
        <ele>225.057902</ele>
        <time>2019-06-05T12:27:00.000Z</time>
      </trkpt>
      <trkpt lat="50.620167" lon="26.240970">
        <ele>225.178878</ele>
        <time>2019-06-05T12:27:03.000Z</time>
      </trkpt>
      <trkpt lat="50.620167" lon="26.241148">
        <ele>225.283870</ele>
        <time>2019-06-05T12:27:06.000Z</time>
      </trkpt>
      <trkpt lat="50.620163" lon="26.241322">
        <ele>225.386570</ele>
        <time>2019-06-05T12:27:09.000Z</time>
      </trkpt>
      <trkpt lat="50.620155" lon="26.241503">
        <ele>225.493591</ele>
        <time>2019-06-05T12:27:12.000Z</time>
      </trkpt>
      <trkpt lat="50.620136" lon="26.241686">
        <ele>225.602968</ele>
        <time>2019-06-05T12:27:15.000Z</time>
      </trkpt>
      <trkpt lat="50.620106" lon="26.241869">
        <ele>225.714454</ele>
        <time>2019-06-05T12:27:18.000Z</time>
      </trkpt>
      <trkpt lat="50.620100" lon="26.242054">
        <ele>225.823718</ele>
        <time>2019-06-05T12:27:21.000Z</time>
      </trkpt>
      <trkpt lat="50.620102" lon="26.242220">
        <ele>225.921650</ele>
        <time>2019-06-05T12:27:24.000Z</time>
      </trkpt>
      <trkpt lat="50.620087" lon="26.242365">
        <ele>226.008307</ele>
        <time>2019-06-05T12:27:27.000Z</time>
      </trkpt>
      <trkpt lat="50.620083" lon="26.242540">
        <ele>226.108601</ele>
        <time>2019-06-05T12:27:31.000Z</time>
      </trkpt>
      <trkpt lat="50.620083" lon="26.242682">
        <ele>226.183193</ele>
        <time>2019-06-05T12:27:34.000Z</time>
      </trkpt>
      <trkpt lat="50.620080" lon="26.242832">
        <ele>226.262026</ele>
        <time>2019-06-05T12:27:37.000Z</time>
      </trkpt>
      <trkpt lat="50.620064" lon="26.242989">
        <ele>226.345554</ele>
        <time>2019-06-05T12:27:40.000Z</time>
      </trkpt>
      <trkpt lat="50.620052" lon="26.243141">
        <ele>226.426014</ele>
        <time>2019-06-05T12:27:43.000Z</time>
      </trkpt>
      <trkpt lat="50.620045" lon="26.243319">
        <ele>226.519696</ele>
        <time>2019-06-05T12:27:46.000Z</time>
      </trkpt>
      <trkpt lat="50.620033" lon="26.243486">
        <ele>226.607980</ele>
        <time>2019-06-05T12:27:49.000Z</time>
      </trkpt>
      <trkpt lat="50.620030" lon="26.243639">
        <ele>226.688389</ele>
        <time>2019-06-05T12:27:52.000Z</time>
      </trkpt>
      <trkpt lat="50.620010" lon="26.243790">
        <ele>226.769418</ele>
        <time>2019-06-05T12:27:55.000Z</time>
      </trkpt>
      <trkpt lat="50.619990" lon="26.243969">
        <ele>226.864892</ele>
        <time>2019-06-05T12:27:59.000Z</time>
      </trkpt>
      <trkpt lat="50.619980" lon="26.244120">
        <ele>226.944643</ele>
        <time>2019-06-05T12:28:02.000Z</time>
      </trkpt>
      <trkpt lat="50.619976" lon="26.244270">
        <ele>227.023506</ele>
        <time>2019-06-05T12:28:05.000Z</time>
      </trkpt>
      <trkpt lat="50.619976" lon="26.244430">
        <ele>227.107553</ele>
        <time>2019-06-05T12:28:08.000Z</time>
      </trkpt>
      <trkpt lat="50.619965" lon="26.244583">
        <ele>227.188437</ele>
        <time>2019-06-05T12:28:11.000Z</time>
      </trkpt>
      <trkpt lat="50.619940" lon="26.244734">
        <ele>227.270413</ele>
        <time>2019-06-05T12:28:14.000Z</time>
      </trkpt>
      <trkpt lat="50.619930" lon="26.244915">
        <ele>227.365851</ele>
        <time>2019-06-05T12:28:18.000Z</time>
      </trkpt>
      <trkpt lat="50.619923" lon="26.245064">
        <ele>227.444334</ele>
        <time>2019-06-05T12:28:22.000Z</time>
      </trkpt>
      <trkpt lat="50.619957" lon="26.245249">
        <ele>227.545508</ele>
        <time>2019-06-05T12:29:34.000Z</time>
      </trkpt>
      <trkpt lat="50.620050" lon="26.245201">
        <ele>227.573387</ele>
        <time>2019-06-05T12:29:42.000Z</time>
      </trkpt>
      <trkpt lat="50.620113" lon="26.245323">
        <ele>227.573387</ele>
        <time>2019-06-05T12:29:51.000Z</time>
      </trkpt>
      <trkpt lat="50.620117" lon="26.245472">
        <ele>227.573387</ele>
        <time>2019-06-05T12:29:55.000Z</time>
      </trkpt>
      <trkpt lat="50.620125" lon="26.245626">
        <ele>227.573387</ele>
        <time>2019-06-05T12:30:00.000Z</time>
      </trkpt>
      <trkpt lat="50.620130" lon="26.245773">
        <ele>227.573387</ele>
        <time>2019-06-05T12:30:04.000Z</time>
      </trkpt>
      <trkpt lat="50.620113" lon="26.245941">
        <ele>227.573387</ele>
        <time>2019-06-05T12:30:09.000Z</time>
      </trkpt>
      <trkpt lat="50.620106" lon="26.246096">
        <ele>227.573387</ele>
        <time>2019-06-05T12:30:14.000Z</time>
      </trkpt>
      <trkpt lat="50.620060" lon="26.246286">
        <ele>227.573387</ele>
        <time>2019-06-05T12:30:19.000Z</time>
      </trkpt>
      <trkpt lat="50.620030" lon="26.246437">
        <ele>227.573387</ele>
        <time>2019-06-05T12:30:23.000Z</time>
      </trkpt>
      <trkpt lat="50.620026" lon="26.246584">
        <ele>227.573387</ele>
        <time>2019-06-05T12:30:27.000Z</time>
      </trkpt>
      <trkpt lat="50.620113" lon="26.246653">
        <ele>227.573387</ele>
        <time>2019-06-05T12:30:32.000Z</time>
      </trkpt>
    </trkseg>
  </trk>
</gpx>